<?xml version="1.0" encoding="UTF-8" standalone="no" ?>
<gpx xmlns="http://www.topografix.com/GPX/1/1" xmlns:xsi="http://www.w3.org/2001/XMLSchema-instance" xsi:schemaLocation="http://www.topografix.com/GPX/1/1 http://www.topografix.com/GPX/1/1/gpx.xsd" version="1.1" creator="VisuGPX - https://www.visugpx.com">
  <metadata>
    <name>Glaris-Engelberg</name>
  </metadata>
  <trk>
    <name><![CDATA[Glaris-Engelberg_5]]></name>
    <extensions>
      <line xmlns="http://www.topografix.com/GPX/gpx_style/0/2">
        <color>FFFF00</color>
        <width>4</width>
      </line>
    </extensions>
    <trkseg>
      <trkpt lat="47.01616" lon="8.65412">
        <ele>487</ele>
        <time>2021-08-05T08:37:48.414Z</time>
      </trkpt>
      <trkpt lat="47.01616" lon="8.65412">
        <ele>487</ele>
        <time>2021-08-05T08:37:48.414Z</time>
      </trkpt>
      <trkpt lat="47.01616" lon="8.65412">
        <ele>488</ele>
        <time>2021-08-05T08:37:49.415Z</time>
      </trkpt>
      <trkpt lat="47.01616" lon="8.65414">
        <ele>488</ele>
        <time>2021-08-05T08:37:50.414Z</time>
      </trkpt>
      <trkpt lat="47.01618" lon="8.65417">
        <ele>488</ele>
        <time>2021-08-05T08:37:51.415Z</time>
      </trkpt>
      <trkpt lat="47.01619" lon="8.6542">
        <ele>487</ele>
        <time>2021-08-05T08:37:52.414Z</time>
      </trkpt>
      <trkpt lat="47.0162" lon="8.65421">
        <ele>487</ele>
        <time>2021-08-05T08:37:53.414Z</time>
      </trkpt>
      <trkpt lat="47.0162" lon="8.6542">
        <ele>487</ele>
        <time>2021-08-05T08:37:54.415Z</time>
      </trkpt>
      <trkpt lat="47.01619" lon="8.65419">
        <ele>487</ele>
        <time>2021-08-05T08:37:55.414Z</time>
      </trkpt>
      <trkpt lat="47.01619" lon="8.65419">
        <ele>487</ele>
        <time>2021-08-05T08:37:56.415Z</time>
      </trkpt>
      <trkpt lat="47.01618" lon="8.65419">
        <ele>487</ele>
        <time>2021-08-05T08:37:57.414Z</time>
      </trkpt>
      <trkpt lat="47.01617" lon="8.65418">
        <ele>487</ele>
        <time>2021-08-05T08:37:58.415Z</time>
      </trkpt>
      <trkpt lat="47.01616" lon="8.65419">
        <ele>487</ele>
        <time>2021-08-05T08:37:59.415Z</time>
      </trkpt>
      <trkpt lat="47.01615" lon="8.6542">
        <ele>487</ele>
        <time>2021-08-05T08:38:00.415Z</time>
      </trkpt>
      <trkpt lat="47.01614" lon="8.65421">
        <ele>487</ele>
        <time>2021-08-05T08:38:01.415Z</time>
      </trkpt>
      <trkpt lat="47.01613" lon="8.65422">
        <ele>487</ele>
        <time>2021-08-05T08:38:02.414Z</time>
      </trkpt>
      <trkpt lat="47.01611" lon="8.65423">
        <ele>487</ele>
        <time>2021-08-05T08:38:03.415Z</time>
      </trkpt>
      <trkpt lat="47.0161" lon="8.65425">
        <ele>487</ele>
        <time>2021-08-05T08:38:04.414Z</time>
      </trkpt>
      <trkpt lat="47.01608" lon="8.65426">
        <ele>487</ele>
        <time>2021-08-05T08:38:05.415Z</time>
      </trkpt>
      <trkpt lat="47.01607" lon="8.65427">
        <ele>487</ele>
        <time>2021-08-05T08:38:06.415Z</time>
      </trkpt>
      <trkpt lat="47.01606" lon="8.65428">
        <ele>487</ele>
        <time>2021-08-05T08:38:07.415Z</time>
      </trkpt>
      <trkpt lat="47.01605" lon="8.65429">
        <ele>488</ele>
        <time>2021-08-05T08:38:08.415Z</time>
      </trkpt>
      <trkpt lat="47.01604" lon="8.6543">
        <ele>488</ele>
        <time>2021-08-05T08:38:09.415Z</time>
      </trkpt>
      <trkpt lat="47.01603" lon="8.6543">
        <ele>489</ele>
        <time>2021-08-05T08:38:10.415Z</time>
      </trkpt>
      <trkpt lat="47.01603" lon="8.6543">
        <ele>490</ele>
        <time>2021-08-05T08:38:11.414Z</time>
      </trkpt>
      <trkpt lat="47.01602" lon="8.65431">
        <ele>490</ele>
        <time>2021-08-05T08:38:12.415Z</time>
      </trkpt>
      <trkpt lat="47.01601" lon="8.65432">
        <ele>491</ele>
        <time>2021-08-05T08:38:13.415Z</time>
      </trkpt>
      <trkpt lat="47.016" lon="8.65434">
        <ele>492</ele>
        <time>2021-08-05T08:38:14.414Z</time>
      </trkpt>
      <trkpt lat="47.01599" lon="8.65435">
        <ele>492</ele>
        <time>2021-08-05T08:38:15.415Z</time>
      </trkpt>
      <trkpt lat="47.01598" lon="8.65436">
        <ele>492</ele>
        <time>2021-08-05T08:38:16.415Z</time>
      </trkpt>
      <trkpt lat="47.01597" lon="8.65437">
        <ele>493</ele>
        <time>2021-08-05T08:38:17.415Z</time>
      </trkpt>
      <trkpt lat="47.01597" lon="8.65437">
        <ele>492</ele>
        <time>2021-08-05T08:38:18.414Z</time>
      </trkpt>
      <trkpt lat="47.01597" lon="8.65437">
        <ele>492</ele>
        <time>2021-08-05T08:38:19.415Z</time>
      </trkpt>
      <trkpt lat="47.01596" lon="8.65436">
        <ele>492</ele>
        <time>2021-08-05T08:38:20.415Z</time>
      </trkpt>
      <trkpt lat="47.01594" lon="8.65436">
        <ele>492</ele>
        <time>2021-08-05T08:38:21.415Z</time>
      </trkpt>
      <trkpt lat="47.01593" lon="8.65437">
        <ele>492</ele>
        <time>2021-08-05T08:38:22.415Z</time>
      </trkpt>
      <trkpt lat="47.01592" lon="8.65437">
        <ele>492</ele>
        <time>2021-08-05T08:38:23.415Z</time>
      </trkpt>
      <trkpt lat="47.0159" lon="8.65437">
        <ele>492</ele>
        <time>2021-08-05T08:38:24.414Z</time>
      </trkpt>
      <trkpt lat="47.01589" lon="8.65437">
        <ele>492</ele>
        <time>2021-08-05T08:38:25.415Z</time>
      </trkpt>
      <trkpt lat="47.01588" lon="8.65437">
        <ele>492</ele>
        <time>2021-08-05T08:38:26.414Z</time>
      </trkpt>
      <trkpt lat="47.01587" lon="8.65438">
        <ele>492</ele>
        <time>2021-08-05T08:38:27.414Z</time>
      </trkpt>
      <trkpt lat="47.01586" lon="8.65438">
        <ele>492</ele>
        <time>2021-08-05T08:38:28.415Z</time>
      </trkpt>
      <trkpt lat="47.01585" lon="8.65439">
        <ele>492</ele>
        <time>2021-08-05T08:38:29.415Z</time>
      </trkpt>
      <trkpt lat="47.01584" lon="8.6544">
        <ele>492</ele>
        <time>2021-08-05T08:38:30.415Z</time>
      </trkpt>
      <trkpt lat="47.01583" lon="8.65441">
        <ele>492</ele>
        <time>2021-08-05T08:38:31.414Z</time>
      </trkpt>
      <trkpt lat="47.01582" lon="8.65441">
        <ele>493</ele>
        <time>2021-08-05T08:38:32.415Z</time>
      </trkpt>
      <trkpt lat="47.01581" lon="8.65442">
        <ele>493</ele>
        <time>2021-08-05T08:38:33.415Z</time>
      </trkpt>
      <trkpt lat="47.0158" lon="8.65442">
        <ele>493</ele>
        <time>2021-08-05T08:38:34.414Z</time>
      </trkpt>
      <trkpt lat="47.01579" lon="8.65443">
        <ele>493</ele>
        <time>2021-08-05T08:38:35.415Z</time>
      </trkpt>
      <trkpt lat="47.01578" lon="8.65444">
        <ele>493</ele>
        <time>2021-08-05T08:38:36.415Z</time>
      </trkpt>
      <trkpt lat="47.01577" lon="8.65444">
        <ele>493</ele>
        <time>2021-08-05T08:38:37.414Z</time>
      </trkpt>
      <trkpt lat="47.01576" lon="8.65445">
        <ele>492</ele>
        <time>2021-08-05T08:38:38.415Z</time>
      </trkpt>
      <trkpt lat="47.01574" lon="8.65445">
        <ele>492</ele>
        <time>2021-08-05T08:38:39.414Z</time>
      </trkpt>
      <trkpt lat="47.01573" lon="8.65446">
        <ele>492</ele>
        <time>2021-08-05T08:38:40.414Z</time>
      </trkpt>
      <trkpt lat="47.01572" lon="8.65447">
        <ele>492</ele>
        <time>2021-08-05T08:38:41.415Z</time>
      </trkpt>
      <trkpt lat="47.01571" lon="8.65447">
        <ele>492</ele>
        <time>2021-08-05T08:38:42.414Z</time>
      </trkpt>
      <trkpt lat="47.0157" lon="8.65448">
        <ele>492</ele>
        <time>2021-08-05T08:38:43.414Z</time>
      </trkpt>
      <trkpt lat="47.01569" lon="8.65449">
        <ele>492</ele>
        <time>2021-08-05T08:38:44.414Z</time>
      </trkpt>
      <trkpt lat="47.01568" lon="8.6545">
        <ele>492</ele>
        <time>2021-08-05T08:38:45.414Z</time>
      </trkpt>
      <trkpt lat="47.01567" lon="8.65451">
        <ele>492</ele>
        <time>2021-08-05T08:38:46.415Z</time>
      </trkpt>
      <trkpt lat="47.01566" lon="8.65451">
        <ele>493</ele>
        <time>2021-08-05T08:38:47.415Z</time>
      </trkpt>
      <trkpt lat="47.01565" lon="8.65451">
        <ele>493</ele>
        <time>2021-08-05T08:38:48.415Z</time>
      </trkpt>
      <trkpt lat="47.01564" lon="8.65452">
        <ele>493</ele>
        <time>2021-08-05T08:38:49.415Z</time>
      </trkpt>
      <trkpt lat="47.01563" lon="8.65452">
        <ele>493</ele>
        <time>2021-08-05T08:38:50.414Z</time>
      </trkpt>
      <trkpt lat="47.01562" lon="8.65452">
        <ele>494</ele>
        <time>2021-08-05T08:38:51.415Z</time>
      </trkpt>
      <trkpt lat="47.01561" lon="8.65453">
        <ele>494</ele>
        <time>2021-08-05T08:38:52.415Z</time>
      </trkpt>
      <trkpt lat="47.0156" lon="8.65453">
        <ele>494</ele>
        <time>2021-08-05T08:38:53.414Z</time>
      </trkpt>
      <trkpt lat="47.01559" lon="8.65454">
        <ele>495</ele>
        <time>2021-08-05T08:38:54.414Z</time>
      </trkpt>
      <trkpt lat="47.01558" lon="8.65454">
        <ele>495</ele>
        <time>2021-08-05T08:38:55.414Z</time>
      </trkpt>
      <trkpt lat="47.01558" lon="8.65455">
        <ele>496</ele>
        <time>2021-08-05T08:38:56.414Z</time>
      </trkpt>
      <trkpt lat="47.01557" lon="8.65455">
        <ele>496</ele>
        <time>2021-08-05T08:38:57.415Z</time>
      </trkpt>
      <trkpt lat="47.01556" lon="8.65455">
        <ele>497</ele>
        <time>2021-08-05T08:38:58.414Z</time>
      </trkpt>
      <trkpt lat="47.01555" lon="8.65456">
        <ele>497</ele>
        <time>2021-08-05T08:38:59.414Z</time>
      </trkpt>
      <trkpt lat="47.01554" lon="8.65457">
        <ele>497</ele>
        <time>2021-08-05T08:39:00.415Z</time>
      </trkpt>
      <trkpt lat="47.01553" lon="8.65457">
        <ele>497</ele>
        <time>2021-08-05T08:39:01.414Z</time>
      </trkpt>
      <trkpt lat="47.01552" lon="8.65458">
        <ele>497</ele>
        <time>2021-08-05T08:39:02.415Z</time>
      </trkpt>
      <trkpt lat="47.01551" lon="8.65458">
        <ele>496</ele>
        <time>2021-08-05T08:39:03.415Z</time>
      </trkpt>
      <trkpt lat="47.0155" lon="8.65459">
        <ele>496</ele>
        <time>2021-08-05T08:39:04.415Z</time>
      </trkpt>
      <trkpt lat="47.01549" lon="8.65459">
        <ele>496</ele>
        <time>2021-08-05T08:39:05.415Z</time>
      </trkpt>
      <trkpt lat="47.01548" lon="8.6546">
        <ele>495</ele>
        <time>2021-08-05T08:39:06.415Z</time>
      </trkpt>
      <trkpt lat="47.01546" lon="8.6546">
        <ele>495</ele>
        <time>2021-08-05T08:39:07.415Z</time>
      </trkpt>
      <trkpt lat="47.01545" lon="8.65461">
        <ele>494</ele>
        <time>2021-08-05T08:39:08.415Z</time>
      </trkpt>
      <trkpt lat="47.01545" lon="8.65461">
        <ele>494</ele>
        <time>2021-08-05T08:39:09.415Z</time>
      </trkpt>
      <trkpt lat="47.01544" lon="8.65462">
        <ele>494</ele>
        <time>2021-08-05T08:39:10.415Z</time>
      </trkpt>
      <trkpt lat="47.01543" lon="8.65462">
        <ele>494</ele>
        <time>2021-08-05T08:39:11.414Z</time>
      </trkpt>
      <trkpt lat="47.01542" lon="8.65463">
        <ele>494</ele>
        <time>2021-08-05T08:39:12.415Z</time>
      </trkpt>
      <trkpt lat="47.01541" lon="8.65463">
        <ele>494</ele>
        <time>2021-08-05T08:39:13.415Z</time>
      </trkpt>
      <trkpt lat="47.0154" lon="8.65464">
        <ele>494</ele>
        <time>2021-08-05T08:39:14.414Z</time>
      </trkpt>
      <trkpt lat="47.0154" lon="8.65465">
        <ele>494</ele>
        <time>2021-08-05T08:39:15.415Z</time>
      </trkpt>
      <trkpt lat="47.01539" lon="8.65465">
        <ele>494</ele>
        <time>2021-08-05T08:39:16.415Z</time>
      </trkpt>
      <trkpt lat="47.01538" lon="8.65466">
        <ele>494</ele>
        <time>2021-08-05T08:39:17.414Z</time>
      </trkpt>
      <trkpt lat="47.01537" lon="8.65466">
        <ele>494</ele>
        <time>2021-08-05T08:39:18.414Z</time>
      </trkpt>
      <trkpt lat="47.01536" lon="8.65467">
        <ele>494</ele>
        <time>2021-08-05T08:39:19.415Z</time>
      </trkpt>
      <trkpt lat="47.01535" lon="8.65467">
        <ele>494</ele>
        <time>2021-08-05T08:39:20.415Z</time>
      </trkpt>
      <trkpt lat="47.01534" lon="8.65467">
        <ele>494</ele>
        <time>2021-08-05T08:39:21.415Z</time>
      </trkpt>
      <trkpt lat="47.01533" lon="8.65468">
        <ele>494</ele>
        <time>2021-08-05T08:39:22.415Z</time>
      </trkpt>
      <trkpt lat="47.01532" lon="8.65469">
        <ele>493</ele>
        <time>2021-08-05T08:39:23.414Z</time>
      </trkpt>
      <trkpt lat="47.01531" lon="8.65469">
        <ele>493</ele>
        <time>2021-08-05T08:39:24.415Z</time>
      </trkpt>
      <trkpt lat="47.01529" lon="8.65469">
        <ele>494</ele>
        <time>2021-08-05T08:39:25.415Z</time>
      </trkpt>
      <trkpt lat="47.01529" lon="8.6547">
        <ele>494</ele>
        <time>2021-08-05T08:39:26.414Z</time>
      </trkpt>
      <trkpt lat="47.01528" lon="8.65471">
        <ele>494</ele>
        <time>2021-08-05T08:39:27.414Z</time>
      </trkpt>
      <trkpt lat="47.01527" lon="8.65471">
        <ele>494</ele>
        <time>2021-08-05T08:39:28.414Z</time>
      </trkpt>
      <trkpt lat="47.01526" lon="8.65472">
        <ele>494</ele>
        <time>2021-08-05T08:39:29.414Z</time>
      </trkpt>
      <trkpt lat="47.01525" lon="8.65473">
        <ele>494</ele>
        <time>2021-08-05T08:39:30.415Z</time>
      </trkpt>
      <trkpt lat="47.01524" lon="8.65474">
        <ele>494</ele>
        <time>2021-08-05T08:39:31.414Z</time>
      </trkpt>
      <trkpt lat="47.01523" lon="8.65474">
        <ele>493</ele>
        <time>2021-08-05T08:39:32.415Z</time>
      </trkpt>
      <trkpt lat="47.01522" lon="8.65475">
        <ele>493</ele>
        <time>2021-08-05T08:39:33.415Z</time>
      </trkpt>
      <trkpt lat="47.01521" lon="8.65475">
        <ele>493</ele>
        <time>2021-08-05T08:39:34.415Z</time>
      </trkpt>
      <trkpt lat="47.0152" lon="8.65476">
        <ele>493</ele>
        <time>2021-08-05T08:39:35.414Z</time>
      </trkpt>
      <trkpt lat="47.01519" lon="8.65477">
        <ele>493</ele>
        <time>2021-08-05T08:39:36.415Z</time>
      </trkpt>
      <trkpt lat="47.01518" lon="8.65477">
        <ele>493</ele>
        <time>2021-08-05T08:39:37.415Z</time>
      </trkpt>
      <trkpt lat="47.01517" lon="8.65478">
        <ele>493</ele>
        <time>2021-08-05T08:39:38.415Z</time>
      </trkpt>
      <trkpt lat="47.01516" lon="8.65478">
        <ele>494</ele>
        <time>2021-08-05T08:39:39.415Z</time>
      </trkpt>
      <trkpt lat="47.01515" lon="8.65479">
        <ele>494</ele>
        <time>2021-08-05T08:39:40.415Z</time>
      </trkpt>
      <trkpt lat="47.01514" lon="8.65479">
        <ele>494</ele>
        <time>2021-08-05T08:39:41.415Z</time>
      </trkpt>
      <trkpt lat="47.01513" lon="8.6548">
        <ele>495</ele>
        <time>2021-08-05T08:39:42.415Z</time>
      </trkpt>
      <trkpt lat="47.01512" lon="8.6548">
        <ele>494</ele>
        <time>2021-08-05T08:39:43.414Z</time>
      </trkpt>
      <trkpt lat="47.01512" lon="8.65481">
        <ele>494</ele>
        <time>2021-08-05T08:39:44.415Z</time>
      </trkpt>
      <trkpt lat="47.01511" lon="8.65482">
        <ele>494</ele>
        <time>2021-08-05T08:39:45.414Z</time>
      </trkpt>
      <trkpt lat="47.0151" lon="8.65482">
        <ele>494</ele>
        <time>2021-08-05T08:39:46.415Z</time>
      </trkpt>
      <trkpt lat="47.01509" lon="8.65483">
        <ele>494</ele>
        <time>2021-08-05T08:39:47.415Z</time>
      </trkpt>
      <trkpt lat="47.01508" lon="8.65483">
        <ele>495</ele>
        <time>2021-08-05T08:39:48.415Z</time>
      </trkpt>
      <trkpt lat="47.01507" lon="8.65484">
        <ele>494</ele>
        <time>2021-08-05T08:39:49.414Z</time>
      </trkpt>
      <trkpt lat="47.01506" lon="8.65484">
        <ele>494</ele>
        <time>2021-08-05T08:39:50.415Z</time>
      </trkpt>
      <trkpt lat="47.01505" lon="8.65485">
        <ele>494</ele>
        <time>2021-08-05T08:39:51.414Z</time>
      </trkpt>
      <trkpt lat="47.01504" lon="8.65486">
        <ele>494</ele>
        <time>2021-08-05T08:39:52.414Z</time>
      </trkpt>
      <trkpt lat="47.01502" lon="8.65486">
        <ele>494</ele>
        <time>2021-08-05T08:39:53.415Z</time>
      </trkpt>
      <trkpt lat="47.01502" lon="8.65487">
        <ele>494</ele>
        <time>2021-08-05T08:39:54.415Z</time>
      </trkpt>
      <trkpt lat="47.01501" lon="8.65487">
        <ele>494</ele>
        <time>2021-08-05T08:39:55.415Z</time>
      </trkpt>
      <trkpt lat="47.015" lon="8.65487">
        <ele>494</ele>
        <time>2021-08-05T08:39:56.414Z</time>
      </trkpt>
      <trkpt lat="47.01499" lon="8.65488">
        <ele>495</ele>
        <time>2021-08-05T08:39:57.415Z</time>
      </trkpt>
      <trkpt lat="47.01498" lon="8.65489">
        <ele>494</ele>
        <time>2021-08-05T08:39:58.415Z</time>
      </trkpt>
      <trkpt lat="47.01497" lon="8.65489">
        <ele>495</ele>
        <time>2021-08-05T08:39:59.415Z</time>
      </trkpt>
      <trkpt lat="47.01497" lon="8.6549">
        <ele>495</ele>
        <time>2021-08-05T08:40:00.414Z</time>
      </trkpt>
      <trkpt lat="47.01495" lon="8.6549">
        <ele>495</ele>
        <time>2021-08-05T08:40:01.414Z</time>
      </trkpt>
      <trkpt lat="47.01495" lon="8.65491">
        <ele>495</ele>
        <time>2021-08-05T08:40:02.415Z</time>
      </trkpt>
      <trkpt lat="47.01494" lon="8.65492">
        <ele>495</ele>
        <time>2021-08-05T08:40:03.414Z</time>
      </trkpt>
      <trkpt lat="47.01493" lon="8.65492">
        <ele>495</ele>
        <time>2021-08-05T08:40:04.414Z</time>
      </trkpt>
      <trkpt lat="47.01491" lon="8.65492">
        <ele>495</ele>
        <time>2021-08-05T08:40:05.414Z</time>
      </trkpt>
      <trkpt lat="47.0149" lon="8.65492">
        <ele>495</ele>
        <time>2021-08-05T08:40:06.414Z</time>
      </trkpt>
      <trkpt lat="47.01489" lon="8.65493">
        <ele>495</ele>
        <time>2021-08-05T08:40:07.415Z</time>
      </trkpt>
      <trkpt lat="47.01488" lon="8.65493">
        <ele>495</ele>
        <time>2021-08-05T08:40:08.414Z</time>
      </trkpt>
      <trkpt lat="47.01488" lon="8.65493">
        <ele>495</ele>
        <time>2021-08-05T08:40:09.414Z</time>
      </trkpt>
      <trkpt lat="47.01486" lon="8.65494">
        <ele>495</ele>
        <time>2021-08-05T08:40:10.415Z</time>
      </trkpt>
      <trkpt lat="47.01485" lon="8.65494">
        <ele>495</ele>
        <time>2021-08-05T08:40:11.414Z</time>
      </trkpt>
      <trkpt lat="47.01484" lon="8.65494">
        <ele>495</ele>
        <time>2021-08-05T08:40:12.415Z</time>
      </trkpt>
      <trkpt lat="47.01483" lon="8.65494">
        <ele>495</ele>
        <time>2021-08-05T08:40:13.415Z</time>
      </trkpt>
      <trkpt lat="47.01482" lon="8.65494">
        <ele>495</ele>
        <time>2021-08-05T08:40:14.414Z</time>
      </trkpt>
      <trkpt lat="47.01481" lon="8.65495">
        <ele>495</ele>
        <time>2021-08-05T08:40:15.415Z</time>
      </trkpt>
      <trkpt lat="47.0148" lon="8.65495">
        <ele>496</ele>
        <time>2021-08-05T08:40:16.415Z</time>
      </trkpt>
      <trkpt lat="47.01479" lon="8.65496">
        <ele>496</ele>
        <time>2021-08-05T08:40:17.415Z</time>
      </trkpt>
      <trkpt lat="47.01478" lon="8.65497">
        <ele>495</ele>
        <time>2021-08-05T08:40:18.414Z</time>
      </trkpt>
      <trkpt lat="47.01477" lon="8.65497">
        <ele>495</ele>
        <time>2021-08-05T08:40:19.414Z</time>
      </trkpt>
      <trkpt lat="47.01477" lon="8.65498">
        <ele>495</ele>
        <time>2021-08-05T08:40:20.414Z</time>
      </trkpt>
      <trkpt lat="47.01476" lon="8.65498">
        <ele>496</ele>
        <time>2021-08-05T08:40:21.415Z</time>
      </trkpt>
      <trkpt lat="47.01475" lon="8.65498">
        <ele>496</ele>
        <time>2021-08-05T08:40:22.415Z</time>
      </trkpt>
      <trkpt lat="47.01474" lon="8.65499">
        <ele>497</ele>
        <time>2021-08-05T08:40:23.415Z</time>
      </trkpt>
      <trkpt lat="47.01473" lon="8.655">
        <ele>497</ele>
        <time>2021-08-05T08:40:24.414Z</time>
      </trkpt>
      <trkpt lat="47.01472" lon="8.655">
        <ele>498</ele>
        <time>2021-08-05T08:40:25.414Z</time>
      </trkpt>
      <trkpt lat="47.01471" lon="8.655">
        <ele>498</ele>
        <time>2021-08-05T08:40:26.415Z</time>
      </trkpt>
      <trkpt lat="47.0147" lon="8.65501">
        <ele>498</ele>
        <time>2021-08-05T08:40:27.415Z</time>
      </trkpt>
      <trkpt lat="47.01469" lon="8.65501">
        <ele>498</ele>
        <time>2021-08-05T08:40:28.415Z</time>
      </trkpt>
      <trkpt lat="47.01468" lon="8.65502">
        <ele>498</ele>
        <time>2021-08-05T08:40:29.414Z</time>
      </trkpt>
      <trkpt lat="47.01467" lon="8.65502">
        <ele>498</ele>
        <time>2021-08-05T08:40:30.415Z</time>
      </trkpt>
      <trkpt lat="47.01466" lon="8.65502">
        <ele>498</ele>
        <time>2021-08-05T08:40:31.414Z</time>
      </trkpt>
      <trkpt lat="47.01465" lon="8.65503">
        <ele>498</ele>
        <time>2021-08-05T08:40:32.415Z</time>
      </trkpt>
      <trkpt lat="47.01464" lon="8.65503">
        <ele>498</ele>
        <time>2021-08-05T08:40:33.415Z</time>
      </trkpt>
      <trkpt lat="47.01463" lon="8.65504">
        <ele>497</ele>
        <time>2021-08-05T08:40:34.415Z</time>
      </trkpt>
      <trkpt lat="47.01462" lon="8.65505">
        <ele>497</ele>
        <time>2021-08-05T08:40:35.414Z</time>
      </trkpt>
      <trkpt lat="47.01462" lon="8.65506">
        <ele>496</ele>
        <time>2021-08-05T08:40:36.415Z</time>
      </trkpt>
      <trkpt lat="47.01461" lon="8.65507">
        <ele>496</ele>
        <time>2021-08-05T08:40:37.415Z</time>
      </trkpt>
      <trkpt lat="47.01461" lon="8.65508">
        <ele>495</ele>
        <time>2021-08-05T08:40:38.414Z</time>
      </trkpt>
      <trkpt lat="47.01461" lon="8.65508">
        <ele>494</ele>
        <time>2021-08-05T08:40:39.415Z</time>
      </trkpt>
      <trkpt lat="47.01462" lon="8.65508">
        <ele>490</ele>
        <time>2021-08-05T08:40:40.416Z</time>
      </trkpt>
      <trkpt lat="47.01462" lon="8.65509">
        <ele>490</ele>
        <time>2021-08-05T08:40:41.416Z</time>
      </trkpt>
      <trkpt lat="47.01462" lon="8.65509">
        <ele>489</ele>
        <time>2021-08-05T08:40:42.416Z</time>
      </trkpt>
      <trkpt lat="47.01462" lon="8.65509">
        <ele>488</ele>
        <time>2021-08-05T08:40:43.416Z</time>
      </trkpt>
      <trkpt lat="47.01462" lon="8.65509">
        <ele>488</ele>
        <time>2021-08-05T08:40:44.415Z</time>
      </trkpt>
      <trkpt lat="47.01461" lon="8.65509">
        <ele>487</ele>
        <time>2021-08-05T08:40:45.416Z</time>
      </trkpt>
      <trkpt lat="47.0146" lon="8.65509">
        <ele>487</ele>
        <time>2021-08-05T08:40:46.416Z</time>
      </trkpt>
      <trkpt lat="47.01459" lon="8.6551">
        <ele>487</ele>
        <time>2021-08-05T08:40:47.416Z</time>
      </trkpt>
      <trkpt lat="47.01458" lon="8.65511">
        <ele>487</ele>
        <time>2021-08-05T08:40:48.416Z</time>
      </trkpt>
      <trkpt lat="47.01457" lon="8.65511">
        <ele>487</ele>
        <time>2021-08-05T08:40:49.416Z</time>
      </trkpt>
      <trkpt lat="47.01456" lon="8.65512">
        <ele>488</ele>
        <time>2021-08-05T08:40:50.416Z</time>
      </trkpt>
      <trkpt lat="47.01455" lon="8.65513">
        <ele>488</ele>
        <time>2021-08-05T08:40:51.416Z</time>
      </trkpt>
      <trkpt lat="47.01455" lon="8.65515">
        <ele>488</ele>
        <time>2021-08-05T08:40:52.416Z</time>
      </trkpt>
      <trkpt lat="47.01454" lon="8.65515">
        <ele>489</ele>
        <time>2021-08-05T08:40:53.416Z</time>
      </trkpt>
      <trkpt lat="47.01452" lon="8.65514">
        <ele>489</ele>
        <time>2021-08-05T08:40:54.416Z</time>
      </trkpt>
      <trkpt lat="47.01452" lon="8.65514">
        <ele>489</ele>
        <time>2021-08-05T08:40:55.416Z</time>
      </trkpt>
      <trkpt lat="47.01452" lon="8.65514">
        <ele>490</ele>
        <time>2021-08-05T08:40:56.416Z</time>
      </trkpt>
      <trkpt lat="47.01452" lon="8.65514">
        <ele>490</ele>
        <time>2021-08-05T08:40:57.415Z</time>
      </trkpt>
      <trkpt lat="47.01452" lon="8.65514">
        <ele>490</ele>
        <time>2021-08-05T08:40:58.416Z</time>
      </trkpt>
      <trkpt lat="47.01451" lon="8.65514">
        <ele>490</ele>
        <time>2021-08-05T08:40:59.416Z</time>
      </trkpt>
      <trkpt lat="47.01452" lon="8.65515">
        <ele>490</ele>
        <time>2021-08-05T08:41:00.416Z</time>
      </trkpt>
      <trkpt lat="47.01451" lon="8.65515">
        <ele>490</ele>
        <time>2021-08-05T08:41:01.416Z</time>
      </trkpt>
      <trkpt lat="47.0145" lon="8.65514">
        <ele>490</ele>
        <time>2021-08-05T08:41:02.416Z</time>
      </trkpt>
      <trkpt lat="47.01449" lon="8.65513">
        <ele>490</ele>
        <time>2021-08-05T08:41:03.415Z</time>
      </trkpt>
      <trkpt lat="47.01449" lon="8.65513">
        <ele>490</ele>
        <time>2021-08-05T08:41:04.416Z</time>
      </trkpt>
      <trkpt lat="47.01448" lon="8.65513">
        <ele>490</ele>
        <time>2021-08-05T08:41:05.416Z</time>
      </trkpt>
      <trkpt lat="47.01447" lon="8.65514">
        <ele>490</ele>
        <time>2021-08-05T08:41:06.415Z</time>
      </trkpt>
      <trkpt lat="47.01446" lon="8.65515">
        <ele>490</ele>
        <time>2021-08-05T08:41:07.415Z</time>
      </trkpt>
      <trkpt lat="47.01446" lon="8.65516">
        <ele>491</ele>
        <time>2021-08-05T08:41:08.416Z</time>
      </trkpt>
      <trkpt lat="47.01446" lon="8.65516">
        <ele>491</ele>
        <time>2021-08-05T08:41:09.416Z</time>
      </trkpt>
      <trkpt lat="47.01445" lon="8.65517">
        <ele>492</ele>
        <time>2021-08-05T08:41:10.415Z</time>
      </trkpt>
      <trkpt lat="47.01444" lon="8.65517">
        <ele>492</ele>
        <time>2021-08-05T08:41:11.416Z</time>
      </trkpt>
      <trkpt lat="47.01443" lon="8.65517">
        <ele>493</ele>
        <time>2021-08-05T08:41:12.416Z</time>
      </trkpt>
      <trkpt lat="47.01442" lon="8.65517">
        <ele>493</ele>
        <time>2021-08-05T08:41:13.416Z</time>
      </trkpt>
      <trkpt lat="47.01441" lon="8.65517">
        <ele>494</ele>
        <time>2021-08-05T08:41:14.416Z</time>
      </trkpt>
      <trkpt lat="47.0144" lon="8.65518">
        <ele>494</ele>
        <time>2021-08-05T08:41:15.416Z</time>
      </trkpt>
      <trkpt lat="47.01439" lon="8.65518">
        <ele>495</ele>
        <time>2021-08-05T08:41:16.415Z</time>
      </trkpt>
      <trkpt lat="47.01438" lon="8.65519">
        <ele>495</ele>
        <time>2021-08-05T08:41:17.416Z</time>
      </trkpt>
      <trkpt lat="47.01437" lon="8.65519">
        <ele>496</ele>
        <time>2021-08-05T08:41:18.415Z</time>
      </trkpt>
      <trkpt lat="47.01436" lon="8.6552">
        <ele>496</ele>
        <time>2021-08-05T08:41:19.416Z</time>
      </trkpt>
      <trkpt lat="47.01436" lon="8.65521">
        <ele>496</ele>
        <time>2021-08-05T08:41:20.416Z</time>
      </trkpt>
      <trkpt lat="47.01435" lon="8.65522">
        <ele>497</ele>
        <time>2021-08-05T08:41:21.416Z</time>
      </trkpt>
      <trkpt lat="47.01434" lon="8.65522">
        <ele>497</ele>
        <time>2021-08-05T08:41:22.416Z</time>
      </trkpt>
      <trkpt lat="47.01433" lon="8.65523">
        <ele>497</ele>
        <time>2021-08-05T08:41:23.416Z</time>
      </trkpt>
      <trkpt lat="47.01432" lon="8.65523">
        <ele>497</ele>
        <time>2021-08-05T08:41:24.416Z</time>
      </trkpt>
      <trkpt lat="47.01431" lon="8.65524">
        <ele>498</ele>
        <time>2021-08-05T08:41:25.415Z</time>
      </trkpt>
      <trkpt lat="47.0143" lon="8.65525">
        <ele>498</ele>
        <time>2021-08-05T08:41:26.415Z</time>
      </trkpt>
      <trkpt lat="47.01429" lon="8.65525">
        <ele>498</ele>
        <time>2021-08-05T08:41:27.415Z</time>
      </trkpt>
      <trkpt lat="47.01428" lon="8.65526">
        <ele>498</ele>
        <time>2021-08-05T08:41:28.415Z</time>
      </trkpt>
      <trkpt lat="47.01427" lon="8.65526">
        <ele>498</ele>
        <time>2021-08-05T08:41:29.416Z</time>
      </trkpt>
      <trkpt lat="47.01426" lon="8.65527">
        <ele>498</ele>
        <time>2021-08-05T08:41:30.415Z</time>
      </trkpt>
      <trkpt lat="47.01425" lon="8.65528">
        <ele>498</ele>
        <time>2021-08-05T08:41:31.416Z</time>
      </trkpt>
      <trkpt lat="47.01424" lon="8.65529">
        <ele>498</ele>
        <time>2021-08-05T08:41:32.415Z</time>
      </trkpt>
      <trkpt lat="47.01423" lon="8.6553">
        <ele>498</ele>
        <time>2021-08-05T08:41:33.416Z</time>
      </trkpt>
      <trkpt lat="47.01423" lon="8.65531">
        <ele>498</ele>
        <time>2021-08-05T08:41:34.416Z</time>
      </trkpt>
      <trkpt lat="47.01422" lon="8.65532">
        <ele>498</ele>
        <time>2021-08-05T08:41:35.416Z</time>
      </trkpt>
      <trkpt lat="47.0142" lon="8.65534">
        <ele>498</ele>
        <time>2021-08-05T08:41:36.416Z</time>
      </trkpt>
      <trkpt lat="47.01419" lon="8.65535">
        <ele>498</ele>
        <time>2021-08-05T08:41:37.416Z</time>
      </trkpt>
      <trkpt lat="47.01419" lon="8.65536">
        <ele>498</ele>
        <time>2021-08-05T08:41:38.416Z</time>
      </trkpt>
      <trkpt lat="47.01418" lon="8.65538">
        <ele>497</ele>
        <time>2021-08-05T08:41:39.416Z</time>
      </trkpt>
      <trkpt lat="47.01417" lon="8.65539">
        <ele>497</ele>
        <time>2021-08-05T08:41:40.415Z</time>
      </trkpt>
      <trkpt lat="47.01416" lon="8.6554">
        <ele>497</ele>
        <time>2021-08-05T08:41:41.416Z</time>
      </trkpt>
      <trkpt lat="47.01416" lon="8.65541">
        <ele>496</ele>
        <time>2021-08-05T08:41:42.416Z</time>
      </trkpt>
      <trkpt lat="47.01415" lon="8.65542">
        <ele>496</ele>
        <time>2021-08-05T08:41:43.415Z</time>
      </trkpt>
      <trkpt lat="47.01414" lon="8.65543">
        <ele>496</ele>
        <time>2021-08-05T08:41:44.415Z</time>
      </trkpt>
      <trkpt lat="47.01414" lon="8.65544">
        <ele>496</ele>
        <time>2021-08-05T08:41:45.416Z</time>
      </trkpt>
      <trkpt lat="47.01413" lon="8.65545">
        <ele>496</ele>
        <time>2021-08-05T08:41:46.416Z</time>
      </trkpt>
      <trkpt lat="47.01412" lon="8.65546">
        <ele>496</ele>
        <time>2021-08-05T08:41:47.416Z</time>
      </trkpt>
      <trkpt lat="47.01412" lon="8.65547">
        <ele>496</ele>
        <time>2021-08-05T08:41:48.416Z</time>
      </trkpt>
      <trkpt lat="47.01411" lon="8.65548">
        <ele>496</ele>
        <time>2021-08-05T08:41:49.416Z</time>
      </trkpt>
      <trkpt lat="47.0141" lon="8.65549">
        <ele>495</ele>
        <time>2021-08-05T08:41:50.415Z</time>
      </trkpt>
      <trkpt lat="47.01409" lon="8.6555">
        <ele>495</ele>
        <time>2021-08-05T08:41:51.416Z</time>
      </trkpt>
      <trkpt lat="47.01409" lon="8.65551">
        <ele>495</ele>
        <time>2021-08-05T08:41:52.416Z</time>
      </trkpt>
      <trkpt lat="47.01408" lon="8.65552">
        <ele>495</ele>
        <time>2021-08-05T08:41:53.416Z</time>
      </trkpt>
      <trkpt lat="47.01408" lon="8.65553">
        <ele>495</ele>
        <time>2021-08-05T08:41:54.416Z</time>
      </trkpt>
      <trkpt lat="47.01408" lon="8.65553">
        <ele>495</ele>
        <time>2021-08-05T08:41:55.416Z</time>
      </trkpt>
      <trkpt lat="47.01408" lon="8.65554">
        <ele>495</ele>
        <time>2021-08-05T08:41:56.416Z</time>
      </trkpt>
      <trkpt lat="47.01408" lon="8.65556">
        <ele>495</ele>
        <time>2021-08-05T08:41:57.415Z</time>
      </trkpt>
      <trkpt lat="47.01408" lon="8.65557">
        <ele>495</ele>
        <time>2021-08-05T08:41:58.416Z</time>
      </trkpt>
      <trkpt lat="47.01407" lon="8.65558">
        <ele>495</ele>
        <time>2021-08-05T08:41:59.416Z</time>
      </trkpt>
      <trkpt lat="47.01406" lon="8.65558">
        <ele>494</ele>
        <time>2021-08-05T08:42:00.416Z</time>
      </trkpt>
      <trkpt lat="47.01405" lon="8.65559">
        <ele>494</ele>
        <time>2021-08-05T08:42:01.415Z</time>
      </trkpt>
      <trkpt lat="47.01405" lon="8.65559">
        <ele>494</ele>
        <time>2021-08-05T08:42:02.415Z</time>
      </trkpt>
      <trkpt lat="47.01404" lon="8.65559">
        <ele>493</ele>
        <time>2021-08-05T08:42:03.415Z</time>
      </trkpt>
      <trkpt lat="47.01403" lon="8.6556">
        <ele>493</ele>
        <time>2021-08-05T08:42:04.416Z</time>
      </trkpt>
      <trkpt lat="47.01403" lon="8.6556">
        <ele>492</ele>
        <time>2021-08-05T08:42:05.416Z</time>
      </trkpt>
      <trkpt lat="47.01402" lon="8.6556">
        <ele>492</ele>
        <time>2021-08-05T08:42:06.416Z</time>
      </trkpt>
      <trkpt lat="47.01402" lon="8.65561">
        <ele>491</ele>
        <time>2021-08-05T08:42:07.416Z</time>
      </trkpt>
      <trkpt lat="47.01401" lon="8.65561">
        <ele>491</ele>
        <time>2021-08-05T08:42:08.416Z</time>
      </trkpt>
      <trkpt lat="47.014" lon="8.65561">
        <ele>490</ele>
        <time>2021-08-05T08:42:09.416Z</time>
      </trkpt>
      <trkpt lat="47.01399" lon="8.65561">
        <ele>490</ele>
        <time>2021-08-05T08:42:10.415Z</time>
      </trkpt>
      <trkpt lat="47.01399" lon="8.65561">
        <ele>489</ele>
        <time>2021-08-05T08:42:11.416Z</time>
      </trkpt>
      <trkpt lat="47.01398" lon="8.65561">
        <ele>489</ele>
        <time>2021-08-05T08:42:12.415Z</time>
      </trkpt>
      <trkpt lat="47.01397" lon="8.65561">
        <ele>489</ele>
        <time>2021-08-05T08:42:13.416Z</time>
      </trkpt>
      <trkpt lat="47.01396" lon="8.65562">
        <ele>488</ele>
        <time>2021-08-05T08:42:14.415Z</time>
      </trkpt>
      <trkpt lat="47.01396" lon="8.65562">
        <ele>488</ele>
        <time>2021-08-05T08:42:15.416Z</time>
      </trkpt>
      <trkpt lat="47.01395" lon="8.65562">
        <ele>488</ele>
        <time>2021-08-05T08:42:16.415Z</time>
      </trkpt>
      <trkpt lat="47.01394" lon="8.65562">
        <ele>488</ele>
        <time>2021-08-05T08:42:17.416Z</time>
      </trkpt>
      <trkpt lat="47.01393" lon="8.65562">
        <ele>488</ele>
        <time>2021-08-05T08:42:18.416Z</time>
      </trkpt>
      <trkpt lat="47.01393" lon="8.65562">
        <ele>488</ele>
        <time>2021-08-05T08:42:19.416Z</time>
      </trkpt>
      <trkpt lat="47.01392" lon="8.65562">
        <ele>488</ele>
        <time>2021-08-05T08:42:20.416Z</time>
      </trkpt>
      <trkpt lat="47.01392" lon="8.65563">
        <ele>488</ele>
        <time>2021-08-05T08:42:21.415Z</time>
      </trkpt>
      <trkpt lat="47.01391" lon="8.65563">
        <ele>488</ele>
        <time>2021-08-05T08:42:22.416Z</time>
      </trkpt>
      <trkpt lat="47.0139" lon="8.65564">
        <ele>488</ele>
        <time>2021-08-05T08:42:23.415Z</time>
      </trkpt>
      <trkpt lat="47.0139" lon="8.65564">
        <ele>489</ele>
        <time>2021-08-05T08:42:24.416Z</time>
      </trkpt>
      <trkpt lat="47.01389" lon="8.65563">
        <ele>489</ele>
        <time>2021-08-05T08:42:25.415Z</time>
      </trkpt>
      <trkpt lat="47.01388" lon="8.65563">
        <ele>489</ele>
        <time>2021-08-05T08:42:26.415Z</time>
      </trkpt>
      <trkpt lat="47.01387" lon="8.65563">
        <ele>489</ele>
        <time>2021-08-05T08:42:27.416Z</time>
      </trkpt>
      <trkpt lat="47.01386" lon="8.65563">
        <ele>489</ele>
        <time>2021-08-05T08:42:28.415Z</time>
      </trkpt>
      <trkpt lat="47.01386" lon="8.65563">
        <ele>490</ele>
        <time>2021-08-05T08:42:29.416Z</time>
      </trkpt>
      <trkpt lat="47.01385" lon="8.65563">
        <ele>490</ele>
        <time>2021-08-05T08:42:30.416Z</time>
      </trkpt>
      <trkpt lat="47.01383" lon="8.65563">
        <ele>491</ele>
        <time>2021-08-05T08:42:31.415Z</time>
      </trkpt>
      <trkpt lat="47.01382" lon="8.65563">
        <ele>492</ele>
        <time>2021-08-05T08:42:32.416Z</time>
      </trkpt>
      <trkpt lat="47.01381" lon="8.65564">
        <ele>493</ele>
        <time>2021-08-05T08:42:33.416Z</time>
      </trkpt>
      <trkpt lat="47.01381" lon="8.65564">
        <ele>494</ele>
        <time>2021-08-05T08:42:34.416Z</time>
      </trkpt>
      <trkpt lat="47.0138" lon="8.65564">
        <ele>494</ele>
        <time>2021-08-05T08:42:35.416Z</time>
      </trkpt>
      <trkpt lat="47.01379" lon="8.65565">
        <ele>494</ele>
        <time>2021-08-05T08:42:36.415Z</time>
      </trkpt>
      <trkpt lat="47.01378" lon="8.65565">
        <ele>495</ele>
        <time>2021-08-05T08:42:37.416Z</time>
      </trkpt>
      <trkpt lat="47.01377" lon="8.65565">
        <ele>495</ele>
        <time>2021-08-05T08:42:38.415Z</time>
      </trkpt>
      <trkpt lat="47.01376" lon="8.65566">
        <ele>496</ele>
        <time>2021-08-05T08:42:39.415Z</time>
      </trkpt>
      <trkpt lat="47.01376" lon="8.65566">
        <ele>496</ele>
        <time>2021-08-05T08:42:40.416Z</time>
      </trkpt>
      <trkpt lat="47.01364" lon="8.65575">
        <ele>505</ele>
        <time>2021-08-05T08:42:41.415Z</time>
      </trkpt>
      <trkpt lat="47.01364" lon="8.65575">
        <ele>505</ele>
        <time>2021-08-05T08:42:42.416Z</time>
      </trkpt>
      <trkpt lat="47.01363" lon="8.65575">
        <ele>505</ele>
        <time>2021-08-05T08:42:43.415Z</time>
      </trkpt>
      <trkpt lat="47.01363" lon="8.65576">
        <ele>505</ele>
        <time>2021-08-05T08:42:44.416Z</time>
      </trkpt>
      <trkpt lat="47.01363" lon="8.65576">
        <ele>506</ele>
        <time>2021-08-05T08:42:45.416Z</time>
      </trkpt>
      <trkpt lat="47.01362" lon="8.65577">
        <ele>506</ele>
        <time>2021-08-05T08:42:46.416Z</time>
      </trkpt>
      <trkpt lat="47.01364" lon="8.65578">
        <ele>512</ele>
        <time>2021-08-05T08:42:47.416Z</time>
      </trkpt>
      <trkpt lat="47.01363" lon="8.65578">
        <ele>512</ele>
        <time>2021-08-05T08:42:48.416Z</time>
      </trkpt>
      <trkpt lat="47.01363" lon="8.65578">
        <ele>511</ele>
        <time>2021-08-05T08:42:49.416Z</time>
      </trkpt>
      <trkpt lat="47.01362" lon="8.65578">
        <ele>510</ele>
        <time>2021-08-05T08:42:50.417Z</time>
      </trkpt>
      <trkpt lat="47.01361" lon="8.65578">
        <ele>509</ele>
        <time>2021-08-05T08:42:51.417Z</time>
      </trkpt>
      <trkpt lat="47.0136" lon="8.65578">
        <ele>508</ele>
        <time>2021-08-05T08:42:52.416Z</time>
      </trkpt>
      <trkpt lat="47.0136" lon="8.65578">
        <ele>508</ele>
        <time>2021-08-05T08:42:53.416Z</time>
      </trkpt>
      <trkpt lat="47.01359" lon="8.65578">
        <ele>508</ele>
        <time>2021-08-05T08:42:54.417Z</time>
      </trkpt>
      <trkpt lat="47.01358" lon="8.65578">
        <ele>507</ele>
        <time>2021-08-05T08:42:55.416Z</time>
      </trkpt>
      <trkpt lat="47.01357" lon="8.65579">
        <ele>506</ele>
        <time>2021-08-05T08:42:56.417Z</time>
      </trkpt>
      <trkpt lat="47.01357" lon="8.65579">
        <ele>506</ele>
        <time>2021-08-05T08:42:57.417Z</time>
      </trkpt>
      <trkpt lat="47.01357" lon="8.65579">
        <ele>505</ele>
        <time>2021-08-05T08:42:58.417Z</time>
      </trkpt>
      <trkpt lat="47.01357" lon="8.65578">
        <ele>505</ele>
        <time>2021-08-05T08:42:59.416Z</time>
      </trkpt>
      <trkpt lat="47.01358" lon="8.6558">
        <ele>503</ele>
        <time>2021-08-05T08:43:00.416Z</time>
      </trkpt>
      <trkpt lat="47.01358" lon="8.6558">
        <ele>503</ele>
        <time>2021-08-05T08:43:01.417Z</time>
      </trkpt>
      <trkpt lat="47.01356" lon="8.6558">
        <ele>502</ele>
        <time>2021-08-05T08:43:02.417Z</time>
      </trkpt>
      <trkpt lat="47.01354" lon="8.65579">
        <ele>502</ele>
        <time>2021-08-05T08:43:03.417Z</time>
      </trkpt>
      <trkpt lat="47.01352" lon="8.65578">
        <ele>502</ele>
        <time>2021-08-05T08:43:04.416Z</time>
      </trkpt>
      <trkpt lat="47.01351" lon="8.65578">
        <ele>502</ele>
        <time>2021-08-05T08:43:05.417Z</time>
      </trkpt>
      <trkpt lat="47.0135" lon="8.65578">
        <ele>502</ele>
        <time>2021-08-05T08:43:06.417Z</time>
      </trkpt>
      <trkpt lat="47.01349" lon="8.65578">
        <ele>502</ele>
        <time>2021-08-05T08:43:07.416Z</time>
      </trkpt>
      <trkpt lat="47.01348" lon="8.65578">
        <ele>502</ele>
        <time>2021-08-05T08:43:08.417Z</time>
      </trkpt>
      <trkpt lat="47.01348" lon="8.65579">
        <ele>502</ele>
        <time>2021-08-05T08:43:09.416Z</time>
      </trkpt>
      <trkpt lat="47.01347" lon="8.6558">
        <ele>502</ele>
        <time>2021-08-05T08:43:10.417Z</time>
      </trkpt>
      <trkpt lat="47.01347" lon="8.6558">
        <ele>502</ele>
        <time>2021-08-05T08:43:11.417Z</time>
      </trkpt>
      <trkpt lat="47.01346" lon="8.6558">
        <ele>502</ele>
        <time>2021-08-05T08:43:12.417Z</time>
      </trkpt>
      <trkpt lat="47.01345" lon="8.65581">
        <ele>501</ele>
        <time>2021-08-05T08:43:13.416Z</time>
      </trkpt>
      <trkpt lat="47.01345" lon="8.65581">
        <ele>501</ele>
        <time>2021-08-05T08:43:14.416Z</time>
      </trkpt>
      <trkpt lat="47.01345" lon="8.65582">
        <ele>500</ele>
        <time>2021-08-05T08:43:15.417Z</time>
      </trkpt>
      <trkpt lat="47.01345" lon="8.65584">
        <ele>499</ele>
        <time>2021-08-05T08:43:16.417Z</time>
      </trkpt>
      <trkpt lat="47.01345" lon="8.65584">
        <ele>498</ele>
        <time>2021-08-05T08:43:17.417Z</time>
      </trkpt>
      <trkpt lat="47.01344" lon="8.65584">
        <ele>498</ele>
        <time>2021-08-05T08:43:18.416Z</time>
      </trkpt>
      <trkpt lat="47.01343" lon="8.65585">
        <ele>497</ele>
        <time>2021-08-05T08:43:19.417Z</time>
      </trkpt>
      <trkpt lat="47.01343" lon="8.65586">
        <ele>497</ele>
        <time>2021-08-05T08:43:20.416Z</time>
      </trkpt>
      <trkpt lat="47.01342" lon="8.65586">
        <ele>496</ele>
        <time>2021-08-05T08:43:21.416Z</time>
      </trkpt>
      <trkpt lat="47.01341" lon="8.65586">
        <ele>496</ele>
        <time>2021-08-05T08:43:22.417Z</time>
      </trkpt>
      <trkpt lat="47.0134" lon="8.65587">
        <ele>496</ele>
        <time>2021-08-05T08:43:23.417Z</time>
      </trkpt>
      <trkpt lat="47.01339" lon="8.65587">
        <ele>496</ele>
        <time>2021-08-05T08:43:24.417Z</time>
      </trkpt>
      <trkpt lat="47.01338" lon="8.65587">
        <ele>496</ele>
        <time>2021-08-05T08:43:25.417Z</time>
      </trkpt>
      <trkpt lat="47.01338" lon="8.65587">
        <ele>496</ele>
        <time>2021-08-05T08:43:26.417Z</time>
      </trkpt>
      <trkpt lat="47.01337" lon="8.65587">
        <ele>496</ele>
        <time>2021-08-05T08:43:27.417Z</time>
      </trkpt>
      <trkpt lat="47.01337" lon="8.65588">
        <ele>497</ele>
        <time>2021-08-05T08:43:28.416Z</time>
      </trkpt>
      <trkpt lat="47.01336" lon="8.65589">
        <ele>497</ele>
        <time>2021-08-05T08:43:29.417Z</time>
      </trkpt>
      <trkpt lat="47.01335" lon="8.6559">
        <ele>497</ele>
        <time>2021-08-05T08:43:30.417Z</time>
      </trkpt>
      <trkpt lat="47.01335" lon="8.6559">
        <ele>497</ele>
        <time>2021-08-05T08:43:31.416Z</time>
      </trkpt>
      <trkpt lat="47.01333" lon="8.65591">
        <ele>498</ele>
        <time>2021-08-05T08:43:32.417Z</time>
      </trkpt>
      <trkpt lat="47.01333" lon="8.65591">
        <ele>498</ele>
        <time>2021-08-05T08:43:33.417Z</time>
      </trkpt>
      <trkpt lat="47.01331" lon="8.65592">
        <ele>497</ele>
        <time>2021-08-05T08:43:34.416Z</time>
      </trkpt>
      <trkpt lat="47.01331" lon="8.65593">
        <ele>497</ele>
        <time>2021-08-05T08:43:35.417Z</time>
      </trkpt>
      <trkpt lat="47.0133" lon="8.65593">
        <ele>497</ele>
        <time>2021-08-05T08:43:36.417Z</time>
      </trkpt>
      <trkpt lat="47.01329" lon="8.65594">
        <ele>497</ele>
        <time>2021-08-05T08:43:37.416Z</time>
      </trkpt>
      <trkpt lat="47.01328" lon="8.65595">
        <ele>497</ele>
        <time>2021-08-05T08:43:38.416Z</time>
      </trkpt>
      <trkpt lat="47.01327" lon="8.65595">
        <ele>497</ele>
        <time>2021-08-05T08:43:39.416Z</time>
      </trkpt>
      <trkpt lat="47.01326" lon="8.65595">
        <ele>497</ele>
        <time>2021-08-05T08:43:40.417Z</time>
      </trkpt>
      <trkpt lat="47.01325" lon="8.65595">
        <ele>497</ele>
        <time>2021-08-05T08:43:41.416Z</time>
      </trkpt>
      <trkpt lat="47.01325" lon="8.65596">
        <ele>497</ele>
        <time>2021-08-05T08:43:42.417Z</time>
      </trkpt>
      <trkpt lat="47.01324" lon="8.65596">
        <ele>497</ele>
        <time>2021-08-05T08:43:43.417Z</time>
      </trkpt>
      <trkpt lat="47.01324" lon="8.65596">
        <ele>497</ele>
        <time>2021-08-05T08:43:44.417Z</time>
      </trkpt>
      <trkpt lat="47.01323" lon="8.65596">
        <ele>497</ele>
        <time>2021-08-05T08:43:45.416Z</time>
      </trkpt>
      <trkpt lat="47.01319" lon="8.65601">
        <ele>507</ele>
        <time>2021-08-05T08:43:46.417Z</time>
      </trkpt>
      <trkpt lat="47.01319" lon="8.65602">
        <ele>509</ele>
        <time>2021-08-05T08:43:47.417Z</time>
      </trkpt>
      <trkpt lat="47.01319" lon="8.65602">
        <ele>510</ele>
        <time>2021-08-05T08:43:48.416Z</time>
      </trkpt>
      <trkpt lat="47.01319" lon="8.65603">
        <ele>511</ele>
        <time>2021-08-05T08:43:49.416Z</time>
      </trkpt>
      <trkpt lat="47.01317" lon="8.65601">
        <ele>517</ele>
        <time>2021-08-05T08:43:50.417Z</time>
      </trkpt>
      <trkpt lat="47.01317" lon="8.65601">
        <ele>518</ele>
        <time>2021-08-05T08:43:51.416Z</time>
      </trkpt>
      <trkpt lat="47.01317" lon="8.656">
        <ele>519</ele>
        <time>2021-08-05T08:43:52.416Z</time>
      </trkpt>
      <trkpt lat="47.01317" lon="8.656">
        <ele>520</ele>
        <time>2021-08-05T08:43:53.417Z</time>
      </trkpt>
      <trkpt lat="47.01317" lon="8.65599">
        <ele>521</ele>
        <time>2021-08-05T08:43:54.417Z</time>
      </trkpt>
      <trkpt lat="47.01317" lon="8.656">
        <ele>522</ele>
        <time>2021-08-05T08:43:55.416Z</time>
      </trkpt>
      <trkpt lat="47.01317" lon="8.65601">
        <ele>522</ele>
        <time>2021-08-05T08:43:56.416Z</time>
      </trkpt>
      <trkpt lat="47.01318" lon="8.65602">
        <ele>523</ele>
        <time>2021-08-05T08:43:57.417Z</time>
      </trkpt>
      <trkpt lat="47.01318" lon="8.65602">
        <ele>523</ele>
        <time>2021-08-05T08:43:58.417Z</time>
      </trkpt>
      <trkpt lat="47.01317" lon="8.65603">
        <ele>523</ele>
        <time>2021-08-05T08:43:59.417Z</time>
      </trkpt>
      <trkpt lat="47.01315" lon="8.65602">
        <ele>521</ele>
        <time>2021-08-05T08:44:00.417Z</time>
      </trkpt>
      <trkpt lat="47.01315" lon="8.65602">
        <ele>520</ele>
        <time>2021-08-05T08:44:01.418Z</time>
      </trkpt>
      <trkpt lat="47.01314" lon="8.65602">
        <ele>512</ele>
        <time>2021-08-05T08:44:02.418Z</time>
      </trkpt>
      <trkpt lat="47.01314" lon="8.65602">
        <ele>511</ele>
        <time>2021-08-05T08:44:03.417Z</time>
      </trkpt>
      <trkpt lat="47.01313" lon="8.65603">
        <ele>510</ele>
        <time>2021-08-05T08:44:04.417Z</time>
      </trkpt>
      <trkpt lat="47.01312" lon="8.65603">
        <ele>509</ele>
        <time>2021-08-05T08:44:05.417Z</time>
      </trkpt>
      <trkpt lat="47.01312" lon="8.65603">
        <ele>509</ele>
        <time>2021-08-05T08:44:06.417Z</time>
      </trkpt>
      <trkpt lat="47.01311" lon="8.65603">
        <ele>508</ele>
        <time>2021-08-05T08:44:07.417Z</time>
      </trkpt>
      <trkpt lat="47.0131" lon="8.65603">
        <ele>507</ele>
        <time>2021-08-05T08:44:08.417Z</time>
      </trkpt>
      <trkpt lat="47.01309" lon="8.65603">
        <ele>506</ele>
        <time>2021-08-05T08:44:09.418Z</time>
      </trkpt>
      <trkpt lat="47.01309" lon="8.65603">
        <ele>506</ele>
        <time>2021-08-05T08:44:10.418Z</time>
      </trkpt>
      <trkpt lat="47.01308" lon="8.65603">
        <ele>505</ele>
        <time>2021-08-05T08:44:11.418Z</time>
      </trkpt>
      <trkpt lat="47.01308" lon="8.65603">
        <ele>505</ele>
        <time>2021-08-05T08:44:12.418Z</time>
      </trkpt>
      <trkpt lat="47.01307" lon="8.65602">
        <ele>504</ele>
        <time>2021-08-05T08:44:13.418Z</time>
      </trkpt>
      <trkpt lat="47.01307" lon="8.65602">
        <ele>504</ele>
        <time>2021-08-05T08:44:14.417Z</time>
      </trkpt>
      <trkpt lat="47.01307" lon="8.65604">
        <ele>497</ele>
        <time>2021-08-05T08:44:15.417Z</time>
      </trkpt>
      <trkpt lat="47.01307" lon="8.65604">
        <ele>497</ele>
        <time>2021-08-05T08:44:16.417Z</time>
      </trkpt>
      <trkpt lat="47.01307" lon="8.65603">
        <ele>492</ele>
        <time>2021-08-05T08:44:17.418Z</time>
      </trkpt>
      <trkpt lat="47.01307" lon="8.65603">
        <ele>493</ele>
        <time>2021-08-05T08:44:18.418Z</time>
      </trkpt>
      <trkpt lat="47.01306" lon="8.65602">
        <ele>494</ele>
        <time>2021-08-05T08:44:19.417Z</time>
      </trkpt>
      <trkpt lat="47.01305" lon="8.65602">
        <ele>495</ele>
        <time>2021-08-05T08:44:20.417Z</time>
      </trkpt>
      <trkpt lat="47.01304" lon="8.65602">
        <ele>496</ele>
        <time>2021-08-05T08:44:21.418Z</time>
      </trkpt>
      <trkpt lat="47.01304" lon="8.65603">
        <ele>497</ele>
        <time>2021-08-05T08:44:22.418Z</time>
      </trkpt>
      <trkpt lat="47.01302" lon="8.65602">
        <ele>498</ele>
        <time>2021-08-05T08:44:23.418Z</time>
      </trkpt>
      <trkpt lat="47.01301" lon="8.65602">
        <ele>499</ele>
        <time>2021-08-05T08:44:24.418Z</time>
      </trkpt>
      <trkpt lat="47.01299" lon="8.65602">
        <ele>499</ele>
        <time>2021-08-05T08:44:25.417Z</time>
      </trkpt>
      <trkpt lat="47.01299" lon="8.65602">
        <ele>500</ele>
        <time>2021-08-05T08:44:26.418Z</time>
      </trkpt>
      <trkpt lat="47.01298" lon="8.65602">
        <ele>500</ele>
        <time>2021-08-05T08:44:27.418Z</time>
      </trkpt>
      <trkpt lat="47.01297" lon="8.65602">
        <ele>500</ele>
        <time>2021-08-05T08:44:28.417Z</time>
      </trkpt>
      <trkpt lat="47.01297" lon="8.65602">
        <ele>501</ele>
        <time>2021-08-05T08:44:29.417Z</time>
      </trkpt>
      <trkpt lat="47.01296" lon="8.65602">
        <ele>501</ele>
        <time>2021-08-05T08:44:30.417Z</time>
      </trkpt>
      <trkpt lat="47.01295" lon="8.65602">
        <ele>501</ele>
        <time>2021-08-05T08:44:31.418Z</time>
      </trkpt>
      <trkpt lat="47.01294" lon="8.65602">
        <ele>501</ele>
        <time>2021-08-05T08:44:32.418Z</time>
      </trkpt>
      <trkpt lat="47.01294" lon="8.65602">
        <ele>501</ele>
        <time>2021-08-05T08:44:33.418Z</time>
      </trkpt>
      <trkpt lat="47.01293" lon="8.65601">
        <ele>501</ele>
        <time>2021-08-05T08:44:34.417Z</time>
      </trkpt>
      <trkpt lat="47.01292" lon="8.65601">
        <ele>501</ele>
        <time>2021-08-05T08:44:35.417Z</time>
      </trkpt>
      <trkpt lat="47.01291" lon="8.65601">
        <ele>501</ele>
        <time>2021-08-05T08:44:36.417Z</time>
      </trkpt>
      <trkpt lat="47.0129" lon="8.656">
        <ele>501</ele>
        <time>2021-08-05T08:44:37.417Z</time>
      </trkpt>
      <trkpt lat="47.01289" lon="8.656">
        <ele>501</ele>
        <time>2021-08-05T08:44:38.417Z</time>
      </trkpt>
      <trkpt lat="47.01288" lon="8.656">
        <ele>501</ele>
        <time>2021-08-05T08:44:39.417Z</time>
      </trkpt>
      <trkpt lat="47.01287" lon="8.656">
        <ele>500</ele>
        <time>2021-08-05T08:44:40.417Z</time>
      </trkpt>
      <trkpt lat="47.01286" lon="8.656">
        <ele>500</ele>
        <time>2021-08-05T08:44:41.418Z</time>
      </trkpt>
      <trkpt lat="47.01285" lon="8.65599">
        <ele>500</ele>
        <time>2021-08-05T08:44:42.418Z</time>
      </trkpt>
      <trkpt lat="47.01284" lon="8.65599">
        <ele>500</ele>
        <time>2021-08-05T08:44:43.418Z</time>
      </trkpt>
      <trkpt lat="47.01283" lon="8.65599">
        <ele>500</ele>
        <time>2021-08-05T08:44:44.418Z</time>
      </trkpt>
      <trkpt lat="47.01282" lon="8.65599">
        <ele>499</ele>
        <time>2021-08-05T08:44:45.418Z</time>
      </trkpt>
      <trkpt lat="47.01281" lon="8.65599">
        <ele>499</ele>
        <time>2021-08-05T08:44:46.418Z</time>
      </trkpt>
      <trkpt lat="47.0128" lon="8.65599">
        <ele>498</ele>
        <time>2021-08-05T08:44:47.418Z</time>
      </trkpt>
      <trkpt lat="47.01279" lon="8.656">
        <ele>498</ele>
        <time>2021-08-05T08:44:48.418Z</time>
      </trkpt>
      <trkpt lat="47.01278" lon="8.65599">
        <ele>498</ele>
        <time>2021-08-05T08:44:49.418Z</time>
      </trkpt>
      <trkpt lat="47.01277" lon="8.65599">
        <ele>498</ele>
        <time>2021-08-05T08:44:50.417Z</time>
      </trkpt>
      <trkpt lat="47.01276" lon="8.65599">
        <ele>498</ele>
        <time>2021-08-05T08:44:51.418Z</time>
      </trkpt>
      <trkpt lat="47.01275" lon="8.65598">
        <ele>498</ele>
        <time>2021-08-05T08:44:52.418Z</time>
      </trkpt>
      <trkpt lat="47.01274" lon="8.65598">
        <ele>498</ele>
        <time>2021-08-05T08:44:53.418Z</time>
      </trkpt>
      <trkpt lat="47.01273" lon="8.65597">
        <ele>499</ele>
        <time>2021-08-05T08:44:54.418Z</time>
      </trkpt>
      <trkpt lat="47.01272" lon="8.65597">
        <ele>498</ele>
        <time>2021-08-05T08:44:55.417Z</time>
      </trkpt>
      <trkpt lat="47.01271" lon="8.65597">
        <ele>498</ele>
        <time>2021-08-05T08:44:56.418Z</time>
      </trkpt>
      <trkpt lat="47.01271" lon="8.65597">
        <ele>498</ele>
        <time>2021-08-05T08:44:57.418Z</time>
      </trkpt>
      <trkpt lat="47.01269" lon="8.65597">
        <ele>498</ele>
        <time>2021-08-05T08:44:58.417Z</time>
      </trkpt>
      <trkpt lat="47.01268" lon="8.65596">
        <ele>498</ele>
        <time>2021-08-05T08:44:59.417Z</time>
      </trkpt>
      <trkpt lat="47.01267" lon="8.65596">
        <ele>498</ele>
        <time>2021-08-05T08:45:00.418Z</time>
      </trkpt>
      <trkpt lat="47.01267" lon="8.65596">
        <ele>498</ele>
        <time>2021-08-05T08:45:01.418Z</time>
      </trkpt>
      <trkpt lat="47.01266" lon="8.65595">
        <ele>498</ele>
        <time>2021-08-05T08:45:02.418Z</time>
      </trkpt>
      <trkpt lat="47.01266" lon="8.65595">
        <ele>498</ele>
        <time>2021-08-05T08:45:03.417Z</time>
      </trkpt>
      <trkpt lat="47.01265" lon="8.65596">
        <ele>498</ele>
        <time>2021-08-05T08:45:04.418Z</time>
      </trkpt>
      <trkpt lat="47.01265" lon="8.65596">
        <ele>498</ele>
        <time>2021-08-05T08:45:05.418Z</time>
      </trkpt>
      <trkpt lat="47.01265" lon="8.65596">
        <ele>497</ele>
        <time>2021-08-05T08:45:06.418Z</time>
      </trkpt>
      <trkpt lat="47.01264" lon="8.65596">
        <ele>497</ele>
        <time>2021-08-05T08:45:07.418Z</time>
      </trkpt>
      <trkpt lat="47.01263" lon="8.65596">
        <ele>497</ele>
        <time>2021-08-05T08:45:08.417Z</time>
      </trkpt>
      <trkpt lat="47.01262" lon="8.65595">
        <ele>497</ele>
        <time>2021-08-05T08:45:09.418Z</time>
      </trkpt>
      <trkpt lat="47.01261" lon="8.65595">
        <ele>497</ele>
        <time>2021-08-05T08:45:10.417Z</time>
      </trkpt>
      <trkpt lat="47.0126" lon="8.65594">
        <ele>498</ele>
        <time>2021-08-05T08:45:11.418Z</time>
      </trkpt>
      <trkpt lat="47.01258" lon="8.65594">
        <ele>498</ele>
        <time>2021-08-05T08:45:12.418Z</time>
      </trkpt>
      <trkpt lat="47.01257" lon="8.65593">
        <ele>498</ele>
        <time>2021-08-05T08:45:13.417Z</time>
      </trkpt>
      <trkpt lat="47.01256" lon="8.65592">
        <ele>498</ele>
        <time>2021-08-05T08:45:14.417Z</time>
      </trkpt>
      <trkpt lat="47.01255" lon="8.65592">
        <ele>498</ele>
        <time>2021-08-05T08:45:15.418Z</time>
      </trkpt>
      <trkpt lat="47.01254" lon="8.65591">
        <ele>498</ele>
        <time>2021-08-05T08:45:16.417Z</time>
      </trkpt>
      <trkpt lat="47.01253" lon="8.65591">
        <ele>497</ele>
        <time>2021-08-05T08:45:17.417Z</time>
      </trkpt>
      <trkpt lat="47.01252" lon="8.65591">
        <ele>497</ele>
        <time>2021-08-05T08:45:18.418Z</time>
      </trkpt>
      <trkpt lat="47.01251" lon="8.65592">
        <ele>496</ele>
        <time>2021-08-05T08:45:19.417Z</time>
      </trkpt>
      <trkpt lat="47.0125" lon="8.65592">
        <ele>496</ele>
        <time>2021-08-05T08:45:20.418Z</time>
      </trkpt>
      <trkpt lat="47.01249" lon="8.65592">
        <ele>495</ele>
        <time>2021-08-05T08:45:21.417Z</time>
      </trkpt>
      <trkpt lat="47.01249" lon="8.65593">
        <ele>495</ele>
        <time>2021-08-05T08:45:22.418Z</time>
      </trkpt>
      <trkpt lat="47.01248" lon="8.65593">
        <ele>494</ele>
        <time>2021-08-05T08:45:23.418Z</time>
      </trkpt>
      <trkpt lat="47.01247" lon="8.65593">
        <ele>494</ele>
        <time>2021-08-05T08:45:24.418Z</time>
      </trkpt>
      <trkpt lat="47.01246" lon="8.65593">
        <ele>495</ele>
        <time>2021-08-05T08:45:25.417Z</time>
      </trkpt>
      <trkpt lat="47.01245" lon="8.65593">
        <ele>495</ele>
        <time>2021-08-05T08:45:26.418Z</time>
      </trkpt>
      <trkpt lat="47.01244" lon="8.65592">
        <ele>495</ele>
        <time>2021-08-05T08:45:27.418Z</time>
      </trkpt>
      <trkpt lat="47.01243" lon="8.65592">
        <ele>495</ele>
        <time>2021-08-05T08:45:28.417Z</time>
      </trkpt>
      <trkpt lat="47.01242" lon="8.65591">
        <ele>495</ele>
        <time>2021-08-05T08:45:29.417Z</time>
      </trkpt>
      <trkpt lat="47.01241" lon="8.65591">
        <ele>495</ele>
        <time>2021-08-05T08:45:30.418Z</time>
      </trkpt>
      <trkpt lat="47.0124" lon="8.65591">
        <ele>496</ele>
        <time>2021-08-05T08:45:31.418Z</time>
      </trkpt>
      <trkpt lat="47.01239" lon="8.65591">
        <ele>496</ele>
        <time>2021-08-05T08:45:32.418Z</time>
      </trkpt>
      <trkpt lat="47.01238" lon="8.65591">
        <ele>496</ele>
        <time>2021-08-05T08:45:33.418Z</time>
      </trkpt>
      <trkpt lat="47.01237" lon="8.65591">
        <ele>496</ele>
        <time>2021-08-05T08:45:34.418Z</time>
      </trkpt>
      <trkpt lat="47.01236" lon="8.6559">
        <ele>495</ele>
        <time>2021-08-05T08:45:35.418Z</time>
      </trkpt>
      <trkpt lat="47.01235" lon="8.6559">
        <ele>495</ele>
        <time>2021-08-05T08:45:36.418Z</time>
      </trkpt>
      <trkpt lat="47.01234" lon="8.6559">
        <ele>495</ele>
        <time>2021-08-05T08:45:37.418Z</time>
      </trkpt>
      <trkpt lat="47.01232" lon="8.65589">
        <ele>495</ele>
        <time>2021-08-05T08:45:38.418Z</time>
      </trkpt>
      <trkpt lat="47.01231" lon="8.65588">
        <ele>495</ele>
        <time>2021-08-05T08:45:39.418Z</time>
      </trkpt>
      <trkpt lat="47.0123" lon="8.65587">
        <ele>495</ele>
        <time>2021-08-05T08:45:40.418Z</time>
      </trkpt>
      <trkpt lat="47.01229" lon="8.65586">
        <ele>495</ele>
        <time>2021-08-05T08:45:41.417Z</time>
      </trkpt>
      <trkpt lat="47.01228" lon="8.65585">
        <ele>496</ele>
        <time>2021-08-05T08:45:42.417Z</time>
      </trkpt>
      <trkpt lat="47.01227" lon="8.65584">
        <ele>495</ele>
        <time>2021-08-05T08:45:43.417Z</time>
      </trkpt>
      <trkpt lat="47.01226" lon="8.65584">
        <ele>495</ele>
        <time>2021-08-05T08:45:44.418Z</time>
      </trkpt>
      <trkpt lat="47.01225" lon="8.65583">
        <ele>495</ele>
        <time>2021-08-05T08:45:45.418Z</time>
      </trkpt>
      <trkpt lat="47.01224" lon="8.65583">
        <ele>495</ele>
        <time>2021-08-05T08:45:46.418Z</time>
      </trkpt>
      <trkpt lat="47.01223" lon="8.65583">
        <ele>495</ele>
        <time>2021-08-05T08:45:47.418Z</time>
      </trkpt>
      <trkpt lat="47.01222" lon="8.65583">
        <ele>495</ele>
        <time>2021-08-05T08:45:48.417Z</time>
      </trkpt>
      <trkpt lat="47.0122" lon="8.65583">
        <ele>495</ele>
        <time>2021-08-05T08:45:49.418Z</time>
      </trkpt>
      <trkpt lat="47.01219" lon="8.65584">
        <ele>495</ele>
        <time>2021-08-05T08:45:50.418Z</time>
      </trkpt>
      <trkpt lat="47.01218" lon="8.65585">
        <ele>495</ele>
        <time>2021-08-05T08:45:51.418Z</time>
      </trkpt>
      <trkpt lat="47.01218" lon="8.65586">
        <ele>495</ele>
        <time>2021-08-05T08:45:52.417Z</time>
      </trkpt>
      <trkpt lat="47.01217" lon="8.65586">
        <ele>495</ele>
        <time>2021-08-05T08:45:53.418Z</time>
      </trkpt>
      <trkpt lat="47.01217" lon="8.65585">
        <ele>495</ele>
        <time>2021-08-05T08:45:54.417Z</time>
      </trkpt>
      <trkpt lat="47.01216" lon="8.65584">
        <ele>495</ele>
        <time>2021-08-05T08:45:55.418Z</time>
      </trkpt>
      <trkpt lat="47.01216" lon="8.65584">
        <ele>495</ele>
        <time>2021-08-05T08:45:56.418Z</time>
      </trkpt>
      <trkpt lat="47.01215" lon="8.65584">
        <ele>494</ele>
        <time>2021-08-05T08:45:57.418Z</time>
      </trkpt>
      <trkpt lat="47.01214" lon="8.65583">
        <ele>494</ele>
        <time>2021-08-05T08:45:58.418Z</time>
      </trkpt>
      <trkpt lat="47.01212" lon="8.65582">
        <ele>493</ele>
        <time>2021-08-05T08:45:59.417Z</time>
      </trkpt>
      <trkpt lat="47.01211" lon="8.65582">
        <ele>492</ele>
        <time>2021-08-05T08:46:00.418Z</time>
      </trkpt>
      <trkpt lat="47.0121" lon="8.65581">
        <ele>491</ele>
        <time>2021-08-05T08:46:01.418Z</time>
      </trkpt>
      <trkpt lat="47.01209" lon="8.65581">
        <ele>491</ele>
        <time>2021-08-05T08:46:02.417Z</time>
      </trkpt>
      <trkpt lat="47.01208" lon="8.65581">
        <ele>491</ele>
        <time>2021-08-05T08:46:03.418Z</time>
      </trkpt>
      <trkpt lat="47.01207" lon="8.65581">
        <ele>491</ele>
        <time>2021-08-05T08:46:04.417Z</time>
      </trkpt>
      <trkpt lat="47.01206" lon="8.65581">
        <ele>491</ele>
        <time>2021-08-05T08:46:05.417Z</time>
      </trkpt>
      <trkpt lat="47.01205" lon="8.65581">
        <ele>492</ele>
        <time>2021-08-05T08:46:06.417Z</time>
      </trkpt>
      <trkpt lat="47.01205" lon="8.65581">
        <ele>492</ele>
        <time>2021-08-05T08:46:07.417Z</time>
      </trkpt>
      <trkpt lat="47.01204" lon="8.65581">
        <ele>493</ele>
        <time>2021-08-05T08:46:08.417Z</time>
      </trkpt>
      <trkpt lat="47.01203" lon="8.65581">
        <ele>493</ele>
        <time>2021-08-05T08:46:09.417Z</time>
      </trkpt>
      <trkpt lat="47.01202" lon="8.65581">
        <ele>493</ele>
        <time>2021-08-05T08:46:10.417Z</time>
      </trkpt>
      <trkpt lat="47.01201" lon="8.65581">
        <ele>493</ele>
        <time>2021-08-05T08:46:11.417Z</time>
      </trkpt>
      <trkpt lat="47.012" lon="8.65581">
        <ele>493</ele>
        <time>2021-08-05T08:46:12.417Z</time>
      </trkpt>
      <trkpt lat="47.012" lon="8.65581">
        <ele>492</ele>
        <time>2021-08-05T08:46:13.418Z</time>
      </trkpt>
      <trkpt lat="47.01199" lon="8.6558">
        <ele>492</ele>
        <time>2021-08-05T08:46:14.418Z</time>
      </trkpt>
      <trkpt lat="47.01198" lon="8.65579">
        <ele>493</ele>
        <time>2021-08-05T08:46:15.418Z</time>
      </trkpt>
      <trkpt lat="47.01197" lon="8.65579">
        <ele>493</ele>
        <time>2021-08-05T08:46:16.418Z</time>
      </trkpt>
      <trkpt lat="47.01195" lon="8.65578">
        <ele>493</ele>
        <time>2021-08-05T08:46:17.417Z</time>
      </trkpt>
      <trkpt lat="47.01194" lon="8.65578">
        <ele>493</ele>
        <time>2021-08-05T08:46:18.418Z</time>
      </trkpt>
      <trkpt lat="47.01193" lon="8.65578">
        <ele>493</ele>
        <time>2021-08-05T08:46:19.417Z</time>
      </trkpt>
      <trkpt lat="47.01193" lon="8.65578">
        <ele>494</ele>
        <time>2021-08-05T08:46:20.418Z</time>
      </trkpt>
      <trkpt lat="47.01193" lon="8.65578">
        <ele>494</ele>
        <time>2021-08-05T08:46:21.418Z</time>
      </trkpt>
      <trkpt lat="47.01192" lon="8.65579">
        <ele>494</ele>
        <time>2021-08-05T08:46:22.417Z</time>
      </trkpt>
      <trkpt lat="47.01192" lon="8.65579">
        <ele>494</ele>
        <time>2021-08-05T08:46:23.418Z</time>
      </trkpt>
      <trkpt lat="47.01191" lon="8.65579">
        <ele>495</ele>
        <time>2021-08-05T08:46:24.418Z</time>
      </trkpt>
      <trkpt lat="47.01191" lon="8.6558">
        <ele>495</ele>
        <time>2021-08-05T08:46:25.417Z</time>
      </trkpt>
      <trkpt lat="47.0119" lon="8.6558">
        <ele>495</ele>
        <time>2021-08-05T08:46:26.418Z</time>
      </trkpt>
      <trkpt lat="47.01189" lon="8.6558">
        <ele>494</ele>
        <time>2021-08-05T08:46:27.417Z</time>
      </trkpt>
      <trkpt lat="47.01187" lon="8.6558">
        <ele>494</ele>
        <time>2021-08-05T08:46:28.418Z</time>
      </trkpt>
      <trkpt lat="47.01186" lon="8.6558">
        <ele>494</ele>
        <time>2021-08-05T08:46:29.418Z</time>
      </trkpt>
      <trkpt lat="47.01184" lon="8.65579">
        <ele>494</ele>
        <time>2021-08-05T08:46:30.418Z</time>
      </trkpt>
      <trkpt lat="47.01183" lon="8.65579">
        <ele>494</ele>
        <time>2021-08-05T08:46:31.417Z</time>
      </trkpt>
      <trkpt lat="47.01182" lon="8.65578">
        <ele>494</ele>
        <time>2021-08-05T08:46:32.417Z</time>
      </trkpt>
      <trkpt lat="47.01182" lon="8.65578">
        <ele>494</ele>
        <time>2021-08-05T08:46:33.417Z</time>
      </trkpt>
      <trkpt lat="47.0118" lon="8.65577">
        <ele>494</ele>
        <time>2021-08-05T08:46:34.418Z</time>
      </trkpt>
      <trkpt lat="47.01179" lon="8.65576">
        <ele>494</ele>
        <time>2021-08-05T08:46:35.418Z</time>
      </trkpt>
      <trkpt lat="47.01178" lon="8.65576">
        <ele>494</ele>
        <time>2021-08-05T08:46:36.418Z</time>
      </trkpt>
      <trkpt lat="47.01177" lon="8.65576">
        <ele>494</ele>
        <time>2021-08-05T08:46:37.418Z</time>
      </trkpt>
      <trkpt lat="47.01176" lon="8.65577">
        <ele>494</ele>
        <time>2021-08-05T08:46:38.418Z</time>
      </trkpt>
      <trkpt lat="47.01175" lon="8.65577">
        <ele>493</ele>
        <time>2021-08-05T08:46:39.418Z</time>
      </trkpt>
      <trkpt lat="47.01174" lon="8.65577">
        <ele>492</ele>
        <time>2021-08-05T08:46:40.418Z</time>
      </trkpt>
      <trkpt lat="47.01173" lon="8.65577">
        <ele>492</ele>
        <time>2021-08-05T08:46:41.418Z</time>
      </trkpt>
      <trkpt lat="47.01171" lon="8.65577">
        <ele>491</ele>
        <time>2021-08-05T08:46:42.417Z</time>
      </trkpt>
      <trkpt lat="47.0117" lon="8.65577">
        <ele>491</ele>
        <time>2021-08-05T08:46:43.418Z</time>
      </trkpt>
      <trkpt lat="47.01169" lon="8.65576">
        <ele>491</ele>
        <time>2021-08-05T08:46:44.417Z</time>
      </trkpt>
      <trkpt lat="47.01167" lon="8.65575">
        <ele>491</ele>
        <time>2021-08-05T08:46:45.417Z</time>
      </trkpt>
      <trkpt lat="47.01166" lon="8.65574">
        <ele>491</ele>
        <time>2021-08-05T08:46:46.418Z</time>
      </trkpt>
      <trkpt lat="47.01165" lon="8.65574">
        <ele>491</ele>
        <time>2021-08-05T08:46:47.418Z</time>
      </trkpt>
      <trkpt lat="47.01163" lon="8.65573">
        <ele>491</ele>
        <time>2021-08-05T08:46:48.418Z</time>
      </trkpt>
      <trkpt lat="47.01162" lon="8.65572">
        <ele>491</ele>
        <time>2021-08-05T08:46:49.418Z</time>
      </trkpt>
      <trkpt lat="47.01161" lon="8.65571">
        <ele>492</ele>
        <time>2021-08-05T08:46:50.418Z</time>
      </trkpt>
      <trkpt lat="47.0116" lon="8.65571">
        <ele>493</ele>
        <time>2021-08-05T08:46:51.418Z</time>
      </trkpt>
      <trkpt lat="47.01159" lon="8.65571">
        <ele>493</ele>
        <time>2021-08-05T08:46:52.417Z</time>
      </trkpt>
      <trkpt lat="47.01158" lon="8.65571">
        <ele>494</ele>
        <time>2021-08-05T08:46:53.418Z</time>
      </trkpt>
      <trkpt lat="47.01157" lon="8.6557">
        <ele>494</ele>
        <time>2021-08-05T08:46:54.417Z</time>
      </trkpt>
      <trkpt lat="47.01156" lon="8.6557">
        <ele>494</ele>
        <time>2021-08-05T08:46:55.418Z</time>
      </trkpt>
      <trkpt lat="47.01155" lon="8.65569">
        <ele>495</ele>
        <time>2021-08-05T08:46:56.418Z</time>
      </trkpt>
      <trkpt lat="47.01154" lon="8.6557">
        <ele>495</ele>
        <time>2021-08-05T08:46:57.417Z</time>
      </trkpt>
      <trkpt lat="47.01154" lon="8.6557">
        <ele>496</ele>
        <time>2021-08-05T08:46:58.418Z</time>
      </trkpt>
      <trkpt lat="47.01153" lon="8.6557">
        <ele>496</ele>
        <time>2021-08-05T08:46:59.417Z</time>
      </trkpt>
      <trkpt lat="47.01152" lon="8.6557">
        <ele>496</ele>
        <time>2021-08-05T08:47:00.418Z</time>
      </trkpt>
      <trkpt lat="47.01151" lon="8.6557">
        <ele>496</ele>
        <time>2021-08-05T08:47:01.418Z</time>
      </trkpt>
      <trkpt lat="47.0115" lon="8.6557">
        <ele>496</ele>
        <time>2021-08-05T08:47:02.418Z</time>
      </trkpt>
      <trkpt lat="47.0115" lon="8.6557">
        <ele>495</ele>
        <time>2021-08-05T08:47:03.418Z</time>
      </trkpt>
      <trkpt lat="47.01149" lon="8.65569">
        <ele>495</ele>
        <time>2021-08-05T08:47:04.417Z</time>
      </trkpt>
      <trkpt lat="47.01148" lon="8.65568">
        <ele>495</ele>
        <time>2021-08-05T08:47:05.417Z</time>
      </trkpt>
      <trkpt lat="47.01147" lon="8.65568">
        <ele>495</ele>
        <time>2021-08-05T08:47:06.418Z</time>
      </trkpt>
      <trkpt lat="47.01146" lon="8.65567">
        <ele>495</ele>
        <time>2021-08-05T08:47:07.418Z</time>
      </trkpt>
      <trkpt lat="47.01145" lon="8.65565">
        <ele>495</ele>
        <time>2021-08-05T08:47:08.418Z</time>
      </trkpt>
      <trkpt lat="47.01144" lon="8.65565">
        <ele>495</ele>
        <time>2021-08-05T08:47:09.418Z</time>
      </trkpt>
      <trkpt lat="47.01142" lon="8.65564">
        <ele>495</ele>
        <time>2021-08-05T08:47:10.418Z</time>
      </trkpt>
      <trkpt lat="47.01141" lon="8.65564">
        <ele>495</ele>
        <time>2021-08-05T08:47:11.418Z</time>
      </trkpt>
      <trkpt lat="47.01141" lon="8.65566">
        <ele>495</ele>
        <time>2021-08-05T08:47:12.417Z</time>
      </trkpt>
      <trkpt lat="47.0114" lon="8.65567">
        <ele>495</ele>
        <time>2021-08-05T08:47:13.418Z</time>
      </trkpt>
      <trkpt lat="47.01139" lon="8.65568">
        <ele>495</ele>
        <time>2021-08-05T08:47:14.418Z</time>
      </trkpt>
      <trkpt lat="47.01139" lon="8.65568">
        <ele>494</ele>
        <time>2021-08-05T08:47:15.417Z</time>
      </trkpt>
      <trkpt lat="47.01138" lon="8.65568">
        <ele>494</ele>
        <time>2021-08-05T08:47:16.417Z</time>
      </trkpt>
      <trkpt lat="47.01138" lon="8.65568">
        <ele>495</ele>
        <time>2021-08-05T08:47:17.417Z</time>
      </trkpt>
      <trkpt lat="47.01138" lon="8.65567">
        <ele>495</ele>
        <time>2021-08-05T08:47:18.418Z</time>
      </trkpt>
      <trkpt lat="47.01137" lon="8.65566">
        <ele>495</ele>
        <time>2021-08-05T08:47:19.417Z</time>
      </trkpt>
      <trkpt lat="47.01136" lon="8.65565">
        <ele>495</ele>
        <time>2021-08-05T08:47:20.418Z</time>
      </trkpt>
      <trkpt lat="47.01135" lon="8.65564">
        <ele>495</ele>
        <time>2021-08-05T08:47:21.418Z</time>
      </trkpt>
      <trkpt lat="47.01133" lon="8.65563">
        <ele>496</ele>
        <time>2021-08-05T08:47:22.418Z</time>
      </trkpt>
      <trkpt lat="47.01132" lon="8.65563">
        <ele>496</ele>
        <time>2021-08-05T08:47:23.418Z</time>
      </trkpt>
      <trkpt lat="47.0113" lon="8.65562">
        <ele>496</ele>
        <time>2021-08-05T08:47:24.418Z</time>
      </trkpt>
      <trkpt lat="47.01129" lon="8.65562">
        <ele>496</ele>
        <time>2021-08-05T08:47:25.417Z</time>
      </trkpt>
      <trkpt lat="47.01128" lon="8.65562">
        <ele>496</ele>
        <time>2021-08-05T08:47:26.417Z</time>
      </trkpt>
      <trkpt lat="47.01127" lon="8.65561">
        <ele>496</ele>
        <time>2021-08-05T08:47:27.417Z</time>
      </trkpt>
      <trkpt lat="47.01126" lon="8.65561">
        <ele>496</ele>
        <time>2021-08-05T08:47:28.417Z</time>
      </trkpt>
      <trkpt lat="47.01125" lon="8.65561">
        <ele>496</ele>
        <time>2021-08-05T08:47:29.418Z</time>
      </trkpt>
      <trkpt lat="47.01124" lon="8.65561">
        <ele>497</ele>
        <time>2021-08-05T08:47:30.418Z</time>
      </trkpt>
      <trkpt lat="47.01123" lon="8.6556">
        <ele>497</ele>
        <time>2021-08-05T08:47:31.418Z</time>
      </trkpt>
      <trkpt lat="47.01122" lon="8.6556">
        <ele>497</ele>
        <time>2021-08-05T08:47:32.418Z</time>
      </trkpt>
      <trkpt lat="47.0112" lon="8.6556">
        <ele>497</ele>
        <time>2021-08-05T08:47:33.417Z</time>
      </trkpt>
      <trkpt lat="47.0112" lon="8.6556">
        <ele>497</ele>
        <time>2021-08-05T08:47:34.418Z</time>
      </trkpt>
      <trkpt lat="47.01119" lon="8.6556">
        <ele>497</ele>
        <time>2021-08-05T08:47:35.417Z</time>
      </trkpt>
      <trkpt lat="47.01118" lon="8.6556">
        <ele>497</ele>
        <time>2021-08-05T08:47:36.418Z</time>
      </trkpt>
      <trkpt lat="47.01117" lon="8.6556">
        <ele>496</ele>
        <time>2021-08-05T08:47:37.418Z</time>
      </trkpt>
      <trkpt lat="47.01116" lon="8.65561">
        <ele>496</ele>
        <time>2021-08-05T08:47:38.417Z</time>
      </trkpt>
      <trkpt lat="47.01116" lon="8.65561">
        <ele>496</ele>
        <time>2021-08-05T08:47:39.417Z</time>
      </trkpt>
      <trkpt lat="47.01115" lon="8.65562">
        <ele>495</ele>
        <time>2021-08-05T08:47:40.418Z</time>
      </trkpt>
      <trkpt lat="47.01115" lon="8.65563">
        <ele>495</ele>
        <time>2021-08-05T08:47:41.418Z</time>
      </trkpt>
      <trkpt lat="47.01114" lon="8.65563">
        <ele>494</ele>
        <time>2021-08-05T08:47:42.418Z</time>
      </trkpt>
      <trkpt lat="47.01114" lon="8.65563">
        <ele>493</ele>
        <time>2021-08-05T08:47:43.417Z</time>
      </trkpt>
      <trkpt lat="47.01113" lon="8.65562">
        <ele>493</ele>
        <time>2021-08-05T08:47:44.417Z</time>
      </trkpt>
      <trkpt lat="47.01112" lon="8.65561">
        <ele>492</ele>
        <time>2021-08-05T08:47:45.418Z</time>
      </trkpt>
      <trkpt lat="47.01111" lon="8.6556">
        <ele>492</ele>
        <time>2021-08-05T08:47:46.418Z</time>
      </trkpt>
      <trkpt lat="47.0111" lon="8.65559">
        <ele>491</ele>
        <time>2021-08-05T08:47:47.418Z</time>
      </trkpt>
      <trkpt lat="47.01109" lon="8.65558">
        <ele>491</ele>
        <time>2021-08-05T08:47:48.418Z</time>
      </trkpt>
      <trkpt lat="47.01108" lon="8.65558">
        <ele>491</ele>
        <time>2021-08-05T08:47:49.417Z</time>
      </trkpt>
      <trkpt lat="47.01108" lon="8.65558">
        <ele>492</ele>
        <time>2021-08-05T08:47:50.417Z</time>
      </trkpt>
      <trkpt lat="47.01107" lon="8.65557">
        <ele>492</ele>
        <time>2021-08-05T08:47:51.418Z</time>
      </trkpt>
      <trkpt lat="47.01106" lon="8.65556">
        <ele>492</ele>
        <time>2021-08-05T08:47:52.418Z</time>
      </trkpt>
      <trkpt lat="47.01105" lon="8.65554">
        <ele>493</ele>
        <time>2021-08-05T08:47:53.418Z</time>
      </trkpt>
      <trkpt lat="47.01104" lon="8.65553">
        <ele>493</ele>
        <time>2021-08-05T08:47:54.417Z</time>
      </trkpt>
      <trkpt lat="47.01103" lon="8.65552">
        <ele>493</ele>
        <time>2021-08-05T08:47:55.418Z</time>
      </trkpt>
      <trkpt lat="47.01103" lon="8.65551">
        <ele>494</ele>
        <time>2021-08-05T08:47:56.417Z</time>
      </trkpt>
      <trkpt lat="47.01103" lon="8.65549">
        <ele>494</ele>
        <time>2021-08-05T08:47:57.418Z</time>
      </trkpt>
      <trkpt lat="47.01102" lon="8.65548">
        <ele>495</ele>
        <time>2021-08-05T08:47:58.418Z</time>
      </trkpt>
      <trkpt lat="47.01101" lon="8.65546">
        <ele>495</ele>
        <time>2021-08-05T08:47:59.418Z</time>
      </trkpt>
      <trkpt lat="47.011" lon="8.65545">
        <ele>495</ele>
        <time>2021-08-05T08:48:00.418Z</time>
      </trkpt>
      <trkpt lat="47.01099" lon="8.65544">
        <ele>496</ele>
        <time>2021-08-05T08:48:01.418Z</time>
      </trkpt>
      <trkpt lat="47.01099" lon="8.65544">
        <ele>496</ele>
        <time>2021-08-05T08:48:02.417Z</time>
      </trkpt>
      <trkpt lat="47.01098" lon="8.65543">
        <ele>496</ele>
        <time>2021-08-05T08:48:03.418Z</time>
      </trkpt>
      <trkpt lat="47.01098" lon="8.65542">
        <ele>495</ele>
        <time>2021-08-05T08:48:04.417Z</time>
      </trkpt>
      <trkpt lat="47.01097" lon="8.65541">
        <ele>495</ele>
        <time>2021-08-05T08:48:05.417Z</time>
      </trkpt>
      <trkpt lat="47.01096" lon="8.6554">
        <ele>495</ele>
        <time>2021-08-05T08:48:06.418Z</time>
      </trkpt>
      <trkpt lat="47.01096" lon="8.65539">
        <ele>495</ele>
        <time>2021-08-05T08:48:07.418Z</time>
      </trkpt>
      <trkpt lat="47.01095" lon="8.65538">
        <ele>494</ele>
        <time>2021-08-05T08:48:08.417Z</time>
      </trkpt>
      <trkpt lat="47.01095" lon="8.65538">
        <ele>494</ele>
        <time>2021-08-05T08:48:09.418Z</time>
      </trkpt>
      <trkpt lat="47.01093" lon="8.65536">
        <ele>494</ele>
        <time>2021-08-05T08:48:10.418Z</time>
      </trkpt>
      <trkpt lat="47.01093" lon="8.65535">
        <ele>494</ele>
        <time>2021-08-05T08:48:11.418Z</time>
      </trkpt>
      <trkpt lat="47.01092" lon="8.65534">
        <ele>494</ele>
        <time>2021-08-05T08:48:12.418Z</time>
      </trkpt>
      <trkpt lat="47.01092" lon="8.65533">
        <ele>494</ele>
        <time>2021-08-05T08:48:13.417Z</time>
      </trkpt>
      <trkpt lat="47.01092" lon="8.65533">
        <ele>494</ele>
        <time>2021-08-05T08:48:14.417Z</time>
      </trkpt>
      <trkpt lat="47.0109" lon="8.65531">
        <ele>494</ele>
        <time>2021-08-05T08:48:15.420Z</time>
      </trkpt>
      <trkpt lat="47.0109" lon="8.65531">
        <ele>494</ele>
        <time>2021-08-05T08:48:16.419Z</time>
      </trkpt>
      <trkpt lat="47.0109" lon="8.65531">
        <ele>494</ele>
        <time>2021-08-05T08:48:17.420Z</time>
      </trkpt>
      <trkpt lat="47.01091" lon="8.65531">
        <ele>494</ele>
        <time>2021-08-05T08:48:18.420Z</time>
      </trkpt>
      <trkpt lat="47.01091" lon="8.6553">
        <ele>494</ele>
        <time>2021-08-05T08:48:19.420Z</time>
      </trkpt>
      <trkpt lat="47.01091" lon="8.65529">
        <ele>495</ele>
        <time>2021-08-05T08:48:20.420Z</time>
      </trkpt>
      <trkpt lat="47.01091" lon="8.65529">
        <ele>495</ele>
        <time>2021-08-05T08:48:21.420Z</time>
      </trkpt>
      <trkpt lat="47.0109" lon="8.65528">
        <ele>496</ele>
        <time>2021-08-05T08:48:22.420Z</time>
      </trkpt>
      <trkpt lat="47.0109" lon="8.65527">
        <ele>497</ele>
        <time>2021-08-05T08:48:23.420Z</time>
      </trkpt>
      <trkpt lat="47.01089" lon="8.65527">
        <ele>497</ele>
        <time>2021-08-05T08:48:24.420Z</time>
      </trkpt>
      <trkpt lat="47.01089" lon="8.65526">
        <ele>497</ele>
        <time>2021-08-05T08:48:25.419Z</time>
      </trkpt>
      <trkpt lat="47.01088" lon="8.65526">
        <ele>498</ele>
        <time>2021-08-05T08:48:26.420Z</time>
      </trkpt>
      <trkpt lat="47.01087" lon="8.65526">
        <ele>498</ele>
        <time>2021-08-05T08:48:27.419Z</time>
      </trkpt>
      <trkpt lat="47.01087" lon="8.65526">
        <ele>498</ele>
        <time>2021-08-05T08:48:28.419Z</time>
      </trkpt>
      <trkpt lat="47.01087" lon="8.65526">
        <ele>498</ele>
        <time>2021-08-05T08:48:29.419Z</time>
      </trkpt>
      <trkpt lat="47.01086" lon="8.65526">
        <ele>498</ele>
        <time>2021-08-05T08:48:30.419Z</time>
      </trkpt>
      <trkpt lat="47.01084" lon="8.65526">
        <ele>497</ele>
        <time>2021-08-05T08:48:31.421Z</time>
      </trkpt>
      <trkpt lat="47.01083" lon="8.65526">
        <ele>498</ele>
        <time>2021-08-05T08:48:32.420Z</time>
      </trkpt>
      <trkpt lat="47.01082" lon="8.65526">
        <ele>498</ele>
        <time>2021-08-05T08:48:33.421Z</time>
      </trkpt>
      <trkpt lat="47.01081" lon="8.65525">
        <ele>498</ele>
        <time>2021-08-05T08:48:34.421Z</time>
      </trkpt>
      <trkpt lat="47.0108" lon="8.65525">
        <ele>497</ele>
        <time>2021-08-05T08:48:35.420Z</time>
      </trkpt>
      <trkpt lat="47.01079" lon="8.65525">
        <ele>497</ele>
        <time>2021-08-05T08:48:36.421Z</time>
      </trkpt>
      <trkpt lat="47.01078" lon="8.65525">
        <ele>497</ele>
        <time>2021-08-05T08:48:37.420Z</time>
      </trkpt>
      <trkpt lat="47.01077" lon="8.65525">
        <ele>496</ele>
        <time>2021-08-05T08:48:38.420Z</time>
      </trkpt>
      <trkpt lat="47.01076" lon="8.65525">
        <ele>496</ele>
        <time>2021-08-05T08:48:39.421Z</time>
      </trkpt>
      <trkpt lat="47.01075" lon="8.65524">
        <ele>496</ele>
        <time>2021-08-05T08:48:40.421Z</time>
      </trkpt>
      <trkpt lat="47.01075" lon="8.65524">
        <ele>496</ele>
        <time>2021-08-05T08:48:41.421Z</time>
      </trkpt>
      <trkpt lat="47.01074" lon="8.65524">
        <ele>496</ele>
        <time>2021-08-05T08:48:42.420Z</time>
      </trkpt>
      <trkpt lat="47.01073" lon="8.65524">
        <ele>495</ele>
        <time>2021-08-05T08:48:43.420Z</time>
      </trkpt>
      <trkpt lat="47.01072" lon="8.65524">
        <ele>495</ele>
        <time>2021-08-05T08:48:44.420Z</time>
      </trkpt>
      <trkpt lat="47.01071" lon="8.65524">
        <ele>495</ele>
        <time>2021-08-05T08:48:45.420Z</time>
      </trkpt>
      <trkpt lat="47.0107" lon="8.65524">
        <ele>495</ele>
        <time>2021-08-05T08:48:46.420Z</time>
      </trkpt>
      <trkpt lat="47.0107" lon="8.65524">
        <ele>495</ele>
        <time>2021-08-05T08:48:47.420Z</time>
      </trkpt>
      <trkpt lat="47.01069" lon="8.65524">
        <ele>495</ele>
        <time>2021-08-05T08:48:48.421Z</time>
      </trkpt>
      <trkpt lat="47.01068" lon="8.65524">
        <ele>494</ele>
        <time>2021-08-05T08:48:49.421Z</time>
      </trkpt>
      <trkpt lat="47.01067" lon="8.65523">
        <ele>494</ele>
        <time>2021-08-05T08:48:50.421Z</time>
      </trkpt>
      <trkpt lat="47.01066" lon="8.65523">
        <ele>493</ele>
        <time>2021-08-05T08:48:51.420Z</time>
      </trkpt>
      <trkpt lat="47.01064" lon="8.65523">
        <ele>493</ele>
        <time>2021-08-05T08:48:52.420Z</time>
      </trkpt>
      <trkpt lat="47.01063" lon="8.65523">
        <ele>493</ele>
        <time>2021-08-05T08:48:53.421Z</time>
      </trkpt>
      <trkpt lat="47.01062" lon="8.65522">
        <ele>493</ele>
        <time>2021-08-05T08:48:54.421Z</time>
      </trkpt>
      <trkpt lat="47.01061" lon="8.65521">
        <ele>492</ele>
        <time>2021-08-05T08:48:55.421Z</time>
      </trkpt>
      <trkpt lat="47.0106" lon="8.65521">
        <ele>491</ele>
        <time>2021-08-05T08:48:56.420Z</time>
      </trkpt>
      <trkpt lat="47.01058" lon="8.6552">
        <ele>490</ele>
        <time>2021-08-05T08:48:57.421Z</time>
      </trkpt>
      <trkpt lat="47.01057" lon="8.65519">
        <ele>490</ele>
        <time>2021-08-05T08:48:58.421Z</time>
      </trkpt>
      <trkpt lat="47.01056" lon="8.65518">
        <ele>490</ele>
        <time>2021-08-05T08:48:59.421Z</time>
      </trkpt>
      <trkpt lat="47.01055" lon="8.65518">
        <ele>490</ele>
        <time>2021-08-05T08:49:00.421Z</time>
      </trkpt>
      <trkpt lat="47.01054" lon="8.65519">
        <ele>490</ele>
        <time>2021-08-05T08:49:01.421Z</time>
      </trkpt>
      <trkpt lat="47.01052" lon="8.65518">
        <ele>491</ele>
        <time>2021-08-05T08:49:02.421Z</time>
      </trkpt>
      <trkpt lat="47.01051" lon="8.65518">
        <ele>491</ele>
        <time>2021-08-05T08:49:03.421Z</time>
      </trkpt>
      <trkpt lat="47.0105" lon="8.65517">
        <ele>491</ele>
        <time>2021-08-05T08:49:04.421Z</time>
      </trkpt>
      <trkpt lat="47.01049" lon="8.65516">
        <ele>492</ele>
        <time>2021-08-05T08:49:05.420Z</time>
      </trkpt>
      <trkpt lat="47.01048" lon="8.65516">
        <ele>492</ele>
        <time>2021-08-05T08:49:06.421Z</time>
      </trkpt>
      <trkpt lat="47.01047" lon="8.65515">
        <ele>493</ele>
        <time>2021-08-05T08:49:07.420Z</time>
      </trkpt>
      <trkpt lat="47.01046" lon="8.65514">
        <ele>493</ele>
        <time>2021-08-05T08:49:08.420Z</time>
      </trkpt>
      <trkpt lat="47.01045" lon="8.65513">
        <ele>493</ele>
        <time>2021-08-05T08:49:09.421Z</time>
      </trkpt>
      <trkpt lat="47.01044" lon="8.65513">
        <ele>494</ele>
        <time>2021-08-05T08:49:10.420Z</time>
      </trkpt>
      <trkpt lat="47.01043" lon="8.65512">
        <ele>493</ele>
        <time>2021-08-05T08:49:11.421Z</time>
      </trkpt>
      <trkpt lat="47.01042" lon="8.65512">
        <ele>493</ele>
        <time>2021-08-05T08:49:12.421Z</time>
      </trkpt>
      <trkpt lat="47.01041" lon="8.65511">
        <ele>493</ele>
        <time>2021-08-05T08:49:13.421Z</time>
      </trkpt>
      <trkpt lat="47.0104" lon="8.6551">
        <ele>494</ele>
        <time>2021-08-05T08:49:14.420Z</time>
      </trkpt>
      <trkpt lat="47.01039" lon="8.6551">
        <ele>494</ele>
        <time>2021-08-05T08:49:15.420Z</time>
      </trkpt>
      <trkpt lat="47.01039" lon="8.65509">
        <ele>494</ele>
        <time>2021-08-05T08:49:16.421Z</time>
      </trkpt>
      <trkpt lat="47.01038" lon="8.65509">
        <ele>494</ele>
        <time>2021-08-05T08:49:17.420Z</time>
      </trkpt>
      <trkpt lat="47.01037" lon="8.65508">
        <ele>494</ele>
        <time>2021-08-05T08:49:18.421Z</time>
      </trkpt>
      <trkpt lat="47.01037" lon="8.65508">
        <ele>494</ele>
        <time>2021-08-05T08:49:19.421Z</time>
      </trkpt>
      <trkpt lat="47.01036" lon="8.65507">
        <ele>494</ele>
        <time>2021-08-05T08:49:20.420Z</time>
      </trkpt>
      <trkpt lat="47.01035" lon="8.65506">
        <ele>494</ele>
        <time>2021-08-05T08:49:21.420Z</time>
      </trkpt>
      <trkpt lat="47.01035" lon="8.65506">
        <ele>494</ele>
        <time>2021-08-05T08:49:22.420Z</time>
      </trkpt>
      <trkpt lat="47.01034" lon="8.65504">
        <ele>494</ele>
        <time>2021-08-05T08:49:23.421Z</time>
      </trkpt>
      <trkpt lat="47.01032" lon="8.65503">
        <ele>494</ele>
        <time>2021-08-05T08:49:24.421Z</time>
      </trkpt>
      <trkpt lat="47.01031" lon="8.65502">
        <ele>494</ele>
        <time>2021-08-05T08:49:25.421Z</time>
      </trkpt>
      <trkpt lat="47.01031" lon="8.65501">
        <ele>494</ele>
        <time>2021-08-05T08:49:26.421Z</time>
      </trkpt>
      <trkpt lat="47.0103" lon="8.65501">
        <ele>495</ele>
        <time>2021-08-05T08:49:27.421Z</time>
      </trkpt>
      <trkpt lat="47.01029" lon="8.655">
        <ele>495</ele>
        <time>2021-08-05T08:49:28.421Z</time>
      </trkpt>
      <trkpt lat="47.01028" lon="8.655">
        <ele>495</ele>
        <time>2021-08-05T08:49:29.420Z</time>
      </trkpt>
      <trkpt lat="47.01027" lon="8.65499">
        <ele>495</ele>
        <time>2021-08-05T08:49:30.421Z</time>
      </trkpt>
      <trkpt lat="47.01027" lon="8.65498">
        <ele>495</ele>
        <time>2021-08-05T08:49:31.421Z</time>
      </trkpt>
      <trkpt lat="47.01026" lon="8.65498">
        <ele>495</ele>
        <time>2021-08-05T08:49:32.421Z</time>
      </trkpt>
      <trkpt lat="47.01025" lon="8.65498">
        <ele>495</ele>
        <time>2021-08-05T08:49:33.421Z</time>
      </trkpt>
      <trkpt lat="47.01025" lon="8.65498">
        <ele>495</ele>
        <time>2021-08-05T08:49:34.421Z</time>
      </trkpt>
      <trkpt lat="47.01024" lon="8.65497">
        <ele>494</ele>
        <time>2021-08-05T08:49:35.420Z</time>
      </trkpt>
      <trkpt lat="47.01024" lon="8.65497">
        <ele>494</ele>
        <time>2021-08-05T08:49:36.421Z</time>
      </trkpt>
      <trkpt lat="47.01023" lon="8.65496">
        <ele>494</ele>
        <time>2021-08-05T08:49:37.421Z</time>
      </trkpt>
      <trkpt lat="47.01022" lon="8.65496">
        <ele>494</ele>
        <time>2021-08-05T08:49:38.421Z</time>
      </trkpt>
      <trkpt lat="47.01021" lon="8.65495">
        <ele>494</ele>
        <time>2021-08-05T08:49:39.421Z</time>
      </trkpt>
      <trkpt lat="47.0102" lon="8.65494">
        <ele>493</ele>
        <time>2021-08-05T08:49:40.421Z</time>
      </trkpt>
      <trkpt lat="47.0102" lon="8.65494">
        <ele>493</ele>
        <time>2021-08-05T08:49:41.421Z</time>
      </trkpt>
      <trkpt lat="47.01019" lon="8.65494">
        <ele>493</ele>
        <time>2021-08-05T08:49:42.421Z</time>
      </trkpt>
      <trkpt lat="47.01018" lon="8.65493">
        <ele>493</ele>
        <time>2021-08-05T08:49:43.421Z</time>
      </trkpt>
      <trkpt lat="47.01017" lon="8.65493">
        <ele>493</ele>
        <time>2021-08-05T08:49:44.421Z</time>
      </trkpt>
      <trkpt lat="47.01016" lon="8.65493">
        <ele>493</ele>
        <time>2021-08-05T08:49:45.421Z</time>
      </trkpt>
      <trkpt lat="47.01016" lon="8.65493">
        <ele>494</ele>
        <time>2021-08-05T08:49:46.421Z</time>
      </trkpt>
      <trkpt lat="47.01015" lon="8.65492">
        <ele>494</ele>
        <time>2021-08-05T08:49:47.421Z</time>
      </trkpt>
      <trkpt lat="47.01014" lon="8.65492">
        <ele>493</ele>
        <time>2021-08-05T08:49:48.421Z</time>
      </trkpt>
      <trkpt lat="47.01013" lon="8.65492">
        <ele>493</ele>
        <time>2021-08-05T08:49:49.421Z</time>
      </trkpt>
      <trkpt lat="47.01012" lon="8.65492">
        <ele>492</ele>
        <time>2021-08-05T08:49:50.421Z</time>
      </trkpt>
      <trkpt lat="47.01011" lon="8.65491">
        <ele>492</ele>
        <time>2021-08-05T08:49:51.421Z</time>
      </trkpt>
      <trkpt lat="47.0101" lon="8.6549">
        <ele>492</ele>
        <time>2021-08-05T08:49:52.421Z</time>
      </trkpt>
      <trkpt lat="47.01009" lon="8.6549">
        <ele>491</ele>
        <time>2021-08-05T08:49:53.421Z</time>
      </trkpt>
      <trkpt lat="47.01008" lon="8.65489">
        <ele>491</ele>
        <time>2021-08-05T08:49:54.421Z</time>
      </trkpt>
      <trkpt lat="47.01007" lon="8.65488">
        <ele>490</ele>
        <time>2021-08-05T08:49:55.421Z</time>
      </trkpt>
      <trkpt lat="47.01007" lon="8.65487">
        <ele>490</ele>
        <time>2021-08-05T08:49:56.420Z</time>
      </trkpt>
      <trkpt lat="47.01006" lon="8.65485">
        <ele>490</ele>
        <time>2021-08-05T08:49:57.421Z</time>
      </trkpt>
      <trkpt lat="47.01005" lon="8.65484">
        <ele>490</ele>
        <time>2021-08-05T08:49:58.421Z</time>
      </trkpt>
      <trkpt lat="47.01005" lon="8.65484">
        <ele>491</ele>
        <time>2021-08-05T08:49:59.420Z</time>
      </trkpt>
      <trkpt lat="47.01004" lon="8.65483">
        <ele>490</ele>
        <time>2021-08-05T08:50:00.420Z</time>
      </trkpt>
      <trkpt lat="47.01004" lon="8.65482">
        <ele>491</ele>
        <time>2021-08-05T08:50:01.421Z</time>
      </trkpt>
      <trkpt lat="47.01004" lon="8.65482">
        <ele>491</ele>
        <time>2021-08-05T08:50:02.421Z</time>
      </trkpt>
      <trkpt lat="47.01003" lon="8.65481">
        <ele>491</ele>
        <time>2021-08-05T08:50:03.421Z</time>
      </trkpt>
      <trkpt lat="47.01002" lon="8.65479">
        <ele>492</ele>
        <time>2021-08-05T08:50:04.421Z</time>
      </trkpt>
      <trkpt lat="47.01001" lon="8.65478">
        <ele>492</ele>
        <time>2021-08-05T08:50:05.421Z</time>
      </trkpt>
      <trkpt lat="47.01" lon="8.65477">
        <ele>491</ele>
        <time>2021-08-05T08:50:06.421Z</time>
      </trkpt>
      <trkpt lat="47.01" lon="8.65477">
        <ele>491</ele>
        <time>2021-08-05T08:50:07.421Z</time>
      </trkpt>
      <trkpt lat="47.01" lon="8.65477">
        <ele>490</ele>
        <time>2021-08-05T08:50:08.421Z</time>
      </trkpt>
      <trkpt lat="47.01" lon="8.65477">
        <ele>490</ele>
        <time>2021-08-05T08:50:09.420Z</time>
      </trkpt>
      <trkpt lat="47.01" lon="8.65476">
        <ele>490</ele>
        <time>2021-08-05T08:50:10.420Z</time>
      </trkpt>
      <trkpt lat="47.00999" lon="8.65475">
        <ele>490</ele>
        <time>2021-08-05T08:50:11.421Z</time>
      </trkpt>
      <trkpt lat="47.00998" lon="8.65475">
        <ele>490</ele>
        <time>2021-08-05T08:50:12.421Z</time>
      </trkpt>
      <trkpt lat="47.00997" lon="8.65475">
        <ele>490</ele>
        <time>2021-08-05T08:50:13.421Z</time>
      </trkpt>
      <trkpt lat="47.00997" lon="8.65475">
        <ele>490</ele>
        <time>2021-08-05T08:50:14.421Z</time>
      </trkpt>
      <trkpt lat="47.00997" lon="8.65475">
        <ele>491</ele>
        <time>2021-08-05T08:50:15.421Z</time>
      </trkpt>
      <trkpt lat="47.00996" lon="8.65474">
        <ele>492</ele>
        <time>2021-08-05T08:50:16.420Z</time>
      </trkpt>
      <trkpt lat="47.00995" lon="8.65473">
        <ele>493</ele>
        <time>2021-08-05T08:50:17.420Z</time>
      </trkpt>
      <trkpt lat="47.00994" lon="8.65472">
        <ele>493</ele>
        <time>2021-08-05T08:50:18.421Z</time>
      </trkpt>
      <trkpt lat="47.00993" lon="8.65472">
        <ele>493</ele>
        <time>2021-08-05T08:50:19.421Z</time>
      </trkpt>
      <trkpt lat="47.00993" lon="8.65471">
        <ele>494</ele>
        <time>2021-08-05T08:50:20.421Z</time>
      </trkpt>
      <trkpt lat="47.00992" lon="8.6547">
        <ele>495</ele>
        <time>2021-08-05T08:50:21.420Z</time>
      </trkpt>
      <trkpt lat="47.00991" lon="8.6547">
        <ele>495</ele>
        <time>2021-08-05T08:50:22.420Z</time>
      </trkpt>
      <trkpt lat="47.00991" lon="8.6547">
        <ele>495</ele>
        <time>2021-08-05T08:50:23.420Z</time>
      </trkpt>
      <trkpt lat="47.0099" lon="8.65469">
        <ele>496</ele>
        <time>2021-08-05T08:50:24.420Z</time>
      </trkpt>
      <trkpt lat="47.0099" lon="8.65468">
        <ele>495</ele>
        <time>2021-08-05T08:50:25.421Z</time>
      </trkpt>
      <trkpt lat="47.00989" lon="8.65468">
        <ele>495</ele>
        <time>2021-08-05T08:50:26.421Z</time>
      </trkpt>
      <trkpt lat="47.00988" lon="8.65467">
        <ele>495</ele>
        <time>2021-08-05T08:50:27.421Z</time>
      </trkpt>
      <trkpt lat="47.00987" lon="8.65465">
        <ele>495</ele>
        <time>2021-08-05T08:50:28.420Z</time>
      </trkpt>
      <trkpt lat="47.00986" lon="8.65464">
        <ele>495</ele>
        <time>2021-08-05T08:50:29.421Z</time>
      </trkpt>
      <trkpt lat="47.00985" lon="8.65464">
        <ele>495</ele>
        <time>2021-08-05T08:50:30.420Z</time>
      </trkpt>
      <trkpt lat="47.00985" lon="8.65464">
        <ele>495</ele>
        <time>2021-08-05T08:50:31.421Z</time>
      </trkpt>
      <trkpt lat="47.00984" lon="8.65464">
        <ele>495</ele>
        <time>2021-08-05T08:50:32.421Z</time>
      </trkpt>
      <trkpt lat="47.00983" lon="8.65463">
        <ele>495</ele>
        <time>2021-08-05T08:50:33.421Z</time>
      </trkpt>
      <trkpt lat="47.00982" lon="8.65463">
        <ele>495</ele>
        <time>2021-08-05T08:50:34.421Z</time>
      </trkpt>
      <trkpt lat="47.00981" lon="8.65462">
        <ele>495</ele>
        <time>2021-08-05T08:50:35.421Z</time>
      </trkpt>
      <trkpt lat="47.0098" lon="8.65461">
        <ele>495</ele>
        <time>2021-08-05T08:50:36.421Z</time>
      </trkpt>
      <trkpt lat="47.00979" lon="8.6546">
        <ele>495</ele>
        <time>2021-08-05T08:50:37.421Z</time>
      </trkpt>
      <trkpt lat="47.00979" lon="8.65459">
        <ele>495</ele>
        <time>2021-08-05T08:50:38.420Z</time>
      </trkpt>
      <trkpt lat="47.00978" lon="8.65459">
        <ele>495</ele>
        <time>2021-08-05T08:50:39.421Z</time>
      </trkpt>
      <trkpt lat="47.00978" lon="8.65458">
        <ele>496</ele>
        <time>2021-08-05T08:50:40.421Z</time>
      </trkpt>
      <trkpt lat="47.00977" lon="8.65457">
        <ele>496</ele>
        <time>2021-08-05T08:50:41.420Z</time>
      </trkpt>
      <trkpt lat="47.00976" lon="8.65457">
        <ele>497</ele>
        <time>2021-08-05T08:50:42.420Z</time>
      </trkpt>
      <trkpt lat="47.00976" lon="8.65456">
        <ele>497</ele>
        <time>2021-08-05T08:50:43.421Z</time>
      </trkpt>
      <trkpt lat="47.00976" lon="8.65456">
        <ele>497</ele>
        <time>2021-08-05T08:50:44.421Z</time>
      </trkpt>
      <trkpt lat="47.00975" lon="8.65456">
        <ele>498</ele>
        <time>2021-08-05T08:50:45.420Z</time>
      </trkpt>
      <trkpt lat="47.00974" lon="8.65455">
        <ele>498</ele>
        <time>2021-08-05T08:50:46.421Z</time>
      </trkpt>
      <trkpt lat="47.00974" lon="8.65455">
        <ele>498</ele>
        <time>2021-08-05T08:50:47.420Z</time>
      </trkpt>
      <trkpt lat="47.00973" lon="8.65454">
        <ele>498</ele>
        <time>2021-08-05T08:50:48.420Z</time>
      </trkpt>
      <trkpt lat="47.00972" lon="8.65455">
        <ele>498</ele>
        <time>2021-08-05T08:50:49.421Z</time>
      </trkpt>
      <trkpt lat="47.00971" lon="8.65454">
        <ele>497</ele>
        <time>2021-08-05T08:50:50.421Z</time>
      </trkpt>
      <trkpt lat="47.00971" lon="8.65454">
        <ele>497</ele>
        <time>2021-08-05T08:50:51.421Z</time>
      </trkpt>
      <trkpt lat="47.0097" lon="8.65453">
        <ele>496</ele>
        <time>2021-08-05T08:50:52.421Z</time>
      </trkpt>
      <trkpt lat="47.00969" lon="8.65453">
        <ele>496</ele>
        <time>2021-08-05T08:50:53.420Z</time>
      </trkpt>
      <trkpt lat="47.00969" lon="8.65452">
        <ele>496</ele>
        <time>2021-08-05T08:50:54.420Z</time>
      </trkpt>
      <trkpt lat="47.00968" lon="8.65451">
        <ele>496</ele>
        <time>2021-08-05T08:50:55.421Z</time>
      </trkpt>
      <trkpt lat="47.00967" lon="8.65451">
        <ele>496</ele>
        <time>2021-08-05T08:50:56.420Z</time>
      </trkpt>
      <trkpt lat="47.00965" lon="8.6545">
        <ele>495</ele>
        <time>2021-08-05T08:50:57.421Z</time>
      </trkpt>
      <trkpt lat="47.00965" lon="8.6545">
        <ele>495</ele>
        <time>2021-08-05T08:50:58.421Z</time>
      </trkpt>
      <trkpt lat="47.00964" lon="8.6545">
        <ele>495</ele>
        <time>2021-08-05T08:50:59.421Z</time>
      </trkpt>
      <trkpt lat="47.00963" lon="8.6545">
        <ele>495</ele>
        <time>2021-08-05T08:51:00.420Z</time>
      </trkpt>
      <trkpt lat="47.00962" lon="8.6545">
        <ele>494</ele>
        <time>2021-08-05T08:51:01.421Z</time>
      </trkpt>
      <trkpt lat="47.00961" lon="8.6545">
        <ele>494</ele>
        <time>2021-08-05T08:51:02.420Z</time>
      </trkpt>
      <trkpt lat="47.0096" lon="8.6545">
        <ele>494</ele>
        <time>2021-08-05T08:51:03.421Z</time>
      </trkpt>
      <trkpt lat="47.00959" lon="8.6545">
        <ele>494</ele>
        <time>2021-08-05T08:51:04.420Z</time>
      </trkpt>
      <trkpt lat="47.00959" lon="8.65449">
        <ele>493</ele>
        <time>2021-08-05T08:51:05.421Z</time>
      </trkpt>
      <trkpt lat="47.00958" lon="8.65449">
        <ele>493</ele>
        <time>2021-08-05T08:51:06.421Z</time>
      </trkpt>
      <trkpt lat="47.00957" lon="8.65447">
        <ele>493</ele>
        <time>2021-08-05T08:51:07.421Z</time>
      </trkpt>
      <trkpt lat="47.00956" lon="8.65447">
        <ele>493</ele>
        <time>2021-08-05T08:51:08.421Z</time>
      </trkpt>
      <trkpt lat="47.00955" lon="8.65446">
        <ele>494</ele>
        <time>2021-08-05T08:51:09.421Z</time>
      </trkpt>
      <trkpt lat="47.00955" lon="8.65445">
        <ele>494</ele>
        <time>2021-08-05T08:51:10.421Z</time>
      </trkpt>
      <trkpt lat="47.00954" lon="8.65446">
        <ele>494</ele>
        <time>2021-08-05T08:51:11.421Z</time>
      </trkpt>
      <trkpt lat="47.00953" lon="8.65445">
        <ele>494</ele>
        <time>2021-08-05T08:51:12.420Z</time>
      </trkpt>
      <trkpt lat="47.00952" lon="8.65445">
        <ele>495</ele>
        <time>2021-08-05T08:51:13.420Z</time>
      </trkpt>
      <trkpt lat="47.00951" lon="8.65444">
        <ele>495</ele>
        <time>2021-08-05T08:51:14.421Z</time>
      </trkpt>
      <trkpt lat="47.00949" lon="8.65443">
        <ele>495</ele>
        <time>2021-08-05T08:51:15.421Z</time>
      </trkpt>
      <trkpt lat="47.00948" lon="8.65443">
        <ele>495</ele>
        <time>2021-08-05T08:51:16.421Z</time>
      </trkpt>
      <trkpt lat="47.00947" lon="8.65442">
        <ele>495</ele>
        <time>2021-08-05T08:51:17.420Z</time>
      </trkpt>
      <trkpt lat="47.00947" lon="8.6544">
        <ele>496</ele>
        <time>2021-08-05T08:51:18.420Z</time>
      </trkpt>
      <trkpt lat="47.00946" lon="8.65439">
        <ele>496</ele>
        <time>2021-08-05T08:51:19.421Z</time>
      </trkpt>
      <trkpt lat="47.00946" lon="8.65438">
        <ele>496</ele>
        <time>2021-08-05T08:51:20.420Z</time>
      </trkpt>
      <trkpt lat="47.00945" lon="8.65437">
        <ele>497</ele>
        <time>2021-08-05T08:51:21.421Z</time>
      </trkpt>
      <trkpt lat="47.00945" lon="8.65435">
        <ele>497</ele>
        <time>2021-08-05T08:51:22.420Z</time>
      </trkpt>
      <trkpt lat="47.00945" lon="8.65435">
        <ele>497</ele>
        <time>2021-08-05T08:51:23.421Z</time>
      </trkpt>
      <trkpt lat="47.00944" lon="8.65433">
        <ele>496</ele>
        <time>2021-08-05T08:51:24.421Z</time>
      </trkpt>
      <trkpt lat="47.00943" lon="8.65432">
        <ele>496</ele>
        <time>2021-08-05T08:51:25.420Z</time>
      </trkpt>
      <trkpt lat="47.00943" lon="8.65431">
        <ele>496</ele>
        <time>2021-08-05T08:51:26.421Z</time>
      </trkpt>
      <trkpt lat="47.00943" lon="8.6543">
        <ele>496</ele>
        <time>2021-08-05T08:51:27.421Z</time>
      </trkpt>
      <trkpt lat="47.00943" lon="8.65429">
        <ele>495</ele>
        <time>2021-08-05T08:51:28.421Z</time>
      </trkpt>
      <trkpt lat="47.00943" lon="8.65428">
        <ele>495</ele>
        <time>2021-08-05T08:51:29.421Z</time>
      </trkpt>
      <trkpt lat="47.00943" lon="8.65427">
        <ele>495</ele>
        <time>2021-08-05T08:51:30.420Z</time>
      </trkpt>
      <trkpt lat="47.00943" lon="8.65425">
        <ele>495</ele>
        <time>2021-08-05T08:51:31.421Z</time>
      </trkpt>
      <trkpt lat="47.00942" lon="8.65424">
        <ele>494</ele>
        <time>2021-08-05T08:51:32.421Z</time>
      </trkpt>
      <trkpt lat="47.00942" lon="8.65424">
        <ele>493</ele>
        <time>2021-08-05T08:51:33.421Z</time>
      </trkpt>
      <trkpt lat="47.00941" lon="8.65422">
        <ele>493</ele>
        <time>2021-08-05T08:51:34.421Z</time>
      </trkpt>
      <trkpt lat="47.0094" lon="8.65422">
        <ele>492</ele>
        <time>2021-08-05T08:51:35.420Z</time>
      </trkpt>
      <trkpt lat="47.00941" lon="8.65422">
        <ele>492</ele>
        <time>2021-08-05T08:51:36.421Z</time>
      </trkpt>
      <trkpt lat="47.0094" lon="8.65421">
        <ele>492</ele>
        <time>2021-08-05T08:51:37.421Z</time>
      </trkpt>
      <trkpt lat="47.0094" lon="8.6542">
        <ele>491</ele>
        <time>2021-08-05T08:51:38.421Z</time>
      </trkpt>
      <trkpt lat="47.00939" lon="8.65418">
        <ele>491</ele>
        <time>2021-08-05T08:51:39.421Z</time>
      </trkpt>
      <trkpt lat="47.00939" lon="8.65417">
        <ele>491</ele>
        <time>2021-08-05T08:51:40.420Z</time>
      </trkpt>
      <trkpt lat="47.00938" lon="8.65416">
        <ele>491</ele>
        <time>2021-08-05T08:51:41.421Z</time>
      </trkpt>
      <trkpt lat="47.00938" lon="8.65415">
        <ele>491</ele>
        <time>2021-08-05T08:51:42.421Z</time>
      </trkpt>
      <trkpt lat="47.00938" lon="8.65413">
        <ele>492</ele>
        <time>2021-08-05T08:51:43.421Z</time>
      </trkpt>
      <trkpt lat="47.00937" lon="8.65412">
        <ele>492</ele>
        <time>2021-08-05T08:51:44.420Z</time>
      </trkpt>
      <trkpt lat="47.00937" lon="8.65411">
        <ele>492</ele>
        <time>2021-08-05T08:51:45.421Z</time>
      </trkpt>
      <trkpt lat="47.00937" lon="8.6541">
        <ele>492</ele>
        <time>2021-08-05T08:51:46.421Z</time>
      </trkpt>
      <trkpt lat="47.00936" lon="8.65409">
        <ele>492</ele>
        <time>2021-08-05T08:51:47.421Z</time>
      </trkpt>
      <trkpt lat="47.00936" lon="8.65408">
        <ele>492</ele>
        <time>2021-08-05T08:51:48.421Z</time>
      </trkpt>
      <trkpt lat="47.00936" lon="8.65407">
        <ele>492</ele>
        <time>2021-08-05T08:51:49.421Z</time>
      </trkpt>
      <trkpt lat="47.00935" lon="8.65405">
        <ele>492</ele>
        <time>2021-08-05T08:51:50.421Z</time>
      </trkpt>
      <trkpt lat="47.00934" lon="8.65404">
        <ele>492</ele>
        <time>2021-08-05T08:51:51.421Z</time>
      </trkpt>
      <trkpt lat="47.00934" lon="8.65403">
        <ele>492</ele>
        <time>2021-08-05T08:51:52.420Z</time>
      </trkpt>
      <trkpt lat="47.00933" lon="8.65402">
        <ele>492</ele>
        <time>2021-08-05T08:51:53.421Z</time>
      </trkpt>
      <trkpt lat="47.00933" lon="8.654">
        <ele>492</ele>
        <time>2021-08-05T08:51:54.421Z</time>
      </trkpt>
      <trkpt lat="47.00933" lon="8.65399">
        <ele>492</ele>
        <time>2021-08-05T08:51:55.421Z</time>
      </trkpt>
      <trkpt lat="47.00932" lon="8.65399">
        <ele>492</ele>
        <time>2021-08-05T08:51:56.421Z</time>
      </trkpt>
      <trkpt lat="47.00932" lon="8.65398">
        <ele>492</ele>
        <time>2021-08-05T08:51:57.420Z</time>
      </trkpt>
      <trkpt lat="47.00932" lon="8.65397">
        <ele>492</ele>
        <time>2021-08-05T08:51:58.421Z</time>
      </trkpt>
      <trkpt lat="47.00932" lon="8.65396">
        <ele>492</ele>
        <time>2021-08-05T08:51:59.421Z</time>
      </trkpt>
      <trkpt lat="47.00931" lon="8.65395">
        <ele>493</ele>
        <time>2021-08-05T08:52:00.421Z</time>
      </trkpt>
      <trkpt lat="47.00931" lon="8.65394">
        <ele>493</ele>
        <time>2021-08-05T08:52:01.421Z</time>
      </trkpt>
      <trkpt lat="47.0093" lon="8.65393">
        <ele>493</ele>
        <time>2021-08-05T08:52:02.421Z</time>
      </trkpt>
      <trkpt lat="47.0093" lon="8.65391">
        <ele>493</ele>
        <time>2021-08-05T08:52:03.420Z</time>
      </trkpt>
      <trkpt lat="47.0093" lon="8.6539">
        <ele>493</ele>
        <time>2021-08-05T08:52:04.421Z</time>
      </trkpt>
      <trkpt lat="47.00929" lon="8.65388">
        <ele>493</ele>
        <time>2021-08-05T08:52:05.420Z</time>
      </trkpt>
      <trkpt lat="47.00929" lon="8.65387">
        <ele>493</ele>
        <time>2021-08-05T08:52:06.420Z</time>
      </trkpt>
      <trkpt lat="47.00929" lon="8.65385">
        <ele>493</ele>
        <time>2021-08-05T08:52:07.420Z</time>
      </trkpt>
      <trkpt lat="47.00928" lon="8.65384">
        <ele>493</ele>
        <time>2021-08-05T08:52:08.421Z</time>
      </trkpt>
      <trkpt lat="47.00927" lon="8.65382">
        <ele>493</ele>
        <time>2021-08-05T08:52:09.421Z</time>
      </trkpt>
      <trkpt lat="47.00927" lon="8.65381">
        <ele>493</ele>
        <time>2021-08-05T08:52:10.420Z</time>
      </trkpt>
      <trkpt lat="47.00927" lon="8.6538">
        <ele>493</ele>
        <time>2021-08-05T08:52:11.421Z</time>
      </trkpt>
      <trkpt lat="47.00926" lon="8.65378">
        <ele>493</ele>
        <time>2021-08-05T08:52:12.421Z</time>
      </trkpt>
      <trkpt lat="47.00926" lon="8.65377">
        <ele>493</ele>
        <time>2021-08-05T08:52:13.420Z</time>
      </trkpt>
      <trkpt lat="47.00925" lon="8.65376">
        <ele>493</ele>
        <time>2021-08-05T08:52:14.420Z</time>
      </trkpt>
      <trkpt lat="47.00925" lon="8.65375">
        <ele>493</ele>
        <time>2021-08-05T08:52:15.420Z</time>
      </trkpt>
      <trkpt lat="47.00924" lon="8.65373">
        <ele>493</ele>
        <time>2021-08-05T08:52:16.420Z</time>
      </trkpt>
      <trkpt lat="47.00924" lon="8.65371">
        <ele>493</ele>
        <time>2021-08-05T08:52:17.420Z</time>
      </trkpt>
      <trkpt lat="47.00924" lon="8.6537">
        <ele>493</ele>
        <time>2021-08-05T08:52:18.421Z</time>
      </trkpt>
      <trkpt lat="47.00924" lon="8.65369">
        <ele>493</ele>
        <time>2021-08-05T08:52:19.420Z</time>
      </trkpt>
      <trkpt lat="47.00925" lon="8.65368">
        <ele>493</ele>
        <time>2021-08-05T08:52:20.421Z</time>
      </trkpt>
      <trkpt lat="47.00924" lon="8.65367">
        <ele>493</ele>
        <time>2021-08-05T08:52:21.420Z</time>
      </trkpt>
      <trkpt lat="47.00924" lon="8.65365">
        <ele>493</ele>
        <time>2021-08-05T08:52:22.421Z</time>
      </trkpt>
      <trkpt lat="47.00924" lon="8.65363">
        <ele>493</ele>
        <time>2021-08-05T08:52:23.420Z</time>
      </trkpt>
      <trkpt lat="47.00924" lon="8.65361">
        <ele>493</ele>
        <time>2021-08-05T08:52:24.420Z</time>
      </trkpt>
      <trkpt lat="47.00923" lon="8.6536">
        <ele>493</ele>
        <time>2021-08-05T08:52:25.420Z</time>
      </trkpt>
      <trkpt lat="47.00923" lon="8.65359">
        <ele>493</ele>
        <time>2021-08-05T08:52:26.421Z</time>
      </trkpt>
      <trkpt lat="47.00922" lon="8.65358">
        <ele>493</ele>
        <time>2021-08-05T08:52:27.420Z</time>
      </trkpt>
      <trkpt lat="47.00921" lon="8.65357">
        <ele>493</ele>
        <time>2021-08-05T08:52:28.420Z</time>
      </trkpt>
      <trkpt lat="47.00921" lon="8.65357">
        <ele>493</ele>
        <time>2021-08-05T08:52:29.420Z</time>
      </trkpt>
      <trkpt lat="47.0092" lon="8.65357">
        <ele>493</ele>
        <time>2021-08-05T08:52:30.420Z</time>
      </trkpt>
      <trkpt lat="47.00919" lon="8.65356">
        <ele>493</ele>
        <time>2021-08-05T08:52:31.420Z</time>
      </trkpt>
      <trkpt lat="47.00919" lon="8.65355">
        <ele>493</ele>
        <time>2021-08-05T08:52:32.420Z</time>
      </trkpt>
      <trkpt lat="47.00918" lon="8.65354">
        <ele>493</ele>
        <time>2021-08-05T08:52:33.420Z</time>
      </trkpt>
      <trkpt lat="47.00918" lon="8.65353">
        <ele>493</ele>
        <time>2021-08-05T08:52:34.420Z</time>
      </trkpt>
      <trkpt lat="47.00917" lon="8.65352">
        <ele>494</ele>
        <time>2021-08-05T08:52:35.420Z</time>
      </trkpt>
      <trkpt lat="47.00916" lon="8.6535">
        <ele>494</ele>
        <time>2021-08-05T08:52:36.420Z</time>
      </trkpt>
      <trkpt lat="47.00916" lon="8.65348">
        <ele>494</ele>
        <time>2021-08-05T08:52:37.420Z</time>
      </trkpt>
      <trkpt lat="47.00915" lon="8.65346">
        <ele>494</ele>
        <time>2021-08-05T08:52:38.420Z</time>
      </trkpt>
      <trkpt lat="47.00915" lon="8.65345">
        <ele>493</ele>
        <time>2021-08-05T08:52:39.421Z</time>
      </trkpt>
      <trkpt lat="47.00915" lon="8.65345">
        <ele>493</ele>
        <time>2021-08-05T08:52:40.420Z</time>
      </trkpt>
      <trkpt lat="47.00914" lon="8.65343">
        <ele>493</ele>
        <time>2021-08-05T08:52:41.421Z</time>
      </trkpt>
      <trkpt lat="47.00914" lon="8.65341">
        <ele>493</ele>
        <time>2021-08-05T08:52:42.421Z</time>
      </trkpt>
      <trkpt lat="47.00913" lon="8.6534">
        <ele>493</ele>
        <time>2021-08-05T08:52:43.420Z</time>
      </trkpt>
      <trkpt lat="47.00913" lon="8.65339">
        <ele>493</ele>
        <time>2021-08-05T08:52:44.421Z</time>
      </trkpt>
      <trkpt lat="47.00912" lon="8.65338">
        <ele>493</ele>
        <time>2021-08-05T08:52:45.421Z</time>
      </trkpt>
      <trkpt lat="47.00912" lon="8.65337">
        <ele>493</ele>
        <time>2021-08-05T08:52:46.421Z</time>
      </trkpt>
      <trkpt lat="47.00912" lon="8.65335">
        <ele>494</ele>
        <time>2021-08-05T08:52:47.421Z</time>
      </trkpt>
      <trkpt lat="47.00911" lon="8.65334">
        <ele>494</ele>
        <time>2021-08-05T08:52:48.420Z</time>
      </trkpt>
      <trkpt lat="47.00911" lon="8.65333">
        <ele>494</ele>
        <time>2021-08-05T08:52:49.420Z</time>
      </trkpt>
      <trkpt lat="47.0091" lon="8.65331">
        <ele>494</ele>
        <time>2021-08-05T08:52:50.420Z</time>
      </trkpt>
      <trkpt lat="47.0091" lon="8.65331">
        <ele>494</ele>
        <time>2021-08-05T08:52:51.420Z</time>
      </trkpt>
      <trkpt lat="47.00909" lon="8.65329">
        <ele>494</ele>
        <time>2021-08-05T08:52:52.421Z</time>
      </trkpt>
      <trkpt lat="47.00909" lon="8.65329">
        <ele>494</ele>
        <time>2021-08-05T08:52:53.421Z</time>
      </trkpt>
      <trkpt lat="47.00909" lon="8.65328">
        <ele>494</ele>
        <time>2021-08-05T08:52:54.420Z</time>
      </trkpt>
      <trkpt lat="47.00908" lon="8.65327">
        <ele>495</ele>
        <time>2021-08-05T08:52:55.421Z</time>
      </trkpt>
      <trkpt lat="47.00908" lon="8.65326">
        <ele>495</ele>
        <time>2021-08-05T08:52:56.421Z</time>
      </trkpt>
      <trkpt lat="47.00907" lon="8.65325">
        <ele>495</ele>
        <time>2021-08-05T08:52:57.421Z</time>
      </trkpt>
      <trkpt lat="47.00907" lon="8.65324">
        <ele>494</ele>
        <time>2021-08-05T08:52:58.420Z</time>
      </trkpt>
      <trkpt lat="47.00906" lon="8.65324">
        <ele>495</ele>
        <time>2021-08-05T08:52:59.421Z</time>
      </trkpt>
      <trkpt lat="47.00906" lon="8.65322">
        <ele>494</ele>
        <time>2021-08-05T08:53:00.421Z</time>
      </trkpt>
      <trkpt lat="47.00906" lon="8.65321">
        <ele>494</ele>
        <time>2021-08-05T08:53:01.421Z</time>
      </trkpt>
      <trkpt lat="47.00906" lon="8.6532">
        <ele>494</ele>
        <time>2021-08-05T08:53:02.421Z</time>
      </trkpt>
      <trkpt lat="47.00905" lon="8.65319">
        <ele>494</ele>
        <time>2021-08-05T08:53:03.421Z</time>
      </trkpt>
      <trkpt lat="47.00905" lon="8.65318">
        <ele>494</ele>
        <time>2021-08-05T08:53:04.421Z</time>
      </trkpt>
      <trkpt lat="47.00905" lon="8.65317">
        <ele>494</ele>
        <time>2021-08-05T08:53:05.421Z</time>
      </trkpt>
      <trkpt lat="47.00904" lon="8.65315">
        <ele>494</ele>
        <time>2021-08-05T08:53:06.421Z</time>
      </trkpt>
      <trkpt lat="47.00904" lon="8.65314">
        <ele>494</ele>
        <time>2021-08-05T08:53:07.420Z</time>
      </trkpt>
      <trkpt lat="47.00904" lon="8.65313">
        <ele>494</ele>
        <time>2021-08-05T08:53:08.421Z</time>
      </trkpt>
      <trkpt lat="47.00903" lon="8.65311">
        <ele>494</ele>
        <time>2021-08-05T08:53:09.421Z</time>
      </trkpt>
      <trkpt lat="47.00902" lon="8.6531">
        <ele>494</ele>
        <time>2021-08-05T08:53:10.420Z</time>
      </trkpt>
      <trkpt lat="47.00901" lon="8.65309">
        <ele>494</ele>
        <time>2021-08-05T08:53:11.421Z</time>
      </trkpt>
      <trkpt lat="47.00901" lon="8.65307">
        <ele>494</ele>
        <time>2021-08-05T08:53:12.420Z</time>
      </trkpt>
      <trkpt lat="47.00901" lon="8.65305">
        <ele>494</ele>
        <time>2021-08-05T08:53:13.421Z</time>
      </trkpt>
      <trkpt lat="47.009" lon="8.65303">
        <ele>494</ele>
        <time>2021-08-05T08:53:14.421Z</time>
      </trkpt>
      <trkpt lat="47.009" lon="8.65302">
        <ele>494</ele>
        <time>2021-08-05T08:53:15.421Z</time>
      </trkpt>
      <trkpt lat="47.00899" lon="8.653">
        <ele>494</ele>
        <time>2021-08-05T08:53:16.421Z</time>
      </trkpt>
      <trkpt lat="47.00898" lon="8.65298">
        <ele>495</ele>
        <time>2021-08-05T08:53:17.421Z</time>
      </trkpt>
      <trkpt lat="47.00897" lon="8.65297">
        <ele>495</ele>
        <time>2021-08-05T08:53:18.421Z</time>
      </trkpt>
      <trkpt lat="47.00897" lon="8.65295">
        <ele>495</ele>
        <time>2021-08-05T08:53:19.421Z</time>
      </trkpt>
      <trkpt lat="47.00896" lon="8.65294">
        <ele>495</ele>
        <time>2021-08-05T08:53:20.420Z</time>
      </trkpt>
      <trkpt lat="47.00896" lon="8.65293">
        <ele>494</ele>
        <time>2021-08-05T08:53:21.421Z</time>
      </trkpt>
      <trkpt lat="47.00896" lon="8.65292">
        <ele>494</ele>
        <time>2021-08-05T08:53:22.421Z</time>
      </trkpt>
      <trkpt lat="47.00895" lon="8.6529">
        <ele>494</ele>
        <time>2021-08-05T08:53:23.420Z</time>
      </trkpt>
      <trkpt lat="47.00894" lon="8.65289">
        <ele>494</ele>
        <time>2021-08-05T08:53:24.421Z</time>
      </trkpt>
      <trkpt lat="47.00894" lon="8.65287">
        <ele>494</ele>
        <time>2021-08-05T08:53:25.421Z</time>
      </trkpt>
      <trkpt lat="47.00893" lon="8.65286">
        <ele>494</ele>
        <time>2021-08-05T08:53:26.420Z</time>
      </trkpt>
      <trkpt lat="47.00892" lon="8.65284">
        <ele>493</ele>
        <time>2021-08-05T08:53:27.421Z</time>
      </trkpt>
      <trkpt lat="47.00892" lon="8.65283">
        <ele>493</ele>
        <time>2021-08-05T08:53:28.421Z</time>
      </trkpt>
      <trkpt lat="47.00892" lon="8.65283">
        <ele>493</ele>
        <time>2021-08-05T08:53:29.421Z</time>
      </trkpt>
      <trkpt lat="47.00892" lon="8.65283">
        <ele>494</ele>
        <time>2021-08-05T08:53:30.421Z</time>
      </trkpt>
      <trkpt lat="47.00892" lon="8.65283">
        <ele>494</ele>
        <time>2021-08-05T08:53:31.420Z</time>
      </trkpt>
      <trkpt lat="47.00892" lon="8.65283">
        <ele>494</ele>
        <time>2021-08-05T08:53:32.420Z</time>
      </trkpt>
      <trkpt lat="47.00891" lon="8.65284">
        <ele>495</ele>
        <time>2021-08-05T08:53:33.421Z</time>
      </trkpt>
      <trkpt lat="47.00892" lon="8.65285">
        <ele>495</ele>
        <time>2021-08-05T08:53:34.421Z</time>
      </trkpt>
      <trkpt lat="47.00891" lon="8.65285">
        <ele>495</ele>
        <time>2021-08-05T08:53:35.421Z</time>
      </trkpt>
      <trkpt lat="47.0089" lon="8.65284">
        <ele>498</ele>
        <time>2021-08-05T08:53:36.422Z</time>
      </trkpt>
      <trkpt lat="47.0089" lon="8.65284">
        <ele>498</ele>
        <time>2021-08-05T08:53:37.422Z</time>
      </trkpt>
      <trkpt lat="47.0089" lon="8.65284">
        <ele>498</ele>
        <time>2021-08-05T08:53:38.422Z</time>
      </trkpt>
      <trkpt lat="47.0089" lon="8.65284">
        <ele>497</ele>
        <time>2021-08-05T08:53:39.422Z</time>
      </trkpt>
      <trkpt lat="47.0089" lon="8.65284">
        <ele>497</ele>
        <time>2021-08-05T08:53:40.421Z</time>
      </trkpt>
      <trkpt lat="47.0089" lon="8.65285">
        <ele>496</ele>
        <time>2021-08-05T08:53:41.422Z</time>
      </trkpt>
      <trkpt lat="47.00891" lon="8.65285">
        <ele>496</ele>
        <time>2021-08-05T08:53:42.421Z</time>
      </trkpt>
      <trkpt lat="47.00891" lon="8.65285">
        <ele>495</ele>
        <time>2021-08-05T08:53:43.421Z</time>
      </trkpt>
      <trkpt lat="47.00891" lon="8.65285">
        <ele>495</ele>
        <time>2021-08-05T08:53:44.421Z</time>
      </trkpt>
      <trkpt lat="47.00891" lon="8.65285">
        <ele>495</ele>
        <time>2021-08-05T08:53:45.421Z</time>
      </trkpt>
      <trkpt lat="47.00891" lon="8.65281">
        <ele>492</ele>
        <time>2021-08-05T08:53:46.421Z</time>
      </trkpt>
      <trkpt lat="47.00891" lon="8.6528">
        <ele>492</ele>
        <time>2021-08-05T08:53:47.421Z</time>
      </trkpt>
      <trkpt lat="47.0089" lon="8.65279">
        <ele>492</ele>
        <time>2021-08-05T08:53:48.421Z</time>
      </trkpt>
      <trkpt lat="47.00889" lon="8.65277">
        <ele>493</ele>
        <time>2021-08-05T08:53:49.422Z</time>
      </trkpt>
      <trkpt lat="47.00888" lon="8.65276">
        <ele>493</ele>
        <time>2021-08-05T08:53:50.421Z</time>
      </trkpt>
      <trkpt lat="47.00888" lon="8.65275">
        <ele>494</ele>
        <time>2021-08-05T08:53:51.421Z</time>
      </trkpt>
      <trkpt lat="47.00887" lon="8.65274">
        <ele>494</ele>
        <time>2021-08-05T08:53:52.421Z</time>
      </trkpt>
      <trkpt lat="47.00887" lon="8.65273">
        <ele>493</ele>
        <time>2021-08-05T08:53:53.421Z</time>
      </trkpt>
      <trkpt lat="47.00887" lon="8.65272">
        <ele>493</ele>
        <time>2021-08-05T08:53:54.421Z</time>
      </trkpt>
      <trkpt lat="47.00886" lon="8.65271">
        <ele>493</ele>
        <time>2021-08-05T08:53:55.421Z</time>
      </trkpt>
      <trkpt lat="47.00886" lon="8.6527">
        <ele>493</ele>
        <time>2021-08-05T08:53:56.421Z</time>
      </trkpt>
      <trkpt lat="47.00886" lon="8.65269">
        <ele>493</ele>
        <time>2021-08-05T08:53:57.422Z</time>
      </trkpt>
      <trkpt lat="47.00885" lon="8.65266">
        <ele>493</ele>
        <time>2021-08-05T08:53:58.421Z</time>
      </trkpt>
      <trkpt lat="47.00884" lon="8.65264">
        <ele>493</ele>
        <time>2021-08-05T08:53:59.421Z</time>
      </trkpt>
      <trkpt lat="47.00883" lon="8.65262">
        <ele>494</ele>
        <time>2021-08-05T08:54:00.421Z</time>
      </trkpt>
      <trkpt lat="47.00882" lon="8.65262">
        <ele>494</ele>
        <time>2021-08-05T08:54:01.421Z</time>
      </trkpt>
      <trkpt lat="47.00881" lon="8.65261">
        <ele>494</ele>
        <time>2021-08-05T08:54:02.422Z</time>
      </trkpt>
      <trkpt lat="47.00881" lon="8.6526">
        <ele>494</ele>
        <time>2021-08-05T08:54:03.421Z</time>
      </trkpt>
      <trkpt lat="47.00881" lon="8.65259">
        <ele>494</ele>
        <time>2021-08-05T08:54:04.422Z</time>
      </trkpt>
      <trkpt lat="47.00881" lon="8.65258">
        <ele>494</ele>
        <time>2021-08-05T08:54:05.421Z</time>
      </trkpt>
      <trkpt lat="47.0088" lon="8.65256">
        <ele>494</ele>
        <time>2021-08-05T08:54:06.421Z</time>
      </trkpt>
      <trkpt lat="47.00879" lon="8.65255">
        <ele>494</ele>
        <time>2021-08-05T08:54:07.422Z</time>
      </trkpt>
      <trkpt lat="47.00879" lon="8.65253">
        <ele>494</ele>
        <time>2021-08-05T08:54:08.421Z</time>
      </trkpt>
      <trkpt lat="47.00879" lon="8.65252">
        <ele>494</ele>
        <time>2021-08-05T08:54:09.421Z</time>
      </trkpt>
      <trkpt lat="47.00878" lon="8.6525">
        <ele>494</ele>
        <time>2021-08-05T08:54:10.421Z</time>
      </trkpt>
      <trkpt lat="47.00878" lon="8.65249">
        <ele>494</ele>
        <time>2021-08-05T08:54:11.422Z</time>
      </trkpt>
      <trkpt lat="47.00877" lon="8.65247">
        <ele>494</ele>
        <time>2021-08-05T08:54:12.421Z</time>
      </trkpt>
      <trkpt lat="47.00877" lon="8.65246">
        <ele>494</ele>
        <time>2021-08-05T08:54:13.422Z</time>
      </trkpt>
      <trkpt lat="47.00876" lon="8.65246">
        <ele>494</ele>
        <time>2021-08-05T08:54:14.421Z</time>
      </trkpt>
      <trkpt lat="47.00876" lon="8.65245">
        <ele>493</ele>
        <time>2021-08-05T08:54:15.421Z</time>
      </trkpt>
      <trkpt lat="47.00875" lon="8.65243">
        <ele>493</ele>
        <time>2021-08-05T08:54:16.421Z</time>
      </trkpt>
      <trkpt lat="47.00875" lon="8.65242">
        <ele>493</ele>
        <time>2021-08-05T08:54:17.421Z</time>
      </trkpt>
      <trkpt lat="47.00875" lon="8.65241">
        <ele>493</ele>
        <time>2021-08-05T08:54:18.421Z</time>
      </trkpt>
      <trkpt lat="47.00874" lon="8.65239">
        <ele>493</ele>
        <time>2021-08-05T08:54:19.421Z</time>
      </trkpt>
      <trkpt lat="47.00874" lon="8.65238">
        <ele>493</ele>
        <time>2021-08-05T08:54:20.421Z</time>
      </trkpt>
      <trkpt lat="47.00873" lon="8.65237">
        <ele>492</ele>
        <time>2021-08-05T08:54:21.421Z</time>
      </trkpt>
      <trkpt lat="47.00873" lon="8.65236">
        <ele>492</ele>
        <time>2021-08-05T08:54:22.421Z</time>
      </trkpt>
      <trkpt lat="47.00872" lon="8.65235">
        <ele>491</ele>
        <time>2021-08-05T08:54:23.422Z</time>
      </trkpt>
      <trkpt lat="47.00872" lon="8.65234">
        <ele>491</ele>
        <time>2021-08-05T08:54:24.421Z</time>
      </trkpt>
      <trkpt lat="47.00871" lon="8.65233">
        <ele>491</ele>
        <time>2021-08-05T08:54:25.421Z</time>
      </trkpt>
      <trkpt lat="47.00871" lon="8.65231">
        <ele>490</ele>
        <time>2021-08-05T08:54:26.421Z</time>
      </trkpt>
      <trkpt lat="47.0087" lon="8.6523">
        <ele>490</ele>
        <time>2021-08-05T08:54:27.421Z</time>
      </trkpt>
      <trkpt lat="47.00869" lon="8.65228">
        <ele>490</ele>
        <time>2021-08-05T08:54:28.421Z</time>
      </trkpt>
      <trkpt lat="47.00869" lon="8.65227">
        <ele>490</ele>
        <time>2021-08-05T08:54:29.421Z</time>
      </trkpt>
      <trkpt lat="47.00868" lon="8.65226">
        <ele>490</ele>
        <time>2021-08-05T08:54:30.421Z</time>
      </trkpt>
      <trkpt lat="47.00868" lon="8.65226">
        <ele>490</ele>
        <time>2021-08-05T08:54:31.421Z</time>
      </trkpt>
      <trkpt lat="47.00867" lon="8.65224">
        <ele>490</ele>
        <time>2021-08-05T08:54:32.422Z</time>
      </trkpt>
      <trkpt lat="47.00866" lon="8.65223">
        <ele>490</ele>
        <time>2021-08-05T08:54:33.422Z</time>
      </trkpt>
      <trkpt lat="47.00865" lon="8.65222">
        <ele>490</ele>
        <time>2021-08-05T08:54:34.421Z</time>
      </trkpt>
      <trkpt lat="47.00865" lon="8.65221">
        <ele>490</ele>
        <time>2021-08-05T08:54:35.421Z</time>
      </trkpt>
      <trkpt lat="47.00865" lon="8.6522">
        <ele>490</ele>
        <time>2021-08-05T08:54:36.421Z</time>
      </trkpt>
      <trkpt lat="47.00864" lon="8.65219">
        <ele>490</ele>
        <time>2021-08-05T08:54:37.421Z</time>
      </trkpt>
      <trkpt lat="47.00864" lon="8.65218">
        <ele>490</ele>
        <time>2021-08-05T08:54:38.421Z</time>
      </trkpt>
      <trkpt lat="47.00864" lon="8.65217">
        <ele>490</ele>
        <time>2021-08-05T08:54:39.422Z</time>
      </trkpt>
      <trkpt lat="47.00864" lon="8.65216">
        <ele>490</ele>
        <time>2021-08-05T08:54:40.421Z</time>
      </trkpt>
      <trkpt lat="47.00863" lon="8.65215">
        <ele>489</ele>
        <time>2021-08-05T08:54:41.421Z</time>
      </trkpt>
      <trkpt lat="47.00863" lon="8.65215">
        <ele>489</ele>
        <time>2021-08-05T08:54:42.421Z</time>
      </trkpt>
      <trkpt lat="47.00862" lon="8.65214">
        <ele>489</ele>
        <time>2021-08-05T08:54:43.422Z</time>
      </trkpt>
      <trkpt lat="47.00862" lon="8.65214">
        <ele>489</ele>
        <time>2021-08-05T08:54:44.421Z</time>
      </trkpt>
      <trkpt lat="47.00861" lon="8.65214">
        <ele>489</ele>
        <time>2021-08-05T08:54:45.421Z</time>
      </trkpt>
      <trkpt lat="47.00861" lon="8.65214">
        <ele>489</ele>
        <time>2021-08-05T08:54:46.421Z</time>
      </trkpt>
      <trkpt lat="47.0086" lon="8.65213">
        <ele>489</ele>
        <time>2021-08-05T08:54:47.421Z</time>
      </trkpt>
      <trkpt lat="47.00859" lon="8.65213">
        <ele>490</ele>
        <time>2021-08-05T08:54:48.421Z</time>
      </trkpt>
      <trkpt lat="47.00857" lon="8.65212">
        <ele>490</ele>
        <time>2021-08-05T08:54:49.421Z</time>
      </trkpt>
      <trkpt lat="47.00857" lon="8.65211">
        <ele>490</ele>
        <time>2021-08-05T08:54:50.421Z</time>
      </trkpt>
      <trkpt lat="47.00856" lon="8.6521">
        <ele>489</ele>
        <time>2021-08-05T08:54:51.421Z</time>
      </trkpt>
      <trkpt lat="47.00855" lon="8.6521">
        <ele>489</ele>
        <time>2021-08-05T08:54:52.421Z</time>
      </trkpt>
      <trkpt lat="47.00854" lon="8.65208">
        <ele>488</ele>
        <time>2021-08-05T08:54:53.421Z</time>
      </trkpt>
      <trkpt lat="47.00853" lon="8.65208">
        <ele>488</ele>
        <time>2021-08-05T08:54:54.421Z</time>
      </trkpt>
      <trkpt lat="47.00853" lon="8.65208">
        <ele>488</ele>
        <time>2021-08-05T08:54:55.421Z</time>
      </trkpt>
      <trkpt lat="47.00853" lon="8.65208">
        <ele>489</ele>
        <time>2021-08-05T08:54:56.421Z</time>
      </trkpt>
      <trkpt lat="47.00853" lon="8.65207">
        <ele>489</ele>
        <time>2021-08-05T08:54:57.422Z</time>
      </trkpt>
      <trkpt lat="47.00853" lon="8.65207">
        <ele>489</ele>
        <time>2021-08-05T08:54:58.422Z</time>
      </trkpt>
      <trkpt lat="47.00853" lon="8.65208">
        <ele>489</ele>
        <time>2021-08-05T08:54:59.421Z</time>
      </trkpt>
      <trkpt lat="47.00852" lon="8.65208">
        <ele>489</ele>
        <time>2021-08-05T08:55:00.421Z</time>
      </trkpt>
      <trkpt lat="47.00851" lon="8.65207">
        <ele>489</ele>
        <time>2021-08-05T08:55:01.421Z</time>
      </trkpt>
      <trkpt lat="47.0085" lon="8.65206">
        <ele>489</ele>
        <time>2021-08-05T08:55:02.421Z</time>
      </trkpt>
      <trkpt lat="47.00849" lon="8.65206">
        <ele>489</ele>
        <time>2021-08-05T08:55:03.422Z</time>
      </trkpt>
      <trkpt lat="47.00849" lon="8.65205">
        <ele>489</ele>
        <time>2021-08-05T08:55:04.421Z</time>
      </trkpt>
      <trkpt lat="47.00848" lon="8.65205">
        <ele>489</ele>
        <time>2021-08-05T08:55:05.421Z</time>
      </trkpt>
      <trkpt lat="47.00848" lon="8.65204">
        <ele>489</ele>
        <time>2021-08-05T08:55:06.421Z</time>
      </trkpt>
      <trkpt lat="47.00847" lon="8.65204">
        <ele>489</ele>
        <time>2021-08-05T08:55:07.422Z</time>
      </trkpt>
      <trkpt lat="47.00847" lon="8.65204">
        <ele>489</ele>
        <time>2021-08-05T08:55:08.421Z</time>
      </trkpt>
      <trkpt lat="47.00846" lon="8.65204">
        <ele>489</ele>
        <time>2021-08-05T08:55:09.421Z</time>
      </trkpt>
      <trkpt lat="47.00846" lon="8.65204">
        <ele>488</ele>
        <time>2021-08-05T08:55:10.421Z</time>
      </trkpt>
      <trkpt lat="47.00845" lon="8.65204">
        <ele>489</ele>
        <time>2021-08-05T08:55:11.421Z</time>
      </trkpt>
      <trkpt lat="47.00845" lon="8.65204">
        <ele>489</ele>
        <time>2021-08-05T08:55:12.421Z</time>
      </trkpt>
      <trkpt lat="47.00845" lon="8.65204">
        <ele>489</ele>
        <time>2021-08-05T08:55:13.421Z</time>
      </trkpt>
      <trkpt lat="47.00845" lon="8.65205">
        <ele>489</ele>
        <time>2021-08-05T08:55:14.421Z</time>
      </trkpt>
      <trkpt lat="47.00845" lon="8.65205">
        <ele>490</ele>
        <time>2021-08-05T08:55:15.421Z</time>
      </trkpt>
      <trkpt lat="47.00844" lon="8.65205">
        <ele>490</ele>
        <time>2021-08-05T08:55:16.422Z</time>
      </trkpt>
      <trkpt lat="47.00844" lon="8.65205">
        <ele>491</ele>
        <time>2021-08-05T08:55:17.422Z</time>
      </trkpt>
      <trkpt lat="47.00843" lon="8.65205">
        <ele>491</ele>
        <time>2021-08-05T08:55:18.421Z</time>
      </trkpt>
      <trkpt lat="47.00843" lon="8.65205">
        <ele>491</ele>
        <time>2021-08-05T08:55:19.421Z</time>
      </trkpt>
      <trkpt lat="47.00843" lon="8.65206">
        <ele>492</ele>
        <time>2021-08-05T08:55:20.421Z</time>
      </trkpt>
      <trkpt lat="47.00842" lon="8.65205">
        <ele>492</ele>
        <time>2021-08-05T08:55:21.421Z</time>
      </trkpt>
      <trkpt lat="47.00842" lon="8.65205">
        <ele>492</ele>
        <time>2021-08-05T08:55:22.421Z</time>
      </trkpt>
      <trkpt lat="47.00841" lon="8.65205">
        <ele>491</ele>
        <time>2021-08-05T08:55:23.422Z</time>
      </trkpt>
      <trkpt lat="47.00841" lon="8.65206">
        <ele>491</ele>
        <time>2021-08-05T08:55:24.421Z</time>
      </trkpt>
      <trkpt lat="47.0084" lon="8.65205">
        <ele>490</ele>
        <time>2021-08-05T08:55:25.422Z</time>
      </trkpt>
      <trkpt lat="47.0084" lon="8.65205">
        <ele>490</ele>
        <time>2021-08-05T08:55:26.421Z</time>
      </trkpt>
      <trkpt lat="47.0084" lon="8.65205">
        <ele>490</ele>
        <time>2021-08-05T08:55:27.422Z</time>
      </trkpt>
      <trkpt lat="47.00839" lon="8.65205">
        <ele>489</ele>
        <time>2021-08-05T08:55:28.422Z</time>
      </trkpt>
      <trkpt lat="47.00839" lon="8.65205">
        <ele>489</ele>
        <time>2021-08-05T08:55:29.421Z</time>
      </trkpt>
      <trkpt lat="47.00839" lon="8.65206">
        <ele>489</ele>
        <time>2021-08-05T08:55:30.421Z</time>
      </trkpt>
      <trkpt lat="47.00838" lon="8.65206">
        <ele>489</ele>
        <time>2021-08-05T08:55:31.421Z</time>
      </trkpt>
      <trkpt lat="47.00838" lon="8.65206">
        <ele>488</ele>
        <time>2021-08-05T08:55:32.422Z</time>
      </trkpt>
      <trkpt lat="47.00837" lon="8.65206">
        <ele>488</ele>
        <time>2021-08-05T08:55:33.421Z</time>
      </trkpt>
      <trkpt lat="47.00836" lon="8.65206">
        <ele>488</ele>
        <time>2021-08-05T08:55:34.421Z</time>
      </trkpt>
      <trkpt lat="47.00836" lon="8.65206">
        <ele>489</ele>
        <time>2021-08-05T08:55:35.421Z</time>
      </trkpt>
      <trkpt lat="47.00835" lon="8.65206">
        <ele>489</ele>
        <time>2021-08-05T08:55:36.421Z</time>
      </trkpt>
      <trkpt lat="47.00835" lon="8.65206">
        <ele>489</ele>
        <time>2021-08-05T08:55:37.422Z</time>
      </trkpt>
      <trkpt lat="47.00835" lon="8.65205">
        <ele>489</ele>
        <time>2021-08-05T08:55:38.421Z</time>
      </trkpt>
      <trkpt lat="47.00835" lon="8.65204">
        <ele>489</ele>
        <time>2021-08-05T08:55:39.421Z</time>
      </trkpt>
      <trkpt lat="47.00835" lon="8.65203">
        <ele>489</ele>
        <time>2021-08-05T08:55:40.421Z</time>
      </trkpt>
      <trkpt lat="47.00834" lon="8.65201">
        <ele>489</ele>
        <time>2021-08-05T08:55:41.422Z</time>
      </trkpt>
      <trkpt lat="47.00834" lon="8.652">
        <ele>489</ele>
        <time>2021-08-05T08:55:42.421Z</time>
      </trkpt>
      <trkpt lat="47.00833" lon="8.65199">
        <ele>488</ele>
        <time>2021-08-05T08:55:43.421Z</time>
      </trkpt>
      <trkpt lat="47.00832" lon="8.652">
        <ele>487</ele>
        <time>2021-08-05T08:55:44.421Z</time>
      </trkpt>
      <trkpt lat="47.00831" lon="8.65199">
        <ele>487</ele>
        <time>2021-08-05T08:55:45.422Z</time>
      </trkpt>
      <trkpt lat="47.0083" lon="8.65198">
        <ele>486</ele>
        <time>2021-08-05T08:55:46.421Z</time>
      </trkpt>
      <trkpt lat="47.00829" lon="8.65198">
        <ele>486</ele>
        <time>2021-08-05T08:55:47.421Z</time>
      </trkpt>
      <trkpt lat="47.00828" lon="8.65197">
        <ele>486</ele>
        <time>2021-08-05T08:55:48.421Z</time>
      </trkpt>
      <trkpt lat="47.00827" lon="8.65197">
        <ele>485</ele>
        <time>2021-08-05T08:55:49.421Z</time>
      </trkpt>
      <trkpt lat="47.00827" lon="8.65197">
        <ele>485</ele>
        <time>2021-08-05T08:55:50.421Z</time>
      </trkpt>
      <trkpt lat="47.00826" lon="8.65197">
        <ele>485</ele>
        <time>2021-08-05T08:55:51.421Z</time>
      </trkpt>
      <trkpt lat="47.00826" lon="8.65197">
        <ele>485</ele>
        <time>2021-08-05T08:55:52.421Z</time>
      </trkpt>
      <trkpt lat="47.00826" lon="8.65196">
        <ele>485</ele>
        <time>2021-08-05T08:55:53.421Z</time>
      </trkpt>
      <trkpt lat="47.00825" lon="8.65195">
        <ele>485</ele>
        <time>2021-08-05T08:55:54.421Z</time>
      </trkpt>
      <trkpt lat="47.00825" lon="8.65194">
        <ele>485</ele>
        <time>2021-08-05T08:55:55.421Z</time>
      </trkpt>
      <trkpt lat="47.00826" lon="8.65193">
        <ele>485</ele>
        <time>2021-08-05T08:55:56.421Z</time>
      </trkpt>
      <trkpt lat="47.00827" lon="8.65191">
        <ele>485</ele>
        <time>2021-08-05T08:55:57.421Z</time>
      </trkpt>
      <trkpt lat="47.00828" lon="8.65191">
        <ele>486</ele>
        <time>2021-08-05T08:55:58.422Z</time>
      </trkpt>
      <trkpt lat="47.00828" lon="8.6519">
        <ele>486</ele>
        <time>2021-08-05T08:55:59.421Z</time>
      </trkpt>
      <trkpt lat="47.00829" lon="8.65189">
        <ele>486</ele>
        <time>2021-08-05T08:56:00.421Z</time>
      </trkpt>
      <trkpt lat="47.0083" lon="8.65188">
        <ele>486</ele>
        <time>2021-08-05T08:56:01.421Z</time>
      </trkpt>
      <trkpt lat="47.00832" lon="8.65187">
        <ele>486</ele>
        <time>2021-08-05T08:56:02.421Z</time>
      </trkpt>
      <trkpt lat="47.00832" lon="8.65186">
        <ele>486</ele>
        <time>2021-08-05T08:56:03.421Z</time>
      </trkpt>
      <trkpt lat="47.00833" lon="8.65185">
        <ele>485</ele>
        <time>2021-08-05T08:56:04.421Z</time>
      </trkpt>
      <trkpt lat="47.00834" lon="8.65184">
        <ele>485</ele>
        <time>2021-08-05T08:56:05.421Z</time>
      </trkpt>
      <trkpt lat="47.00835" lon="8.65183">
        <ele>485</ele>
        <time>2021-08-05T08:56:06.421Z</time>
      </trkpt>
      <trkpt lat="47.00836" lon="8.65181">
        <ele>485</ele>
        <time>2021-08-05T08:56:07.421Z</time>
      </trkpt>
      <trkpt lat="47.00836" lon="8.6518">
        <ele>484</ele>
        <time>2021-08-05T08:56:08.421Z</time>
      </trkpt>
      <trkpt lat="47.00837" lon="8.65179">
        <ele>484</ele>
        <time>2021-08-05T08:56:09.422Z</time>
      </trkpt>
      <trkpt lat="47.00838" lon="8.65179">
        <ele>484</ele>
        <time>2021-08-05T08:56:10.421Z</time>
      </trkpt>
      <trkpt lat="47.00838" lon="8.65178">
        <ele>483</ele>
        <time>2021-08-05T08:56:11.421Z</time>
      </trkpt>
      <trkpt lat="47.00839" lon="8.65177">
        <ele>482</ele>
        <time>2021-08-05T08:56:12.421Z</time>
      </trkpt>
      <trkpt lat="47.0084" lon="8.65177">
        <ele>482</ele>
        <time>2021-08-05T08:56:13.421Z</time>
      </trkpt>
      <trkpt lat="47.00841" lon="8.65175">
        <ele>481</ele>
        <time>2021-08-05T08:56:14.421Z</time>
      </trkpt>
      <trkpt lat="47.00841" lon="8.65174">
        <ele>481</ele>
        <time>2021-08-05T08:56:15.421Z</time>
      </trkpt>
      <trkpt lat="47.00842" lon="8.65172">
        <ele>481</ele>
        <time>2021-08-05T08:56:16.422Z</time>
      </trkpt>
      <trkpt lat="47.00843" lon="8.6517">
        <ele>481</ele>
        <time>2021-08-05T08:56:17.421Z</time>
      </trkpt>
      <trkpt lat="47.00844" lon="8.65169">
        <ele>481</ele>
        <time>2021-08-05T08:56:18.422Z</time>
      </trkpt>
      <trkpt lat="47.00844" lon="8.65168">
        <ele>482</ele>
        <time>2021-08-05T08:56:19.421Z</time>
      </trkpt>
      <trkpt lat="47.00845" lon="8.65168">
        <ele>482</ele>
        <time>2021-08-05T08:56:20.421Z</time>
      </trkpt>
      <trkpt lat="47.00846" lon="8.65167">
        <ele>482</ele>
        <time>2021-08-05T08:56:21.422Z</time>
      </trkpt>
      <trkpt lat="47.00847" lon="8.65166">
        <ele>483</ele>
        <time>2021-08-05T08:56:22.421Z</time>
      </trkpt>
      <trkpt lat="47.00848" lon="8.65165">
        <ele>483</ele>
        <time>2021-08-05T08:56:23.421Z</time>
      </trkpt>
      <trkpt lat="47.00849" lon="8.65164">
        <ele>483</ele>
        <time>2021-08-05T08:56:24.421Z</time>
      </trkpt>
      <trkpt lat="47.0085" lon="8.65164">
        <ele>484</ele>
        <time>2021-08-05T08:56:25.421Z</time>
      </trkpt>
      <trkpt lat="47.00851" lon="8.65164">
        <ele>484</ele>
        <time>2021-08-05T08:56:26.421Z</time>
      </trkpt>
      <trkpt lat="47.00851" lon="8.65164">
        <ele>484</ele>
        <time>2021-08-05T08:56:27.421Z</time>
      </trkpt>
      <trkpt lat="47.00852" lon="8.65163">
        <ele>484</ele>
        <time>2021-08-05T08:56:28.421Z</time>
      </trkpt>
      <trkpt lat="47.00853" lon="8.65163">
        <ele>484</ele>
        <time>2021-08-05T08:56:29.421Z</time>
      </trkpt>
      <trkpt lat="47.00854" lon="8.65163">
        <ele>484</ele>
        <time>2021-08-05T08:56:30.421Z</time>
      </trkpt>
      <trkpt lat="47.00855" lon="8.65162">
        <ele>484</ele>
        <time>2021-08-05T08:56:31.421Z</time>
      </trkpt>
      <trkpt lat="47.00856" lon="8.65161">
        <ele>484</ele>
        <time>2021-08-05T08:56:32.421Z</time>
      </trkpt>
      <trkpt lat="47.00857" lon="8.6516">
        <ele>484</ele>
        <time>2021-08-05T08:56:33.421Z</time>
      </trkpt>
      <trkpt lat="47.00857" lon="8.65159">
        <ele>484</ele>
        <time>2021-08-05T08:56:34.421Z</time>
      </trkpt>
      <trkpt lat="47.00858" lon="8.65159">
        <ele>484</ele>
        <time>2021-08-05T08:56:35.421Z</time>
      </trkpt>
      <trkpt lat="47.00859" lon="8.65158">
        <ele>484</ele>
        <time>2021-08-05T08:56:36.421Z</time>
      </trkpt>
      <trkpt lat="47.00859" lon="8.65157">
        <ele>484</ele>
        <time>2021-08-05T08:56:37.421Z</time>
      </trkpt>
      <trkpt lat="47.0086" lon="8.65156">
        <ele>483</ele>
        <time>2021-08-05T08:56:38.421Z</time>
      </trkpt>
      <trkpt lat="47.00861" lon="8.65156">
        <ele>483</ele>
        <time>2021-08-05T08:56:39.421Z</time>
      </trkpt>
      <trkpt lat="47.00862" lon="8.65155">
        <ele>483</ele>
        <time>2021-08-05T08:56:40.421Z</time>
      </trkpt>
      <trkpt lat="47.00863" lon="8.65154">
        <ele>484</ele>
        <time>2021-08-05T08:56:41.422Z</time>
      </trkpt>
      <trkpt lat="47.00864" lon="8.65154">
        <ele>484</ele>
        <time>2021-08-05T08:56:42.421Z</time>
      </trkpt>
      <trkpt lat="47.00864" lon="8.65153">
        <ele>484</ele>
        <time>2021-08-05T08:56:43.421Z</time>
      </trkpt>
      <trkpt lat="47.00865" lon="8.65153">
        <ele>485</ele>
        <time>2021-08-05T08:56:44.421Z</time>
      </trkpt>
      <trkpt lat="47.00866" lon="8.65153">
        <ele>485</ele>
        <time>2021-08-05T08:56:45.421Z</time>
      </trkpt>
      <trkpt lat="47.00866" lon="8.65152">
        <ele>486</ele>
        <time>2021-08-05T08:56:46.421Z</time>
      </trkpt>
      <trkpt lat="47.00867" lon="8.65151">
        <ele>486</ele>
        <time>2021-08-05T08:56:47.421Z</time>
      </trkpt>
      <trkpt lat="47.00867" lon="8.6515">
        <ele>486</ele>
        <time>2021-08-05T08:56:48.421Z</time>
      </trkpt>
      <trkpt lat="47.00868" lon="8.65149">
        <ele>486</ele>
        <time>2021-08-05T08:56:49.421Z</time>
      </trkpt>
      <trkpt lat="47.00868" lon="8.65148">
        <ele>486</ele>
        <time>2021-08-05T08:56:50.421Z</time>
      </trkpt>
      <trkpt lat="47.00869" lon="8.65147">
        <ele>486</ele>
        <time>2021-08-05T08:56:51.422Z</time>
      </trkpt>
      <trkpt lat="47.00869" lon="8.65146">
        <ele>485</ele>
        <time>2021-08-05T08:56:52.422Z</time>
      </trkpt>
      <trkpt lat="47.0087" lon="8.65145">
        <ele>484</ele>
        <time>2021-08-05T08:56:53.421Z</time>
      </trkpt>
      <trkpt lat="47.00871" lon="8.65144">
        <ele>484</ele>
        <time>2021-08-05T08:56:54.421Z</time>
      </trkpt>
      <trkpt lat="47.00872" lon="8.65143">
        <ele>483</ele>
        <time>2021-08-05T08:56:55.421Z</time>
      </trkpt>
      <trkpt lat="47.00873" lon="8.65142">
        <ele>482</ele>
        <time>2021-08-05T08:56:56.422Z</time>
      </trkpt>
      <trkpt lat="47.00874" lon="8.65142">
        <ele>482</ele>
        <time>2021-08-05T08:56:57.422Z</time>
      </trkpt>
      <trkpt lat="47.00874" lon="8.65141">
        <ele>481</ele>
        <time>2021-08-05T08:56:58.421Z</time>
      </trkpt>
      <trkpt lat="47.00875" lon="8.65139">
        <ele>481</ele>
        <time>2021-08-05T08:56:59.421Z</time>
      </trkpt>
      <trkpt lat="47.00876" lon="8.65138">
        <ele>481</ele>
        <time>2021-08-05T08:57:00.421Z</time>
      </trkpt>
      <trkpt lat="47.00876" lon="8.65137">
        <ele>482</ele>
        <time>2021-08-05T08:57:01.421Z</time>
      </trkpt>
      <trkpt lat="47.00877" lon="8.65136">
        <ele>482</ele>
        <time>2021-08-05T08:57:02.421Z</time>
      </trkpt>
      <trkpt lat="47.00878" lon="8.65135">
        <ele>483</ele>
        <time>2021-08-05T08:57:03.421Z</time>
      </trkpt>
      <trkpt lat="47.00878" lon="8.65133">
        <ele>483</ele>
        <time>2021-08-05T08:57:04.421Z</time>
      </trkpt>
      <trkpt lat="47.00879" lon="8.65132">
        <ele>483</ele>
        <time>2021-08-05T08:57:05.421Z</time>
      </trkpt>
      <trkpt lat="47.0088" lon="8.65131">
        <ele>484</ele>
        <time>2021-08-05T08:57:06.422Z</time>
      </trkpt>
      <trkpt lat="47.0088" lon="8.65129">
        <ele>484</ele>
        <time>2021-08-05T08:57:07.421Z</time>
      </trkpt>
      <trkpt lat="47.00881" lon="8.65128">
        <ele>484</ele>
        <time>2021-08-05T08:57:08.421Z</time>
      </trkpt>
      <trkpt lat="47.00883" lon="8.65127">
        <ele>485</ele>
        <time>2021-08-05T08:57:09.421Z</time>
      </trkpt>
      <trkpt lat="47.00883" lon="8.65125">
        <ele>485</ele>
        <time>2021-08-05T08:57:10.422Z</time>
      </trkpt>
      <trkpt lat="47.00883" lon="8.65124">
        <ele>486</ele>
        <time>2021-08-05T08:57:11.421Z</time>
      </trkpt>
      <trkpt lat="47.00883" lon="8.65123">
        <ele>486</ele>
        <time>2021-08-05T08:57:12.421Z</time>
      </trkpt>
      <trkpt lat="47.00884" lon="8.65121">
        <ele>487</ele>
        <time>2021-08-05T08:57:13.421Z</time>
      </trkpt>
      <trkpt lat="47.00884" lon="8.65119">
        <ele>488</ele>
        <time>2021-08-05T08:57:14.421Z</time>
      </trkpt>
      <trkpt lat="47.00884" lon="8.65117">
        <ele>488</ele>
        <time>2021-08-05T08:57:15.421Z</time>
      </trkpt>
      <trkpt lat="47.00885" lon="8.65115">
        <ele>489</ele>
        <time>2021-08-05T08:57:16.421Z</time>
      </trkpt>
      <trkpt lat="47.00885" lon="8.65114">
        <ele>489</ele>
        <time>2021-08-05T08:57:17.421Z</time>
      </trkpt>
      <trkpt lat="47.00885" lon="8.65112">
        <ele>490</ele>
        <time>2021-08-05T08:57:18.421Z</time>
      </trkpt>
      <trkpt lat="47.00885" lon="8.65111">
        <ele>491</ele>
        <time>2021-08-05T08:57:19.421Z</time>
      </trkpt>
      <trkpt lat="47.00886" lon="8.6511">
        <ele>491</ele>
        <time>2021-08-05T08:57:20.421Z</time>
      </trkpt>
      <trkpt lat="47.00887" lon="8.65109">
        <ele>491</ele>
        <time>2021-08-05T08:57:21.421Z</time>
      </trkpt>
      <trkpt lat="47.00886" lon="8.6511">
        <ele>491</ele>
        <time>2021-08-05T08:57:22.421Z</time>
      </trkpt>
      <trkpt lat="47.00886" lon="8.65109">
        <ele>491</ele>
        <time>2021-08-05T08:57:23.422Z</time>
      </trkpt>
      <trkpt lat="47.00885" lon="8.65109">
        <ele>490</ele>
        <time>2021-08-05T08:57:24.421Z</time>
      </trkpt>
      <trkpt lat="47.00884" lon="8.65108">
        <ele>490</ele>
        <time>2021-08-05T08:57:25.421Z</time>
      </trkpt>
      <trkpt lat="47.00883" lon="8.65108">
        <ele>490</ele>
        <time>2021-08-05T08:57:26.421Z</time>
      </trkpt>
      <trkpt lat="47.00883" lon="8.65108">
        <ele>490</ele>
        <time>2021-08-05T08:57:27.421Z</time>
      </trkpt>
      <trkpt lat="47.00883" lon="8.65104">
        <ele>490</ele>
        <time>2021-08-05T08:57:28.422Z</time>
      </trkpt>
      <trkpt lat="47.00883" lon="8.65103">
        <ele>490</ele>
        <time>2021-08-05T08:57:29.421Z</time>
      </trkpt>
      <trkpt lat="47.00884" lon="8.65103">
        <ele>489</ele>
        <time>2021-08-05T08:57:30.421Z</time>
      </trkpt>
      <trkpt lat="47.00885" lon="8.65102">
        <ele>489</ele>
        <time>2021-08-05T08:57:31.422Z</time>
      </trkpt>
      <trkpt lat="47.00885" lon="8.651">
        <ele>489</ele>
        <time>2021-08-05T08:57:32.422Z</time>
      </trkpt>
      <trkpt lat="47.00886" lon="8.65099">
        <ele>489</ele>
        <time>2021-08-05T08:57:33.422Z</time>
      </trkpt>
      <trkpt lat="47.00887" lon="8.65097">
        <ele>489</ele>
        <time>2021-08-05T08:57:34.421Z</time>
      </trkpt>
      <trkpt lat="47.00887" lon="8.65096">
        <ele>489</ele>
        <time>2021-08-05T08:57:35.422Z</time>
      </trkpt>
      <trkpt lat="47.00887" lon="8.65094">
        <ele>489</ele>
        <time>2021-08-05T08:57:36.421Z</time>
      </trkpt>
      <trkpt lat="47.00886" lon="8.65093">
        <ele>489</ele>
        <time>2021-08-05T08:57:37.421Z</time>
      </trkpt>
      <trkpt lat="47.00886" lon="8.6509">
        <ele>489</ele>
        <time>2021-08-05T08:57:38.422Z</time>
      </trkpt>
      <trkpt lat="47.00885" lon="8.65089">
        <ele>489</ele>
        <time>2021-08-05T08:57:39.422Z</time>
      </trkpt>
      <trkpt lat="47.00885" lon="8.65086">
        <ele>489</ele>
        <time>2021-08-05T08:57:40.421Z</time>
      </trkpt>
      <trkpt lat="47.00885" lon="8.65085">
        <ele>489</ele>
        <time>2021-08-05T08:57:41.421Z</time>
      </trkpt>
      <trkpt lat="47.00885" lon="8.65083">
        <ele>489</ele>
        <time>2021-08-05T08:57:42.422Z</time>
      </trkpt>
      <trkpt lat="47.00885" lon="8.65082">
        <ele>490</ele>
        <time>2021-08-05T08:57:43.422Z</time>
      </trkpt>
      <trkpt lat="47.00885" lon="8.6508">
        <ele>490</ele>
        <time>2021-08-05T08:57:44.422Z</time>
      </trkpt>
      <trkpt lat="47.00885" lon="8.65079">
        <ele>490</ele>
        <time>2021-08-05T08:57:45.422Z</time>
      </trkpt>
      <trkpt lat="47.00885" lon="8.65077">
        <ele>491</ele>
        <time>2021-08-05T08:57:46.421Z</time>
      </trkpt>
      <trkpt lat="47.00886" lon="8.65076">
        <ele>491</ele>
        <time>2021-08-05T08:57:47.422Z</time>
      </trkpt>
      <trkpt lat="47.00886" lon="8.65074">
        <ele>492</ele>
        <time>2021-08-05T08:57:48.422Z</time>
      </trkpt>
      <trkpt lat="47.00886" lon="8.65073">
        <ele>492</ele>
        <time>2021-08-05T08:57:49.422Z</time>
      </trkpt>
      <trkpt lat="47.00887" lon="8.65071">
        <ele>492</ele>
        <time>2021-08-05T08:57:50.422Z</time>
      </trkpt>
      <trkpt lat="47.00887" lon="8.6507">
        <ele>492</ele>
        <time>2021-08-05T08:57:51.422Z</time>
      </trkpt>
      <trkpt lat="47.00887" lon="8.65069">
        <ele>493</ele>
        <time>2021-08-05T08:57:52.421Z</time>
      </trkpt>
      <trkpt lat="47.00887" lon="8.65067">
        <ele>493</ele>
        <time>2021-08-05T08:57:53.422Z</time>
      </trkpt>
      <trkpt lat="47.00886" lon="8.65064">
        <ele>493</ele>
        <time>2021-08-05T08:57:54.422Z</time>
      </trkpt>
      <trkpt lat="47.00886" lon="8.65062">
        <ele>493</ele>
        <time>2021-08-05T08:57:55.422Z</time>
      </trkpt>
      <trkpt lat="47.00886" lon="8.6506">
        <ele>493</ele>
        <time>2021-08-05T08:57:56.421Z</time>
      </trkpt>
      <trkpt lat="47.00885" lon="8.65059">
        <ele>493</ele>
        <time>2021-08-05T08:57:57.422Z</time>
      </trkpt>
      <trkpt lat="47.00885" lon="8.65057">
        <ele>493</ele>
        <time>2021-08-05T08:57:58.421Z</time>
      </trkpt>
      <trkpt lat="47.00884" lon="8.65057">
        <ele>493</ele>
        <time>2021-08-05T08:57:59.422Z</time>
      </trkpt>
      <trkpt lat="47.00883" lon="8.65057">
        <ele>493</ele>
        <time>2021-08-05T08:58:00.422Z</time>
      </trkpt>
      <trkpt lat="47.00883" lon="8.65057">
        <ele>493</ele>
        <time>2021-08-05T08:58:01.421Z</time>
      </trkpt>
      <trkpt lat="47.00883" lon="8.65058">
        <ele>492</ele>
        <time>2021-08-05T08:58:02.421Z</time>
      </trkpt>
      <trkpt lat="47.00883" lon="8.65058">
        <ele>492</ele>
        <time>2021-08-05T08:58:03.422Z</time>
      </trkpt>
      <trkpt lat="47.00885" lon="8.65058">
        <ele>492</ele>
        <time>2021-08-05T08:58:04.421Z</time>
      </trkpt>
      <trkpt lat="47.00886" lon="8.65057">
        <ele>491</ele>
        <time>2021-08-05T08:58:05.421Z</time>
      </trkpt>
      <trkpt lat="47.00887" lon="8.65056">
        <ele>491</ele>
        <time>2021-08-05T08:58:06.421Z</time>
      </trkpt>
      <trkpt lat="47.00888" lon="8.65055">
        <ele>491</ele>
        <time>2021-08-05T08:58:07.422Z</time>
      </trkpt>
      <trkpt lat="47.00889" lon="8.65054">
        <ele>491</ele>
        <time>2021-08-05T08:58:08.422Z</time>
      </trkpt>
      <trkpt lat="47.00889" lon="8.65054">
        <ele>490</ele>
        <time>2021-08-05T08:58:09.422Z</time>
      </trkpt>
      <trkpt lat="47.0089" lon="8.65052">
        <ele>490</ele>
        <time>2021-08-05T08:58:10.421Z</time>
      </trkpt>
      <trkpt lat="47.0089" lon="8.65051">
        <ele>489</ele>
        <time>2021-08-05T08:58:11.422Z</time>
      </trkpt>
      <trkpt lat="47.0089" lon="8.6505">
        <ele>489</ele>
        <time>2021-08-05T08:58:12.422Z</time>
      </trkpt>
      <trkpt lat="47.00891" lon="8.65049">
        <ele>489</ele>
        <time>2021-08-05T08:58:13.422Z</time>
      </trkpt>
      <trkpt lat="47.00892" lon="8.65048">
        <ele>488</ele>
        <time>2021-08-05T08:58:14.422Z</time>
      </trkpt>
      <trkpt lat="47.00892" lon="8.65047">
        <ele>489</ele>
        <time>2021-08-05T08:58:15.422Z</time>
      </trkpt>
      <trkpt lat="47.00893" lon="8.65047">
        <ele>489</ele>
        <time>2021-08-05T08:58:16.421Z</time>
      </trkpt>
      <trkpt lat="47.00893" lon="8.65046">
        <ele>489</ele>
        <time>2021-08-05T08:58:17.422Z</time>
      </trkpt>
      <trkpt lat="47.00893" lon="8.65044">
        <ele>490</ele>
        <time>2021-08-05T08:58:18.422Z</time>
      </trkpt>
      <trkpt lat="47.00893" lon="8.65043">
        <ele>490</ele>
        <time>2021-08-05T08:58:19.421Z</time>
      </trkpt>
      <trkpt lat="47.00893" lon="8.6504">
        <ele>490</ele>
        <time>2021-08-05T08:58:20.421Z</time>
      </trkpt>
      <trkpt lat="47.00893" lon="8.65039">
        <ele>491</ele>
        <time>2021-08-05T08:58:21.422Z</time>
      </trkpt>
      <trkpt lat="47.00893" lon="8.65037">
        <ele>491</ele>
        <time>2021-08-05T08:58:22.421Z</time>
      </trkpt>
      <trkpt lat="47.00893" lon="8.65036">
        <ele>491</ele>
        <time>2021-08-05T08:58:23.422Z</time>
      </trkpt>
      <trkpt lat="47.00894" lon="8.65035">
        <ele>491</ele>
        <time>2021-08-05T08:58:24.422Z</time>
      </trkpt>
      <trkpt lat="47.00894" lon="8.65034">
        <ele>491</ele>
        <time>2021-08-05T08:58:25.422Z</time>
      </trkpt>
      <trkpt lat="47.00893" lon="8.65032">
        <ele>490</ele>
        <time>2021-08-05T08:58:26.422Z</time>
      </trkpt>
      <trkpt lat="47.00893" lon="8.65031">
        <ele>490</ele>
        <time>2021-08-05T08:58:27.421Z</time>
      </trkpt>
      <trkpt lat="47.00892" lon="8.6503">
        <ele>490</ele>
        <time>2021-08-05T08:58:28.421Z</time>
      </trkpt>
      <trkpt lat="47.00892" lon="8.65029">
        <ele>490</ele>
        <time>2021-08-05T08:58:29.421Z</time>
      </trkpt>
      <trkpt lat="47.00891" lon="8.65027">
        <ele>490</ele>
        <time>2021-08-05T08:58:30.421Z</time>
      </trkpt>
      <trkpt lat="47.00891" lon="8.65027">
        <ele>490</ele>
        <time>2021-08-05T08:58:31.421Z</time>
      </trkpt>
      <trkpt lat="47.0089" lon="8.65025">
        <ele>490</ele>
        <time>2021-08-05T08:58:32.421Z</time>
      </trkpt>
      <trkpt lat="47.00889" lon="8.65024">
        <ele>490</ele>
        <time>2021-08-05T08:58:33.421Z</time>
      </trkpt>
      <trkpt lat="47.00888" lon="8.65022">
        <ele>490</ele>
        <time>2021-08-05T08:58:34.422Z</time>
      </trkpt>
      <trkpt lat="47.00887" lon="8.65021">
        <ele>489</ele>
        <time>2021-08-05T08:58:35.422Z</time>
      </trkpt>
      <trkpt lat="47.00886" lon="8.6502">
        <ele>489</ele>
        <time>2021-08-05T08:58:36.422Z</time>
      </trkpt>
      <trkpt lat="47.00885" lon="8.6502">
        <ele>488</ele>
        <time>2021-08-05T08:58:37.422Z</time>
      </trkpt>
      <trkpt lat="47.00883" lon="8.65019">
        <ele>488</ele>
        <time>2021-08-05T08:58:38.422Z</time>
      </trkpt>
      <trkpt lat="47.00883" lon="8.65018">
        <ele>487</ele>
        <time>2021-08-05T08:58:39.422Z</time>
      </trkpt>
      <trkpt lat="47.00882" lon="8.65016">
        <ele>487</ele>
        <time>2021-08-05T08:58:40.422Z</time>
      </trkpt>
      <trkpt lat="47.00881" lon="8.65016">
        <ele>486</ele>
        <time>2021-08-05T08:58:41.422Z</time>
      </trkpt>
      <trkpt lat="47.00881" lon="8.65015">
        <ele>486</ele>
        <time>2021-08-05T08:58:42.421Z</time>
      </trkpt>
      <trkpt lat="47.00881" lon="8.65014">
        <ele>485</ele>
        <time>2021-08-05T08:58:43.421Z</time>
      </trkpt>
      <trkpt lat="47.00881" lon="8.65013">
        <ele>486</ele>
        <time>2021-08-05T08:58:44.422Z</time>
      </trkpt>
      <trkpt lat="47.0088" lon="8.65012">
        <ele>486</ele>
        <time>2021-08-05T08:58:45.421Z</time>
      </trkpt>
      <trkpt lat="47.0088" lon="8.65011">
        <ele>486</ele>
        <time>2021-08-05T08:58:46.421Z</time>
      </trkpt>
      <trkpt lat="47.00879" lon="8.6501">
        <ele>486</ele>
        <time>2021-08-05T08:58:47.422Z</time>
      </trkpt>
      <trkpt lat="47.00878" lon="8.65009">
        <ele>486</ele>
        <time>2021-08-05T08:58:48.421Z</time>
      </trkpt>
      <trkpt lat="47.00878" lon="8.65008">
        <ele>485</ele>
        <time>2021-08-05T08:58:49.422Z</time>
      </trkpt>
      <trkpt lat="47.00877" lon="8.65007">
        <ele>486</ele>
        <time>2021-08-05T08:58:50.422Z</time>
      </trkpt>
      <trkpt lat="47.00876" lon="8.65006">
        <ele>486</ele>
        <time>2021-08-05T08:58:51.422Z</time>
      </trkpt>
      <trkpt lat="47.00876" lon="8.65005">
        <ele>487</ele>
        <time>2021-08-05T08:58:52.422Z</time>
      </trkpt>
      <trkpt lat="47.00875" lon="8.65004">
        <ele>487</ele>
        <time>2021-08-05T08:58:53.422Z</time>
      </trkpt>
      <trkpt lat="47.00873" lon="8.65003">
        <ele>487</ele>
        <time>2021-08-05T08:58:54.421Z</time>
      </trkpt>
      <trkpt lat="47.00872" lon="8.65002">
        <ele>487</ele>
        <time>2021-08-05T08:58:55.422Z</time>
      </trkpt>
      <trkpt lat="47.00872" lon="8.65001">
        <ele>487</ele>
        <time>2021-08-05T08:58:56.421Z</time>
      </trkpt>
      <trkpt lat="47.00871" lon="8.64999">
        <ele>487</ele>
        <time>2021-08-05T08:58:57.421Z</time>
      </trkpt>
      <trkpt lat="47.00869" lon="8.64997">
        <ele>487</ele>
        <time>2021-08-05T08:58:58.421Z</time>
      </trkpt>
      <trkpt lat="47.00868" lon="8.64996">
        <ele>488</ele>
        <time>2021-08-05T08:58:59.421Z</time>
      </trkpt>
      <trkpt lat="47.00867" lon="8.64993">
        <ele>488</ele>
        <time>2021-08-05T08:59:00.422Z</time>
      </trkpt>
      <trkpt lat="47.00866" lon="8.64992">
        <ele>488</ele>
        <time>2021-08-05T08:59:01.422Z</time>
      </trkpt>
      <trkpt lat="47.00865" lon="8.64991">
        <ele>488</ele>
        <time>2021-08-05T08:59:02.422Z</time>
      </trkpt>
      <trkpt lat="47.00864" lon="8.64989">
        <ele>488</ele>
        <time>2021-08-05T08:59:03.422Z</time>
      </trkpt>
      <trkpt lat="47.00863" lon="8.64988">
        <ele>487</ele>
        <time>2021-08-05T08:59:04.422Z</time>
      </trkpt>
      <trkpt lat="47.00862" lon="8.64986">
        <ele>487</ele>
        <time>2021-08-05T08:59:05.421Z</time>
      </trkpt>
      <trkpt lat="47.00861" lon="8.64985">
        <ele>486</ele>
        <time>2021-08-05T08:59:06.422Z</time>
      </trkpt>
      <trkpt lat="47.0086" lon="8.64983">
        <ele>485</ele>
        <time>2021-08-05T08:59:07.422Z</time>
      </trkpt>
      <trkpt lat="47.00859" lon="8.64981">
        <ele>485</ele>
        <time>2021-08-05T08:59:08.422Z</time>
      </trkpt>
      <trkpt lat="47.00858" lon="8.6498">
        <ele>484</ele>
        <time>2021-08-05T08:59:09.422Z</time>
      </trkpt>
      <trkpt lat="47.00857" lon="8.64979">
        <ele>484</ele>
        <time>2021-08-05T08:59:10.422Z</time>
      </trkpt>
      <trkpt lat="47.00854" lon="8.64977">
        <ele>485</ele>
        <time>2021-08-05T08:59:11.422Z</time>
      </trkpt>
      <trkpt lat="47.00853" lon="8.64976">
        <ele>485</ele>
        <time>2021-08-05T08:59:12.422Z</time>
      </trkpt>
      <trkpt lat="47.00851" lon="8.64973">
        <ele>485</ele>
        <time>2021-08-05T08:59:13.422Z</time>
      </trkpt>
      <trkpt lat="47.00849" lon="8.64972">
        <ele>485</ele>
        <time>2021-08-05T08:59:14.422Z</time>
      </trkpt>
      <trkpt lat="47.00848" lon="8.64972">
        <ele>485</ele>
        <time>2021-08-05T08:59:15.422Z</time>
      </trkpt>
      <trkpt lat="47.00847" lon="8.64971">
        <ele>485</ele>
        <time>2021-08-05T08:59:16.421Z</time>
      </trkpt>
      <trkpt lat="47.00846" lon="8.64971">
        <ele>486</ele>
        <time>2021-08-05T08:59:17.421Z</time>
      </trkpt>
      <trkpt lat="47.00845" lon="8.64971">
        <ele>486</ele>
        <time>2021-08-05T08:59:18.421Z</time>
      </trkpt>
      <trkpt lat="47.00844" lon="8.6497">
        <ele>486</ele>
        <time>2021-08-05T08:59:19.422Z</time>
      </trkpt>
      <trkpt lat="47.00843" lon="8.6497">
        <ele>486</ele>
        <time>2021-08-05T08:59:20.421Z</time>
      </trkpt>
      <trkpt lat="47.00842" lon="8.64969">
        <ele>487</ele>
        <time>2021-08-05T08:59:21.422Z</time>
      </trkpt>
      <trkpt lat="47.00841" lon="8.64967">
        <ele>487</ele>
        <time>2021-08-05T08:59:22.422Z</time>
      </trkpt>
      <trkpt lat="47.00839" lon="8.64966">
        <ele>487</ele>
        <time>2021-08-05T08:59:23.421Z</time>
      </trkpt>
      <trkpt lat="47.00839" lon="8.64964">
        <ele>488</ele>
        <time>2021-08-05T08:59:24.421Z</time>
      </trkpt>
      <trkpt lat="47.00838" lon="8.64963">
        <ele>488</ele>
        <time>2021-08-05T08:59:25.421Z</time>
      </trkpt>
      <trkpt lat="47.00838" lon="8.64962">
        <ele>488</ele>
        <time>2021-08-05T08:59:26.421Z</time>
      </trkpt>
      <trkpt lat="47.00837" lon="8.6496">
        <ele>489</ele>
        <time>2021-08-05T08:59:27.421Z</time>
      </trkpt>
      <trkpt lat="47.00836" lon="8.64959">
        <ele>489</ele>
        <time>2021-08-05T08:59:28.421Z</time>
      </trkpt>
      <trkpt lat="47.00836" lon="8.64959">
        <ele>488</ele>
        <time>2021-08-05T08:59:29.421Z</time>
      </trkpt>
      <trkpt lat="47.00837" lon="8.64959">
        <ele>486</ele>
        <time>2021-08-05T08:59:30.421Z</time>
      </trkpt>
      <trkpt lat="47.00837" lon="8.6496">
        <ele>486</ele>
        <time>2021-08-05T08:59:31.422Z</time>
      </trkpt>
      <trkpt lat="47.00836" lon="8.6496">
        <ele>485</ele>
        <time>2021-08-05T08:59:32.421Z</time>
      </trkpt>
      <trkpt lat="47.00835" lon="8.6496">
        <ele>484</ele>
        <time>2021-08-05T08:59:33.421Z</time>
      </trkpt>
      <trkpt lat="47.00835" lon="8.6496">
        <ele>483</ele>
        <time>2021-08-05T08:59:34.421Z</time>
      </trkpt>
      <trkpt lat="47.00834" lon="8.64959">
        <ele>482</ele>
        <time>2021-08-05T08:59:35.421Z</time>
      </trkpt>
      <trkpt lat="47.00833" lon="8.64958">
        <ele>482</ele>
        <time>2021-08-05T08:59:36.421Z</time>
      </trkpt>
      <trkpt lat="47.00832" lon="8.64957">
        <ele>481</ele>
        <time>2021-08-05T08:59:37.421Z</time>
      </trkpt>
      <trkpt lat="47.00831" lon="8.64956">
        <ele>480</ele>
        <time>2021-08-05T08:59:38.422Z</time>
      </trkpt>
      <trkpt lat="47.0083" lon="8.64956">
        <ele>480</ele>
        <time>2021-08-05T08:59:39.421Z</time>
      </trkpt>
      <trkpt lat="47.00829" lon="8.64956">
        <ele>479</ele>
        <time>2021-08-05T08:59:40.421Z</time>
      </trkpt>
      <trkpt lat="47.00828" lon="8.64956">
        <ele>479</ele>
        <time>2021-08-05T08:59:41.422Z</time>
      </trkpt>
      <trkpt lat="47.00827" lon="8.64956">
        <ele>478</ele>
        <time>2021-08-05T08:59:42.421Z</time>
      </trkpt>
      <trkpt lat="47.00826" lon="8.64955">
        <ele>478</ele>
        <time>2021-08-05T08:59:43.421Z</time>
      </trkpt>
      <trkpt lat="47.00824" lon="8.64955">
        <ele>477</ele>
        <time>2021-08-05T08:59:44.421Z</time>
      </trkpt>
      <trkpt lat="47.00823" lon="8.64955">
        <ele>477</ele>
        <time>2021-08-05T08:59:45.421Z</time>
      </trkpt>
      <trkpt lat="47.00822" lon="8.64955">
        <ele>476</ele>
        <time>2021-08-05T08:59:46.422Z</time>
      </trkpt>
      <trkpt lat="47.00821" lon="8.64955">
        <ele>476</ele>
        <time>2021-08-05T08:59:47.421Z</time>
      </trkpt>
      <trkpt lat="47.0082" lon="8.64955">
        <ele>476</ele>
        <time>2021-08-05T08:59:48.422Z</time>
      </trkpt>
      <trkpt lat="47.00818" lon="8.64956">
        <ele>476</ele>
        <time>2021-08-05T08:59:49.421Z</time>
      </trkpt>
      <trkpt lat="47.00817" lon="8.64956">
        <ele>476</ele>
        <time>2021-08-05T08:59:50.421Z</time>
      </trkpt>
      <trkpt lat="47.00816" lon="8.64956">
        <ele>476</ele>
        <time>2021-08-05T08:59:51.422Z</time>
      </trkpt>
      <trkpt lat="47.00815" lon="8.64956">
        <ele>476</ele>
        <time>2021-08-05T08:59:52.422Z</time>
      </trkpt>
      <trkpt lat="47.00814" lon="8.64955">
        <ele>475</ele>
        <time>2021-08-05T08:59:53.422Z</time>
      </trkpt>
      <trkpt lat="47.00813" lon="8.64955">
        <ele>475</ele>
        <time>2021-08-05T08:59:54.421Z</time>
      </trkpt>
      <trkpt lat="47.00812" lon="8.64955">
        <ele>475</ele>
        <time>2021-08-05T08:59:55.422Z</time>
      </trkpt>
      <trkpt lat="47.00811" lon="8.64955">
        <ele>475</ele>
        <time>2021-08-05T08:59:56.422Z</time>
      </trkpt>
      <trkpt lat="47.00809" lon="8.64956">
        <ele>475</ele>
        <time>2021-08-05T08:59:57.421Z</time>
      </trkpt>
      <trkpt lat="47.00808" lon="8.64955">
        <ele>475</ele>
        <time>2021-08-05T08:59:58.422Z</time>
      </trkpt>
      <trkpt lat="47.00806" lon="8.64954">
        <ele>475</ele>
        <time>2021-08-05T08:59:59.422Z</time>
      </trkpt>
      <trkpt lat="47.00806" lon="8.64953">
        <ele>474</ele>
        <time>2021-08-05T09:00:00.421Z</time>
      </trkpt>
      <trkpt lat="47.00804" lon="8.64953">
        <ele>474</ele>
        <time>2021-08-05T09:00:01.421Z</time>
      </trkpt>
      <trkpt lat="47.00804" lon="8.64952">
        <ele>474</ele>
        <time>2021-08-05T09:00:02.421Z</time>
      </trkpt>
      <trkpt lat="47.00804" lon="8.64952">
        <ele>475</ele>
        <time>2021-08-05T09:00:03.422Z</time>
      </trkpt>
      <trkpt lat="47.00805" lon="8.64953">
        <ele>475</ele>
        <time>2021-08-05T09:00:04.421Z</time>
      </trkpt>
      <trkpt lat="47.00806" lon="8.64954">
        <ele>476</ele>
        <time>2021-08-05T09:00:05.421Z</time>
      </trkpt>
      <trkpt lat="47.00806" lon="8.64955">
        <ele>480</ele>
        <time>2021-08-05T09:00:06.423Z</time>
      </trkpt>
      <trkpt lat="47.00806" lon="8.64955">
        <ele>480</ele>
        <time>2021-08-05T09:00:07.424Z</time>
      </trkpt>
      <trkpt lat="47.00805" lon="8.64955">
        <ele>479</ele>
        <time>2021-08-05T09:00:08.423Z</time>
      </trkpt>
      <trkpt lat="47.00804" lon="8.64955">
        <ele>479</ele>
        <time>2021-08-05T09:00:09.424Z</time>
      </trkpt>
      <trkpt lat="47.00803" lon="8.64955">
        <ele>478</ele>
        <time>2021-08-05T09:00:10.423Z</time>
      </trkpt>
      <trkpt lat="47.00802" lon="8.64955">
        <ele>478</ele>
        <time>2021-08-05T09:00:11.424Z</time>
      </trkpt>
      <trkpt lat="47.00801" lon="8.64954">
        <ele>477</ele>
        <time>2021-08-05T09:00:12.424Z</time>
      </trkpt>
      <trkpt lat="47.008" lon="8.64954">
        <ele>477</ele>
        <time>2021-08-05T09:00:13.423Z</time>
      </trkpt>
      <trkpt lat="47.00799" lon="8.64954">
        <ele>476</ele>
        <time>2021-08-05T09:00:14.423Z</time>
      </trkpt>
      <trkpt lat="47.00798" lon="8.64953">
        <ele>476</ele>
        <time>2021-08-05T09:00:15.424Z</time>
      </trkpt>
      <trkpt lat="47.00797" lon="8.64953">
        <ele>476</ele>
        <time>2021-08-05T09:00:16.424Z</time>
      </trkpt>
      <trkpt lat="47.00797" lon="8.64954">
        <ele>475</ele>
        <time>2021-08-05T09:00:17.423Z</time>
      </trkpt>
      <trkpt lat="47.00795" lon="8.64954">
        <ele>475</ele>
        <time>2021-08-05T09:00:18.424Z</time>
      </trkpt>
      <trkpt lat="47.00795" lon="8.64954">
        <ele>476</ele>
        <time>2021-08-05T09:00:19.424Z</time>
      </trkpt>
      <trkpt lat="47.00794" lon="8.64953">
        <ele>476</ele>
        <time>2021-08-05T09:00:20.423Z</time>
      </trkpt>
      <trkpt lat="47.00793" lon="8.64953">
        <ele>476</ele>
        <time>2021-08-05T09:00:21.424Z</time>
      </trkpt>
      <trkpt lat="47.00791" lon="8.64952">
        <ele>476</ele>
        <time>2021-08-05T09:00:22.424Z</time>
      </trkpt>
      <trkpt lat="47.0079" lon="8.64951">
        <ele>476</ele>
        <time>2021-08-05T09:00:23.423Z</time>
      </trkpt>
      <trkpt lat="47.00789" lon="8.6495">
        <ele>476</ele>
        <time>2021-08-05T09:00:24.423Z</time>
      </trkpt>
      <trkpt lat="47.00787" lon="8.64949">
        <ele>476</ele>
        <time>2021-08-05T09:00:25.423Z</time>
      </trkpt>
      <trkpt lat="47.00787" lon="8.64948">
        <ele>475</ele>
        <time>2021-08-05T09:00:26.423Z</time>
      </trkpt>
      <trkpt lat="47.00786" lon="8.64947">
        <ele>475</ele>
        <time>2021-08-05T09:00:27.424Z</time>
      </trkpt>
      <trkpt lat="47.00785" lon="8.64946">
        <ele>475</ele>
        <time>2021-08-05T09:00:28.424Z</time>
      </trkpt>
      <trkpt lat="47.00785" lon="8.64945">
        <ele>475</ele>
        <time>2021-08-05T09:00:29.423Z</time>
      </trkpt>
      <trkpt lat="47.00785" lon="8.64944">
        <ele>475</ele>
        <time>2021-08-05T09:00:30.423Z</time>
      </trkpt>
      <trkpt lat="47.00785" lon="8.64944">
        <ele>475</ele>
        <time>2021-08-05T09:00:31.423Z</time>
      </trkpt>
      <trkpt lat="47.00784" lon="8.64944">
        <ele>475</ele>
        <time>2021-08-05T09:00:32.424Z</time>
      </trkpt>
      <trkpt lat="47.00784" lon="8.64943">
        <ele>474</ele>
        <time>2021-08-05T09:00:33.424Z</time>
      </trkpt>
      <trkpt lat="47.00783" lon="8.64942">
        <ele>474</ele>
        <time>2021-08-05T09:00:34.424Z</time>
      </trkpt>
      <trkpt lat="47.00783" lon="8.64942">
        <ele>474</ele>
        <time>2021-08-05T09:00:35.424Z</time>
      </trkpt>
      <trkpt lat="47.00783" lon="8.64942">
        <ele>474</ele>
        <time>2021-08-05T09:00:36.424Z</time>
      </trkpt>
      <trkpt lat="47.00783" lon="8.64942">
        <ele>474</ele>
        <time>2021-08-05T09:00:37.425Z</time>
      </trkpt>
      <trkpt lat="47.00784" lon="8.64942">
        <ele>474</ele>
        <time>2021-08-05T09:00:38.424Z</time>
      </trkpt>
      <trkpt lat="47.00784" lon="8.64943">
        <ele>474</ele>
        <time>2021-08-05T09:00:39.427Z</time>
      </trkpt>
      <trkpt lat="47.00784" lon="8.64943">
        <ele>474</ele>
        <time>2021-08-05T09:00:40.427Z</time>
      </trkpt>
      <trkpt lat="47.00784" lon="8.64942">
        <ele>474</ele>
        <time>2021-08-05T09:00:41.426Z</time>
      </trkpt>
      <trkpt lat="47.00784" lon="8.64941">
        <ele>473</ele>
        <time>2021-08-05T09:00:42.426Z</time>
      </trkpt>
      <trkpt lat="47.00785" lon="8.6494">
        <ele>472</ele>
        <time>2021-08-05T09:00:43.426Z</time>
      </trkpt>
      <trkpt lat="47.00785" lon="8.6494">
        <ele>472</ele>
        <time>2021-08-05T09:00:44.426Z</time>
      </trkpt>
      <trkpt lat="47.00785" lon="8.6494">
        <ele>472</ele>
        <time>2021-08-05T09:00:45.426Z</time>
      </trkpt>
      <trkpt lat="47.00785" lon="8.6494">
        <ele>472</ele>
        <time>2021-08-05T09:00:46.426Z</time>
      </trkpt>
      <trkpt lat="47.00785" lon="8.6494">
        <ele>473</ele>
        <time>2021-08-05T09:00:47.426Z</time>
      </trkpt>
      <trkpt lat="47.00785" lon="8.64941">
        <ele>473</ele>
        <time>2021-08-05T09:00:48.426Z</time>
      </trkpt>
      <trkpt lat="47.00785" lon="8.64941">
        <ele>473</ele>
        <time>2021-08-05T09:00:49.426Z</time>
      </trkpt>
      <trkpt lat="47.00784" lon="8.64942">
        <ele>473</ele>
        <time>2021-08-05T09:00:50.426Z</time>
      </trkpt>
      <trkpt lat="47.00783" lon="8.64944">
        <ele>473</ele>
        <time>2021-08-05T09:00:51.427Z</time>
      </trkpt>
      <trkpt lat="47.00783" lon="8.64945">
        <ele>473</ele>
        <time>2021-08-05T09:00:52.427Z</time>
      </trkpt>
      <trkpt lat="47.00783" lon="8.64945">
        <ele>474</ele>
        <time>2021-08-05T09:00:53.427Z</time>
      </trkpt>
      <trkpt lat="47.00783" lon="8.64946">
        <ele>474</ele>
        <time>2021-08-05T09:00:54.427Z</time>
      </trkpt>
      <trkpt lat="47.00783" lon="8.64946">
        <ele>474</ele>
        <time>2021-08-05T09:00:55.427Z</time>
      </trkpt>
      <trkpt lat="47.00781" lon="8.64949">
        <ele>475</ele>
        <time>2021-08-05T09:00:56.428Z</time>
      </trkpt>
      <trkpt lat="47.00781" lon="8.6495">
        <ele>475</ele>
        <time>2021-08-05T09:00:57.428Z</time>
      </trkpt>
      <trkpt lat="47.00781" lon="8.64951">
        <ele>476</ele>
        <time>2021-08-05T09:00:58.427Z</time>
      </trkpt>
      <trkpt lat="47.00781" lon="8.64948">
        <ele>477</ele>
        <time>2021-08-05T09:00:59.429Z</time>
      </trkpt>
      <trkpt lat="47.00781" lon="8.64947">
        <ele>477</ele>
        <time>2021-08-05T09:01:00.428Z</time>
      </trkpt>
      <trkpt lat="47.00782" lon="8.64947">
        <ele>476</ele>
        <time>2021-08-05T09:01:01.428Z</time>
      </trkpt>
      <trkpt lat="47.00782" lon="8.64948">
        <ele>475</ele>
        <time>2021-08-05T09:01:02.428Z</time>
      </trkpt>
      <trkpt lat="47.00782" lon="8.64948">
        <ele>475</ele>
        <time>2021-08-05T09:01:03.428Z</time>
      </trkpt>
      <trkpt lat="47.00783" lon="8.64949">
        <ele>475</ele>
        <time>2021-08-05T09:01:04.428Z</time>
      </trkpt>
      <trkpt lat="47.00784" lon="8.6495">
        <ele>475</ele>
        <time>2021-08-05T09:01:05.428Z</time>
      </trkpt>
      <trkpt lat="47.00785" lon="8.6495">
        <ele>475</ele>
        <time>2021-08-05T09:01:06.429Z</time>
      </trkpt>
      <trkpt lat="47.00785" lon="8.64951">
        <ele>474</ele>
        <time>2021-08-05T09:01:07.428Z</time>
      </trkpt>
      <trkpt lat="47.00786" lon="8.64951">
        <ele>475</ele>
        <time>2021-08-05T09:01:08.429Z</time>
      </trkpt>
      <trkpt lat="47.00787" lon="8.64951">
        <ele>475</ele>
        <time>2021-08-05T09:01:09.428Z</time>
      </trkpt>
      <trkpt lat="47.00787" lon="8.6495">
        <ele>475</ele>
        <time>2021-08-05T09:01:10.429Z</time>
      </trkpt>
      <trkpt lat="47.00788" lon="8.64949">
        <ele>475</ele>
        <time>2021-08-05T09:01:11.429Z</time>
      </trkpt>
      <trkpt lat="47.00788" lon="8.64949">
        <ele>476</ele>
        <time>2021-08-05T09:01:12.428Z</time>
      </trkpt>
      <trkpt lat="47.0079" lon="8.6494">
        <ele>473</ele>
        <time>2021-08-05T09:01:13.429Z</time>
      </trkpt>
      <trkpt lat="47.0079" lon="8.64941">
        <ele>474</ele>
        <time>2021-08-05T09:01:14.429Z</time>
      </trkpt>
      <trkpt lat="47.00789" lon="8.64941">
        <ele>474</ele>
        <time>2021-08-05T09:01:15.430Z</time>
      </trkpt>
      <trkpt lat="47.00789" lon="8.6494">
        <ele>475</ele>
        <time>2021-08-05T09:01:16.429Z</time>
      </trkpt>
      <trkpt lat="47.00789" lon="8.6494">
        <ele>476</ele>
        <time>2021-08-05T09:01:17.430Z</time>
      </trkpt>
      <trkpt lat="47.00788" lon="8.64941">
        <ele>477</ele>
        <time>2021-08-05T09:01:18.429Z</time>
      </trkpt>
      <trkpt lat="47.00788" lon="8.64941">
        <ele>477</ele>
        <time>2021-08-05T09:01:19.429Z</time>
      </trkpt>
      <trkpt lat="47.00788" lon="8.6494">
        <ele>478</ele>
        <time>2021-08-05T09:01:20.430Z</time>
      </trkpt>
      <trkpt lat="47.00787" lon="8.6494">
        <ele>480</ele>
        <time>2021-08-05T09:01:21.430Z</time>
      </trkpt>
      <trkpt lat="47.00787" lon="8.6494">
        <ele>479</ele>
        <time>2021-08-05T09:01:22.430Z</time>
      </trkpt>
      <trkpt lat="47.00788" lon="8.64941">
        <ele>478</ele>
        <time>2021-08-05T09:01:23.431Z</time>
      </trkpt>
      <trkpt lat="47.00789" lon="8.6494">
        <ele>478</ele>
        <time>2021-08-05T09:01:24.432Z</time>
      </trkpt>
      <trkpt lat="47.00789" lon="8.64941">
        <ele>478</ele>
        <time>2021-08-05T09:01:25.432Z</time>
      </trkpt>
      <trkpt lat="47.00789" lon="8.64941">
        <ele>478</ele>
        <time>2021-08-05T09:01:26.432Z</time>
      </trkpt>
      <trkpt lat="47.00789" lon="8.64941">
        <ele>478</ele>
        <time>2021-08-05T09:01:27.431Z</time>
      </trkpt>
      <trkpt lat="47.00789" lon="8.64942">
        <ele>478</ele>
        <time>2021-08-05T09:01:28.432Z</time>
      </trkpt>
      <trkpt lat="47.0079" lon="8.64943">
        <ele>477</ele>
        <time>2021-08-05T09:01:29.431Z</time>
      </trkpt>
      <trkpt lat="47.00791" lon="8.64944">
        <ele>477</ele>
        <time>2021-08-05T09:01:30.432Z</time>
      </trkpt>
      <trkpt lat="47.00791" lon="8.64945">
        <ele>476</ele>
        <time>2021-08-05T09:01:31.432Z</time>
      </trkpt>
      <trkpt lat="47.00791" lon="8.64946">
        <ele>476</ele>
        <time>2021-08-05T09:01:32.432Z</time>
      </trkpt>
      <trkpt lat="47.00791" lon="8.64949">
        <ele>476</ele>
        <time>2021-08-05T09:01:33.431Z</time>
      </trkpt>
      <trkpt lat="47.00791" lon="8.6495">
        <ele>475</ele>
        <time>2021-08-05T09:01:34.432Z</time>
      </trkpt>
      <trkpt lat="47.00791" lon="8.6495">
        <ele>475</ele>
        <time>2021-08-05T09:01:35.432Z</time>
      </trkpt>
      <trkpt lat="47.00792" lon="8.64949">
        <ele>475</ele>
        <time>2021-08-05T09:01:36.432Z</time>
      </trkpt>
      <trkpt lat="47.00791" lon="8.64948">
        <ele>474</ele>
        <time>2021-08-05T09:01:37.431Z</time>
      </trkpt>
      <trkpt lat="47.00791" lon="8.64946">
        <ele>474</ele>
        <time>2021-08-05T09:01:38.432Z</time>
      </trkpt>
      <trkpt lat="47.00791" lon="8.64946">
        <ele>474</ele>
        <time>2021-08-05T09:01:39.432Z</time>
      </trkpt>
      <trkpt lat="47.00791" lon="8.64946">
        <ele>473</ele>
        <time>2021-08-05T09:01:40.432Z</time>
      </trkpt>
      <trkpt lat="47.00792" lon="8.64946">
        <ele>472</ele>
        <time>2021-08-05T09:01:41.432Z</time>
      </trkpt>
      <trkpt lat="47.00792" lon="8.64946">
        <ele>472</ele>
        <time>2021-08-05T09:01:42.432Z</time>
      </trkpt>
      <trkpt lat="47.00791" lon="8.64946">
        <ele>471</ele>
        <time>2021-08-05T09:01:43.431Z</time>
      </trkpt>
      <trkpt lat="47.00791" lon="8.64945">
        <ele>471</ele>
        <time>2021-08-05T09:01:44.432Z</time>
      </trkpt>
      <trkpt lat="47.00791" lon="8.64945">
        <ele>471</ele>
        <time>2021-08-05T09:01:45.431Z</time>
      </trkpt>
      <trkpt lat="47.00789" lon="8.64945">
        <ele>471</ele>
        <time>2021-08-05T09:01:46.431Z</time>
      </trkpt>
      <trkpt lat="47.00789" lon="8.64944">
        <ele>471</ele>
        <time>2021-08-05T09:01:47.432Z</time>
      </trkpt>
      <trkpt lat="47.00789" lon="8.64944">
        <ele>472</ele>
        <time>2021-08-05T09:01:48.431Z</time>
      </trkpt>
      <trkpt lat="47.00789" lon="8.64944">
        <ele>472</ele>
        <time>2021-08-05T09:01:49.431Z</time>
      </trkpt>
      <trkpt lat="47.00788" lon="8.64942">
        <ele>475</ele>
        <time>2021-08-05T09:01:50.433Z</time>
      </trkpt>
      <trkpt lat="47.00788" lon="8.6494">
        <ele>473</ele>
        <time>2021-08-05T09:01:51.434Z</time>
      </trkpt>
      <trkpt lat="47.00787" lon="8.6494">
        <ele>472</ele>
        <time>2021-08-05T09:01:52.434Z</time>
      </trkpt>
      <trkpt lat="47.00787" lon="8.64939">
        <ele>471</ele>
        <time>2021-08-05T09:01:53.433Z</time>
      </trkpt>
      <trkpt lat="47.00786" lon="8.64938">
        <ele>471</ele>
        <time>2021-08-05T09:01:54.433Z</time>
      </trkpt>
      <trkpt lat="47.00785" lon="8.64938">
        <ele>471</ele>
        <time>2021-08-05T09:01:55.434Z</time>
      </trkpt>
      <trkpt lat="47.00784" lon="8.64937">
        <ele>470</ele>
        <time>2021-08-05T09:01:56.433Z</time>
      </trkpt>
      <trkpt lat="47.00784" lon="8.64936">
        <ele>470</ele>
        <time>2021-08-05T09:01:57.433Z</time>
      </trkpt>
      <trkpt lat="47.00782" lon="8.64934">
        <ele>470</ele>
        <time>2021-08-05T09:01:58.433Z</time>
      </trkpt>
      <trkpt lat="47.00781" lon="8.64933">
        <ele>470</ele>
        <time>2021-08-05T09:01:59.434Z</time>
      </trkpt>
      <trkpt lat="47.00781" lon="8.64932">
        <ele>471</ele>
        <time>2021-08-05T09:02:00.433Z</time>
      </trkpt>
      <trkpt lat="47.0078" lon="8.64932">
        <ele>472</ele>
        <time>2021-08-05T09:02:01.434Z</time>
      </trkpt>
      <trkpt lat="47.00779" lon="8.64931">
        <ele>472</ele>
        <time>2021-08-05T09:02:02.433Z</time>
      </trkpt>
      <trkpt lat="47.00778" lon="8.6493">
        <ele>472</ele>
        <time>2021-08-05T09:02:03.434Z</time>
      </trkpt>
      <trkpt lat="47.00777" lon="8.64929">
        <ele>473</ele>
        <time>2021-08-05T09:02:04.433Z</time>
      </trkpt>
      <trkpt lat="47.00777" lon="8.64929">
        <ele>473</ele>
        <time>2021-08-05T09:02:05.433Z</time>
      </trkpt>
      <trkpt lat="47.00777" lon="8.64929">
        <ele>474</ele>
        <time>2021-08-05T09:02:06.433Z</time>
      </trkpt>
      <trkpt lat="47.00777" lon="8.64929">
        <ele>474</ele>
        <time>2021-08-05T09:02:07.434Z</time>
      </trkpt>
      <trkpt lat="47.00777" lon="8.64931">
        <ele>473</ele>
        <time>2021-08-05T09:02:08.434Z</time>
      </trkpt>
      <trkpt lat="47.00778" lon="8.64931">
        <ele>473</ele>
        <time>2021-08-05T09:02:09.434Z</time>
      </trkpt>
      <trkpt lat="47.00778" lon="8.64931">
        <ele>473</ele>
        <time>2021-08-05T09:02:10.434Z</time>
      </trkpt>
      <trkpt lat="47.00778" lon="8.64931">
        <ele>473</ele>
        <time>2021-08-05T09:02:11.434Z</time>
      </trkpt>
      <trkpt lat="47.00778" lon="8.64931">
        <ele>473</ele>
        <time>2021-08-05T09:02:12.434Z</time>
      </trkpt>
      <trkpt lat="47.00777" lon="8.64932">
        <ele>472</ele>
        <time>2021-08-05T09:02:13.435Z</time>
      </trkpt>
      <trkpt lat="47.00778" lon="8.64931">
        <ele>472</ele>
        <time>2021-08-05T09:02:14.435Z</time>
      </trkpt>
      <trkpt lat="47.00777" lon="8.64931">
        <ele>472</ele>
        <time>2021-08-05T09:02:15.435Z</time>
      </trkpt>
      <trkpt lat="47.00777" lon="8.6493">
        <ele>473</ele>
        <time>2021-08-05T09:02:16.435Z</time>
      </trkpt>
      <trkpt lat="47.00776" lon="8.64929">
        <ele>472</ele>
        <time>2021-08-05T09:02:17.435Z</time>
      </trkpt>
      <trkpt lat="47.00776" lon="8.64929">
        <ele>472</ele>
        <time>2021-08-05T09:02:18.435Z</time>
      </trkpt>
      <trkpt lat="47.00773" lon="8.64926">
        <ele>473</ele>
        <time>2021-08-05T09:02:19.436Z</time>
      </trkpt>
      <trkpt lat="47.00772" lon="8.64925">
        <ele>472</ele>
        <time>2021-08-05T09:02:20.436Z</time>
      </trkpt>
      <trkpt lat="47.00771" lon="8.64924">
        <ele>472</ele>
        <time>2021-08-05T09:02:21.435Z</time>
      </trkpt>
      <trkpt lat="47.00771" lon="8.64924">
        <ele>472</ele>
        <time>2021-08-05T09:02:22.435Z</time>
      </trkpt>
      <trkpt lat="47.0077" lon="8.64923">
        <ele>471</ele>
        <time>2021-08-05T09:02:23.435Z</time>
      </trkpt>
      <trkpt lat="47.00769" lon="8.64923">
        <ele>471</ele>
        <time>2021-08-05T09:02:24.436Z</time>
      </trkpt>
      <trkpt lat="47.00768" lon="8.64922">
        <ele>471</ele>
        <time>2021-08-05T09:02:25.435Z</time>
      </trkpt>
      <trkpt lat="47.00767" lon="8.64922">
        <ele>471</ele>
        <time>2021-08-05T09:02:26.435Z</time>
      </trkpt>
      <trkpt lat="47.00765" lon="8.64921">
        <ele>471</ele>
        <time>2021-08-05T09:02:27.435Z</time>
      </trkpt>
      <trkpt lat="47.00765" lon="8.64921">
        <ele>471</ele>
        <time>2021-08-05T09:02:28.435Z</time>
      </trkpt>
      <trkpt lat="47.00764" lon="8.64921">
        <ele>471</ele>
        <time>2021-08-05T09:02:29.435Z</time>
      </trkpt>
      <trkpt lat="47.00763" lon="8.6492">
        <ele>471</ele>
        <time>2021-08-05T09:02:30.435Z</time>
      </trkpt>
      <trkpt lat="47.00762" lon="8.6492">
        <ele>471</ele>
        <time>2021-08-05T09:02:31.435Z</time>
      </trkpt>
      <trkpt lat="47.00761" lon="8.64919">
        <ele>471</ele>
        <time>2021-08-05T09:02:32.435Z</time>
      </trkpt>
      <trkpt lat="47.0076" lon="8.64919">
        <ele>471</ele>
        <time>2021-08-05T09:02:33.435Z</time>
      </trkpt>
      <trkpt lat="47.00759" lon="8.64919">
        <ele>471</ele>
        <time>2021-08-05T09:02:34.435Z</time>
      </trkpt>
      <trkpt lat="47.00759" lon="8.64918">
        <ele>471</ele>
        <time>2021-08-05T09:02:35.435Z</time>
      </trkpt>
      <trkpt lat="47.00758" lon="8.64917">
        <ele>471</ele>
        <time>2021-08-05T09:02:36.435Z</time>
      </trkpt>
      <trkpt lat="47.00757" lon="8.64916">
        <ele>471</ele>
        <time>2021-08-05T09:02:37.435Z</time>
      </trkpt>
      <trkpt lat="47.00756" lon="8.64916">
        <ele>471</ele>
        <time>2021-08-05T09:02:38.435Z</time>
      </trkpt>
      <trkpt lat="47.00755" lon="8.64915">
        <ele>471</ele>
        <time>2021-08-05T09:02:39.436Z</time>
      </trkpt>
      <trkpt lat="47.00754" lon="8.64913">
        <ele>471</ele>
        <time>2021-08-05T09:02:40.435Z</time>
      </trkpt>
      <trkpt lat="47.00753" lon="8.64912">
        <ele>471</ele>
        <time>2021-08-05T09:02:41.435Z</time>
      </trkpt>
      <trkpt lat="47.00752" lon="8.64911">
        <ele>472</ele>
        <time>2021-08-05T09:02:42.435Z</time>
      </trkpt>
      <trkpt lat="47.00751" lon="8.6491">
        <ele>472</ele>
        <time>2021-08-05T09:02:43.435Z</time>
      </trkpt>
      <trkpt lat="47.00751" lon="8.64909">
        <ele>471</ele>
        <time>2021-08-05T09:02:44.435Z</time>
      </trkpt>
      <trkpt lat="47.0075" lon="8.64908">
        <ele>471</ele>
        <time>2021-08-05T09:02:45.435Z</time>
      </trkpt>
      <trkpt lat="47.00749" lon="8.64906">
        <ele>471</ele>
        <time>2021-08-05T09:02:46.436Z</time>
      </trkpt>
      <trkpt lat="47.00748" lon="8.64905">
        <ele>470</ele>
        <time>2021-08-05T09:02:47.436Z</time>
      </trkpt>
      <trkpt lat="47.00748" lon="8.64904">
        <ele>469</ele>
        <time>2021-08-05T09:02:48.435Z</time>
      </trkpt>
      <trkpt lat="47.00747" lon="8.64903">
        <ele>468</ele>
        <time>2021-08-05T09:02:49.436Z</time>
      </trkpt>
      <trkpt lat="47.00746" lon="8.64901">
        <ele>468</ele>
        <time>2021-08-05T09:02:50.436Z</time>
      </trkpt>
      <trkpt lat="47.00746" lon="8.649">
        <ele>467</ele>
        <time>2021-08-05T09:02:51.436Z</time>
      </trkpt>
      <trkpt lat="47.00745" lon="8.649">
        <ele>467</ele>
        <time>2021-08-05T09:02:52.435Z</time>
      </trkpt>
      <trkpt lat="47.00744" lon="8.649">
        <ele>466</ele>
        <time>2021-08-05T09:02:53.436Z</time>
      </trkpt>
      <trkpt lat="47.00744" lon="8.64899">
        <ele>466</ele>
        <time>2021-08-05T09:02:54.436Z</time>
      </trkpt>
      <trkpt lat="47.00743" lon="8.64898">
        <ele>465</ele>
        <time>2021-08-05T09:02:55.436Z</time>
      </trkpt>
      <trkpt lat="47.00742" lon="8.64896">
        <ele>465</ele>
        <time>2021-08-05T09:02:56.436Z</time>
      </trkpt>
      <trkpt lat="47.00741" lon="8.64895">
        <ele>465</ele>
        <time>2021-08-05T09:02:57.436Z</time>
      </trkpt>
      <trkpt lat="47.0074" lon="8.64895">
        <ele>465</ele>
        <time>2021-08-05T09:02:58.435Z</time>
      </trkpt>
      <trkpt lat="47.00739" lon="8.64894">
        <ele>465</ele>
        <time>2021-08-05T09:02:59.436Z</time>
      </trkpt>
      <trkpt lat="47.00738" lon="8.64893">
        <ele>465</ele>
        <time>2021-08-05T09:03:00.436Z</time>
      </trkpt>
      <trkpt lat="47.00737" lon="8.64892">
        <ele>464</ele>
        <time>2021-08-05T09:03:01.436Z</time>
      </trkpt>
      <trkpt lat="47.00736" lon="8.64891">
        <ele>464</ele>
        <time>2021-08-05T09:03:02.435Z</time>
      </trkpt>
      <trkpt lat="47.00735" lon="8.6489">
        <ele>464</ele>
        <time>2021-08-05T09:03:03.436Z</time>
      </trkpt>
      <trkpt lat="47.00734" lon="8.64889">
        <ele>464</ele>
        <time>2021-08-05T09:03:04.436Z</time>
      </trkpt>
      <trkpt lat="47.00733" lon="8.64888">
        <ele>464</ele>
        <time>2021-08-05T09:03:05.436Z</time>
      </trkpt>
      <trkpt lat="47.00732" lon="8.64887">
        <ele>464</ele>
        <time>2021-08-05T09:03:06.436Z</time>
      </trkpt>
      <trkpt lat="47.00731" lon="8.64886">
        <ele>464</ele>
        <time>2021-08-05T09:03:07.436Z</time>
      </trkpt>
      <trkpt lat="47.0073" lon="8.64885">
        <ele>464</ele>
        <time>2021-08-05T09:03:08.436Z</time>
      </trkpt>
      <trkpt lat="47.00729" lon="8.64884">
        <ele>464</ele>
        <time>2021-08-05T09:03:09.436Z</time>
      </trkpt>
      <trkpt lat="47.00728" lon="8.64883">
        <ele>464</ele>
        <time>2021-08-05T09:03:10.436Z</time>
      </trkpt>
      <trkpt lat="47.00727" lon="8.64882">
        <ele>464</ele>
        <time>2021-08-05T09:03:11.435Z</time>
      </trkpt>
      <trkpt lat="47.00726" lon="8.64881">
        <ele>463</ele>
        <time>2021-08-05T09:03:12.435Z</time>
      </trkpt>
      <trkpt lat="47.00725" lon="8.64881">
        <ele>463</ele>
        <time>2021-08-05T09:03:13.436Z</time>
      </trkpt>
      <trkpt lat="47.00724" lon="8.6488">
        <ele>463</ele>
        <time>2021-08-05T09:03:14.435Z</time>
      </trkpt>
      <trkpt lat="47.00723" lon="8.64878">
        <ele>463</ele>
        <time>2021-08-05T09:03:15.436Z</time>
      </trkpt>
      <trkpt lat="47.00722" lon="8.64877">
        <ele>463</ele>
        <time>2021-08-05T09:03:16.436Z</time>
      </trkpt>
      <trkpt lat="47.00721" lon="8.64876">
        <ele>463</ele>
        <time>2021-08-05T09:03:17.436Z</time>
      </trkpt>
      <trkpt lat="47.0072" lon="8.64875">
        <ele>463</ele>
        <time>2021-08-05T09:03:18.436Z</time>
      </trkpt>
      <trkpt lat="47.00719" lon="8.64873">
        <ele>463</ele>
        <time>2021-08-05T09:03:19.435Z</time>
      </trkpt>
      <trkpt lat="47.00718" lon="8.64871">
        <ele>463</ele>
        <time>2021-08-05T09:03:20.436Z</time>
      </trkpt>
      <trkpt lat="47.00717" lon="8.64871">
        <ele>463</ele>
        <time>2021-08-05T09:03:21.435Z</time>
      </trkpt>
      <trkpt lat="47.00716" lon="8.6487">
        <ele>463</ele>
        <time>2021-08-05T09:03:22.435Z</time>
      </trkpt>
      <trkpt lat="47.00715" lon="8.64868">
        <ele>463</ele>
        <time>2021-08-05T09:03:23.436Z</time>
      </trkpt>
      <trkpt lat="47.00714" lon="8.64867">
        <ele>462</ele>
        <time>2021-08-05T09:03:24.436Z</time>
      </trkpt>
      <trkpt lat="47.00713" lon="8.64865">
        <ele>462</ele>
        <time>2021-08-05T09:03:25.435Z</time>
      </trkpt>
      <trkpt lat="47.00712" lon="8.64864">
        <ele>461</ele>
        <time>2021-08-05T09:03:26.436Z</time>
      </trkpt>
      <trkpt lat="47.00711" lon="8.64863">
        <ele>461</ele>
        <time>2021-08-05T09:03:27.436Z</time>
      </trkpt>
      <trkpt lat="47.0071" lon="8.64862">
        <ele>461</ele>
        <time>2021-08-05T09:03:28.435Z</time>
      </trkpt>
      <trkpt lat="47.00709" lon="8.6486">
        <ele>461</ele>
        <time>2021-08-05T09:03:29.436Z</time>
      </trkpt>
      <trkpt lat="47.00708" lon="8.64859">
        <ele>461</ele>
        <time>2021-08-05T09:03:30.436Z</time>
      </trkpt>
      <trkpt lat="47.00707" lon="8.64858">
        <ele>461</ele>
        <time>2021-08-05T09:03:31.436Z</time>
      </trkpt>
      <trkpt lat="47.00705" lon="8.64855">
        <ele>462</ele>
        <time>2021-08-05T09:03:32.436Z</time>
      </trkpt>
      <trkpt lat="47.00704" lon="8.64855">
        <ele>462</ele>
        <time>2021-08-05T09:03:33.436Z</time>
      </trkpt>
      <trkpt lat="47.00703" lon="8.64854">
        <ele>463</ele>
        <time>2021-08-05T09:03:34.436Z</time>
      </trkpt>
      <trkpt lat="47.00702" lon="8.64854">
        <ele>463</ele>
        <time>2021-08-05T09:03:35.435Z</time>
      </trkpt>
      <trkpt lat="47.00701" lon="8.64853">
        <ele>463</ele>
        <time>2021-08-05T09:03:36.436Z</time>
      </trkpt>
      <trkpt lat="47.00699" lon="8.64852">
        <ele>463</ele>
        <time>2021-08-05T09:03:37.435Z</time>
      </trkpt>
      <trkpt lat="47.00698" lon="8.64852">
        <ele>463</ele>
        <time>2021-08-05T09:03:38.436Z</time>
      </trkpt>
      <trkpt lat="47.00697" lon="8.64851">
        <ele>463</ele>
        <time>2021-08-05T09:03:39.435Z</time>
      </trkpt>
      <trkpt lat="47.00696" lon="8.64851">
        <ele>463</ele>
        <time>2021-08-05T09:03:40.435Z</time>
      </trkpt>
      <trkpt lat="47.00695" lon="8.6485">
        <ele>463</ele>
        <time>2021-08-05T09:03:41.436Z</time>
      </trkpt>
      <trkpt lat="47.00695" lon="8.6485">
        <ele>462</ele>
        <time>2021-08-05T09:03:42.435Z</time>
      </trkpt>
      <trkpt lat="47.00694" lon="8.64849">
        <ele>462</ele>
        <time>2021-08-05T09:03:43.436Z</time>
      </trkpt>
      <trkpt lat="47.00693" lon="8.64848">
        <ele>461</ele>
        <time>2021-08-05T09:03:44.436Z</time>
      </trkpt>
      <trkpt lat="47.00692" lon="8.64847">
        <ele>460</ele>
        <time>2021-08-05T09:03:45.435Z</time>
      </trkpt>
      <trkpt lat="47.0069" lon="8.64846">
        <ele>460</ele>
        <time>2021-08-05T09:03:46.436Z</time>
      </trkpt>
      <trkpt lat="47.00689" lon="8.64844">
        <ele>460</ele>
        <time>2021-08-05T09:03:47.436Z</time>
      </trkpt>
      <trkpt lat="47.00688" lon="8.64844">
        <ele>460</ele>
        <time>2021-08-05T09:03:48.436Z</time>
      </trkpt>
      <trkpt lat="47.00687" lon="8.64843">
        <ele>461</ele>
        <time>2021-08-05T09:03:49.435Z</time>
      </trkpt>
      <trkpt lat="47.00686" lon="8.64843">
        <ele>461</ele>
        <time>2021-08-05T09:03:50.435Z</time>
      </trkpt>
      <trkpt lat="47.00684" lon="8.64842">
        <ele>462</ele>
        <time>2021-08-05T09:03:51.435Z</time>
      </trkpt>
      <trkpt lat="47.00683" lon="8.64842">
        <ele>462</ele>
        <time>2021-08-05T09:03:52.435Z</time>
      </trkpt>
      <trkpt lat="47.00682" lon="8.64841">
        <ele>462</ele>
        <time>2021-08-05T09:03:53.436Z</time>
      </trkpt>
      <trkpt lat="47.00681" lon="8.6484">
        <ele>462</ele>
        <time>2021-08-05T09:03:54.436Z</time>
      </trkpt>
      <trkpt lat="47.0068" lon="8.6484">
        <ele>462</ele>
        <time>2021-08-05T09:03:55.436Z</time>
      </trkpt>
      <trkpt lat="47.00679" lon="8.6484">
        <ele>462</ele>
        <time>2021-08-05T09:03:56.435Z</time>
      </trkpt>
      <trkpt lat="47.00678" lon="8.64839">
        <ele>461</ele>
        <time>2021-08-05T09:03:57.435Z</time>
      </trkpt>
      <trkpt lat="47.00677" lon="8.64838">
        <ele>460</ele>
        <time>2021-08-05T09:03:58.436Z</time>
      </trkpt>
      <trkpt lat="47.00676" lon="8.64837">
        <ele>460</ele>
        <time>2021-08-05T09:03:59.436Z</time>
      </trkpt>
      <trkpt lat="47.00676" lon="8.64837">
        <ele>459</ele>
        <time>2021-08-05T09:04:00.435Z</time>
      </trkpt>
      <trkpt lat="47.00674" lon="8.64836">
        <ele>460</ele>
        <time>2021-08-05T09:04:01.436Z</time>
      </trkpt>
      <trkpt lat="47.00673" lon="8.64836">
        <ele>460</ele>
        <time>2021-08-05T09:04:02.436Z</time>
      </trkpt>
      <trkpt lat="47.00672" lon="8.64835">
        <ele>460</ele>
        <time>2021-08-05T09:04:03.435Z</time>
      </trkpt>
      <trkpt lat="47.00671" lon="8.64834">
        <ele>460</ele>
        <time>2021-08-05T09:04:04.436Z</time>
      </trkpt>
      <trkpt lat="47.0067" lon="8.64833">
        <ele>460</ele>
        <time>2021-08-05T09:04:05.436Z</time>
      </trkpt>
      <trkpt lat="47.00669" lon="8.64833">
        <ele>460</ele>
        <time>2021-08-05T09:04:06.435Z</time>
      </trkpt>
      <trkpt lat="47.00667" lon="8.64833">
        <ele>460</ele>
        <time>2021-08-05T09:04:07.436Z</time>
      </trkpt>
      <trkpt lat="47.00666" lon="8.64832">
        <ele>460</ele>
        <time>2021-08-05T09:04:08.435Z</time>
      </trkpt>
      <trkpt lat="47.00665" lon="8.64832">
        <ele>460</ele>
        <time>2021-08-05T09:04:09.436Z</time>
      </trkpt>
      <trkpt lat="47.00664" lon="8.64832">
        <ele>460</ele>
        <time>2021-08-05T09:04:10.436Z</time>
      </trkpt>
      <trkpt lat="47.00663" lon="8.64831">
        <ele>459</ele>
        <time>2021-08-05T09:04:11.436Z</time>
      </trkpt>
      <trkpt lat="47.00663" lon="8.64831">
        <ele>459</ele>
        <time>2021-08-05T09:04:12.435Z</time>
      </trkpt>
      <trkpt lat="47.00661" lon="8.6483">
        <ele>458</ele>
        <time>2021-08-05T09:04:13.435Z</time>
      </trkpt>
      <trkpt lat="47.0066" lon="8.6483">
        <ele>458</ele>
        <time>2021-08-05T09:04:14.435Z</time>
      </trkpt>
      <trkpt lat="47.00659" lon="8.64829">
        <ele>458</ele>
        <time>2021-08-05T09:04:15.436Z</time>
      </trkpt>
      <trkpt lat="47.00658" lon="8.64829">
        <ele>458</ele>
        <time>2021-08-05T09:04:16.436Z</time>
      </trkpt>
      <trkpt lat="47.00656" lon="8.64827">
        <ele>458</ele>
        <time>2021-08-05T09:04:17.436Z</time>
      </trkpt>
      <trkpt lat="47.00655" lon="8.64826">
        <ele>459</ele>
        <time>2021-08-05T09:04:18.435Z</time>
      </trkpt>
      <trkpt lat="47.00654" lon="8.64825">
        <ele>459</ele>
        <time>2021-08-05T09:04:19.436Z</time>
      </trkpt>
      <trkpt lat="47.00653" lon="8.64825">
        <ele>459</ele>
        <time>2021-08-05T09:04:20.436Z</time>
      </trkpt>
      <trkpt lat="47.00652" lon="8.64825">
        <ele>459</ele>
        <time>2021-08-05T09:04:21.435Z</time>
      </trkpt>
      <trkpt lat="47.00651" lon="8.64825">
        <ele>459</ele>
        <time>2021-08-05T09:04:22.435Z</time>
      </trkpt>
      <trkpt lat="47.00651" lon="8.64825">
        <ele>458</ele>
        <time>2021-08-05T09:04:23.436Z</time>
      </trkpt>
      <trkpt lat="47.0065" lon="8.64824">
        <ele>457</ele>
        <time>2021-08-05T09:04:24.436Z</time>
      </trkpt>
      <trkpt lat="47.00649" lon="8.64823">
        <ele>457</ele>
        <time>2021-08-05T09:04:25.435Z</time>
      </trkpt>
      <trkpt lat="47.00648" lon="8.64821">
        <ele>456</ele>
        <time>2021-08-05T09:04:26.436Z</time>
      </trkpt>
      <trkpt lat="47.00647" lon="8.6482">
        <ele>456</ele>
        <time>2021-08-05T09:04:27.436Z</time>
      </trkpt>
      <trkpt lat="47.00646" lon="8.6482">
        <ele>456</ele>
        <time>2021-08-05T09:04:28.435Z</time>
      </trkpt>
      <trkpt lat="47.00646" lon="8.64821">
        <ele>456</ele>
        <time>2021-08-05T09:04:29.436Z</time>
      </trkpt>
      <trkpt lat="47.00646" lon="8.6482">
        <ele>456</ele>
        <time>2021-08-05T09:04:30.436Z</time>
      </trkpt>
      <trkpt lat="47.00645" lon="8.6482">
        <ele>456</ele>
        <time>2021-08-05T09:04:31.435Z</time>
      </trkpt>
      <trkpt lat="47.00644" lon="8.64819">
        <ele>457</ele>
        <time>2021-08-05T09:04:32.435Z</time>
      </trkpt>
      <trkpt lat="47.00643" lon="8.64818">
        <ele>457</ele>
        <time>2021-08-05T09:04:33.436Z</time>
      </trkpt>
      <trkpt lat="47.00642" lon="8.64817">
        <ele>457</ele>
        <time>2021-08-05T09:04:34.435Z</time>
      </trkpt>
      <trkpt lat="47.00641" lon="8.64816">
        <ele>457</ele>
        <time>2021-08-05T09:04:35.436Z</time>
      </trkpt>
      <trkpt lat="47.0064" lon="8.64815">
        <ele>457</ele>
        <time>2021-08-05T09:04:36.435Z</time>
      </trkpt>
      <trkpt lat="47.00639" lon="8.64815">
        <ele>458</ele>
        <time>2021-08-05T09:04:37.435Z</time>
      </trkpt>
      <trkpt lat="47.00638" lon="8.64816">
        <ele>458</ele>
        <time>2021-08-05T09:04:38.435Z</time>
      </trkpt>
      <trkpt lat="47.00637" lon="8.64815">
        <ele>458</ele>
        <time>2021-08-05T09:04:39.435Z</time>
      </trkpt>
      <trkpt lat="47.00636" lon="8.64814">
        <ele>458</ele>
        <time>2021-08-05T09:04:40.435Z</time>
      </trkpt>
      <trkpt lat="47.00635" lon="8.64813">
        <ele>458</ele>
        <time>2021-08-05T09:04:41.436Z</time>
      </trkpt>
      <trkpt lat="47.00634" lon="8.64812">
        <ele>458</ele>
        <time>2021-08-05T09:04:42.435Z</time>
      </trkpt>
      <trkpt lat="47.00633" lon="8.64811">
        <ele>458</ele>
        <time>2021-08-05T09:04:43.436Z</time>
      </trkpt>
      <trkpt lat="47.00632" lon="8.6481">
        <ele>457</ele>
        <time>2021-08-05T09:04:44.436Z</time>
      </trkpt>
      <trkpt lat="47.00631" lon="8.6481">
        <ele>457</ele>
        <time>2021-08-05T09:04:45.435Z</time>
      </trkpt>
      <trkpt lat="47.0063" lon="8.64809">
        <ele>457</ele>
        <time>2021-08-05T09:04:46.436Z</time>
      </trkpt>
      <trkpt lat="47.00629" lon="8.64808">
        <ele>457</ele>
        <time>2021-08-05T09:04:47.436Z</time>
      </trkpt>
      <trkpt lat="47.00628" lon="8.64807">
        <ele>457</ele>
        <time>2021-08-05T09:04:48.436Z</time>
      </trkpt>
      <trkpt lat="47.00628" lon="8.64806">
        <ele>457</ele>
        <time>2021-08-05T09:04:49.436Z</time>
      </trkpt>
      <trkpt lat="47.00627" lon="8.64804">
        <ele>457</ele>
        <time>2021-08-05T09:04:50.436Z</time>
      </trkpt>
      <trkpt lat="47.00626" lon="8.64803">
        <ele>457</ele>
        <time>2021-08-05T09:04:51.436Z</time>
      </trkpt>
      <trkpt lat="47.00625" lon="8.64801">
        <ele>457</ele>
        <time>2021-08-05T09:04:52.436Z</time>
      </trkpt>
      <trkpt lat="47.00624" lon="8.64799">
        <ele>458</ele>
        <time>2021-08-05T09:04:53.436Z</time>
      </trkpt>
      <trkpt lat="47.00624" lon="8.64798">
        <ele>458</ele>
        <time>2021-08-05T09:04:54.436Z</time>
      </trkpt>
      <trkpt lat="47.00623" lon="8.64796">
        <ele>459</ele>
        <time>2021-08-05T09:04:55.436Z</time>
      </trkpt>
      <trkpt lat="47.00622" lon="8.64795">
        <ele>460</ele>
        <time>2021-08-05T09:04:56.436Z</time>
      </trkpt>
      <trkpt lat="47.0062" lon="8.64793">
        <ele>461</ele>
        <time>2021-08-05T09:04:57.436Z</time>
      </trkpt>
      <trkpt lat="47.00619" lon="8.64792">
        <ele>461</ele>
        <time>2021-08-05T09:04:58.435Z</time>
      </trkpt>
      <trkpt lat="47.00619" lon="8.64791">
        <ele>461</ele>
        <time>2021-08-05T09:04:59.436Z</time>
      </trkpt>
      <trkpt lat="47.00618" lon="8.6479">
        <ele>461</ele>
        <time>2021-08-05T09:05:00.436Z</time>
      </trkpt>
      <trkpt lat="47.00617" lon="8.64788">
        <ele>461</ele>
        <time>2021-08-05T09:05:01.436Z</time>
      </trkpt>
      <trkpt lat="47.00616" lon="8.64787">
        <ele>461</ele>
        <time>2021-08-05T09:05:02.436Z</time>
      </trkpt>
      <trkpt lat="47.00616" lon="8.64786">
        <ele>460</ele>
        <time>2021-08-05T09:05:03.436Z</time>
      </trkpt>
      <trkpt lat="47.00615" lon="8.64785">
        <ele>460</ele>
        <time>2021-08-05T09:05:04.436Z</time>
      </trkpt>
      <trkpt lat="47.00614" lon="8.64784">
        <ele>459</ele>
        <time>2021-08-05T09:05:05.436Z</time>
      </trkpt>
      <trkpt lat="47.00613" lon="8.64783">
        <ele>459</ele>
        <time>2021-08-05T09:05:06.436Z</time>
      </trkpt>
      <trkpt lat="47.00613" lon="8.64782">
        <ele>458</ele>
        <time>2021-08-05T09:05:07.436Z</time>
      </trkpt>
      <trkpt lat="47.00612" lon="8.64781">
        <ele>458</ele>
        <time>2021-08-05T09:05:08.436Z</time>
      </trkpt>
      <trkpt lat="47.00612" lon="8.6478">
        <ele>459</ele>
        <time>2021-08-05T09:05:09.435Z</time>
      </trkpt>
      <trkpt lat="47.00611" lon="8.64779">
        <ele>459</ele>
        <time>2021-08-05T09:05:10.436Z</time>
      </trkpt>
      <trkpt lat="47.0061" lon="8.64777">
        <ele>459</ele>
        <time>2021-08-05T09:05:11.435Z</time>
      </trkpt>
      <trkpt lat="47.00609" lon="8.64777">
        <ele>460</ele>
        <time>2021-08-05T09:05:12.436Z</time>
      </trkpt>
      <trkpt lat="47.00609" lon="8.64776">
        <ele>460</ele>
        <time>2021-08-05T09:05:13.436Z</time>
      </trkpt>
      <trkpt lat="47.00608" lon="8.64775">
        <ele>460</ele>
        <time>2021-08-05T09:05:14.436Z</time>
      </trkpt>
      <trkpt lat="47.00608" lon="8.64774">
        <ele>459</ele>
        <time>2021-08-05T09:05:15.436Z</time>
      </trkpt>
      <trkpt lat="47.00607" lon="8.64772">
        <ele>459</ele>
        <time>2021-08-05T09:05:16.436Z</time>
      </trkpt>
      <trkpt lat="47.00606" lon="8.64771">
        <ele>459</ele>
        <time>2021-08-05T09:05:17.436Z</time>
      </trkpt>
      <trkpt lat="47.00605" lon="8.6477">
        <ele>459</ele>
        <time>2021-08-05T09:05:18.436Z</time>
      </trkpt>
      <trkpt lat="47.00605" lon="8.64769">
        <ele>459</ele>
        <time>2021-08-05T09:05:19.435Z</time>
      </trkpt>
      <trkpt lat="47.00604" lon="8.64767">
        <ele>459</ele>
        <time>2021-08-05T09:05:20.436Z</time>
      </trkpt>
      <trkpt lat="47.00603" lon="8.64765">
        <ele>459</ele>
        <time>2021-08-05T09:05:21.436Z</time>
      </trkpt>
      <trkpt lat="47.00602" lon="8.64764">
        <ele>458</ele>
        <time>2021-08-05T09:05:22.435Z</time>
      </trkpt>
      <trkpt lat="47.00602" lon="8.64763">
        <ele>458</ele>
        <time>2021-08-05T09:05:23.436Z</time>
      </trkpt>
      <trkpt lat="47.00601" lon="8.64762">
        <ele>458</ele>
        <time>2021-08-05T09:05:24.436Z</time>
      </trkpt>
      <trkpt lat="47.00601" lon="8.64761">
        <ele>458</ele>
        <time>2021-08-05T09:05:25.436Z</time>
      </trkpt>
      <trkpt lat="47.006" lon="8.6476">
        <ele>458</ele>
        <time>2021-08-05T09:05:26.435Z</time>
      </trkpt>
      <trkpt lat="47.00599" lon="8.64759">
        <ele>458</ele>
        <time>2021-08-05T09:05:27.436Z</time>
      </trkpt>
      <trkpt lat="47.00598" lon="8.64758">
        <ele>457</ele>
        <time>2021-08-05T09:05:28.436Z</time>
      </trkpt>
      <trkpt lat="47.00597" lon="8.64756">
        <ele>457</ele>
        <time>2021-08-05T09:05:29.436Z</time>
      </trkpt>
      <trkpt lat="47.00597" lon="8.64754">
        <ele>456</ele>
        <time>2021-08-05T09:05:30.436Z</time>
      </trkpt>
      <trkpt lat="47.00596" lon="8.64753">
        <ele>456</ele>
        <time>2021-08-05T09:05:31.436Z</time>
      </trkpt>
      <trkpt lat="47.00595" lon="8.64751">
        <ele>455</ele>
        <time>2021-08-05T09:05:32.436Z</time>
      </trkpt>
      <trkpt lat="47.00595" lon="8.6475">
        <ele>455</ele>
        <time>2021-08-05T09:05:33.435Z</time>
      </trkpt>
      <trkpt lat="47.00594" lon="8.64748">
        <ele>454</ele>
        <time>2021-08-05T09:05:34.435Z</time>
      </trkpt>
      <trkpt lat="47.00593" lon="8.64746">
        <ele>454</ele>
        <time>2021-08-05T09:05:35.435Z</time>
      </trkpt>
      <trkpt lat="47.00592" lon="8.64744">
        <ele>454</ele>
        <time>2021-08-05T09:05:36.435Z</time>
      </trkpt>
      <trkpt lat="47.00591" lon="8.64743">
        <ele>454</ele>
        <time>2021-08-05T09:05:37.436Z</time>
      </trkpt>
      <trkpt lat="47.00591" lon="8.64742">
        <ele>454</ele>
        <time>2021-08-05T09:05:38.436Z</time>
      </trkpt>
      <trkpt lat="47.0059" lon="8.64741">
        <ele>454</ele>
        <time>2021-08-05T09:05:39.436Z</time>
      </trkpt>
      <trkpt lat="47.00589" lon="8.6474">
        <ele>455</ele>
        <time>2021-08-05T09:05:40.436Z</time>
      </trkpt>
      <trkpt lat="47.00589" lon="8.64739">
        <ele>455</ele>
        <time>2021-08-05T09:05:41.436Z</time>
      </trkpt>
      <trkpt lat="47.00588" lon="8.64739">
        <ele>455</ele>
        <time>2021-08-05T09:05:42.436Z</time>
      </trkpt>
      <trkpt lat="47.00587" lon="8.64737">
        <ele>455</ele>
        <time>2021-08-05T09:05:43.436Z</time>
      </trkpt>
      <trkpt lat="47.00586" lon="8.64735">
        <ele>455</ele>
        <time>2021-08-05T09:05:44.436Z</time>
      </trkpt>
      <trkpt lat="47.00584" lon="8.64733">
        <ele>455</ele>
        <time>2021-08-05T09:05:45.436Z</time>
      </trkpt>
      <trkpt lat="47.00583" lon="8.64731">
        <ele>456</ele>
        <time>2021-08-05T09:05:46.436Z</time>
      </trkpt>
      <trkpt lat="47.00582" lon="8.64731">
        <ele>456</ele>
        <time>2021-08-05T09:05:47.435Z</time>
      </trkpt>
      <trkpt lat="47.00581" lon="8.6473">
        <ele>456</ele>
        <time>2021-08-05T09:05:48.436Z</time>
      </trkpt>
      <trkpt lat="47.0058" lon="8.64729">
        <ele>457</ele>
        <time>2021-08-05T09:05:49.435Z</time>
      </trkpt>
      <trkpt lat="47.00579" lon="8.64728">
        <ele>457</ele>
        <time>2021-08-05T09:05:50.435Z</time>
      </trkpt>
      <trkpt lat="47.00578" lon="8.64726">
        <ele>457</ele>
        <time>2021-08-05T09:05:51.435Z</time>
      </trkpt>
      <trkpt lat="47.00577" lon="8.64725">
        <ele>458</ele>
        <time>2021-08-05T09:05:52.436Z</time>
      </trkpt>
      <trkpt lat="47.00576" lon="8.64725">
        <ele>458</ele>
        <time>2021-08-05T09:05:53.435Z</time>
      </trkpt>
      <trkpt lat="47.00575" lon="8.64722">
        <ele>458</ele>
        <time>2021-08-05T09:05:54.435Z</time>
      </trkpt>
      <trkpt lat="47.00573" lon="8.64721">
        <ele>458</ele>
        <time>2021-08-05T09:05:55.436Z</time>
      </trkpt>
      <trkpt lat="47.00573" lon="8.64719">
        <ele>458</ele>
        <time>2021-08-05T09:05:56.435Z</time>
      </trkpt>
      <trkpt lat="47.00572" lon="8.64718">
        <ele>458</ele>
        <time>2021-08-05T09:05:57.436Z</time>
      </trkpt>
      <trkpt lat="47.00572" lon="8.64717">
        <ele>457</ele>
        <time>2021-08-05T09:05:58.436Z</time>
      </trkpt>
      <trkpt lat="47.00571" lon="8.64715">
        <ele>457</ele>
        <time>2021-08-05T09:05:59.436Z</time>
      </trkpt>
      <trkpt lat="47.00571" lon="8.64714">
        <ele>457</ele>
        <time>2021-08-05T09:06:00.436Z</time>
      </trkpt>
      <trkpt lat="47.0057" lon="8.64713">
        <ele>457</ele>
        <time>2021-08-05T09:06:01.436Z</time>
      </trkpt>
      <trkpt lat="47.00569" lon="8.64712">
        <ele>457</ele>
        <time>2021-08-05T09:06:02.435Z</time>
      </trkpt>
      <trkpt lat="47.00569" lon="8.64711">
        <ele>457</ele>
        <time>2021-08-05T09:06:03.436Z</time>
      </trkpt>
      <trkpt lat="47.00568" lon="8.64709">
        <ele>457</ele>
        <time>2021-08-05T09:06:04.436Z</time>
      </trkpt>
      <trkpt lat="47.00567" lon="8.64708">
        <ele>457</ele>
        <time>2021-08-05T09:06:05.435Z</time>
      </trkpt>
      <trkpt lat="47.00567" lon="8.64707">
        <ele>458</ele>
        <time>2021-08-05T09:06:06.436Z</time>
      </trkpt>
      <trkpt lat="47.00566" lon="8.64706">
        <ele>458</ele>
        <time>2021-08-05T09:06:07.435Z</time>
      </trkpt>
      <trkpt lat="47.00565" lon="8.64705">
        <ele>459</ele>
        <time>2021-08-05T09:06:08.436Z</time>
      </trkpt>
      <trkpt lat="47.00564" lon="8.64704">
        <ele>459</ele>
        <time>2021-08-05T09:06:09.435Z</time>
      </trkpt>
      <trkpt lat="47.00564" lon="8.64703">
        <ele>458</ele>
        <time>2021-08-05T09:06:10.436Z</time>
      </trkpt>
      <trkpt lat="47.00563" lon="8.64701">
        <ele>458</ele>
        <time>2021-08-05T09:06:11.435Z</time>
      </trkpt>
      <trkpt lat="47.00562" lon="8.647">
        <ele>458</ele>
        <time>2021-08-05T09:06:12.436Z</time>
      </trkpt>
      <trkpt lat="47.00562" lon="8.64699">
        <ele>458</ele>
        <time>2021-08-05T09:06:13.436Z</time>
      </trkpt>
      <trkpt lat="47.00561" lon="8.64698">
        <ele>457</ele>
        <time>2021-08-05T09:06:14.435Z</time>
      </trkpt>
      <trkpt lat="47.00561" lon="8.64698">
        <ele>457</ele>
        <time>2021-08-05T09:06:15.436Z</time>
      </trkpt>
      <trkpt lat="47.0056" lon="8.64697">
        <ele>456</ele>
        <time>2021-08-05T09:06:16.435Z</time>
      </trkpt>
      <trkpt lat="47.00559" lon="8.64696">
        <ele>456</ele>
        <time>2021-08-05T09:06:17.436Z</time>
      </trkpt>
      <trkpt lat="47.00559" lon="8.64696">
        <ele>455</ele>
        <time>2021-08-05T09:06:18.435Z</time>
      </trkpt>
      <trkpt lat="47.00559" lon="8.64695">
        <ele>455</ele>
        <time>2021-08-05T09:06:19.436Z</time>
      </trkpt>
      <trkpt lat="47.00558" lon="8.64695">
        <ele>455</ele>
        <time>2021-08-05T09:06:20.436Z</time>
      </trkpt>
      <trkpt lat="47.00558" lon="8.64694">
        <ele>454</ele>
        <time>2021-08-05T09:06:21.436Z</time>
      </trkpt>
      <trkpt lat="47.00557" lon="8.64692">
        <ele>454</ele>
        <time>2021-08-05T09:06:22.435Z</time>
      </trkpt>
      <trkpt lat="47.00558" lon="8.64691">
        <ele>454</ele>
        <time>2021-08-05T09:06:23.436Z</time>
      </trkpt>
      <trkpt lat="47.00558" lon="8.64689">
        <ele>453</ele>
        <time>2021-08-05T09:06:24.436Z</time>
      </trkpt>
      <trkpt lat="47.00559" lon="8.64688">
        <ele>453</ele>
        <time>2021-08-05T09:06:25.435Z</time>
      </trkpt>
      <trkpt lat="47.00559" lon="8.64686">
        <ele>454</ele>
        <time>2021-08-05T09:06:26.436Z</time>
      </trkpt>
      <trkpt lat="47.00559" lon="8.64685">
        <ele>454</ele>
        <time>2021-08-05T09:06:27.435Z</time>
      </trkpt>
      <trkpt lat="47.00559" lon="8.64683">
        <ele>454</ele>
        <time>2021-08-05T09:06:28.435Z</time>
      </trkpt>
      <trkpt lat="47.00558" lon="8.64682">
        <ele>454</ele>
        <time>2021-08-05T09:06:29.435Z</time>
      </trkpt>
      <trkpt lat="47.00558" lon="8.64681">
        <ele>454</ele>
        <time>2021-08-05T09:06:30.436Z</time>
      </trkpt>
      <trkpt lat="47.00557" lon="8.6468">
        <ele>454</ele>
        <time>2021-08-05T09:06:31.435Z</time>
      </trkpt>
      <trkpt lat="47.00557" lon="8.6468">
        <ele>454</ele>
        <time>2021-08-05T09:06:32.436Z</time>
      </trkpt>
      <trkpt lat="47.00556" lon="8.64679">
        <ele>454</ele>
        <time>2021-08-05T09:06:33.435Z</time>
      </trkpt>
      <trkpt lat="47.00555" lon="8.64677">
        <ele>453</ele>
        <time>2021-08-05T09:06:34.436Z</time>
      </trkpt>
      <trkpt lat="47.00555" lon="8.64676">
        <ele>453</ele>
        <time>2021-08-05T09:06:35.435Z</time>
      </trkpt>
      <trkpt lat="47.00554" lon="8.64676">
        <ele>453</ele>
        <time>2021-08-05T09:06:36.436Z</time>
      </trkpt>
      <trkpt lat="47.00554" lon="8.64674">
        <ele>453</ele>
        <time>2021-08-05T09:06:37.435Z</time>
      </trkpt>
      <trkpt lat="47.00553" lon="8.64673">
        <ele>453</ele>
        <time>2021-08-05T09:06:38.436Z</time>
      </trkpt>
      <trkpt lat="47.00552" lon="8.64672">
        <ele>453</ele>
        <time>2021-08-05T09:06:39.436Z</time>
      </trkpt>
      <trkpt lat="47.00552" lon="8.64671">
        <ele>454</ele>
        <time>2021-08-05T09:06:40.436Z</time>
      </trkpt>
      <trkpt lat="47.00551" lon="8.6467">
        <ele>454</ele>
        <time>2021-08-05T09:06:41.436Z</time>
      </trkpt>
      <trkpt lat="47.0055" lon="8.64669">
        <ele>454</ele>
        <time>2021-08-05T09:06:42.436Z</time>
      </trkpt>
      <trkpt lat="47.00549" lon="8.64667">
        <ele>454</ele>
        <time>2021-08-05T09:06:43.436Z</time>
      </trkpt>
      <trkpt lat="47.00548" lon="8.64666">
        <ele>454</ele>
        <time>2021-08-05T09:06:44.436Z</time>
      </trkpt>
      <trkpt lat="47.00547" lon="8.64665">
        <ele>454</ele>
        <time>2021-08-05T09:06:45.435Z</time>
      </trkpt>
      <trkpt lat="47.00546" lon="8.64663">
        <ele>454</ele>
        <time>2021-08-05T09:06:46.436Z</time>
      </trkpt>
      <trkpt lat="47.00545" lon="8.64662">
        <ele>455</ele>
        <time>2021-08-05T09:06:47.436Z</time>
      </trkpt>
      <trkpt lat="47.00544" lon="8.64661">
        <ele>455</ele>
        <time>2021-08-05T09:06:48.436Z</time>
      </trkpt>
      <trkpt lat="47.00543" lon="8.64659">
        <ele>455</ele>
        <time>2021-08-05T09:06:49.436Z</time>
      </trkpt>
      <trkpt lat="47.00543" lon="8.64658">
        <ele>456</ele>
        <time>2021-08-05T09:06:50.435Z</time>
      </trkpt>
      <trkpt lat="47.00542" lon="8.64656">
        <ele>456</ele>
        <time>2021-08-05T09:06:51.436Z</time>
      </trkpt>
      <trkpt lat="47.00541" lon="8.64655">
        <ele>456</ele>
        <time>2021-08-05T09:06:52.435Z</time>
      </trkpt>
      <trkpt lat="47.0054" lon="8.64654">
        <ele>456</ele>
        <time>2021-08-05T09:06:53.436Z</time>
      </trkpt>
      <trkpt lat="47.00539" lon="8.64653">
        <ele>455</ele>
        <time>2021-08-05T09:06:54.435Z</time>
      </trkpt>
      <trkpt lat="47.00539" lon="8.64651">
        <ele>455</ele>
        <time>2021-08-05T09:06:55.436Z</time>
      </trkpt>
      <trkpt lat="47.00538" lon="8.6465">
        <ele>455</ele>
        <time>2021-08-05T09:06:56.436Z</time>
      </trkpt>
      <trkpt lat="47.00537" lon="8.64648">
        <ele>456</ele>
        <time>2021-08-05T09:06:57.436Z</time>
      </trkpt>
      <trkpt lat="47.00536" lon="8.64647">
        <ele>456</ele>
        <time>2021-08-05T09:06:58.436Z</time>
      </trkpt>
      <trkpt lat="47.00535" lon="8.64646">
        <ele>456</ele>
        <time>2021-08-05T09:06:59.436Z</time>
      </trkpt>
      <trkpt lat="47.00534" lon="8.64644">
        <ele>456</ele>
        <time>2021-08-05T09:07:00.435Z</time>
      </trkpt>
      <trkpt lat="47.00533" lon="8.64643">
        <ele>456</ele>
        <time>2021-08-05T09:07:01.435Z</time>
      </trkpt>
      <trkpt lat="47.00533" lon="8.64642">
        <ele>456</ele>
        <time>2021-08-05T09:07:02.435Z</time>
      </trkpt>
      <trkpt lat="47.00532" lon="8.6464">
        <ele>456</ele>
        <time>2021-08-05T09:07:03.436Z</time>
      </trkpt>
      <trkpt lat="47.00531" lon="8.64639">
        <ele>456</ele>
        <time>2021-08-05T09:07:04.435Z</time>
      </trkpt>
      <trkpt lat="47.0053" lon="8.64638">
        <ele>455</ele>
        <time>2021-08-05T09:07:05.436Z</time>
      </trkpt>
      <trkpt lat="47.0053" lon="8.64637">
        <ele>455</ele>
        <time>2021-08-05T09:07:06.436Z</time>
      </trkpt>
      <trkpt lat="47.00529" lon="8.64637">
        <ele>455</ele>
        <time>2021-08-05T09:07:07.435Z</time>
      </trkpt>
      <trkpt lat="47.00528" lon="8.64637">
        <ele>455</ele>
        <time>2021-08-05T09:07:08.435Z</time>
      </trkpt>
      <trkpt lat="47.00528" lon="8.64637">
        <ele>455</ele>
        <time>2021-08-05T09:07:09.436Z</time>
      </trkpt>
      <trkpt lat="47.00528" lon="8.64639">
        <ele>454</ele>
        <time>2021-08-05T09:07:10.437Z</time>
      </trkpt>
      <trkpt lat="47.00528" lon="8.64638">
        <ele>454</ele>
        <time>2021-08-05T09:07:11.438Z</time>
      </trkpt>
      <trkpt lat="47.00527" lon="8.64636">
        <ele>454</ele>
        <time>2021-08-05T09:07:12.438Z</time>
      </trkpt>
      <trkpt lat="47.00526" lon="8.64635">
        <ele>454</ele>
        <time>2021-08-05T09:07:13.437Z</time>
      </trkpt>
      <trkpt lat="47.00525" lon="8.64634">
        <ele>454</ele>
        <time>2021-08-05T09:07:14.438Z</time>
      </trkpt>
      <trkpt lat="47.00524" lon="8.64633">
        <ele>454</ele>
        <time>2021-08-05T09:07:15.438Z</time>
      </trkpt>
      <trkpt lat="47.00523" lon="8.64632">
        <ele>454</ele>
        <time>2021-08-05T09:07:16.438Z</time>
      </trkpt>
      <trkpt lat="47.00522" lon="8.64631">
        <ele>454</ele>
        <time>2021-08-05T09:07:17.437Z</time>
      </trkpt>
      <trkpt lat="47.00521" lon="8.6463">
        <ele>454</ele>
        <time>2021-08-05T09:07:18.438Z</time>
      </trkpt>
      <trkpt lat="47.0052" lon="8.64629">
        <ele>454</ele>
        <time>2021-08-05T09:07:19.438Z</time>
      </trkpt>
      <trkpt lat="47.00519" lon="8.64628">
        <ele>455</ele>
        <time>2021-08-05T09:07:20.438Z</time>
      </trkpt>
      <trkpt lat="47.00518" lon="8.64626">
        <ele>455</ele>
        <time>2021-08-05T09:07:21.438Z</time>
      </trkpt>
      <trkpt lat="47.00517" lon="8.64625">
        <ele>456</ele>
        <time>2021-08-05T09:07:22.438Z</time>
      </trkpt>
      <trkpt lat="47.00516" lon="8.64624">
        <ele>456</ele>
        <time>2021-08-05T09:07:23.438Z</time>
      </trkpt>
      <trkpt lat="47.00515" lon="8.64623">
        <ele>456</ele>
        <time>2021-08-05T09:07:24.438Z</time>
      </trkpt>
      <trkpt lat="47.00515" lon="8.64622">
        <ele>456</ele>
        <time>2021-08-05T09:07:25.438Z</time>
      </trkpt>
      <trkpt lat="47.00514" lon="8.64621">
        <ele>457</ele>
        <time>2021-08-05T09:07:26.438Z</time>
      </trkpt>
      <trkpt lat="47.00512" lon="8.6462">
        <ele>457</ele>
        <time>2021-08-05T09:07:27.438Z</time>
      </trkpt>
      <trkpt lat="47.00511" lon="8.64619">
        <ele>457</ele>
        <time>2021-08-05T09:07:28.438Z</time>
      </trkpt>
      <trkpt lat="47.0051" lon="8.64618">
        <ele>456</ele>
        <time>2021-08-05T09:07:29.438Z</time>
      </trkpt>
      <trkpt lat="47.00509" lon="8.64617">
        <ele>456</ele>
        <time>2021-08-05T09:07:30.437Z</time>
      </trkpt>
      <trkpt lat="47.00508" lon="8.64616">
        <ele>456</ele>
        <time>2021-08-05T09:07:31.437Z</time>
      </trkpt>
      <trkpt lat="47.00507" lon="8.64615">
        <ele>455</ele>
        <time>2021-08-05T09:07:32.438Z</time>
      </trkpt>
      <trkpt lat="47.00506" lon="8.64614">
        <ele>455</ele>
        <time>2021-08-05T09:07:33.438Z</time>
      </trkpt>
      <trkpt lat="47.00505" lon="8.64612">
        <ele>454</ele>
        <time>2021-08-05T09:07:34.438Z</time>
      </trkpt>
      <trkpt lat="47.00504" lon="8.64611">
        <ele>454</ele>
        <time>2021-08-05T09:07:35.438Z</time>
      </trkpt>
      <trkpt lat="47.00503" lon="8.6461">
        <ele>454</ele>
        <time>2021-08-05T09:07:36.437Z</time>
      </trkpt>
      <trkpt lat="47.00502" lon="8.64608">
        <ele>454</ele>
        <time>2021-08-05T09:07:37.438Z</time>
      </trkpt>
      <trkpt lat="47.00501" lon="8.64608">
        <ele>454</ele>
        <time>2021-08-05T09:07:38.438Z</time>
      </trkpt>
      <trkpt lat="47.005" lon="8.64607">
        <ele>454</ele>
        <time>2021-08-05T09:07:39.437Z</time>
      </trkpt>
      <trkpt lat="47.00499" lon="8.64607">
        <ele>454</ele>
        <time>2021-08-05T09:07:40.438Z</time>
      </trkpt>
      <trkpt lat="47.00498" lon="8.64606">
        <ele>455</ele>
        <time>2021-08-05T09:07:41.438Z</time>
      </trkpt>
      <trkpt lat="47.00496" lon="8.64605">
        <ele>455</ele>
        <time>2021-08-05T09:07:42.438Z</time>
      </trkpt>
      <trkpt lat="47.00495" lon="8.64604">
        <ele>456</ele>
        <time>2021-08-05T09:07:43.438Z</time>
      </trkpt>
      <trkpt lat="47.00495" lon="8.64603">
        <ele>456</ele>
        <time>2021-08-05T09:07:44.438Z</time>
      </trkpt>
      <trkpt lat="47.00494" lon="8.64601">
        <ele>457</ele>
        <time>2021-08-05T09:07:45.437Z</time>
      </trkpt>
      <trkpt lat="47.00493" lon="8.64601">
        <ele>457</ele>
        <time>2021-08-05T09:07:46.437Z</time>
      </trkpt>
      <trkpt lat="47.00491" lon="8.646">
        <ele>457</ele>
        <time>2021-08-05T09:07:47.438Z</time>
      </trkpt>
      <trkpt lat="47.0049" lon="8.64599">
        <ele>458</ele>
        <time>2021-08-05T09:07:48.438Z</time>
      </trkpt>
      <trkpt lat="47.00489" lon="8.64599">
        <ele>458</ele>
        <time>2021-08-05T09:07:49.437Z</time>
      </trkpt>
      <trkpt lat="47.00487" lon="8.64599">
        <ele>458</ele>
        <time>2021-08-05T09:07:50.437Z</time>
      </trkpt>
      <trkpt lat="47.00486" lon="8.64599">
        <ele>459</ele>
        <time>2021-08-05T09:07:51.438Z</time>
      </trkpt>
      <trkpt lat="47.00485" lon="8.64598">
        <ele>459</ele>
        <time>2021-08-05T09:07:52.438Z</time>
      </trkpt>
      <trkpt lat="47.00484" lon="8.64598">
        <ele>459</ele>
        <time>2021-08-05T09:07:53.437Z</time>
      </trkpt>
      <trkpt lat="47.00483" lon="8.64597">
        <ele>459</ele>
        <time>2021-08-05T09:07:54.438Z</time>
      </trkpt>
      <trkpt lat="47.00482" lon="8.64596">
        <ele>460</ele>
        <time>2021-08-05T09:07:55.438Z</time>
      </trkpt>
      <trkpt lat="47.00481" lon="8.64596">
        <ele>460</ele>
        <time>2021-08-05T09:07:56.437Z</time>
      </trkpt>
      <trkpt lat="47.0048" lon="8.64595">
        <ele>460</ele>
        <time>2021-08-05T09:07:57.438Z</time>
      </trkpt>
      <trkpt lat="47.00479" lon="8.64595">
        <ele>460</ele>
        <time>2021-08-05T09:07:58.438Z</time>
      </trkpt>
      <trkpt lat="47.00478" lon="8.64594">
        <ele>459</ele>
        <time>2021-08-05T09:07:59.438Z</time>
      </trkpt>
      <trkpt lat="47.00478" lon="8.64592">
        <ele>459</ele>
        <time>2021-08-05T09:08:00.438Z</time>
      </trkpt>
      <trkpt lat="47.00477" lon="8.6459">
        <ele>458</ele>
        <time>2021-08-05T09:08:01.438Z</time>
      </trkpt>
      <trkpt lat="47.00476" lon="8.64588">
        <ele>458</ele>
        <time>2021-08-05T09:08:02.437Z</time>
      </trkpt>
      <trkpt lat="47.00475" lon="8.64587">
        <ele>457</ele>
        <time>2021-08-05T09:08:03.437Z</time>
      </trkpt>
      <trkpt lat="47.00474" lon="8.64586">
        <ele>457</ele>
        <time>2021-08-05T09:08:04.437Z</time>
      </trkpt>
      <trkpt lat="47.00473" lon="8.64586">
        <ele>456</ele>
        <time>2021-08-05T09:08:05.438Z</time>
      </trkpt>
      <trkpt lat="47.00472" lon="8.64586">
        <ele>456</ele>
        <time>2021-08-05T09:08:06.437Z</time>
      </trkpt>
      <trkpt lat="47.00472" lon="8.64584">
        <ele>456</ele>
        <time>2021-08-05T09:08:07.438Z</time>
      </trkpt>
      <trkpt lat="47.00471" lon="8.64582">
        <ele>455</ele>
        <time>2021-08-05T09:08:08.438Z</time>
      </trkpt>
      <trkpt lat="47.0047" lon="8.64581">
        <ele>455</ele>
        <time>2021-08-05T09:08:09.438Z</time>
      </trkpt>
      <trkpt lat="47.00469" lon="8.64579">
        <ele>455</ele>
        <time>2021-08-05T09:08:10.438Z</time>
      </trkpt>
      <trkpt lat="47.00469" lon="8.64578">
        <ele>455</ele>
        <time>2021-08-05T09:08:11.437Z</time>
      </trkpt>
      <trkpt lat="47.00468" lon="8.64577">
        <ele>455</ele>
        <time>2021-08-05T09:08:12.437Z</time>
      </trkpt>
      <trkpt lat="47.00467" lon="8.64576">
        <ele>455</ele>
        <time>2021-08-05T09:08:13.437Z</time>
      </trkpt>
      <trkpt lat="47.00466" lon="8.64574">
        <ele>454</ele>
        <time>2021-08-05T09:08:14.438Z</time>
      </trkpt>
      <trkpt lat="47.00465" lon="8.64573">
        <ele>454</ele>
        <time>2021-08-05T09:08:15.437Z</time>
      </trkpt>
      <trkpt lat="47.00465" lon="8.64571">
        <ele>454</ele>
        <time>2021-08-05T09:08:16.437Z</time>
      </trkpt>
      <trkpt lat="47.00463" lon="8.6457">
        <ele>454</ele>
        <time>2021-08-05T09:08:17.437Z</time>
      </trkpt>
      <trkpt lat="47.00462" lon="8.64569">
        <ele>453</ele>
        <time>2021-08-05T09:08:18.438Z</time>
      </trkpt>
      <trkpt lat="47.00461" lon="8.64568">
        <ele>453</ele>
        <time>2021-08-05T09:08:19.437Z</time>
      </trkpt>
      <trkpt lat="47.0046" lon="8.64567">
        <ele>453</ele>
        <time>2021-08-05T09:08:20.437Z</time>
      </trkpt>
      <trkpt lat="47.00459" lon="8.64566">
        <ele>453</ele>
        <time>2021-08-05T09:08:21.437Z</time>
      </trkpt>
      <trkpt lat="47.00458" lon="8.64565">
        <ele>453</ele>
        <time>2021-08-05T09:08:22.437Z</time>
      </trkpt>
      <trkpt lat="47.00458" lon="8.64564">
        <ele>453</ele>
        <time>2021-08-05T09:08:23.438Z</time>
      </trkpt>
      <trkpt lat="47.00457" lon="8.64563">
        <ele>453</ele>
        <time>2021-08-05T09:08:24.437Z</time>
      </trkpt>
      <trkpt lat="47.00456" lon="8.64562">
        <ele>453</ele>
        <time>2021-08-05T09:08:25.437Z</time>
      </trkpt>
      <trkpt lat="47.00455" lon="8.64561">
        <ele>453</ele>
        <time>2021-08-05T09:08:26.437Z</time>
      </trkpt>
      <trkpt lat="47.00454" lon="8.6456">
        <ele>454</ele>
        <time>2021-08-05T09:08:27.437Z</time>
      </trkpt>
      <trkpt lat="47.00453" lon="8.64559">
        <ele>453</ele>
        <time>2021-08-05T09:08:28.438Z</time>
      </trkpt>
      <trkpt lat="47.00452" lon="8.64559">
        <ele>453</ele>
        <time>2021-08-05T09:08:29.437Z</time>
      </trkpt>
      <trkpt lat="47.00451" lon="8.64558">
        <ele>453</ele>
        <time>2021-08-05T09:08:30.437Z</time>
      </trkpt>
      <trkpt lat="47.0045" lon="8.64556">
        <ele>453</ele>
        <time>2021-08-05T09:08:31.437Z</time>
      </trkpt>
      <trkpt lat="47.00449" lon="8.64555">
        <ele>452</ele>
        <time>2021-08-05T09:08:32.437Z</time>
      </trkpt>
      <trkpt lat="47.00448" lon="8.64554">
        <ele>452</ele>
        <time>2021-08-05T09:08:33.437Z</time>
      </trkpt>
      <trkpt lat="47.00447" lon="8.64554">
        <ele>452</ele>
        <time>2021-08-05T09:08:34.437Z</time>
      </trkpt>
      <trkpt lat="47.00446" lon="8.64553">
        <ele>452</ele>
        <time>2021-08-05T09:08:35.438Z</time>
      </trkpt>
      <trkpt lat="47.00445" lon="8.64552">
        <ele>452</ele>
        <time>2021-08-05T09:08:36.437Z</time>
      </trkpt>
      <trkpt lat="47.00444" lon="8.64551">
        <ele>452</ele>
        <time>2021-08-05T09:08:37.438Z</time>
      </trkpt>
      <trkpt lat="47.00443" lon="8.64549">
        <ele>452</ele>
        <time>2021-08-05T09:08:38.438Z</time>
      </trkpt>
      <trkpt lat="47.00442" lon="8.64548">
        <ele>453</ele>
        <time>2021-08-05T09:08:39.438Z</time>
      </trkpt>
      <trkpt lat="47.00441" lon="8.64547">
        <ele>453</ele>
        <time>2021-08-05T09:08:40.437Z</time>
      </trkpt>
      <trkpt lat="47.0044" lon="8.64547">
        <ele>453</ele>
        <time>2021-08-05T09:08:41.437Z</time>
      </trkpt>
      <trkpt lat="47.0044" lon="8.64547">
        <ele>454</ele>
        <time>2021-08-05T09:08:42.437Z</time>
      </trkpt>
      <trkpt lat="47.00439" lon="8.64547">
        <ele>454</ele>
        <time>2021-08-05T09:08:43.438Z</time>
      </trkpt>
      <trkpt lat="47.00439" lon="8.64547">
        <ele>454</ele>
        <time>2021-08-05T09:08:44.438Z</time>
      </trkpt>
      <trkpt lat="47.00438" lon="8.64546">
        <ele>454</ele>
        <time>2021-08-05T09:08:45.438Z</time>
      </trkpt>
      <trkpt lat="47.00438" lon="8.64546">
        <ele>454</ele>
        <time>2021-08-05T09:08:46.438Z</time>
      </trkpt>
      <trkpt lat="47.00437" lon="8.64545">
        <ele>453</ele>
        <time>2021-08-05T09:08:47.437Z</time>
      </trkpt>
      <trkpt lat="47.00436" lon="8.64545">
        <ele>453</ele>
        <time>2021-08-05T09:08:48.438Z</time>
      </trkpt>
      <trkpt lat="47.00435" lon="8.64544">
        <ele>453</ele>
        <time>2021-08-05T09:08:49.438Z</time>
      </trkpt>
      <trkpt lat="47.00434" lon="8.64544">
        <ele>453</ele>
        <time>2021-08-05T09:08:50.438Z</time>
      </trkpt>
      <trkpt lat="47.00433" lon="8.64542">
        <ele>453</ele>
        <time>2021-08-05T09:08:51.438Z</time>
      </trkpt>
      <trkpt lat="47.00432" lon="8.64541">
        <ele>454</ele>
        <time>2021-08-05T09:08:52.438Z</time>
      </trkpt>
      <trkpt lat="47.00431" lon="8.6454">
        <ele>454</ele>
        <time>2021-08-05T09:08:53.438Z</time>
      </trkpt>
      <trkpt lat="47.00429" lon="8.64538">
        <ele>455</ele>
        <time>2021-08-05T09:08:54.438Z</time>
      </trkpt>
      <trkpt lat="47.00427" lon="8.64537">
        <ele>455</ele>
        <time>2021-08-05T09:08:55.438Z</time>
      </trkpt>
      <trkpt lat="47.00427" lon="8.64536">
        <ele>455</ele>
        <time>2021-08-05T09:08:56.438Z</time>
      </trkpt>
      <trkpt lat="47.00425" lon="8.64536">
        <ele>455</ele>
        <time>2021-08-05T09:08:57.438Z</time>
      </trkpt>
      <trkpt lat="47.00424" lon="8.64535">
        <ele>455</ele>
        <time>2021-08-05T09:08:58.438Z</time>
      </trkpt>
      <trkpt lat="47.00423" lon="8.64535">
        <ele>455</ele>
        <time>2021-08-05T09:08:59.438Z</time>
      </trkpt>
      <trkpt lat="47.00422" lon="8.64535">
        <ele>455</ele>
        <time>2021-08-05T09:09:00.438Z</time>
      </trkpt>
      <trkpt lat="47.00421" lon="8.64535">
        <ele>455</ele>
        <time>2021-08-05T09:09:01.438Z</time>
      </trkpt>
      <trkpt lat="47.0042" lon="8.64534">
        <ele>455</ele>
        <time>2021-08-05T09:09:02.437Z</time>
      </trkpt>
      <trkpt lat="47.00419" lon="8.64533">
        <ele>455</ele>
        <time>2021-08-05T09:09:03.438Z</time>
      </trkpt>
      <trkpt lat="47.00418" lon="8.64532">
        <ele>455</ele>
        <time>2021-08-05T09:09:04.438Z</time>
      </trkpt>
      <trkpt lat="47.00417" lon="8.64532">
        <ele>455</ele>
        <time>2021-08-05T09:09:05.437Z</time>
      </trkpt>
      <trkpt lat="47.00415" lon="8.6453">
        <ele>455</ele>
        <time>2021-08-05T09:09:06.438Z</time>
      </trkpt>
      <trkpt lat="47.00414" lon="8.6453">
        <ele>455</ele>
        <time>2021-08-05T09:09:07.438Z</time>
      </trkpt>
      <trkpt lat="47.00413" lon="8.6453">
        <ele>455</ele>
        <time>2021-08-05T09:09:08.438Z</time>
      </trkpt>
      <trkpt lat="47.00413" lon="8.6453">
        <ele>455</ele>
        <time>2021-08-05T09:09:09.438Z</time>
      </trkpt>
      <trkpt lat="47.00412" lon="8.64531">
        <ele>455</ele>
        <time>2021-08-05T09:09:10.437Z</time>
      </trkpt>
      <trkpt lat="47.00411" lon="8.64532">
        <ele>455</ele>
        <time>2021-08-05T09:09:11.438Z</time>
      </trkpt>
      <trkpt lat="47.00411" lon="8.64531">
        <ele>456</ele>
        <time>2021-08-05T09:09:12.438Z</time>
      </trkpt>
      <trkpt lat="47.00409" lon="8.6453">
        <ele>456</ele>
        <time>2021-08-05T09:09:13.438Z</time>
      </trkpt>
      <trkpt lat="47.00408" lon="8.64528">
        <ele>457</ele>
        <time>2021-08-05T09:09:14.438Z</time>
      </trkpt>
      <trkpt lat="47.00406" lon="8.64527">
        <ele>457</ele>
        <time>2021-08-05T09:09:15.438Z</time>
      </trkpt>
      <trkpt lat="47.00405" lon="8.64526">
        <ele>458</ele>
        <time>2021-08-05T09:09:16.438Z</time>
      </trkpt>
      <trkpt lat="47.00405" lon="8.64525">
        <ele>458</ele>
        <time>2021-08-05T09:09:17.437Z</time>
      </trkpt>
      <trkpt lat="47.00404" lon="8.64524">
        <ele>459</ele>
        <time>2021-08-05T09:09:18.438Z</time>
      </trkpt>
      <trkpt lat="47.00403" lon="8.64523">
        <ele>459</ele>
        <time>2021-08-05T09:09:19.437Z</time>
      </trkpt>
      <trkpt lat="47.00402" lon="8.64522">
        <ele>459</ele>
        <time>2021-08-05T09:09:20.438Z</time>
      </trkpt>
      <trkpt lat="47.00402" lon="8.64521">
        <ele>460</ele>
        <time>2021-08-05T09:09:21.438Z</time>
      </trkpt>
      <trkpt lat="47.00401" lon="8.6452">
        <ele>461</ele>
        <time>2021-08-05T09:09:22.438Z</time>
      </trkpt>
      <trkpt lat="47.004" lon="8.64518">
        <ele>461</ele>
        <time>2021-08-05T09:09:23.437Z</time>
      </trkpt>
      <trkpt lat="47.00398" lon="8.64517">
        <ele>461</ele>
        <time>2021-08-05T09:09:24.438Z</time>
      </trkpt>
      <trkpt lat="47.00398" lon="8.64516">
        <ele>460</ele>
        <time>2021-08-05T09:09:25.438Z</time>
      </trkpt>
      <trkpt lat="47.00397" lon="8.64515">
        <ele>460</ele>
        <time>2021-08-05T09:09:26.437Z</time>
      </trkpt>
      <trkpt lat="47.00396" lon="8.64514">
        <ele>460</ele>
        <time>2021-08-05T09:09:27.438Z</time>
      </trkpt>
      <trkpt lat="47.00395" lon="8.64514">
        <ele>460</ele>
        <time>2021-08-05T09:09:28.437Z</time>
      </trkpt>
      <trkpt lat="47.00394" lon="8.64513">
        <ele>460</ele>
        <time>2021-08-05T09:09:29.438Z</time>
      </trkpt>
      <trkpt lat="47.00394" lon="8.64513">
        <ele>460</ele>
        <time>2021-08-05T09:09:30.438Z</time>
      </trkpt>
      <trkpt lat="47.00393" lon="8.64513">
        <ele>460</ele>
        <time>2021-08-05T09:09:31.437Z</time>
      </trkpt>
      <trkpt lat="47.00392" lon="8.64511">
        <ele>460</ele>
        <time>2021-08-05T09:09:32.438Z</time>
      </trkpt>
      <trkpt lat="47.00391" lon="8.64509">
        <ele>460</ele>
        <time>2021-08-05T09:09:33.438Z</time>
      </trkpt>
      <trkpt lat="47.0039" lon="8.64507">
        <ele>459</ele>
        <time>2021-08-05T09:09:34.438Z</time>
      </trkpt>
      <trkpt lat="47.00389" lon="8.64506">
        <ele>459</ele>
        <time>2021-08-05T09:09:35.437Z</time>
      </trkpt>
      <trkpt lat="47.00388" lon="8.64506">
        <ele>458</ele>
        <time>2021-08-05T09:09:36.438Z</time>
      </trkpt>
      <trkpt lat="47.00387" lon="8.64505">
        <ele>458</ele>
        <time>2021-08-05T09:09:37.438Z</time>
      </trkpt>
      <trkpt lat="47.00386" lon="8.64504">
        <ele>457</ele>
        <time>2021-08-05T09:09:38.438Z</time>
      </trkpt>
      <trkpt lat="47.00385" lon="8.64503">
        <ele>457</ele>
        <time>2021-08-05T09:09:39.438Z</time>
      </trkpt>
      <trkpt lat="47.00384" lon="8.64502">
        <ele>457</ele>
        <time>2021-08-05T09:09:40.438Z</time>
      </trkpt>
      <trkpt lat="47.00383" lon="8.64501">
        <ele>457</ele>
        <time>2021-08-05T09:09:41.438Z</time>
      </trkpt>
      <trkpt lat="47.00382" lon="8.645">
        <ele>457</ele>
        <time>2021-08-05T09:09:42.438Z</time>
      </trkpt>
      <trkpt lat="47.00381" lon="8.64499">
        <ele>456</ele>
        <time>2021-08-05T09:09:43.438Z</time>
      </trkpt>
      <trkpt lat="47.0038" lon="8.64498">
        <ele>456</ele>
        <time>2021-08-05T09:09:44.437Z</time>
      </trkpt>
      <trkpt lat="47.00379" lon="8.64497">
        <ele>456</ele>
        <time>2021-08-05T09:09:45.437Z</time>
      </trkpt>
      <trkpt lat="47.00379" lon="8.64496">
        <ele>456</ele>
        <time>2021-08-05T09:09:46.438Z</time>
      </trkpt>
      <trkpt lat="47.00378" lon="8.64495">
        <ele>456</ele>
        <time>2021-08-05T09:09:47.437Z</time>
      </trkpt>
      <trkpt lat="47.00377" lon="8.64495">
        <ele>456</ele>
        <time>2021-08-05T09:09:48.438Z</time>
      </trkpt>
      <trkpt lat="47.00375" lon="8.64495">
        <ele>456</ele>
        <time>2021-08-05T09:09:49.437Z</time>
      </trkpt>
      <trkpt lat="47.00374" lon="8.64494">
        <ele>456</ele>
        <time>2021-08-05T09:09:50.437Z</time>
      </trkpt>
      <trkpt lat="47.00373" lon="8.64494">
        <ele>456</ele>
        <time>2021-08-05T09:09:51.438Z</time>
      </trkpt>
      <trkpt lat="47.00372" lon="8.64495">
        <ele>456</ele>
        <time>2021-08-05T09:09:52.437Z</time>
      </trkpt>
      <trkpt lat="47.00371" lon="8.64494">
        <ele>456</ele>
        <time>2021-08-05T09:09:53.438Z</time>
      </trkpt>
      <trkpt lat="47.00371" lon="8.64494">
        <ele>456</ele>
        <time>2021-08-05T09:09:54.438Z</time>
      </trkpt>
      <trkpt lat="47.00369" lon="8.64493">
        <ele>457</ele>
        <time>2021-08-05T09:09:55.437Z</time>
      </trkpt>
      <trkpt lat="47.00368" lon="8.64492">
        <ele>457</ele>
        <time>2021-08-05T09:09:56.437Z</time>
      </trkpt>
      <trkpt lat="47.00367" lon="8.64491">
        <ele>458</ele>
        <time>2021-08-05T09:09:57.438Z</time>
      </trkpt>
      <trkpt lat="47.00366" lon="8.6449">
        <ele>459</ele>
        <time>2021-08-05T09:09:58.438Z</time>
      </trkpt>
      <trkpt lat="47.00365" lon="8.64489">
        <ele>459</ele>
        <time>2021-08-05T09:09:59.438Z</time>
      </trkpt>
      <trkpt lat="47.00364" lon="8.64489">
        <ele>459</ele>
        <time>2021-08-05T09:10:00.437Z</time>
      </trkpt>
      <trkpt lat="47.00363" lon="8.64488">
        <ele>459</ele>
        <time>2021-08-05T09:10:01.438Z</time>
      </trkpt>
      <trkpt lat="47.00362" lon="8.64487">
        <ele>460</ele>
        <time>2021-08-05T09:10:02.438Z</time>
      </trkpt>
      <trkpt lat="47.00361" lon="8.64486">
        <ele>460</ele>
        <time>2021-08-05T09:10:03.437Z</time>
      </trkpt>
      <trkpt lat="47.0036" lon="8.64485">
        <ele>460</ele>
        <time>2021-08-05T09:10:04.438Z</time>
      </trkpt>
      <trkpt lat="47.00359" lon="8.64484">
        <ele>460</ele>
        <time>2021-08-05T09:10:05.437Z</time>
      </trkpt>
      <trkpt lat="47.00358" lon="8.64484">
        <ele>460</ele>
        <time>2021-08-05T09:10:06.438Z</time>
      </trkpt>
      <trkpt lat="47.00357" lon="8.64483">
        <ele>460</ele>
        <time>2021-08-05T09:10:07.438Z</time>
      </trkpt>
      <trkpt lat="47.00357" lon="8.64483">
        <ele>460</ele>
        <time>2021-08-05T09:10:08.437Z</time>
      </trkpt>
      <trkpt lat="47.00356" lon="8.64482">
        <ele>460</ele>
        <time>2021-08-05T09:10:09.438Z</time>
      </trkpt>
      <trkpt lat="47.00356" lon="8.64482">
        <ele>460</ele>
        <time>2021-08-05T09:10:10.438Z</time>
      </trkpt>
      <trkpt lat="47.00355" lon="8.64481">
        <ele>460</ele>
        <time>2021-08-05T09:10:11.438Z</time>
      </trkpt>
      <trkpt lat="47.00355" lon="8.6448">
        <ele>460</ele>
        <time>2021-08-05T09:10:12.437Z</time>
      </trkpt>
      <trkpt lat="47.00354" lon="8.64478">
        <ele>460</ele>
        <time>2021-08-05T09:10:13.438Z</time>
      </trkpt>
      <trkpt lat="47.00354" lon="8.64477">
        <ele>460</ele>
        <time>2021-08-05T09:10:14.437Z</time>
      </trkpt>
      <trkpt lat="47.00353" lon="8.64476">
        <ele>460</ele>
        <time>2021-08-05T09:10:15.438Z</time>
      </trkpt>
      <trkpt lat="47.00352" lon="8.64475">
        <ele>461</ele>
        <time>2021-08-05T09:10:16.438Z</time>
      </trkpt>
      <trkpt lat="47.00351" lon="8.64474">
        <ele>461</ele>
        <time>2021-08-05T09:10:17.437Z</time>
      </trkpt>
      <trkpt lat="47.00351" lon="8.64473">
        <ele>461</ele>
        <time>2021-08-05T09:10:18.438Z</time>
      </trkpt>
      <trkpt lat="47.0035" lon="8.64472">
        <ele>461</ele>
        <time>2021-08-05T09:10:19.438Z</time>
      </trkpt>
      <trkpt lat="47.00349" lon="8.64472">
        <ele>461</ele>
        <time>2021-08-05T09:10:20.438Z</time>
      </trkpt>
      <trkpt lat="47.00348" lon="8.6447">
        <ele>461</ele>
        <time>2021-08-05T09:10:21.438Z</time>
      </trkpt>
      <trkpt lat="47.00347" lon="8.6447">
        <ele>462</ele>
        <time>2021-08-05T09:10:22.437Z</time>
      </trkpt>
      <trkpt lat="47.00347" lon="8.64469">
        <ele>462</ele>
        <time>2021-08-05T09:10:23.437Z</time>
      </trkpt>
      <trkpt lat="47.00346" lon="8.64468">
        <ele>462</ele>
        <time>2021-08-05T09:10:24.438Z</time>
      </trkpt>
      <trkpt lat="47.00345" lon="8.64467">
        <ele>462</ele>
        <time>2021-08-05T09:10:25.438Z</time>
      </trkpt>
      <trkpt lat="47.00344" lon="8.64467">
        <ele>462</ele>
        <time>2021-08-05T09:10:26.437Z</time>
      </trkpt>
      <trkpt lat="47.00343" lon="8.64466">
        <ele>462</ele>
        <time>2021-08-05T09:10:27.438Z</time>
      </trkpt>
      <trkpt lat="47.00342" lon="8.64465">
        <ele>462</ele>
        <time>2021-08-05T09:10:28.438Z</time>
      </trkpt>
      <trkpt lat="47.00342" lon="8.64465">
        <ele>462</ele>
        <time>2021-08-05T09:10:29.437Z</time>
      </trkpt>
      <trkpt lat="47.00341" lon="8.64464">
        <ele>462</ele>
        <time>2021-08-05T09:10:30.437Z</time>
      </trkpt>
      <trkpt lat="47.0034" lon="8.64464">
        <ele>461</ele>
        <time>2021-08-05T09:10:31.438Z</time>
      </trkpt>
      <trkpt lat="47.00339" lon="8.64463">
        <ele>461</ele>
        <time>2021-08-05T09:10:32.438Z</time>
      </trkpt>
      <trkpt lat="47.00338" lon="8.64462">
        <ele>461</ele>
        <time>2021-08-05T09:10:33.438Z</time>
      </trkpt>
      <trkpt lat="47.00337" lon="8.64462">
        <ele>461</ele>
        <time>2021-08-05T09:10:34.437Z</time>
      </trkpt>
      <trkpt lat="47.00336" lon="8.64461">
        <ele>462</ele>
        <time>2021-08-05T09:10:35.438Z</time>
      </trkpt>
      <trkpt lat="47.00335" lon="8.6446">
        <ele>462</ele>
        <time>2021-08-05T09:10:36.437Z</time>
      </trkpt>
      <trkpt lat="47.00334" lon="8.6446">
        <ele>462</ele>
        <time>2021-08-05T09:10:37.438Z</time>
      </trkpt>
      <trkpt lat="47.00334" lon="8.6446">
        <ele>462</ele>
        <time>2021-08-05T09:10:38.438Z</time>
      </trkpt>
      <trkpt lat="47.00333" lon="8.64461">
        <ele>462</ele>
        <time>2021-08-05T09:10:39.437Z</time>
      </trkpt>
      <trkpt lat="47.00333" lon="8.64461">
        <ele>462</ele>
        <time>2021-08-05T09:10:40.438Z</time>
      </trkpt>
      <trkpt lat="47.00332" lon="8.64461">
        <ele>462</ele>
        <time>2021-08-05T09:10:41.438Z</time>
      </trkpt>
      <trkpt lat="47.00331" lon="8.64461">
        <ele>462</ele>
        <time>2021-08-05T09:10:42.438Z</time>
      </trkpt>
      <trkpt lat="47.0033" lon="8.6446">
        <ele>462</ele>
        <time>2021-08-05T09:10:43.438Z</time>
      </trkpt>
      <trkpt lat="47.0033" lon="8.64461">
        <ele>462</ele>
        <time>2021-08-05T09:10:44.438Z</time>
      </trkpt>
      <trkpt lat="47.0033" lon="8.6446">
        <ele>461</ele>
        <time>2021-08-05T09:10:45.437Z</time>
      </trkpt>
      <trkpt lat="47.00329" lon="8.6446">
        <ele>461</ele>
        <time>2021-08-05T09:10:46.437Z</time>
      </trkpt>
      <trkpt lat="47.00329" lon="8.64461">
        <ele>461</ele>
        <time>2021-08-05T09:10:47.438Z</time>
      </trkpt>
      <trkpt lat="47.00328" lon="8.6446">
        <ele>461</ele>
        <time>2021-08-05T09:10:48.438Z</time>
      </trkpt>
      <trkpt lat="47.00327" lon="8.64459">
        <ele>462</ele>
        <time>2021-08-05T09:10:49.438Z</time>
      </trkpt>
      <trkpt lat="47.00325" lon="8.64458">
        <ele>462</ele>
        <time>2021-08-05T09:10:50.438Z</time>
      </trkpt>
      <trkpt lat="47.00324" lon="8.64457">
        <ele>462</ele>
        <time>2021-08-05T09:10:51.437Z</time>
      </trkpt>
      <trkpt lat="47.00323" lon="8.64457">
        <ele>463</ele>
        <time>2021-08-05T09:10:52.437Z</time>
      </trkpt>
      <trkpt lat="47.00322" lon="8.64456">
        <ele>463</ele>
        <time>2021-08-05T09:10:53.438Z</time>
      </trkpt>
      <trkpt lat="47.00321" lon="8.64455">
        <ele>464</ele>
        <time>2021-08-05T09:10:54.438Z</time>
      </trkpt>
      <trkpt lat="47.0032" lon="8.64454">
        <ele>464</ele>
        <time>2021-08-05T09:10:55.438Z</time>
      </trkpt>
      <trkpt lat="47.00319" lon="8.64453">
        <ele>465</ele>
        <time>2021-08-05T09:10:56.438Z</time>
      </trkpt>
      <trkpt lat="47.00318" lon="8.64452">
        <ele>466</ele>
        <time>2021-08-05T09:10:57.437Z</time>
      </trkpt>
      <trkpt lat="47.00317" lon="8.64452">
        <ele>466</ele>
        <time>2021-08-05T09:10:58.438Z</time>
      </trkpt>
      <trkpt lat="47.00316" lon="8.64452">
        <ele>467</ele>
        <time>2021-08-05T09:10:59.438Z</time>
      </trkpt>
      <trkpt lat="47.00316" lon="8.64452">
        <ele>467</ele>
        <time>2021-08-05T09:11:00.437Z</time>
      </trkpt>
      <trkpt lat="47.00314" lon="8.64451">
        <ele>467</ele>
        <time>2021-08-05T09:11:01.438Z</time>
      </trkpt>
      <trkpt lat="47.00313" lon="8.64451">
        <ele>467</ele>
        <time>2021-08-05T09:11:02.437Z</time>
      </trkpt>
      <trkpt lat="47.00313" lon="8.6445">
        <ele>467</ele>
        <time>2021-08-05T09:11:03.438Z</time>
      </trkpt>
      <trkpt lat="47.00312" lon="8.6445">
        <ele>467</ele>
        <time>2021-08-05T09:11:04.438Z</time>
      </trkpt>
      <trkpt lat="47.00311" lon="8.64449">
        <ele>467</ele>
        <time>2021-08-05T09:11:05.438Z</time>
      </trkpt>
      <trkpt lat="47.0031" lon="8.64448">
        <ele>467</ele>
        <time>2021-08-05T09:11:06.437Z</time>
      </trkpt>
      <trkpt lat="47.00309" lon="8.64448">
        <ele>467</ele>
        <time>2021-08-05T09:11:07.438Z</time>
      </trkpt>
      <trkpt lat="47.00308" lon="8.64449">
        <ele>466</ele>
        <time>2021-08-05T09:11:08.437Z</time>
      </trkpt>
      <trkpt lat="47.00308" lon="8.6445">
        <ele>466</ele>
        <time>2021-08-05T09:11:09.438Z</time>
      </trkpt>
      <trkpt lat="47.00308" lon="8.6445">
        <ele>465</ele>
        <time>2021-08-05T09:11:10.438Z</time>
      </trkpt>
      <trkpt lat="47.00308" lon="8.64451">
        <ele>464</ele>
        <time>2021-08-05T09:11:11.438Z</time>
      </trkpt>
      <trkpt lat="47.00307" lon="8.64451">
        <ele>463</ele>
        <time>2021-08-05T09:11:12.439Z</time>
      </trkpt>
      <trkpt lat="47.00306" lon="8.64449">
        <ele>462</ele>
        <time>2021-08-05T09:11:13.438Z</time>
      </trkpt>
      <trkpt lat="47.00305" lon="8.64448">
        <ele>462</ele>
        <time>2021-08-05T09:11:14.439Z</time>
      </trkpt>
      <trkpt lat="47.00305" lon="8.64448">
        <ele>462</ele>
        <time>2021-08-05T09:11:15.439Z</time>
      </trkpt>
      <trkpt lat="47.00303" lon="8.64447">
        <ele>462</ele>
        <time>2021-08-05T09:11:16.438Z</time>
      </trkpt>
      <trkpt lat="47.00303" lon="8.64446">
        <ele>462</ele>
        <time>2021-08-05T09:11:17.438Z</time>
      </trkpt>
      <trkpt lat="47.00302" lon="8.64445">
        <ele>462</ele>
        <time>2021-08-05T09:11:18.439Z</time>
      </trkpt>
      <trkpt lat="47.00301" lon="8.64445">
        <ele>462</ele>
        <time>2021-08-05T09:11:19.439Z</time>
      </trkpt>
      <trkpt lat="47.003" lon="8.64443">
        <ele>462</ele>
        <time>2021-08-05T09:11:20.439Z</time>
      </trkpt>
      <trkpt lat="47.00299" lon="8.64443">
        <ele>462</ele>
        <time>2021-08-05T09:11:21.439Z</time>
      </trkpt>
      <trkpt lat="47.00298" lon="8.64442">
        <ele>462</ele>
        <time>2021-08-05T09:11:22.438Z</time>
      </trkpt>
      <trkpt lat="47.00297" lon="8.64442">
        <ele>462</ele>
        <time>2021-08-05T09:11:23.439Z</time>
      </trkpt>
      <trkpt lat="47.00297" lon="8.64441">
        <ele>462</ele>
        <time>2021-08-05T09:11:24.439Z</time>
      </trkpt>
      <trkpt lat="47.00296" lon="8.64441">
        <ele>462</ele>
        <time>2021-08-05T09:11:25.439Z</time>
      </trkpt>
      <trkpt lat="47.00295" lon="8.64441">
        <ele>462</ele>
        <time>2021-08-05T09:11:26.439Z</time>
      </trkpt>
      <trkpt lat="47.00293" lon="8.64441">
        <ele>462</ele>
        <time>2021-08-05T09:11:27.439Z</time>
      </trkpt>
      <trkpt lat="47.00293" lon="8.64441">
        <ele>461</ele>
        <time>2021-08-05T09:11:28.439Z</time>
      </trkpt>
      <trkpt lat="47.00292" lon="8.64441">
        <ele>461</ele>
        <time>2021-08-05T09:11:29.438Z</time>
      </trkpt>
      <trkpt lat="47.00291" lon="8.6444">
        <ele>461</ele>
        <time>2021-08-05T09:11:30.439Z</time>
      </trkpt>
      <trkpt lat="47.0029" lon="8.6444">
        <ele>461</ele>
        <time>2021-08-05T09:11:31.439Z</time>
      </trkpt>
      <trkpt lat="47.0029" lon="8.64439">
        <ele>461</ele>
        <time>2021-08-05T09:11:32.439Z</time>
      </trkpt>
      <trkpt lat="47.00289" lon="8.64439">
        <ele>461</ele>
        <time>2021-08-05T09:11:33.439Z</time>
      </trkpt>
      <trkpt lat="47.00288" lon="8.64439">
        <ele>461</ele>
        <time>2021-08-05T09:11:34.439Z</time>
      </trkpt>
      <trkpt lat="47.00287" lon="8.64439">
        <ele>460</ele>
        <time>2021-08-05T09:11:35.438Z</time>
      </trkpt>
      <trkpt lat="47.00286" lon="8.64438">
        <ele>460</ele>
        <time>2021-08-05T09:11:36.439Z</time>
      </trkpt>
      <trkpt lat="47.00285" lon="8.64438">
        <ele>460</ele>
        <time>2021-08-05T09:11:37.439Z</time>
      </trkpt>
      <trkpt lat="47.00284" lon="8.64437">
        <ele>460</ele>
        <time>2021-08-05T09:11:38.439Z</time>
      </trkpt>
      <trkpt lat="47.00283" lon="8.64436">
        <ele>460</ele>
        <time>2021-08-05T09:11:39.439Z</time>
      </trkpt>
      <trkpt lat="47.00282" lon="8.64436">
        <ele>459</ele>
        <time>2021-08-05T09:11:40.439Z</time>
      </trkpt>
      <trkpt lat="47.00281" lon="8.64435">
        <ele>459</ele>
        <time>2021-08-05T09:11:41.438Z</time>
      </trkpt>
      <trkpt lat="47.00281" lon="8.64434">
        <ele>459</ele>
        <time>2021-08-05T09:11:42.439Z</time>
      </trkpt>
      <trkpt lat="47.0028" lon="8.64435">
        <ele>459</ele>
        <time>2021-08-05T09:11:43.438Z</time>
      </trkpt>
      <trkpt lat="47.0028" lon="8.64434">
        <ele>458</ele>
        <time>2021-08-05T09:11:44.438Z</time>
      </trkpt>
      <trkpt lat="47.00279" lon="8.64434">
        <ele>458</ele>
        <time>2021-08-05T09:11:45.438Z</time>
      </trkpt>
      <trkpt lat="47.00278" lon="8.64433">
        <ele>458</ele>
        <time>2021-08-05T09:11:46.438Z</time>
      </trkpt>
      <trkpt lat="47.00277" lon="8.64433">
        <ele>459</ele>
        <time>2021-08-05T09:11:47.438Z</time>
      </trkpt>
      <trkpt lat="47.00277" lon="8.64434">
        <ele>459</ele>
        <time>2021-08-05T09:11:48.439Z</time>
      </trkpt>
      <trkpt lat="47.00276" lon="8.64434">
        <ele>460</ele>
        <time>2021-08-05T09:11:49.439Z</time>
      </trkpt>
      <trkpt lat="47.00275" lon="8.64435">
        <ele>461</ele>
        <time>2021-08-05T09:11:50.438Z</time>
      </trkpt>
      <trkpt lat="47.00273" lon="8.64434">
        <ele>461</ele>
        <time>2021-08-05T09:11:51.438Z</time>
      </trkpt>
      <trkpt lat="47.00273" lon="8.64434">
        <ele>461</ele>
        <time>2021-08-05T09:11:52.438Z</time>
      </trkpt>
      <trkpt lat="47.00272" lon="8.64434">
        <ele>462</ele>
        <time>2021-08-05T09:11:53.438Z</time>
      </trkpt>
      <trkpt lat="47.00271" lon="8.64434">
        <ele>462</ele>
        <time>2021-08-05T09:11:54.439Z</time>
      </trkpt>
      <trkpt lat="47.0027" lon="8.64434">
        <ele>462</ele>
        <time>2021-08-05T09:11:55.439Z</time>
      </trkpt>
      <trkpt lat="47.0027" lon="8.64434">
        <ele>462</ele>
        <time>2021-08-05T09:11:56.439Z</time>
      </trkpt>
      <trkpt lat="47.00269" lon="8.64434">
        <ele>463</ele>
        <time>2021-08-05T09:11:57.438Z</time>
      </trkpt>
      <trkpt lat="47.00269" lon="8.64433">
        <ele>463</ele>
        <time>2021-08-05T09:11:58.439Z</time>
      </trkpt>
      <trkpt lat="47.00268" lon="8.64433">
        <ele>463</ele>
        <time>2021-08-05T09:11:59.438Z</time>
      </trkpt>
      <trkpt lat="47.00268" lon="8.64433">
        <ele>463</ele>
        <time>2021-08-05T09:12:00.438Z</time>
      </trkpt>
      <trkpt lat="47.00267" lon="8.64433">
        <ele>463</ele>
        <time>2021-08-05T09:12:01.439Z</time>
      </trkpt>
      <trkpt lat="47.00267" lon="8.64433">
        <ele>463</ele>
        <time>2021-08-05T09:12:02.439Z</time>
      </trkpt>
      <trkpt lat="47.00266" lon="8.64433">
        <ele>464</ele>
        <time>2021-08-05T09:12:03.438Z</time>
      </trkpt>
      <trkpt lat="47.00266" lon="8.64433">
        <ele>464</ele>
        <time>2021-08-05T09:12:04.439Z</time>
      </trkpt>
      <trkpt lat="47.00265" lon="8.64433">
        <ele>464</ele>
        <time>2021-08-05T09:12:05.438Z</time>
      </trkpt>
      <trkpt lat="47.00265" lon="8.64433">
        <ele>464</ele>
        <time>2021-08-05T09:12:06.439Z</time>
      </trkpt>
      <trkpt lat="47.00264" lon="8.64433">
        <ele>464</ele>
        <time>2021-08-05T09:12:07.439Z</time>
      </trkpt>
      <trkpt lat="47.00263" lon="8.64433">
        <ele>464</ele>
        <time>2021-08-05T09:12:08.439Z</time>
      </trkpt>
      <trkpt lat="47.00262" lon="8.64434">
        <ele>464</ele>
        <time>2021-08-05T09:12:09.438Z</time>
      </trkpt>
      <trkpt lat="47.00261" lon="8.64434">
        <ele>464</ele>
        <time>2021-08-05T09:12:10.438Z</time>
      </trkpt>
      <trkpt lat="47.0026" lon="8.64434">
        <ele>464</ele>
        <time>2021-08-05T09:12:11.439Z</time>
      </trkpt>
      <trkpt lat="47.00259" lon="8.64434">
        <ele>464</ele>
        <time>2021-08-05T09:12:12.438Z</time>
      </trkpt>
      <trkpt lat="47.00257" lon="8.64434">
        <ele>463</ele>
        <time>2021-08-05T09:12:13.439Z</time>
      </trkpt>
      <trkpt lat="47.00256" lon="8.64435">
        <ele>463</ele>
        <time>2021-08-05T09:12:14.439Z</time>
      </trkpt>
      <trkpt lat="47.00255" lon="8.64437">
        <ele>463</ele>
        <time>2021-08-05T09:12:15.438Z</time>
      </trkpt>
      <trkpt lat="47.00254" lon="8.64437">
        <ele>462</ele>
        <time>2021-08-05T09:12:16.439Z</time>
      </trkpt>
      <trkpt lat="47.00253" lon="8.64438">
        <ele>462</ele>
        <time>2021-08-05T09:12:17.438Z</time>
      </trkpt>
      <trkpt lat="47.00252" lon="8.64439">
        <ele>462</ele>
        <time>2021-08-05T09:12:18.439Z</time>
      </trkpt>
      <trkpt lat="47.0025" lon="8.6444">
        <ele>462</ele>
        <time>2021-08-05T09:12:19.439Z</time>
      </trkpt>
      <trkpt lat="47.0025" lon="8.6444">
        <ele>462</ele>
        <time>2021-08-05T09:12:20.439Z</time>
      </trkpt>
      <trkpt lat="47.00249" lon="8.6444">
        <ele>462</ele>
        <time>2021-08-05T09:12:21.438Z</time>
      </trkpt>
      <trkpt lat="47.00248" lon="8.6444">
        <ele>462</ele>
        <time>2021-08-05T09:12:22.439Z</time>
      </trkpt>
      <trkpt lat="47.00247" lon="8.64441">
        <ele>461</ele>
        <time>2021-08-05T09:12:23.439Z</time>
      </trkpt>
      <trkpt lat="47.00247" lon="8.64441">
        <ele>461</ele>
        <time>2021-08-05T09:12:24.438Z</time>
      </trkpt>
      <trkpt lat="47.00246" lon="8.64441">
        <ele>460</ele>
        <time>2021-08-05T09:12:25.439Z</time>
      </trkpt>
      <trkpt lat="47.00246" lon="8.64441">
        <ele>460</ele>
        <time>2021-08-05T09:12:26.439Z</time>
      </trkpt>
      <trkpt lat="47.00244" lon="8.64441">
        <ele>459</ele>
        <time>2021-08-05T09:12:27.438Z</time>
      </trkpt>
      <trkpt lat="47.00243" lon="8.64441">
        <ele>459</ele>
        <time>2021-08-05T09:12:28.439Z</time>
      </trkpt>
      <trkpt lat="47.00241" lon="8.64441">
        <ele>459</ele>
        <time>2021-08-05T09:12:29.439Z</time>
      </trkpt>
      <trkpt lat="47.00241" lon="8.64441">
        <ele>459</ele>
        <time>2021-08-05T09:12:30.438Z</time>
      </trkpt>
      <trkpt lat="47.0024" lon="8.6444">
        <ele>459</ele>
        <time>2021-08-05T09:12:31.438Z</time>
      </trkpt>
      <trkpt lat="47.00239" lon="8.64441">
        <ele>459</ele>
        <time>2021-08-05T09:12:32.439Z</time>
      </trkpt>
      <trkpt lat="47.00239" lon="8.64441">
        <ele>459</ele>
        <time>2021-08-05T09:12:33.439Z</time>
      </trkpt>
      <trkpt lat="47.00239" lon="8.64441">
        <ele>459</ele>
        <time>2021-08-05T09:12:34.438Z</time>
      </trkpt>
      <trkpt lat="47.00238" lon="8.64441">
        <ele>459</ele>
        <time>2021-08-05T09:12:35.439Z</time>
      </trkpt>
      <trkpt lat="47.00237" lon="8.64441">
        <ele>459</ele>
        <time>2021-08-05T09:12:36.439Z</time>
      </trkpt>
      <trkpt lat="47.00237" lon="8.64441">
        <ele>459</ele>
        <time>2021-08-05T09:12:37.439Z</time>
      </trkpt>
      <trkpt lat="47.00236" lon="8.64442">
        <ele>459</ele>
        <time>2021-08-05T09:12:38.439Z</time>
      </trkpt>
      <trkpt lat="47.00235" lon="8.64442">
        <ele>459</ele>
        <time>2021-08-05T09:12:39.438Z</time>
      </trkpt>
      <trkpt lat="47.00234" lon="8.64443">
        <ele>459</ele>
        <time>2021-08-05T09:12:40.438Z</time>
      </trkpt>
      <trkpt lat="47.00234" lon="8.64443">
        <ele>459</ele>
        <time>2021-08-05T09:12:41.439Z</time>
      </trkpt>
      <trkpt lat="47.00234" lon="8.64443">
        <ele>460</ele>
        <time>2021-08-05T09:12:42.438Z</time>
      </trkpt>
      <trkpt lat="47.00233" lon="8.64444">
        <ele>460</ele>
        <time>2021-08-05T09:12:43.439Z</time>
      </trkpt>
      <trkpt lat="47.00233" lon="8.64444">
        <ele>460</ele>
        <time>2021-08-05T09:12:44.439Z</time>
      </trkpt>
      <trkpt lat="47.00232" lon="8.64445">
        <ele>461</ele>
        <time>2021-08-05T09:12:45.439Z</time>
      </trkpt>
      <trkpt lat="47.00231" lon="8.64445">
        <ele>461</ele>
        <time>2021-08-05T09:12:46.438Z</time>
      </trkpt>
      <trkpt lat="47.00231" lon="8.64446">
        <ele>462</ele>
        <time>2021-08-05T09:12:47.438Z</time>
      </trkpt>
      <trkpt lat="47.00231" lon="8.64447">
        <ele>462</ele>
        <time>2021-08-05T09:12:48.439Z</time>
      </trkpt>
      <trkpt lat="47.0023" lon="8.64448">
        <ele>462</ele>
        <time>2021-08-05T09:12:49.438Z</time>
      </trkpt>
      <trkpt lat="47.00229" lon="8.64449">
        <ele>463</ele>
        <time>2021-08-05T09:12:50.439Z</time>
      </trkpt>
      <trkpt lat="47.00228" lon="8.6445">
        <ele>463</ele>
        <time>2021-08-05T09:12:51.438Z</time>
      </trkpt>
      <trkpt lat="47.00226" lon="8.64451">
        <ele>463</ele>
        <time>2021-08-05T09:12:52.439Z</time>
      </trkpt>
      <trkpt lat="47.00225" lon="8.64452">
        <ele>464</ele>
        <time>2021-08-05T09:12:53.439Z</time>
      </trkpt>
      <trkpt lat="47.00225" lon="8.64453">
        <ele>464</ele>
        <time>2021-08-05T09:12:54.438Z</time>
      </trkpt>
      <trkpt lat="47.00225" lon="8.64454">
        <ele>464</ele>
        <time>2021-08-05T09:12:55.439Z</time>
      </trkpt>
      <trkpt lat="47.00224" lon="8.64454">
        <ele>464</ele>
        <time>2021-08-05T09:12:56.439Z</time>
      </trkpt>
      <trkpt lat="47.00224" lon="8.64455">
        <ele>464</ele>
        <time>2021-08-05T09:12:57.438Z</time>
      </trkpt>
      <trkpt lat="47.00223" lon="8.64456">
        <ele>464</ele>
        <time>2021-08-05T09:12:58.439Z</time>
      </trkpt>
      <trkpt lat="47.00222" lon="8.64456">
        <ele>464</ele>
        <time>2021-08-05T09:12:59.438Z</time>
      </trkpt>
      <trkpt lat="47.00222" lon="8.64456">
        <ele>464</ele>
        <time>2021-08-05T09:13:00.438Z</time>
      </trkpt>
      <trkpt lat="47.00221" lon="8.64456">
        <ele>465</ele>
        <time>2021-08-05T09:13:01.438Z</time>
      </trkpt>
      <trkpt lat="47.00221" lon="8.64457">
        <ele>465</ele>
        <time>2021-08-05T09:13:02.438Z</time>
      </trkpt>
      <trkpt lat="47.0022" lon="8.64458">
        <ele>465</ele>
        <time>2021-08-05T09:13:03.438Z</time>
      </trkpt>
      <trkpt lat="47.00218" lon="8.64459">
        <ele>465</ele>
        <time>2021-08-05T09:13:04.438Z</time>
      </trkpt>
      <trkpt lat="47.00218" lon="8.6446">
        <ele>465</ele>
        <time>2021-08-05T09:13:05.438Z</time>
      </trkpt>
      <trkpt lat="47.00217" lon="8.64461">
        <ele>465</ele>
        <time>2021-08-05T09:13:06.439Z</time>
      </trkpt>
      <trkpt lat="47.00217" lon="8.64461">
        <ele>465</ele>
        <time>2021-08-05T09:13:07.438Z</time>
      </trkpt>
      <trkpt lat="47.00216" lon="8.64461">
        <ele>465</ele>
        <time>2021-08-05T09:13:08.438Z</time>
      </trkpt>
      <trkpt lat="47.00215" lon="8.64462">
        <ele>465</ele>
        <time>2021-08-05T09:13:09.438Z</time>
      </trkpt>
      <trkpt lat="47.00214" lon="8.64463">
        <ele>465</ele>
        <time>2021-08-05T09:13:10.439Z</time>
      </trkpt>
      <trkpt lat="47.00213" lon="8.64463">
        <ele>465</ele>
        <time>2021-08-05T09:13:11.438Z</time>
      </trkpt>
      <trkpt lat="47.00212" lon="8.64464">
        <ele>465</ele>
        <time>2021-08-05T09:13:12.438Z</time>
      </trkpt>
      <trkpt lat="47.00211" lon="8.64464">
        <ele>465</ele>
        <time>2021-08-05T09:13:13.439Z</time>
      </trkpt>
      <trkpt lat="47.0021" lon="8.64464">
        <ele>464</ele>
        <time>2021-08-05T09:13:14.438Z</time>
      </trkpt>
      <trkpt lat="47.00209" lon="8.64465">
        <ele>464</ele>
        <time>2021-08-05T09:13:15.438Z</time>
      </trkpt>
      <trkpt lat="47.00208" lon="8.64466">
        <ele>464</ele>
        <time>2021-08-05T09:13:16.438Z</time>
      </trkpt>
      <trkpt lat="47.00207" lon="8.64467">
        <ele>464</ele>
        <time>2021-08-05T09:13:17.439Z</time>
      </trkpt>
      <trkpt lat="47.00206" lon="8.64467">
        <ele>464</ele>
        <time>2021-08-05T09:13:18.439Z</time>
      </trkpt>
      <trkpt lat="47.00205" lon="8.64468">
        <ele>464</ele>
        <time>2021-08-05T09:13:19.439Z</time>
      </trkpt>
      <trkpt lat="47.00204" lon="8.64468">
        <ele>465</ele>
        <time>2021-08-05T09:13:20.438Z</time>
      </trkpt>
      <trkpt lat="47.00204" lon="8.64468">
        <ele>465</ele>
        <time>2021-08-05T09:13:21.439Z</time>
      </trkpt>
      <trkpt lat="47.00203" lon="8.64468">
        <ele>465</ele>
        <time>2021-08-05T09:13:22.439Z</time>
      </trkpt>
      <trkpt lat="47.00203" lon="8.64468">
        <ele>465</ele>
        <time>2021-08-05T09:13:23.438Z</time>
      </trkpt>
      <trkpt lat="47.00203" lon="8.64468">
        <ele>465</ele>
        <time>2021-08-05T09:13:24.438Z</time>
      </trkpt>
      <trkpt lat="47.00202" lon="8.64468">
        <ele>465</ele>
        <time>2021-08-05T09:13:25.439Z</time>
      </trkpt>
      <trkpt lat="47.00201" lon="8.64469">
        <ele>465</ele>
        <time>2021-08-05T09:13:26.439Z</time>
      </trkpt>
      <trkpt lat="47.00199" lon="8.6447">
        <ele>465</ele>
        <time>2021-08-05T09:13:27.439Z</time>
      </trkpt>
      <trkpt lat="47.00199" lon="8.6447">
        <ele>465</ele>
        <time>2021-08-05T09:13:28.439Z</time>
      </trkpt>
      <trkpt lat="47.00199" lon="8.64471">
        <ele>465</ele>
        <time>2021-08-05T09:13:29.439Z</time>
      </trkpt>
      <trkpt lat="47.00198" lon="8.64471">
        <ele>465</ele>
        <time>2021-08-05T09:13:30.439Z</time>
      </trkpt>
      <trkpt lat="47.00197" lon="8.64471">
        <ele>465</ele>
        <time>2021-08-05T09:13:31.439Z</time>
      </trkpt>
      <trkpt lat="47.00196" lon="8.64471">
        <ele>465</ele>
        <time>2021-08-05T09:13:32.439Z</time>
      </trkpt>
      <trkpt lat="47.00195" lon="8.64472">
        <ele>465</ele>
        <time>2021-08-05T09:13:33.438Z</time>
      </trkpt>
      <trkpt lat="47.00194" lon="8.64471">
        <ele>465</ele>
        <time>2021-08-05T09:13:34.439Z</time>
      </trkpt>
      <trkpt lat="47.00193" lon="8.64471">
        <ele>465</ele>
        <time>2021-08-05T09:13:35.439Z</time>
      </trkpt>
      <trkpt lat="47.00192" lon="8.64471">
        <ele>465</ele>
        <time>2021-08-05T09:13:36.439Z</time>
      </trkpt>
      <trkpt lat="47.00192" lon="8.64471">
        <ele>465</ele>
        <time>2021-08-05T09:13:37.439Z</time>
      </trkpt>
      <trkpt lat="47.00191" lon="8.64471">
        <ele>465</ele>
        <time>2021-08-05T09:13:38.438Z</time>
      </trkpt>
      <trkpt lat="47.0019" lon="8.64472">
        <ele>465</ele>
        <time>2021-08-05T09:13:39.439Z</time>
      </trkpt>
      <trkpt lat="47.0019" lon="8.64472">
        <ele>465</ele>
        <time>2021-08-05T09:13:40.439Z</time>
      </trkpt>
      <trkpt lat="47.00189" lon="8.64472">
        <ele>465</ele>
        <time>2021-08-05T09:13:41.439Z</time>
      </trkpt>
      <trkpt lat="47.00189" lon="8.64472">
        <ele>466</ele>
        <time>2021-08-05T09:13:42.439Z</time>
      </trkpt>
      <trkpt lat="47.00188" lon="8.64473">
        <ele>466</ele>
        <time>2021-08-05T09:13:43.438Z</time>
      </trkpt>
      <trkpt lat="47.00187" lon="8.64473">
        <ele>467</ele>
        <time>2021-08-05T09:13:44.439Z</time>
      </trkpt>
      <trkpt lat="47.00187" lon="8.64474">
        <ele>467</ele>
        <time>2021-08-05T09:13:45.439Z</time>
      </trkpt>
      <trkpt lat="47.00186" lon="8.64474">
        <ele>467</ele>
        <time>2021-08-05T09:13:46.439Z</time>
      </trkpt>
      <trkpt lat="47.00185" lon="8.64475">
        <ele>468</ele>
        <time>2021-08-05T09:13:47.439Z</time>
      </trkpt>
      <trkpt lat="47.00184" lon="8.64475">
        <ele>468</ele>
        <time>2021-08-05T09:13:48.439Z</time>
      </trkpt>
      <trkpt lat="47.00182" lon="8.64475">
        <ele>469</ele>
        <time>2021-08-05T09:13:49.439Z</time>
      </trkpt>
      <trkpt lat="47.00182" lon="8.64474">
        <ele>470</ele>
        <time>2021-08-05T09:13:50.438Z</time>
      </trkpt>
      <trkpt lat="47.00181" lon="8.64473">
        <ele>471</ele>
        <time>2021-08-05T09:13:51.438Z</time>
      </trkpt>
      <trkpt lat="47.00181" lon="8.64473">
        <ele>472</ele>
        <time>2021-08-05T09:13:52.439Z</time>
      </trkpt>
      <trkpt lat="47.0018" lon="8.64473">
        <ele>472</ele>
        <time>2021-08-05T09:13:53.438Z</time>
      </trkpt>
      <trkpt lat="47.00179" lon="8.64473">
        <ele>473</ele>
        <time>2021-08-05T09:13:54.439Z</time>
      </trkpt>
      <trkpt lat="47.00178" lon="8.64472">
        <ele>473</ele>
        <time>2021-08-05T09:13:55.439Z</time>
      </trkpt>
      <trkpt lat="47.00178" lon="8.64472">
        <ele>474</ele>
        <time>2021-08-05T09:13:56.439Z</time>
      </trkpt>
      <trkpt lat="47.00177" lon="8.64472">
        <ele>474</ele>
        <time>2021-08-05T09:13:57.439Z</time>
      </trkpt>
      <trkpt lat="47.00176" lon="8.64472">
        <ele>475</ele>
        <time>2021-08-05T09:13:58.439Z</time>
      </trkpt>
      <trkpt lat="47.00175" lon="8.64473">
        <ele>476</ele>
        <time>2021-08-05T09:13:59.438Z</time>
      </trkpt>
      <trkpt lat="47.00174" lon="8.64474">
        <ele>476</ele>
        <time>2021-08-05T09:14:00.439Z</time>
      </trkpt>
      <trkpt lat="47.00174" lon="8.64475">
        <ele>477</ele>
        <time>2021-08-05T09:14:01.438Z</time>
      </trkpt>
      <trkpt lat="47.00173" lon="8.64475">
        <ele>477</ele>
        <time>2021-08-05T09:14:02.439Z</time>
      </trkpt>
      <trkpt lat="47.00172" lon="8.64476">
        <ele>477</ele>
        <time>2021-08-05T09:14:03.439Z</time>
      </trkpt>
      <trkpt lat="47.00172" lon="8.64476">
        <ele>477</ele>
        <time>2021-08-05T09:14:04.438Z</time>
      </trkpt>
      <trkpt lat="47.00171" lon="8.64477">
        <ele>477</ele>
        <time>2021-08-05T09:14:05.439Z</time>
      </trkpt>
      <trkpt lat="47.0017" lon="8.64477">
        <ele>477</ele>
        <time>2021-08-05T09:14:06.439Z</time>
      </trkpt>
      <trkpt lat="47.00169" lon="8.64478">
        <ele>477</ele>
        <time>2021-08-05T09:14:07.439Z</time>
      </trkpt>
      <trkpt lat="47.00169" lon="8.64478">
        <ele>477</ele>
        <time>2021-08-05T09:14:08.438Z</time>
      </trkpt>
      <trkpt lat="47.00168" lon="8.64478">
        <ele>477</ele>
        <time>2021-08-05T09:14:09.439Z</time>
      </trkpt>
      <trkpt lat="47.00167" lon="8.64479">
        <ele>477</ele>
        <time>2021-08-05T09:14:10.439Z</time>
      </trkpt>
      <trkpt lat="47.00166" lon="8.64479">
        <ele>477</ele>
        <time>2021-08-05T09:14:11.438Z</time>
      </trkpt>
      <trkpt lat="47.00166" lon="8.64479">
        <ele>477</ele>
        <time>2021-08-05T09:14:12.438Z</time>
      </trkpt>
      <trkpt lat="47.00165" lon="8.6448">
        <ele>477</ele>
        <time>2021-08-05T09:14:13.438Z</time>
      </trkpt>
      <trkpt lat="47.00164" lon="8.6448">
        <ele>477</ele>
        <time>2021-08-05T09:14:14.439Z</time>
      </trkpt>
      <trkpt lat="47.00163" lon="8.6448">
        <ele>478</ele>
        <time>2021-08-05T09:14:15.438Z</time>
      </trkpt>
      <trkpt lat="47.00162" lon="8.6448">
        <ele>478</ele>
        <time>2021-08-05T09:14:16.438Z</time>
      </trkpt>
      <trkpt lat="47.00161" lon="8.6448">
        <ele>478</ele>
        <time>2021-08-05T09:14:17.438Z</time>
      </trkpt>
      <trkpt lat="47.0016" lon="8.64479">
        <ele>477</ele>
        <time>2021-08-05T09:14:18.439Z</time>
      </trkpt>
      <trkpt lat="47.0016" lon="8.6448">
        <ele>477</ele>
        <time>2021-08-05T09:14:19.438Z</time>
      </trkpt>
      <trkpt lat="47.00159" lon="8.6448">
        <ele>477</ele>
        <time>2021-08-05T09:14:20.438Z</time>
      </trkpt>
      <trkpt lat="47.00159" lon="8.6448">
        <ele>477</ele>
        <time>2021-08-05T09:14:21.438Z</time>
      </trkpt>
      <trkpt lat="47.00158" lon="8.6448">
        <ele>477</ele>
        <time>2021-08-05T09:14:22.438Z</time>
      </trkpt>
      <trkpt lat="47.00157" lon="8.6448">
        <ele>477</ele>
        <time>2021-08-05T09:14:23.439Z</time>
      </trkpt>
      <trkpt lat="47.00156" lon="8.6448">
        <ele>477</ele>
        <time>2021-08-05T09:14:24.438Z</time>
      </trkpt>
      <trkpt lat="47.00155" lon="8.64481">
        <ele>476</ele>
        <time>2021-08-05T09:14:25.438Z</time>
      </trkpt>
      <trkpt lat="47.00155" lon="8.64481">
        <ele>476</ele>
        <time>2021-08-05T09:14:26.439Z</time>
      </trkpt>
      <trkpt lat="47.00154" lon="8.64481">
        <ele>476</ele>
        <time>2021-08-05T09:14:27.439Z</time>
      </trkpt>
      <trkpt lat="47.00153" lon="8.64481">
        <ele>477</ele>
        <time>2021-08-05T09:14:28.438Z</time>
      </trkpt>
      <trkpt lat="47.00153" lon="8.64481">
        <ele>477</ele>
        <time>2021-08-05T09:14:29.438Z</time>
      </trkpt>
      <trkpt lat="47.00152" lon="8.64482">
        <ele>477</ele>
        <time>2021-08-05T09:14:30.439Z</time>
      </trkpt>
      <trkpt lat="47.00151" lon="8.64482">
        <ele>477</ele>
        <time>2021-08-05T09:14:31.439Z</time>
      </trkpt>
      <trkpt lat="47.00151" lon="8.64482">
        <ele>476</ele>
        <time>2021-08-05T09:14:32.438Z</time>
      </trkpt>
      <trkpt lat="47.0015" lon="8.64482">
        <ele>476</ele>
        <time>2021-08-05T09:14:33.439Z</time>
      </trkpt>
      <trkpt lat="47.00149" lon="8.64483">
        <ele>476</ele>
        <time>2021-08-05T09:14:34.438Z</time>
      </trkpt>
      <trkpt lat="47.00149" lon="8.64483">
        <ele>475</ele>
        <time>2021-08-05T09:14:35.438Z</time>
      </trkpt>
      <trkpt lat="47.00148" lon="8.64483">
        <ele>475</ele>
        <time>2021-08-05T09:14:36.439Z</time>
      </trkpt>
      <trkpt lat="47.00147" lon="8.64484">
        <ele>475</ele>
        <time>2021-08-05T09:14:37.439Z</time>
      </trkpt>
      <trkpt lat="47.00146" lon="8.64484">
        <ele>474</ele>
        <time>2021-08-05T09:14:38.439Z</time>
      </trkpt>
      <trkpt lat="47.00145" lon="8.64484">
        <ele>474</ele>
        <time>2021-08-05T09:14:39.438Z</time>
      </trkpt>
      <trkpt lat="47.00145" lon="8.64484">
        <ele>474</ele>
        <time>2021-08-05T09:14:40.439Z</time>
      </trkpt>
      <trkpt lat="47.00144" lon="8.64484">
        <ele>474</ele>
        <time>2021-08-05T09:14:41.439Z</time>
      </trkpt>
      <trkpt lat="47.00143" lon="8.64484">
        <ele>474</ele>
        <time>2021-08-05T09:14:42.439Z</time>
      </trkpt>
      <trkpt lat="47.00143" lon="8.64484">
        <ele>474</ele>
        <time>2021-08-05T09:14:43.438Z</time>
      </trkpt>
      <trkpt lat="47.00143" lon="8.64484">
        <ele>474</ele>
        <time>2021-08-05T09:14:44.439Z</time>
      </trkpt>
      <trkpt lat="47.00142" lon="8.64484">
        <ele>475</ele>
        <time>2021-08-05T09:14:45.438Z</time>
      </trkpt>
      <trkpt lat="47.00141" lon="8.64485">
        <ele>475</ele>
        <time>2021-08-05T09:14:46.439Z</time>
      </trkpt>
      <trkpt lat="47.0014" lon="8.64485">
        <ele>475</ele>
        <time>2021-08-05T09:14:47.439Z</time>
      </trkpt>
      <trkpt lat="47.00139" lon="8.64485">
        <ele>475</ele>
        <time>2021-08-05T09:14:48.439Z</time>
      </trkpt>
      <trkpt lat="47.00139" lon="8.64486">
        <ele>476</ele>
        <time>2021-08-05T09:14:49.439Z</time>
      </trkpt>
      <trkpt lat="47.00138" lon="8.64486">
        <ele>476</ele>
        <time>2021-08-05T09:14:50.439Z</time>
      </trkpt>
      <trkpt lat="47.00138" lon="8.64486">
        <ele>476</ele>
        <time>2021-08-05T09:14:51.439Z</time>
      </trkpt>
      <trkpt lat="47.00137" lon="8.64486">
        <ele>476</ele>
        <time>2021-08-05T09:14:52.439Z</time>
      </trkpt>
      <trkpt lat="47.00137" lon="8.64486">
        <ele>476</ele>
        <time>2021-08-05T09:14:53.438Z</time>
      </trkpt>
      <trkpt lat="47.00136" lon="8.64486">
        <ele>477</ele>
        <time>2021-08-05T09:14:54.439Z</time>
      </trkpt>
      <trkpt lat="47.00135" lon="8.64487">
        <ele>477</ele>
        <time>2021-08-05T09:14:55.439Z</time>
      </trkpt>
      <trkpt lat="47.00135" lon="8.64487">
        <ele>477</ele>
        <time>2021-08-05T09:14:56.438Z</time>
      </trkpt>
      <trkpt lat="47.00134" lon="8.64487">
        <ele>477</ele>
        <time>2021-08-05T09:14:57.439Z</time>
      </trkpt>
      <trkpt lat="47.00134" lon="8.64487">
        <ele>477</ele>
        <time>2021-08-05T09:14:58.439Z</time>
      </trkpt>
      <trkpt lat="47.00133" lon="8.64487">
        <ele>477</ele>
        <time>2021-08-05T09:14:59.438Z</time>
      </trkpt>
      <trkpt lat="47.00133" lon="8.64487">
        <ele>477</ele>
        <time>2021-08-05T09:15:00.439Z</time>
      </trkpt>
      <trkpt lat="47.00132" lon="8.64488">
        <ele>478</ele>
        <time>2021-08-05T09:15:01.438Z</time>
      </trkpt>
      <trkpt lat="47.00131" lon="8.64489">
        <ele>478</ele>
        <time>2021-08-05T09:15:02.438Z</time>
      </trkpt>
      <trkpt lat="47.0013" lon="8.6449">
        <ele>478</ele>
        <time>2021-08-05T09:15:03.439Z</time>
      </trkpt>
      <trkpt lat="47.00129" lon="8.6449">
        <ele>478</ele>
        <time>2021-08-05T09:15:04.439Z</time>
      </trkpt>
      <trkpt lat="47.00129" lon="8.6449">
        <ele>478</ele>
        <time>2021-08-05T09:15:05.438Z</time>
      </trkpt>
      <trkpt lat="47.00128" lon="8.64491">
        <ele>478</ele>
        <time>2021-08-05T09:15:06.439Z</time>
      </trkpt>
      <trkpt lat="47.00127" lon="8.64492">
        <ele>478</ele>
        <time>2021-08-05T09:15:07.439Z</time>
      </trkpt>
      <trkpt lat="47.00126" lon="8.64492">
        <ele>478</ele>
        <time>2021-08-05T09:15:08.439Z</time>
      </trkpt>
      <trkpt lat="47.00125" lon="8.64493">
        <ele>478</ele>
        <time>2021-08-05T09:15:09.438Z</time>
      </trkpt>
      <trkpt lat="47.00124" lon="8.64494">
        <ele>478</ele>
        <time>2021-08-05T09:15:10.438Z</time>
      </trkpt>
      <trkpt lat="47.00124" lon="8.64494">
        <ele>478</ele>
        <time>2021-08-05T09:15:11.438Z</time>
      </trkpt>
      <trkpt lat="47.00123" lon="8.64495">
        <ele>477</ele>
        <time>2021-08-05T09:15:12.439Z</time>
      </trkpt>
      <trkpt lat="47.00122" lon="8.64496">
        <ele>477</ele>
        <time>2021-08-05T09:15:13.439Z</time>
      </trkpt>
      <trkpt lat="47.00121" lon="8.64497">
        <ele>477</ele>
        <time>2021-08-05T09:15:14.438Z</time>
      </trkpt>
      <trkpt lat="47.0012" lon="8.64497">
        <ele>477</ele>
        <time>2021-08-05T09:15:15.439Z</time>
      </trkpt>
      <trkpt lat="47.00119" lon="8.64498">
        <ele>477</ele>
        <time>2021-08-05T09:15:16.439Z</time>
      </trkpt>
      <trkpt lat="47.00118" lon="8.64498">
        <ele>477</ele>
        <time>2021-08-05T09:15:17.439Z</time>
      </trkpt>
      <trkpt lat="47.00117" lon="8.64499">
        <ele>477</ele>
        <time>2021-08-05T09:15:18.439Z</time>
      </trkpt>
      <trkpt lat="47.00116" lon="8.645">
        <ele>477</ele>
        <time>2021-08-05T09:15:19.439Z</time>
      </trkpt>
      <trkpt lat="47.00116" lon="8.64501">
        <ele>478</ele>
        <time>2021-08-05T09:15:20.438Z</time>
      </trkpt>
      <trkpt lat="47.00115" lon="8.64502">
        <ele>478</ele>
        <time>2021-08-05T09:15:21.438Z</time>
      </trkpt>
      <trkpt lat="47.00114" lon="8.64503">
        <ele>478</ele>
        <time>2021-08-05T09:15:22.438Z</time>
      </trkpt>
      <trkpt lat="47.00113" lon="8.64503">
        <ele>478</ele>
        <time>2021-08-05T09:15:23.439Z</time>
      </trkpt>
      <trkpt lat="47.00112" lon="8.64503">
        <ele>479</ele>
        <time>2021-08-05T09:15:24.439Z</time>
      </trkpt>
      <trkpt lat="47.00111" lon="8.64504">
        <ele>479</ele>
        <time>2021-08-05T09:15:25.439Z</time>
      </trkpt>
      <trkpt lat="47.0011" lon="8.64504">
        <ele>479</ele>
        <time>2021-08-05T09:15:26.439Z</time>
      </trkpt>
      <trkpt lat="47.00109" lon="8.64505">
        <ele>480</ele>
        <time>2021-08-05T09:15:27.438Z</time>
      </trkpt>
      <trkpt lat="47.00108" lon="8.64505">
        <ele>480</ele>
        <time>2021-08-05T09:15:28.438Z</time>
      </trkpt>
      <trkpt lat="47.00108" lon="8.64506">
        <ele>480</ele>
        <time>2021-08-05T09:15:29.439Z</time>
      </trkpt>
      <trkpt lat="47.00106" lon="8.64507">
        <ele>481</ele>
        <time>2021-08-05T09:15:30.439Z</time>
      </trkpt>
      <trkpt lat="47.00105" lon="8.64508">
        <ele>481</ele>
        <time>2021-08-05T09:15:31.439Z</time>
      </trkpt>
      <trkpt lat="47.00104" lon="8.64508">
        <ele>481</ele>
        <time>2021-08-05T09:15:32.439Z</time>
      </trkpt>
      <trkpt lat="47.00103" lon="8.64508">
        <ele>481</ele>
        <time>2021-08-05T09:15:33.439Z</time>
      </trkpt>
      <trkpt lat="47.00102" lon="8.64508">
        <ele>481</ele>
        <time>2021-08-05T09:15:34.439Z</time>
      </trkpt>
      <trkpt lat="47.00101" lon="8.64509">
        <ele>481</ele>
        <time>2021-08-05T09:15:35.439Z</time>
      </trkpt>
      <trkpt lat="47.001" lon="8.64509">
        <ele>481</ele>
        <time>2021-08-05T09:15:36.439Z</time>
      </trkpt>
      <trkpt lat="47.00099" lon="8.64509">
        <ele>482</ele>
        <time>2021-08-05T09:15:37.438Z</time>
      </trkpt>
      <trkpt lat="47.00098" lon="8.64509">
        <ele>482</ele>
        <time>2021-08-05T09:15:38.439Z</time>
      </trkpt>
      <trkpt lat="47.00097" lon="8.6451">
        <ele>483</ele>
        <time>2021-08-05T09:15:39.438Z</time>
      </trkpt>
      <trkpt lat="47.00096" lon="8.64511">
        <ele>483</ele>
        <time>2021-08-05T09:15:40.439Z</time>
      </trkpt>
      <trkpt lat="47.00096" lon="8.64512">
        <ele>483</ele>
        <time>2021-08-05T09:15:41.438Z</time>
      </trkpt>
      <trkpt lat="47.00095" lon="8.64513">
        <ele>484</ele>
        <time>2021-08-05T09:15:42.439Z</time>
      </trkpt>
      <trkpt lat="47.00094" lon="8.64513">
        <ele>484</ele>
        <time>2021-08-05T09:15:43.439Z</time>
      </trkpt>
      <trkpt lat="47.00093" lon="8.64513">
        <ele>485</ele>
        <time>2021-08-05T09:15:44.439Z</time>
      </trkpt>
      <trkpt lat="47.00093" lon="8.64515">
        <ele>485</ele>
        <time>2021-08-05T09:15:45.439Z</time>
      </trkpt>
      <trkpt lat="47.00092" lon="8.64515">
        <ele>486</ele>
        <time>2021-08-05T09:15:46.438Z</time>
      </trkpt>
      <trkpt lat="47.00091" lon="8.64515">
        <ele>486</ele>
        <time>2021-08-05T09:15:47.438Z</time>
      </trkpt>
      <trkpt lat="47.0009" lon="8.64515">
        <ele>486</ele>
        <time>2021-08-05T09:15:48.438Z</time>
      </trkpt>
      <trkpt lat="47.00089" lon="8.64515">
        <ele>486</ele>
        <time>2021-08-05T09:15:49.439Z</time>
      </trkpt>
      <trkpt lat="47.00087" lon="8.64515">
        <ele>487</ele>
        <time>2021-08-05T09:15:50.438Z</time>
      </trkpt>
      <trkpt lat="47.00086" lon="8.64515">
        <ele>487</ele>
        <time>2021-08-05T09:15:51.438Z</time>
      </trkpt>
      <trkpt lat="47.00085" lon="8.64515">
        <ele>488</ele>
        <time>2021-08-05T09:15:52.438Z</time>
      </trkpt>
      <trkpt lat="47.00084" lon="8.64516">
        <ele>488</ele>
        <time>2021-08-05T09:15:53.438Z</time>
      </trkpt>
      <trkpt lat="47.00084" lon="8.64516">
        <ele>488</ele>
        <time>2021-08-05T09:15:54.438Z</time>
      </trkpt>
      <trkpt lat="47.00083" lon="8.64517">
        <ele>488</ele>
        <time>2021-08-05T09:15:55.439Z</time>
      </trkpt>
      <trkpt lat="47.00082" lon="8.64517">
        <ele>488</ele>
        <time>2021-08-05T09:15:56.438Z</time>
      </trkpt>
      <trkpt lat="47.00081" lon="8.64517">
        <ele>488</ele>
        <time>2021-08-05T09:15:57.438Z</time>
      </trkpt>
      <trkpt lat="47.0008" lon="8.64518">
        <ele>489</ele>
        <time>2021-08-05T09:15:58.439Z</time>
      </trkpt>
      <trkpt lat="47.00079" lon="8.64518">
        <ele>489</ele>
        <time>2021-08-05T09:15:59.439Z</time>
      </trkpt>
      <trkpt lat="47.00078" lon="8.64518">
        <ele>489</ele>
        <time>2021-08-05T09:16:00.439Z</time>
      </trkpt>
      <trkpt lat="47.00077" lon="8.64518">
        <ele>490</ele>
        <time>2021-08-05T09:16:01.438Z</time>
      </trkpt>
      <trkpt lat="47.00076" lon="8.64519">
        <ele>490</ele>
        <time>2021-08-05T09:16:02.438Z</time>
      </trkpt>
      <trkpt lat="47.00076" lon="8.64519">
        <ele>490</ele>
        <time>2021-08-05T09:16:03.439Z</time>
      </trkpt>
      <trkpt lat="47.00075" lon="8.6452">
        <ele>490</ele>
        <time>2021-08-05T09:16:04.438Z</time>
      </trkpt>
      <trkpt lat="47.00074" lon="8.64521">
        <ele>490</ele>
        <time>2021-08-05T09:16:05.439Z</time>
      </trkpt>
      <trkpt lat="47.00073" lon="8.64521">
        <ele>490</ele>
        <time>2021-08-05T09:16:06.438Z</time>
      </trkpt>
      <trkpt lat="47.00072" lon="8.64522">
        <ele>490</ele>
        <time>2021-08-05T09:16:07.438Z</time>
      </trkpt>
      <trkpt lat="47.00071" lon="8.64522">
        <ele>490</ele>
        <time>2021-08-05T09:16:08.439Z</time>
      </trkpt>
      <trkpt lat="47.0007" lon="8.64522">
        <ele>490</ele>
        <time>2021-08-05T09:16:09.438Z</time>
      </trkpt>
      <trkpt lat="47.00069" lon="8.64523">
        <ele>490</ele>
        <time>2021-08-05T09:16:10.438Z</time>
      </trkpt>
      <trkpt lat="47.00068" lon="8.64523">
        <ele>490</ele>
        <time>2021-08-05T09:16:11.438Z</time>
      </trkpt>
      <trkpt lat="47.00067" lon="8.64523">
        <ele>489</ele>
        <time>2021-08-05T09:16:12.438Z</time>
      </trkpt>
      <trkpt lat="47.00066" lon="8.64523">
        <ele>489</ele>
        <time>2021-08-05T09:16:13.439Z</time>
      </trkpt>
      <trkpt lat="47.00065" lon="8.64524">
        <ele>488</ele>
        <time>2021-08-05T09:16:14.438Z</time>
      </trkpt>
      <trkpt lat="47.00064" lon="8.64524">
        <ele>488</ele>
        <time>2021-08-05T09:16:15.438Z</time>
      </trkpt>
      <trkpt lat="47.00063" lon="8.64525">
        <ele>488</ele>
        <time>2021-08-05T09:16:16.438Z</time>
      </trkpt>
      <trkpt lat="47.00062" lon="8.64525">
        <ele>488</ele>
        <time>2021-08-05T09:16:17.438Z</time>
      </trkpt>
      <trkpt lat="47.00061" lon="8.64526">
        <ele>488</ele>
        <time>2021-08-05T09:16:18.438Z</time>
      </trkpt>
      <trkpt lat="47.0006" lon="8.64526">
        <ele>488</ele>
        <time>2021-08-05T09:16:19.438Z</time>
      </trkpt>
      <trkpt lat="47.00059" lon="8.64527">
        <ele>488</ele>
        <time>2021-08-05T09:16:20.438Z</time>
      </trkpt>
      <trkpt lat="47.00058" lon="8.64527">
        <ele>488</ele>
        <time>2021-08-05T09:16:21.438Z</time>
      </trkpt>
      <trkpt lat="47.00057" lon="8.64527">
        <ele>488</ele>
        <time>2021-08-05T09:16:22.439Z</time>
      </trkpt>
      <trkpt lat="47.00056" lon="8.64527">
        <ele>488</ele>
        <time>2021-08-05T09:16:23.438Z</time>
      </trkpt>
      <trkpt lat="47.00055" lon="8.64528">
        <ele>489</ele>
        <time>2021-08-05T09:16:24.439Z</time>
      </trkpt>
      <trkpt lat="47.00054" lon="8.64528">
        <ele>488</ele>
        <time>2021-08-05T09:16:25.439Z</time>
      </trkpt>
      <trkpt lat="47.00054" lon="8.64529">
        <ele>489</ele>
        <time>2021-08-05T09:16:26.438Z</time>
      </trkpt>
      <trkpt lat="47.00053" lon="8.64529">
        <ele>489</ele>
        <time>2021-08-05T09:16:27.439Z</time>
      </trkpt>
      <trkpt lat="47.00052" lon="8.64529">
        <ele>489</ele>
        <time>2021-08-05T09:16:28.438Z</time>
      </trkpt>
      <trkpt lat="47.00052" lon="8.64529">
        <ele>489</ele>
        <time>2021-08-05T09:16:29.438Z</time>
      </trkpt>
      <trkpt lat="47.00051" lon="8.64529">
        <ele>489</ele>
        <time>2021-08-05T09:16:30.439Z</time>
      </trkpt>
      <trkpt lat="47.0005" lon="8.64529">
        <ele>489</ele>
        <time>2021-08-05T09:16:31.439Z</time>
      </trkpt>
      <trkpt lat="47.00049" lon="8.6453">
        <ele>489</ele>
        <time>2021-08-05T09:16:32.438Z</time>
      </trkpt>
      <trkpt lat="47.00048" lon="8.64529">
        <ele>489</ele>
        <time>2021-08-05T09:16:33.439Z</time>
      </trkpt>
      <trkpt lat="47.00047" lon="8.6453">
        <ele>489</ele>
        <time>2021-08-05T09:16:34.439Z</time>
      </trkpt>
      <trkpt lat="47.00047" lon="8.64529">
        <ele>489</ele>
        <time>2021-08-05T09:16:35.438Z</time>
      </trkpt>
      <trkpt lat="47.00046" lon="8.64529">
        <ele>490</ele>
        <time>2021-08-05T09:16:36.438Z</time>
      </trkpt>
      <trkpt lat="47.00044" lon="8.64529">
        <ele>490</ele>
        <time>2021-08-05T09:16:37.439Z</time>
      </trkpt>
      <trkpt lat="47.00044" lon="8.64529">
        <ele>490</ele>
        <time>2021-08-05T09:16:38.439Z</time>
      </trkpt>
      <trkpt lat="47.00043" lon="8.64529">
        <ele>491</ele>
        <time>2021-08-05T09:16:39.439Z</time>
      </trkpt>
      <trkpt lat="47.00043" lon="8.64528">
        <ele>492</ele>
        <time>2021-08-05T09:16:40.439Z</time>
      </trkpt>
      <trkpt lat="47.00043" lon="8.64528">
        <ele>492</ele>
        <time>2021-08-05T09:16:41.439Z</time>
      </trkpt>
      <trkpt lat="47.00042" lon="8.64528">
        <ele>493</ele>
        <time>2021-08-05T09:16:42.439Z</time>
      </trkpt>
      <trkpt lat="47.00041" lon="8.64528">
        <ele>494</ele>
        <time>2021-08-05T09:16:43.439Z</time>
      </trkpt>
      <trkpt lat="47.0004" lon="8.64528">
        <ele>494</ele>
        <time>2021-08-05T09:16:44.439Z</time>
      </trkpt>
      <trkpt lat="47.0004" lon="8.64529">
        <ele>494</ele>
        <time>2021-08-05T09:16:45.439Z</time>
      </trkpt>
      <trkpt lat="47.00039" lon="8.64529">
        <ele>494</ele>
        <time>2021-08-05T09:16:46.439Z</time>
      </trkpt>
      <trkpt lat="47.00038" lon="8.64529">
        <ele>494</ele>
        <time>2021-08-05T09:16:47.439Z</time>
      </trkpt>
      <trkpt lat="47.00037" lon="8.64529">
        <ele>494</ele>
        <time>2021-08-05T09:16:48.439Z</time>
      </trkpt>
      <trkpt lat="47.00036" lon="8.64529">
        <ele>494</ele>
        <time>2021-08-05T09:16:49.439Z</time>
      </trkpt>
      <trkpt lat="47.00035" lon="8.64529">
        <ele>494</ele>
        <time>2021-08-05T09:16:50.439Z</time>
      </trkpt>
      <trkpt lat="47.00035" lon="8.64529">
        <ele>493</ele>
        <time>2021-08-05T09:16:51.439Z</time>
      </trkpt>
      <trkpt lat="47.00034" lon="8.64529">
        <ele>493</ele>
        <time>2021-08-05T09:16:52.439Z</time>
      </trkpt>
      <trkpt lat="47.00033" lon="8.64529">
        <ele>492</ele>
        <time>2021-08-05T09:16:53.439Z</time>
      </trkpt>
      <trkpt lat="47.00031" lon="8.64529">
        <ele>492</ele>
        <time>2021-08-05T09:16:54.439Z</time>
      </trkpt>
      <trkpt lat="47.00031" lon="8.64528">
        <ele>491</ele>
        <time>2021-08-05T09:16:55.439Z</time>
      </trkpt>
      <trkpt lat="47.0003" lon="8.64528">
        <ele>491</ele>
        <time>2021-08-05T09:16:56.439Z</time>
      </trkpt>
      <trkpt lat="47.00029" lon="8.64528">
        <ele>490</ele>
        <time>2021-08-05T09:16:57.439Z</time>
      </trkpt>
      <trkpt lat="47.00029" lon="8.64528">
        <ele>490</ele>
        <time>2021-08-05T09:16:58.439Z</time>
      </trkpt>
      <trkpt lat="47.00028" lon="8.64528">
        <ele>489</ele>
        <time>2021-08-05T09:16:59.439Z</time>
      </trkpt>
      <trkpt lat="47.00026" lon="8.64529">
        <ele>489</ele>
        <time>2021-08-05T09:17:00.439Z</time>
      </trkpt>
      <trkpt lat="47.00025" lon="8.64529">
        <ele>489</ele>
        <time>2021-08-05T09:17:01.439Z</time>
      </trkpt>
      <trkpt lat="47.00024" lon="8.64529">
        <ele>489</ele>
        <time>2021-08-05T09:17:02.439Z</time>
      </trkpt>
      <trkpt lat="47.00024" lon="8.6453">
        <ele>490</ele>
        <time>2021-08-05T09:17:03.439Z</time>
      </trkpt>
      <trkpt lat="47.00023" lon="8.6453">
        <ele>490</ele>
        <time>2021-08-05T09:17:04.439Z</time>
      </trkpt>
      <trkpt lat="47.00022" lon="8.64531">
        <ele>490</ele>
        <time>2021-08-05T09:17:05.439Z</time>
      </trkpt>
      <trkpt lat="47.00021" lon="8.64531">
        <ele>489</ele>
        <time>2021-08-05T09:17:06.439Z</time>
      </trkpt>
      <trkpt lat="47.0002" lon="8.64532">
        <ele>489</ele>
        <time>2021-08-05T09:17:07.439Z</time>
      </trkpt>
      <trkpt lat="47.0002" lon="8.64532">
        <ele>489</ele>
        <time>2021-08-05T09:17:08.439Z</time>
      </trkpt>
      <trkpt lat="47.00019" lon="8.64532">
        <ele>490</ele>
        <time>2021-08-05T09:17:09.439Z</time>
      </trkpt>
      <trkpt lat="47.00018" lon="8.64532">
        <ele>490</ele>
        <time>2021-08-05T09:17:10.439Z</time>
      </trkpt>
      <trkpt lat="47.00016" lon="8.64533">
        <ele>491</ele>
        <time>2021-08-05T09:17:11.439Z</time>
      </trkpt>
      <trkpt lat="47.00015" lon="8.64533">
        <ele>491</ele>
        <time>2021-08-05T09:17:12.439Z</time>
      </trkpt>
      <trkpt lat="47.00014" lon="8.64533">
        <ele>492</ele>
        <time>2021-08-05T09:17:13.439Z</time>
      </trkpt>
      <trkpt lat="47.00013" lon="8.64533">
        <ele>492</ele>
        <time>2021-08-05T09:17:14.439Z</time>
      </trkpt>
      <trkpt lat="47.00012" lon="8.64533">
        <ele>493</ele>
        <time>2021-08-05T09:17:15.439Z</time>
      </trkpt>
      <trkpt lat="47.00012" lon="8.64534">
        <ele>493</ele>
        <time>2021-08-05T09:17:16.439Z</time>
      </trkpt>
      <trkpt lat="47.00011" lon="8.64534">
        <ele>494</ele>
        <time>2021-08-05T09:17:17.439Z</time>
      </trkpt>
      <trkpt lat="47.00011" lon="8.64534">
        <ele>494</ele>
        <time>2021-08-05T09:17:18.439Z</time>
      </trkpt>
      <trkpt lat="47.0001" lon="8.64535">
        <ele>494</ele>
        <time>2021-08-05T09:17:19.439Z</time>
      </trkpt>
      <trkpt lat="47.00009" lon="8.64535">
        <ele>495</ele>
        <time>2021-08-05T09:17:20.439Z</time>
      </trkpt>
      <trkpt lat="47.00008" lon="8.64535">
        <ele>495</ele>
        <time>2021-08-05T09:17:21.439Z</time>
      </trkpt>
      <trkpt lat="47.00007" lon="8.64535">
        <ele>495</ele>
        <time>2021-08-05T09:17:22.439Z</time>
      </trkpt>
      <trkpt lat="47.00007" lon="8.64536">
        <ele>495</ele>
        <time>2021-08-05T09:17:23.439Z</time>
      </trkpt>
      <trkpt lat="47.00006" lon="8.64536">
        <ele>495</ele>
        <time>2021-08-05T09:17:24.439Z</time>
      </trkpt>
      <trkpt lat="47.00005" lon="8.64537">
        <ele>496</ele>
        <time>2021-08-05T09:17:25.439Z</time>
      </trkpt>
      <trkpt lat="47.00004" lon="8.64537">
        <ele>496</ele>
        <time>2021-08-05T09:17:26.439Z</time>
      </trkpt>
      <trkpt lat="47.00003" lon="8.64538">
        <ele>496</ele>
        <time>2021-08-05T09:17:27.439Z</time>
      </trkpt>
      <trkpt lat="47.00003" lon="8.64539">
        <ele>496</ele>
        <time>2021-08-05T09:17:28.439Z</time>
      </trkpt>
      <trkpt lat="47.00002" lon="8.6454">
        <ele>497</ele>
        <time>2021-08-05T09:17:29.439Z</time>
      </trkpt>
      <trkpt lat="47.00001" lon="8.64541">
        <ele>497</ele>
        <time>2021-08-05T09:17:30.439Z</time>
      </trkpt>
      <trkpt lat="47" lon="8.64541">
        <ele>497</ele>
        <time>2021-08-05T09:17:31.439Z</time>
      </trkpt>
      <trkpt lat="46.99999" lon="8.64542">
        <ele>498</ele>
        <time>2021-08-05T09:17:32.439Z</time>
      </trkpt>
      <trkpt lat="46.99998" lon="8.64542">
        <ele>498</ele>
        <time>2021-08-05T09:17:33.439Z</time>
      </trkpt>
      <trkpt lat="46.99997" lon="8.64543">
        <ele>499</ele>
        <time>2021-08-05T09:17:34.439Z</time>
      </trkpt>
      <trkpt lat="46.99996" lon="8.64543">
        <ele>500</ele>
        <time>2021-08-05T09:17:35.439Z</time>
      </trkpt>
      <trkpt lat="46.99996" lon="8.64543">
        <ele>500</ele>
        <time>2021-08-05T09:17:36.439Z</time>
      </trkpt>
      <trkpt lat="46.99994" lon="8.64543">
        <ele>501</ele>
        <time>2021-08-05T09:17:37.439Z</time>
      </trkpt>
      <trkpt lat="46.99993" lon="8.64543">
        <ele>501</ele>
        <time>2021-08-05T09:17:38.439Z</time>
      </trkpt>
      <trkpt lat="46.99992" lon="8.64543">
        <ele>501</ele>
        <time>2021-08-05T09:17:39.439Z</time>
      </trkpt>
      <trkpt lat="46.99991" lon="8.64543">
        <ele>501</ele>
        <time>2021-08-05T09:17:40.439Z</time>
      </trkpt>
      <trkpt lat="46.9999" lon="8.64544">
        <ele>501</ele>
        <time>2021-08-05T09:17:41.439Z</time>
      </trkpt>
      <trkpt lat="46.99989" lon="8.64544">
        <ele>501</ele>
        <time>2021-08-05T09:17:42.439Z</time>
      </trkpt>
      <trkpt lat="46.99988" lon="8.64545">
        <ele>501</ele>
        <time>2021-08-05T09:17:43.439Z</time>
      </trkpt>
      <trkpt lat="46.99987" lon="8.64545">
        <ele>501</ele>
        <time>2021-08-05T09:17:44.439Z</time>
      </trkpt>
      <trkpt lat="46.99986" lon="8.64545">
        <ele>501</ele>
        <time>2021-08-05T09:17:45.439Z</time>
      </trkpt>
      <trkpt lat="46.99985" lon="8.64546">
        <ele>501</ele>
        <time>2021-08-05T09:17:46.439Z</time>
      </trkpt>
      <trkpt lat="46.99984" lon="8.64546">
        <ele>501</ele>
        <time>2021-08-05T09:17:47.439Z</time>
      </trkpt>
      <trkpt lat="46.99983" lon="8.64546">
        <ele>501</ele>
        <time>2021-08-05T09:17:48.439Z</time>
      </trkpt>
      <trkpt lat="46.99982" lon="8.64547">
        <ele>501</ele>
        <time>2021-08-05T09:17:49.439Z</time>
      </trkpt>
      <trkpt lat="46.99981" lon="8.64547">
        <ele>501</ele>
        <time>2021-08-05T09:17:50.439Z</time>
      </trkpt>
      <trkpt lat="46.9998" lon="8.64548">
        <ele>501</ele>
        <time>2021-08-05T09:17:51.439Z</time>
      </trkpt>
      <trkpt lat="46.9998" lon="8.64548">
        <ele>501</ele>
        <time>2021-08-05T09:17:52.439Z</time>
      </trkpt>
      <trkpt lat="46.99979" lon="8.64549">
        <ele>501</ele>
        <time>2021-08-05T09:17:53.439Z</time>
      </trkpt>
      <trkpt lat="46.99978" lon="8.6455">
        <ele>501</ele>
        <time>2021-08-05T09:17:54.439Z</time>
      </trkpt>
      <trkpt lat="46.99977" lon="8.6455">
        <ele>501</ele>
        <time>2021-08-05T09:17:55.439Z</time>
      </trkpt>
      <trkpt lat="46.99976" lon="8.6455">
        <ele>501</ele>
        <time>2021-08-05T09:17:56.439Z</time>
      </trkpt>
      <trkpt lat="46.99975" lon="8.6455">
        <ele>501</ele>
        <time>2021-08-05T09:17:57.439Z</time>
      </trkpt>
      <trkpt lat="46.99975" lon="8.64551">
        <ele>501</ele>
        <time>2021-08-05T09:17:58.439Z</time>
      </trkpt>
      <trkpt lat="46.99974" lon="8.64552">
        <ele>500</ele>
        <time>2021-08-05T09:17:59.439Z</time>
      </trkpt>
      <trkpt lat="46.99973" lon="8.64553">
        <ele>500</ele>
        <time>2021-08-05T09:18:00.439Z</time>
      </trkpt>
      <trkpt lat="46.99972" lon="8.64553">
        <ele>500</ele>
        <time>2021-08-05T09:18:01.439Z</time>
      </trkpt>
      <trkpt lat="46.99971" lon="8.64553">
        <ele>500</ele>
        <time>2021-08-05T09:18:02.439Z</time>
      </trkpt>
      <trkpt lat="46.9997" lon="8.64554">
        <ele>501</ele>
        <time>2021-08-05T09:18:03.439Z</time>
      </trkpt>
      <trkpt lat="46.99969" lon="8.64555">
        <ele>501</ele>
        <time>2021-08-05T09:18:04.439Z</time>
      </trkpt>
      <trkpt lat="46.99968" lon="8.64556">
        <ele>501</ele>
        <time>2021-08-05T09:18:05.439Z</time>
      </trkpt>
      <trkpt lat="46.99967" lon="8.64557">
        <ele>501</ele>
        <time>2021-08-05T09:18:06.439Z</time>
      </trkpt>
      <trkpt lat="46.99967" lon="8.64558">
        <ele>502</ele>
        <time>2021-08-05T09:18:07.439Z</time>
      </trkpt>
      <trkpt lat="46.99965" lon="8.64558">
        <ele>502</ele>
        <time>2021-08-05T09:18:08.439Z</time>
      </trkpt>
      <trkpt lat="46.99964" lon="8.64559">
        <ele>502</ele>
        <time>2021-08-05T09:18:09.439Z</time>
      </trkpt>
      <trkpt lat="46.99963" lon="8.64559">
        <ele>502</ele>
        <time>2021-08-05T09:18:10.439Z</time>
      </trkpt>
      <trkpt lat="46.99963" lon="8.64559">
        <ele>503</ele>
        <time>2021-08-05T09:18:11.439Z</time>
      </trkpt>
      <trkpt lat="46.99962" lon="8.64559">
        <ele>503</ele>
        <time>2021-08-05T09:18:12.439Z</time>
      </trkpt>
      <trkpt lat="46.99961" lon="8.6456">
        <ele>503</ele>
        <time>2021-08-05T09:18:13.439Z</time>
      </trkpt>
      <trkpt lat="46.9996" lon="8.6456">
        <ele>503</ele>
        <time>2021-08-05T09:18:14.439Z</time>
      </trkpt>
      <trkpt lat="46.99959" lon="8.64561">
        <ele>503</ele>
        <time>2021-08-05T09:18:15.439Z</time>
      </trkpt>
      <trkpt lat="46.99958" lon="8.64561">
        <ele>503</ele>
        <time>2021-08-05T09:18:16.439Z</time>
      </trkpt>
      <trkpt lat="46.99957" lon="8.64562">
        <ele>503</ele>
        <time>2021-08-05T09:18:17.439Z</time>
      </trkpt>
      <trkpt lat="46.99956" lon="8.64562">
        <ele>504</ele>
        <time>2021-08-05T09:18:18.439Z</time>
      </trkpt>
      <trkpt lat="46.99955" lon="8.64563">
        <ele>504</ele>
        <time>2021-08-05T09:18:19.439Z</time>
      </trkpt>
      <trkpt lat="46.99954" lon="8.64563">
        <ele>504</ele>
        <time>2021-08-05T09:18:20.439Z</time>
      </trkpt>
      <trkpt lat="46.99953" lon="8.64563">
        <ele>505</ele>
        <time>2021-08-05T09:18:21.439Z</time>
      </trkpt>
      <trkpt lat="46.99952" lon="8.64563">
        <ele>505</ele>
        <time>2021-08-05T09:18:22.439Z</time>
      </trkpt>
      <trkpt lat="46.99951" lon="8.64564">
        <ele>505</ele>
        <time>2021-08-05T09:18:23.439Z</time>
      </trkpt>
      <trkpt lat="46.9995" lon="8.64563">
        <ele>505</ele>
        <time>2021-08-05T09:18:24.439Z</time>
      </trkpt>
      <trkpt lat="46.99949" lon="8.64563">
        <ele>505</ele>
        <time>2021-08-05T09:18:25.439Z</time>
      </trkpt>
      <trkpt lat="46.99948" lon="8.64563">
        <ele>506</ele>
        <time>2021-08-05T09:18:26.439Z</time>
      </trkpt>
      <trkpt lat="46.99947" lon="8.64563">
        <ele>506</ele>
        <time>2021-08-05T09:18:27.439Z</time>
      </trkpt>
      <trkpt lat="46.99946" lon="8.64563">
        <ele>506</ele>
        <time>2021-08-05T09:18:28.439Z</time>
      </trkpt>
      <trkpt lat="46.99945" lon="8.64564">
        <ele>506</ele>
        <time>2021-08-05T09:18:29.439Z</time>
      </trkpt>
      <trkpt lat="46.99945" lon="8.64565">
        <ele>506</ele>
        <time>2021-08-05T09:18:30.439Z</time>
      </trkpt>
      <trkpt lat="46.99944" lon="8.64565">
        <ele>506</ele>
        <time>2021-08-05T09:18:31.439Z</time>
      </trkpt>
      <trkpt lat="46.99944" lon="8.64565">
        <ele>506</ele>
        <time>2021-08-05T09:18:32.439Z</time>
      </trkpt>
      <trkpt lat="46.99942" lon="8.64565">
        <ele>506</ele>
        <time>2021-08-05T09:18:33.439Z</time>
      </trkpt>
      <trkpt lat="46.99941" lon="8.64565">
        <ele>506</ele>
        <time>2021-08-05T09:18:34.439Z</time>
      </trkpt>
      <trkpt lat="46.9994" lon="8.64565">
        <ele>506</ele>
        <time>2021-08-05T09:18:35.439Z</time>
      </trkpt>
      <trkpt lat="46.99939" lon="8.64566">
        <ele>506</ele>
        <time>2021-08-05T09:18:36.439Z</time>
      </trkpt>
      <trkpt lat="46.99938" lon="8.64566">
        <ele>506</ele>
        <time>2021-08-05T09:18:37.439Z</time>
      </trkpt>
      <trkpt lat="46.99938" lon="8.64567">
        <ele>506</ele>
        <time>2021-08-05T09:18:38.439Z</time>
      </trkpt>
      <trkpt lat="46.99937" lon="8.64568">
        <ele>506</ele>
        <time>2021-08-05T09:18:39.439Z</time>
      </trkpt>
      <trkpt lat="46.99936" lon="8.64569">
        <ele>506</ele>
        <time>2021-08-05T09:18:40.439Z</time>
      </trkpt>
      <trkpt lat="46.99935" lon="8.64569">
        <ele>507</ele>
        <time>2021-08-05T09:18:41.439Z</time>
      </trkpt>
      <trkpt lat="46.99934" lon="8.64569">
        <ele>507</ele>
        <time>2021-08-05T09:18:42.439Z</time>
      </trkpt>
      <trkpt lat="46.99932" lon="8.6457">
        <ele>507</ele>
        <time>2021-08-05T09:18:43.439Z</time>
      </trkpt>
      <trkpt lat="46.99931" lon="8.6457">
        <ele>507</ele>
        <time>2021-08-05T09:18:44.439Z</time>
      </trkpt>
      <trkpt lat="46.9993" lon="8.64571">
        <ele>507</ele>
        <time>2021-08-05T09:18:45.439Z</time>
      </trkpt>
      <trkpt lat="46.9993" lon="8.64572">
        <ele>507</ele>
        <time>2021-08-05T09:18:46.439Z</time>
      </trkpt>
      <trkpt lat="46.99929" lon="8.64573">
        <ele>507</ele>
        <time>2021-08-05T09:18:47.439Z</time>
      </trkpt>
      <trkpt lat="46.99927" lon="8.64574">
        <ele>507</ele>
        <time>2021-08-05T09:18:48.439Z</time>
      </trkpt>
      <trkpt lat="46.99927" lon="8.64574">
        <ele>507</ele>
        <time>2021-08-05T09:18:49.439Z</time>
      </trkpt>
      <trkpt lat="46.99926" lon="8.64574">
        <ele>507</ele>
        <time>2021-08-05T09:18:50.439Z</time>
      </trkpt>
      <trkpt lat="46.99925" lon="8.64574">
        <ele>508</ele>
        <time>2021-08-05T09:18:51.439Z</time>
      </trkpt>
      <trkpt lat="46.99923" lon="8.64575">
        <ele>508</ele>
        <time>2021-08-05T09:18:52.439Z</time>
      </trkpt>
      <trkpt lat="46.99922" lon="8.64575">
        <ele>509</ele>
        <time>2021-08-05T09:18:53.439Z</time>
      </trkpt>
      <trkpt lat="46.99921" lon="8.64576">
        <ele>510</ele>
        <time>2021-08-05T09:18:54.439Z</time>
      </trkpt>
      <trkpt lat="46.9992" lon="8.64576">
        <ele>510</ele>
        <time>2021-08-05T09:18:55.439Z</time>
      </trkpt>
      <trkpt lat="46.99919" lon="8.64577">
        <ele>511</ele>
        <time>2021-08-05T09:18:56.439Z</time>
      </trkpt>
      <trkpt lat="46.99918" lon="8.64577">
        <ele>511</ele>
        <time>2021-08-05T09:18:57.439Z</time>
      </trkpt>
      <trkpt lat="46.99917" lon="8.64576">
        <ele>511</ele>
        <time>2021-08-05T09:18:58.439Z</time>
      </trkpt>
      <trkpt lat="46.99915" lon="8.64576">
        <ele>511</ele>
        <time>2021-08-05T09:18:59.439Z</time>
      </trkpt>
      <trkpt lat="46.99914" lon="8.64576">
        <ele>512</ele>
        <time>2021-08-05T09:19:00.439Z</time>
      </trkpt>
      <trkpt lat="46.99913" lon="8.64576">
        <ele>512</ele>
        <time>2021-08-05T09:19:01.439Z</time>
      </trkpt>
      <trkpt lat="46.99912" lon="8.64576">
        <ele>512</ele>
        <time>2021-08-05T09:19:02.439Z</time>
      </trkpt>
      <trkpt lat="46.99911" lon="8.64577">
        <ele>512</ele>
        <time>2021-08-05T09:19:03.439Z</time>
      </trkpt>
      <trkpt lat="46.99909" lon="8.64578">
        <ele>512</ele>
        <time>2021-08-05T09:19:04.439Z</time>
      </trkpt>
      <trkpt lat="46.99909" lon="8.64579">
        <ele>512</ele>
        <time>2021-08-05T09:19:05.439Z</time>
      </trkpt>
      <trkpt lat="46.99908" lon="8.6458">
        <ele>512</ele>
        <time>2021-08-05T09:19:06.439Z</time>
      </trkpt>
      <trkpt lat="46.99907" lon="8.64581">
        <ele>513</ele>
        <time>2021-08-05T09:19:07.439Z</time>
      </trkpt>
      <trkpt lat="46.99906" lon="8.64581">
        <ele>513</ele>
        <time>2021-08-05T09:19:08.439Z</time>
      </trkpt>
      <trkpt lat="46.99905" lon="8.64581">
        <ele>513</ele>
        <time>2021-08-05T09:19:09.439Z</time>
      </trkpt>
      <trkpt lat="46.99903" lon="8.64582">
        <ele>513</ele>
        <time>2021-08-05T09:19:10.439Z</time>
      </trkpt>
      <trkpt lat="46.99903" lon="8.64583">
        <ele>513</ele>
        <time>2021-08-05T09:19:11.439Z</time>
      </trkpt>
      <trkpt lat="46.99902" lon="8.64583">
        <ele>514</ele>
        <time>2021-08-05T09:19:12.439Z</time>
      </trkpt>
      <trkpt lat="46.99901" lon="8.64583">
        <ele>514</ele>
        <time>2021-08-05T09:19:13.439Z</time>
      </trkpt>
      <trkpt lat="46.999" lon="8.64582">
        <ele>514</ele>
        <time>2021-08-05T09:19:14.439Z</time>
      </trkpt>
      <trkpt lat="46.99899" lon="8.64582">
        <ele>513</ele>
        <time>2021-08-05T09:19:15.439Z</time>
      </trkpt>
      <trkpt lat="46.99898" lon="8.64583">
        <ele>513</ele>
        <time>2021-08-05T09:19:16.439Z</time>
      </trkpt>
      <trkpt lat="46.99897" lon="8.64583">
        <ele>513</ele>
        <time>2021-08-05T09:19:17.439Z</time>
      </trkpt>
      <trkpt lat="46.99896" lon="8.64584">
        <ele>513</ele>
        <time>2021-08-05T09:19:18.439Z</time>
      </trkpt>
      <trkpt lat="46.99895" lon="8.64584">
        <ele>513</ele>
        <time>2021-08-05T09:19:19.439Z</time>
      </trkpt>
      <trkpt lat="46.99895" lon="8.64585">
        <ele>513</ele>
        <time>2021-08-05T09:19:20.439Z</time>
      </trkpt>
      <trkpt lat="46.99894" lon="8.64586">
        <ele>513</ele>
        <time>2021-08-05T09:19:21.439Z</time>
      </trkpt>
      <trkpt lat="46.99893" lon="8.64587">
        <ele>512</ele>
        <time>2021-08-05T09:19:22.439Z</time>
      </trkpt>
      <trkpt lat="46.99892" lon="8.64587">
        <ele>512</ele>
        <time>2021-08-05T09:19:23.439Z</time>
      </trkpt>
      <trkpt lat="46.99891" lon="8.64588">
        <ele>511</ele>
        <time>2021-08-05T09:19:24.439Z</time>
      </trkpt>
      <trkpt lat="46.9989" lon="8.64588">
        <ele>511</ele>
        <time>2021-08-05T09:19:25.439Z</time>
      </trkpt>
      <trkpt lat="46.99888" lon="8.64589">
        <ele>511</ele>
        <time>2021-08-05T09:19:26.439Z</time>
      </trkpt>
      <trkpt lat="46.99887" lon="8.64589">
        <ele>510</ele>
        <time>2021-08-05T09:19:27.439Z</time>
      </trkpt>
      <trkpt lat="46.99886" lon="8.6459">
        <ele>510</ele>
        <time>2021-08-05T09:19:28.439Z</time>
      </trkpt>
      <trkpt lat="46.99885" lon="8.6459">
        <ele>510</ele>
        <time>2021-08-05T09:19:29.439Z</time>
      </trkpt>
      <trkpt lat="46.99884" lon="8.64591">
        <ele>510</ele>
        <time>2021-08-05T09:19:30.439Z</time>
      </trkpt>
      <trkpt lat="46.99883" lon="8.64592">
        <ele>509</ele>
        <time>2021-08-05T09:19:31.439Z</time>
      </trkpt>
      <trkpt lat="46.99882" lon="8.64593">
        <ele>509</ele>
        <time>2021-08-05T09:19:32.439Z</time>
      </trkpt>
      <trkpt lat="46.99882" lon="8.64594">
        <ele>509</ele>
        <time>2021-08-05T09:19:33.439Z</time>
      </trkpt>
      <trkpt lat="46.99881" lon="8.64596">
        <ele>509</ele>
        <time>2021-08-05T09:19:34.439Z</time>
      </trkpt>
      <trkpt lat="46.9988" lon="8.64596">
        <ele>509</ele>
        <time>2021-08-05T09:19:35.439Z</time>
      </trkpt>
      <trkpt lat="46.99879" lon="8.64597">
        <ele>508</ele>
        <time>2021-08-05T09:19:36.439Z</time>
      </trkpt>
      <trkpt lat="46.99878" lon="8.64599">
        <ele>508</ele>
        <time>2021-08-05T09:19:37.439Z</time>
      </trkpt>
      <trkpt lat="46.99877" lon="8.646">
        <ele>508</ele>
        <time>2021-08-05T09:19:38.439Z</time>
      </trkpt>
      <trkpt lat="46.99876" lon="8.64601">
        <ele>507</ele>
        <time>2021-08-05T09:19:39.439Z</time>
      </trkpt>
      <trkpt lat="46.99875" lon="8.64602">
        <ele>507</ele>
        <time>2021-08-05T09:19:40.439Z</time>
      </trkpt>
      <trkpt lat="46.99874" lon="8.64602">
        <ele>506</ele>
        <time>2021-08-05T09:19:41.439Z</time>
      </trkpt>
      <trkpt lat="46.99874" lon="8.64603">
        <ele>506</ele>
        <time>2021-08-05T09:19:42.439Z</time>
      </trkpt>
      <trkpt lat="46.99873" lon="8.64604">
        <ele>506</ele>
        <time>2021-08-05T09:19:43.439Z</time>
      </trkpt>
      <trkpt lat="46.99872" lon="8.64605">
        <ele>507</ele>
        <time>2021-08-05T09:19:44.439Z</time>
      </trkpt>
      <trkpt lat="46.99871" lon="8.64605">
        <ele>507</ele>
        <time>2021-08-05T09:19:45.439Z</time>
      </trkpt>
      <trkpt lat="46.9987" lon="8.64606">
        <ele>507</ele>
        <time>2021-08-05T09:19:46.439Z</time>
      </trkpt>
      <trkpt lat="46.99869" lon="8.64607">
        <ele>508</ele>
        <time>2021-08-05T09:19:47.439Z</time>
      </trkpt>
      <trkpt lat="46.99868" lon="8.64607">
        <ele>508</ele>
        <time>2021-08-05T09:19:48.439Z</time>
      </trkpt>
      <trkpt lat="46.99867" lon="8.64608">
        <ele>508</ele>
        <time>2021-08-05T09:19:49.439Z</time>
      </trkpt>
      <trkpt lat="46.99867" lon="8.64609">
        <ele>509</ele>
        <time>2021-08-05T09:19:50.439Z</time>
      </trkpt>
      <trkpt lat="46.99866" lon="8.6461">
        <ele>509</ele>
        <time>2021-08-05T09:19:51.439Z</time>
      </trkpt>
      <trkpt lat="46.99865" lon="8.64611">
        <ele>509</ele>
        <time>2021-08-05T09:19:52.439Z</time>
      </trkpt>
      <trkpt lat="46.99864" lon="8.64612">
        <ele>508</ele>
        <time>2021-08-05T09:19:53.439Z</time>
      </trkpt>
      <trkpt lat="46.99863" lon="8.64612">
        <ele>508</ele>
        <time>2021-08-05T09:19:54.439Z</time>
      </trkpt>
      <trkpt lat="46.99862" lon="8.64612">
        <ele>508</ele>
        <time>2021-08-05T09:19:55.439Z</time>
      </trkpt>
      <trkpt lat="46.99861" lon="8.64613">
        <ele>509</ele>
        <time>2021-08-05T09:19:56.439Z</time>
      </trkpt>
      <trkpt lat="46.9986" lon="8.64614">
        <ele>509</ele>
        <time>2021-08-05T09:19:57.439Z</time>
      </trkpt>
      <trkpt lat="46.99859" lon="8.64615">
        <ele>509</ele>
        <time>2021-08-05T09:19:58.439Z</time>
      </trkpt>
      <trkpt lat="46.99858" lon="8.64616">
        <ele>509</ele>
        <time>2021-08-05T09:19:59.439Z</time>
      </trkpt>
      <trkpt lat="46.99857" lon="8.64617">
        <ele>509</ele>
        <time>2021-08-05T09:20:00.439Z</time>
      </trkpt>
      <trkpt lat="46.99857" lon="8.64618">
        <ele>509</ele>
        <time>2021-08-05T09:20:01.439Z</time>
      </trkpt>
      <trkpt lat="46.99856" lon="8.64618">
        <ele>509</ele>
        <time>2021-08-05T09:20:02.439Z</time>
      </trkpt>
      <trkpt lat="46.99855" lon="8.64619">
        <ele>510</ele>
        <time>2021-08-05T09:20:03.439Z</time>
      </trkpt>
      <trkpt lat="46.99854" lon="8.64619">
        <ele>510</ele>
        <time>2021-08-05T09:20:04.439Z</time>
      </trkpt>
      <trkpt lat="46.99853" lon="8.6462">
        <ele>511</ele>
        <time>2021-08-05T09:20:05.439Z</time>
      </trkpt>
      <trkpt lat="46.99852" lon="8.64621">
        <ele>511</ele>
        <time>2021-08-05T09:20:06.439Z</time>
      </trkpt>
      <trkpt lat="46.99851" lon="8.64621">
        <ele>511</ele>
        <time>2021-08-05T09:20:07.439Z</time>
      </trkpt>
      <trkpt lat="46.9985" lon="8.64622">
        <ele>512</ele>
        <time>2021-08-05T09:20:08.439Z</time>
      </trkpt>
      <trkpt lat="46.99849" lon="8.64623">
        <ele>512</ele>
        <time>2021-08-05T09:20:09.439Z</time>
      </trkpt>
      <trkpt lat="46.99848" lon="8.64624">
        <ele>512</ele>
        <time>2021-08-05T09:20:10.439Z</time>
      </trkpt>
      <trkpt lat="46.99847" lon="8.64625">
        <ele>513</ele>
        <time>2021-08-05T09:20:11.439Z</time>
      </trkpt>
      <trkpt lat="46.99847" lon="8.64626">
        <ele>513</ele>
        <time>2021-08-05T09:20:12.439Z</time>
      </trkpt>
      <trkpt lat="46.99846" lon="8.64627">
        <ele>513</ele>
        <time>2021-08-05T09:20:13.439Z</time>
      </trkpt>
      <trkpt lat="46.99845" lon="8.64628">
        <ele>513</ele>
        <time>2021-08-05T09:20:14.439Z</time>
      </trkpt>
      <trkpt lat="46.99844" lon="8.64629">
        <ele>514</ele>
        <time>2021-08-05T09:20:15.439Z</time>
      </trkpt>
      <trkpt lat="46.99844" lon="8.6463">
        <ele>514</ele>
        <time>2021-08-05T09:20:16.439Z</time>
      </trkpt>
      <trkpt lat="46.99843" lon="8.64631">
        <ele>514</ele>
        <time>2021-08-05T09:20:17.439Z</time>
      </trkpt>
      <trkpt lat="46.99843" lon="8.64632">
        <ele>514</ele>
        <time>2021-08-05T09:20:18.439Z</time>
      </trkpt>
      <trkpt lat="46.99842" lon="8.64633">
        <ele>514</ele>
        <time>2021-08-05T09:20:19.439Z</time>
      </trkpt>
      <trkpt lat="46.99841" lon="8.64634">
        <ele>514</ele>
        <time>2021-08-05T09:20:20.439Z</time>
      </trkpt>
      <trkpt lat="46.99841" lon="8.64635">
        <ele>514</ele>
        <time>2021-08-05T09:20:21.439Z</time>
      </trkpt>
      <trkpt lat="46.9984" lon="8.64636">
        <ele>514</ele>
        <time>2021-08-05T09:20:22.439Z</time>
      </trkpt>
      <trkpt lat="46.99839" lon="8.64636">
        <ele>514</ele>
        <time>2021-08-05T09:20:23.439Z</time>
      </trkpt>
      <trkpt lat="46.99839" lon="8.64637">
        <ele>514</ele>
        <time>2021-08-05T09:20:24.439Z</time>
      </trkpt>
      <trkpt lat="46.99838" lon="8.64638">
        <ele>514</ele>
        <time>2021-08-05T09:20:25.439Z</time>
      </trkpt>
      <trkpt lat="46.99838" lon="8.64638">
        <ele>514</ele>
        <time>2021-08-05T09:20:26.439Z</time>
      </trkpt>
      <trkpt lat="46.99837" lon="8.64639">
        <ele>514</ele>
        <time>2021-08-05T09:20:27.439Z</time>
      </trkpt>
      <trkpt lat="46.99836" lon="8.6464">
        <ele>514</ele>
        <time>2021-08-05T09:20:28.439Z</time>
      </trkpt>
      <trkpt lat="46.99835" lon="8.64641">
        <ele>514</ele>
        <time>2021-08-05T09:20:29.439Z</time>
      </trkpt>
      <trkpt lat="46.99834" lon="8.64642">
        <ele>514</ele>
        <time>2021-08-05T09:20:30.439Z</time>
      </trkpt>
      <trkpt lat="46.99834" lon="8.64643">
        <ele>514</ele>
        <time>2021-08-05T09:20:31.439Z</time>
      </trkpt>
      <trkpt lat="46.99833" lon="8.64644">
        <ele>514</ele>
        <time>2021-08-05T09:20:32.439Z</time>
      </trkpt>
      <trkpt lat="46.99832" lon="8.64644">
        <ele>515</ele>
        <time>2021-08-05T09:20:33.439Z</time>
      </trkpt>
      <trkpt lat="46.99832" lon="8.64645">
        <ele>515</ele>
        <time>2021-08-05T09:20:34.439Z</time>
      </trkpt>
      <trkpt lat="46.9983" lon="8.64646">
        <ele>515</ele>
        <time>2021-08-05T09:20:35.439Z</time>
      </trkpt>
      <trkpt lat="46.99829" lon="8.64647">
        <ele>515</ele>
        <time>2021-08-05T09:20:36.439Z</time>
      </trkpt>
      <trkpt lat="46.99829" lon="8.64647">
        <ele>515</ele>
        <time>2021-08-05T09:20:37.439Z</time>
      </trkpt>
      <trkpt lat="46.99828" lon="8.64648">
        <ele>515</ele>
        <time>2021-08-05T09:20:38.439Z</time>
      </trkpt>
      <trkpt lat="46.99827" lon="8.64649">
        <ele>515</ele>
        <time>2021-08-05T09:20:39.439Z</time>
      </trkpt>
      <trkpt lat="46.99826" lon="8.6465">
        <ele>515</ele>
        <time>2021-08-05T09:20:40.439Z</time>
      </trkpt>
      <trkpt lat="46.99826" lon="8.64651">
        <ele>516</ele>
        <time>2021-08-05T09:20:41.439Z</time>
      </trkpt>
      <trkpt lat="46.99825" lon="8.64652">
        <ele>516</ele>
        <time>2021-08-05T09:20:42.439Z</time>
      </trkpt>
      <trkpt lat="46.99824" lon="8.64652">
        <ele>516</ele>
        <time>2021-08-05T09:20:43.439Z</time>
      </trkpt>
      <trkpt lat="46.99823" lon="8.64653">
        <ele>517</ele>
        <time>2021-08-05T09:20:44.439Z</time>
      </trkpt>
      <trkpt lat="46.99822" lon="8.64654">
        <ele>517</ele>
        <time>2021-08-05T09:20:45.439Z</time>
      </trkpt>
      <trkpt lat="46.99822" lon="8.64654">
        <ele>518</ele>
        <time>2021-08-05T09:20:46.439Z</time>
      </trkpt>
      <trkpt lat="46.99821" lon="8.64655">
        <ele>518</ele>
        <time>2021-08-05T09:20:47.439Z</time>
      </trkpt>
      <trkpt lat="46.9982" lon="8.64655">
        <ele>519</ele>
        <time>2021-08-05T09:20:48.439Z</time>
      </trkpt>
      <trkpt lat="46.99819" lon="8.64656">
        <ele>519</ele>
        <time>2021-08-05T09:20:49.439Z</time>
      </trkpt>
      <trkpt lat="46.99819" lon="8.64657">
        <ele>519</ele>
        <time>2021-08-05T09:20:50.439Z</time>
      </trkpt>
      <trkpt lat="46.99818" lon="8.64658">
        <ele>519</ele>
        <time>2021-08-05T09:20:51.439Z</time>
      </trkpt>
      <trkpt lat="46.99818" lon="8.64659">
        <ele>519</ele>
        <time>2021-08-05T09:20:52.439Z</time>
      </trkpt>
      <trkpt lat="46.99817" lon="8.64661">
        <ele>519</ele>
        <time>2021-08-05T09:20:53.439Z</time>
      </trkpt>
      <trkpt lat="46.99816" lon="8.64662">
        <ele>519</ele>
        <time>2021-08-05T09:20:54.439Z</time>
      </trkpt>
      <trkpt lat="46.99815" lon="8.64663">
        <ele>519</ele>
        <time>2021-08-05T09:20:55.439Z</time>
      </trkpt>
      <trkpt lat="46.99814" lon="8.64664">
        <ele>519</ele>
        <time>2021-08-05T09:20:56.439Z</time>
      </trkpt>
      <trkpt lat="46.99813" lon="8.64664">
        <ele>519</ele>
        <time>2021-08-05T09:20:57.439Z</time>
      </trkpt>
      <trkpt lat="46.99812" lon="8.64666">
        <ele>519</ele>
        <time>2021-08-05T09:20:58.439Z</time>
      </trkpt>
      <trkpt lat="46.99812" lon="8.64667">
        <ele>519</ele>
        <time>2021-08-05T09:20:59.439Z</time>
      </trkpt>
      <trkpt lat="46.99811" lon="8.64668">
        <ele>519</ele>
        <time>2021-08-05T09:21:00.439Z</time>
      </trkpt>
      <trkpt lat="46.9981" lon="8.64668">
        <ele>519</ele>
        <time>2021-08-05T09:21:01.439Z</time>
      </trkpt>
      <trkpt lat="46.99809" lon="8.64669">
        <ele>519</ele>
        <time>2021-08-05T09:21:02.439Z</time>
      </trkpt>
      <trkpt lat="46.99808" lon="8.6467">
        <ele>519</ele>
        <time>2021-08-05T09:21:03.439Z</time>
      </trkpt>
      <trkpt lat="46.99807" lon="8.64671">
        <ele>519</ele>
        <time>2021-08-05T09:21:04.439Z</time>
      </trkpt>
      <trkpt lat="46.99807" lon="8.64671">
        <ele>519</ele>
        <time>2021-08-05T09:21:05.439Z</time>
      </trkpt>
      <trkpt lat="46.99806" lon="8.64672">
        <ele>520</ele>
        <time>2021-08-05T09:21:06.439Z</time>
      </trkpt>
      <trkpt lat="46.99805" lon="8.64673">
        <ele>520</ele>
        <time>2021-08-05T09:21:07.439Z</time>
      </trkpt>
      <trkpt lat="46.99804" lon="8.64674">
        <ele>520</ele>
        <time>2021-08-05T09:21:08.439Z</time>
      </trkpt>
      <trkpt lat="46.99803" lon="8.64675">
        <ele>520</ele>
        <time>2021-08-05T09:21:09.439Z</time>
      </trkpt>
      <trkpt lat="46.99802" lon="8.64676">
        <ele>520</ele>
        <time>2021-08-05T09:21:10.439Z</time>
      </trkpt>
      <trkpt lat="46.99801" lon="8.64676">
        <ele>521</ele>
        <time>2021-08-05T09:21:11.439Z</time>
      </trkpt>
      <trkpt lat="46.998" lon="8.64677">
        <ele>521</ele>
        <time>2021-08-05T09:21:12.439Z</time>
      </trkpt>
      <trkpt lat="46.99799" lon="8.64677">
        <ele>522</ele>
        <time>2021-08-05T09:21:13.439Z</time>
      </trkpt>
      <trkpt lat="46.99798" lon="8.64678">
        <ele>522</ele>
        <time>2021-08-05T09:21:14.439Z</time>
      </trkpt>
      <trkpt lat="46.99797" lon="8.64678">
        <ele>522</ele>
        <time>2021-08-05T09:21:15.439Z</time>
      </trkpt>
      <trkpt lat="46.99796" lon="8.64679">
        <ele>522</ele>
        <time>2021-08-05T09:21:16.439Z</time>
      </trkpt>
      <trkpt lat="46.99795" lon="8.64679">
        <ele>522</ele>
        <time>2021-08-05T09:21:17.439Z</time>
      </trkpt>
      <trkpt lat="46.99794" lon="8.6468">
        <ele>523</ele>
        <time>2021-08-05T09:21:18.439Z</time>
      </trkpt>
      <trkpt lat="46.99793" lon="8.6468">
        <ele>523</ele>
        <time>2021-08-05T09:21:19.439Z</time>
      </trkpt>
      <trkpt lat="46.99792" lon="8.64681">
        <ele>523</ele>
        <time>2021-08-05T09:21:20.439Z</time>
      </trkpt>
      <trkpt lat="46.99791" lon="8.64681">
        <ele>523</ele>
        <time>2021-08-05T09:21:21.439Z</time>
      </trkpt>
      <trkpt lat="46.9979" lon="8.64681">
        <ele>523</ele>
        <time>2021-08-05T09:21:22.439Z</time>
      </trkpt>
      <trkpt lat="46.99788" lon="8.64682">
        <ele>523</ele>
        <time>2021-08-05T09:21:23.439Z</time>
      </trkpt>
      <trkpt lat="46.99787" lon="8.64682">
        <ele>523</ele>
        <time>2021-08-05T09:21:24.439Z</time>
      </trkpt>
      <trkpt lat="46.99786" lon="8.64682">
        <ele>523</ele>
        <time>2021-08-05T09:21:25.439Z</time>
      </trkpt>
      <trkpt lat="46.99785" lon="8.64682">
        <ele>523</ele>
        <time>2021-08-05T09:21:26.439Z</time>
      </trkpt>
      <trkpt lat="46.99784" lon="8.64683">
        <ele>523</ele>
        <time>2021-08-05T09:21:27.439Z</time>
      </trkpt>
      <trkpt lat="46.99783" lon="8.64682">
        <ele>523</ele>
        <time>2021-08-05T09:21:28.439Z</time>
      </trkpt>
      <trkpt lat="46.99781" lon="8.64683">
        <ele>523</ele>
        <time>2021-08-05T09:21:29.439Z</time>
      </trkpt>
      <trkpt lat="46.9978" lon="8.64683">
        <ele>523</ele>
        <time>2021-08-05T09:21:30.439Z</time>
      </trkpt>
      <trkpt lat="46.99779" lon="8.64683">
        <ele>523</ele>
        <time>2021-08-05T09:21:31.439Z</time>
      </trkpt>
      <trkpt lat="46.99778" lon="8.64683">
        <ele>522</ele>
        <time>2021-08-05T09:21:32.439Z</time>
      </trkpt>
      <trkpt lat="46.99777" lon="8.64683">
        <ele>522</ele>
        <time>2021-08-05T09:21:33.439Z</time>
      </trkpt>
      <trkpt lat="46.99776" lon="8.64683">
        <ele>522</ele>
        <time>2021-08-05T09:21:34.439Z</time>
      </trkpt>
      <trkpt lat="46.99775" lon="8.64683">
        <ele>522</ele>
        <time>2021-08-05T09:21:35.439Z</time>
      </trkpt>
      <trkpt lat="46.99774" lon="8.64683">
        <ele>522</ele>
        <time>2021-08-05T09:21:36.439Z</time>
      </trkpt>
      <trkpt lat="46.99773" lon="8.64682">
        <ele>522</ele>
        <time>2021-08-05T09:21:37.439Z</time>
      </trkpt>
      <trkpt lat="46.99772" lon="8.64682">
        <ele>522</ele>
        <time>2021-08-05T09:21:38.439Z</time>
      </trkpt>
      <trkpt lat="46.99771" lon="8.64681">
        <ele>522</ele>
        <time>2021-08-05T09:21:39.439Z</time>
      </trkpt>
      <trkpt lat="46.9977" lon="8.64681">
        <ele>522</ele>
        <time>2021-08-05T09:21:40.439Z</time>
      </trkpt>
      <trkpt lat="46.99769" lon="8.6468">
        <ele>522</ele>
        <time>2021-08-05T09:21:41.439Z</time>
      </trkpt>
      <trkpt lat="46.99768" lon="8.6468">
        <ele>522</ele>
        <time>2021-08-05T09:21:42.439Z</time>
      </trkpt>
      <trkpt lat="46.99767" lon="8.64679">
        <ele>522</ele>
        <time>2021-08-05T09:21:43.439Z</time>
      </trkpt>
      <trkpt lat="46.99766" lon="8.64679">
        <ele>522</ele>
        <time>2021-08-05T09:21:44.439Z</time>
      </trkpt>
      <trkpt lat="46.99765" lon="8.64678">
        <ele>522</ele>
        <time>2021-08-05T09:21:45.439Z</time>
      </trkpt>
      <trkpt lat="46.99763" lon="8.64678">
        <ele>522</ele>
        <time>2021-08-05T09:21:46.439Z</time>
      </trkpt>
      <trkpt lat="46.99762" lon="8.64678">
        <ele>522</ele>
        <time>2021-08-05T09:21:47.439Z</time>
      </trkpt>
      <trkpt lat="46.99761" lon="8.64677">
        <ele>521</ele>
        <time>2021-08-05T09:21:48.439Z</time>
      </trkpt>
      <trkpt lat="46.9976" lon="8.64677">
        <ele>521</ele>
        <time>2021-08-05T09:21:49.439Z</time>
      </trkpt>
      <trkpt lat="46.99759" lon="8.64677">
        <ele>521</ele>
        <time>2021-08-05T09:21:50.439Z</time>
      </trkpt>
      <trkpt lat="46.99757" lon="8.64677">
        <ele>521</ele>
        <time>2021-08-05T09:21:51.439Z</time>
      </trkpt>
      <trkpt lat="46.99756" lon="8.64677">
        <ele>521</ele>
        <time>2021-08-05T09:21:52.439Z</time>
      </trkpt>
      <trkpt lat="46.99754" lon="8.64677">
        <ele>521</ele>
        <time>2021-08-05T09:21:53.439Z</time>
      </trkpt>
      <trkpt lat="46.99753" lon="8.64677">
        <ele>521</ele>
        <time>2021-08-05T09:21:54.439Z</time>
      </trkpt>
      <trkpt lat="46.99752" lon="8.64677">
        <ele>522</ele>
        <time>2021-08-05T09:21:55.439Z</time>
      </trkpt>
      <trkpt lat="46.99751" lon="8.64678">
        <ele>523</ele>
        <time>2021-08-05T09:21:56.439Z</time>
      </trkpt>
      <trkpt lat="46.9975" lon="8.64678">
        <ele>524</ele>
        <time>2021-08-05T09:21:57.439Z</time>
      </trkpt>
      <trkpt lat="46.99749" lon="8.64679">
        <ele>524</ele>
        <time>2021-08-05T09:21:58.439Z</time>
      </trkpt>
      <trkpt lat="46.99748" lon="8.64679">
        <ele>525</ele>
        <time>2021-08-05T09:21:59.439Z</time>
      </trkpt>
      <trkpt lat="46.99746" lon="8.6468">
        <ele>526</ele>
        <time>2021-08-05T09:22:00.439Z</time>
      </trkpt>
      <trkpt lat="46.99746" lon="8.6468">
        <ele>526</ele>
        <time>2021-08-05T09:22:01.439Z</time>
      </trkpt>
      <trkpt lat="46.99744" lon="8.64681">
        <ele>527</ele>
        <time>2021-08-05T09:22:02.439Z</time>
      </trkpt>
      <trkpt lat="46.99744" lon="8.64682">
        <ele>527</ele>
        <time>2021-08-05T09:22:03.439Z</time>
      </trkpt>
      <trkpt lat="46.99742" lon="8.64682">
        <ele>527</ele>
        <time>2021-08-05T09:22:04.439Z</time>
      </trkpt>
      <trkpt lat="46.99741" lon="8.64683">
        <ele>528</ele>
        <time>2021-08-05T09:22:05.439Z</time>
      </trkpt>
      <trkpt lat="46.9974" lon="8.64684">
        <ele>528</ele>
        <time>2021-08-05T09:22:06.439Z</time>
      </trkpt>
      <trkpt lat="46.9974" lon="8.64685">
        <ele>528</ele>
        <time>2021-08-05T09:22:07.439Z</time>
      </trkpt>
      <trkpt lat="46.99739" lon="8.64685">
        <ele>528</ele>
        <time>2021-08-05T09:22:08.439Z</time>
      </trkpt>
      <trkpt lat="46.99738" lon="8.64686">
        <ele>528</ele>
        <time>2021-08-05T09:22:09.439Z</time>
      </trkpt>
      <trkpt lat="46.99737" lon="8.64687">
        <ele>528</ele>
        <time>2021-08-05T09:22:10.439Z</time>
      </trkpt>
      <trkpt lat="46.99736" lon="8.64687">
        <ele>528</ele>
        <time>2021-08-05T09:22:11.439Z</time>
      </trkpt>
      <trkpt lat="46.99735" lon="8.64688">
        <ele>528</ele>
        <time>2021-08-05T09:22:12.439Z</time>
      </trkpt>
      <trkpt lat="46.99734" lon="8.64689">
        <ele>528</ele>
        <time>2021-08-05T09:22:13.439Z</time>
      </trkpt>
      <trkpt lat="46.99733" lon="8.6469">
        <ele>528</ele>
        <time>2021-08-05T09:22:14.439Z</time>
      </trkpt>
      <trkpt lat="46.99732" lon="8.64691">
        <ele>528</ele>
        <time>2021-08-05T09:22:15.439Z</time>
      </trkpt>
      <trkpt lat="46.99731" lon="8.64692">
        <ele>528</ele>
        <time>2021-08-05T09:22:16.439Z</time>
      </trkpt>
      <trkpt lat="46.9973" lon="8.64693">
        <ele>528</ele>
        <time>2021-08-05T09:22:17.439Z</time>
      </trkpt>
      <trkpt lat="46.99729" lon="8.64694">
        <ele>529</ele>
        <time>2021-08-05T09:22:18.439Z</time>
      </trkpt>
      <trkpt lat="46.99729" lon="8.64696">
        <ele>529</ele>
        <time>2021-08-05T09:22:19.439Z</time>
      </trkpt>
      <trkpt lat="46.99728" lon="8.64697">
        <ele>529</ele>
        <time>2021-08-05T09:22:20.439Z</time>
      </trkpt>
      <trkpt lat="46.99727" lon="8.64698">
        <ele>529</ele>
        <time>2021-08-05T09:22:21.439Z</time>
      </trkpt>
      <trkpt lat="46.99726" lon="8.64699">
        <ele>529</ele>
        <time>2021-08-05T09:22:22.439Z</time>
      </trkpt>
      <trkpt lat="46.99725" lon="8.64699">
        <ele>529</ele>
        <time>2021-08-05T09:22:23.439Z</time>
      </trkpt>
      <trkpt lat="46.99724" lon="8.647">
        <ele>530</ele>
        <time>2021-08-05T09:22:24.439Z</time>
      </trkpt>
      <trkpt lat="46.99723" lon="8.64701">
        <ele>530</ele>
        <time>2021-08-05T09:22:25.439Z</time>
      </trkpt>
      <trkpt lat="46.99722" lon="8.64702">
        <ele>531</ele>
        <time>2021-08-05T09:22:26.439Z</time>
      </trkpt>
      <trkpt lat="46.99721" lon="8.64703">
        <ele>531</ele>
        <time>2021-08-05T09:22:27.439Z</time>
      </trkpt>
      <trkpt lat="46.99719" lon="8.64704">
        <ele>532</ele>
        <time>2021-08-05T09:22:28.439Z</time>
      </trkpt>
      <trkpt lat="46.99718" lon="8.64705">
        <ele>532</ele>
        <time>2021-08-05T09:22:29.439Z</time>
      </trkpt>
      <trkpt lat="46.99717" lon="8.64706">
        <ele>532</ele>
        <time>2021-08-05T09:22:30.439Z</time>
      </trkpt>
      <trkpt lat="46.99716" lon="8.64706">
        <ele>531</ele>
        <time>2021-08-05T09:22:31.439Z</time>
      </trkpt>
      <trkpt lat="46.99715" lon="8.64707">
        <ele>531</ele>
        <time>2021-08-05T09:22:32.439Z</time>
      </trkpt>
      <trkpt lat="46.99714" lon="8.64708">
        <ele>531</ele>
        <time>2021-08-05T09:22:33.439Z</time>
      </trkpt>
      <trkpt lat="46.99713" lon="8.64709">
        <ele>531</ele>
        <time>2021-08-05T09:22:34.439Z</time>
      </trkpt>
      <trkpt lat="46.99712" lon="8.6471">
        <ele>531</ele>
        <time>2021-08-05T09:22:35.439Z</time>
      </trkpt>
      <trkpt lat="46.99711" lon="8.6471">
        <ele>531</ele>
        <time>2021-08-05T09:22:36.439Z</time>
      </trkpt>
      <trkpt lat="46.9971" lon="8.64711">
        <ele>532</ele>
        <time>2021-08-05T09:22:37.439Z</time>
      </trkpt>
      <trkpt lat="46.9971" lon="8.64712">
        <ele>532</ele>
        <time>2021-08-05T09:22:38.439Z</time>
      </trkpt>
      <trkpt lat="46.99709" lon="8.64712">
        <ele>532</ele>
        <time>2021-08-05T09:22:39.439Z</time>
      </trkpt>
      <trkpt lat="46.99708" lon="8.64713">
        <ele>532</ele>
        <time>2021-08-05T09:22:40.439Z</time>
      </trkpt>
      <trkpt lat="46.99707" lon="8.64714">
        <ele>532</ele>
        <time>2021-08-05T09:22:41.439Z</time>
      </trkpt>
      <trkpt lat="46.99706" lon="8.64714">
        <ele>532</ele>
        <time>2021-08-05T09:22:42.439Z</time>
      </trkpt>
      <trkpt lat="46.99705" lon="8.64714">
        <ele>532</ele>
        <time>2021-08-05T09:22:43.439Z</time>
      </trkpt>
      <trkpt lat="46.99704" lon="8.64714">
        <ele>532</ele>
        <time>2021-08-05T09:22:44.439Z</time>
      </trkpt>
      <trkpt lat="46.99703" lon="8.64715">
        <ele>532</ele>
        <time>2021-08-05T09:22:45.439Z</time>
      </trkpt>
      <trkpt lat="46.99703" lon="8.64716">
        <ele>533</ele>
        <time>2021-08-05T09:22:46.439Z</time>
      </trkpt>
      <trkpt lat="46.99702" lon="8.64717">
        <ele>533</ele>
        <time>2021-08-05T09:22:47.439Z</time>
      </trkpt>
      <trkpt lat="46.99701" lon="8.64717">
        <ele>533</ele>
        <time>2021-08-05T09:22:48.439Z</time>
      </trkpt>
      <trkpt lat="46.99701" lon="8.64718">
        <ele>534</ele>
        <time>2021-08-05T09:22:49.439Z</time>
      </trkpt>
      <trkpt lat="46.997" lon="8.64719">
        <ele>534</ele>
        <time>2021-08-05T09:22:50.439Z</time>
      </trkpt>
      <trkpt lat="46.997" lon="8.64721">
        <ele>534</ele>
        <time>2021-08-05T09:22:51.439Z</time>
      </trkpt>
      <trkpt lat="46.99699" lon="8.64722">
        <ele>534</ele>
        <time>2021-08-05T09:22:52.439Z</time>
      </trkpt>
      <trkpt lat="46.99699" lon="8.64723">
        <ele>535</ele>
        <time>2021-08-05T09:22:53.439Z</time>
      </trkpt>
      <trkpt lat="46.99698" lon="8.64724">
        <ele>535</ele>
        <time>2021-08-05T09:22:54.439Z</time>
      </trkpt>
      <trkpt lat="46.99697" lon="8.64725">
        <ele>535</ele>
        <time>2021-08-05T09:22:55.439Z</time>
      </trkpt>
      <trkpt lat="46.99696" lon="8.64726">
        <ele>535</ele>
        <time>2021-08-05T09:22:56.439Z</time>
      </trkpt>
      <trkpt lat="46.99695" lon="8.64727">
        <ele>535</ele>
        <time>2021-08-05T09:22:57.439Z</time>
      </trkpt>
      <trkpt lat="46.99695" lon="8.64728">
        <ele>536</ele>
        <time>2021-08-05T09:22:58.439Z</time>
      </trkpt>
      <trkpt lat="46.99695" lon="8.64728">
        <ele>536</ele>
        <time>2021-08-05T09:22:59.439Z</time>
      </trkpt>
      <trkpt lat="46.99694" lon="8.64729">
        <ele>537</ele>
        <time>2021-08-05T09:23:00.439Z</time>
      </trkpt>
      <trkpt lat="46.99694" lon="8.6473">
        <ele>537</ele>
        <time>2021-08-05T09:23:01.439Z</time>
      </trkpt>
      <trkpt lat="46.99693" lon="8.6473">
        <ele>538</ele>
        <time>2021-08-05T09:23:02.439Z</time>
      </trkpt>
      <trkpt lat="46.99693" lon="8.64732">
        <ele>538</ele>
        <time>2021-08-05T09:23:03.439Z</time>
      </trkpt>
      <trkpt lat="46.99692" lon="8.64734">
        <ele>538</ele>
        <time>2021-08-05T09:23:04.439Z</time>
      </trkpt>
      <trkpt lat="46.99691" lon="8.64735">
        <ele>539</ele>
        <time>2021-08-05T09:23:05.439Z</time>
      </trkpt>
      <trkpt lat="46.99689" lon="8.64735">
        <ele>539</ele>
        <time>2021-08-05T09:23:06.439Z</time>
      </trkpt>
      <trkpt lat="46.99688" lon="8.64736">
        <ele>539</ele>
        <time>2021-08-05T09:23:07.439Z</time>
      </trkpt>
      <trkpt lat="46.99687" lon="8.64737">
        <ele>539</ele>
        <time>2021-08-05T09:23:08.439Z</time>
      </trkpt>
      <trkpt lat="46.99686" lon="8.64737">
        <ele>539</ele>
        <time>2021-08-05T09:23:09.439Z</time>
      </trkpt>
      <trkpt lat="46.99685" lon="8.64738">
        <ele>539</ele>
        <time>2021-08-05T09:23:10.439Z</time>
      </trkpt>
      <trkpt lat="46.99685" lon="8.64738">
        <ele>539</ele>
        <time>2021-08-05T09:23:11.439Z</time>
      </trkpt>
      <trkpt lat="46.99684" lon="8.64738">
        <ele>539</ele>
        <time>2021-08-05T09:23:12.439Z</time>
      </trkpt>
      <trkpt lat="46.99683" lon="8.64739">
        <ele>538</ele>
        <time>2021-08-05T09:23:13.439Z</time>
      </trkpt>
      <trkpt lat="46.99682" lon="8.64739">
        <ele>538</ele>
        <time>2021-08-05T09:23:14.439Z</time>
      </trkpt>
      <trkpt lat="46.9968" lon="8.6474">
        <ele>538</ele>
        <time>2021-08-05T09:23:15.439Z</time>
      </trkpt>
      <trkpt lat="46.99679" lon="8.64741">
        <ele>538</ele>
        <time>2021-08-05T09:23:16.439Z</time>
      </trkpt>
      <trkpt lat="46.99678" lon="8.64741">
        <ele>537</ele>
        <time>2021-08-05T09:23:17.439Z</time>
      </trkpt>
      <trkpt lat="46.99677" lon="8.64741">
        <ele>537</ele>
        <time>2021-08-05T09:23:18.439Z</time>
      </trkpt>
      <trkpt lat="46.99677" lon="8.64741">
        <ele>537</ele>
        <time>2021-08-05T09:23:19.439Z</time>
      </trkpt>
      <trkpt lat="46.99675" lon="8.64741">
        <ele>537</ele>
        <time>2021-08-05T09:23:20.439Z</time>
      </trkpt>
      <trkpt lat="46.99674" lon="8.64741">
        <ele>537</ele>
        <time>2021-08-05T09:23:21.439Z</time>
      </trkpt>
      <trkpt lat="46.99673" lon="8.64741">
        <ele>536</ele>
        <time>2021-08-05T09:23:22.439Z</time>
      </trkpt>
      <trkpt lat="46.99672" lon="8.6474">
        <ele>536</ele>
        <time>2021-08-05T09:23:23.439Z</time>
      </trkpt>
      <trkpt lat="46.9967" lon="8.6474">
        <ele>536</ele>
        <time>2021-08-05T09:23:24.439Z</time>
      </trkpt>
      <trkpt lat="46.99669" lon="8.64739">
        <ele>535</ele>
        <time>2021-08-05T09:23:25.439Z</time>
      </trkpt>
      <trkpt lat="46.99668" lon="8.64739">
        <ele>535</ele>
        <time>2021-08-05T09:23:26.439Z</time>
      </trkpt>
      <trkpt lat="46.99667" lon="8.64738">
        <ele>535</ele>
        <time>2021-08-05T09:23:27.439Z</time>
      </trkpt>
      <trkpt lat="46.99666" lon="8.64737">
        <ele>535</ele>
        <time>2021-08-05T09:23:28.439Z</time>
      </trkpt>
      <trkpt lat="46.99665" lon="8.64736">
        <ele>535</ele>
        <time>2021-08-05T09:23:29.439Z</time>
      </trkpt>
      <trkpt lat="46.99664" lon="8.64735">
        <ele>536</ele>
        <time>2021-08-05T09:23:30.439Z</time>
      </trkpt>
      <trkpt lat="46.99662" lon="8.64734">
        <ele>536</ele>
        <time>2021-08-05T09:23:31.439Z</time>
      </trkpt>
      <trkpt lat="46.99661" lon="8.64734">
        <ele>537</ele>
        <time>2021-08-05T09:23:32.439Z</time>
      </trkpt>
      <trkpt lat="46.9966" lon="8.64734">
        <ele>537</ele>
        <time>2021-08-05T09:23:33.439Z</time>
      </trkpt>
      <trkpt lat="46.9966" lon="8.64734">
        <ele>537</ele>
        <time>2021-08-05T09:23:34.439Z</time>
      </trkpt>
      <trkpt lat="46.99659" lon="8.64734">
        <ele>538</ele>
        <time>2021-08-05T09:23:35.439Z</time>
      </trkpt>
      <trkpt lat="46.99657" lon="8.64733">
        <ele>538</ele>
        <time>2021-08-05T09:23:36.439Z</time>
      </trkpt>
      <trkpt lat="46.99656" lon="8.64732">
        <ele>539</ele>
        <time>2021-08-05T09:23:37.439Z</time>
      </trkpt>
      <trkpt lat="46.99655" lon="8.64732">
        <ele>539</ele>
        <time>2021-08-05T09:23:38.439Z</time>
      </trkpt>
      <trkpt lat="46.99654" lon="8.64731">
        <ele>539</ele>
        <time>2021-08-05T09:23:39.439Z</time>
      </trkpt>
      <trkpt lat="46.99653" lon="8.6473">
        <ele>540</ele>
        <time>2021-08-05T09:23:40.439Z</time>
      </trkpt>
      <trkpt lat="46.99652" lon="8.64729">
        <ele>540</ele>
        <time>2021-08-05T09:23:41.439Z</time>
      </trkpt>
      <trkpt lat="46.99652" lon="8.64728">
        <ele>540</ele>
        <time>2021-08-05T09:23:42.439Z</time>
      </trkpt>
      <trkpt lat="46.99651" lon="8.64727">
        <ele>540</ele>
        <time>2021-08-05T09:23:43.439Z</time>
      </trkpt>
      <trkpt lat="46.99651" lon="8.64726">
        <ele>541</ele>
        <time>2021-08-05T09:23:44.439Z</time>
      </trkpt>
      <trkpt lat="46.99649" lon="8.64725">
        <ele>541</ele>
        <time>2021-08-05T09:23:45.439Z</time>
      </trkpt>
      <trkpt lat="46.99648" lon="8.64724">
        <ele>541</ele>
        <time>2021-08-05T09:23:46.439Z</time>
      </trkpt>
      <trkpt lat="46.99647" lon="8.64723">
        <ele>542</ele>
        <time>2021-08-05T09:23:47.439Z</time>
      </trkpt>
      <trkpt lat="46.99646" lon="8.64723">
        <ele>542</ele>
        <time>2021-08-05T09:23:48.439Z</time>
      </trkpt>
      <trkpt lat="46.99645" lon="8.64723">
        <ele>542</ele>
        <time>2021-08-05T09:23:49.439Z</time>
      </trkpt>
      <trkpt lat="46.99644" lon="8.64723">
        <ele>542</ele>
        <time>2021-08-05T09:23:50.439Z</time>
      </trkpt>
      <trkpt lat="46.99643" lon="8.64722">
        <ele>542</ele>
        <time>2021-08-05T09:23:51.439Z</time>
      </trkpt>
      <trkpt lat="46.99641" lon="8.64722">
        <ele>542</ele>
        <time>2021-08-05T09:23:52.439Z</time>
      </trkpt>
      <trkpt lat="46.99641" lon="8.64721">
        <ele>541</ele>
        <time>2021-08-05T09:23:53.439Z</time>
      </trkpt>
      <trkpt lat="46.9964" lon="8.6472">
        <ele>541</ele>
        <time>2021-08-05T09:23:54.439Z</time>
      </trkpt>
      <trkpt lat="46.99639" lon="8.6472">
        <ele>541</ele>
        <time>2021-08-05T09:23:55.439Z</time>
      </trkpt>
      <trkpt lat="46.99639" lon="8.6472">
        <ele>541</ele>
        <time>2021-08-05T09:23:56.439Z</time>
      </trkpt>
      <trkpt lat="46.99639" lon="8.64719">
        <ele>540</ele>
        <time>2021-08-05T09:23:57.439Z</time>
      </trkpt>
      <trkpt lat="46.99638" lon="8.64717">
        <ele>540</ele>
        <time>2021-08-05T09:23:58.439Z</time>
      </trkpt>
      <trkpt lat="46.99637" lon="8.64716">
        <ele>540</ele>
        <time>2021-08-05T09:23:59.439Z</time>
      </trkpt>
      <trkpt lat="46.99636" lon="8.64716">
        <ele>539</ele>
        <time>2021-08-05T09:24:00.439Z</time>
      </trkpt>
      <trkpt lat="46.99635" lon="8.64715">
        <ele>539</ele>
        <time>2021-08-05T09:24:01.439Z</time>
      </trkpt>
      <trkpt lat="46.99634" lon="8.64715">
        <ele>539</ele>
        <time>2021-08-05T09:24:02.439Z</time>
      </trkpt>
      <trkpt lat="46.99634" lon="8.64714">
        <ele>539</ele>
        <time>2021-08-05T09:24:03.439Z</time>
      </trkpt>
      <trkpt lat="46.99633" lon="8.64713">
        <ele>539</ele>
        <time>2021-08-05T09:24:04.439Z</time>
      </trkpt>
      <trkpt lat="46.99632" lon="8.64712">
        <ele>539</ele>
        <time>2021-08-05T09:24:05.439Z</time>
      </trkpt>
      <trkpt lat="46.99631" lon="8.64711">
        <ele>539</ele>
        <time>2021-08-05T09:24:06.439Z</time>
      </trkpt>
      <trkpt lat="46.99631" lon="8.64711">
        <ele>539</ele>
        <time>2021-08-05T09:24:07.439Z</time>
      </trkpt>
      <trkpt lat="46.9963" lon="8.6471">
        <ele>538</ele>
        <time>2021-08-05T09:24:08.439Z</time>
      </trkpt>
      <trkpt lat="46.9963" lon="8.64709">
        <ele>538</ele>
        <time>2021-08-05T09:24:09.439Z</time>
      </trkpt>
      <trkpt lat="46.99629" lon="8.64708">
        <ele>538</ele>
        <time>2021-08-05T09:24:10.439Z</time>
      </trkpt>
      <trkpt lat="46.99628" lon="8.64707">
        <ele>538</ele>
        <time>2021-08-05T09:24:11.439Z</time>
      </trkpt>
      <trkpt lat="46.99627" lon="8.64706">
        <ele>538</ele>
        <time>2021-08-05T09:24:12.439Z</time>
      </trkpt>
      <trkpt lat="46.99626" lon="8.64705">
        <ele>538</ele>
        <time>2021-08-05T09:24:13.439Z</time>
      </trkpt>
      <trkpt lat="46.99626" lon="8.64704">
        <ele>538</ele>
        <time>2021-08-05T09:24:14.439Z</time>
      </trkpt>
      <trkpt lat="46.99625" lon="8.64703">
        <ele>539</ele>
        <time>2021-08-05T09:24:15.439Z</time>
      </trkpt>
      <trkpt lat="46.99624" lon="8.64702">
        <ele>539</ele>
        <time>2021-08-05T09:24:16.439Z</time>
      </trkpt>
      <trkpt lat="46.99623" lon="8.64702">
        <ele>539</ele>
        <time>2021-08-05T09:24:17.439Z</time>
      </trkpt>
      <trkpt lat="46.99621" lon="8.64701">
        <ele>539</ele>
        <time>2021-08-05T09:24:18.439Z</time>
      </trkpt>
      <trkpt lat="46.9962" lon="8.647">
        <ele>539</ele>
        <time>2021-08-05T09:24:19.439Z</time>
      </trkpt>
      <trkpt lat="46.9962" lon="8.64699">
        <ele>539</ele>
        <time>2021-08-05T09:24:20.439Z</time>
      </trkpt>
      <trkpt lat="46.99619" lon="8.64699">
        <ele>539</ele>
        <time>2021-08-05T09:24:21.439Z</time>
      </trkpt>
      <trkpt lat="46.99618" lon="8.64698">
        <ele>539</ele>
        <time>2021-08-05T09:24:22.439Z</time>
      </trkpt>
      <trkpt lat="46.99617" lon="8.64697">
        <ele>539</ele>
        <time>2021-08-05T09:24:23.439Z</time>
      </trkpt>
      <trkpt lat="46.99616" lon="8.64697">
        <ele>539</ele>
        <time>2021-08-05T09:24:24.439Z</time>
      </trkpt>
      <trkpt lat="46.99615" lon="8.64696">
        <ele>539</ele>
        <time>2021-08-05T09:24:25.439Z</time>
      </trkpt>
      <trkpt lat="46.99614" lon="8.64696">
        <ele>540</ele>
        <time>2021-08-05T09:24:26.439Z</time>
      </trkpt>
      <trkpt lat="46.99613" lon="8.64696">
        <ele>540</ele>
        <time>2021-08-05T09:24:27.439Z</time>
      </trkpt>
      <trkpt lat="46.99611" lon="8.64696">
        <ele>540</ele>
        <time>2021-08-05T09:24:28.439Z</time>
      </trkpt>
      <trkpt lat="46.9961" lon="8.64696">
        <ele>541</ele>
        <time>2021-08-05T09:24:29.439Z</time>
      </trkpt>
      <trkpt lat="46.99609" lon="8.64697">
        <ele>541</ele>
        <time>2021-08-05T09:24:30.439Z</time>
      </trkpt>
      <trkpt lat="46.99609" lon="8.64697">
        <ele>541</ele>
        <time>2021-08-05T09:24:31.439Z</time>
      </trkpt>
      <trkpt lat="46.99608" lon="8.64698">
        <ele>541</ele>
        <time>2021-08-05T09:24:32.439Z</time>
      </trkpt>
      <trkpt lat="46.99607" lon="8.64698">
        <ele>541</ele>
        <time>2021-08-05T09:24:33.439Z</time>
      </trkpt>
      <trkpt lat="46.99606" lon="8.64699">
        <ele>541</ele>
        <time>2021-08-05T09:24:34.439Z</time>
      </trkpt>
      <trkpt lat="46.99605" lon="8.64699">
        <ele>541</ele>
        <time>2021-08-05T09:24:35.439Z</time>
      </trkpt>
      <trkpt lat="46.99604" lon="8.647">
        <ele>542</ele>
        <time>2021-08-05T09:24:36.439Z</time>
      </trkpt>
      <trkpt lat="46.99603" lon="8.647">
        <ele>542</ele>
        <time>2021-08-05T09:24:37.439Z</time>
      </trkpt>
      <trkpt lat="46.99603" lon="8.64701">
        <ele>542</ele>
        <time>2021-08-05T09:24:38.439Z</time>
      </trkpt>
      <trkpt lat="46.99602" lon="8.64702">
        <ele>542</ele>
        <time>2021-08-05T09:24:39.439Z</time>
      </trkpt>
      <trkpt lat="46.99601" lon="8.64703">
        <ele>542</ele>
        <time>2021-08-05T09:24:40.439Z</time>
      </trkpt>
      <trkpt lat="46.996" lon="8.64703">
        <ele>542</ele>
        <time>2021-08-05T09:24:41.439Z</time>
      </trkpt>
      <trkpt lat="46.99599" lon="8.64704">
        <ele>542</ele>
        <time>2021-08-05T09:24:42.439Z</time>
      </trkpt>
      <trkpt lat="46.99599" lon="8.64705">
        <ele>542</ele>
        <time>2021-08-05T09:24:43.439Z</time>
      </trkpt>
      <trkpt lat="46.99598" lon="8.64706">
        <ele>542</ele>
        <time>2021-08-05T09:24:44.439Z</time>
      </trkpt>
      <trkpt lat="46.99597" lon="8.64707">
        <ele>542</ele>
        <time>2021-08-05T09:24:45.439Z</time>
      </trkpt>
      <trkpt lat="46.99597" lon="8.64708">
        <ele>542</ele>
        <time>2021-08-05T09:24:46.439Z</time>
      </trkpt>
      <trkpt lat="46.99596" lon="8.64709">
        <ele>543</ele>
        <time>2021-08-05T09:24:47.439Z</time>
      </trkpt>
      <trkpt lat="46.99596" lon="8.6471">
        <ele>543</ele>
        <time>2021-08-05T09:24:48.439Z</time>
      </trkpt>
      <trkpt lat="46.99595" lon="8.64711">
        <ele>543</ele>
        <time>2021-08-05T09:24:49.439Z</time>
      </trkpt>
      <trkpt lat="46.99594" lon="8.64713">
        <ele>543</ele>
        <time>2021-08-05T09:24:50.439Z</time>
      </trkpt>
      <trkpt lat="46.99593" lon="8.64714">
        <ele>543</ele>
        <time>2021-08-05T09:24:51.439Z</time>
      </trkpt>
      <trkpt lat="46.99593" lon="8.64715">
        <ele>542</ele>
        <time>2021-08-05T09:24:52.439Z</time>
      </trkpt>
      <trkpt lat="46.99592" lon="8.64717">
        <ele>542</ele>
        <time>2021-08-05T09:24:53.439Z</time>
      </trkpt>
      <trkpt lat="46.99592" lon="8.64718">
        <ele>542</ele>
        <time>2021-08-05T09:24:54.439Z</time>
      </trkpt>
      <trkpt lat="46.99591" lon="8.64719">
        <ele>542</ele>
        <time>2021-08-05T09:24:55.439Z</time>
      </trkpt>
      <trkpt lat="46.9959" lon="8.6472">
        <ele>542</ele>
        <time>2021-08-05T09:24:56.439Z</time>
      </trkpt>
      <trkpt lat="46.9959" lon="8.64721">
        <ele>542</ele>
        <time>2021-08-05T09:24:57.439Z</time>
      </trkpt>
      <trkpt lat="46.99589" lon="8.64722">
        <ele>542</ele>
        <time>2021-08-05T09:24:58.439Z</time>
      </trkpt>
      <trkpt lat="46.99588" lon="8.64723">
        <ele>542</ele>
        <time>2021-08-05T09:24:59.439Z</time>
      </trkpt>
      <trkpt lat="46.99587" lon="8.64723">
        <ele>542</ele>
        <time>2021-08-05T09:25:00.439Z</time>
      </trkpt>
      <trkpt lat="46.99585" lon="8.64724">
        <ele>542</ele>
        <time>2021-08-05T09:25:01.439Z</time>
      </trkpt>
      <trkpt lat="46.99584" lon="8.64724">
        <ele>542</ele>
        <time>2021-08-05T09:25:02.439Z</time>
      </trkpt>
      <trkpt lat="46.99583" lon="8.64725">
        <ele>543</ele>
        <time>2021-08-05T09:25:03.439Z</time>
      </trkpt>
      <trkpt lat="46.99582" lon="8.64725">
        <ele>544</ele>
        <time>2021-08-05T09:25:04.439Z</time>
      </trkpt>
      <trkpt lat="46.99581" lon="8.64725">
        <ele>544</ele>
        <time>2021-08-05T09:25:05.439Z</time>
      </trkpt>
      <trkpt lat="46.99579" lon="8.64725">
        <ele>545</ele>
        <time>2021-08-05T09:25:06.439Z</time>
      </trkpt>
      <trkpt lat="46.99578" lon="8.64725">
        <ele>545</ele>
        <time>2021-08-05T09:25:07.439Z</time>
      </trkpt>
      <trkpt lat="46.99576" lon="8.64725">
        <ele>545</ele>
        <time>2021-08-05T09:25:08.439Z</time>
      </trkpt>
      <trkpt lat="46.99575" lon="8.64725">
        <ele>545</ele>
        <time>2021-08-05T09:25:09.439Z</time>
      </trkpt>
      <trkpt lat="46.99573" lon="8.64726">
        <ele>545</ele>
        <time>2021-08-05T09:25:10.439Z</time>
      </trkpt>
      <trkpt lat="46.99573" lon="8.64726">
        <ele>545</ele>
        <time>2021-08-05T09:25:11.439Z</time>
      </trkpt>
      <trkpt lat="46.99572" lon="8.64726">
        <ele>545</ele>
        <time>2021-08-05T09:25:12.439Z</time>
      </trkpt>
      <trkpt lat="46.99571" lon="8.64727">
        <ele>545</ele>
        <time>2021-08-05T09:25:13.439Z</time>
      </trkpt>
      <trkpt lat="46.9957" lon="8.64727">
        <ele>545</ele>
        <time>2021-08-05T09:25:14.439Z</time>
      </trkpt>
      <trkpt lat="46.99568" lon="8.64728">
        <ele>545</ele>
        <time>2021-08-05T09:25:15.439Z</time>
      </trkpt>
      <trkpt lat="46.99567" lon="8.64728">
        <ele>545</ele>
        <time>2021-08-05T09:25:16.439Z</time>
      </trkpt>
      <trkpt lat="46.99566" lon="8.64727">
        <ele>545</ele>
        <time>2021-08-05T09:25:17.439Z</time>
      </trkpt>
      <trkpt lat="46.99565" lon="8.64727">
        <ele>545</ele>
        <time>2021-08-05T09:25:18.439Z</time>
      </trkpt>
      <trkpt lat="46.99563" lon="8.64727">
        <ele>544</ele>
        <time>2021-08-05T09:25:19.439Z</time>
      </trkpt>
      <trkpt lat="46.99562" lon="8.64728">
        <ele>544</ele>
        <time>2021-08-05T09:25:20.439Z</time>
      </trkpt>
      <trkpt lat="46.9956" lon="8.64729">
        <ele>544</ele>
        <time>2021-08-05T09:25:21.439Z</time>
      </trkpt>
      <trkpt lat="46.99559" lon="8.6473">
        <ele>544</ele>
        <time>2021-08-05T09:25:22.439Z</time>
      </trkpt>
      <trkpt lat="46.99558" lon="8.6473">
        <ele>544</ele>
        <time>2021-08-05T09:25:23.439Z</time>
      </trkpt>
      <trkpt lat="46.99557" lon="8.6473">
        <ele>544</ele>
        <time>2021-08-05T09:25:24.439Z</time>
      </trkpt>
      <trkpt lat="46.99557" lon="8.6473">
        <ele>544</ele>
        <time>2021-08-05T09:25:25.439Z</time>
      </trkpt>
      <trkpt lat="46.99556" lon="8.6473">
        <ele>544</ele>
        <time>2021-08-05T09:25:26.439Z</time>
      </trkpt>
      <trkpt lat="46.99556" lon="8.6473">
        <ele>544</ele>
        <time>2021-08-05T09:25:27.439Z</time>
      </trkpt>
      <trkpt lat="46.99555" lon="8.6473">
        <ele>545</ele>
        <time>2021-08-05T09:25:28.439Z</time>
      </trkpt>
      <trkpt lat="46.99553" lon="8.64729">
        <ele>545</ele>
        <time>2021-08-05T09:25:29.439Z</time>
      </trkpt>
      <trkpt lat="46.99552" lon="8.64729">
        <ele>545</ele>
        <time>2021-08-05T09:25:30.439Z</time>
      </trkpt>
      <trkpt lat="46.9955" lon="8.6473">
        <ele>545</ele>
        <time>2021-08-05T09:25:31.439Z</time>
      </trkpt>
      <trkpt lat="46.99549" lon="8.6473">
        <ele>545</ele>
        <time>2021-08-05T09:25:32.439Z</time>
      </trkpt>
      <trkpt lat="46.99547" lon="8.64731">
        <ele>546</ele>
        <time>2021-08-05T09:25:33.439Z</time>
      </trkpt>
      <trkpt lat="46.99545" lon="8.64732">
        <ele>546</ele>
        <time>2021-08-05T09:25:34.439Z</time>
      </trkpt>
      <trkpt lat="46.99542" lon="8.64734">
        <ele>546</ele>
        <time>2021-08-05T09:25:35.439Z</time>
      </trkpt>
      <trkpt lat="46.9954" lon="8.64735">
        <ele>546</ele>
        <time>2021-08-05T09:25:36.439Z</time>
      </trkpt>
      <trkpt lat="46.99538" lon="8.64735">
        <ele>546</ele>
        <time>2021-08-05T09:25:37.439Z</time>
      </trkpt>
      <trkpt lat="46.99537" lon="8.64735">
        <ele>546</ele>
        <time>2021-08-05T09:25:38.439Z</time>
      </trkpt>
      <trkpt lat="46.99535" lon="8.64735">
        <ele>546</ele>
        <time>2021-08-05T09:25:39.439Z</time>
      </trkpt>
      <trkpt lat="46.99535" lon="8.64734">
        <ele>546</ele>
        <time>2021-08-05T09:25:40.439Z</time>
      </trkpt>
      <trkpt lat="46.99534" lon="8.64733">
        <ele>547</ele>
        <time>2021-08-05T09:25:41.439Z</time>
      </trkpt>
      <trkpt lat="46.99533" lon="8.64733">
        <ele>547</ele>
        <time>2021-08-05T09:25:42.439Z</time>
      </trkpt>
      <trkpt lat="46.99532" lon="8.64734">
        <ele>547</ele>
        <time>2021-08-05T09:25:43.439Z</time>
      </trkpt>
      <trkpt lat="46.99531" lon="8.64734">
        <ele>547</ele>
        <time>2021-08-05T09:25:44.439Z</time>
      </trkpt>
      <trkpt lat="46.9953" lon="8.64735">
        <ele>547</ele>
        <time>2021-08-05T09:25:45.439Z</time>
      </trkpt>
      <trkpt lat="46.99529" lon="8.64735">
        <ele>547</ele>
        <time>2021-08-05T09:25:46.439Z</time>
      </trkpt>
      <trkpt lat="46.99528" lon="8.64736">
        <ele>547</ele>
        <time>2021-08-05T09:25:47.439Z</time>
      </trkpt>
      <trkpt lat="46.99527" lon="8.64737">
        <ele>547</ele>
        <time>2021-08-05T09:25:48.439Z</time>
      </trkpt>
      <trkpt lat="46.99526" lon="8.64737">
        <ele>547</ele>
        <time>2021-08-05T09:25:49.439Z</time>
      </trkpt>
      <trkpt lat="46.99526" lon="8.64737">
        <ele>547</ele>
        <time>2021-08-05T09:25:50.439Z</time>
      </trkpt>
      <trkpt lat="46.99525" lon="8.64737">
        <ele>547</ele>
        <time>2021-08-05T09:25:51.439Z</time>
      </trkpt>
      <trkpt lat="46.99524" lon="8.64738">
        <ele>547</ele>
        <time>2021-08-05T09:25:52.439Z</time>
      </trkpt>
      <trkpt lat="46.99524" lon="8.64738">
        <ele>547</ele>
        <time>2021-08-05T09:25:53.439Z</time>
      </trkpt>
      <trkpt lat="46.99523" lon="8.64739">
        <ele>547</ele>
        <time>2021-08-05T09:25:54.439Z</time>
      </trkpt>
      <trkpt lat="46.99522" lon="8.64739">
        <ele>547</ele>
        <time>2021-08-05T09:25:55.439Z</time>
      </trkpt>
      <trkpt lat="46.99521" lon="8.6474">
        <ele>547</ele>
        <time>2021-08-05T09:25:56.439Z</time>
      </trkpt>
      <trkpt lat="46.99521" lon="8.64741">
        <ele>547</ele>
        <time>2021-08-05T09:25:57.439Z</time>
      </trkpt>
      <trkpt lat="46.9952" lon="8.64742">
        <ele>547</ele>
        <time>2021-08-05T09:25:58.439Z</time>
      </trkpt>
      <trkpt lat="46.99519" lon="8.64743">
        <ele>547</ele>
        <time>2021-08-05T09:25:59.439Z</time>
      </trkpt>
      <trkpt lat="46.99518" lon="8.64745">
        <ele>547</ele>
        <time>2021-08-05T09:26:00.439Z</time>
      </trkpt>
      <trkpt lat="46.99517" lon="8.64746">
        <ele>547</ele>
        <time>2021-08-05T09:26:01.439Z</time>
      </trkpt>
      <trkpt lat="46.99517" lon="8.64747">
        <ele>546</ele>
        <time>2021-08-05T09:26:02.439Z</time>
      </trkpt>
      <trkpt lat="46.99516" lon="8.64747">
        <ele>546</ele>
        <time>2021-08-05T09:26:03.439Z</time>
      </trkpt>
      <trkpt lat="46.99515" lon="8.64747">
        <ele>546</ele>
        <time>2021-08-05T09:26:04.439Z</time>
      </trkpt>
      <trkpt lat="46.99515" lon="8.64746">
        <ele>546</ele>
        <time>2021-08-05T09:26:05.439Z</time>
      </trkpt>
      <trkpt lat="46.99514" lon="8.64747">
        <ele>546</ele>
        <time>2021-08-05T09:26:06.439Z</time>
      </trkpt>
      <trkpt lat="46.99514" lon="8.64747">
        <ele>545</ele>
        <time>2021-08-05T09:26:07.439Z</time>
      </trkpt>
      <trkpt lat="46.99513" lon="8.64746">
        <ele>545</ele>
        <time>2021-08-05T09:26:08.439Z</time>
      </trkpt>
      <trkpt lat="46.99512" lon="8.64747">
        <ele>545</ele>
        <time>2021-08-05T09:26:09.439Z</time>
      </trkpt>
      <trkpt lat="46.99511" lon="8.64747">
        <ele>545</ele>
        <time>2021-08-05T09:26:10.439Z</time>
      </trkpt>
      <trkpt lat="46.9951" lon="8.64748">
        <ele>545</ele>
        <time>2021-08-05T09:26:11.439Z</time>
      </trkpt>
      <trkpt lat="46.99508" lon="8.64748">
        <ele>545</ele>
        <time>2021-08-05T09:26:12.439Z</time>
      </trkpt>
      <trkpt lat="46.99506" lon="8.64748">
        <ele>545</ele>
        <time>2021-08-05T09:26:13.439Z</time>
      </trkpt>
      <trkpt lat="46.99506" lon="8.6475">
        <ele>545</ele>
        <time>2021-08-05T09:26:14.439Z</time>
      </trkpt>
      <trkpt lat="46.99507" lon="8.64751">
        <ele>545</ele>
        <time>2021-08-05T09:26:15.439Z</time>
      </trkpt>
      <trkpt lat="46.99506" lon="8.64753">
        <ele>545</ele>
        <time>2021-08-05T09:26:16.439Z</time>
      </trkpt>
      <trkpt lat="46.99505" lon="8.64756">
        <ele>545</ele>
        <time>2021-08-05T09:26:17.439Z</time>
      </trkpt>
      <trkpt lat="46.99503" lon="8.64758">
        <ele>545</ele>
        <time>2021-08-05T09:26:18.439Z</time>
      </trkpt>
      <trkpt lat="46.99503" lon="8.6476">
        <ele>545</ele>
        <time>2021-08-05T09:26:19.439Z</time>
      </trkpt>
      <trkpt lat="46.99503" lon="8.64762">
        <ele>545</ele>
        <time>2021-08-05T09:26:20.439Z</time>
      </trkpt>
      <trkpt lat="46.99501" lon="8.64764">
        <ele>545</ele>
        <time>2021-08-05T09:26:21.439Z</time>
      </trkpt>
      <trkpt lat="46.995" lon="8.64766">
        <ele>545</ele>
        <time>2021-08-05T09:26:22.439Z</time>
      </trkpt>
      <trkpt lat="46.99499" lon="8.64766">
        <ele>545</ele>
        <time>2021-08-05T09:26:23.439Z</time>
      </trkpt>
      <trkpt lat="46.99498" lon="8.64767">
        <ele>545</ele>
        <time>2021-08-05T09:26:24.439Z</time>
      </trkpt>
      <trkpt lat="46.99497" lon="8.64767">
        <ele>545</ele>
        <time>2021-08-05T09:26:25.439Z</time>
      </trkpt>
      <trkpt lat="46.99496" lon="8.64766">
        <ele>546</ele>
        <time>2021-08-05T09:26:26.439Z</time>
      </trkpt>
      <trkpt lat="46.99495" lon="8.64767">
        <ele>546</ele>
        <time>2021-08-05T09:26:27.439Z</time>
      </trkpt>
      <trkpt lat="46.99494" lon="8.64767">
        <ele>546</ele>
        <time>2021-08-05T09:26:28.439Z</time>
      </trkpt>
      <trkpt lat="46.99493" lon="8.64767">
        <ele>546</ele>
        <time>2021-08-05T09:26:29.439Z</time>
      </trkpt>
      <trkpt lat="46.99491" lon="8.64768">
        <ele>546</ele>
        <time>2021-08-05T09:26:30.439Z</time>
      </trkpt>
      <trkpt lat="46.9949" lon="8.64768">
        <ele>546</ele>
        <time>2021-08-05T09:26:31.439Z</time>
      </trkpt>
      <trkpt lat="46.99489" lon="8.64767">
        <ele>546</ele>
        <time>2021-08-05T09:26:32.439Z</time>
      </trkpt>
      <trkpt lat="46.99488" lon="8.64766">
        <ele>546</ele>
        <time>2021-08-05T09:26:33.439Z</time>
      </trkpt>
      <trkpt lat="46.99487" lon="8.64766">
        <ele>546</ele>
        <time>2021-08-05T09:26:34.439Z</time>
      </trkpt>
      <trkpt lat="46.99487" lon="8.64765">
        <ele>545</ele>
        <time>2021-08-05T09:26:35.439Z</time>
      </trkpt>
      <trkpt lat="46.99486" lon="8.64765">
        <ele>545</ele>
        <time>2021-08-05T09:26:36.439Z</time>
      </trkpt>
      <trkpt lat="46.99485" lon="8.64765">
        <ele>545</ele>
        <time>2021-08-05T09:26:37.439Z</time>
      </trkpt>
      <trkpt lat="46.99484" lon="8.64765">
        <ele>545</ele>
        <time>2021-08-05T09:26:38.439Z</time>
      </trkpt>
      <trkpt lat="46.99483" lon="8.64765">
        <ele>545</ele>
        <time>2021-08-05T09:26:39.439Z</time>
      </trkpt>
      <trkpt lat="46.99482" lon="8.64765">
        <ele>545</ele>
        <time>2021-08-05T09:26:40.439Z</time>
      </trkpt>
      <trkpt lat="46.9948" lon="8.64766">
        <ele>545</ele>
        <time>2021-08-05T09:26:41.439Z</time>
      </trkpt>
      <trkpt lat="46.99479" lon="8.64766">
        <ele>545</ele>
        <time>2021-08-05T09:26:42.439Z</time>
      </trkpt>
      <trkpt lat="46.99477" lon="8.64766">
        <ele>545</ele>
        <time>2021-08-05T09:26:43.439Z</time>
      </trkpt>
      <trkpt lat="46.99475" lon="8.64766">
        <ele>545</ele>
        <time>2021-08-05T09:26:44.439Z</time>
      </trkpt>
      <trkpt lat="46.99474" lon="8.64766">
        <ele>545</ele>
        <time>2021-08-05T09:26:45.439Z</time>
      </trkpt>
      <trkpt lat="46.99473" lon="8.64766">
        <ele>546</ele>
        <time>2021-08-05T09:26:46.439Z</time>
      </trkpt>
      <trkpt lat="46.99472" lon="8.64767">
        <ele>546</ele>
        <time>2021-08-05T09:26:47.439Z</time>
      </trkpt>
      <trkpt lat="46.99471" lon="8.64768">
        <ele>546</ele>
        <time>2021-08-05T09:26:48.439Z</time>
      </trkpt>
      <trkpt lat="46.9947" lon="8.64769">
        <ele>547</ele>
        <time>2021-08-05T09:26:49.439Z</time>
      </trkpt>
      <trkpt lat="46.9947" lon="8.6477">
        <ele>547</ele>
        <time>2021-08-05T09:26:50.439Z</time>
      </trkpt>
      <trkpt lat="46.9947" lon="8.6477">
        <ele>548</ele>
        <time>2021-08-05T09:26:51.439Z</time>
      </trkpt>
      <trkpt lat="46.99468" lon="8.64772">
        <ele>548</ele>
        <time>2021-08-05T09:26:52.439Z</time>
      </trkpt>
      <trkpt lat="46.99467" lon="8.64773">
        <ele>548</ele>
        <time>2021-08-05T09:26:53.439Z</time>
      </trkpt>
      <trkpt lat="46.99465" lon="8.64774">
        <ele>548</ele>
        <time>2021-08-05T09:26:54.439Z</time>
      </trkpt>
      <trkpt lat="46.99463" lon="8.64775">
        <ele>549</ele>
        <time>2021-08-05T09:26:55.439Z</time>
      </trkpt>
      <trkpt lat="46.99462" lon="8.64777">
        <ele>549</ele>
        <time>2021-08-05T09:26:56.439Z</time>
      </trkpt>
      <trkpt lat="46.99461" lon="8.64778">
        <ele>549</ele>
        <time>2021-08-05T09:26:57.439Z</time>
      </trkpt>
      <trkpt lat="46.99459" lon="8.64778">
        <ele>549</ele>
        <time>2021-08-05T09:26:58.439Z</time>
      </trkpt>
      <trkpt lat="46.99457" lon="8.64779">
        <ele>550</ele>
        <time>2021-08-05T09:26:59.439Z</time>
      </trkpt>
      <trkpt lat="46.99456" lon="8.64779">
        <ele>550</ele>
        <time>2021-08-05T09:27:00.439Z</time>
      </trkpt>
      <trkpt lat="46.99455" lon="8.6478">
        <ele>550</ele>
        <time>2021-08-05T09:27:01.439Z</time>
      </trkpt>
      <trkpt lat="46.99454" lon="8.64781">
        <ele>551</ele>
        <time>2021-08-05T09:27:02.439Z</time>
      </trkpt>
      <trkpt lat="46.99453" lon="8.64782">
        <ele>551</ele>
        <time>2021-08-05T09:27:03.439Z</time>
      </trkpt>
      <trkpt lat="46.99452" lon="8.64782">
        <ele>551</ele>
        <time>2021-08-05T09:27:04.439Z</time>
      </trkpt>
      <trkpt lat="46.99451" lon="8.64783">
        <ele>551</ele>
        <time>2021-08-05T09:27:05.439Z</time>
      </trkpt>
      <trkpt lat="46.99449" lon="8.64784">
        <ele>551</ele>
        <time>2021-08-05T09:27:06.439Z</time>
      </trkpt>
      <trkpt lat="46.99448" lon="8.64785">
        <ele>551</ele>
        <time>2021-08-05T09:27:07.439Z</time>
      </trkpt>
      <trkpt lat="46.99446" lon="8.64786">
        <ele>551</ele>
        <time>2021-08-05T09:27:08.439Z</time>
      </trkpt>
      <trkpt lat="46.99444" lon="8.64787">
        <ele>551</ele>
        <time>2021-08-05T09:27:09.439Z</time>
      </trkpt>
      <trkpt lat="46.99443" lon="8.64788">
        <ele>551</ele>
        <time>2021-08-05T09:27:10.439Z</time>
      </trkpt>
      <trkpt lat="46.99442" lon="8.64789">
        <ele>551</ele>
        <time>2021-08-05T09:27:11.439Z</time>
      </trkpt>
      <trkpt lat="46.99442" lon="8.64789">
        <ele>552</ele>
        <time>2021-08-05T09:27:12.439Z</time>
      </trkpt>
      <trkpt lat="46.9944" lon="8.6479">
        <ele>552</ele>
        <time>2021-08-05T09:27:13.439Z</time>
      </trkpt>
      <trkpt lat="46.99439" lon="8.64791">
        <ele>552</ele>
        <time>2021-08-05T09:27:14.439Z</time>
      </trkpt>
      <trkpt lat="46.99438" lon="8.64791">
        <ele>552</ele>
        <time>2021-08-05T09:27:15.439Z</time>
      </trkpt>
      <trkpt lat="46.99437" lon="8.64792">
        <ele>552</ele>
        <time>2021-08-05T09:27:16.439Z</time>
      </trkpt>
      <trkpt lat="46.99436" lon="8.64792">
        <ele>553</ele>
        <time>2021-08-05T09:27:17.439Z</time>
      </trkpt>
      <trkpt lat="46.99435" lon="8.64793">
        <ele>553</ele>
        <time>2021-08-05T09:27:18.439Z</time>
      </trkpt>
      <trkpt lat="46.99434" lon="8.64794">
        <ele>554</ele>
        <time>2021-08-05T09:27:19.439Z</time>
      </trkpt>
      <trkpt lat="46.99434" lon="8.64794">
        <ele>555</ele>
        <time>2021-08-05T09:27:20.439Z</time>
      </trkpt>
      <trkpt lat="46.99434" lon="8.64795">
        <ele>556</ele>
        <time>2021-08-05T09:27:21.439Z</time>
      </trkpt>
      <trkpt lat="46.99433" lon="8.64797">
        <ele>557</ele>
        <time>2021-08-05T09:27:22.439Z</time>
      </trkpt>
      <trkpt lat="46.99432" lon="8.64797">
        <ele>557</ele>
        <time>2021-08-05T09:27:23.439Z</time>
      </trkpt>
      <trkpt lat="46.99432" lon="8.64798">
        <ele>558</ele>
        <time>2021-08-05T09:27:24.439Z</time>
      </trkpt>
      <trkpt lat="46.99432" lon="8.64799">
        <ele>558</ele>
        <time>2021-08-05T09:27:25.439Z</time>
      </trkpt>
      <trkpt lat="46.99432" lon="8.64798">
        <ele>558</ele>
        <time>2021-08-05T09:27:26.439Z</time>
      </trkpt>
      <trkpt lat="46.99431" lon="8.64798">
        <ele>558</ele>
        <time>2021-08-05T09:27:27.439Z</time>
      </trkpt>
      <trkpt lat="46.99431" lon="8.64796">
        <ele>558</ele>
        <time>2021-08-05T09:27:28.439Z</time>
      </trkpt>
      <trkpt lat="46.99431" lon="8.64796">
        <ele>558</ele>
        <time>2021-08-05T09:27:29.439Z</time>
      </trkpt>
      <trkpt lat="46.9943" lon="8.64798">
        <ele>558</ele>
        <time>2021-08-05T09:27:30.439Z</time>
      </trkpt>
      <trkpt lat="46.99429" lon="8.64799">
        <ele>557</ele>
        <time>2021-08-05T09:27:31.439Z</time>
      </trkpt>
      <trkpt lat="46.99428" lon="8.648">
        <ele>557</ele>
        <time>2021-08-05T09:27:32.439Z</time>
      </trkpt>
      <trkpt lat="46.99427" lon="8.64801">
        <ele>557</ele>
        <time>2021-08-05T09:27:33.439Z</time>
      </trkpt>
      <trkpt lat="46.99426" lon="8.64802">
        <ele>557</ele>
        <time>2021-08-05T09:27:34.439Z</time>
      </trkpt>
      <trkpt lat="46.99425" lon="8.64803">
        <ele>557</ele>
        <time>2021-08-05T09:27:35.439Z</time>
      </trkpt>
      <trkpt lat="46.99424" lon="8.64805">
        <ele>557</ele>
        <time>2021-08-05T09:27:36.439Z</time>
      </trkpt>
      <trkpt lat="46.99423" lon="8.64806">
        <ele>557</ele>
        <time>2021-08-05T09:27:37.439Z</time>
      </trkpt>
      <trkpt lat="46.99422" lon="8.64807">
        <ele>557</ele>
        <time>2021-08-05T09:27:38.439Z</time>
      </trkpt>
      <trkpt lat="46.99421" lon="8.64809">
        <ele>557</ele>
        <time>2021-08-05T09:27:39.439Z</time>
      </trkpt>
      <trkpt lat="46.99421" lon="8.6481">
        <ele>557</ele>
        <time>2021-08-05T09:27:40.439Z</time>
      </trkpt>
      <trkpt lat="46.9942" lon="8.64811">
        <ele>558</ele>
        <time>2021-08-05T09:27:41.439Z</time>
      </trkpt>
      <trkpt lat="46.99419" lon="8.64812">
        <ele>558</ele>
        <time>2021-08-05T09:27:42.439Z</time>
      </trkpt>
      <trkpt lat="46.99419" lon="8.64813">
        <ele>558</ele>
        <time>2021-08-05T09:27:43.439Z</time>
      </trkpt>
      <trkpt lat="46.99418" lon="8.64814">
        <ele>558</ele>
        <time>2021-08-05T09:27:44.439Z</time>
      </trkpt>
      <trkpt lat="46.99417" lon="8.64816">
        <ele>559</ele>
        <time>2021-08-05T09:27:45.439Z</time>
      </trkpt>
      <trkpt lat="46.99416" lon="8.64818">
        <ele>559</ele>
        <time>2021-08-05T09:27:46.439Z</time>
      </trkpt>
      <trkpt lat="46.99415" lon="8.64818">
        <ele>559</ele>
        <time>2021-08-05T09:27:47.439Z</time>
      </trkpt>
      <trkpt lat="46.99414" lon="8.64819">
        <ele>559</ele>
        <time>2021-08-05T09:27:48.439Z</time>
      </trkpt>
      <trkpt lat="46.99413" lon="8.64821">
        <ele>559</ele>
        <time>2021-08-05T09:27:49.439Z</time>
      </trkpt>
      <trkpt lat="46.99412" lon="8.64822">
        <ele>559</ele>
        <time>2021-08-05T09:27:50.439Z</time>
      </trkpt>
      <trkpt lat="46.99411" lon="8.64823">
        <ele>559</ele>
        <time>2021-08-05T09:27:51.439Z</time>
      </trkpt>
      <trkpt lat="46.9941" lon="8.64824">
        <ele>559</ele>
        <time>2021-08-05T09:27:52.439Z</time>
      </trkpt>
      <trkpt lat="46.99409" lon="8.64825">
        <ele>559</ele>
        <time>2021-08-05T09:27:53.439Z</time>
      </trkpt>
      <trkpt lat="46.99408" lon="8.64825">
        <ele>559</ele>
        <time>2021-08-05T09:27:54.439Z</time>
      </trkpt>
      <trkpt lat="46.99407" lon="8.64826">
        <ele>559</ele>
        <time>2021-08-05T09:27:55.439Z</time>
      </trkpt>
      <trkpt lat="46.99406" lon="8.64827">
        <ele>559</ele>
        <time>2021-08-05T09:27:56.439Z</time>
      </trkpt>
      <trkpt lat="46.99405" lon="8.64828">
        <ele>559</ele>
        <time>2021-08-05T09:27:57.439Z</time>
      </trkpt>
      <trkpt lat="46.99404" lon="8.64829">
        <ele>559</ele>
        <time>2021-08-05T09:27:58.439Z</time>
      </trkpt>
      <trkpt lat="46.99403" lon="8.6483">
        <ele>559</ele>
        <time>2021-08-05T09:27:59.439Z</time>
      </trkpt>
      <trkpt lat="46.99402" lon="8.6483">
        <ele>559</ele>
        <time>2021-08-05T09:28:00.439Z</time>
      </trkpt>
      <trkpt lat="46.99401" lon="8.64831">
        <ele>559</ele>
        <time>2021-08-05T09:28:01.439Z</time>
      </trkpt>
      <trkpt lat="46.994" lon="8.64831">
        <ele>558</ele>
        <time>2021-08-05T09:28:02.439Z</time>
      </trkpt>
      <trkpt lat="46.99399" lon="8.64831">
        <ele>558</ele>
        <time>2021-08-05T09:28:03.439Z</time>
      </trkpt>
      <trkpt lat="46.99398" lon="8.64832">
        <ele>558</ele>
        <time>2021-08-05T09:28:04.439Z</time>
      </trkpt>
      <trkpt lat="46.99397" lon="8.64832">
        <ele>557</ele>
        <time>2021-08-05T09:28:05.439Z</time>
      </trkpt>
      <trkpt lat="46.99395" lon="8.64833">
        <ele>557</ele>
        <time>2021-08-05T09:28:06.439Z</time>
      </trkpt>
      <trkpt lat="46.99394" lon="8.64833">
        <ele>557</ele>
        <time>2021-08-05T09:28:07.439Z</time>
      </trkpt>
      <trkpt lat="46.99394" lon="8.64833">
        <ele>557</ele>
        <time>2021-08-05T09:28:08.439Z</time>
      </trkpt>
      <trkpt lat="46.99393" lon="8.64834">
        <ele>557</ele>
        <time>2021-08-05T09:28:09.439Z</time>
      </trkpt>
      <trkpt lat="46.99392" lon="8.64834">
        <ele>557</ele>
        <time>2021-08-05T09:28:10.439Z</time>
      </trkpt>
      <trkpt lat="46.99391" lon="8.64835">
        <ele>557</ele>
        <time>2021-08-05T09:28:11.439Z</time>
      </trkpt>
      <trkpt lat="46.9939" lon="8.64835">
        <ele>557</ele>
        <time>2021-08-05T09:28:12.439Z</time>
      </trkpt>
      <trkpt lat="46.99389" lon="8.64835">
        <ele>557</ele>
        <time>2021-08-05T09:28:13.439Z</time>
      </trkpt>
      <trkpt lat="46.99388" lon="8.64836">
        <ele>557</ele>
        <time>2021-08-05T09:28:14.439Z</time>
      </trkpt>
      <trkpt lat="46.99386" lon="8.64837">
        <ele>557</ele>
        <time>2021-08-05T09:28:15.439Z</time>
      </trkpt>
      <trkpt lat="46.99386" lon="8.64838">
        <ele>557</ele>
        <time>2021-08-05T09:28:16.439Z</time>
      </trkpt>
      <trkpt lat="46.99385" lon="8.64839">
        <ele>557</ele>
        <time>2021-08-05T09:28:17.439Z</time>
      </trkpt>
      <trkpt lat="46.99384" lon="8.6484">
        <ele>557</ele>
        <time>2021-08-05T09:28:18.439Z</time>
      </trkpt>
      <trkpt lat="46.99382" lon="8.6484">
        <ele>557</ele>
        <time>2021-08-05T09:28:19.439Z</time>
      </trkpt>
      <trkpt lat="46.99381" lon="8.64841">
        <ele>557</ele>
        <time>2021-08-05T09:28:20.439Z</time>
      </trkpt>
      <trkpt lat="46.9938" lon="8.64841">
        <ele>557</ele>
        <time>2021-08-05T09:28:21.439Z</time>
      </trkpt>
      <trkpt lat="46.99379" lon="8.64842">
        <ele>557</ele>
        <time>2021-08-05T09:28:22.439Z</time>
      </trkpt>
      <trkpt lat="46.99378" lon="8.64842">
        <ele>557</ele>
        <time>2021-08-05T09:28:23.439Z</time>
      </trkpt>
      <trkpt lat="46.99376" lon="8.64843">
        <ele>556</ele>
        <time>2021-08-05T09:28:24.439Z</time>
      </trkpt>
      <trkpt lat="46.99375" lon="8.64843">
        <ele>556</ele>
        <time>2021-08-05T09:28:25.439Z</time>
      </trkpt>
      <trkpt lat="46.99374" lon="8.64843">
        <ele>556</ele>
        <time>2021-08-05T09:28:26.439Z</time>
      </trkpt>
      <trkpt lat="46.99372" lon="8.64843">
        <ele>556</ele>
        <time>2021-08-05T09:28:27.439Z</time>
      </trkpt>
      <trkpt lat="46.99371" lon="8.64842">
        <ele>556</ele>
        <time>2021-08-05T09:28:28.439Z</time>
      </trkpt>
      <trkpt lat="46.9937" lon="8.64842">
        <ele>556</ele>
        <time>2021-08-05T09:28:29.439Z</time>
      </trkpt>
      <trkpt lat="46.99369" lon="8.64842">
        <ele>557</ele>
        <time>2021-08-05T09:28:30.439Z</time>
      </trkpt>
      <trkpt lat="46.99367" lon="8.64842">
        <ele>557</ele>
        <time>2021-08-05T09:28:31.439Z</time>
      </trkpt>
      <trkpt lat="46.99366" lon="8.64842">
        <ele>558</ele>
        <time>2021-08-05T09:28:32.439Z</time>
      </trkpt>
      <trkpt lat="46.99365" lon="8.64842">
        <ele>558</ele>
        <time>2021-08-05T09:28:33.439Z</time>
      </trkpt>
      <trkpt lat="46.99364" lon="8.64842">
        <ele>558</ele>
        <time>2021-08-05T09:28:34.439Z</time>
      </trkpt>
      <trkpt lat="46.99362" lon="8.64841">
        <ele>559</ele>
        <time>2021-08-05T09:28:35.439Z</time>
      </trkpt>
      <trkpt lat="46.99361" lon="8.64841">
        <ele>559</ele>
        <time>2021-08-05T09:28:36.439Z</time>
      </trkpt>
      <trkpt lat="46.9936" lon="8.64841">
        <ele>559</ele>
        <time>2021-08-05T09:28:37.439Z</time>
      </trkpt>
      <trkpt lat="46.99359" lon="8.6484">
        <ele>560</ele>
        <time>2021-08-05T09:28:38.439Z</time>
      </trkpt>
      <trkpt lat="46.99357" lon="8.6484">
        <ele>560</ele>
        <time>2021-08-05T09:28:39.439Z</time>
      </trkpt>
      <trkpt lat="46.99356" lon="8.6484">
        <ele>560</ele>
        <time>2021-08-05T09:28:40.439Z</time>
      </trkpt>
      <trkpt lat="46.99355" lon="8.64841">
        <ele>560</ele>
        <time>2021-08-05T09:28:41.439Z</time>
      </trkpt>
      <trkpt lat="46.99355" lon="8.64841">
        <ele>561</ele>
        <time>2021-08-05T09:28:42.439Z</time>
      </trkpt>
      <trkpt lat="46.99353" lon="8.64842">
        <ele>562</ele>
        <time>2021-08-05T09:28:43.439Z</time>
      </trkpt>
      <trkpt lat="46.99353" lon="8.64842">
        <ele>562</ele>
        <time>2021-08-05T09:28:44.439Z</time>
      </trkpt>
      <trkpt lat="46.99352" lon="8.64842">
        <ele>563</ele>
        <time>2021-08-05T09:28:45.439Z</time>
      </trkpt>
      <trkpt lat="46.99351" lon="8.64843">
        <ele>564</ele>
        <time>2021-08-05T09:28:46.439Z</time>
      </trkpt>
      <trkpt lat="46.9935" lon="8.64844">
        <ele>565</ele>
        <time>2021-08-05T09:28:47.439Z</time>
      </trkpt>
      <trkpt lat="46.99348" lon="8.64844">
        <ele>565</ele>
        <time>2021-08-05T09:28:48.439Z</time>
      </trkpt>
      <trkpt lat="46.99347" lon="8.64844">
        <ele>566</ele>
        <time>2021-08-05T09:28:49.439Z</time>
      </trkpt>
      <trkpt lat="46.99346" lon="8.64845">
        <ele>566</ele>
        <time>2021-08-05T09:28:50.439Z</time>
      </trkpt>
      <trkpt lat="46.99344" lon="8.64846">
        <ele>567</ele>
        <time>2021-08-05T09:28:51.439Z</time>
      </trkpt>
      <trkpt lat="46.99343" lon="8.64846">
        <ele>567</ele>
        <time>2021-08-05T09:28:52.439Z</time>
      </trkpt>
      <trkpt lat="46.99342" lon="8.64847">
        <ele>568</ele>
        <time>2021-08-05T09:28:53.439Z</time>
      </trkpt>
      <trkpt lat="46.99341" lon="8.64847">
        <ele>568</ele>
        <time>2021-08-05T09:28:54.439Z</time>
      </trkpt>
      <trkpt lat="46.99341" lon="8.64848">
        <ele>569</ele>
        <time>2021-08-05T09:28:55.439Z</time>
      </trkpt>
      <trkpt lat="46.9934" lon="8.64848">
        <ele>569</ele>
        <time>2021-08-05T09:28:56.439Z</time>
      </trkpt>
      <trkpt lat="46.99339" lon="8.64849">
        <ele>570</ele>
        <time>2021-08-05T09:28:57.439Z</time>
      </trkpt>
      <trkpt lat="46.99338" lon="8.64849">
        <ele>570</ele>
        <time>2021-08-05T09:28:58.439Z</time>
      </trkpt>
      <trkpt lat="46.99337" lon="8.6485">
        <ele>570</ele>
        <time>2021-08-05T09:28:59.439Z</time>
      </trkpt>
      <trkpt lat="46.99336" lon="8.6485">
        <ele>571</ele>
        <time>2021-08-05T09:29:00.439Z</time>
      </trkpt>
      <trkpt lat="46.99334" lon="8.64851">
        <ele>571</ele>
        <time>2021-08-05T09:29:01.439Z</time>
      </trkpt>
      <trkpt lat="46.99333" lon="8.64851">
        <ele>571</ele>
        <time>2021-08-05T09:29:02.439Z</time>
      </trkpt>
      <trkpt lat="46.99332" lon="8.64851">
        <ele>571</ele>
        <time>2021-08-05T09:29:03.439Z</time>
      </trkpt>
      <trkpt lat="46.9933" lon="8.64851">
        <ele>571</ele>
        <time>2021-08-05T09:29:04.439Z</time>
      </trkpt>
      <trkpt lat="46.99329" lon="8.64852">
        <ele>572</ele>
        <time>2021-08-05T09:29:05.439Z</time>
      </trkpt>
      <trkpt lat="46.99328" lon="8.64853">
        <ele>573</ele>
        <time>2021-08-05T09:29:06.439Z</time>
      </trkpt>
      <trkpt lat="46.99328" lon="8.64854">
        <ele>573</ele>
        <time>2021-08-05T09:29:07.439Z</time>
      </trkpt>
      <trkpt lat="46.99327" lon="8.64855">
        <ele>574</ele>
        <time>2021-08-05T09:29:08.439Z</time>
      </trkpt>
      <trkpt lat="46.99326" lon="8.64857">
        <ele>575</ele>
        <time>2021-08-05T09:29:09.439Z</time>
      </trkpt>
      <trkpt lat="46.99325" lon="8.64859">
        <ele>575</ele>
        <time>2021-08-05T09:29:10.439Z</time>
      </trkpt>
      <trkpt lat="46.99324" lon="8.6486">
        <ele>575</ele>
        <time>2021-08-05T09:29:11.439Z</time>
      </trkpt>
      <trkpt lat="46.99323" lon="8.64861">
        <ele>575</ele>
        <time>2021-08-05T09:29:12.439Z</time>
      </trkpt>
      <trkpt lat="46.99322" lon="8.64863">
        <ele>575</ele>
        <time>2021-08-05T09:29:13.439Z</time>
      </trkpt>
      <trkpt lat="46.99321" lon="8.64865">
        <ele>575</ele>
        <time>2021-08-05T09:29:14.439Z</time>
      </trkpt>
      <trkpt lat="46.99321" lon="8.64866">
        <ele>575</ele>
        <time>2021-08-05T09:29:15.439Z</time>
      </trkpt>
      <trkpt lat="46.9932" lon="8.64868">
        <ele>575</ele>
        <time>2021-08-05T09:29:16.439Z</time>
      </trkpt>
      <trkpt lat="46.99319" lon="8.6487">
        <ele>575</ele>
        <time>2021-08-05T09:29:17.439Z</time>
      </trkpt>
      <trkpt lat="46.99318" lon="8.64872">
        <ele>575</ele>
        <time>2021-08-05T09:29:18.439Z</time>
      </trkpt>
      <trkpt lat="46.99317" lon="8.64874">
        <ele>575</ele>
        <time>2021-08-05T09:29:19.439Z</time>
      </trkpt>
      <trkpt lat="46.99316" lon="8.64875">
        <ele>576</ele>
        <time>2021-08-05T09:29:20.439Z</time>
      </trkpt>
      <trkpt lat="46.99314" lon="8.64876">
        <ele>576</ele>
        <time>2021-08-05T09:29:21.439Z</time>
      </trkpt>
      <trkpt lat="46.99313" lon="8.64878">
        <ele>576</ele>
        <time>2021-08-05T09:29:22.439Z</time>
      </trkpt>
      <trkpt lat="46.99312" lon="8.64879">
        <ele>576</ele>
        <time>2021-08-05T09:29:23.439Z</time>
      </trkpt>
      <trkpt lat="46.99311" lon="8.6488">
        <ele>576</ele>
        <time>2021-08-05T09:29:24.439Z</time>
      </trkpt>
      <trkpt lat="46.9931" lon="8.64881">
        <ele>576</ele>
        <time>2021-08-05T09:29:25.439Z</time>
      </trkpt>
      <trkpt lat="46.99309" lon="8.64882">
        <ele>576</ele>
        <time>2021-08-05T09:29:26.439Z</time>
      </trkpt>
      <trkpt lat="46.99308" lon="8.64882">
        <ele>576</ele>
        <time>2021-08-05T09:29:27.439Z</time>
      </trkpt>
      <trkpt lat="46.99307" lon="8.64883">
        <ele>576</ele>
        <time>2021-08-05T09:29:28.439Z</time>
      </trkpt>
      <trkpt lat="46.99306" lon="8.64883">
        <ele>575</ele>
        <time>2021-08-05T09:29:29.439Z</time>
      </trkpt>
      <trkpt lat="46.99304" lon="8.64884">
        <ele>575</ele>
        <time>2021-08-05T09:29:30.439Z</time>
      </trkpt>
      <trkpt lat="46.99303" lon="8.64884">
        <ele>574</ele>
        <time>2021-08-05T09:29:31.439Z</time>
      </trkpt>
      <trkpt lat="46.99301" lon="8.64883">
        <ele>573</ele>
        <time>2021-08-05T09:29:32.439Z</time>
      </trkpt>
      <trkpt lat="46.993" lon="8.64883">
        <ele>573</ele>
        <time>2021-08-05T09:29:33.439Z</time>
      </trkpt>
      <trkpt lat="46.99299" lon="8.64883">
        <ele>572</ele>
        <time>2021-08-05T09:29:34.439Z</time>
      </trkpt>
      <trkpt lat="46.99298" lon="8.64883">
        <ele>571</ele>
        <time>2021-08-05T09:29:35.439Z</time>
      </trkpt>
      <trkpt lat="46.99297" lon="8.64884">
        <ele>571</ele>
        <time>2021-08-05T09:29:36.439Z</time>
      </trkpt>
      <trkpt lat="46.99296" lon="8.64885">
        <ele>570</ele>
        <time>2021-08-05T09:29:37.439Z</time>
      </trkpt>
      <trkpt lat="46.99295" lon="8.64885">
        <ele>569</ele>
        <time>2021-08-05T09:29:38.439Z</time>
      </trkpt>
      <trkpt lat="46.99293" lon="8.64886">
        <ele>569</ele>
        <time>2021-08-05T09:29:39.439Z</time>
      </trkpt>
      <trkpt lat="46.99292" lon="8.64885">
        <ele>568</ele>
        <time>2021-08-05T09:29:40.439Z</time>
      </trkpt>
      <trkpt lat="46.99291" lon="8.64885">
        <ele>568</ele>
        <time>2021-08-05T09:29:41.439Z</time>
      </trkpt>
      <trkpt lat="46.99289" lon="8.64884">
        <ele>568</ele>
        <time>2021-08-05T09:29:42.439Z</time>
      </trkpt>
      <trkpt lat="46.99287" lon="8.64884">
        <ele>568</ele>
        <time>2021-08-05T09:29:43.439Z</time>
      </trkpt>
      <trkpt lat="46.99286" lon="8.64884">
        <ele>567</ele>
        <time>2021-08-05T09:29:44.439Z</time>
      </trkpt>
      <trkpt lat="46.99284" lon="8.64884">
        <ele>567</ele>
        <time>2021-08-05T09:29:45.439Z</time>
      </trkpt>
      <trkpt lat="46.99283" lon="8.64884">
        <ele>567</ele>
        <time>2021-08-05T09:29:46.439Z</time>
      </trkpt>
      <trkpt lat="46.99281" lon="8.64884">
        <ele>567</ele>
        <time>2021-08-05T09:29:47.439Z</time>
      </trkpt>
      <trkpt lat="46.9928" lon="8.64885">
        <ele>567</ele>
        <time>2021-08-05T09:29:48.439Z</time>
      </trkpt>
      <trkpt lat="46.99279" lon="8.64885">
        <ele>567</ele>
        <time>2021-08-05T09:29:49.439Z</time>
      </trkpt>
      <trkpt lat="46.99277" lon="8.64885">
        <ele>568</ele>
        <time>2021-08-05T09:29:50.439Z</time>
      </trkpt>
      <trkpt lat="46.99276" lon="8.64885">
        <ele>568</ele>
        <time>2021-08-05T09:29:51.439Z</time>
      </trkpt>
      <trkpt lat="46.99275" lon="8.64885">
        <ele>568</ele>
        <time>2021-08-05T09:29:52.439Z</time>
      </trkpt>
      <trkpt lat="46.99274" lon="8.64885">
        <ele>568</ele>
        <time>2021-08-05T09:29:53.439Z</time>
      </trkpt>
      <trkpt lat="46.99272" lon="8.64886">
        <ele>568</ele>
        <time>2021-08-05T09:29:54.439Z</time>
      </trkpt>
      <trkpt lat="46.99271" lon="8.64887">
        <ele>568</ele>
        <time>2021-08-05T09:29:55.439Z</time>
      </trkpt>
      <trkpt lat="46.9927" lon="8.64887">
        <ele>568</ele>
        <time>2021-08-05T09:29:56.439Z</time>
      </trkpt>
      <trkpt lat="46.99269" lon="8.64888">
        <ele>567</ele>
        <time>2021-08-05T09:29:57.439Z</time>
      </trkpt>
      <trkpt lat="46.99268" lon="8.64889">
        <ele>567</ele>
        <time>2021-08-05T09:29:58.439Z</time>
      </trkpt>
      <trkpt lat="46.99267" lon="8.64889">
        <ele>567</ele>
        <time>2021-08-05T09:29:59.439Z</time>
      </trkpt>
      <trkpt lat="46.99267" lon="8.64888">
        <ele>567</ele>
        <time>2021-08-05T09:30:00.439Z</time>
      </trkpt>
      <trkpt lat="46.99266" lon="8.64889">
        <ele>567</ele>
        <time>2021-08-05T09:30:01.439Z</time>
      </trkpt>
      <trkpt lat="46.99265" lon="8.64891">
        <ele>567</ele>
        <time>2021-08-05T09:30:02.439Z</time>
      </trkpt>
      <trkpt lat="46.99265" lon="8.64892">
        <ele>567</ele>
        <time>2021-08-05T09:30:03.439Z</time>
      </trkpt>
      <trkpt lat="46.99265" lon="8.64892">
        <ele>568</ele>
        <time>2021-08-05T09:30:04.439Z</time>
      </trkpt>
      <trkpt lat="46.99264" lon="8.64893">
        <ele>569</ele>
        <time>2021-08-05T09:30:05.439Z</time>
      </trkpt>
      <trkpt lat="46.99263" lon="8.64894">
        <ele>568</ele>
        <time>2021-08-05T09:30:06.439Z</time>
      </trkpt>
      <trkpt lat="46.99262" lon="8.64894">
        <ele>568</ele>
        <time>2021-08-05T09:30:07.440Z</time>
      </trkpt>
      <trkpt lat="46.99261" lon="8.64895">
        <ele>568</ele>
        <time>2021-08-05T09:30:08.439Z</time>
      </trkpt>
      <trkpt lat="46.9926" lon="8.64896">
        <ele>568</ele>
        <time>2021-08-05T09:30:09.440Z</time>
      </trkpt>
      <trkpt lat="46.99259" lon="8.64896">
        <ele>568</ele>
        <time>2021-08-05T09:30:10.439Z</time>
      </trkpt>
      <trkpt lat="46.99259" lon="8.64897">
        <ele>568</ele>
        <time>2021-08-05T09:30:11.439Z</time>
      </trkpt>
      <trkpt lat="46.99258" lon="8.64899">
        <ele>568</ele>
        <time>2021-08-05T09:30:12.440Z</time>
      </trkpt>
      <trkpt lat="46.99258" lon="8.649">
        <ele>568</ele>
        <time>2021-08-05T09:30:13.440Z</time>
      </trkpt>
      <trkpt lat="46.99258" lon="8.64902">
        <ele>568</ele>
        <time>2021-08-05T09:30:14.439Z</time>
      </trkpt>
      <trkpt lat="46.99257" lon="8.64903">
        <ele>567</ele>
        <time>2021-08-05T09:30:15.439Z</time>
      </trkpt>
      <trkpt lat="46.99257" lon="8.64904">
        <ele>567</ele>
        <time>2021-08-05T09:30:16.439Z</time>
      </trkpt>
      <trkpt lat="46.99256" lon="8.64905">
        <ele>567</ele>
        <time>2021-08-05T09:30:17.440Z</time>
      </trkpt>
      <trkpt lat="46.99257" lon="8.64906">
        <ele>566</ele>
        <time>2021-08-05T09:30:18.439Z</time>
      </trkpt>
      <trkpt lat="46.99257" lon="8.64907">
        <ele>566</ele>
        <time>2021-08-05T09:30:19.440Z</time>
      </trkpt>
      <trkpt lat="46.99258" lon="8.64908">
        <ele>566</ele>
        <time>2021-08-05T09:30:20.439Z</time>
      </trkpt>
      <trkpt lat="46.99258" lon="8.6491">
        <ele>566</ele>
        <time>2021-08-05T09:30:21.439Z</time>
      </trkpt>
      <trkpt lat="46.99257" lon="8.64912">
        <ele>566</ele>
        <time>2021-08-05T09:30:22.440Z</time>
      </trkpt>
      <trkpt lat="46.99257" lon="8.64913">
        <ele>565</ele>
        <time>2021-08-05T09:30:23.440Z</time>
      </trkpt>
      <trkpt lat="46.99257" lon="8.64915">
        <ele>565</ele>
        <time>2021-08-05T09:30:24.440Z</time>
      </trkpt>
      <trkpt lat="46.99257" lon="8.64916">
        <ele>565</ele>
        <time>2021-08-05T09:30:25.439Z</time>
      </trkpt>
      <trkpt lat="46.99258" lon="8.64918">
        <ele>564</ele>
        <time>2021-08-05T09:30:26.439Z</time>
      </trkpt>
      <trkpt lat="46.99258" lon="8.6492">
        <ele>564</ele>
        <time>2021-08-05T09:30:27.440Z</time>
      </trkpt>
      <trkpt lat="46.99257" lon="8.64921">
        <ele>564</ele>
        <time>2021-08-05T09:30:28.439Z</time>
      </trkpt>
      <trkpt lat="46.99257" lon="8.64922">
        <ele>564</ele>
        <time>2021-08-05T09:30:29.440Z</time>
      </trkpt>
      <trkpt lat="46.99256" lon="8.64924">
        <ele>564</ele>
        <time>2021-08-05T09:30:30.440Z</time>
      </trkpt>
      <trkpt lat="46.99256" lon="8.64925">
        <ele>564</ele>
        <time>2021-08-05T09:30:31.440Z</time>
      </trkpt>
      <trkpt lat="46.99256" lon="8.64926">
        <ele>564</ele>
        <time>2021-08-05T09:30:32.440Z</time>
      </trkpt>
      <trkpt lat="46.99256" lon="8.64929">
        <ele>564</ele>
        <time>2021-08-05T09:30:33.440Z</time>
      </trkpt>
      <trkpt lat="46.99257" lon="8.64931">
        <ele>564</ele>
        <time>2021-08-05T09:30:34.439Z</time>
      </trkpt>
      <trkpt lat="46.99256" lon="8.64933">
        <ele>564</ele>
        <time>2021-08-05T09:30:35.440Z</time>
      </trkpt>
      <trkpt lat="46.99256" lon="8.64935">
        <ele>564</ele>
        <time>2021-08-05T09:30:36.439Z</time>
      </trkpt>
      <trkpt lat="46.99257" lon="8.64936">
        <ele>565</ele>
        <time>2021-08-05T09:30:37.439Z</time>
      </trkpt>
      <trkpt lat="46.99257" lon="8.64937">
        <ele>566</ele>
        <time>2021-08-05T09:30:38.439Z</time>
      </trkpt>
      <trkpt lat="46.99257" lon="8.64939">
        <ele>566</ele>
        <time>2021-08-05T09:30:39.439Z</time>
      </trkpt>
      <trkpt lat="46.99256" lon="8.6494">
        <ele>567</ele>
        <time>2021-08-05T09:30:40.440Z</time>
      </trkpt>
      <trkpt lat="46.99257" lon="8.64942">
        <ele>568</ele>
        <time>2021-08-05T09:30:41.439Z</time>
      </trkpt>
      <trkpt lat="46.99256" lon="8.64943">
        <ele>569</ele>
        <time>2021-08-05T09:30:42.439Z</time>
      </trkpt>
      <trkpt lat="46.99256" lon="8.64945">
        <ele>569</ele>
        <time>2021-08-05T09:30:43.439Z</time>
      </trkpt>
      <trkpt lat="46.99256" lon="8.64946">
        <ele>569</ele>
        <time>2021-08-05T09:30:44.439Z</time>
      </trkpt>
      <trkpt lat="46.99256" lon="8.64947">
        <ele>570</ele>
        <time>2021-08-05T09:30:45.440Z</time>
      </trkpt>
      <trkpt lat="46.99256" lon="8.64949">
        <ele>570</ele>
        <time>2021-08-05T09:30:46.439Z</time>
      </trkpt>
      <trkpt lat="46.99256" lon="8.6495">
        <ele>571</ele>
        <time>2021-08-05T09:30:47.439Z</time>
      </trkpt>
      <trkpt lat="46.99257" lon="8.64952">
        <ele>571</ele>
        <time>2021-08-05T09:30:48.440Z</time>
      </trkpt>
      <trkpt lat="46.99256" lon="8.64953">
        <ele>571</ele>
        <time>2021-08-05T09:30:49.440Z</time>
      </trkpt>
      <trkpt lat="46.99256" lon="8.64954">
        <ele>571</ele>
        <time>2021-08-05T09:30:50.439Z</time>
      </trkpt>
      <trkpt lat="46.99256" lon="8.64955">
        <ele>571</ele>
        <time>2021-08-05T09:30:51.440Z</time>
      </trkpt>
      <trkpt lat="46.99256" lon="8.64956">
        <ele>572</ele>
        <time>2021-08-05T09:30:52.440Z</time>
      </trkpt>
      <trkpt lat="46.99256" lon="8.64958">
        <ele>572</ele>
        <time>2021-08-05T09:30:53.439Z</time>
      </trkpt>
      <trkpt lat="46.99256" lon="8.64959">
        <ele>573</ele>
        <time>2021-08-05T09:30:54.439Z</time>
      </trkpt>
      <trkpt lat="46.99255" lon="8.64961">
        <ele>573</ele>
        <time>2021-08-05T09:30:55.439Z</time>
      </trkpt>
      <trkpt lat="46.99255" lon="8.64962">
        <ele>573</ele>
        <time>2021-08-05T09:30:56.439Z</time>
      </trkpt>
      <trkpt lat="46.99254" lon="8.64964">
        <ele>573</ele>
        <time>2021-08-05T09:30:57.439Z</time>
      </trkpt>
      <trkpt lat="46.99254" lon="8.64965">
        <ele>572</ele>
        <time>2021-08-05T09:30:58.439Z</time>
      </trkpt>
      <trkpt lat="46.99254" lon="8.64967">
        <ele>572</ele>
        <time>2021-08-05T09:30:59.439Z</time>
      </trkpt>
      <trkpt lat="46.99254" lon="8.64969">
        <ele>572</ele>
        <time>2021-08-05T09:31:00.440Z</time>
      </trkpt>
      <trkpt lat="46.99253" lon="8.6497">
        <ele>572</ele>
        <time>2021-08-05T09:31:01.440Z</time>
      </trkpt>
      <trkpt lat="46.99253" lon="8.64972">
        <ele>572</ele>
        <time>2021-08-05T09:31:02.439Z</time>
      </trkpt>
      <trkpt lat="46.99253" lon="8.64973">
        <ele>572</ele>
        <time>2021-08-05T09:31:03.440Z</time>
      </trkpt>
      <trkpt lat="46.99252" lon="8.64974">
        <ele>571</ele>
        <time>2021-08-05T09:31:04.439Z</time>
      </trkpt>
      <trkpt lat="46.99252" lon="8.64975">
        <ele>571</ele>
        <time>2021-08-05T09:31:05.440Z</time>
      </trkpt>
      <trkpt lat="46.99251" lon="8.64977">
        <ele>571</ele>
        <time>2021-08-05T09:31:06.440Z</time>
      </trkpt>
      <trkpt lat="46.99251" lon="8.64978">
        <ele>570</ele>
        <time>2021-08-05T09:31:07.439Z</time>
      </trkpt>
      <trkpt lat="46.9925" lon="8.64979">
        <ele>570</ele>
        <time>2021-08-05T09:31:08.439Z</time>
      </trkpt>
      <trkpt lat="46.99249" lon="8.64981">
        <ele>569</ele>
        <time>2021-08-05T09:31:09.440Z</time>
      </trkpt>
      <trkpt lat="46.99249" lon="8.64982">
        <ele>569</ele>
        <time>2021-08-05T09:31:10.440Z</time>
      </trkpt>
      <trkpt lat="46.99248" lon="8.64984">
        <ele>569</ele>
        <time>2021-08-05T09:31:11.440Z</time>
      </trkpt>
      <trkpt lat="46.99248" lon="8.64985">
        <ele>569</ele>
        <time>2021-08-05T09:31:12.440Z</time>
      </trkpt>
      <trkpt lat="46.99248" lon="8.64987">
        <ele>569</ele>
        <time>2021-08-05T09:31:13.440Z</time>
      </trkpt>
      <trkpt lat="46.99247" lon="8.64988">
        <ele>568</ele>
        <time>2021-08-05T09:31:14.439Z</time>
      </trkpt>
      <trkpt lat="46.99247" lon="8.6499">
        <ele>568</ele>
        <time>2021-08-05T09:31:15.440Z</time>
      </trkpt>
      <trkpt lat="46.99247" lon="8.64992">
        <ele>568</ele>
        <time>2021-08-05T09:31:16.440Z</time>
      </trkpt>
      <trkpt lat="46.99247" lon="8.64994">
        <ele>568</ele>
        <time>2021-08-05T09:31:17.439Z</time>
      </trkpt>
      <trkpt lat="46.99246" lon="8.64996">
        <ele>569</ele>
        <time>2021-08-05T09:31:18.440Z</time>
      </trkpt>
      <trkpt lat="46.99246" lon="8.64997">
        <ele>569</ele>
        <time>2021-08-05T09:31:19.440Z</time>
      </trkpt>
      <trkpt lat="46.99245" lon="8.64999">
        <ele>569</ele>
        <time>2021-08-05T09:31:20.439Z</time>
      </trkpt>
      <trkpt lat="46.99245" lon="8.65">
        <ele>570</ele>
        <time>2021-08-05T09:31:21.439Z</time>
      </trkpt>
      <trkpt lat="46.99244" lon="8.65002">
        <ele>570</ele>
        <time>2021-08-05T09:31:22.440Z</time>
      </trkpt>
      <trkpt lat="46.99244" lon="8.65002">
        <ele>570</ele>
        <time>2021-08-05T09:31:23.440Z</time>
      </trkpt>
      <trkpt lat="46.99243" lon="8.65003">
        <ele>570</ele>
        <time>2021-08-05T09:31:24.440Z</time>
      </trkpt>
      <trkpt lat="46.99243" lon="8.65003">
        <ele>570</ele>
        <time>2021-08-05T09:31:25.440Z</time>
      </trkpt>
      <trkpt lat="46.99241" lon="8.65003">
        <ele>570</ele>
        <time>2021-08-05T09:31:26.441Z</time>
      </trkpt>
      <trkpt lat="46.99241" lon="8.65002">
        <ele>571</ele>
        <time>2021-08-05T09:31:27.440Z</time>
      </trkpt>
      <trkpt lat="46.99241" lon="8.65002">
        <ele>571</ele>
        <time>2021-08-05T09:31:28.440Z</time>
      </trkpt>
      <trkpt lat="46.99241" lon="8.65004">
        <ele>571</ele>
        <time>2021-08-05T09:31:29.440Z</time>
      </trkpt>
      <trkpt lat="46.99241" lon="8.65005">
        <ele>571</ele>
        <time>2021-08-05T09:31:30.440Z</time>
      </trkpt>
      <trkpt lat="46.9924" lon="8.65007">
        <ele>571</ele>
        <time>2021-08-05T09:31:31.441Z</time>
      </trkpt>
      <trkpt lat="46.9924" lon="8.65009">
        <ele>571</ele>
        <time>2021-08-05T09:31:32.440Z</time>
      </trkpt>
      <trkpt lat="46.99239" lon="8.65011">
        <ele>572</ele>
        <time>2021-08-05T09:31:33.440Z</time>
      </trkpt>
      <trkpt lat="46.99239" lon="8.65012">
        <ele>572</ele>
        <time>2021-08-05T09:31:34.441Z</time>
      </trkpt>
      <trkpt lat="46.99238" lon="8.65014">
        <ele>572</ele>
        <time>2021-08-05T09:31:35.440Z</time>
      </trkpt>
      <trkpt lat="46.99238" lon="8.65015">
        <ele>572</ele>
        <time>2021-08-05T09:31:36.440Z</time>
      </trkpt>
      <trkpt lat="46.99238" lon="8.65016">
        <ele>573</ele>
        <time>2021-08-05T09:31:37.440Z</time>
      </trkpt>
      <trkpt lat="46.99238" lon="8.65017">
        <ele>573</ele>
        <time>2021-08-05T09:31:38.440Z</time>
      </trkpt>
      <trkpt lat="46.99238" lon="8.65017">
        <ele>574</ele>
        <time>2021-08-05T09:31:39.440Z</time>
      </trkpt>
      <trkpt lat="46.99239" lon="8.65018">
        <ele>574</ele>
        <time>2021-08-05T09:31:40.440Z</time>
      </trkpt>
      <trkpt lat="46.99239" lon="8.65018">
        <ele>574</ele>
        <time>2021-08-05T09:31:41.440Z</time>
      </trkpt>
      <trkpt lat="46.99239" lon="8.65018">
        <ele>574</ele>
        <time>2021-08-05T09:31:42.441Z</time>
      </trkpt>
      <trkpt lat="46.99239" lon="8.65018">
        <ele>574</ele>
        <time>2021-08-05T09:31:43.440Z</time>
      </trkpt>
      <trkpt lat="46.99238" lon="8.65019">
        <ele>574</ele>
        <time>2021-08-05T09:31:44.441Z</time>
      </trkpt>
      <trkpt lat="46.99238" lon="8.65019">
        <ele>574</ele>
        <time>2021-08-05T09:31:45.440Z</time>
      </trkpt>
      <trkpt lat="46.99238" lon="8.65019">
        <ele>574</ele>
        <time>2021-08-05T09:31:46.441Z</time>
      </trkpt>
      <trkpt lat="46.99239" lon="8.65016">
        <ele>576</ele>
        <time>2021-08-05T09:31:47.442Z</time>
      </trkpt>
      <trkpt lat="46.99239" lon="8.65016">
        <ele>576</ele>
        <time>2021-08-05T09:31:48.442Z</time>
      </trkpt>
      <trkpt lat="46.99238" lon="8.65016">
        <ele>576</ele>
        <time>2021-08-05T09:31:49.441Z</time>
      </trkpt>
      <trkpt lat="46.99238" lon="8.65016">
        <ele>577</ele>
        <time>2021-08-05T09:31:50.442Z</time>
      </trkpt>
      <trkpt lat="46.99238" lon="8.65016">
        <ele>577</ele>
        <time>2021-08-05T09:31:51.442Z</time>
      </trkpt>
      <trkpt lat="46.99238" lon="8.65017">
        <ele>577</ele>
        <time>2021-08-05T09:31:52.442Z</time>
      </trkpt>
      <trkpt lat="46.99237" lon="8.65017">
        <ele>578</ele>
        <time>2021-08-05T09:31:53.442Z</time>
      </trkpt>
      <trkpt lat="46.99237" lon="8.65017">
        <ele>578</ele>
        <time>2021-08-05T09:31:54.442Z</time>
      </trkpt>
      <trkpt lat="46.99238" lon="8.65019">
        <ele>580</ele>
        <time>2021-08-05T09:31:55.443Z</time>
      </trkpt>
      <trkpt lat="46.99238" lon="8.65019">
        <ele>580</ele>
        <time>2021-08-05T09:31:56.443Z</time>
      </trkpt>
      <trkpt lat="46.99238" lon="8.65019">
        <ele>580</ele>
        <time>2021-08-05T09:31:57.443Z</time>
      </trkpt>
      <trkpt lat="46.99239" lon="8.65017">
        <ele>575</ele>
        <time>2021-08-05T09:31:58.443Z</time>
      </trkpt>
      <trkpt lat="46.9924" lon="8.65017">
        <ele>574</ele>
        <time>2021-08-05T09:31:59.443Z</time>
      </trkpt>
      <trkpt lat="46.9924" lon="8.65017">
        <ele>575</ele>
        <time>2021-08-05T09:32:00.442Z</time>
      </trkpt>
      <trkpt lat="46.9924" lon="8.65018">
        <ele>576</ele>
        <time>2021-08-05T09:32:01.444Z</time>
      </trkpt>
      <trkpt lat="46.9924" lon="8.65018">
        <ele>577</ele>
        <time>2021-08-05T09:32:02.445Z</time>
      </trkpt>
      <trkpt lat="46.9924" lon="8.65018">
        <ele>577</ele>
        <time>2021-08-05T09:32:03.444Z</time>
      </trkpt>
      <trkpt lat="46.99241" lon="8.65018">
        <ele>577</ele>
        <time>2021-08-05T09:32:04.445Z</time>
      </trkpt>
      <trkpt lat="46.99241" lon="8.65017">
        <ele>578</ele>
        <time>2021-08-05T09:32:05.445Z</time>
      </trkpt>
      <trkpt lat="46.99242" lon="8.65017">
        <ele>579</ele>
        <time>2021-08-05T09:32:06.445Z</time>
      </trkpt>
      <trkpt lat="46.99241" lon="8.65016">
        <ele>579</ele>
        <time>2021-08-05T09:32:07.445Z</time>
      </trkpt>
      <trkpt lat="46.99238" lon="8.65018">
        <ele>581</ele>
        <time>2021-08-05T09:32:08.445Z</time>
      </trkpt>
      <trkpt lat="46.99238" lon="8.65018">
        <ele>581</ele>
        <time>2021-08-05T09:32:09.446Z</time>
      </trkpt>
      <trkpt lat="46.99238" lon="8.6502">
        <ele>576</ele>
        <time>2021-08-05T09:32:10.447Z</time>
      </trkpt>
      <trkpt lat="46.99238" lon="8.6502">
        <ele>576</ele>
        <time>2021-08-05T09:32:11.447Z</time>
      </trkpt>
      <trkpt lat="46.99238" lon="8.6502">
        <ele>575</ele>
        <time>2021-08-05T09:32:12.446Z</time>
      </trkpt>
      <trkpt lat="46.99239" lon="8.65019">
        <ele>575</ele>
        <time>2021-08-05T09:32:13.447Z</time>
      </trkpt>
      <trkpt lat="46.99239" lon="8.65019">
        <ele>574</ele>
        <time>2021-08-05T09:32:14.447Z</time>
      </trkpt>
      <trkpt lat="46.99238" lon="8.65023">
        <ele>575</ele>
        <time>2021-08-05T09:32:15.448Z</time>
      </trkpt>
      <trkpt lat="46.99238" lon="8.65024">
        <ele>574</ele>
        <time>2021-08-05T09:32:16.447Z</time>
      </trkpt>
      <trkpt lat="46.99238" lon="8.65025">
        <ele>574</ele>
        <time>2021-08-05T09:32:17.447Z</time>
      </trkpt>
      <trkpt lat="46.99239" lon="8.65024">
        <ele>574</ele>
        <time>2021-08-05T09:32:18.447Z</time>
      </trkpt>
      <trkpt lat="46.99239" lon="8.65024">
        <ele>574</ele>
        <time>2021-08-05T09:32:19.448Z</time>
      </trkpt>
      <trkpt lat="46.99238" lon="8.65021">
        <ele>580</ele>
        <time>2021-08-05T09:32:20.448Z</time>
      </trkpt>
      <trkpt lat="46.99238" lon="8.65018">
        <ele>586</ele>
        <time>2021-08-05T09:32:21.447Z</time>
      </trkpt>
      <trkpt lat="46.99237" lon="8.65017">
        <ele>586</ele>
        <time>2021-08-05T09:32:22.447Z</time>
      </trkpt>
      <trkpt lat="46.99237" lon="8.65017">
        <ele>586</ele>
        <time>2021-08-05T09:32:23.447Z</time>
      </trkpt>
      <trkpt lat="46.99237" lon="8.65017">
        <ele>585</ele>
        <time>2021-08-05T09:32:24.447Z</time>
      </trkpt>
      <trkpt lat="46.99237" lon="8.65017">
        <ele>585</ele>
        <time>2021-08-05T09:32:25.448Z</time>
      </trkpt>
      <trkpt lat="46.99237" lon="8.65017">
        <ele>585</ele>
        <time>2021-08-05T09:32:26.448Z</time>
      </trkpt>
      <trkpt lat="46.9924" lon="8.6502">
        <ele>590</ele>
        <time>2021-08-05T09:32:27.448Z</time>
      </trkpt>
      <trkpt lat="46.99239" lon="8.65021">
        <ele>590</ele>
        <time>2021-08-05T09:32:28.447Z</time>
      </trkpt>
      <trkpt lat="46.99239" lon="8.65022">
        <ele>589</ele>
        <time>2021-08-05T09:32:29.448Z</time>
      </trkpt>
      <trkpt lat="46.99239" lon="8.65023">
        <ele>589</ele>
        <time>2021-08-05T09:32:30.447Z</time>
      </trkpt>
      <trkpt lat="46.99238" lon="8.65024">
        <ele>588</ele>
        <time>2021-08-05T09:32:31.447Z</time>
      </trkpt>
      <trkpt lat="46.99238" lon="8.65025">
        <ele>588</ele>
        <time>2021-08-05T09:32:32.448Z</time>
      </trkpt>
      <trkpt lat="46.99237" lon="8.65025">
        <ele>588</ele>
        <time>2021-08-05T09:32:33.447Z</time>
      </trkpt>
      <trkpt lat="46.99237" lon="8.65026">
        <ele>587</ele>
        <time>2021-08-05T09:32:34.447Z</time>
      </trkpt>
      <trkpt lat="46.99236" lon="8.65027">
        <ele>586</ele>
        <time>2021-08-05T09:32:35.448Z</time>
      </trkpt>
      <trkpt lat="46.99236" lon="8.65029">
        <ele>586</ele>
        <time>2021-08-05T09:32:36.448Z</time>
      </trkpt>
      <trkpt lat="46.99235" lon="8.6503">
        <ele>585</ele>
        <time>2021-08-05T09:32:37.447Z</time>
      </trkpt>
      <trkpt lat="46.99235" lon="8.65031">
        <ele>584</ele>
        <time>2021-08-05T09:32:38.447Z</time>
      </trkpt>
      <trkpt lat="46.99234" lon="8.65032">
        <ele>584</ele>
        <time>2021-08-05T09:32:39.447Z</time>
      </trkpt>
      <trkpt lat="46.99233" lon="8.65033">
        <ele>583</ele>
        <time>2021-08-05T09:32:40.448Z</time>
      </trkpt>
      <trkpt lat="46.99233" lon="8.65033">
        <ele>583</ele>
        <time>2021-08-05T09:32:41.447Z</time>
      </trkpt>
      <trkpt lat="46.99232" lon="8.65035">
        <ele>582</ele>
        <time>2021-08-05T09:32:42.447Z</time>
      </trkpt>
      <trkpt lat="46.99231" lon="8.65036">
        <ele>582</ele>
        <time>2021-08-05T09:32:43.447Z</time>
      </trkpt>
      <trkpt lat="46.99231" lon="8.65037">
        <ele>581</ele>
        <time>2021-08-05T09:32:44.448Z</time>
      </trkpt>
      <trkpt lat="46.99231" lon="8.65038">
        <ele>581</ele>
        <time>2021-08-05T09:32:45.447Z</time>
      </trkpt>
      <trkpt lat="46.9923" lon="8.6504">
        <ele>581</ele>
        <time>2021-08-05T09:32:46.448Z</time>
      </trkpt>
      <trkpt lat="46.99229" lon="8.65042">
        <ele>580</ele>
        <time>2021-08-05T09:32:47.447Z</time>
      </trkpt>
      <trkpt lat="46.99229" lon="8.65043">
        <ele>580</ele>
        <time>2021-08-05T09:32:48.448Z</time>
      </trkpt>
      <trkpt lat="46.99228" lon="8.65044">
        <ele>579</ele>
        <time>2021-08-05T09:32:49.448Z</time>
      </trkpt>
      <trkpt lat="46.99227" lon="8.65045">
        <ele>579</ele>
        <time>2021-08-05T09:32:50.448Z</time>
      </trkpt>
      <trkpt lat="46.99225" lon="8.65046">
        <ele>578</ele>
        <time>2021-08-05T09:32:51.448Z</time>
      </trkpt>
      <trkpt lat="46.99224" lon="8.65047">
        <ele>578</ele>
        <time>2021-08-05T09:32:52.448Z</time>
      </trkpt>
      <trkpt lat="46.99223" lon="8.65047">
        <ele>578</ele>
        <time>2021-08-05T09:32:53.448Z</time>
      </trkpt>
      <trkpt lat="46.99222" lon="8.65048">
        <ele>578</ele>
        <time>2021-08-05T09:32:54.448Z</time>
      </trkpt>
      <trkpt lat="46.99222" lon="8.65049">
        <ele>578</ele>
        <time>2021-08-05T09:32:55.448Z</time>
      </trkpt>
      <trkpt lat="46.99221" lon="8.6505">
        <ele>578</ele>
        <time>2021-08-05T09:32:56.447Z</time>
      </trkpt>
      <trkpt lat="46.99221" lon="8.65051">
        <ele>578</ele>
        <time>2021-08-05T09:32:57.447Z</time>
      </trkpt>
      <trkpt lat="46.9922" lon="8.65053">
        <ele>578</ele>
        <time>2021-08-05T09:32:58.447Z</time>
      </trkpt>
      <trkpt lat="46.99219" lon="8.65055">
        <ele>577</ele>
        <time>2021-08-05T09:32:59.448Z</time>
      </trkpt>
      <trkpt lat="46.99217" lon="8.65057">
        <ele>577</ele>
        <time>2021-08-05T09:33:00.447Z</time>
      </trkpt>
      <trkpt lat="46.99217" lon="8.65059">
        <ele>577</ele>
        <time>2021-08-05T09:33:01.448Z</time>
      </trkpt>
      <trkpt lat="46.99216" lon="8.65061">
        <ele>577</ele>
        <time>2021-08-05T09:33:02.448Z</time>
      </trkpt>
      <trkpt lat="46.99215" lon="8.65063">
        <ele>577</ele>
        <time>2021-08-05T09:33:03.448Z</time>
      </trkpt>
      <trkpt lat="46.99214" lon="8.65065">
        <ele>576</ele>
        <time>2021-08-05T09:33:04.447Z</time>
      </trkpt>
      <trkpt lat="46.99213" lon="8.65066">
        <ele>576</ele>
        <time>2021-08-05T09:33:05.447Z</time>
      </trkpt>
      <trkpt lat="46.99213" lon="8.65066">
        <ele>576</ele>
        <time>2021-08-05T09:33:06.448Z</time>
      </trkpt>
      <trkpt lat="46.99212" lon="8.65067">
        <ele>576</ele>
        <time>2021-08-05T09:33:07.447Z</time>
      </trkpt>
      <trkpt lat="46.99212" lon="8.65068">
        <ele>577</ele>
        <time>2021-08-05T09:33:08.448Z</time>
      </trkpt>
      <trkpt lat="46.99212" lon="8.6507">
        <ele>578</ele>
        <time>2021-08-05T09:33:09.448Z</time>
      </trkpt>
      <trkpt lat="46.99211" lon="8.65071">
        <ele>578</ele>
        <time>2021-08-05T09:33:10.448Z</time>
      </trkpt>
      <trkpt lat="46.9921" lon="8.65073">
        <ele>577</ele>
        <time>2021-08-05T09:33:11.448Z</time>
      </trkpt>
      <trkpt lat="46.9921" lon="8.65074">
        <ele>577</ele>
        <time>2021-08-05T09:33:12.448Z</time>
      </trkpt>
      <trkpt lat="46.99209" lon="8.65075">
        <ele>576</ele>
        <time>2021-08-05T09:33:13.447Z</time>
      </trkpt>
      <trkpt lat="46.99209" lon="8.65076">
        <ele>575</ele>
        <time>2021-08-05T09:33:14.447Z</time>
      </trkpt>
      <trkpt lat="46.99209" lon="8.65076">
        <ele>575</ele>
        <time>2021-08-05T09:33:15.448Z</time>
      </trkpt>
      <trkpt lat="46.99209" lon="8.65076">
        <ele>574</ele>
        <time>2021-08-05T09:33:16.447Z</time>
      </trkpt>
      <trkpt lat="46.99209" lon="8.65076">
        <ele>574</ele>
        <time>2021-08-05T09:33:17.447Z</time>
      </trkpt>
      <trkpt lat="46.99209" lon="8.65077">
        <ele>574</ele>
        <time>2021-08-05T09:33:18.448Z</time>
      </trkpt>
      <trkpt lat="46.9921" lon="8.65077">
        <ele>573</ele>
        <time>2021-08-05T09:33:19.447Z</time>
      </trkpt>
      <trkpt lat="46.9921" lon="8.65078">
        <ele>573</ele>
        <time>2021-08-05T09:33:20.447Z</time>
      </trkpt>
      <trkpt lat="46.9921" lon="8.65078">
        <ele>573</ele>
        <time>2021-08-05T09:33:21.447Z</time>
      </trkpt>
      <trkpt lat="46.99211" lon="8.65075">
        <ele>575</ele>
        <time>2021-08-05T09:33:22.448Z</time>
      </trkpt>
      <trkpt lat="46.9921" lon="8.65075">
        <ele>574</ele>
        <time>2021-08-05T09:33:23.449Z</time>
      </trkpt>
      <trkpt lat="46.9921" lon="8.65076">
        <ele>574</ele>
        <time>2021-08-05T09:33:24.449Z</time>
      </trkpt>
      <trkpt lat="46.99209" lon="8.65077">
        <ele>574</ele>
        <time>2021-08-05T09:33:25.449Z</time>
      </trkpt>
      <trkpt lat="46.99208" lon="8.65078">
        <ele>574</ele>
        <time>2021-08-05T09:33:26.449Z</time>
      </trkpt>
      <trkpt lat="46.99207" lon="8.65079">
        <ele>574</ele>
        <time>2021-08-05T09:33:27.449Z</time>
      </trkpt>
      <trkpt lat="46.99206" lon="8.65079">
        <ele>574</ele>
        <time>2021-08-05T09:33:28.449Z</time>
      </trkpt>
      <trkpt lat="46.99206" lon="8.6508">
        <ele>575</ele>
        <time>2021-08-05T09:33:29.449Z</time>
      </trkpt>
      <trkpt lat="46.99205" lon="8.65081">
        <ele>575</ele>
        <time>2021-08-05T09:33:30.449Z</time>
      </trkpt>
      <trkpt lat="46.99204" lon="8.65082">
        <ele>575</ele>
        <time>2021-08-05T09:33:31.449Z</time>
      </trkpt>
      <trkpt lat="46.99203" lon="8.65083">
        <ele>575</ele>
        <time>2021-08-05T09:33:32.448Z</time>
      </trkpt>
      <trkpt lat="46.99203" lon="8.65085">
        <ele>575</ele>
        <time>2021-08-05T09:33:33.449Z</time>
      </trkpt>
      <trkpt lat="46.99202" lon="8.65086">
        <ele>575</ele>
        <time>2021-08-05T09:33:34.449Z</time>
      </trkpt>
      <trkpt lat="46.99201" lon="8.65087">
        <ele>575</ele>
        <time>2021-08-05T09:33:35.449Z</time>
      </trkpt>
      <trkpt lat="46.992" lon="8.65088">
        <ele>575</ele>
        <time>2021-08-05T09:33:36.449Z</time>
      </trkpt>
      <trkpt lat="46.992" lon="8.65089">
        <ele>575</ele>
        <time>2021-08-05T09:33:37.448Z</time>
      </trkpt>
      <trkpt lat="46.99199" lon="8.65091">
        <ele>574</ele>
        <time>2021-08-05T09:33:38.449Z</time>
      </trkpt>
      <trkpt lat="46.99198" lon="8.65092">
        <ele>574</ele>
        <time>2021-08-05T09:33:39.449Z</time>
      </trkpt>
      <trkpt lat="46.99197" lon="8.65094">
        <ele>575</ele>
        <time>2021-08-05T09:33:40.449Z</time>
      </trkpt>
      <trkpt lat="46.99197" lon="8.65095">
        <ele>575</ele>
        <time>2021-08-05T09:33:41.449Z</time>
      </trkpt>
      <trkpt lat="46.99196" lon="8.65097">
        <ele>575</ele>
        <time>2021-08-05T09:33:42.448Z</time>
      </trkpt>
      <trkpt lat="46.99195" lon="8.65098">
        <ele>575</ele>
        <time>2021-08-05T09:33:43.449Z</time>
      </trkpt>
      <trkpt lat="46.99194" lon="8.651">
        <ele>575</ele>
        <time>2021-08-05T09:33:44.449Z</time>
      </trkpt>
      <trkpt lat="46.99193" lon="8.65102">
        <ele>575</ele>
        <time>2021-08-05T09:33:45.448Z</time>
      </trkpt>
      <trkpt lat="46.99193" lon="8.65103">
        <ele>575</ele>
        <time>2021-08-05T09:33:46.449Z</time>
      </trkpt>
      <trkpt lat="46.99192" lon="8.65104">
        <ele>575</ele>
        <time>2021-08-05T09:33:47.449Z</time>
      </trkpt>
      <trkpt lat="46.99192" lon="8.65105">
        <ele>575</ele>
        <time>2021-08-05T09:33:48.449Z</time>
      </trkpt>
      <trkpt lat="46.99192" lon="8.65107">
        <ele>574</ele>
        <time>2021-08-05T09:33:49.449Z</time>
      </trkpt>
      <trkpt lat="46.99192" lon="8.65107">
        <ele>574</ele>
        <time>2021-08-05T09:33:50.448Z</time>
      </trkpt>
      <trkpt lat="46.99191" lon="8.65107">
        <ele>574</ele>
        <time>2021-08-05T09:33:51.448Z</time>
      </trkpt>
      <trkpt lat="46.9919" lon="8.65109">
        <ele>574</ele>
        <time>2021-08-05T09:33:52.449Z</time>
      </trkpt>
      <trkpt lat="46.99189" lon="8.6511">
        <ele>573</ele>
        <time>2021-08-05T09:33:53.448Z</time>
      </trkpt>
      <trkpt lat="46.99188" lon="8.65111">
        <ele>573</ele>
        <time>2021-08-05T09:33:54.448Z</time>
      </trkpt>
      <trkpt lat="46.99188" lon="8.65112">
        <ele>573</ele>
        <time>2021-08-05T09:33:55.448Z</time>
      </trkpt>
      <trkpt lat="46.99186" lon="8.65114">
        <ele>572</ele>
        <time>2021-08-05T09:33:56.449Z</time>
      </trkpt>
      <trkpt lat="46.99185" lon="8.65115">
        <ele>572</ele>
        <time>2021-08-05T09:33:57.449Z</time>
      </trkpt>
      <trkpt lat="46.99185" lon="8.65117">
        <ele>571</ele>
        <time>2021-08-05T09:33:58.449Z</time>
      </trkpt>
      <trkpt lat="46.99184" lon="8.65118">
        <ele>572</ele>
        <time>2021-08-05T09:33:59.449Z</time>
      </trkpt>
      <trkpt lat="46.99184" lon="8.65119">
        <ele>572</ele>
        <time>2021-08-05T09:34:00.449Z</time>
      </trkpt>
      <trkpt lat="46.99183" lon="8.6512">
        <ele>572</ele>
        <time>2021-08-05T09:34:01.448Z</time>
      </trkpt>
      <trkpt lat="46.99182" lon="8.65121">
        <ele>572</ele>
        <time>2021-08-05T09:34:02.448Z</time>
      </trkpt>
      <trkpt lat="46.99182" lon="8.65122">
        <ele>573</ele>
        <time>2021-08-05T09:34:03.449Z</time>
      </trkpt>
      <trkpt lat="46.9918" lon="8.65122">
        <ele>573</ele>
        <time>2021-08-05T09:34:04.449Z</time>
      </trkpt>
      <trkpt lat="46.9918" lon="8.65123">
        <ele>573</ele>
        <time>2021-08-05T09:34:05.448Z</time>
      </trkpt>
      <trkpt lat="46.99179" lon="8.65125">
        <ele>573</ele>
        <time>2021-08-05T09:34:06.449Z</time>
      </trkpt>
      <trkpt lat="46.99179" lon="8.65126">
        <ele>573</ele>
        <time>2021-08-05T09:34:07.449Z</time>
      </trkpt>
      <trkpt lat="46.99178" lon="8.65127">
        <ele>573</ele>
        <time>2021-08-05T09:34:08.449Z</time>
      </trkpt>
      <trkpt lat="46.99177" lon="8.65128">
        <ele>573</ele>
        <time>2021-08-05T09:34:09.448Z</time>
      </trkpt>
      <trkpt lat="46.99177" lon="8.65128">
        <ele>573</ele>
        <time>2021-08-05T09:34:10.449Z</time>
      </trkpt>
      <trkpt lat="46.99175" lon="8.65129">
        <ele>573</ele>
        <time>2021-08-05T09:34:11.449Z</time>
      </trkpt>
      <trkpt lat="46.99175" lon="8.65131">
        <ele>574</ele>
        <time>2021-08-05T09:34:12.448Z</time>
      </trkpt>
      <trkpt lat="46.99174" lon="8.65132">
        <ele>574</ele>
        <time>2021-08-05T09:34:13.448Z</time>
      </trkpt>
      <trkpt lat="46.99173" lon="8.65134">
        <ele>574</ele>
        <time>2021-08-05T09:34:14.449Z</time>
      </trkpt>
      <trkpt lat="46.99173" lon="8.65135">
        <ele>574</ele>
        <time>2021-08-05T09:34:15.448Z</time>
      </trkpt>
      <trkpt lat="46.99172" lon="8.65136">
        <ele>575</ele>
        <time>2021-08-05T09:34:16.449Z</time>
      </trkpt>
      <trkpt lat="46.99171" lon="8.65137">
        <ele>575</ele>
        <time>2021-08-05T09:34:17.449Z</time>
      </trkpt>
      <trkpt lat="46.9917" lon="8.65138">
        <ele>575</ele>
        <time>2021-08-05T09:34:18.449Z</time>
      </trkpt>
      <trkpt lat="46.9917" lon="8.65139">
        <ele>576</ele>
        <time>2021-08-05T09:34:19.449Z</time>
      </trkpt>
      <trkpt lat="46.99169" lon="8.6514">
        <ele>576</ele>
        <time>2021-08-05T09:34:20.448Z</time>
      </trkpt>
      <trkpt lat="46.99168" lon="8.65141">
        <ele>577</ele>
        <time>2021-08-05T09:34:21.449Z</time>
      </trkpt>
      <trkpt lat="46.99167" lon="8.65142">
        <ele>577</ele>
        <time>2021-08-05T09:34:22.448Z</time>
      </trkpt>
      <trkpt lat="46.99166" lon="8.65144">
        <ele>577</ele>
        <time>2021-08-05T09:34:23.449Z</time>
      </trkpt>
      <trkpt lat="46.99166" lon="8.65145">
        <ele>576</ele>
        <time>2021-08-05T09:34:24.448Z</time>
      </trkpt>
      <trkpt lat="46.99166" lon="8.65146">
        <ele>576</ele>
        <time>2021-08-05T09:34:25.449Z</time>
      </trkpt>
      <trkpt lat="46.99165" lon="8.65148">
        <ele>576</ele>
        <time>2021-08-05T09:34:26.448Z</time>
      </trkpt>
      <trkpt lat="46.99164" lon="8.65149">
        <ele>575</ele>
        <time>2021-08-05T09:34:27.448Z</time>
      </trkpt>
      <trkpt lat="46.99163" lon="8.6515">
        <ele>574</ele>
        <time>2021-08-05T09:34:28.449Z</time>
      </trkpt>
      <trkpt lat="46.99163" lon="8.65151">
        <ele>573</ele>
        <time>2021-08-05T09:34:29.448Z</time>
      </trkpt>
      <trkpt lat="46.99162" lon="8.65152">
        <ele>573</ele>
        <time>2021-08-05T09:34:30.449Z</time>
      </trkpt>
      <trkpt lat="46.99161" lon="8.65154">
        <ele>572</ele>
        <time>2021-08-05T09:34:31.449Z</time>
      </trkpt>
      <trkpt lat="46.9916" lon="8.65155">
        <ele>572</ele>
        <time>2021-08-05T09:34:32.448Z</time>
      </trkpt>
      <trkpt lat="46.9916" lon="8.65157">
        <ele>571</ele>
        <time>2021-08-05T09:34:33.449Z</time>
      </trkpt>
      <trkpt lat="46.99159" lon="8.65158">
        <ele>570</ele>
        <time>2021-08-05T09:34:34.449Z</time>
      </trkpt>
      <trkpt lat="46.99158" lon="8.65159">
        <ele>569</ele>
        <time>2021-08-05T09:34:35.449Z</time>
      </trkpt>
      <trkpt lat="46.99157" lon="8.65159">
        <ele>569</ele>
        <time>2021-08-05T09:34:36.449Z</time>
      </trkpt>
      <trkpt lat="46.99157" lon="8.65159">
        <ele>568</ele>
        <time>2021-08-05T09:34:37.449Z</time>
      </trkpt>
      <trkpt lat="46.99156" lon="8.6516">
        <ele>567</ele>
        <time>2021-08-05T09:34:38.448Z</time>
      </trkpt>
      <trkpt lat="46.99155" lon="8.6516">
        <ele>567</ele>
        <time>2021-08-05T09:34:39.449Z</time>
      </trkpt>
      <trkpt lat="46.99154" lon="8.65161">
        <ele>566</ele>
        <time>2021-08-05T09:34:40.449Z</time>
      </trkpt>
      <trkpt lat="46.99152" lon="8.65162">
        <ele>566</ele>
        <time>2021-08-05T09:34:41.448Z</time>
      </trkpt>
      <trkpt lat="46.99151" lon="8.65163">
        <ele>566</ele>
        <time>2021-08-05T09:34:42.449Z</time>
      </trkpt>
      <trkpt lat="46.9915" lon="8.65164">
        <ele>566</ele>
        <time>2021-08-05T09:34:43.449Z</time>
      </trkpt>
      <trkpt lat="46.99149" lon="8.65165">
        <ele>566</ele>
        <time>2021-08-05T09:34:44.449Z</time>
      </trkpt>
      <trkpt lat="46.99147" lon="8.65166">
        <ele>566</ele>
        <time>2021-08-05T09:34:45.449Z</time>
      </trkpt>
      <trkpt lat="46.99146" lon="8.65167">
        <ele>567</ele>
        <time>2021-08-05T09:34:46.448Z</time>
      </trkpt>
      <trkpt lat="46.99146" lon="8.65168">
        <ele>567</ele>
        <time>2021-08-05T09:34:47.449Z</time>
      </trkpt>
      <trkpt lat="46.99146" lon="8.65169">
        <ele>567</ele>
        <time>2021-08-05T09:34:48.449Z</time>
      </trkpt>
      <trkpt lat="46.99146" lon="8.6517">
        <ele>568</ele>
        <time>2021-08-05T09:34:49.448Z</time>
      </trkpt>
      <trkpt lat="46.99145" lon="8.65172">
        <ele>568</ele>
        <time>2021-08-05T09:34:50.449Z</time>
      </trkpt>
      <trkpt lat="46.99144" lon="8.65172">
        <ele>569</ele>
        <time>2021-08-05T09:34:51.448Z</time>
      </trkpt>
      <trkpt lat="46.99143" lon="8.65174">
        <ele>569</ele>
        <time>2021-08-05T09:34:52.449Z</time>
      </trkpt>
      <trkpt lat="46.99142" lon="8.65175">
        <ele>570</ele>
        <time>2021-08-05T09:34:53.449Z</time>
      </trkpt>
      <trkpt lat="46.99142" lon="8.65176">
        <ele>571</ele>
        <time>2021-08-05T09:34:54.448Z</time>
      </trkpt>
      <trkpt lat="46.99142" lon="8.65178">
        <ele>571</ele>
        <time>2021-08-05T09:34:55.449Z</time>
      </trkpt>
      <trkpt lat="46.99141" lon="8.65179">
        <ele>571</ele>
        <time>2021-08-05T09:34:56.449Z</time>
      </trkpt>
      <trkpt lat="46.9914" lon="8.6518">
        <ele>571</ele>
        <time>2021-08-05T09:34:57.448Z</time>
      </trkpt>
      <trkpt lat="46.99139" lon="8.65181">
        <ele>572</ele>
        <time>2021-08-05T09:34:58.449Z</time>
      </trkpt>
      <trkpt lat="46.99138" lon="8.65182">
        <ele>571</ele>
        <time>2021-08-05T09:34:59.448Z</time>
      </trkpt>
      <trkpt lat="46.99137" lon="8.65182">
        <ele>571</ele>
        <time>2021-08-05T09:35:00.449Z</time>
      </trkpt>
      <trkpt lat="46.99136" lon="8.65182">
        <ele>571</ele>
        <time>2021-08-05T09:35:01.448Z</time>
      </trkpt>
      <trkpt lat="46.99135" lon="8.65183">
        <ele>571</ele>
        <time>2021-08-05T09:35:02.448Z</time>
      </trkpt>
      <trkpt lat="46.99135" lon="8.65184">
        <ele>570</ele>
        <time>2021-08-05T09:35:03.448Z</time>
      </trkpt>
      <trkpt lat="46.99134" lon="8.65184">
        <ele>570</ele>
        <time>2021-08-05T09:35:04.448Z</time>
      </trkpt>
      <trkpt lat="46.99133" lon="8.65185">
        <ele>569</ele>
        <time>2021-08-05T09:35:05.448Z</time>
      </trkpt>
      <trkpt lat="46.99132" lon="8.65187">
        <ele>569</ele>
        <time>2021-08-05T09:35:06.449Z</time>
      </trkpt>
      <trkpt lat="46.99131" lon="8.65187">
        <ele>569</ele>
        <time>2021-08-05T09:35:07.449Z</time>
      </trkpt>
      <trkpt lat="46.9913" lon="8.65189">
        <ele>568</ele>
        <time>2021-08-05T09:35:08.449Z</time>
      </trkpt>
      <trkpt lat="46.99129" lon="8.6519">
        <ele>568</ele>
        <time>2021-08-05T09:35:09.449Z</time>
      </trkpt>
      <trkpt lat="46.99128" lon="8.65191">
        <ele>567</ele>
        <time>2021-08-05T09:35:10.449Z</time>
      </trkpt>
      <trkpt lat="46.99127" lon="8.65192">
        <ele>566</ele>
        <time>2021-08-05T09:35:11.449Z</time>
      </trkpt>
      <trkpt lat="46.99127" lon="8.65193">
        <ele>565</ele>
        <time>2021-08-05T09:35:12.449Z</time>
      </trkpt>
      <trkpt lat="46.99126" lon="8.65193">
        <ele>564</ele>
        <time>2021-08-05T09:35:13.449Z</time>
      </trkpt>
      <trkpt lat="46.99125" lon="8.65194">
        <ele>564</ele>
        <time>2021-08-05T09:35:14.449Z</time>
      </trkpt>
      <trkpt lat="46.99124" lon="8.65194">
        <ele>564</ele>
        <time>2021-08-05T09:35:15.448Z</time>
      </trkpt>
      <trkpt lat="46.99122" lon="8.65194">
        <ele>565</ele>
        <time>2021-08-05T09:35:16.449Z</time>
      </trkpt>
      <trkpt lat="46.99121" lon="8.65194">
        <ele>566</ele>
        <time>2021-08-05T09:35:17.449Z</time>
      </trkpt>
      <trkpt lat="46.9912" lon="8.65194">
        <ele>567</ele>
        <time>2021-08-05T09:35:18.448Z</time>
      </trkpt>
      <trkpt lat="46.99119" lon="8.65194">
        <ele>567</ele>
        <time>2021-08-05T09:35:19.449Z</time>
      </trkpt>
      <trkpt lat="46.99118" lon="8.65195">
        <ele>568</ele>
        <time>2021-08-05T09:35:20.448Z</time>
      </trkpt>
      <trkpt lat="46.99117" lon="8.65196">
        <ele>568</ele>
        <time>2021-08-05T09:35:21.449Z</time>
      </trkpt>
      <trkpt lat="46.99117" lon="8.65197">
        <ele>568</ele>
        <time>2021-08-05T09:35:22.449Z</time>
      </trkpt>
      <trkpt lat="46.99116" lon="8.65198">
        <ele>568</ele>
        <time>2021-08-05T09:35:23.449Z</time>
      </trkpt>
      <trkpt lat="46.99115" lon="8.65199">
        <ele>567</ele>
        <time>2021-08-05T09:35:24.449Z</time>
      </trkpt>
      <trkpt lat="46.99114" lon="8.65199">
        <ele>567</ele>
        <time>2021-08-05T09:35:25.449Z</time>
      </trkpt>
      <trkpt lat="46.99113" lon="8.65199">
        <ele>566</ele>
        <time>2021-08-05T09:35:26.448Z</time>
      </trkpt>
      <trkpt lat="46.99112" lon="8.65199">
        <ele>566</ele>
        <time>2021-08-05T09:35:27.449Z</time>
      </trkpt>
      <trkpt lat="46.99111" lon="8.65199">
        <ele>566</ele>
        <time>2021-08-05T09:35:28.448Z</time>
      </trkpt>
      <trkpt lat="46.99109" lon="8.652">
        <ele>565</ele>
        <time>2021-08-05T09:35:29.448Z</time>
      </trkpt>
      <trkpt lat="46.99108" lon="8.652">
        <ele>565</ele>
        <time>2021-08-05T09:35:30.449Z</time>
      </trkpt>
      <trkpt lat="46.99107" lon="8.652">
        <ele>564</ele>
        <time>2021-08-05T09:35:31.448Z</time>
      </trkpt>
      <trkpt lat="46.99106" lon="8.652">
        <ele>564</ele>
        <time>2021-08-05T09:35:32.448Z</time>
      </trkpt>
      <trkpt lat="46.99105" lon="8.65201">
        <ele>564</ele>
        <time>2021-08-05T09:35:33.449Z</time>
      </trkpt>
      <trkpt lat="46.99104" lon="8.65201">
        <ele>564</ele>
        <time>2021-08-05T09:35:34.449Z</time>
      </trkpt>
      <trkpt lat="46.99103" lon="8.65202">
        <ele>564</ele>
        <time>2021-08-05T09:35:35.448Z</time>
      </trkpt>
      <trkpt lat="46.99102" lon="8.65203">
        <ele>564</ele>
        <time>2021-08-05T09:35:36.448Z</time>
      </trkpt>
      <trkpt lat="46.99101" lon="8.65204">
        <ele>564</ele>
        <time>2021-08-05T09:35:37.448Z</time>
      </trkpt>
      <trkpt lat="46.991" lon="8.65205">
        <ele>564</ele>
        <time>2021-08-05T09:35:38.449Z</time>
      </trkpt>
      <trkpt lat="46.99099" lon="8.65206">
        <ele>565</ele>
        <time>2021-08-05T09:35:39.449Z</time>
      </trkpt>
      <trkpt lat="46.99098" lon="8.65207">
        <ele>565</ele>
        <time>2021-08-05T09:35:40.448Z</time>
      </trkpt>
      <trkpt lat="46.99097" lon="8.65208">
        <ele>564</ele>
        <time>2021-08-05T09:35:41.448Z</time>
      </trkpt>
      <trkpt lat="46.99096" lon="8.65208">
        <ele>564</ele>
        <time>2021-08-05T09:35:42.448Z</time>
      </trkpt>
      <trkpt lat="46.99095" lon="8.65208">
        <ele>563</ele>
        <time>2021-08-05T09:35:43.448Z</time>
      </trkpt>
      <trkpt lat="46.99094" lon="8.65209">
        <ele>563</ele>
        <time>2021-08-05T09:35:44.448Z</time>
      </trkpt>
      <trkpt lat="46.99093" lon="8.65209">
        <ele>563</ele>
        <time>2021-08-05T09:35:45.448Z</time>
      </trkpt>
      <trkpt lat="46.99092" lon="8.65209">
        <ele>563</ele>
        <time>2021-08-05T09:35:46.448Z</time>
      </trkpt>
      <trkpt lat="46.99091" lon="8.65209">
        <ele>564</ele>
        <time>2021-08-05T09:35:47.449Z</time>
      </trkpt>
      <trkpt lat="46.9909" lon="8.65209">
        <ele>564</ele>
        <time>2021-08-05T09:35:48.449Z</time>
      </trkpt>
      <trkpt lat="46.9909" lon="8.6521">
        <ele>563</ele>
        <time>2021-08-05T09:35:49.449Z</time>
      </trkpt>
      <trkpt lat="46.99089" lon="8.6521">
        <ele>563</ele>
        <time>2021-08-05T09:35:50.448Z</time>
      </trkpt>
      <trkpt lat="46.99088" lon="8.6521">
        <ele>563</ele>
        <time>2021-08-05T09:35:51.449Z</time>
      </trkpt>
      <trkpt lat="46.99086" lon="8.6521">
        <ele>562</ele>
        <time>2021-08-05T09:35:52.449Z</time>
      </trkpt>
      <trkpt lat="46.99085" lon="8.6521">
        <ele>562</ele>
        <time>2021-08-05T09:35:53.448Z</time>
      </trkpt>
      <trkpt lat="46.99084" lon="8.6521">
        <ele>562</ele>
        <time>2021-08-05T09:35:54.448Z</time>
      </trkpt>
      <trkpt lat="46.99083" lon="8.6521">
        <ele>563</ele>
        <time>2021-08-05T09:35:55.449Z</time>
      </trkpt>
      <trkpt lat="46.99082" lon="8.6521">
        <ele>563</ele>
        <time>2021-08-05T09:35:56.449Z</time>
      </trkpt>
      <trkpt lat="46.99081" lon="8.65209">
        <ele>563</ele>
        <time>2021-08-05T09:35:57.449Z</time>
      </trkpt>
      <trkpt lat="46.9908" lon="8.65208">
        <ele>564</ele>
        <time>2021-08-05T09:35:58.448Z</time>
      </trkpt>
      <trkpt lat="46.99078" lon="8.65208">
        <ele>564</ele>
        <time>2021-08-05T09:35:59.449Z</time>
      </trkpt>
      <trkpt lat="46.99077" lon="8.65208">
        <ele>564</ele>
        <time>2021-08-05T09:36:00.449Z</time>
      </trkpt>
      <trkpt lat="46.99076" lon="8.65208">
        <ele>565</ele>
        <time>2021-08-05T09:36:01.449Z</time>
      </trkpt>
      <trkpt lat="46.99075" lon="8.65208">
        <ele>565</ele>
        <time>2021-08-05T09:36:02.449Z</time>
      </trkpt>
      <trkpt lat="46.99073" lon="8.65208">
        <ele>566</ele>
        <time>2021-08-05T09:36:03.448Z</time>
      </trkpt>
      <trkpt lat="46.99072" lon="8.65209">
        <ele>566</ele>
        <time>2021-08-05T09:36:04.449Z</time>
      </trkpt>
      <trkpt lat="46.99071" lon="8.6521">
        <ele>566</ele>
        <time>2021-08-05T09:36:05.449Z</time>
      </trkpt>
      <trkpt lat="46.99071" lon="8.6521">
        <ele>567</ele>
        <time>2021-08-05T09:36:06.449Z</time>
      </trkpt>
      <trkpt lat="46.9907" lon="8.6521">
        <ele>568</ele>
        <time>2021-08-05T09:36:07.448Z</time>
      </trkpt>
      <trkpt lat="46.99069" lon="8.65211">
        <ele>569</ele>
        <time>2021-08-05T09:36:08.448Z</time>
      </trkpt>
      <trkpt lat="46.99068" lon="8.65212">
        <ele>570</ele>
        <time>2021-08-05T09:36:09.449Z</time>
      </trkpt>
      <trkpt lat="46.99067" lon="8.65213">
        <ele>572</ele>
        <time>2021-08-05T09:36:10.449Z</time>
      </trkpt>
      <trkpt lat="46.99066" lon="8.65214">
        <ele>572</ele>
        <time>2021-08-05T09:36:11.449Z</time>
      </trkpt>
      <trkpt lat="46.99066" lon="8.65215">
        <ele>573</ele>
        <time>2021-08-05T09:36:12.449Z</time>
      </trkpt>
      <trkpt lat="46.99065" lon="8.65216">
        <ele>574</ele>
        <time>2021-08-05T09:36:13.449Z</time>
      </trkpt>
      <trkpt lat="46.99065" lon="8.65217">
        <ele>574</ele>
        <time>2021-08-05T09:36:14.448Z</time>
      </trkpt>
      <trkpt lat="46.99064" lon="8.65219">
        <ele>575</ele>
        <time>2021-08-05T09:36:15.449Z</time>
      </trkpt>
      <trkpt lat="46.99063" lon="8.65221">
        <ele>575</ele>
        <time>2021-08-05T09:36:16.449Z</time>
      </trkpt>
      <trkpt lat="46.99062" lon="8.65222">
        <ele>576</ele>
        <time>2021-08-05T09:36:17.449Z</time>
      </trkpt>
      <trkpt lat="46.99061" lon="8.65224">
        <ele>576</ele>
        <time>2021-08-05T09:36:18.449Z</time>
      </trkpt>
      <trkpt lat="46.99061" lon="8.65226">
        <ele>576</ele>
        <time>2021-08-05T09:36:19.448Z</time>
      </trkpt>
      <trkpt lat="46.99061" lon="8.65227">
        <ele>575</ele>
        <time>2021-08-05T09:36:20.449Z</time>
      </trkpt>
      <trkpt lat="46.99061" lon="8.65229">
        <ele>574</ele>
        <time>2021-08-05T09:36:21.449Z</time>
      </trkpt>
      <trkpt lat="46.99061" lon="8.6523">
        <ele>574</ele>
        <time>2021-08-05T09:36:22.449Z</time>
      </trkpt>
      <trkpt lat="46.99061" lon="8.65232">
        <ele>573</ele>
        <time>2021-08-05T09:36:23.449Z</time>
      </trkpt>
      <trkpt lat="46.99062" lon="8.65233">
        <ele>572</ele>
        <time>2021-08-05T09:36:24.449Z</time>
      </trkpt>
      <trkpt lat="46.99062" lon="8.65235">
        <ele>572</ele>
        <time>2021-08-05T09:36:25.449Z</time>
      </trkpt>
      <trkpt lat="46.99062" lon="8.65236">
        <ele>571</ele>
        <time>2021-08-05T09:36:26.448Z</time>
      </trkpt>
      <trkpt lat="46.99063" lon="8.65237">
        <ele>570</ele>
        <time>2021-08-05T09:36:27.449Z</time>
      </trkpt>
      <trkpt lat="46.99063" lon="8.65239">
        <ele>570</ele>
        <time>2021-08-05T09:36:28.448Z</time>
      </trkpt>
      <trkpt lat="46.99063" lon="8.65241">
        <ele>570</ele>
        <time>2021-08-05T09:36:29.449Z</time>
      </trkpt>
      <trkpt lat="46.99064" lon="8.65242">
        <ele>570</ele>
        <time>2021-08-05T09:36:30.448Z</time>
      </trkpt>
      <trkpt lat="46.99065" lon="8.65244">
        <ele>570</ele>
        <time>2021-08-05T09:36:31.449Z</time>
      </trkpt>
      <trkpt lat="46.99066" lon="8.65246">
        <ele>570</ele>
        <time>2021-08-05T09:36:32.449Z</time>
      </trkpt>
      <trkpt lat="46.99067" lon="8.65248">
        <ele>570</ele>
        <time>2021-08-05T09:36:33.448Z</time>
      </trkpt>
      <trkpt lat="46.99068" lon="8.6525">
        <ele>570</ele>
        <time>2021-08-05T09:36:34.449Z</time>
      </trkpt>
      <trkpt lat="46.99069" lon="8.65252">
        <ele>571</ele>
        <time>2021-08-05T09:36:35.448Z</time>
      </trkpt>
      <trkpt lat="46.99069" lon="8.65253">
        <ele>571</ele>
        <time>2021-08-05T09:36:36.449Z</time>
      </trkpt>
      <trkpt lat="46.99069" lon="8.65255">
        <ele>572</ele>
        <time>2021-08-05T09:36:37.449Z</time>
      </trkpt>
      <trkpt lat="46.9907" lon="8.65257">
        <ele>572</ele>
        <time>2021-08-05T09:36:38.448Z</time>
      </trkpt>
      <trkpt lat="46.9907" lon="8.65258">
        <ele>572</ele>
        <time>2021-08-05T09:36:39.449Z</time>
      </trkpt>
      <trkpt lat="46.9907" lon="8.6526">
        <ele>573</ele>
        <time>2021-08-05T09:36:40.449Z</time>
      </trkpt>
      <trkpt lat="46.9907" lon="8.65261">
        <ele>573</ele>
        <time>2021-08-05T09:36:41.449Z</time>
      </trkpt>
      <trkpt lat="46.9907" lon="8.65263">
        <ele>574</ele>
        <time>2021-08-05T09:36:42.449Z</time>
      </trkpt>
      <trkpt lat="46.99069" lon="8.65266">
        <ele>574</ele>
        <time>2021-08-05T09:36:43.448Z</time>
      </trkpt>
      <trkpt lat="46.99069" lon="8.65268">
        <ele>573</ele>
        <time>2021-08-05T09:36:44.448Z</time>
      </trkpt>
      <trkpt lat="46.99068" lon="8.65271">
        <ele>573</ele>
        <time>2021-08-05T09:36:45.449Z</time>
      </trkpt>
      <trkpt lat="46.99067" lon="8.65273">
        <ele>572</ele>
        <time>2021-08-05T09:36:46.449Z</time>
      </trkpt>
      <trkpt lat="46.99066" lon="8.65275">
        <ele>572</ele>
        <time>2021-08-05T09:36:47.449Z</time>
      </trkpt>
      <trkpt lat="46.99066" lon="8.65276">
        <ele>572</ele>
        <time>2021-08-05T09:36:48.449Z</time>
      </trkpt>
      <trkpt lat="46.99065" lon="8.65277">
        <ele>571</ele>
        <time>2021-08-05T09:36:49.448Z</time>
      </trkpt>
      <trkpt lat="46.99065" lon="8.65279">
        <ele>571</ele>
        <time>2021-08-05T09:36:50.448Z</time>
      </trkpt>
      <trkpt lat="46.99066" lon="8.6528">
        <ele>570</ele>
        <time>2021-08-05T09:36:51.448Z</time>
      </trkpt>
      <trkpt lat="46.99066" lon="8.65282">
        <ele>569</ele>
        <time>2021-08-05T09:36:52.449Z</time>
      </trkpt>
      <trkpt lat="46.99066" lon="8.65283">
        <ele>568</ele>
        <time>2021-08-05T09:36:53.449Z</time>
      </trkpt>
      <trkpt lat="46.99066" lon="8.65285">
        <ele>568</ele>
        <time>2021-08-05T09:36:54.448Z</time>
      </trkpt>
      <trkpt lat="46.99066" lon="8.65287">
        <ele>567</ele>
        <time>2021-08-05T09:36:55.449Z</time>
      </trkpt>
      <trkpt lat="46.99066" lon="8.65289">
        <ele>566</ele>
        <time>2021-08-05T09:36:56.449Z</time>
      </trkpt>
      <trkpt lat="46.99066" lon="8.6529">
        <ele>565</ele>
        <time>2021-08-05T09:36:57.448Z</time>
      </trkpt>
      <trkpt lat="46.99066" lon="8.65291">
        <ele>564</ele>
        <time>2021-08-05T09:36:58.449Z</time>
      </trkpt>
      <trkpt lat="46.99066" lon="8.65293">
        <ele>563</ele>
        <time>2021-08-05T09:36:59.449Z</time>
      </trkpt>
      <trkpt lat="46.99066" lon="8.65294">
        <ele>562</ele>
        <time>2021-08-05T09:37:00.448Z</time>
      </trkpt>
      <trkpt lat="46.99066" lon="8.65296">
        <ele>561</ele>
        <time>2021-08-05T09:37:01.449Z</time>
      </trkpt>
      <trkpt lat="46.99066" lon="8.65298">
        <ele>560</ele>
        <time>2021-08-05T09:37:02.449Z</time>
      </trkpt>
      <trkpt lat="46.99067" lon="8.653">
        <ele>560</ele>
        <time>2021-08-05T09:37:03.449Z</time>
      </trkpt>
      <trkpt lat="46.99067" lon="8.65301">
        <ele>560</ele>
        <time>2021-08-05T09:37:04.449Z</time>
      </trkpt>
      <trkpt lat="46.99067" lon="8.65302">
        <ele>560</ele>
        <time>2021-08-05T09:37:05.449Z</time>
      </trkpt>
      <trkpt lat="46.99067" lon="8.65304">
        <ele>559</ele>
        <time>2021-08-05T09:37:06.449Z</time>
      </trkpt>
      <trkpt lat="46.99067" lon="8.65305">
        <ele>559</ele>
        <time>2021-08-05T09:37:07.449Z</time>
      </trkpt>
      <trkpt lat="46.99068" lon="8.65307">
        <ele>559</ele>
        <time>2021-08-05T09:37:08.449Z</time>
      </trkpt>
      <trkpt lat="46.99068" lon="8.65309">
        <ele>558</ele>
        <time>2021-08-05T09:37:09.448Z</time>
      </trkpt>
      <trkpt lat="46.99068" lon="8.65311">
        <ele>558</ele>
        <time>2021-08-05T09:37:10.448Z</time>
      </trkpt>
      <trkpt lat="46.99068" lon="8.65313">
        <ele>557</ele>
        <time>2021-08-05T09:37:11.449Z</time>
      </trkpt>
      <trkpt lat="46.99067" lon="8.65315">
        <ele>557</ele>
        <time>2021-08-05T09:37:12.449Z</time>
      </trkpt>
      <trkpt lat="46.99067" lon="8.65317">
        <ele>556</ele>
        <time>2021-08-05T09:37:13.448Z</time>
      </trkpt>
      <trkpt lat="46.99067" lon="8.65318">
        <ele>556</ele>
        <time>2021-08-05T09:37:14.449Z</time>
      </trkpt>
      <trkpt lat="46.99068" lon="8.6532">
        <ele>556</ele>
        <time>2021-08-05T09:37:15.449Z</time>
      </trkpt>
      <trkpt lat="46.99068" lon="8.65322">
        <ele>556</ele>
        <time>2021-08-05T09:37:16.448Z</time>
      </trkpt>
      <trkpt lat="46.99069" lon="8.65323">
        <ele>556</ele>
        <time>2021-08-05T09:37:17.449Z</time>
      </trkpt>
      <trkpt lat="46.9907" lon="8.65325">
        <ele>556</ele>
        <time>2021-08-05T09:37:18.448Z</time>
      </trkpt>
      <trkpt lat="46.99071" lon="8.65326">
        <ele>556</ele>
        <time>2021-08-05T09:37:19.449Z</time>
      </trkpt>
      <trkpt lat="46.99071" lon="8.65328">
        <ele>556</ele>
        <time>2021-08-05T09:37:20.449Z</time>
      </trkpt>
      <trkpt lat="46.99073" lon="8.6533">
        <ele>556</ele>
        <time>2021-08-05T09:37:21.449Z</time>
      </trkpt>
      <trkpt lat="46.99073" lon="8.65332">
        <ele>556</ele>
        <time>2021-08-05T09:37:22.449Z</time>
      </trkpt>
      <trkpt lat="46.99072" lon="8.65335">
        <ele>556</ele>
        <time>2021-08-05T09:37:23.449Z</time>
      </trkpt>
      <trkpt lat="46.99072" lon="8.65337">
        <ele>557</ele>
        <time>2021-08-05T09:37:24.448Z</time>
      </trkpt>
      <trkpt lat="46.99071" lon="8.65338">
        <ele>557</ele>
        <time>2021-08-05T09:37:25.449Z</time>
      </trkpt>
      <trkpt lat="46.99072" lon="8.6534">
        <ele>557</ele>
        <time>2021-08-05T09:37:26.448Z</time>
      </trkpt>
      <trkpt lat="46.99071" lon="8.65341">
        <ele>557</ele>
        <time>2021-08-05T09:37:27.448Z</time>
      </trkpt>
      <trkpt lat="46.99071" lon="8.65343">
        <ele>556</ele>
        <time>2021-08-05T09:37:28.448Z</time>
      </trkpt>
      <trkpt lat="46.9907" lon="8.65344">
        <ele>556</ele>
        <time>2021-08-05T09:37:29.448Z</time>
      </trkpt>
      <trkpt lat="46.9907" lon="8.65345">
        <ele>556</ele>
        <time>2021-08-05T09:37:30.448Z</time>
      </trkpt>
      <trkpt lat="46.9907" lon="8.65347">
        <ele>556</ele>
        <time>2021-08-05T09:37:31.448Z</time>
      </trkpt>
      <trkpt lat="46.9907" lon="8.65349">
        <ele>557</ele>
        <time>2021-08-05T09:37:32.448Z</time>
      </trkpt>
      <trkpt lat="46.9907" lon="8.6535">
        <ele>557</ele>
        <time>2021-08-05T09:37:33.448Z</time>
      </trkpt>
      <trkpt lat="46.99069" lon="8.65352">
        <ele>556</ele>
        <time>2021-08-05T09:37:34.448Z</time>
      </trkpt>
      <trkpt lat="46.99069" lon="8.65353">
        <ele>556</ele>
        <time>2021-08-05T09:37:35.448Z</time>
      </trkpt>
      <trkpt lat="46.99069" lon="8.65355">
        <ele>556</ele>
        <time>2021-08-05T09:37:36.448Z</time>
      </trkpt>
      <trkpt lat="46.99069" lon="8.65356">
        <ele>555</ele>
        <time>2021-08-05T09:37:37.448Z</time>
      </trkpt>
      <trkpt lat="46.99069" lon="8.65358">
        <ele>555</ele>
        <time>2021-08-05T09:37:38.448Z</time>
      </trkpt>
      <trkpt lat="46.99069" lon="8.6536">
        <ele>554</ele>
        <time>2021-08-05T09:37:39.448Z</time>
      </trkpt>
      <trkpt lat="46.99068" lon="8.65361">
        <ele>554</ele>
        <time>2021-08-05T09:37:40.448Z</time>
      </trkpt>
      <trkpt lat="46.99068" lon="8.65363">
        <ele>553</ele>
        <time>2021-08-05T09:37:41.449Z</time>
      </trkpt>
      <trkpt lat="46.99067" lon="8.65364">
        <ele>553</ele>
        <time>2021-08-05T09:37:42.448Z</time>
      </trkpt>
      <trkpt lat="46.99067" lon="8.65365">
        <ele>553</ele>
        <time>2021-08-05T09:37:43.448Z</time>
      </trkpt>
      <trkpt lat="46.99066" lon="8.65366">
        <ele>552</ele>
        <time>2021-08-05T09:37:44.448Z</time>
      </trkpt>
      <trkpt lat="46.99066" lon="8.65367">
        <ele>552</ele>
        <time>2021-08-05T09:37:45.448Z</time>
      </trkpt>
      <trkpt lat="46.99065" lon="8.65369">
        <ele>552</ele>
        <time>2021-08-05T09:37:46.448Z</time>
      </trkpt>
      <trkpt lat="46.99065" lon="8.65371">
        <ele>551</ele>
        <time>2021-08-05T09:37:47.448Z</time>
      </trkpt>
      <trkpt lat="46.99064" lon="8.65373">
        <ele>551</ele>
        <time>2021-08-05T09:37:48.448Z</time>
      </trkpt>
      <trkpt lat="46.99064" lon="8.65374">
        <ele>550</ele>
        <time>2021-08-05T09:37:49.449Z</time>
      </trkpt>
      <trkpt lat="46.99063" lon="8.65376">
        <ele>550</ele>
        <time>2021-08-05T09:37:50.448Z</time>
      </trkpt>
      <trkpt lat="46.99062" lon="8.65378">
        <ele>550</ele>
        <time>2021-08-05T09:37:51.448Z</time>
      </trkpt>
      <trkpt lat="46.99062" lon="8.65379">
        <ele>549</ele>
        <time>2021-08-05T09:37:52.448Z</time>
      </trkpt>
      <trkpt lat="46.99062" lon="8.65379">
        <ele>549</ele>
        <time>2021-08-05T09:37:53.448Z</time>
      </trkpt>
      <trkpt lat="46.99062" lon="8.6538">
        <ele>548</ele>
        <time>2021-08-05T09:37:54.449Z</time>
      </trkpt>
      <trkpt lat="46.99061" lon="8.65381">
        <ele>548</ele>
        <time>2021-08-05T09:37:55.448Z</time>
      </trkpt>
      <trkpt lat="46.9906" lon="8.65383">
        <ele>548</ele>
        <time>2021-08-05T09:37:56.448Z</time>
      </trkpt>
      <trkpt lat="46.9906" lon="8.65384">
        <ele>548</ele>
        <time>2021-08-05T09:37:57.449Z</time>
      </trkpt>
      <trkpt lat="46.99059" lon="8.65386">
        <ele>548</ele>
        <time>2021-08-05T09:37:58.449Z</time>
      </trkpt>
      <trkpt lat="46.9906" lon="8.65387">
        <ele>548</ele>
        <time>2021-08-05T09:37:59.449Z</time>
      </trkpt>
      <trkpt lat="46.9906" lon="8.65388">
        <ele>548</ele>
        <time>2021-08-05T09:38:00.449Z</time>
      </trkpt>
      <trkpt lat="46.99059" lon="8.65389">
        <ele>548</ele>
        <time>2021-08-05T09:38:01.449Z</time>
      </trkpt>
      <trkpt lat="46.99059" lon="8.6539">
        <ele>548</ele>
        <time>2021-08-05T09:38:02.449Z</time>
      </trkpt>
      <trkpt lat="46.99059" lon="8.65391">
        <ele>549</ele>
        <time>2021-08-05T09:38:03.448Z</time>
      </trkpt>
      <trkpt lat="46.99059" lon="8.65391">
        <ele>549</ele>
        <time>2021-08-05T09:38:04.448Z</time>
      </trkpt>
      <trkpt lat="46.9906" lon="8.65392">
        <ele>550</ele>
        <time>2021-08-05T09:38:05.449Z</time>
      </trkpt>
      <trkpt lat="46.99059" lon="8.65392">
        <ele>551</ele>
        <time>2021-08-05T09:38:06.449Z</time>
      </trkpt>
      <trkpt lat="46.99058" lon="8.65393">
        <ele>552</ele>
        <time>2021-08-05T09:38:07.449Z</time>
      </trkpt>
      <trkpt lat="46.99057" lon="8.65394">
        <ele>553</ele>
        <time>2021-08-05T09:38:08.448Z</time>
      </trkpt>
      <trkpt lat="46.99057" lon="8.65396">
        <ele>554</ele>
        <time>2021-08-05T09:38:09.449Z</time>
      </trkpt>
      <trkpt lat="46.99057" lon="8.65397">
        <ele>555</ele>
        <time>2021-08-05T09:38:10.449Z</time>
      </trkpt>
      <trkpt lat="46.99057" lon="8.65399">
        <ele>556</ele>
        <time>2021-08-05T09:38:11.449Z</time>
      </trkpt>
      <trkpt lat="46.99056" lon="8.654">
        <ele>556</ele>
        <time>2021-08-05T09:38:12.449Z</time>
      </trkpt>
      <trkpt lat="46.99055" lon="8.65401">
        <ele>557</ele>
        <time>2021-08-05T09:38:13.448Z</time>
      </trkpt>
      <trkpt lat="46.99055" lon="8.65403">
        <ele>557</ele>
        <time>2021-08-05T09:38:14.449Z</time>
      </trkpt>
      <trkpt lat="46.99055" lon="8.65403">
        <ele>558</ele>
        <time>2021-08-05T09:38:15.448Z</time>
      </trkpt>
      <trkpt lat="46.99055" lon="8.65405">
        <ele>558</ele>
        <time>2021-08-05T09:38:16.449Z</time>
      </trkpt>
      <trkpt lat="46.99053" lon="8.65406">
        <ele>558</ele>
        <time>2021-08-05T09:38:17.449Z</time>
      </trkpt>
      <trkpt lat="46.99053" lon="8.65407">
        <ele>559</ele>
        <time>2021-08-05T09:38:18.448Z</time>
      </trkpt>
      <trkpt lat="46.99052" lon="8.65408">
        <ele>559</ele>
        <time>2021-08-05T09:38:19.449Z</time>
      </trkpt>
      <trkpt lat="46.9905" lon="8.6541">
        <ele>559</ele>
        <time>2021-08-05T09:38:20.448Z</time>
      </trkpt>
      <trkpt lat="46.99049" lon="8.65411">
        <ele>560</ele>
        <time>2021-08-05T09:38:21.448Z</time>
      </trkpt>
      <trkpt lat="46.99047" lon="8.65412">
        <ele>560</ele>
        <time>2021-08-05T09:38:22.449Z</time>
      </trkpt>
      <trkpt lat="46.99045" lon="8.65413">
        <ele>560</ele>
        <time>2021-08-05T09:38:23.449Z</time>
      </trkpt>
      <trkpt lat="46.99045" lon="8.65415">
        <ele>561</ele>
        <time>2021-08-05T09:38:24.449Z</time>
      </trkpt>
      <trkpt lat="46.99045" lon="8.65415">
        <ele>561</ele>
        <time>2021-08-05T09:38:25.449Z</time>
      </trkpt>
      <trkpt lat="46.99045" lon="8.65416">
        <ele>561</ele>
        <time>2021-08-05T09:38:26.448Z</time>
      </trkpt>
      <trkpt lat="46.99044" lon="8.65417">
        <ele>562</ele>
        <time>2021-08-05T09:38:27.449Z</time>
      </trkpt>
      <trkpt lat="46.99044" lon="8.65418">
        <ele>562</ele>
        <time>2021-08-05T09:38:28.449Z</time>
      </trkpt>
      <trkpt lat="46.99043" lon="8.65419">
        <ele>562</ele>
        <time>2021-08-05T09:38:29.449Z</time>
      </trkpt>
      <trkpt lat="46.99043" lon="8.6542">
        <ele>562</ele>
        <time>2021-08-05T09:38:30.448Z</time>
      </trkpt>
      <trkpt lat="46.99042" lon="8.65421">
        <ele>562</ele>
        <time>2021-08-05T09:38:31.449Z</time>
      </trkpt>
      <trkpt lat="46.99043" lon="8.65422">
        <ele>562</ele>
        <time>2021-08-05T09:38:32.449Z</time>
      </trkpt>
      <trkpt lat="46.99043" lon="8.65423">
        <ele>562</ele>
        <time>2021-08-05T09:38:33.449Z</time>
      </trkpt>
      <trkpt lat="46.99043" lon="8.65424">
        <ele>562</ele>
        <time>2021-08-05T09:38:34.449Z</time>
      </trkpt>
      <trkpt lat="46.99043" lon="8.65426">
        <ele>561</ele>
        <time>2021-08-05T09:38:35.448Z</time>
      </trkpt>
      <trkpt lat="46.99043" lon="8.65428">
        <ele>561</ele>
        <time>2021-08-05T09:38:36.449Z</time>
      </trkpt>
      <trkpt lat="46.99045" lon="8.65429">
        <ele>561</ele>
        <time>2021-08-05T09:38:37.449Z</time>
      </trkpt>
      <trkpt lat="46.99047" lon="8.6543">
        <ele>561</ele>
        <time>2021-08-05T09:38:38.449Z</time>
      </trkpt>
      <trkpt lat="46.99048" lon="8.65431">
        <ele>561</ele>
        <time>2021-08-05T09:38:39.449Z</time>
      </trkpt>
      <trkpt lat="46.99049" lon="8.65431">
        <ele>561</ele>
        <time>2021-08-05T09:38:40.449Z</time>
      </trkpt>
      <trkpt lat="46.9905" lon="8.65432">
        <ele>561</ele>
        <time>2021-08-05T09:38:41.449Z</time>
      </trkpt>
      <trkpt lat="46.99051" lon="8.65432">
        <ele>561</ele>
        <time>2021-08-05T09:38:42.449Z</time>
      </trkpt>
      <trkpt lat="46.99052" lon="8.65432">
        <ele>561</ele>
        <time>2021-08-05T09:38:43.449Z</time>
      </trkpt>
      <trkpt lat="46.99052" lon="8.65433">
        <ele>561</ele>
        <time>2021-08-05T09:38:44.449Z</time>
      </trkpt>
      <trkpt lat="46.99053" lon="8.65433">
        <ele>561</ele>
        <time>2021-08-05T09:38:45.448Z</time>
      </trkpt>
      <trkpt lat="46.99053" lon="8.65433">
        <ele>561</ele>
        <time>2021-08-05T09:38:46.449Z</time>
      </trkpt>
      <trkpt lat="46.99053" lon="8.65433">
        <ele>561</ele>
        <time>2021-08-05T09:38:47.448Z</time>
      </trkpt>
      <trkpt lat="46.99052" lon="8.65433">
        <ele>561</ele>
        <time>2021-08-05T09:38:48.449Z</time>
      </trkpt>
      <trkpt lat="46.99052" lon="8.65433">
        <ele>561</ele>
        <time>2021-08-05T09:38:49.448Z</time>
      </trkpt>
      <trkpt lat="46.99053" lon="8.65434">
        <ele>561</ele>
        <time>2021-08-05T09:38:50.448Z</time>
      </trkpt>
      <trkpt lat="46.99053" lon="8.65435">
        <ele>561</ele>
        <time>2021-08-05T09:38:51.449Z</time>
      </trkpt>
      <trkpt lat="46.99054" lon="8.65436">
        <ele>561</ele>
        <time>2021-08-05T09:38:52.448Z</time>
      </trkpt>
      <trkpt lat="46.99055" lon="8.65438">
        <ele>561</ele>
        <time>2021-08-05T09:38:53.448Z</time>
      </trkpt>
      <trkpt lat="46.99055" lon="8.65439">
        <ele>562</ele>
        <time>2021-08-05T09:38:54.449Z</time>
      </trkpt>
      <trkpt lat="46.99056" lon="8.6544">
        <ele>562</ele>
        <time>2021-08-05T09:38:55.449Z</time>
      </trkpt>
      <trkpt lat="46.99057" lon="8.65441">
        <ele>562</ele>
        <time>2021-08-05T09:38:56.448Z</time>
      </trkpt>
      <trkpt lat="46.99059" lon="8.65441">
        <ele>562</ele>
        <time>2021-08-05T09:38:57.449Z</time>
      </trkpt>
      <trkpt lat="46.9906" lon="8.65441">
        <ele>561</ele>
        <time>2021-08-05T09:38:58.448Z</time>
      </trkpt>
      <trkpt lat="46.99061" lon="8.65442">
        <ele>561</ele>
        <time>2021-08-05T09:38:59.449Z</time>
      </trkpt>
      <trkpt lat="46.99062" lon="8.65443">
        <ele>561</ele>
        <time>2021-08-05T09:39:00.448Z</time>
      </trkpt>
      <trkpt lat="46.99063" lon="8.65444">
        <ele>561</ele>
        <time>2021-08-05T09:39:01.449Z</time>
      </trkpt>
      <trkpt lat="46.99065" lon="8.65445">
        <ele>561</ele>
        <time>2021-08-05T09:39:02.448Z</time>
      </trkpt>
      <trkpt lat="46.99066" lon="8.65446">
        <ele>561</ele>
        <time>2021-08-05T09:39:03.449Z</time>
      </trkpt>
      <trkpt lat="46.99066" lon="8.65448">
        <ele>561</ele>
        <time>2021-08-05T09:39:04.449Z</time>
      </trkpt>
      <trkpt lat="46.99066" lon="8.6545">
        <ele>561</ele>
        <time>2021-08-05T09:39:05.449Z</time>
      </trkpt>
      <trkpt lat="46.99066" lon="8.65452">
        <ele>560</ele>
        <time>2021-08-05T09:39:06.448Z</time>
      </trkpt>
      <trkpt lat="46.99066" lon="8.65454">
        <ele>560</ele>
        <time>2021-08-05T09:39:07.448Z</time>
      </trkpt>
      <trkpt lat="46.99065" lon="8.65456">
        <ele>560</ele>
        <time>2021-08-05T09:39:08.449Z</time>
      </trkpt>
      <trkpt lat="46.99065" lon="8.65457">
        <ele>559</ele>
        <time>2021-08-05T09:39:09.449Z</time>
      </trkpt>
      <trkpt lat="46.99065" lon="8.65459">
        <ele>558</ele>
        <time>2021-08-05T09:39:10.449Z</time>
      </trkpt>
      <trkpt lat="46.99065" lon="8.6546">
        <ele>558</ele>
        <time>2021-08-05T09:39:11.449Z</time>
      </trkpt>
      <trkpt lat="46.99066" lon="8.65462">
        <ele>557</ele>
        <time>2021-08-05T09:39:12.449Z</time>
      </trkpt>
      <trkpt lat="46.99066" lon="8.65463">
        <ele>557</ele>
        <time>2021-08-05T09:39:13.448Z</time>
      </trkpt>
      <trkpt lat="46.99067" lon="8.65464">
        <ele>556</ele>
        <time>2021-08-05T09:39:14.449Z</time>
      </trkpt>
      <trkpt lat="46.99068" lon="8.65466">
        <ele>556</ele>
        <time>2021-08-05T09:39:15.449Z</time>
      </trkpt>
      <trkpt lat="46.99069" lon="8.65467">
        <ele>555</ele>
        <time>2021-08-05T09:39:16.449Z</time>
      </trkpt>
      <trkpt lat="46.99069" lon="8.65469">
        <ele>554</ele>
        <time>2021-08-05T09:39:17.448Z</time>
      </trkpt>
      <trkpt lat="46.99069" lon="8.6547">
        <ele>554</ele>
        <time>2021-08-05T09:39:18.449Z</time>
      </trkpt>
      <trkpt lat="46.99069" lon="8.65472">
        <ele>553</ele>
        <time>2021-08-05T09:39:19.449Z</time>
      </trkpt>
      <trkpt lat="46.99069" lon="8.65474">
        <ele>552</ele>
        <time>2021-08-05T09:39:20.448Z</time>
      </trkpt>
      <trkpt lat="46.99069" lon="8.65475">
        <ele>551</ele>
        <time>2021-08-05T09:39:21.449Z</time>
      </trkpt>
      <trkpt lat="46.99068" lon="8.65478">
        <ele>551</ele>
        <time>2021-08-05T09:39:22.449Z</time>
      </trkpt>
      <trkpt lat="46.99067" lon="8.65479">
        <ele>550</ele>
        <time>2021-08-05T09:39:23.449Z</time>
      </trkpt>
      <trkpt lat="46.99067" lon="8.65481">
        <ele>550</ele>
        <time>2021-08-05T09:39:24.448Z</time>
      </trkpt>
      <trkpt lat="46.99068" lon="8.65483">
        <ele>550</ele>
        <time>2021-08-05T09:39:25.448Z</time>
      </trkpt>
      <trkpt lat="46.99068" lon="8.65484">
        <ele>550</ele>
        <time>2021-08-05T09:39:26.449Z</time>
      </trkpt>
      <trkpt lat="46.99069" lon="8.65487">
        <ele>549</ele>
        <time>2021-08-05T09:39:27.449Z</time>
      </trkpt>
      <trkpt lat="46.9907" lon="8.65489">
        <ele>549</ele>
        <time>2021-08-05T09:39:28.448Z</time>
      </trkpt>
      <trkpt lat="46.9907" lon="8.65492">
        <ele>549</ele>
        <time>2021-08-05T09:39:29.449Z</time>
      </trkpt>
      <trkpt lat="46.99071" lon="8.65494">
        <ele>549</ele>
        <time>2021-08-05T09:39:30.448Z</time>
      </trkpt>
      <trkpt lat="46.99071" lon="8.65496">
        <ele>549</ele>
        <time>2021-08-05T09:39:31.449Z</time>
      </trkpt>
      <trkpt lat="46.99071" lon="8.65497">
        <ele>549</ele>
        <time>2021-08-05T09:39:32.449Z</time>
      </trkpt>
      <trkpt lat="46.99072" lon="8.65499">
        <ele>549</ele>
        <time>2021-08-05T09:39:33.448Z</time>
      </trkpt>
      <trkpt lat="46.99072" lon="8.65501">
        <ele>549</ele>
        <time>2021-08-05T09:39:34.449Z</time>
      </trkpt>
      <trkpt lat="46.99072" lon="8.65503">
        <ele>549</ele>
        <time>2021-08-05T09:39:35.449Z</time>
      </trkpt>
      <trkpt lat="46.99072" lon="8.65505">
        <ele>549</ele>
        <time>2021-08-05T09:39:36.449Z</time>
      </trkpt>
      <trkpt lat="46.99072" lon="8.65507">
        <ele>549</ele>
        <time>2021-08-05T09:39:37.449Z</time>
      </trkpt>
      <trkpt lat="46.99072" lon="8.6551">
        <ele>549</ele>
        <time>2021-08-05T09:39:38.448Z</time>
      </trkpt>
      <trkpt lat="46.99071" lon="8.65513">
        <ele>549</ele>
        <time>2021-08-05T09:39:39.449Z</time>
      </trkpt>
      <trkpt lat="46.9907" lon="8.65515">
        <ele>549</ele>
        <time>2021-08-05T09:39:40.448Z</time>
      </trkpt>
      <trkpt lat="46.99071" lon="8.65517">
        <ele>549</ele>
        <time>2021-08-05T09:39:41.448Z</time>
      </trkpt>
      <trkpt lat="46.99071" lon="8.65519">
        <ele>549</ele>
        <time>2021-08-05T09:39:42.449Z</time>
      </trkpt>
      <trkpt lat="46.99071" lon="8.65521">
        <ele>549</ele>
        <time>2021-08-05T09:39:43.449Z</time>
      </trkpt>
      <trkpt lat="46.99071" lon="8.65522">
        <ele>549</ele>
        <time>2021-08-05T09:39:44.449Z</time>
      </trkpt>
      <trkpt lat="46.99072" lon="8.65524">
        <ele>550</ele>
        <time>2021-08-05T09:39:45.449Z</time>
      </trkpt>
      <trkpt lat="46.99073" lon="8.65526">
        <ele>550</ele>
        <time>2021-08-05T09:39:46.449Z</time>
      </trkpt>
      <trkpt lat="46.99073" lon="8.65528">
        <ele>550</ele>
        <time>2021-08-05T09:39:47.449Z</time>
      </trkpt>
      <trkpt lat="46.99073" lon="8.6553">
        <ele>551</ele>
        <time>2021-08-05T09:39:48.448Z</time>
      </trkpt>
      <trkpt lat="46.99072" lon="8.65532">
        <ele>551</ele>
        <time>2021-08-05T09:39:49.449Z</time>
      </trkpt>
      <trkpt lat="46.99072" lon="8.65535">
        <ele>551</ele>
        <time>2021-08-05T09:39:50.448Z</time>
      </trkpt>
      <trkpt lat="46.99073" lon="8.65537">
        <ele>552</ele>
        <time>2021-08-05T09:39:51.449Z</time>
      </trkpt>
      <trkpt lat="46.99073" lon="8.65539">
        <ele>552</ele>
        <time>2021-08-05T09:39:52.448Z</time>
      </trkpt>
      <trkpt lat="46.99073" lon="8.65541">
        <ele>552</ele>
        <time>2021-08-05T09:39:53.448Z</time>
      </trkpt>
      <trkpt lat="46.99074" lon="8.65543">
        <ele>552</ele>
        <time>2021-08-05T09:39:54.449Z</time>
      </trkpt>
      <trkpt lat="46.99075" lon="8.65545">
        <ele>552</ele>
        <time>2021-08-05T09:39:55.449Z</time>
      </trkpt>
      <trkpt lat="46.99076" lon="8.65547">
        <ele>553</ele>
        <time>2021-08-05T09:39:56.449Z</time>
      </trkpt>
      <trkpt lat="46.99075" lon="8.65548">
        <ele>553</ele>
        <time>2021-08-05T09:39:57.449Z</time>
      </trkpt>
      <trkpt lat="46.99074" lon="8.6555">
        <ele>553</ele>
        <time>2021-08-05T09:39:58.449Z</time>
      </trkpt>
      <trkpt lat="46.99073" lon="8.65552">
        <ele>552</ele>
        <time>2021-08-05T09:39:59.449Z</time>
      </trkpt>
      <trkpt lat="46.99073" lon="8.65554">
        <ele>552</ele>
        <time>2021-08-05T09:40:00.448Z</time>
      </trkpt>
      <trkpt lat="46.99072" lon="8.65556">
        <ele>552</ele>
        <time>2021-08-05T09:40:01.449Z</time>
      </trkpt>
      <trkpt lat="46.99071" lon="8.65558">
        <ele>551</ele>
        <time>2021-08-05T09:40:02.448Z</time>
      </trkpt>
      <trkpt lat="46.99071" lon="8.6556">
        <ele>551</ele>
        <time>2021-08-05T09:40:03.449Z</time>
      </trkpt>
      <trkpt lat="46.99071" lon="8.65561">
        <ele>551</ele>
        <time>2021-08-05T09:40:04.449Z</time>
      </trkpt>
      <trkpt lat="46.99071" lon="8.65561">
        <ele>551</ele>
        <time>2021-08-05T09:40:05.449Z</time>
      </trkpt>
      <trkpt lat="46.99071" lon="8.65563">
        <ele>551</ele>
        <time>2021-08-05T09:40:06.449Z</time>
      </trkpt>
      <trkpt lat="46.9907" lon="8.65564">
        <ele>551</ele>
        <time>2021-08-05T09:40:07.448Z</time>
      </trkpt>
      <trkpt lat="46.9907" lon="8.65565">
        <ele>550</ele>
        <time>2021-08-05T09:40:08.449Z</time>
      </trkpt>
      <trkpt lat="46.9907" lon="8.65567">
        <ele>550</ele>
        <time>2021-08-05T09:40:09.448Z</time>
      </trkpt>
      <trkpt lat="46.9907" lon="8.65568">
        <ele>550</ele>
        <time>2021-08-05T09:40:10.449Z</time>
      </trkpt>
      <trkpt lat="46.99069" lon="8.65569">
        <ele>549</ele>
        <time>2021-08-05T09:40:11.448Z</time>
      </trkpt>
      <trkpt lat="46.99069" lon="8.65569">
        <ele>549</ele>
        <time>2021-08-05T09:40:12.449Z</time>
      </trkpt>
      <trkpt lat="46.99069" lon="8.65569">
        <ele>549</ele>
        <time>2021-08-05T09:40:13.448Z</time>
      </trkpt>
      <trkpt lat="46.99068" lon="8.6557">
        <ele>550</ele>
        <time>2021-08-05T09:40:14.449Z</time>
      </trkpt>
      <trkpt lat="46.99068" lon="8.6557">
        <ele>550</ele>
        <time>2021-08-05T09:40:15.449Z</time>
      </trkpt>
      <trkpt lat="46.99068" lon="8.65571">
        <ele>550</ele>
        <time>2021-08-05T09:40:16.448Z</time>
      </trkpt>
      <trkpt lat="46.99067" lon="8.65572">
        <ele>550</ele>
        <time>2021-08-05T09:40:17.449Z</time>
      </trkpt>
      <trkpt lat="46.99067" lon="8.65573">
        <ele>550</ele>
        <time>2021-08-05T09:40:18.448Z</time>
      </trkpt>
      <trkpt lat="46.99066" lon="8.65574">
        <ele>550</ele>
        <time>2021-08-05T09:40:19.449Z</time>
      </trkpt>
      <trkpt lat="46.99065" lon="8.65575">
        <ele>550</ele>
        <time>2021-08-05T09:40:20.448Z</time>
      </trkpt>
      <trkpt lat="46.99065" lon="8.65575">
        <ele>550</ele>
        <time>2021-08-05T09:40:21.449Z</time>
      </trkpt>
      <trkpt lat="46.99064" lon="8.65575">
        <ele>550</ele>
        <time>2021-08-05T09:40:22.449Z</time>
      </trkpt>
      <trkpt lat="46.99063" lon="8.65576">
        <ele>550</ele>
        <time>2021-08-05T09:40:23.449Z</time>
      </trkpt>
      <trkpt lat="46.99062" lon="8.65576">
        <ele>550</ele>
        <time>2021-08-05T09:40:24.449Z</time>
      </trkpt>
      <trkpt lat="46.99061" lon="8.65577">
        <ele>550</ele>
        <time>2021-08-05T09:40:25.449Z</time>
      </trkpt>
      <trkpt lat="46.99059" lon="8.65577">
        <ele>550</ele>
        <time>2021-08-05T09:40:26.448Z</time>
      </trkpt>
      <trkpt lat="46.99058" lon="8.65577">
        <ele>550</ele>
        <time>2021-08-05T09:40:27.449Z</time>
      </trkpt>
      <trkpt lat="46.99058" lon="8.65578">
        <ele>550</ele>
        <time>2021-08-05T09:40:28.449Z</time>
      </trkpt>
      <trkpt lat="46.99058" lon="8.65578">
        <ele>550</ele>
        <time>2021-08-05T09:40:29.449Z</time>
      </trkpt>
      <trkpt lat="46.99058" lon="8.65577">
        <ele>550</ele>
        <time>2021-08-05T09:40:30.449Z</time>
      </trkpt>
      <trkpt lat="46.99058" lon="8.65576">
        <ele>550</ele>
        <time>2021-08-05T09:40:31.448Z</time>
      </trkpt>
      <trkpt lat="46.99057" lon="8.65576">
        <ele>550</ele>
        <time>2021-08-05T09:40:32.448Z</time>
      </trkpt>
      <trkpt lat="46.99056" lon="8.65576">
        <ele>550</ele>
        <time>2021-08-05T09:40:33.448Z</time>
      </trkpt>
      <trkpt lat="46.99055" lon="8.65578">
        <ele>550</ele>
        <time>2021-08-05T09:40:34.448Z</time>
      </trkpt>
      <trkpt lat="46.99054" lon="8.65578">
        <ele>550</ele>
        <time>2021-08-05T09:40:35.448Z</time>
      </trkpt>
      <trkpt lat="46.99054" lon="8.65579">
        <ele>550</ele>
        <time>2021-08-05T09:40:36.448Z</time>
      </trkpt>
      <trkpt lat="46.99054" lon="8.6558">
        <ele>551</ele>
        <time>2021-08-05T09:40:37.448Z</time>
      </trkpt>
      <trkpt lat="46.99053" lon="8.6558">
        <ele>551</ele>
        <time>2021-08-05T09:40:38.448Z</time>
      </trkpt>
      <trkpt lat="46.99052" lon="8.6558">
        <ele>552</ele>
        <time>2021-08-05T09:40:39.448Z</time>
      </trkpt>
      <trkpt lat="46.99051" lon="8.6558">
        <ele>552</ele>
        <time>2021-08-05T09:40:40.448Z</time>
      </trkpt>
      <trkpt lat="46.9905" lon="8.65581">
        <ele>552</ele>
        <time>2021-08-05T09:40:41.448Z</time>
      </trkpt>
      <trkpt lat="46.99049" lon="8.65581">
        <ele>553</ele>
        <time>2021-08-05T09:40:42.448Z</time>
      </trkpt>
      <trkpt lat="46.99047" lon="8.65581">
        <ele>553</ele>
        <time>2021-08-05T09:40:43.448Z</time>
      </trkpt>
      <trkpt lat="46.99046" lon="8.65582">
        <ele>553</ele>
        <time>2021-08-05T09:40:44.448Z</time>
      </trkpt>
      <trkpt lat="46.99044" lon="8.65583">
        <ele>553</ele>
        <time>2021-08-05T09:40:45.448Z</time>
      </trkpt>
      <trkpt lat="46.99042" lon="8.65583">
        <ele>553</ele>
        <time>2021-08-05T09:40:46.448Z</time>
      </trkpt>
      <trkpt lat="46.99041" lon="8.65583">
        <ele>553</ele>
        <time>2021-08-05T09:40:47.448Z</time>
      </trkpt>
      <trkpt lat="46.9904" lon="8.65584">
        <ele>554</ele>
        <time>2021-08-05T09:40:48.448Z</time>
      </trkpt>
      <trkpt lat="46.99039" lon="8.65585">
        <ele>554</ele>
        <time>2021-08-05T09:40:49.448Z</time>
      </trkpt>
      <trkpt lat="46.99039" lon="8.65585">
        <ele>555</ele>
        <time>2021-08-05T09:40:50.448Z</time>
      </trkpt>
      <trkpt lat="46.99039" lon="8.65586">
        <ele>556</ele>
        <time>2021-08-05T09:40:51.448Z</time>
      </trkpt>
      <trkpt lat="46.99039" lon="8.65587">
        <ele>557</ele>
        <time>2021-08-05T09:40:52.448Z</time>
      </trkpt>
      <trkpt lat="46.99038" lon="8.65587">
        <ele>558</ele>
        <time>2021-08-05T09:40:53.448Z</time>
      </trkpt>
      <trkpt lat="46.99037" lon="8.65588">
        <ele>558</ele>
        <time>2021-08-05T09:40:54.448Z</time>
      </trkpt>
      <trkpt lat="46.99036" lon="8.65588">
        <ele>559</ele>
        <time>2021-08-05T09:40:55.448Z</time>
      </trkpt>
      <trkpt lat="46.99035" lon="8.65589">
        <ele>560</ele>
        <time>2021-08-05T09:40:56.448Z</time>
      </trkpt>
      <trkpt lat="46.99034" lon="8.65591">
        <ele>560</ele>
        <time>2021-08-05T09:40:57.448Z</time>
      </trkpt>
      <trkpt lat="46.99033" lon="8.65592">
        <ele>561</ele>
        <time>2021-08-05T09:40:58.448Z</time>
      </trkpt>
      <trkpt lat="46.99033" lon="8.65593">
        <ele>561</ele>
        <time>2021-08-05T09:40:59.448Z</time>
      </trkpt>
      <trkpt lat="46.99032" lon="8.65594">
        <ele>562</ele>
        <time>2021-08-05T09:41:00.448Z</time>
      </trkpt>
      <trkpt lat="46.9903" lon="8.65595">
        <ele>562</ele>
        <time>2021-08-05T09:41:01.448Z</time>
      </trkpt>
      <trkpt lat="46.99028" lon="8.65596">
        <ele>563</ele>
        <time>2021-08-05T09:41:02.448Z</time>
      </trkpt>
      <trkpt lat="46.99025" lon="8.65598">
        <ele>563</ele>
        <time>2021-08-05T09:41:03.448Z</time>
      </trkpt>
      <trkpt lat="46.99022" lon="8.65599">
        <ele>564</ele>
        <time>2021-08-05T09:41:04.448Z</time>
      </trkpt>
      <trkpt lat="46.99021" lon="8.656">
        <ele>564</ele>
        <time>2021-08-05T09:41:05.448Z</time>
      </trkpt>
      <trkpt lat="46.99021" lon="8.65601">
        <ele>565</ele>
        <time>2021-08-05T09:41:06.448Z</time>
      </trkpt>
      <trkpt lat="46.9902" lon="8.65601">
        <ele>565</ele>
        <time>2021-08-05T09:41:07.448Z</time>
      </trkpt>
      <trkpt lat="46.9902" lon="8.65602">
        <ele>566</ele>
        <time>2021-08-05T09:41:08.448Z</time>
      </trkpt>
      <trkpt lat="46.9902" lon="8.65603">
        <ele>566</ele>
        <time>2021-08-05T09:41:09.448Z</time>
      </trkpt>
      <trkpt lat="46.99019" lon="8.65604">
        <ele>567</ele>
        <time>2021-08-05T09:41:10.448Z</time>
      </trkpt>
      <trkpt lat="46.99018" lon="8.65605">
        <ele>568</ele>
        <time>2021-08-05T09:41:11.448Z</time>
      </trkpt>
      <trkpt lat="46.99017" lon="8.65607">
        <ele>568</ele>
        <time>2021-08-05T09:41:12.448Z</time>
      </trkpt>
      <trkpt lat="46.99016" lon="8.65608">
        <ele>569</ele>
        <time>2021-08-05T09:41:13.448Z</time>
      </trkpt>
      <trkpt lat="46.99014" lon="8.6561">
        <ele>569</ele>
        <time>2021-08-05T09:41:14.448Z</time>
      </trkpt>
      <trkpt lat="46.99013" lon="8.65612">
        <ele>570</ele>
        <time>2021-08-05T09:41:15.448Z</time>
      </trkpt>
      <trkpt lat="46.99013" lon="8.65613">
        <ele>570</ele>
        <time>2021-08-05T09:41:16.448Z</time>
      </trkpt>
      <trkpt lat="46.99012" lon="8.65613">
        <ele>571</ele>
        <time>2021-08-05T09:41:17.448Z</time>
      </trkpt>
      <trkpt lat="46.99011" lon="8.65613">
        <ele>571</ele>
        <time>2021-08-05T09:41:18.448Z</time>
      </trkpt>
      <trkpt lat="46.9901" lon="8.65613">
        <ele>572</ele>
        <time>2021-08-05T09:41:19.448Z</time>
      </trkpt>
      <trkpt lat="46.99009" lon="8.65614">
        <ele>572</ele>
        <time>2021-08-05T09:41:20.448Z</time>
      </trkpt>
      <trkpt lat="46.99008" lon="8.65616">
        <ele>573</ele>
        <time>2021-08-05T09:41:21.448Z</time>
      </trkpt>
      <trkpt lat="46.99006" lon="8.65618">
        <ele>573</ele>
        <time>2021-08-05T09:41:22.448Z</time>
      </trkpt>
      <trkpt lat="46.99006" lon="8.65621">
        <ele>574</ele>
        <time>2021-08-05T09:41:23.448Z</time>
      </trkpt>
      <trkpt lat="46.99007" lon="8.65623">
        <ele>574</ele>
        <time>2021-08-05T09:41:24.448Z</time>
      </trkpt>
      <trkpt lat="46.99008" lon="8.65625">
        <ele>575</ele>
        <time>2021-08-05T09:41:25.448Z</time>
      </trkpt>
      <trkpt lat="46.99009" lon="8.65627">
        <ele>575</ele>
        <time>2021-08-05T09:41:26.448Z</time>
      </trkpt>
      <trkpt lat="46.99008" lon="8.65629">
        <ele>576</ele>
        <time>2021-08-05T09:41:27.448Z</time>
      </trkpt>
      <trkpt lat="46.99009" lon="8.65631">
        <ele>576</ele>
        <time>2021-08-05T09:41:28.448Z</time>
      </trkpt>
      <trkpt lat="46.99009" lon="8.65633">
        <ele>577</ele>
        <time>2021-08-05T09:41:29.448Z</time>
      </trkpt>
      <trkpt lat="46.99011" lon="8.65634">
        <ele>577</ele>
        <time>2021-08-05T09:41:30.448Z</time>
      </trkpt>
      <trkpt lat="46.99013" lon="8.65635">
        <ele>578</ele>
        <time>2021-08-05T09:41:31.448Z</time>
      </trkpt>
      <trkpt lat="46.99013" lon="8.65635">
        <ele>578</ele>
        <time>2021-08-05T09:41:32.448Z</time>
      </trkpt>
      <trkpt lat="46.99014" lon="8.65635">
        <ele>579</ele>
        <time>2021-08-05T09:41:33.448Z</time>
      </trkpt>
      <trkpt lat="46.99014" lon="8.65636">
        <ele>579</ele>
        <time>2021-08-05T09:41:34.448Z</time>
      </trkpt>
      <trkpt lat="46.99014" lon="8.65637">
        <ele>580</ele>
        <time>2021-08-05T09:41:35.448Z</time>
      </trkpt>
      <trkpt lat="46.99014" lon="8.65638">
        <ele>580</ele>
        <time>2021-08-05T09:41:36.448Z</time>
      </trkpt>
      <trkpt lat="46.99015" lon="8.6564">
        <ele>581</ele>
        <time>2021-08-05T09:41:37.448Z</time>
      </trkpt>
      <trkpt lat="46.99015" lon="8.6564">
        <ele>581</ele>
        <time>2021-08-05T09:41:38.448Z</time>
      </trkpt>
      <trkpt lat="46.99015" lon="8.65641">
        <ele>581</ele>
        <time>2021-08-05T09:41:39.448Z</time>
      </trkpt>
      <trkpt lat="46.99015" lon="8.65642">
        <ele>581</ele>
        <time>2021-08-05T09:41:40.448Z</time>
      </trkpt>
      <trkpt lat="46.99016" lon="8.65643">
        <ele>582</ele>
        <time>2021-08-05T09:41:41.448Z</time>
      </trkpt>
      <trkpt lat="46.99016" lon="8.65644">
        <ele>582</ele>
        <time>2021-08-05T09:41:42.448Z</time>
      </trkpt>
      <trkpt lat="46.99016" lon="8.65645">
        <ele>582</ele>
        <time>2021-08-05T09:41:43.448Z</time>
      </trkpt>
      <trkpt lat="46.99018" lon="8.65645">
        <ele>583</ele>
        <time>2021-08-05T09:41:44.448Z</time>
      </trkpt>
      <trkpt lat="46.99018" lon="8.65646">
        <ele>583</ele>
        <time>2021-08-05T09:41:45.448Z</time>
      </trkpt>
      <trkpt lat="46.99019" lon="8.65646">
        <ele>583</ele>
        <time>2021-08-05T09:41:46.448Z</time>
      </trkpt>
      <trkpt lat="46.9902" lon="8.65647">
        <ele>583</ele>
        <time>2021-08-05T09:41:47.448Z</time>
      </trkpt>
      <trkpt lat="46.99021" lon="8.65648">
        <ele>583</ele>
        <time>2021-08-05T09:41:48.448Z</time>
      </trkpt>
      <trkpt lat="46.99021" lon="8.65649">
        <ele>583</ele>
        <time>2021-08-05T09:41:49.448Z</time>
      </trkpt>
      <trkpt lat="46.99021" lon="8.6565">
        <ele>583</ele>
        <time>2021-08-05T09:41:50.448Z</time>
      </trkpt>
      <trkpt lat="46.99021" lon="8.65651">
        <ele>583</ele>
        <time>2021-08-05T09:41:51.448Z</time>
      </trkpt>
      <trkpt lat="46.99021" lon="8.65651">
        <ele>583</ele>
        <time>2021-08-05T09:41:52.448Z</time>
      </trkpt>
      <trkpt lat="46.99022" lon="8.65652">
        <ele>584</ele>
        <time>2021-08-05T09:41:53.448Z</time>
      </trkpt>
      <trkpt lat="46.99024" lon="8.65653">
        <ele>584</ele>
        <time>2021-08-05T09:41:54.448Z</time>
      </trkpt>
      <trkpt lat="46.99025" lon="8.65655">
        <ele>584</ele>
        <time>2021-08-05T09:41:55.448Z</time>
      </trkpt>
      <trkpt lat="46.99025" lon="8.65656">
        <ele>584</ele>
        <time>2021-08-05T09:41:56.448Z</time>
      </trkpt>
      <trkpt lat="46.99025" lon="8.65658">
        <ele>584</ele>
        <time>2021-08-05T09:41:57.448Z</time>
      </trkpt>
      <trkpt lat="46.99026" lon="8.65659">
        <ele>584</ele>
        <time>2021-08-05T09:41:58.448Z</time>
      </trkpt>
      <trkpt lat="46.99027" lon="8.65661">
        <ele>584</ele>
        <time>2021-08-05T09:41:59.448Z</time>
      </trkpt>
      <trkpt lat="46.99028" lon="8.65663">
        <ele>584</ele>
        <time>2021-08-05T09:42:00.448Z</time>
      </trkpt>
      <trkpt lat="46.99029" lon="8.65664">
        <ele>584</ele>
        <time>2021-08-05T09:42:01.448Z</time>
      </trkpt>
      <trkpt lat="46.9903" lon="8.65666">
        <ele>584</ele>
        <time>2021-08-05T09:42:02.448Z</time>
      </trkpt>
      <trkpt lat="46.99031" lon="8.65667">
        <ele>584</ele>
        <time>2021-08-05T09:42:03.448Z</time>
      </trkpt>
      <trkpt lat="46.99032" lon="8.65668">
        <ele>584</ele>
        <time>2021-08-05T09:42:04.448Z</time>
      </trkpt>
      <trkpt lat="46.99032" lon="8.6567">
        <ele>584</ele>
        <time>2021-08-05T09:42:05.448Z</time>
      </trkpt>
      <trkpt lat="46.99033" lon="8.65674">
        <ele>583</ele>
        <time>2021-08-05T09:42:06.448Z</time>
      </trkpt>
      <trkpt lat="46.99032" lon="8.65675">
        <ele>582</ele>
        <time>2021-08-05T09:42:07.448Z</time>
      </trkpt>
      <trkpt lat="46.99033" lon="8.65677">
        <ele>582</ele>
        <time>2021-08-05T09:42:08.448Z</time>
      </trkpt>
      <trkpt lat="46.99033" lon="8.65678">
        <ele>581</ele>
        <time>2021-08-05T09:42:09.448Z</time>
      </trkpt>
      <trkpt lat="46.99032" lon="8.65679">
        <ele>580</ele>
        <time>2021-08-05T09:42:10.448Z</time>
      </trkpt>
      <trkpt lat="46.99031" lon="8.65681">
        <ele>579</ele>
        <time>2021-08-05T09:42:11.448Z</time>
      </trkpt>
      <trkpt lat="46.99031" lon="8.65682">
        <ele>578</ele>
        <time>2021-08-05T09:42:12.448Z</time>
      </trkpt>
      <trkpt lat="46.99032" lon="8.65683">
        <ele>577</ele>
        <time>2021-08-05T09:42:13.448Z</time>
      </trkpt>
      <trkpt lat="46.99031" lon="8.65684">
        <ele>577</ele>
        <time>2021-08-05T09:42:14.448Z</time>
      </trkpt>
      <trkpt lat="46.9903" lon="8.65685">
        <ele>576</ele>
        <time>2021-08-05T09:42:15.448Z</time>
      </trkpt>
      <trkpt lat="46.9903" lon="8.65686">
        <ele>575</ele>
        <time>2021-08-05T09:42:16.448Z</time>
      </trkpt>
      <trkpt lat="46.99029" lon="8.65686">
        <ele>574</ele>
        <time>2021-08-05T09:42:17.448Z</time>
      </trkpt>
      <trkpt lat="46.99028" lon="8.65687">
        <ele>573</ele>
        <time>2021-08-05T09:42:18.448Z</time>
      </trkpt>
      <trkpt lat="46.99028" lon="8.65688">
        <ele>573</ele>
        <time>2021-08-05T09:42:19.448Z</time>
      </trkpt>
      <trkpt lat="46.99028" lon="8.65689">
        <ele>572</ele>
        <time>2021-08-05T09:42:20.448Z</time>
      </trkpt>
      <trkpt lat="46.99028" lon="8.65691">
        <ele>571</ele>
        <time>2021-08-05T09:42:21.448Z</time>
      </trkpt>
      <trkpt lat="46.99028" lon="8.65692">
        <ele>571</ele>
        <time>2021-08-05T09:42:22.448Z</time>
      </trkpt>
      <trkpt lat="46.99028" lon="8.65694">
        <ele>570</ele>
        <time>2021-08-05T09:42:23.448Z</time>
      </trkpt>
      <trkpt lat="46.99029" lon="8.65695">
        <ele>570</ele>
        <time>2021-08-05T09:42:24.448Z</time>
      </trkpt>
      <trkpt lat="46.9903" lon="8.65696">
        <ele>569</ele>
        <time>2021-08-05T09:42:25.448Z</time>
      </trkpt>
      <trkpt lat="46.99031" lon="8.65696">
        <ele>569</ele>
        <time>2021-08-05T09:42:26.448Z</time>
      </trkpt>
      <trkpt lat="46.99031" lon="8.65697">
        <ele>568</ele>
        <time>2021-08-05T09:42:27.448Z</time>
      </trkpt>
      <trkpt lat="46.9903" lon="8.65698">
        <ele>568</ele>
        <time>2021-08-05T09:42:28.448Z</time>
      </trkpt>
      <trkpt lat="46.9903" lon="8.657">
        <ele>568</ele>
        <time>2021-08-05T09:42:29.448Z</time>
      </trkpt>
      <trkpt lat="46.9903" lon="8.65701">
        <ele>568</ele>
        <time>2021-08-05T09:42:30.448Z</time>
      </trkpt>
      <trkpt lat="46.99031" lon="8.65701">
        <ele>568</ele>
        <time>2021-08-05T09:42:31.448Z</time>
      </trkpt>
      <trkpt lat="46.9903" lon="8.65702">
        <ele>568</ele>
        <time>2021-08-05T09:42:32.448Z</time>
      </trkpt>
      <trkpt lat="46.99029" lon="8.65703">
        <ele>568</ele>
        <time>2021-08-05T09:42:33.448Z</time>
      </trkpt>
      <trkpt lat="46.99028" lon="8.65704">
        <ele>568</ele>
        <time>2021-08-05T09:42:34.448Z</time>
      </trkpt>
      <trkpt lat="46.99028" lon="8.65705">
        <ele>568</ele>
        <time>2021-08-05T09:42:35.448Z</time>
      </trkpt>
      <trkpt lat="46.99028" lon="8.65707">
        <ele>567</ele>
        <time>2021-08-05T09:42:36.448Z</time>
      </trkpt>
      <trkpt lat="46.99028" lon="8.65708">
        <ele>567</ele>
        <time>2021-08-05T09:42:37.448Z</time>
      </trkpt>
      <trkpt lat="46.99029" lon="8.65711">
        <ele>567</ele>
        <time>2021-08-05T09:42:38.448Z</time>
      </trkpt>
      <trkpt lat="46.99029" lon="8.65714">
        <ele>567</ele>
        <time>2021-08-05T09:42:39.448Z</time>
      </trkpt>
      <trkpt lat="46.9903" lon="8.65716">
        <ele>566</ele>
        <time>2021-08-05T09:42:40.448Z</time>
      </trkpt>
      <trkpt lat="46.99031" lon="8.65718">
        <ele>566</ele>
        <time>2021-08-05T09:42:41.448Z</time>
      </trkpt>
      <trkpt lat="46.99033" lon="8.65719">
        <ele>566</ele>
        <time>2021-08-05T09:42:42.448Z</time>
      </trkpt>
      <trkpt lat="46.99034" lon="8.65721">
        <ele>565</ele>
        <time>2021-08-05T09:42:43.448Z</time>
      </trkpt>
      <trkpt lat="46.99035" lon="8.65723">
        <ele>565</ele>
        <time>2021-08-05T09:42:44.448Z</time>
      </trkpt>
      <trkpt lat="46.99036" lon="8.65725">
        <ele>565</ele>
        <time>2021-08-05T09:42:45.448Z</time>
      </trkpt>
      <trkpt lat="46.99037" lon="8.65727">
        <ele>565</ele>
        <time>2021-08-05T09:42:46.448Z</time>
      </trkpt>
      <trkpt lat="46.99037" lon="8.6573">
        <ele>565</ele>
        <time>2021-08-05T09:42:47.448Z</time>
      </trkpt>
      <trkpt lat="46.99038" lon="8.65732">
        <ele>565</ele>
        <time>2021-08-05T09:42:48.448Z</time>
      </trkpt>
      <trkpt lat="46.99039" lon="8.65734">
        <ele>565</ele>
        <time>2021-08-05T09:42:49.448Z</time>
      </trkpt>
      <trkpt lat="46.99039" lon="8.65736">
        <ele>565</ele>
        <time>2021-08-05T09:42:50.448Z</time>
      </trkpt>
      <trkpt lat="46.99039" lon="8.65739">
        <ele>565</ele>
        <time>2021-08-05T09:42:51.448Z</time>
      </trkpt>
      <trkpt lat="46.99041" lon="8.65742">
        <ele>565</ele>
        <time>2021-08-05T09:42:52.448Z</time>
      </trkpt>
      <trkpt lat="46.99043" lon="8.65745">
        <ele>565</ele>
        <time>2021-08-05T09:42:53.448Z</time>
      </trkpt>
      <trkpt lat="46.99045" lon="8.65747">
        <ele>565</ele>
        <time>2021-08-05T09:42:54.448Z</time>
      </trkpt>
      <trkpt lat="46.99046" lon="8.65748">
        <ele>565</ele>
        <time>2021-08-05T09:42:55.448Z</time>
      </trkpt>
      <trkpt lat="46.99048" lon="8.65749">
        <ele>565</ele>
        <time>2021-08-05T09:42:56.448Z</time>
      </trkpt>
      <trkpt lat="46.9905" lon="8.6575">
        <ele>565</ele>
        <time>2021-08-05T09:42:57.448Z</time>
      </trkpt>
      <trkpt lat="46.9905" lon="8.65751">
        <ele>565</ele>
        <time>2021-08-05T09:42:58.448Z</time>
      </trkpt>
      <trkpt lat="46.9905" lon="8.65754">
        <ele>565</ele>
        <time>2021-08-05T09:42:59.448Z</time>
      </trkpt>
      <trkpt lat="46.99051" lon="8.65757">
        <ele>565</ele>
        <time>2021-08-05T09:43:00.448Z</time>
      </trkpt>
      <trkpt lat="46.99053" lon="8.65759">
        <ele>566</ele>
        <time>2021-08-05T09:43:01.448Z</time>
      </trkpt>
      <trkpt lat="46.99055" lon="8.65759">
        <ele>566</ele>
        <time>2021-08-05T09:43:02.448Z</time>
      </trkpt>
      <trkpt lat="46.99056" lon="8.6576">
        <ele>566</ele>
        <time>2021-08-05T09:43:03.448Z</time>
      </trkpt>
      <trkpt lat="46.99056" lon="8.65762">
        <ele>566</ele>
        <time>2021-08-05T09:43:04.448Z</time>
      </trkpt>
      <trkpt lat="46.99056" lon="8.65764">
        <ele>567</ele>
        <time>2021-08-05T09:43:05.448Z</time>
      </trkpt>
      <trkpt lat="46.99055" lon="8.65766">
        <ele>567</ele>
        <time>2021-08-05T09:43:06.448Z</time>
      </trkpt>
      <trkpt lat="46.99054" lon="8.65767">
        <ele>567</ele>
        <time>2021-08-05T09:43:07.448Z</time>
      </trkpt>
      <trkpt lat="46.99054" lon="8.65769">
        <ele>567</ele>
        <time>2021-08-05T09:43:08.448Z</time>
      </trkpt>
      <trkpt lat="46.99055" lon="8.6577">
        <ele>567</ele>
        <time>2021-08-05T09:43:09.448Z</time>
      </trkpt>
      <trkpt lat="46.99054" lon="8.65771">
        <ele>567</ele>
        <time>2021-08-05T09:43:10.448Z</time>
      </trkpt>
      <trkpt lat="46.99054" lon="8.65772">
        <ele>567</ele>
        <time>2021-08-05T09:43:11.448Z</time>
      </trkpt>
      <trkpt lat="46.99055" lon="8.65773">
        <ele>567</ele>
        <time>2021-08-05T09:43:12.448Z</time>
      </trkpt>
      <trkpt lat="46.99054" lon="8.65774">
        <ele>567</ele>
        <time>2021-08-05T09:43:13.448Z</time>
      </trkpt>
      <trkpt lat="46.99054" lon="8.65775">
        <ele>567</ele>
        <time>2021-08-05T09:43:14.448Z</time>
      </trkpt>
      <trkpt lat="46.99054" lon="8.65777">
        <ele>567</ele>
        <time>2021-08-05T09:43:15.448Z</time>
      </trkpt>
      <trkpt lat="46.99054" lon="8.65778">
        <ele>567</ele>
        <time>2021-08-05T09:43:16.448Z</time>
      </trkpt>
      <trkpt lat="46.99055" lon="8.65779">
        <ele>567</ele>
        <time>2021-08-05T09:43:17.448Z</time>
      </trkpt>
      <trkpt lat="46.99055" lon="8.6578">
        <ele>566</ele>
        <time>2021-08-05T09:43:18.448Z</time>
      </trkpt>
      <trkpt lat="46.99056" lon="8.6578">
        <ele>566</ele>
        <time>2021-08-05T09:43:19.448Z</time>
      </trkpt>
      <trkpt lat="46.99057" lon="8.65781">
        <ele>566</ele>
        <time>2021-08-05T09:43:20.448Z</time>
      </trkpt>
      <trkpt lat="46.99057" lon="8.65782">
        <ele>566</ele>
        <time>2021-08-05T09:43:21.448Z</time>
      </trkpt>
      <trkpt lat="46.99057" lon="8.65783">
        <ele>566</ele>
        <time>2021-08-05T09:43:22.448Z</time>
      </trkpt>
      <trkpt lat="46.99057" lon="8.65785">
        <ele>566</ele>
        <time>2021-08-05T09:43:23.448Z</time>
      </trkpt>
      <trkpt lat="46.99057" lon="8.65786">
        <ele>566</ele>
        <time>2021-08-05T09:43:24.448Z</time>
      </trkpt>
      <trkpt lat="46.99058" lon="8.65788">
        <ele>566</ele>
        <time>2021-08-05T09:43:25.448Z</time>
      </trkpt>
      <trkpt lat="46.99058" lon="8.65789">
        <ele>566</ele>
        <time>2021-08-05T09:43:26.448Z</time>
      </trkpt>
      <trkpt lat="46.99059" lon="8.65791">
        <ele>566</ele>
        <time>2021-08-05T09:43:27.448Z</time>
      </trkpt>
      <trkpt lat="46.99059" lon="8.65792">
        <ele>566</ele>
        <time>2021-08-05T09:43:28.448Z</time>
      </trkpt>
      <trkpt lat="46.99059" lon="8.65793">
        <ele>566</ele>
        <time>2021-08-05T09:43:29.448Z</time>
      </trkpt>
      <trkpt lat="46.99059" lon="8.65795">
        <ele>566</ele>
        <time>2021-08-05T09:43:30.448Z</time>
      </trkpt>
      <trkpt lat="46.99059" lon="8.65797">
        <ele>566</ele>
        <time>2021-08-05T09:43:31.448Z</time>
      </trkpt>
      <trkpt lat="46.99059" lon="8.65799">
        <ele>565</ele>
        <time>2021-08-05T09:43:32.448Z</time>
      </trkpt>
      <trkpt lat="46.99059" lon="8.65801">
        <ele>565</ele>
        <time>2021-08-05T09:43:33.448Z</time>
      </trkpt>
      <trkpt lat="46.99059" lon="8.65803">
        <ele>564</ele>
        <time>2021-08-05T09:43:34.448Z</time>
      </trkpt>
      <trkpt lat="46.9906" lon="8.65804">
        <ele>564</ele>
        <time>2021-08-05T09:43:35.448Z</time>
      </trkpt>
      <trkpt lat="46.99061" lon="8.65806">
        <ele>563</ele>
        <time>2021-08-05T09:43:36.448Z</time>
      </trkpt>
      <trkpt lat="46.99062" lon="8.65808">
        <ele>563</ele>
        <time>2021-08-05T09:43:37.448Z</time>
      </trkpt>
      <trkpt lat="46.99063" lon="8.65809">
        <ele>562</ele>
        <time>2021-08-05T09:43:38.448Z</time>
      </trkpt>
      <trkpt lat="46.99064" lon="8.6581">
        <ele>562</ele>
        <time>2021-08-05T09:43:39.448Z</time>
      </trkpt>
      <trkpt lat="46.99064" lon="8.65812">
        <ele>562</ele>
        <time>2021-08-05T09:43:40.448Z</time>
      </trkpt>
      <trkpt lat="46.99064" lon="8.65815">
        <ele>561</ele>
        <time>2021-08-05T09:43:41.448Z</time>
      </trkpt>
      <trkpt lat="46.99064" lon="8.65816">
        <ele>561</ele>
        <time>2021-08-05T09:43:42.448Z</time>
      </trkpt>
      <trkpt lat="46.99064" lon="8.65818">
        <ele>560</ele>
        <time>2021-08-05T09:43:43.448Z</time>
      </trkpt>
      <trkpt lat="46.99064" lon="8.65819">
        <ele>559</ele>
        <time>2021-08-05T09:43:44.448Z</time>
      </trkpt>
      <trkpt lat="46.99064" lon="8.65822">
        <ele>559</ele>
        <time>2021-08-05T09:43:45.448Z</time>
      </trkpt>
      <trkpt lat="46.99064" lon="8.65823">
        <ele>558</ele>
        <time>2021-08-05T09:43:46.448Z</time>
      </trkpt>
      <trkpt lat="46.99064" lon="8.65824">
        <ele>557</ele>
        <time>2021-08-05T09:43:47.448Z</time>
      </trkpt>
      <trkpt lat="46.99064" lon="8.65826">
        <ele>557</ele>
        <time>2021-08-05T09:43:48.448Z</time>
      </trkpt>
      <trkpt lat="46.99064" lon="8.65827">
        <ele>556</ele>
        <time>2021-08-05T09:43:49.448Z</time>
      </trkpt>
      <trkpt lat="46.99063" lon="8.65828">
        <ele>556</ele>
        <time>2021-08-05T09:43:50.448Z</time>
      </trkpt>
      <trkpt lat="46.99063" lon="8.65829">
        <ele>556</ele>
        <time>2021-08-05T09:43:51.448Z</time>
      </trkpt>
      <trkpt lat="46.99062" lon="8.6583">
        <ele>555</ele>
        <time>2021-08-05T09:43:52.448Z</time>
      </trkpt>
      <trkpt lat="46.99062" lon="8.65831">
        <ele>555</ele>
        <time>2021-08-05T09:43:53.448Z</time>
      </trkpt>
      <trkpt lat="46.99061" lon="8.65833">
        <ele>555</ele>
        <time>2021-08-05T09:43:54.448Z</time>
      </trkpt>
      <trkpt lat="46.99062" lon="8.65833">
        <ele>555</ele>
        <time>2021-08-05T09:43:55.448Z</time>
      </trkpt>
      <trkpt lat="46.99062" lon="8.65834">
        <ele>555</ele>
        <time>2021-08-05T09:43:56.448Z</time>
      </trkpt>
      <trkpt lat="46.99063" lon="8.65836">
        <ele>555</ele>
        <time>2021-08-05T09:43:57.448Z</time>
      </trkpt>
      <trkpt lat="46.99064" lon="8.65837">
        <ele>555</ele>
        <time>2021-08-05T09:43:58.448Z</time>
      </trkpt>
      <trkpt lat="46.99065" lon="8.65838">
        <ele>555</ele>
        <time>2021-08-05T09:43:59.448Z</time>
      </trkpt>
      <trkpt lat="46.99065" lon="8.65839">
        <ele>555</ele>
        <time>2021-08-05T09:44:00.448Z</time>
      </trkpt>
      <trkpt lat="46.99064" lon="8.65841">
        <ele>555</ele>
        <time>2021-08-05T09:44:01.448Z</time>
      </trkpt>
      <trkpt lat="46.99065" lon="8.65843">
        <ele>555</ele>
        <time>2021-08-05T09:44:02.448Z</time>
      </trkpt>
      <trkpt lat="46.99066" lon="8.65844">
        <ele>555</ele>
        <time>2021-08-05T09:44:03.448Z</time>
      </trkpt>
      <trkpt lat="46.99067" lon="8.65846">
        <ele>555</ele>
        <time>2021-08-05T09:44:04.448Z</time>
      </trkpt>
      <trkpt lat="46.99068" lon="8.65847">
        <ele>555</ele>
        <time>2021-08-05T09:44:05.448Z</time>
      </trkpt>
      <trkpt lat="46.99069" lon="8.65848">
        <ele>555</ele>
        <time>2021-08-05T09:44:06.448Z</time>
      </trkpt>
      <trkpt lat="46.9907" lon="8.65849">
        <ele>554</ele>
        <time>2021-08-05T09:44:07.448Z</time>
      </trkpt>
      <trkpt lat="46.9907" lon="8.65851">
        <ele>554</ele>
        <time>2021-08-05T09:44:08.448Z</time>
      </trkpt>
      <trkpt lat="46.99071" lon="8.65853">
        <ele>554</ele>
        <time>2021-08-05T09:44:09.448Z</time>
      </trkpt>
      <trkpt lat="46.99071" lon="8.65854">
        <ele>553</ele>
        <time>2021-08-05T09:44:10.448Z</time>
      </trkpt>
      <trkpt lat="46.99072" lon="8.65856">
        <ele>553</ele>
        <time>2021-08-05T09:44:11.448Z</time>
      </trkpt>
      <trkpt lat="46.99072" lon="8.65857">
        <ele>552</ele>
        <time>2021-08-05T09:44:12.448Z</time>
      </trkpt>
      <trkpt lat="46.99072" lon="8.65859">
        <ele>552</ele>
        <time>2021-08-05T09:44:13.448Z</time>
      </trkpt>
      <trkpt lat="46.99072" lon="8.65861">
        <ele>552</ele>
        <time>2021-08-05T09:44:14.448Z</time>
      </trkpt>
      <trkpt lat="46.99071" lon="8.65863">
        <ele>553</ele>
        <time>2021-08-05T09:44:15.448Z</time>
      </trkpt>
      <trkpt lat="46.9907" lon="8.65866">
        <ele>553</ele>
        <time>2021-08-05T09:44:16.448Z</time>
      </trkpt>
      <trkpt lat="46.99071" lon="8.65867">
        <ele>553</ele>
        <time>2021-08-05T09:44:17.448Z</time>
      </trkpt>
      <trkpt lat="46.9907" lon="8.6587">
        <ele>553</ele>
        <time>2021-08-05T09:44:18.448Z</time>
      </trkpt>
      <trkpt lat="46.99071" lon="8.65873">
        <ele>554</ele>
        <time>2021-08-05T09:44:19.448Z</time>
      </trkpt>
      <trkpt lat="46.99071" lon="8.65875">
        <ele>554</ele>
        <time>2021-08-05T09:44:20.448Z</time>
      </trkpt>
      <trkpt lat="46.99071" lon="8.65876">
        <ele>554</ele>
        <time>2021-08-05T09:44:21.448Z</time>
      </trkpt>
      <trkpt lat="46.99071" lon="8.65878">
        <ele>554</ele>
        <time>2021-08-05T09:44:22.448Z</time>
      </trkpt>
      <trkpt lat="46.9907" lon="8.6588">
        <ele>555</ele>
        <time>2021-08-05T09:44:23.448Z</time>
      </trkpt>
      <trkpt lat="46.99069" lon="8.65882">
        <ele>555</ele>
        <time>2021-08-05T09:44:24.448Z</time>
      </trkpt>
      <trkpt lat="46.99068" lon="8.65884">
        <ele>555</ele>
        <time>2021-08-05T09:44:25.448Z</time>
      </trkpt>
      <trkpt lat="46.99067" lon="8.65885">
        <ele>556</ele>
        <time>2021-08-05T09:44:26.448Z</time>
      </trkpt>
      <trkpt lat="46.99066" lon="8.65887">
        <ele>556</ele>
        <time>2021-08-05T09:44:27.448Z</time>
      </trkpt>
      <trkpt lat="46.99066" lon="8.65888">
        <ele>557</ele>
        <time>2021-08-05T09:44:28.448Z</time>
      </trkpt>
      <trkpt lat="46.99066" lon="8.6589">
        <ele>557</ele>
        <time>2021-08-05T09:44:29.448Z</time>
      </trkpt>
      <trkpt lat="46.99065" lon="8.65893">
        <ele>558</ele>
        <time>2021-08-05T09:44:30.448Z</time>
      </trkpt>
      <trkpt lat="46.99065" lon="8.65895">
        <ele>558</ele>
        <time>2021-08-05T09:44:31.448Z</time>
      </trkpt>
      <trkpt lat="46.99067" lon="8.65897">
        <ele>558</ele>
        <time>2021-08-05T09:44:32.448Z</time>
      </trkpt>
      <trkpt lat="46.99067" lon="8.65899">
        <ele>559</ele>
        <time>2021-08-05T09:44:33.448Z</time>
      </trkpt>
      <trkpt lat="46.99067" lon="8.65901">
        <ele>559</ele>
        <time>2021-08-05T09:44:34.448Z</time>
      </trkpt>
      <trkpt lat="46.99067" lon="8.65903">
        <ele>559</ele>
        <time>2021-08-05T09:44:35.448Z</time>
      </trkpt>
      <trkpt lat="46.99067" lon="8.65905">
        <ele>559</ele>
        <time>2021-08-05T09:44:36.448Z</time>
      </trkpt>
      <trkpt lat="46.99068" lon="8.65907">
        <ele>559</ele>
        <time>2021-08-05T09:44:37.448Z</time>
      </trkpt>
      <trkpt lat="46.99068" lon="8.65908">
        <ele>559</ele>
        <time>2021-08-05T09:44:38.448Z</time>
      </trkpt>
      <trkpt lat="46.99069" lon="8.65909">
        <ele>559</ele>
        <time>2021-08-05T09:44:39.448Z</time>
      </trkpt>
      <trkpt lat="46.9907" lon="8.6591">
        <ele>559</ele>
        <time>2021-08-05T09:44:40.448Z</time>
      </trkpt>
      <trkpt lat="46.99071" lon="8.65911">
        <ele>559</ele>
        <time>2021-08-05T09:44:41.448Z</time>
      </trkpt>
      <trkpt lat="46.99071" lon="8.65913">
        <ele>560</ele>
        <time>2021-08-05T09:44:42.448Z</time>
      </trkpt>
      <trkpt lat="46.99071" lon="8.65913">
        <ele>560</ele>
        <time>2021-08-05T09:44:43.448Z</time>
      </trkpt>
      <trkpt lat="46.99071" lon="8.65915">
        <ele>560</ele>
        <time>2021-08-05T09:44:44.448Z</time>
      </trkpt>
      <trkpt lat="46.99071" lon="8.65916">
        <ele>561</ele>
        <time>2021-08-05T09:44:45.448Z</time>
      </trkpt>
      <trkpt lat="46.99072" lon="8.65918">
        <ele>561</ele>
        <time>2021-08-05T09:44:46.448Z</time>
      </trkpt>
      <trkpt lat="46.99072" lon="8.6592">
        <ele>561</ele>
        <time>2021-08-05T09:44:47.448Z</time>
      </trkpt>
      <trkpt lat="46.99073" lon="8.65922">
        <ele>561</ele>
        <time>2021-08-05T09:44:48.448Z</time>
      </trkpt>
      <trkpt lat="46.99072" lon="8.65923">
        <ele>561</ele>
        <time>2021-08-05T09:44:49.448Z</time>
      </trkpt>
      <trkpt lat="46.99072" lon="8.65925">
        <ele>561</ele>
        <time>2021-08-05T09:44:50.448Z</time>
      </trkpt>
      <trkpt lat="46.99072" lon="8.65926">
        <ele>561</ele>
        <time>2021-08-05T09:44:51.448Z</time>
      </trkpt>
      <trkpt lat="46.99072" lon="8.65928">
        <ele>562</ele>
        <time>2021-08-05T09:44:52.448Z</time>
      </trkpt>
      <trkpt lat="46.99072" lon="8.6593">
        <ele>562</ele>
        <time>2021-08-05T09:44:53.448Z</time>
      </trkpt>
      <trkpt lat="46.99073" lon="8.65932">
        <ele>562</ele>
        <time>2021-08-05T09:44:54.448Z</time>
      </trkpt>
      <trkpt lat="46.99073" lon="8.65934">
        <ele>562</ele>
        <time>2021-08-05T09:44:55.448Z</time>
      </trkpt>
      <trkpt lat="46.99072" lon="8.65937">
        <ele>562</ele>
        <time>2021-08-05T09:44:56.448Z</time>
      </trkpt>
      <trkpt lat="46.99072" lon="8.65939">
        <ele>562</ele>
        <time>2021-08-05T09:44:57.448Z</time>
      </trkpt>
      <trkpt lat="46.99073" lon="8.65941">
        <ele>561</ele>
        <time>2021-08-05T09:44:58.448Z</time>
      </trkpt>
      <trkpt lat="46.99073" lon="8.65943">
        <ele>561</ele>
        <time>2021-08-05T09:44:59.448Z</time>
      </trkpt>
      <trkpt lat="46.99073" lon="8.65945">
        <ele>561</ele>
        <time>2021-08-05T09:45:00.448Z</time>
      </trkpt>
      <trkpt lat="46.99072" lon="8.65947">
        <ele>561</ele>
        <time>2021-08-05T09:45:01.448Z</time>
      </trkpt>
      <trkpt lat="46.99072" lon="8.65948">
        <ele>560</ele>
        <time>2021-08-05T09:45:02.448Z</time>
      </trkpt>
      <trkpt lat="46.99072" lon="8.6595">
        <ele>559</ele>
        <time>2021-08-05T09:45:03.448Z</time>
      </trkpt>
      <trkpt lat="46.99072" lon="8.65952">
        <ele>559</ele>
        <time>2021-08-05T09:45:04.448Z</time>
      </trkpt>
      <trkpt lat="46.99073" lon="8.65954">
        <ele>558</ele>
        <time>2021-08-05T09:45:05.448Z</time>
      </trkpt>
      <trkpt lat="46.99074" lon="8.65956">
        <ele>558</ele>
        <time>2021-08-05T09:45:06.448Z</time>
      </trkpt>
      <trkpt lat="46.99074" lon="8.65958">
        <ele>558</ele>
        <time>2021-08-05T09:45:07.448Z</time>
      </trkpt>
      <trkpt lat="46.99075" lon="8.6596">
        <ele>558</ele>
        <time>2021-08-05T09:45:08.448Z</time>
      </trkpt>
      <trkpt lat="46.99075" lon="8.65963">
        <ele>558</ele>
        <time>2021-08-05T09:45:09.448Z</time>
      </trkpt>
      <trkpt lat="46.99075" lon="8.65965">
        <ele>558</ele>
        <time>2021-08-05T09:45:10.448Z</time>
      </trkpt>
      <trkpt lat="46.99076" lon="8.65967">
        <ele>558</ele>
        <time>2021-08-05T09:45:11.448Z</time>
      </trkpt>
      <trkpt lat="46.99076" lon="8.65969">
        <ele>558</ele>
        <time>2021-08-05T09:45:12.448Z</time>
      </trkpt>
      <trkpt lat="46.99077" lon="8.6597">
        <ele>558</ele>
        <time>2021-08-05T09:45:13.448Z</time>
      </trkpt>
      <trkpt lat="46.99078" lon="8.65972">
        <ele>558</ele>
        <time>2021-08-05T09:45:14.448Z</time>
      </trkpt>
      <trkpt lat="46.99079" lon="8.65975">
        <ele>557</ele>
        <time>2021-08-05T09:45:15.448Z</time>
      </trkpt>
      <trkpt lat="46.99078" lon="8.65978">
        <ele>557</ele>
        <time>2021-08-05T09:45:16.448Z</time>
      </trkpt>
      <trkpt lat="46.99079" lon="8.6598">
        <ele>557</ele>
        <time>2021-08-05T09:45:17.448Z</time>
      </trkpt>
      <trkpt lat="46.9908" lon="8.65982">
        <ele>557</ele>
        <time>2021-08-05T09:45:18.448Z</time>
      </trkpt>
      <trkpt lat="46.9908" lon="8.65984">
        <ele>557</ele>
        <time>2021-08-05T09:45:19.448Z</time>
      </trkpt>
      <trkpt lat="46.9908" lon="8.65985">
        <ele>557</ele>
        <time>2021-08-05T09:45:20.448Z</time>
      </trkpt>
      <trkpt lat="46.99079" lon="8.65987">
        <ele>557</ele>
        <time>2021-08-05T09:45:21.448Z</time>
      </trkpt>
      <trkpt lat="46.99079" lon="8.65989">
        <ele>557</ele>
        <time>2021-08-05T09:45:22.448Z</time>
      </trkpt>
      <trkpt lat="46.99078" lon="8.65992">
        <ele>556</ele>
        <time>2021-08-05T09:45:23.448Z</time>
      </trkpt>
      <trkpt lat="46.99078" lon="8.65994">
        <ele>556</ele>
        <time>2021-08-05T09:45:24.448Z</time>
      </trkpt>
      <trkpt lat="46.99079" lon="8.65995">
        <ele>555</ele>
        <time>2021-08-05T09:45:25.448Z</time>
      </trkpt>
      <trkpt lat="46.9908" lon="8.65997">
        <ele>555</ele>
        <time>2021-08-05T09:45:26.448Z</time>
      </trkpt>
      <trkpt lat="46.99081" lon="8.65999">
        <ele>555</ele>
        <time>2021-08-05T09:45:27.448Z</time>
      </trkpt>
      <trkpt lat="46.99083" lon="8.66">
        <ele>554</ele>
        <time>2021-08-05T09:45:28.448Z</time>
      </trkpt>
      <trkpt lat="46.99083" lon="8.66002">
        <ele>554</ele>
        <time>2021-08-05T09:45:29.448Z</time>
      </trkpt>
      <trkpt lat="46.99083" lon="8.66004">
        <ele>553</ele>
        <time>2021-08-05T09:45:30.448Z</time>
      </trkpt>
      <trkpt lat="46.99083" lon="8.66005">
        <ele>553</ele>
        <time>2021-08-05T09:45:31.448Z</time>
      </trkpt>
      <trkpt lat="46.99084" lon="8.66007">
        <ele>552</ele>
        <time>2021-08-05T09:45:32.448Z</time>
      </trkpt>
      <trkpt lat="46.99084" lon="8.66009">
        <ele>552</ele>
        <time>2021-08-05T09:45:33.448Z</time>
      </trkpt>
      <trkpt lat="46.99085" lon="8.66011">
        <ele>552</ele>
        <time>2021-08-05T09:45:34.448Z</time>
      </trkpt>
      <trkpt lat="46.99085" lon="8.66012">
        <ele>551</ele>
        <time>2021-08-05T09:45:35.448Z</time>
      </trkpt>
      <trkpt lat="46.99085" lon="8.66014">
        <ele>551</ele>
        <time>2021-08-05T09:45:36.448Z</time>
      </trkpt>
      <trkpt lat="46.99085" lon="8.66015">
        <ele>551</ele>
        <time>2021-08-05T09:45:37.448Z</time>
      </trkpt>
      <trkpt lat="46.99084" lon="8.66017">
        <ele>551</ele>
        <time>2021-08-05T09:45:38.448Z</time>
      </trkpt>
      <trkpt lat="46.99084" lon="8.66019">
        <ele>550</ele>
        <time>2021-08-05T09:45:39.448Z</time>
      </trkpt>
      <trkpt lat="46.99084" lon="8.66021">
        <ele>550</ele>
        <time>2021-08-05T09:45:40.448Z</time>
      </trkpt>
      <trkpt lat="46.99084" lon="8.66023">
        <ele>550</ele>
        <time>2021-08-05T09:45:41.448Z</time>
      </trkpt>
      <trkpt lat="46.99085" lon="8.66024">
        <ele>550</ele>
        <time>2021-08-05T09:45:42.448Z</time>
      </trkpt>
      <trkpt lat="46.99085" lon="8.66026">
        <ele>550</ele>
        <time>2021-08-05T09:45:43.448Z</time>
      </trkpt>
      <trkpt lat="46.99084" lon="8.66029">
        <ele>550</ele>
        <time>2021-08-05T09:45:44.448Z</time>
      </trkpt>
      <trkpt lat="46.99084" lon="8.66031">
        <ele>549</ele>
        <time>2021-08-05T09:45:45.448Z</time>
      </trkpt>
      <trkpt lat="46.99083" lon="8.66033">
        <ele>549</ele>
        <time>2021-08-05T09:45:46.448Z</time>
      </trkpt>
      <trkpt lat="46.99084" lon="8.66035">
        <ele>549</ele>
        <time>2021-08-05T09:45:47.448Z</time>
      </trkpt>
      <trkpt lat="46.99085" lon="8.66036">
        <ele>549</ele>
        <time>2021-08-05T09:45:48.448Z</time>
      </trkpt>
      <trkpt lat="46.99086" lon="8.66037">
        <ele>549</ele>
        <time>2021-08-05T09:45:49.448Z</time>
      </trkpt>
      <trkpt lat="46.99086" lon="8.66038">
        <ele>549</ele>
        <time>2021-08-05T09:45:50.448Z</time>
      </trkpt>
      <trkpt lat="46.99086" lon="8.66039">
        <ele>549</ele>
        <time>2021-08-05T09:45:51.448Z</time>
      </trkpt>
      <trkpt lat="46.99086" lon="8.66041">
        <ele>549</ele>
        <time>2021-08-05T09:45:52.448Z</time>
      </trkpt>
      <trkpt lat="46.99086" lon="8.66042">
        <ele>550</ele>
        <time>2021-08-05T09:45:53.448Z</time>
      </trkpt>
      <trkpt lat="46.99086" lon="8.66044">
        <ele>549</ele>
        <time>2021-08-05T09:45:54.448Z</time>
      </trkpt>
      <trkpt lat="46.99086" lon="8.66045">
        <ele>549</ele>
        <time>2021-08-05T09:45:55.448Z</time>
      </trkpt>
      <trkpt lat="46.99087" lon="8.66046">
        <ele>549</ele>
        <time>2021-08-05T09:45:56.448Z</time>
      </trkpt>
      <trkpt lat="46.99088" lon="8.66048">
        <ele>549</ele>
        <time>2021-08-05T09:45:57.448Z</time>
      </trkpt>
      <trkpt lat="46.99089" lon="8.6605">
        <ele>549</ele>
        <time>2021-08-05T09:45:58.448Z</time>
      </trkpt>
      <trkpt lat="46.99089" lon="8.66051">
        <ele>549</ele>
        <time>2021-08-05T09:45:59.448Z</time>
      </trkpt>
      <trkpt lat="46.99089" lon="8.66053">
        <ele>549</ele>
        <time>2021-08-05T09:46:00.448Z</time>
      </trkpt>
      <trkpt lat="46.9909" lon="8.66056">
        <ele>549</ele>
        <time>2021-08-05T09:46:01.448Z</time>
      </trkpt>
      <trkpt lat="46.9909" lon="8.66058">
        <ele>549</ele>
        <time>2021-08-05T09:46:02.448Z</time>
      </trkpt>
      <trkpt lat="46.9909" lon="8.6606">
        <ele>549</ele>
        <time>2021-08-05T09:46:03.448Z</time>
      </trkpt>
      <trkpt lat="46.9909" lon="8.66063">
        <ele>549</ele>
        <time>2021-08-05T09:46:04.448Z</time>
      </trkpt>
      <trkpt lat="46.99089" lon="8.66066">
        <ele>548</ele>
        <time>2021-08-05T09:46:05.448Z</time>
      </trkpt>
      <trkpt lat="46.99089" lon="8.66068">
        <ele>548</ele>
        <time>2021-08-05T09:46:06.448Z</time>
      </trkpt>
      <trkpt lat="46.99087" lon="8.66071">
        <ele>547</ele>
        <time>2021-08-05T09:46:07.448Z</time>
      </trkpt>
      <trkpt lat="46.99087" lon="8.66072">
        <ele>547</ele>
        <time>2021-08-05T09:46:08.448Z</time>
      </trkpt>
      <trkpt lat="46.99087" lon="8.66074">
        <ele>546</ele>
        <time>2021-08-05T09:46:09.448Z</time>
      </trkpt>
      <trkpt lat="46.99087" lon="8.66076">
        <ele>546</ele>
        <time>2021-08-05T09:46:10.448Z</time>
      </trkpt>
      <trkpt lat="46.99087" lon="8.66078">
        <ele>546</ele>
        <time>2021-08-05T09:46:11.448Z</time>
      </trkpt>
      <trkpt lat="46.99088" lon="8.6608">
        <ele>545</ele>
        <time>2021-08-05T09:46:12.448Z</time>
      </trkpt>
      <trkpt lat="46.99088" lon="8.66081">
        <ele>545</ele>
        <time>2021-08-05T09:46:13.448Z</time>
      </trkpt>
      <trkpt lat="46.99088" lon="8.66082">
        <ele>545</ele>
        <time>2021-08-05T09:46:14.448Z</time>
      </trkpt>
      <trkpt lat="46.99089" lon="8.66084">
        <ele>545</ele>
        <time>2021-08-05T09:46:15.448Z</time>
      </trkpt>
      <trkpt lat="46.99089" lon="8.66085">
        <ele>545</ele>
        <time>2021-08-05T09:46:16.448Z</time>
      </trkpt>
      <trkpt lat="46.9909" lon="8.66086">
        <ele>545</ele>
        <time>2021-08-05T09:46:17.448Z</time>
      </trkpt>
      <trkpt lat="46.99091" lon="8.66087">
        <ele>545</ele>
        <time>2021-08-05T09:46:18.448Z</time>
      </trkpt>
      <trkpt lat="46.99092" lon="8.66088">
        <ele>545</ele>
        <time>2021-08-05T09:46:19.448Z</time>
      </trkpt>
      <trkpt lat="46.99093" lon="8.66089">
        <ele>545</ele>
        <time>2021-08-05T09:46:20.448Z</time>
      </trkpt>
      <trkpt lat="46.99093" lon="8.6609">
        <ele>545</ele>
        <time>2021-08-05T09:46:21.448Z</time>
      </trkpt>
      <trkpt lat="46.99094" lon="8.66091">
        <ele>545</ele>
        <time>2021-08-05T09:46:22.448Z</time>
      </trkpt>
      <trkpt lat="46.99094" lon="8.66093">
        <ele>545</ele>
        <time>2021-08-05T09:46:23.448Z</time>
      </trkpt>
      <trkpt lat="46.99094" lon="8.66094">
        <ele>545</ele>
        <time>2021-08-05T09:46:24.448Z</time>
      </trkpt>
      <trkpt lat="46.99094" lon="8.66096">
        <ele>545</ele>
        <time>2021-08-05T09:46:25.448Z</time>
      </trkpt>
      <trkpt lat="46.99095" lon="8.66097">
        <ele>545</ele>
        <time>2021-08-05T09:46:26.448Z</time>
      </trkpt>
      <trkpt lat="46.99096" lon="8.66098">
        <ele>545</ele>
        <time>2021-08-05T09:46:27.448Z</time>
      </trkpt>
      <trkpt lat="46.99096" lon="8.66099">
        <ele>545</ele>
        <time>2021-08-05T09:46:28.448Z</time>
      </trkpt>
      <trkpt lat="46.99097" lon="8.661">
        <ele>546</ele>
        <time>2021-08-05T09:46:29.448Z</time>
      </trkpt>
      <trkpt lat="46.99098" lon="8.66101">
        <ele>546</ele>
        <time>2021-08-05T09:46:30.448Z</time>
      </trkpt>
      <trkpt lat="46.99099" lon="8.66102">
        <ele>546</ele>
        <time>2021-08-05T09:46:31.448Z</time>
      </trkpt>
      <trkpt lat="46.99099" lon="8.66103">
        <ele>546</ele>
        <time>2021-08-05T09:46:32.448Z</time>
      </trkpt>
      <trkpt lat="46.99099" lon="8.66106">
        <ele>546</ele>
        <time>2021-08-05T09:46:33.448Z</time>
      </trkpt>
      <trkpt lat="46.99099" lon="8.66107">
        <ele>546</ele>
        <time>2021-08-05T09:46:34.448Z</time>
      </trkpt>
      <trkpt lat="46.991" lon="8.66109">
        <ele>547</ele>
        <time>2021-08-05T09:46:35.448Z</time>
      </trkpt>
      <trkpt lat="46.991" lon="8.66111">
        <ele>547</ele>
        <time>2021-08-05T09:46:36.448Z</time>
      </trkpt>
      <trkpt lat="46.991" lon="8.66112">
        <ele>547</ele>
        <time>2021-08-05T09:46:37.448Z</time>
      </trkpt>
      <trkpt lat="46.991" lon="8.66113">
        <ele>547</ele>
        <time>2021-08-05T09:46:38.448Z</time>
      </trkpt>
      <trkpt lat="46.99101" lon="8.66115">
        <ele>547</ele>
        <time>2021-08-05T09:46:39.448Z</time>
      </trkpt>
      <trkpt lat="46.99102" lon="8.66116">
        <ele>547</ele>
        <time>2021-08-05T09:46:40.448Z</time>
      </trkpt>
      <trkpt lat="46.99102" lon="8.66117">
        <ele>547</ele>
        <time>2021-08-05T09:46:41.448Z</time>
      </trkpt>
      <trkpt lat="46.99103" lon="8.66119">
        <ele>547</ele>
        <time>2021-08-05T09:46:42.448Z</time>
      </trkpt>
      <trkpt lat="46.99103" lon="8.6612">
        <ele>547</ele>
        <time>2021-08-05T09:46:43.448Z</time>
      </trkpt>
      <trkpt lat="46.99103" lon="8.66122">
        <ele>547</ele>
        <time>2021-08-05T09:46:44.448Z</time>
      </trkpt>
      <trkpt lat="46.99103" lon="8.66124">
        <ele>547</ele>
        <time>2021-08-05T09:46:45.448Z</time>
      </trkpt>
      <trkpt lat="46.99105" lon="8.66126">
        <ele>547</ele>
        <time>2021-08-05T09:46:46.448Z</time>
      </trkpt>
      <trkpt lat="46.99105" lon="8.66127">
        <ele>547</ele>
        <time>2021-08-05T09:46:47.448Z</time>
      </trkpt>
      <trkpt lat="46.99107" lon="8.66128">
        <ele>547</ele>
        <time>2021-08-05T09:46:48.448Z</time>
      </trkpt>
      <trkpt lat="46.99108" lon="8.66128">
        <ele>547</ele>
        <time>2021-08-05T09:46:49.448Z</time>
      </trkpt>
      <trkpt lat="46.9911" lon="8.66129">
        <ele>547</ele>
        <time>2021-08-05T09:46:50.448Z</time>
      </trkpt>
      <trkpt lat="46.99111" lon="8.66129">
        <ele>547</ele>
        <time>2021-08-05T09:46:51.448Z</time>
      </trkpt>
      <trkpt lat="46.99112" lon="8.6613">
        <ele>547</ele>
        <time>2021-08-05T09:46:52.448Z</time>
      </trkpt>
      <trkpt lat="46.99113" lon="8.66131">
        <ele>547</ele>
        <time>2021-08-05T09:46:53.448Z</time>
      </trkpt>
      <trkpt lat="46.99113" lon="8.66132">
        <ele>547</ele>
        <time>2021-08-05T09:46:54.448Z</time>
      </trkpt>
      <trkpt lat="46.99114" lon="8.66133">
        <ele>548</ele>
        <time>2021-08-05T09:46:55.448Z</time>
      </trkpt>
      <trkpt lat="46.99115" lon="8.66135">
        <ele>548</ele>
        <time>2021-08-05T09:46:56.448Z</time>
      </trkpt>
      <trkpt lat="46.99114" lon="8.66136">
        <ele>548</ele>
        <time>2021-08-05T09:46:57.448Z</time>
      </trkpt>
      <trkpt lat="46.99115" lon="8.66137">
        <ele>548</ele>
        <time>2021-08-05T09:46:58.448Z</time>
      </trkpt>
      <trkpt lat="46.99116" lon="8.66138">
        <ele>549</ele>
        <time>2021-08-05T09:46:59.448Z</time>
      </trkpt>
      <trkpt lat="46.99117" lon="8.66139">
        <ele>549</ele>
        <time>2021-08-05T09:47:00.448Z</time>
      </trkpt>
      <trkpt lat="46.99118" lon="8.66141">
        <ele>549</ele>
        <time>2021-08-05T09:47:01.448Z</time>
      </trkpt>
      <trkpt lat="46.99119" lon="8.66142">
        <ele>549</ele>
        <time>2021-08-05T09:47:02.448Z</time>
      </trkpt>
      <trkpt lat="46.9912" lon="8.66143">
        <ele>550</ele>
        <time>2021-08-05T09:47:03.448Z</time>
      </trkpt>
      <trkpt lat="46.99123" lon="8.66143">
        <ele>550</ele>
        <time>2021-08-05T09:47:04.448Z</time>
      </trkpt>
      <trkpt lat="46.99123" lon="8.66145">
        <ele>550</ele>
        <time>2021-08-05T09:47:05.448Z</time>
      </trkpt>
      <trkpt lat="46.99123" lon="8.66146">
        <ele>550</ele>
        <time>2021-08-05T09:47:06.448Z</time>
      </trkpt>
      <trkpt lat="46.99123" lon="8.66148">
        <ele>550</ele>
        <time>2021-08-05T09:47:07.448Z</time>
      </trkpt>
      <trkpt lat="46.99123" lon="8.6615">
        <ele>550</ele>
        <time>2021-08-05T09:47:08.448Z</time>
      </trkpt>
      <trkpt lat="46.99123" lon="8.66151">
        <ele>550</ele>
        <time>2021-08-05T09:47:09.448Z</time>
      </trkpt>
      <trkpt lat="46.99123" lon="8.66152">
        <ele>550</ele>
        <time>2021-08-05T09:47:10.448Z</time>
      </trkpt>
      <trkpt lat="46.99123" lon="8.66153">
        <ele>549</ele>
        <time>2021-08-05T09:47:11.448Z</time>
      </trkpt>
      <trkpt lat="46.99123" lon="8.66155">
        <ele>549</ele>
        <time>2021-08-05T09:47:12.448Z</time>
      </trkpt>
      <trkpt lat="46.99123" lon="8.66156">
        <ele>549</ele>
        <time>2021-08-05T09:47:13.448Z</time>
      </trkpt>
      <trkpt lat="46.99124" lon="8.66157">
        <ele>549</ele>
        <time>2021-08-05T09:47:14.448Z</time>
      </trkpt>
      <trkpt lat="46.99124" lon="8.66158">
        <ele>548</ele>
        <time>2021-08-05T09:47:15.448Z</time>
      </trkpt>
      <trkpt lat="46.99125" lon="8.66159">
        <ele>548</ele>
        <time>2021-08-05T09:47:16.448Z</time>
      </trkpt>
      <trkpt lat="46.99126" lon="8.66159">
        <ele>548</ele>
        <time>2021-08-05T09:47:17.448Z</time>
      </trkpt>
      <trkpt lat="46.99127" lon="8.6616">
        <ele>547</ele>
        <time>2021-08-05T09:47:18.448Z</time>
      </trkpt>
      <trkpt lat="46.99128" lon="8.66161">
        <ele>547</ele>
        <time>2021-08-05T09:47:19.448Z</time>
      </trkpt>
      <trkpt lat="46.99128" lon="8.66162">
        <ele>547</ele>
        <time>2021-08-05T09:47:20.448Z</time>
      </trkpt>
      <trkpt lat="46.99128" lon="8.66164">
        <ele>547</ele>
        <time>2021-08-05T09:47:21.448Z</time>
      </trkpt>
      <trkpt lat="46.99129" lon="8.66165">
        <ele>546</ele>
        <time>2021-08-05T09:47:22.448Z</time>
      </trkpt>
      <trkpt lat="46.9913" lon="8.66166">
        <ele>546</ele>
        <time>2021-08-05T09:47:23.448Z</time>
      </trkpt>
      <trkpt lat="46.99131" lon="8.66168">
        <ele>546</ele>
        <time>2021-08-05T09:47:24.448Z</time>
      </trkpt>
      <trkpt lat="46.9913" lon="8.6617">
        <ele>546</ele>
        <time>2021-08-05T09:47:25.448Z</time>
      </trkpt>
      <trkpt lat="46.9913" lon="8.66172">
        <ele>546</ele>
        <time>2021-08-05T09:47:26.448Z</time>
      </trkpt>
      <trkpt lat="46.9913" lon="8.66173">
        <ele>545</ele>
        <time>2021-08-05T09:47:27.448Z</time>
      </trkpt>
      <trkpt lat="46.99131" lon="8.66174">
        <ele>545</ele>
        <time>2021-08-05T09:47:28.448Z</time>
      </trkpt>
      <trkpt lat="46.99132" lon="8.66176">
        <ele>544</ele>
        <time>2021-08-05T09:47:29.448Z</time>
      </trkpt>
      <trkpt lat="46.99133" lon="8.66177">
        <ele>544</ele>
        <time>2021-08-05T09:47:30.448Z</time>
      </trkpt>
      <trkpt lat="46.99133" lon="8.66179">
        <ele>543</ele>
        <time>2021-08-05T09:47:31.448Z</time>
      </trkpt>
      <trkpt lat="46.99134" lon="8.66181">
        <ele>543</ele>
        <time>2021-08-05T09:47:32.448Z</time>
      </trkpt>
      <trkpt lat="46.99135" lon="8.66183">
        <ele>543</ele>
        <time>2021-08-05T09:47:33.448Z</time>
      </trkpt>
      <trkpt lat="46.99136" lon="8.66184">
        <ele>543</ele>
        <time>2021-08-05T09:47:34.448Z</time>
      </trkpt>
      <trkpt lat="46.99137" lon="8.66185">
        <ele>542</ele>
        <time>2021-08-05T09:47:35.448Z</time>
      </trkpt>
      <trkpt lat="46.99138" lon="8.66187">
        <ele>542</ele>
        <time>2021-08-05T09:47:36.448Z</time>
      </trkpt>
      <trkpt lat="46.99139" lon="8.66188">
        <ele>542</ele>
        <time>2021-08-05T09:47:37.448Z</time>
      </trkpt>
      <trkpt lat="46.99139" lon="8.6619">
        <ele>542</ele>
        <time>2021-08-05T09:47:38.448Z</time>
      </trkpt>
      <trkpt lat="46.9914" lon="8.66191">
        <ele>542</ele>
        <time>2021-08-05T09:47:39.448Z</time>
      </trkpt>
      <trkpt lat="46.9914" lon="8.66193">
        <ele>542</ele>
        <time>2021-08-05T09:47:40.448Z</time>
      </trkpt>
      <trkpt lat="46.99141" lon="8.66195">
        <ele>543</ele>
        <time>2021-08-05T09:47:41.448Z</time>
      </trkpt>
      <trkpt lat="46.99142" lon="8.66197">
        <ele>543</ele>
        <time>2021-08-05T09:47:42.448Z</time>
      </trkpt>
      <trkpt lat="46.99144" lon="8.66198">
        <ele>543</ele>
        <time>2021-08-05T09:47:43.448Z</time>
      </trkpt>
      <trkpt lat="46.99145" lon="8.66199">
        <ele>543</ele>
        <time>2021-08-05T09:47:44.448Z</time>
      </trkpt>
      <trkpt lat="46.99146" lon="8.66199">
        <ele>543</ele>
        <time>2021-08-05T09:47:45.448Z</time>
      </trkpt>
      <trkpt lat="46.99147" lon="8.662">
        <ele>543</ele>
        <time>2021-08-05T09:47:46.448Z</time>
      </trkpt>
      <trkpt lat="46.99148" lon="8.66201">
        <ele>543</ele>
        <time>2021-08-05T09:47:47.448Z</time>
      </trkpt>
      <trkpt lat="46.99149" lon="8.66202">
        <ele>543</ele>
        <time>2021-08-05T09:47:48.448Z</time>
      </trkpt>
      <trkpt lat="46.9915" lon="8.66203">
        <ele>543</ele>
        <time>2021-08-05T09:47:49.448Z</time>
      </trkpt>
      <trkpt lat="46.99151" lon="8.66204">
        <ele>542</ele>
        <time>2021-08-05T09:47:50.448Z</time>
      </trkpt>
      <trkpt lat="46.99152" lon="8.66206">
        <ele>542</ele>
        <time>2021-08-05T09:47:51.448Z</time>
      </trkpt>
      <trkpt lat="46.99152" lon="8.66208">
        <ele>542</ele>
        <time>2021-08-05T09:47:52.448Z</time>
      </trkpt>
      <trkpt lat="46.99152" lon="8.66209">
        <ele>542</ele>
        <time>2021-08-05T09:47:53.448Z</time>
      </trkpt>
      <trkpt lat="46.99152" lon="8.66211">
        <ele>542</ele>
        <time>2021-08-05T09:47:54.448Z</time>
      </trkpt>
      <trkpt lat="46.99153" lon="8.66213">
        <ele>542</ele>
        <time>2021-08-05T09:47:55.448Z</time>
      </trkpt>
      <trkpt lat="46.99154" lon="8.66214">
        <ele>542</ele>
        <time>2021-08-05T09:47:56.448Z</time>
      </trkpt>
      <trkpt lat="46.99155" lon="8.66215">
        <ele>542</ele>
        <time>2021-08-05T09:47:57.448Z</time>
      </trkpt>
      <trkpt lat="46.99157" lon="8.66216">
        <ele>543</ele>
        <time>2021-08-05T09:47:58.448Z</time>
      </trkpt>
      <trkpt lat="46.99158" lon="8.66217">
        <ele>543</ele>
        <time>2021-08-05T09:47:59.448Z</time>
      </trkpt>
      <trkpt lat="46.99158" lon="8.66218">
        <ele>544</ele>
        <time>2021-08-05T09:48:00.448Z</time>
      </trkpt>
      <trkpt lat="46.99159" lon="8.66219">
        <ele>544</ele>
        <time>2021-08-05T09:48:01.448Z</time>
      </trkpt>
      <trkpt lat="46.9916" lon="8.66221">
        <ele>544</ele>
        <time>2021-08-05T09:48:02.448Z</time>
      </trkpt>
      <trkpt lat="46.99161" lon="8.66222">
        <ele>544</ele>
        <time>2021-08-05T09:48:03.448Z</time>
      </trkpt>
      <trkpt lat="46.99161" lon="8.66223">
        <ele>544</ele>
        <time>2021-08-05T09:48:04.448Z</time>
      </trkpt>
      <trkpt lat="46.99162" lon="8.66224">
        <ele>544</ele>
        <time>2021-08-05T09:48:05.448Z</time>
      </trkpt>
      <trkpt lat="46.99163" lon="8.66224">
        <ele>544</ele>
        <time>2021-08-05T09:48:06.448Z</time>
      </trkpt>
      <trkpt lat="46.99164" lon="8.66225">
        <ele>545</ele>
        <time>2021-08-05T09:48:07.448Z</time>
      </trkpt>
      <trkpt lat="46.99164" lon="8.66226">
        <ele>545</ele>
        <time>2021-08-05T09:48:08.448Z</time>
      </trkpt>
      <trkpt lat="46.99166" lon="8.66227">
        <ele>545</ele>
        <time>2021-08-05T09:48:09.448Z</time>
      </trkpt>
      <trkpt lat="46.99167" lon="8.66228">
        <ele>545</ele>
        <time>2021-08-05T09:48:10.448Z</time>
      </trkpt>
      <trkpt lat="46.99168" lon="8.66229">
        <ele>545</ele>
        <time>2021-08-05T09:48:11.448Z</time>
      </trkpt>
      <trkpt lat="46.99168" lon="8.6623">
        <ele>545</ele>
        <time>2021-08-05T09:48:12.448Z</time>
      </trkpt>
      <trkpt lat="46.99169" lon="8.66231">
        <ele>544</ele>
        <time>2021-08-05T09:48:13.448Z</time>
      </trkpt>
      <trkpt lat="46.99171" lon="8.66231">
        <ele>544</ele>
        <time>2021-08-05T09:48:14.448Z</time>
      </trkpt>
      <trkpt lat="46.99173" lon="8.66231">
        <ele>545</ele>
        <time>2021-08-05T09:48:15.448Z</time>
      </trkpt>
      <trkpt lat="46.99174" lon="8.66231">
        <ele>545</ele>
        <time>2021-08-05T09:48:16.448Z</time>
      </trkpt>
      <trkpt lat="46.99176" lon="8.66231">
        <ele>546</ele>
        <time>2021-08-05T09:48:17.448Z</time>
      </trkpt>
      <trkpt lat="46.99178" lon="8.66231">
        <ele>546</ele>
        <time>2021-08-05T09:48:18.448Z</time>
      </trkpt>
      <trkpt lat="46.9918" lon="8.66232">
        <ele>546</ele>
        <time>2021-08-05T09:48:19.448Z</time>
      </trkpt>
      <trkpt lat="46.99181" lon="8.66232">
        <ele>546</ele>
        <time>2021-08-05T09:48:20.448Z</time>
      </trkpt>
      <trkpt lat="46.99182" lon="8.66233">
        <ele>546</ele>
        <time>2021-08-05T09:48:21.448Z</time>
      </trkpt>
      <trkpt lat="46.99183" lon="8.66234">
        <ele>547</ele>
        <time>2021-08-05T09:48:22.448Z</time>
      </trkpt>
      <trkpt lat="46.99184" lon="8.66234">
        <ele>547</ele>
        <time>2021-08-05T09:48:23.448Z</time>
      </trkpt>
      <trkpt lat="46.99186" lon="8.66234">
        <ele>547</ele>
        <time>2021-08-05T09:48:24.448Z</time>
      </trkpt>
      <trkpt lat="46.99188" lon="8.66233">
        <ele>547</ele>
        <time>2021-08-05T09:48:25.448Z</time>
      </trkpt>
      <trkpt lat="46.9919" lon="8.66233">
        <ele>548</ele>
        <time>2021-08-05T09:48:26.448Z</time>
      </trkpt>
      <trkpt lat="46.99191" lon="8.66233">
        <ele>548</ele>
        <time>2021-08-05T09:48:27.448Z</time>
      </trkpt>
      <trkpt lat="46.99193" lon="8.66233">
        <ele>548</ele>
        <time>2021-08-05T09:48:28.448Z</time>
      </trkpt>
      <trkpt lat="46.99195" lon="8.66234">
        <ele>548</ele>
        <time>2021-08-05T09:48:29.448Z</time>
      </trkpt>
      <trkpt lat="46.99196" lon="8.66235">
        <ele>548</ele>
        <time>2021-08-05T09:48:30.448Z</time>
      </trkpt>
      <trkpt lat="46.99197" lon="8.66236">
        <ele>547</ele>
        <time>2021-08-05T09:48:31.448Z</time>
      </trkpt>
      <trkpt lat="46.992" lon="8.66237">
        <ele>547</ele>
        <time>2021-08-05T09:48:32.448Z</time>
      </trkpt>
      <trkpt lat="46.99202" lon="8.66238">
        <ele>547</ele>
        <time>2021-08-05T09:48:33.448Z</time>
      </trkpt>
      <trkpt lat="46.99202" lon="8.66238">
        <ele>547</ele>
        <time>2021-08-05T09:48:34.448Z</time>
      </trkpt>
      <trkpt lat="46.99202" lon="8.66238">
        <ele>547</ele>
        <time>2021-08-05T09:48:35.448Z</time>
      </trkpt>
      <trkpt lat="46.99202" lon="8.66239">
        <ele>546</ele>
        <time>2021-08-05T09:48:36.448Z</time>
      </trkpt>
      <trkpt lat="46.99202" lon="8.6624">
        <ele>546</ele>
        <time>2021-08-05T09:48:37.448Z</time>
      </trkpt>
      <trkpt lat="46.99204" lon="8.66239">
        <ele>545</ele>
        <time>2021-08-05T09:48:38.448Z</time>
      </trkpt>
      <trkpt lat="46.99205" lon="8.66239">
        <ele>545</ele>
        <time>2021-08-05T09:48:39.448Z</time>
      </trkpt>
      <trkpt lat="46.99207" lon="8.66239">
        <ele>545</ele>
        <time>2021-08-05T09:48:40.448Z</time>
      </trkpt>
      <trkpt lat="46.99208" lon="8.66239">
        <ele>544</ele>
        <time>2021-08-05T09:48:41.448Z</time>
      </trkpt>
      <trkpt lat="46.99209" lon="8.66239">
        <ele>544</ele>
        <time>2021-08-05T09:48:42.448Z</time>
      </trkpt>
      <trkpt lat="46.9921" lon="8.66239">
        <ele>544</ele>
        <time>2021-08-05T09:48:43.448Z</time>
      </trkpt>
      <trkpt lat="46.99211" lon="8.66239">
        <ele>543</ele>
        <time>2021-08-05T09:48:44.448Z</time>
      </trkpt>
      <trkpt lat="46.99212" lon="8.66239">
        <ele>544</ele>
        <time>2021-08-05T09:48:45.448Z</time>
      </trkpt>
      <trkpt lat="46.99213" lon="8.6624">
        <ele>544</ele>
        <time>2021-08-05T09:48:46.448Z</time>
      </trkpt>
      <trkpt lat="46.99214" lon="8.6624">
        <ele>544</ele>
        <time>2021-08-05T09:48:47.448Z</time>
      </trkpt>
      <trkpt lat="46.99216" lon="8.6624">
        <ele>543</ele>
        <time>2021-08-05T09:48:48.448Z</time>
      </trkpt>
      <trkpt lat="46.99217" lon="8.66241">
        <ele>543</ele>
        <time>2021-08-05T09:48:49.448Z</time>
      </trkpt>
      <trkpt lat="46.99217" lon="8.66242">
        <ele>543</ele>
        <time>2021-08-05T09:48:50.448Z</time>
      </trkpt>
      <trkpt lat="46.99218" lon="8.66243">
        <ele>543</ele>
        <time>2021-08-05T09:48:51.448Z</time>
      </trkpt>
      <trkpt lat="46.99219" lon="8.66243">
        <ele>543</ele>
        <time>2021-08-05T09:48:52.448Z</time>
      </trkpt>
      <trkpt lat="46.99222" lon="8.66243">
        <ele>544</ele>
        <time>2021-08-05T09:48:53.448Z</time>
      </trkpt>
      <trkpt lat="46.99224" lon="8.66244">
        <ele>544</ele>
        <time>2021-08-05T09:48:54.448Z</time>
      </trkpt>
      <trkpt lat="46.99225" lon="8.66245">
        <ele>544</ele>
        <time>2021-08-05T09:48:55.448Z</time>
      </trkpt>
      <trkpt lat="46.99225" lon="8.66247">
        <ele>544</ele>
        <time>2021-08-05T09:48:56.448Z</time>
      </trkpt>
      <trkpt lat="46.99226" lon="8.66248">
        <ele>544</ele>
        <time>2021-08-05T09:48:57.448Z</time>
      </trkpt>
      <trkpt lat="46.99227" lon="8.66251">
        <ele>544</ele>
        <time>2021-08-05T09:48:58.448Z</time>
      </trkpt>
      <trkpt lat="46.99228" lon="8.66253">
        <ele>544</ele>
        <time>2021-08-05T09:48:59.448Z</time>
      </trkpt>
      <trkpt lat="46.99228" lon="8.66254">
        <ele>544</ele>
        <time>2021-08-05T09:49:00.448Z</time>
      </trkpt>
      <trkpt lat="46.9923" lon="8.66254">
        <ele>544</ele>
        <time>2021-08-05T09:49:01.448Z</time>
      </trkpt>
      <trkpt lat="46.99231" lon="8.66254">
        <ele>545</ele>
        <time>2021-08-05T09:49:02.448Z</time>
      </trkpt>
      <trkpt lat="46.99232" lon="8.66253">
        <ele>545</ele>
        <time>2021-08-05T09:49:03.448Z</time>
      </trkpt>
      <trkpt lat="46.99234" lon="8.66253">
        <ele>545</ele>
        <time>2021-08-05T09:49:04.448Z</time>
      </trkpt>
      <trkpt lat="46.99234" lon="8.66253">
        <ele>545</ele>
        <time>2021-08-05T09:49:05.448Z</time>
      </trkpt>
      <trkpt lat="46.99234" lon="8.66253">
        <ele>544</ele>
        <time>2021-08-05T09:49:06.448Z</time>
      </trkpt>
      <trkpt lat="46.99234" lon="8.66254">
        <ele>544</ele>
        <time>2021-08-05T09:49:07.448Z</time>
      </trkpt>
      <trkpt lat="46.99232" lon="8.66255">
        <ele>543</ele>
        <time>2021-08-05T09:49:08.448Z</time>
      </trkpt>
      <trkpt lat="46.99231" lon="8.66257">
        <ele>537</ele>
        <time>2021-08-05T09:49:09.449Z</time>
      </trkpt>
      <trkpt lat="46.99232" lon="8.66256">
        <ele>537</ele>
        <time>2021-08-05T09:49:10.448Z</time>
      </trkpt>
      <trkpt lat="46.99233" lon="8.66255">
        <ele>537</ele>
        <time>2021-08-05T09:49:11.448Z</time>
      </trkpt>
      <trkpt lat="46.99234" lon="8.66254">
        <ele>537</ele>
        <time>2021-08-05T09:49:12.448Z</time>
      </trkpt>
      <trkpt lat="46.99234" lon="8.66253">
        <ele>542</ele>
        <time>2021-08-05T09:49:13.449Z</time>
      </trkpt>
      <trkpt lat="46.99235" lon="8.66252">
        <ele>543</ele>
        <time>2021-08-05T09:49:14.449Z</time>
      </trkpt>
      <trkpt lat="46.99235" lon="8.66251">
        <ele>544</ele>
        <time>2021-08-05T09:49:15.448Z</time>
      </trkpt>
      <trkpt lat="46.99235" lon="8.66251">
        <ele>545</ele>
        <time>2021-08-05T09:49:16.449Z</time>
      </trkpt>
      <trkpt lat="46.99235" lon="8.6625">
        <ele>546</ele>
        <time>2021-08-05T09:49:17.449Z</time>
      </trkpt>
      <trkpt lat="46.99235" lon="8.6625">
        <ele>547</ele>
        <time>2021-08-05T09:49:18.449Z</time>
      </trkpt>
      <trkpt lat="46.99233" lon="8.6625">
        <ele>548</ele>
        <time>2021-08-05T09:49:19.449Z</time>
      </trkpt>
      <trkpt lat="46.99233" lon="8.6625">
        <ele>549</ele>
        <time>2021-08-05T09:49:20.448Z</time>
      </trkpt>
      <trkpt lat="46.99234" lon="8.6625">
        <ele>550</ele>
        <time>2021-08-05T09:49:21.448Z</time>
      </trkpt>
      <trkpt lat="46.99235" lon="8.66251">
        <ele>550</ele>
        <time>2021-08-05T09:49:22.449Z</time>
      </trkpt>
      <trkpt lat="46.99236" lon="8.66251">
        <ele>551</ele>
        <time>2021-08-05T09:49:23.449Z</time>
      </trkpt>
      <trkpt lat="46.99237" lon="8.66251">
        <ele>551</ele>
        <time>2021-08-05T09:49:24.449Z</time>
      </trkpt>
      <trkpt lat="46.99238" lon="8.66251">
        <ele>552</ele>
        <time>2021-08-05T09:49:25.449Z</time>
      </trkpt>
      <trkpt lat="46.99238" lon="8.66251">
        <ele>552</ele>
        <time>2021-08-05T09:49:26.449Z</time>
      </trkpt>
      <trkpt lat="46.99238" lon="8.66251">
        <ele>552</ele>
        <time>2021-08-05T09:49:27.449Z</time>
      </trkpt>
      <trkpt lat="46.99238" lon="8.6625">
        <ele>552</ele>
        <time>2021-08-05T09:49:28.448Z</time>
      </trkpt>
      <trkpt lat="46.99239" lon="8.6625">
        <ele>552</ele>
        <time>2021-08-05T09:49:29.449Z</time>
      </trkpt>
      <trkpt lat="46.9924" lon="8.66249">
        <ele>552</ele>
        <time>2021-08-05T09:49:30.449Z</time>
      </trkpt>
      <trkpt lat="46.99241" lon="8.66249">
        <ele>552</ele>
        <time>2021-08-05T09:49:31.448Z</time>
      </trkpt>
      <trkpt lat="46.99242" lon="8.66248">
        <ele>551</ele>
        <time>2021-08-05T09:49:32.449Z</time>
      </trkpt>
      <trkpt lat="46.99242" lon="8.66248">
        <ele>551</ele>
        <time>2021-08-05T09:49:33.449Z</time>
      </trkpt>
      <trkpt lat="46.99243" lon="8.66247">
        <ele>550</ele>
        <time>2021-08-05T09:49:34.449Z</time>
      </trkpt>
      <trkpt lat="46.99244" lon="8.66246">
        <ele>550</ele>
        <time>2021-08-05T09:49:35.449Z</time>
      </trkpt>
      <trkpt lat="46.99246" lon="8.66244">
        <ele>550</ele>
        <time>2021-08-05T09:49:36.449Z</time>
      </trkpt>
      <trkpt lat="46.99247" lon="8.66244">
        <ele>549</ele>
        <time>2021-08-05T09:49:37.448Z</time>
      </trkpt>
      <trkpt lat="46.99248" lon="8.66243">
        <ele>549</ele>
        <time>2021-08-05T09:49:38.449Z</time>
      </trkpt>
      <trkpt lat="46.9925" lon="8.66242">
        <ele>548</ele>
        <time>2021-08-05T09:49:39.448Z</time>
      </trkpt>
      <trkpt lat="46.99251" lon="8.66242">
        <ele>548</ele>
        <time>2021-08-05T09:49:40.448Z</time>
      </trkpt>
      <trkpt lat="46.99251" lon="8.66242">
        <ele>547</ele>
        <time>2021-08-05T09:49:41.449Z</time>
      </trkpt>
      <trkpt lat="46.99252" lon="8.66241">
        <ele>547</ele>
        <time>2021-08-05T09:49:42.449Z</time>
      </trkpt>
      <trkpt lat="46.99252" lon="8.66241">
        <ele>546</ele>
        <time>2021-08-05T09:49:43.449Z</time>
      </trkpt>
      <trkpt lat="46.99252" lon="8.66241">
        <ele>546</ele>
        <time>2021-08-05T09:49:44.449Z</time>
      </trkpt>
      <trkpt lat="46.9925" lon="8.66237">
        <ele>544</ele>
        <time>2021-08-05T09:49:45.449Z</time>
      </trkpt>
      <trkpt lat="46.99248" lon="8.66236">
        <ele>543</ele>
        <time>2021-08-05T09:49:46.448Z</time>
      </trkpt>
      <trkpt lat="46.99246" lon="8.66235">
        <ele>543</ele>
        <time>2021-08-05T09:49:47.449Z</time>
      </trkpt>
      <trkpt lat="46.99246" lon="8.66235">
        <ele>542</ele>
        <time>2021-08-05T09:49:48.449Z</time>
      </trkpt>
      <trkpt lat="46.99246" lon="8.66234">
        <ele>541</ele>
        <time>2021-08-05T09:49:49.449Z</time>
      </trkpt>
      <trkpt lat="46.99245" lon="8.66233">
        <ele>541</ele>
        <time>2021-08-05T09:49:50.449Z</time>
      </trkpt>
      <trkpt lat="46.99246" lon="8.66232">
        <ele>540</ele>
        <time>2021-08-05T09:49:51.449Z</time>
      </trkpt>
      <trkpt lat="46.99246" lon="8.66232">
        <ele>540</ele>
        <time>2021-08-05T09:49:52.448Z</time>
      </trkpt>
      <trkpt lat="46.99246" lon="8.66232">
        <ele>539</ele>
        <time>2021-08-05T09:49:53.449Z</time>
      </trkpt>
      <trkpt lat="46.99247" lon="8.66231">
        <ele>539</ele>
        <time>2021-08-05T09:49:54.449Z</time>
      </trkpt>
      <trkpt lat="46.99249" lon="8.66231">
        <ele>539</ele>
        <time>2021-08-05T09:49:55.449Z</time>
      </trkpt>
      <trkpt lat="46.99251" lon="8.66231">
        <ele>540</ele>
        <time>2021-08-05T09:49:56.448Z</time>
      </trkpt>
      <trkpt lat="46.99253" lon="8.66231">
        <ele>540</ele>
        <time>2021-08-05T09:49:57.449Z</time>
      </trkpt>
      <trkpt lat="46.99255" lon="8.6623">
        <ele>540</ele>
        <time>2021-08-05T09:49:58.449Z</time>
      </trkpt>
      <trkpt lat="46.99258" lon="8.66231">
        <ele>540</ele>
        <time>2021-08-05T09:49:59.449Z</time>
      </trkpt>
      <trkpt lat="46.99258" lon="8.66231">
        <ele>540</ele>
        <time>2021-08-05T09:50:00.449Z</time>
      </trkpt>
      <trkpt lat="46.99259" lon="8.66231">
        <ele>540</ele>
        <time>2021-08-05T09:50:01.448Z</time>
      </trkpt>
      <trkpt lat="46.99259" lon="8.66231">
        <ele>540</ele>
        <time>2021-08-05T09:50:02.449Z</time>
      </trkpt>
      <trkpt lat="46.99259" lon="8.66231">
        <ele>540</ele>
        <time>2021-08-05T09:50:03.448Z</time>
      </trkpt>
      <trkpt lat="46.99258" lon="8.66231">
        <ele>540</ele>
        <time>2021-08-05T09:50:04.449Z</time>
      </trkpt>
      <trkpt lat="46.99259" lon="8.66231">
        <ele>540</ele>
        <time>2021-08-05T09:50:05.448Z</time>
      </trkpt>
      <trkpt lat="46.9926" lon="8.66232">
        <ele>540</ele>
        <time>2021-08-05T09:50:06.449Z</time>
      </trkpt>
      <trkpt lat="46.99261" lon="8.66232">
        <ele>540</ele>
        <time>2021-08-05T09:50:07.449Z</time>
      </trkpt>
      <trkpt lat="46.99263" lon="8.66233">
        <ele>539</ele>
        <time>2021-08-05T09:50:08.448Z</time>
      </trkpt>
      <trkpt lat="46.99264" lon="8.66233">
        <ele>539</ele>
        <time>2021-08-05T09:50:09.449Z</time>
      </trkpt>
      <trkpt lat="46.99266" lon="8.66234">
        <ele>539</ele>
        <time>2021-08-05T09:50:10.449Z</time>
      </trkpt>
      <trkpt lat="46.99267" lon="8.66234">
        <ele>539</ele>
        <time>2021-08-05T09:50:11.448Z</time>
      </trkpt>
      <trkpt lat="46.99268" lon="8.66235">
        <ele>539</ele>
        <time>2021-08-05T09:50:12.449Z</time>
      </trkpt>
      <trkpt lat="46.99269" lon="8.66235">
        <ele>539</ele>
        <time>2021-08-05T09:50:13.449Z</time>
      </trkpt>
      <trkpt lat="46.99271" lon="8.66236">
        <ele>540</ele>
        <time>2021-08-05T09:50:14.449Z</time>
      </trkpt>
      <trkpt lat="46.99271" lon="8.66236">
        <ele>540</ele>
        <time>2021-08-05T09:50:15.449Z</time>
      </trkpt>
      <trkpt lat="46.99271" lon="8.66237">
        <ele>540</ele>
        <time>2021-08-05T09:50:16.448Z</time>
      </trkpt>
      <trkpt lat="46.99272" lon="8.66237">
        <ele>540</ele>
        <time>2021-08-05T09:50:17.449Z</time>
      </trkpt>
      <trkpt lat="46.99273" lon="8.66235">
        <ele>540</ele>
        <time>2021-08-05T09:50:18.448Z</time>
      </trkpt>
      <trkpt lat="46.99274" lon="8.66234">
        <ele>540</ele>
        <time>2021-08-05T09:50:19.449Z</time>
      </trkpt>
      <trkpt lat="46.99275" lon="8.66234">
        <ele>540</ele>
        <time>2021-08-05T09:50:20.448Z</time>
      </trkpt>
      <trkpt lat="46.99275" lon="8.66235">
        <ele>540</ele>
        <time>2021-08-05T09:50:21.449Z</time>
      </trkpt>
      <trkpt lat="46.99275" lon="8.66236">
        <ele>540</ele>
        <time>2021-08-05T09:50:22.449Z</time>
      </trkpt>
      <trkpt lat="46.99275" lon="8.66237">
        <ele>540</ele>
        <time>2021-08-05T09:50:23.448Z</time>
      </trkpt>
      <trkpt lat="46.99275" lon="8.66238">
        <ele>540</ele>
        <time>2021-08-05T09:50:24.448Z</time>
      </trkpt>
      <trkpt lat="46.99275" lon="8.66239">
        <ele>540</ele>
        <time>2021-08-05T09:50:25.448Z</time>
      </trkpt>
      <trkpt lat="46.99275" lon="8.66239">
        <ele>540</ele>
        <time>2021-08-05T09:50:26.448Z</time>
      </trkpt>
      <trkpt lat="46.99275" lon="8.6624">
        <ele>541</ele>
        <time>2021-08-05T09:50:27.449Z</time>
      </trkpt>
      <trkpt lat="46.99275" lon="8.6624">
        <ele>541</ele>
        <time>2021-08-05T09:50:28.448Z</time>
      </trkpt>
      <trkpt lat="46.99276" lon="8.6624">
        <ele>541</ele>
        <time>2021-08-05T09:50:29.448Z</time>
      </trkpt>
      <trkpt lat="46.99276" lon="8.66241">
        <ele>541</ele>
        <time>2021-08-05T09:50:30.448Z</time>
      </trkpt>
      <trkpt lat="46.99276" lon="8.66242">
        <ele>540</ele>
        <time>2021-08-05T09:50:31.448Z</time>
      </trkpt>
      <trkpt lat="46.99276" lon="8.66243">
        <ele>540</ele>
        <time>2021-08-05T09:50:32.449Z</time>
      </trkpt>
      <trkpt lat="46.99277" lon="8.66243">
        <ele>540</ele>
        <time>2021-08-05T09:50:33.448Z</time>
      </trkpt>
      <trkpt lat="46.99278" lon="8.66244">
        <ele>540</ele>
        <time>2021-08-05T09:50:34.448Z</time>
      </trkpt>
      <trkpt lat="46.99278" lon="8.66245">
        <ele>540</ele>
        <time>2021-08-05T09:50:35.448Z</time>
      </trkpt>
      <trkpt lat="46.99279" lon="8.66246">
        <ele>540</ele>
        <time>2021-08-05T09:50:36.448Z</time>
      </trkpt>
      <trkpt lat="46.9928" lon="8.66247">
        <ele>540</ele>
        <time>2021-08-05T09:50:37.448Z</time>
      </trkpt>
      <trkpt lat="46.99281" lon="8.66248">
        <ele>540</ele>
        <time>2021-08-05T09:50:38.448Z</time>
      </trkpt>
      <trkpt lat="46.99281" lon="8.66248">
        <ele>540</ele>
        <time>2021-08-05T09:50:39.448Z</time>
      </trkpt>
      <trkpt lat="46.99281" lon="8.66249">
        <ele>540</ele>
        <time>2021-08-05T09:50:40.448Z</time>
      </trkpt>
      <trkpt lat="46.99281" lon="8.6625">
        <ele>540</ele>
        <time>2021-08-05T09:50:41.448Z</time>
      </trkpt>
      <trkpt lat="46.99281" lon="8.66251">
        <ele>540</ele>
        <time>2021-08-05T09:50:42.448Z</time>
      </trkpt>
      <trkpt lat="46.9928" lon="8.66252">
        <ele>540</ele>
        <time>2021-08-05T09:50:43.449Z</time>
      </trkpt>
      <trkpt lat="46.99279" lon="8.66254">
        <ele>540</ele>
        <time>2021-08-05T09:50:44.448Z</time>
      </trkpt>
      <trkpt lat="46.99279" lon="8.66255">
        <ele>540</ele>
        <time>2021-08-05T09:50:45.448Z</time>
      </trkpt>
      <trkpt lat="46.99279" lon="8.66258">
        <ele>540</ele>
        <time>2021-08-05T09:50:46.448Z</time>
      </trkpt>
      <trkpt lat="46.99279" lon="8.66261">
        <ele>540</ele>
        <time>2021-08-05T09:50:47.449Z</time>
      </trkpt>
      <trkpt lat="46.9928" lon="8.66264">
        <ele>540</ele>
        <time>2021-08-05T09:50:48.448Z</time>
      </trkpt>
      <trkpt lat="46.9928" lon="8.66266">
        <ele>540</ele>
        <time>2021-08-05T09:50:49.448Z</time>
      </trkpt>
      <trkpt lat="46.9928" lon="8.66268">
        <ele>540</ele>
        <time>2021-08-05T09:50:50.449Z</time>
      </trkpt>
      <trkpt lat="46.99279" lon="8.6627">
        <ele>540</ele>
        <time>2021-08-05T09:50:51.449Z</time>
      </trkpt>
      <trkpt lat="46.99279" lon="8.66272">
        <ele>540</ele>
        <time>2021-08-05T09:50:52.449Z</time>
      </trkpt>
      <trkpt lat="46.99279" lon="8.66273">
        <ele>539</ele>
        <time>2021-08-05T09:50:53.448Z</time>
      </trkpt>
      <trkpt lat="46.99279" lon="8.66274">
        <ele>539</ele>
        <time>2021-08-05T09:50:54.449Z</time>
      </trkpt>
      <trkpt lat="46.99279" lon="8.66276">
        <ele>538</ele>
        <time>2021-08-05T09:50:55.449Z</time>
      </trkpt>
      <trkpt lat="46.99278" lon="8.66278">
        <ele>537</ele>
        <time>2021-08-05T09:50:56.449Z</time>
      </trkpt>
      <trkpt lat="46.99279" lon="8.66279">
        <ele>537</ele>
        <time>2021-08-05T09:50:57.449Z</time>
      </trkpt>
      <trkpt lat="46.9928" lon="8.66281">
        <ele>536</ele>
        <time>2021-08-05T09:50:58.449Z</time>
      </trkpt>
      <trkpt lat="46.9928" lon="8.66283">
        <ele>535</ele>
        <time>2021-08-05T09:50:59.448Z</time>
      </trkpt>
      <trkpt lat="46.99279" lon="8.66286">
        <ele>535</ele>
        <time>2021-08-05T09:51:00.449Z</time>
      </trkpt>
      <trkpt lat="46.99279" lon="8.66289">
        <ele>535</ele>
        <time>2021-08-05T09:51:01.449Z</time>
      </trkpt>
      <trkpt lat="46.99279" lon="8.66291">
        <ele>534</ele>
        <time>2021-08-05T09:51:02.448Z</time>
      </trkpt>
      <trkpt lat="46.99281" lon="8.66293">
        <ele>534</ele>
        <time>2021-08-05T09:51:03.449Z</time>
      </trkpt>
      <trkpt lat="46.99282" lon="8.66294">
        <ele>533</ele>
        <time>2021-08-05T09:51:04.448Z</time>
      </trkpt>
      <trkpt lat="46.99282" lon="8.66294">
        <ele>533</ele>
        <time>2021-08-05T09:51:05.449Z</time>
      </trkpt>
      <trkpt lat="46.99281" lon="8.66295">
        <ele>533</ele>
        <time>2021-08-05T09:51:06.449Z</time>
      </trkpt>
      <trkpt lat="46.99281" lon="8.66297">
        <ele>533</ele>
        <time>2021-08-05T09:51:07.448Z</time>
      </trkpt>
      <trkpt lat="46.99281" lon="8.663">
        <ele>533</ele>
        <time>2021-08-05T09:51:08.448Z</time>
      </trkpt>
      <trkpt lat="46.99279" lon="8.66302">
        <ele>532</ele>
        <time>2021-08-05T09:51:09.449Z</time>
      </trkpt>
      <trkpt lat="46.99277" lon="8.66306">
        <ele>532</ele>
        <time>2021-08-05T09:51:10.450Z</time>
      </trkpt>
      <trkpt lat="46.99275" lon="8.66308">
        <ele>532</ele>
        <time>2021-08-05T09:51:11.450Z</time>
      </trkpt>
      <trkpt lat="46.99275" lon="8.66309">
        <ele>532</ele>
        <time>2021-08-05T09:51:12.450Z</time>
      </trkpt>
      <trkpt lat="46.99276" lon="8.66309">
        <ele>532</ele>
        <time>2021-08-05T09:51:13.450Z</time>
      </trkpt>
      <trkpt lat="46.99276" lon="8.6631">
        <ele>532</ele>
        <time>2021-08-05T09:51:14.450Z</time>
      </trkpt>
      <trkpt lat="46.99276" lon="8.66311">
        <ele>532</ele>
        <time>2021-08-05T09:51:15.449Z</time>
      </trkpt>
      <trkpt lat="46.99276" lon="8.66312">
        <ele>532</ele>
        <time>2021-08-05T09:51:16.449Z</time>
      </trkpt>
      <trkpt lat="46.99276" lon="8.66313">
        <ele>532</ele>
        <time>2021-08-05T09:51:17.449Z</time>
      </trkpt>
      <trkpt lat="46.99276" lon="8.66313">
        <ele>533</ele>
        <time>2021-08-05T09:51:18.450Z</time>
      </trkpt>
      <trkpt lat="46.99276" lon="8.66315">
        <ele>533</ele>
        <time>2021-08-05T09:51:19.450Z</time>
      </trkpt>
      <trkpt lat="46.99275" lon="8.66315">
        <ele>533</ele>
        <time>2021-08-05T09:51:20.450Z</time>
      </trkpt>
      <trkpt lat="46.99273" lon="8.66315">
        <ele>534</ele>
        <time>2021-08-05T09:51:21.450Z</time>
      </trkpt>
      <trkpt lat="46.99273" lon="8.66316">
        <ele>534</ele>
        <time>2021-08-05T09:51:22.449Z</time>
      </trkpt>
      <trkpt lat="46.99272" lon="8.66316">
        <ele>534</ele>
        <time>2021-08-05T09:51:23.449Z</time>
      </trkpt>
      <trkpt lat="46.99272" lon="8.66317">
        <ele>534</ele>
        <time>2021-08-05T09:51:24.450Z</time>
      </trkpt>
      <trkpt lat="46.99271" lon="8.66318">
        <ele>534</ele>
        <time>2021-08-05T09:51:25.450Z</time>
      </trkpt>
      <trkpt lat="46.9927" lon="8.66319">
        <ele>534</ele>
        <time>2021-08-05T09:51:26.449Z</time>
      </trkpt>
      <trkpt lat="46.99268" lon="8.6632">
        <ele>534</ele>
        <time>2021-08-05T09:51:27.450Z</time>
      </trkpt>
      <trkpt lat="46.99268" lon="8.66321">
        <ele>534</ele>
        <time>2021-08-05T09:51:28.450Z</time>
      </trkpt>
      <trkpt lat="46.99267" lon="8.66322">
        <ele>534</ele>
        <time>2021-08-05T09:51:29.450Z</time>
      </trkpt>
      <trkpt lat="46.99267" lon="8.66323">
        <ele>534</ele>
        <time>2021-08-05T09:51:30.450Z</time>
      </trkpt>
      <trkpt lat="46.99266" lon="8.66324">
        <ele>533</ele>
        <time>2021-08-05T09:51:31.450Z</time>
      </trkpt>
      <trkpt lat="46.99265" lon="8.66325">
        <ele>533</ele>
        <time>2021-08-05T09:51:32.449Z</time>
      </trkpt>
      <trkpt lat="46.99264" lon="8.66326">
        <ele>533</ele>
        <time>2021-08-05T09:51:33.450Z</time>
      </trkpt>
      <trkpt lat="46.99263" lon="8.66327">
        <ele>533</ele>
        <time>2021-08-05T09:51:34.449Z</time>
      </trkpt>
      <trkpt lat="46.99263" lon="8.66327">
        <ele>534</ele>
        <time>2021-08-05T09:51:35.449Z</time>
      </trkpt>
      <trkpt lat="46.99263" lon="8.66326">
        <ele>534</ele>
        <time>2021-08-05T09:51:36.450Z</time>
      </trkpt>
      <trkpt lat="46.99264" lon="8.66326">
        <ele>534</ele>
        <time>2021-08-05T09:51:37.450Z</time>
      </trkpt>
      <trkpt lat="46.99263" lon="8.66327">
        <ele>534</ele>
        <time>2021-08-05T09:51:38.450Z</time>
      </trkpt>
      <trkpt lat="46.99263" lon="8.66327">
        <ele>535</ele>
        <time>2021-08-05T09:51:39.450Z</time>
      </trkpt>
      <trkpt lat="46.99262" lon="8.66328">
        <ele>535</ele>
        <time>2021-08-05T09:51:40.449Z</time>
      </trkpt>
      <trkpt lat="46.9926" lon="8.6633">
        <ele>535</ele>
        <time>2021-08-05T09:51:41.450Z</time>
      </trkpt>
      <trkpt lat="46.99259" lon="8.66332">
        <ele>535</ele>
        <time>2021-08-05T09:51:42.450Z</time>
      </trkpt>
      <trkpt lat="46.99257" lon="8.66333">
        <ele>534</ele>
        <time>2021-08-05T09:51:43.450Z</time>
      </trkpt>
      <trkpt lat="46.99256" lon="8.66334">
        <ele>533</ele>
        <time>2021-08-05T09:51:44.449Z</time>
      </trkpt>
      <trkpt lat="46.99256" lon="8.66335">
        <ele>533</ele>
        <time>2021-08-05T09:51:45.449Z</time>
      </trkpt>
      <trkpt lat="46.99256" lon="8.66335">
        <ele>532</ele>
        <time>2021-08-05T09:51:46.450Z</time>
      </trkpt>
      <trkpt lat="46.99255" lon="8.66336">
        <ele>532</ele>
        <time>2021-08-05T09:51:47.450Z</time>
      </trkpt>
      <trkpt lat="46.99255" lon="8.66337">
        <ele>531</ele>
        <time>2021-08-05T09:51:48.450Z</time>
      </trkpt>
      <trkpt lat="46.99255" lon="8.66338">
        <ele>531</ele>
        <time>2021-08-05T09:51:49.450Z</time>
      </trkpt>
      <trkpt lat="46.99255" lon="8.66339">
        <ele>531</ele>
        <time>2021-08-05T09:51:50.450Z</time>
      </trkpt>
      <trkpt lat="46.99254" lon="8.6634">
        <ele>530</ele>
        <time>2021-08-05T09:51:51.449Z</time>
      </trkpt>
      <trkpt lat="46.99253" lon="8.66341">
        <ele>529</ele>
        <time>2021-08-05T09:51:52.449Z</time>
      </trkpt>
      <trkpt lat="46.99253" lon="8.66342">
        <ele>529</ele>
        <time>2021-08-05T09:51:53.450Z</time>
      </trkpt>
      <trkpt lat="46.99253" lon="8.66343">
        <ele>528</ele>
        <time>2021-08-05T09:51:54.449Z</time>
      </trkpt>
      <trkpt lat="46.99253" lon="8.66344">
        <ele>528</ele>
        <time>2021-08-05T09:51:55.450Z</time>
      </trkpt>
      <trkpt lat="46.99252" lon="8.66345">
        <ele>527</ele>
        <time>2021-08-05T09:51:56.450Z</time>
      </trkpt>
      <trkpt lat="46.99252" lon="8.66347">
        <ele>527</ele>
        <time>2021-08-05T09:51:57.450Z</time>
      </trkpt>
      <trkpt lat="46.99252" lon="8.66348">
        <ele>527</ele>
        <time>2021-08-05T09:51:58.450Z</time>
      </trkpt>
      <trkpt lat="46.99252" lon="8.66349">
        <ele>526</ele>
        <time>2021-08-05T09:51:59.450Z</time>
      </trkpt>
      <trkpt lat="46.99252" lon="8.66351">
        <ele>526</ele>
        <time>2021-08-05T09:52:00.450Z</time>
      </trkpt>
      <trkpt lat="46.9925" lon="8.66352">
        <ele>525</ele>
        <time>2021-08-05T09:52:01.449Z</time>
      </trkpt>
      <trkpt lat="46.99249" lon="8.66354">
        <ele>525</ele>
        <time>2021-08-05T09:52:02.450Z</time>
      </trkpt>
      <trkpt lat="46.99249" lon="8.66355">
        <ele>525</ele>
        <time>2021-08-05T09:52:03.450Z</time>
      </trkpt>
      <trkpt lat="46.99249" lon="8.66355">
        <ele>525</ele>
        <time>2021-08-05T09:52:04.450Z</time>
      </trkpt>
      <trkpt lat="46.9925" lon="8.66356">
        <ele>526</ele>
        <time>2021-08-05T09:52:05.449Z</time>
      </trkpt>
      <trkpt lat="46.99249" lon="8.66358">
        <ele>526</ele>
        <time>2021-08-05T09:52:06.450Z</time>
      </trkpt>
      <trkpt lat="46.99248" lon="8.66359">
        <ele>527</ele>
        <time>2021-08-05T09:52:07.450Z</time>
      </trkpt>
      <trkpt lat="46.99248" lon="8.6636">
        <ele>528</ele>
        <time>2021-08-05T09:52:08.450Z</time>
      </trkpt>
      <trkpt lat="46.99249" lon="8.6636">
        <ele>528</ele>
        <time>2021-08-05T09:52:09.450Z</time>
      </trkpt>
      <trkpt lat="46.99249" lon="8.66361">
        <ele>529</ele>
        <time>2021-08-05T09:52:10.450Z</time>
      </trkpt>
      <trkpt lat="46.99249" lon="8.66362">
        <ele>530</ele>
        <time>2021-08-05T09:52:11.450Z</time>
      </trkpt>
      <trkpt lat="46.99249" lon="8.66364">
        <ele>530</ele>
        <time>2021-08-05T09:52:12.450Z</time>
      </trkpt>
      <trkpt lat="46.99248" lon="8.66366">
        <ele>530</ele>
        <time>2021-08-05T09:52:13.450Z</time>
      </trkpt>
      <trkpt lat="46.99248" lon="8.66367">
        <ele>531</ele>
        <time>2021-08-05T09:52:14.450Z</time>
      </trkpt>
      <trkpt lat="46.99248" lon="8.66368">
        <ele>531</ele>
        <time>2021-08-05T09:52:15.450Z</time>
      </trkpt>
      <trkpt lat="46.99248" lon="8.66369">
        <ele>532</ele>
        <time>2021-08-05T09:52:16.450Z</time>
      </trkpt>
      <trkpt lat="46.99248" lon="8.66369">
        <ele>533</ele>
        <time>2021-08-05T09:52:17.450Z</time>
      </trkpt>
      <trkpt lat="46.99249" lon="8.6637">
        <ele>534</ele>
        <time>2021-08-05T09:52:18.450Z</time>
      </trkpt>
      <trkpt lat="46.9925" lon="8.66372">
        <ele>535</ele>
        <time>2021-08-05T09:52:19.449Z</time>
      </trkpt>
      <trkpt lat="46.9925" lon="8.66373">
        <ele>535</ele>
        <time>2021-08-05T09:52:20.449Z</time>
      </trkpt>
      <trkpt lat="46.9925" lon="8.66375">
        <ele>536</ele>
        <time>2021-08-05T09:52:21.449Z</time>
      </trkpt>
      <trkpt lat="46.9925" lon="8.66376">
        <ele>537</ele>
        <time>2021-08-05T09:52:22.449Z</time>
      </trkpt>
      <trkpt lat="46.9925" lon="8.66378">
        <ele>538</ele>
        <time>2021-08-05T09:52:23.450Z</time>
      </trkpt>
      <trkpt lat="46.99249" lon="8.6638">
        <ele>539</ele>
        <time>2021-08-05T09:52:24.450Z</time>
      </trkpt>
      <trkpt lat="46.99249" lon="8.66382">
        <ele>540</ele>
        <time>2021-08-05T09:52:25.450Z</time>
      </trkpt>
      <trkpt lat="46.99249" lon="8.66383">
        <ele>540</ele>
        <time>2021-08-05T09:52:26.450Z</time>
      </trkpt>
      <trkpt lat="46.9925" lon="8.66384">
        <ele>541</ele>
        <time>2021-08-05T09:52:27.450Z</time>
      </trkpt>
      <trkpt lat="46.9925" lon="8.66385">
        <ele>542</ele>
        <time>2021-08-05T09:52:28.450Z</time>
      </trkpt>
      <trkpt lat="46.99251" lon="8.66386">
        <ele>542</ele>
        <time>2021-08-05T09:52:29.450Z</time>
      </trkpt>
      <trkpt lat="46.99251" lon="8.66387">
        <ele>543</ele>
        <time>2021-08-05T09:52:30.449Z</time>
      </trkpt>
      <trkpt lat="46.99251" lon="8.66388">
        <ele>544</ele>
        <time>2021-08-05T09:52:31.449Z</time>
      </trkpt>
      <trkpt lat="46.9925" lon="8.66389">
        <ele>544</ele>
        <time>2021-08-05T09:52:32.450Z</time>
      </trkpt>
      <trkpt lat="46.9925" lon="8.66391">
        <ele>544</ele>
        <time>2021-08-05T09:52:33.450Z</time>
      </trkpt>
      <trkpt lat="46.9925" lon="8.66392">
        <ele>545</ele>
        <time>2021-08-05T09:52:34.450Z</time>
      </trkpt>
      <trkpt lat="46.99249" lon="8.66392">
        <ele>545</ele>
        <time>2021-08-05T09:52:35.449Z</time>
      </trkpt>
      <trkpt lat="46.9925" lon="8.66393">
        <ele>546</ele>
        <time>2021-08-05T09:52:36.449Z</time>
      </trkpt>
      <trkpt lat="46.9925" lon="8.66394">
        <ele>547</ele>
        <time>2021-08-05T09:52:37.449Z</time>
      </trkpt>
      <trkpt lat="46.99251" lon="8.66395">
        <ele>547</ele>
        <time>2021-08-05T09:52:38.449Z</time>
      </trkpt>
      <trkpt lat="46.99252" lon="8.66395">
        <ele>548</ele>
        <time>2021-08-05T09:52:39.450Z</time>
      </trkpt>
      <trkpt lat="46.99253" lon="8.66397">
        <ele>549</ele>
        <time>2021-08-05T09:52:40.449Z</time>
      </trkpt>
      <trkpt lat="46.99253" lon="8.66398">
        <ele>549</ele>
        <time>2021-08-05T09:52:41.450Z</time>
      </trkpt>
      <trkpt lat="46.99254" lon="8.66398">
        <ele>550</ele>
        <time>2021-08-05T09:52:42.449Z</time>
      </trkpt>
      <trkpt lat="46.99254" lon="8.66398">
        <ele>550</ele>
        <time>2021-08-05T09:52:43.450Z</time>
      </trkpt>
      <trkpt lat="46.99254" lon="8.66397">
        <ele>550</ele>
        <time>2021-08-05T09:52:44.450Z</time>
      </trkpt>
      <trkpt lat="46.99254" lon="8.66395">
        <ele>550</ele>
        <time>2021-08-05T09:52:45.450Z</time>
      </trkpt>
      <trkpt lat="46.99254" lon="8.66394">
        <ele>550</ele>
        <time>2021-08-05T09:52:46.449Z</time>
      </trkpt>
      <trkpt lat="46.99255" lon="8.66393">
        <ele>550</ele>
        <time>2021-08-05T09:52:47.449Z</time>
      </trkpt>
      <trkpt lat="46.99255" lon="8.66393">
        <ele>550</ele>
        <time>2021-08-05T09:52:48.449Z</time>
      </trkpt>
      <trkpt lat="46.99255" lon="8.66394">
        <ele>550</ele>
        <time>2021-08-05T09:52:49.449Z</time>
      </trkpt>
      <trkpt lat="46.99254" lon="8.66395">
        <ele>550</ele>
        <time>2021-08-05T09:52:50.449Z</time>
      </trkpt>
      <trkpt lat="46.99254" lon="8.66397">
        <ele>550</ele>
        <time>2021-08-05T09:52:51.450Z</time>
      </trkpt>
      <trkpt lat="46.99253" lon="8.66398">
        <ele>550</ele>
        <time>2021-08-05T09:52:52.450Z</time>
      </trkpt>
      <trkpt lat="46.99253" lon="8.66399">
        <ele>550</ele>
        <time>2021-08-05T09:52:53.450Z</time>
      </trkpt>
      <trkpt lat="46.99252" lon="8.66399">
        <ele>550</ele>
        <time>2021-08-05T09:52:54.450Z</time>
      </trkpt>
      <trkpt lat="46.99253" lon="8.664">
        <ele>550</ele>
        <time>2021-08-05T09:52:55.450Z</time>
      </trkpt>
      <trkpt lat="46.99253" lon="8.66401">
        <ele>550</ele>
        <time>2021-08-05T09:52:56.449Z</time>
      </trkpt>
      <trkpt lat="46.99253" lon="8.66402">
        <ele>550</ele>
        <time>2021-08-05T09:52:57.449Z</time>
      </trkpt>
      <trkpt lat="46.99253" lon="8.66404">
        <ele>550</ele>
        <time>2021-08-05T09:52:58.449Z</time>
      </trkpt>
      <trkpt lat="46.99252" lon="8.66406">
        <ele>550</ele>
        <time>2021-08-05T09:52:59.449Z</time>
      </trkpt>
      <trkpt lat="46.99252" lon="8.66407">
        <ele>550</ele>
        <time>2021-08-05T09:53:00.450Z</time>
      </trkpt>
      <trkpt lat="46.99253" lon="8.66409">
        <ele>550</ele>
        <time>2021-08-05T09:53:01.450Z</time>
      </trkpt>
      <trkpt lat="46.99253" lon="8.66411">
        <ele>550</ele>
        <time>2021-08-05T09:53:02.449Z</time>
      </trkpt>
      <trkpt lat="46.99252" lon="8.66414">
        <ele>549</ele>
        <time>2021-08-05T09:53:03.449Z</time>
      </trkpt>
      <trkpt lat="46.99253" lon="8.66416">
        <ele>549</ele>
        <time>2021-08-05T09:53:04.450Z</time>
      </trkpt>
      <trkpt lat="46.99252" lon="8.66419">
        <ele>549</ele>
        <time>2021-08-05T09:53:05.450Z</time>
      </trkpt>
      <trkpt lat="46.99252" lon="8.66423">
        <ele>549</ele>
        <time>2021-08-05T09:53:06.450Z</time>
      </trkpt>
      <trkpt lat="46.99253" lon="8.66426">
        <ele>548</ele>
        <time>2021-08-05T09:53:07.450Z</time>
      </trkpt>
      <trkpt lat="46.99254" lon="8.66427">
        <ele>548</ele>
        <time>2021-08-05T09:53:08.450Z</time>
      </trkpt>
      <trkpt lat="46.99254" lon="8.66428">
        <ele>548</ele>
        <time>2021-08-05T09:53:09.450Z</time>
      </trkpt>
      <trkpt lat="46.99253" lon="8.6643">
        <ele>547</ele>
        <time>2021-08-05T09:53:10.450Z</time>
      </trkpt>
      <trkpt lat="46.99254" lon="8.6643">
        <ele>547</ele>
        <time>2021-08-05T09:53:11.450Z</time>
      </trkpt>
      <trkpt lat="46.99254" lon="8.6643">
        <ele>547</ele>
        <time>2021-08-05T09:53:12.449Z</time>
      </trkpt>
      <trkpt lat="46.99256" lon="8.6643">
        <ele>547</ele>
        <time>2021-08-05T09:53:13.449Z</time>
      </trkpt>
      <trkpt lat="46.99256" lon="8.66432">
        <ele>547</ele>
        <time>2021-08-05T09:53:14.450Z</time>
      </trkpt>
      <trkpt lat="46.99257" lon="8.66433">
        <ele>547</ele>
        <time>2021-08-05T09:53:15.450Z</time>
      </trkpt>
      <trkpt lat="46.99257" lon="8.66435">
        <ele>547</ele>
        <time>2021-08-05T09:53:16.450Z</time>
      </trkpt>
      <trkpt lat="46.99258" lon="8.66436">
        <ele>547</ele>
        <time>2021-08-05T09:53:17.450Z</time>
      </trkpt>
      <trkpt lat="46.9926" lon="8.66437">
        <ele>547</ele>
        <time>2021-08-05T09:53:18.449Z</time>
      </trkpt>
      <trkpt lat="46.9926" lon="8.66438">
        <ele>547</ele>
        <time>2021-08-05T09:53:19.450Z</time>
      </trkpt>
      <trkpt lat="46.99261" lon="8.66439">
        <ele>547</ele>
        <time>2021-08-05T09:53:20.449Z</time>
      </trkpt>
      <trkpt lat="46.99261" lon="8.6644">
        <ele>547</ele>
        <time>2021-08-05T09:53:21.449Z</time>
      </trkpt>
      <trkpt lat="46.99261" lon="8.66442">
        <ele>547</ele>
        <time>2021-08-05T09:53:22.450Z</time>
      </trkpt>
      <trkpt lat="46.99261" lon="8.66443">
        <ele>547</ele>
        <time>2021-08-05T09:53:23.449Z</time>
      </trkpt>
      <trkpt lat="46.99262" lon="8.66445">
        <ele>547</ele>
        <time>2021-08-05T09:53:24.450Z</time>
      </trkpt>
      <trkpt lat="46.99263" lon="8.66446">
        <ele>547</ele>
        <time>2021-08-05T09:53:25.450Z</time>
      </trkpt>
      <trkpt lat="46.99265" lon="8.66446">
        <ele>547</ele>
        <time>2021-08-05T09:53:26.450Z</time>
      </trkpt>
      <trkpt lat="46.99266" lon="8.66447">
        <ele>547</ele>
        <time>2021-08-05T09:53:27.450Z</time>
      </trkpt>
      <trkpt lat="46.99266" lon="8.66448">
        <ele>546</ele>
        <time>2021-08-05T09:53:28.450Z</time>
      </trkpt>
      <trkpt lat="46.99266" lon="8.66449">
        <ele>546</ele>
        <time>2021-08-05T09:53:29.450Z</time>
      </trkpt>
      <trkpt lat="46.99266" lon="8.6645">
        <ele>545</ele>
        <time>2021-08-05T09:53:30.450Z</time>
      </trkpt>
      <trkpt lat="46.99266" lon="8.66451">
        <ele>544</ele>
        <time>2021-08-05T09:53:31.450Z</time>
      </trkpt>
      <trkpt lat="46.99266" lon="8.66452">
        <ele>544</ele>
        <time>2021-08-05T09:53:32.450Z</time>
      </trkpt>
      <trkpt lat="46.99266" lon="8.66453">
        <ele>543</ele>
        <time>2021-08-05T09:53:33.450Z</time>
      </trkpt>
      <trkpt lat="46.99266" lon="8.66455">
        <ele>542</ele>
        <time>2021-08-05T09:53:34.450Z</time>
      </trkpt>
      <trkpt lat="46.99266" lon="8.66456">
        <ele>542</ele>
        <time>2021-08-05T09:53:35.449Z</time>
      </trkpt>
      <trkpt lat="46.99266" lon="8.66458">
        <ele>542</ele>
        <time>2021-08-05T09:53:36.450Z</time>
      </trkpt>
      <trkpt lat="46.99266" lon="8.66459">
        <ele>541</ele>
        <time>2021-08-05T09:53:37.450Z</time>
      </trkpt>
      <trkpt lat="46.99266" lon="8.66461">
        <ele>541</ele>
        <time>2021-08-05T09:53:38.450Z</time>
      </trkpt>
      <trkpt lat="46.99266" lon="8.66463">
        <ele>541</ele>
        <time>2021-08-05T09:53:39.450Z</time>
      </trkpt>
      <trkpt lat="46.99266" lon="8.66465">
        <ele>540</ele>
        <time>2021-08-05T09:53:40.449Z</time>
      </trkpt>
      <trkpt lat="46.99266" lon="8.66466">
        <ele>540</ele>
        <time>2021-08-05T09:53:41.450Z</time>
      </trkpt>
      <trkpt lat="46.99267" lon="8.66468">
        <ele>540</ele>
        <time>2021-08-05T09:53:42.450Z</time>
      </trkpt>
      <trkpt lat="46.99268" lon="8.66469">
        <ele>539</ele>
        <time>2021-08-05T09:53:43.450Z</time>
      </trkpt>
      <trkpt lat="46.99269" lon="8.6647">
        <ele>539</ele>
        <time>2021-08-05T09:53:44.450Z</time>
      </trkpt>
      <trkpt lat="46.99269" lon="8.66472">
        <ele>539</ele>
        <time>2021-08-05T09:53:45.450Z</time>
      </trkpt>
      <trkpt lat="46.9927" lon="8.66474">
        <ele>539</ele>
        <time>2021-08-05T09:53:46.449Z</time>
      </trkpt>
      <trkpt lat="46.9927" lon="8.66476">
        <ele>539</ele>
        <time>2021-08-05T09:53:47.450Z</time>
      </trkpt>
      <trkpt lat="46.99269" lon="8.66479">
        <ele>539</ele>
        <time>2021-08-05T09:53:48.450Z</time>
      </trkpt>
      <trkpt lat="46.99268" lon="8.66482">
        <ele>539</ele>
        <time>2021-08-05T09:53:49.449Z</time>
      </trkpt>
      <trkpt lat="46.99268" lon="8.66484">
        <ele>538</ele>
        <time>2021-08-05T09:53:50.449Z</time>
      </trkpt>
      <trkpt lat="46.99269" lon="8.66485">
        <ele>538</ele>
        <time>2021-08-05T09:53:51.449Z</time>
      </trkpt>
      <trkpt lat="46.99269" lon="8.66487">
        <ele>538</ele>
        <time>2021-08-05T09:53:52.450Z</time>
      </trkpt>
      <trkpt lat="46.9927" lon="8.66488">
        <ele>537</ele>
        <time>2021-08-05T09:53:53.450Z</time>
      </trkpt>
      <trkpt lat="46.99271" lon="8.6649">
        <ele>537</ele>
        <time>2021-08-05T09:53:54.450Z</time>
      </trkpt>
      <trkpt lat="46.99272" lon="8.66492">
        <ele>537</ele>
        <time>2021-08-05T09:53:55.450Z</time>
      </trkpt>
      <trkpt lat="46.99272" lon="8.66493">
        <ele>537</ele>
        <time>2021-08-05T09:53:56.450Z</time>
      </trkpt>
      <trkpt lat="46.99272" lon="8.66495">
        <ele>537</ele>
        <time>2021-08-05T09:53:57.450Z</time>
      </trkpt>
      <trkpt lat="46.99271" lon="8.66496">
        <ele>537</ele>
        <time>2021-08-05T09:53:58.450Z</time>
      </trkpt>
      <trkpt lat="46.99271" lon="8.66498">
        <ele>537</ele>
        <time>2021-08-05T09:53:59.450Z</time>
      </trkpt>
      <trkpt lat="46.99271" lon="8.665">
        <ele>537</ele>
        <time>2021-08-05T09:54:00.449Z</time>
      </trkpt>
      <trkpt lat="46.99271" lon="8.66501">
        <ele>536</ele>
        <time>2021-08-05T09:54:01.450Z</time>
      </trkpt>
      <trkpt lat="46.99272" lon="8.66501">
        <ele>536</ele>
        <time>2021-08-05T09:54:02.449Z</time>
      </trkpt>
      <trkpt lat="46.99272" lon="8.66502">
        <ele>536</ele>
        <time>2021-08-05T09:54:03.450Z</time>
      </trkpt>
      <trkpt lat="46.99273" lon="8.66502">
        <ele>537</ele>
        <time>2021-08-05T09:54:04.450Z</time>
      </trkpt>
      <trkpt lat="46.99274" lon="8.66503">
        <ele>537</ele>
        <time>2021-08-05T09:54:05.450Z</time>
      </trkpt>
      <trkpt lat="46.99274" lon="8.66504">
        <ele>537</ele>
        <time>2021-08-05T09:54:06.450Z</time>
      </trkpt>
      <trkpt lat="46.99274" lon="8.66505">
        <ele>537</ele>
        <time>2021-08-05T09:54:07.450Z</time>
      </trkpt>
      <trkpt lat="46.99274" lon="8.66506">
        <ele>538</ele>
        <time>2021-08-05T09:54:08.450Z</time>
      </trkpt>
      <trkpt lat="46.99275" lon="8.66507">
        <ele>538</ele>
        <time>2021-08-05T09:54:09.450Z</time>
      </trkpt>
      <trkpt lat="46.99275" lon="8.66509">
        <ele>538</ele>
        <time>2021-08-05T09:54:10.449Z</time>
      </trkpt>
      <trkpt lat="46.99276" lon="8.6651">
        <ele>538</ele>
        <time>2021-08-05T09:54:11.449Z</time>
      </trkpt>
      <trkpt lat="46.99276" lon="8.66512">
        <ele>539</ele>
        <time>2021-08-05T09:54:12.449Z</time>
      </trkpt>
      <trkpt lat="46.99275" lon="8.66514">
        <ele>539</ele>
        <time>2021-08-05T09:54:13.450Z</time>
      </trkpt>
      <trkpt lat="46.99275" lon="8.66515">
        <ele>539</ele>
        <time>2021-08-05T09:54:14.449Z</time>
      </trkpt>
      <trkpt lat="46.99274" lon="8.66518">
        <ele>539</ele>
        <time>2021-08-05T09:54:15.449Z</time>
      </trkpt>
      <trkpt lat="46.99274" lon="8.6652">
        <ele>539</ele>
        <time>2021-08-05T09:54:16.450Z</time>
      </trkpt>
      <trkpt lat="46.99274" lon="8.66522">
        <ele>539</ele>
        <time>2021-08-05T09:54:17.449Z</time>
      </trkpt>
      <trkpt lat="46.99274" lon="8.66524">
        <ele>539</ele>
        <time>2021-08-05T09:54:18.449Z</time>
      </trkpt>
      <trkpt lat="46.99275" lon="8.66525">
        <ele>539</ele>
        <time>2021-08-05T09:54:19.449Z</time>
      </trkpt>
      <trkpt lat="46.99275" lon="8.66527">
        <ele>539</ele>
        <time>2021-08-05T09:54:20.450Z</time>
      </trkpt>
      <trkpt lat="46.99276" lon="8.66528">
        <ele>539</ele>
        <time>2021-08-05T09:54:21.449Z</time>
      </trkpt>
      <trkpt lat="46.99276" lon="8.66529">
        <ele>539</ele>
        <time>2021-08-05T09:54:22.449Z</time>
      </trkpt>
      <trkpt lat="46.99277" lon="8.6653">
        <ele>538</ele>
        <time>2021-08-05T09:54:23.449Z</time>
      </trkpt>
      <trkpt lat="46.99279" lon="8.66531">
        <ele>538</ele>
        <time>2021-08-05T09:54:24.450Z</time>
      </trkpt>
      <trkpt lat="46.9928" lon="8.66531">
        <ele>539</ele>
        <time>2021-08-05T09:54:25.449Z</time>
      </trkpt>
      <trkpt lat="46.9928" lon="8.66532">
        <ele>539</ele>
        <time>2021-08-05T09:54:26.449Z</time>
      </trkpt>
      <trkpt lat="46.99281" lon="8.66533">
        <ele>539</ele>
        <time>2021-08-05T09:54:27.449Z</time>
      </trkpt>
      <trkpt lat="46.99282" lon="8.66534">
        <ele>539</ele>
        <time>2021-08-05T09:54:28.449Z</time>
      </trkpt>
      <trkpt lat="46.99283" lon="8.66535">
        <ele>539</ele>
        <time>2021-08-05T09:54:29.449Z</time>
      </trkpt>
      <trkpt lat="46.99284" lon="8.66536">
        <ele>539</ele>
        <time>2021-08-05T09:54:30.450Z</time>
      </trkpt>
      <trkpt lat="46.99286" lon="8.66537">
        <ele>539</ele>
        <time>2021-08-05T09:54:31.450Z</time>
      </trkpt>
      <trkpt lat="46.99287" lon="8.66537">
        <ele>540</ele>
        <time>2021-08-05T09:54:32.449Z</time>
      </trkpt>
      <trkpt lat="46.99289" lon="8.66538">
        <ele>540</ele>
        <time>2021-08-05T09:54:33.449Z</time>
      </trkpt>
      <trkpt lat="46.9929" lon="8.6654">
        <ele>540</ele>
        <time>2021-08-05T09:54:34.449Z</time>
      </trkpt>
      <trkpt lat="46.9929" lon="8.66542">
        <ele>539</ele>
        <time>2021-08-05T09:54:35.449Z</time>
      </trkpt>
      <trkpt lat="46.99291" lon="8.66545">
        <ele>539</ele>
        <time>2021-08-05T09:54:36.449Z</time>
      </trkpt>
      <trkpt lat="46.99291" lon="8.66546">
        <ele>539</ele>
        <time>2021-08-05T09:54:37.449Z</time>
      </trkpt>
      <trkpt lat="46.99292" lon="8.66548">
        <ele>539</ele>
        <time>2021-08-05T09:54:38.450Z</time>
      </trkpt>
      <trkpt lat="46.99291" lon="8.6655">
        <ele>539</ele>
        <time>2021-08-05T09:54:39.449Z</time>
      </trkpt>
      <trkpt lat="46.99291" lon="8.66551">
        <ele>539</ele>
        <time>2021-08-05T09:54:40.449Z</time>
      </trkpt>
      <trkpt lat="46.9929" lon="8.66554">
        <ele>539</ele>
        <time>2021-08-05T09:54:41.449Z</time>
      </trkpt>
      <trkpt lat="46.9929" lon="8.66555">
        <ele>539</ele>
        <time>2021-08-05T09:54:42.450Z</time>
      </trkpt>
      <trkpt lat="46.9929" lon="8.66556">
        <ele>539</ele>
        <time>2021-08-05T09:54:43.449Z</time>
      </trkpt>
      <trkpt lat="46.9929" lon="8.66558">
        <ele>539</ele>
        <time>2021-08-05T09:54:44.449Z</time>
      </trkpt>
      <trkpt lat="46.99291" lon="8.66559">
        <ele>539</ele>
        <time>2021-08-05T09:54:45.450Z</time>
      </trkpt>
      <trkpt lat="46.99292" lon="8.66561">
        <ele>539</ele>
        <time>2021-08-05T09:54:46.450Z</time>
      </trkpt>
      <trkpt lat="46.99293" lon="8.66562">
        <ele>539</ele>
        <time>2021-08-05T09:54:47.449Z</time>
      </trkpt>
      <trkpt lat="46.99294" lon="8.66563">
        <ele>539</ele>
        <time>2021-08-05T09:54:48.449Z</time>
      </trkpt>
      <trkpt lat="46.99294" lon="8.66564">
        <ele>539</ele>
        <time>2021-08-05T09:54:49.450Z</time>
      </trkpt>
      <trkpt lat="46.99295" lon="8.66565">
        <ele>539</ele>
        <time>2021-08-05T09:54:50.449Z</time>
      </trkpt>
      <trkpt lat="46.99295" lon="8.66566">
        <ele>540</ele>
        <time>2021-08-05T09:54:51.449Z</time>
      </trkpt>
      <trkpt lat="46.99296" lon="8.66567">
        <ele>540</ele>
        <time>2021-08-05T09:54:52.450Z</time>
      </trkpt>
      <trkpt lat="46.99297" lon="8.66569">
        <ele>540</ele>
        <time>2021-08-05T09:54:53.450Z</time>
      </trkpt>
      <trkpt lat="46.99298" lon="8.6657">
        <ele>540</ele>
        <time>2021-08-05T09:54:54.449Z</time>
      </trkpt>
      <trkpt lat="46.99299" lon="8.6657">
        <ele>540</ele>
        <time>2021-08-05T09:54:55.449Z</time>
      </trkpt>
      <trkpt lat="46.99301" lon="8.66571">
        <ele>540</ele>
        <time>2021-08-05T09:54:56.450Z</time>
      </trkpt>
      <trkpt lat="46.99301" lon="8.66572">
        <ele>540</ele>
        <time>2021-08-05T09:54:57.450Z</time>
      </trkpt>
      <trkpt lat="46.993" lon="8.66574">
        <ele>540</ele>
        <time>2021-08-05T09:54:58.449Z</time>
      </trkpt>
      <trkpt lat="46.99301" lon="8.66576">
        <ele>540</ele>
        <time>2021-08-05T09:54:59.450Z</time>
      </trkpt>
      <trkpt lat="46.99301" lon="8.66577">
        <ele>540</ele>
        <time>2021-08-05T09:55:00.450Z</time>
      </trkpt>
      <trkpt lat="46.99301" lon="8.66577">
        <ele>540</ele>
        <time>2021-08-05T09:55:01.450Z</time>
      </trkpt>
      <trkpt lat="46.993" lon="8.66578">
        <ele>540</ele>
        <time>2021-08-05T09:55:02.450Z</time>
      </trkpt>
      <trkpt lat="46.993" lon="8.66578">
        <ele>540</ele>
        <time>2021-08-05T09:55:03.450Z</time>
      </trkpt>
      <trkpt lat="46.99299" lon="8.6658">
        <ele>540</ele>
        <time>2021-08-05T09:55:04.450Z</time>
      </trkpt>
      <trkpt lat="46.99298" lon="8.66581">
        <ele>541</ele>
        <time>2021-08-05T09:55:05.450Z</time>
      </trkpt>
      <trkpt lat="46.99297" lon="8.66582">
        <ele>541</ele>
        <time>2021-08-05T09:55:06.450Z</time>
      </trkpt>
      <trkpt lat="46.99298" lon="8.66584">
        <ele>541</ele>
        <time>2021-08-05T09:55:07.450Z</time>
      </trkpt>
      <trkpt lat="46.99298" lon="8.66586">
        <ele>541</ele>
        <time>2021-08-05T09:55:08.450Z</time>
      </trkpt>
      <trkpt lat="46.99299" lon="8.66587">
        <ele>541</ele>
        <time>2021-08-05T09:55:09.449Z</time>
      </trkpt>
      <trkpt lat="46.99299" lon="8.66588">
        <ele>542</ele>
        <time>2021-08-05T09:55:10.450Z</time>
      </trkpt>
      <trkpt lat="46.99299" lon="8.66588">
        <ele>542</ele>
        <time>2021-08-05T09:55:11.450Z</time>
      </trkpt>
      <trkpt lat="46.99299" lon="8.66588">
        <ele>543</ele>
        <time>2021-08-05T09:55:12.450Z</time>
      </trkpt>
      <trkpt lat="46.993" lon="8.66588">
        <ele>543</ele>
        <time>2021-08-05T09:55:13.450Z</time>
      </trkpt>
      <trkpt lat="46.99302" lon="8.66589">
        <ele>543</ele>
        <time>2021-08-05T09:55:14.449Z</time>
      </trkpt>
      <trkpt lat="46.99303" lon="8.6659">
        <ele>544</ele>
        <time>2021-08-05T09:55:15.450Z</time>
      </trkpt>
      <trkpt lat="46.99304" lon="8.66592">
        <ele>544</ele>
        <time>2021-08-05T09:55:16.450Z</time>
      </trkpt>
      <trkpt lat="46.99305" lon="8.66592">
        <ele>544</ele>
        <time>2021-08-05T09:55:17.449Z</time>
      </trkpt>
      <trkpt lat="46.99306" lon="8.66593">
        <ele>544</ele>
        <time>2021-08-05T09:55:18.450Z</time>
      </trkpt>
      <trkpt lat="46.99308" lon="8.66593">
        <ele>544</ele>
        <time>2021-08-05T09:55:19.450Z</time>
      </trkpt>
      <trkpt lat="46.99309" lon="8.66594">
        <ele>544</ele>
        <time>2021-08-05T09:55:20.449Z</time>
      </trkpt>
      <trkpt lat="46.9931" lon="8.66594">
        <ele>544</ele>
        <time>2021-08-05T09:55:21.449Z</time>
      </trkpt>
      <trkpt lat="46.9931" lon="8.66594">
        <ele>544</ele>
        <time>2021-08-05T09:55:22.449Z</time>
      </trkpt>
      <trkpt lat="46.99312" lon="8.66595">
        <ele>544</ele>
        <time>2021-08-05T09:55:23.450Z</time>
      </trkpt>
      <trkpt lat="46.99313" lon="8.66595">
        <ele>544</ele>
        <time>2021-08-05T09:55:24.449Z</time>
      </trkpt>
      <trkpt lat="46.99313" lon="8.66596">
        <ele>544</ele>
        <time>2021-08-05T09:55:25.449Z</time>
      </trkpt>
      <trkpt lat="46.99314" lon="8.66597">
        <ele>544</ele>
        <time>2021-08-05T09:55:26.449Z</time>
      </trkpt>
      <trkpt lat="46.99315" lon="8.66597">
        <ele>545</ele>
        <time>2021-08-05T09:55:27.450Z</time>
      </trkpt>
      <trkpt lat="46.99315" lon="8.66598">
        <ele>545</ele>
        <time>2021-08-05T09:55:28.450Z</time>
      </trkpt>
      <trkpt lat="46.99316" lon="8.66598">
        <ele>545</ele>
        <time>2021-08-05T09:55:29.449Z</time>
      </trkpt>
      <trkpt lat="46.99316" lon="8.66599">
        <ele>546</ele>
        <time>2021-08-05T09:55:30.450Z</time>
      </trkpt>
      <trkpt lat="46.99316" lon="8.666">
        <ele>546</ele>
        <time>2021-08-05T09:55:31.450Z</time>
      </trkpt>
      <trkpt lat="46.99316" lon="8.66601">
        <ele>546</ele>
        <time>2021-08-05T09:55:32.449Z</time>
      </trkpt>
      <trkpt lat="46.99316" lon="8.66602">
        <ele>547</ele>
        <time>2021-08-05T09:55:33.450Z</time>
      </trkpt>
      <trkpt lat="46.99315" lon="8.66604">
        <ele>547</ele>
        <time>2021-08-05T09:55:34.450Z</time>
      </trkpt>
      <trkpt lat="46.99315" lon="8.66605">
        <ele>547</ele>
        <time>2021-08-05T09:55:35.449Z</time>
      </trkpt>
      <trkpt lat="46.99314" lon="8.66606">
        <ele>547</ele>
        <time>2021-08-05T09:55:36.450Z</time>
      </trkpt>
      <trkpt lat="46.99313" lon="8.66607">
        <ele>547</ele>
        <time>2021-08-05T09:55:37.450Z</time>
      </trkpt>
      <trkpt lat="46.99313" lon="8.66609">
        <ele>547</ele>
        <time>2021-08-05T09:55:38.449Z</time>
      </trkpt>
      <trkpt lat="46.99313" lon="8.6661">
        <ele>547</ele>
        <time>2021-08-05T09:55:39.450Z</time>
      </trkpt>
      <trkpt lat="46.99313" lon="8.6661">
        <ele>547</ele>
        <time>2021-08-05T09:55:40.450Z</time>
      </trkpt>
      <trkpt lat="46.99314" lon="8.6661">
        <ele>547</ele>
        <time>2021-08-05T09:55:41.450Z</time>
      </trkpt>
      <trkpt lat="46.99315" lon="8.66611">
        <ele>547</ele>
        <time>2021-08-05T09:55:42.450Z</time>
      </trkpt>
      <trkpt lat="46.99315" lon="8.66611">
        <ele>547</ele>
        <time>2021-08-05T09:55:43.449Z</time>
      </trkpt>
      <trkpt lat="46.99316" lon="8.66611">
        <ele>547</ele>
        <time>2021-08-05T09:55:44.450Z</time>
      </trkpt>
      <trkpt lat="46.99316" lon="8.6661">
        <ele>548</ele>
        <time>2021-08-05T09:55:45.450Z</time>
      </trkpt>
      <trkpt lat="46.99316" lon="8.66611">
        <ele>548</ele>
        <time>2021-08-05T09:55:46.449Z</time>
      </trkpt>
      <trkpt lat="46.99317" lon="8.66613">
        <ele>548</ele>
        <time>2021-08-05T09:55:47.449Z</time>
      </trkpt>
      <trkpt lat="46.99318" lon="8.66614">
        <ele>548</ele>
        <time>2021-08-05T09:55:48.450Z</time>
      </trkpt>
      <trkpt lat="46.99319" lon="8.66615">
        <ele>548</ele>
        <time>2021-08-05T09:55:49.450Z</time>
      </trkpt>
      <trkpt lat="46.99314" lon="8.66618">
        <ele>548</ele>
        <time>2021-08-05T09:55:50.449Z</time>
      </trkpt>
      <trkpt lat="46.99305" lon="8.66621">
        <ele>547</ele>
        <time>2021-08-05T09:55:51.450Z</time>
      </trkpt>
      <trkpt lat="46.99298" lon="8.66623">
        <ele>547</ele>
        <time>2021-08-05T09:55:52.450Z</time>
      </trkpt>
      <trkpt lat="46.99291" lon="8.66623">
        <ele>547</ele>
        <time>2021-08-05T09:55:53.449Z</time>
      </trkpt>
      <trkpt lat="46.99284" lon="8.66624">
        <ele>547</ele>
        <time>2021-08-05T09:55:54.450Z</time>
      </trkpt>
      <trkpt lat="46.99278" lon="8.66624">
        <ele>547</ele>
        <time>2021-08-05T09:55:55.450Z</time>
      </trkpt>
      <trkpt lat="46.99274" lon="8.66626">
        <ele>547</ele>
        <time>2021-08-05T09:55:56.450Z</time>
      </trkpt>
      <trkpt lat="46.99272" lon="8.66628">
        <ele>547</ele>
        <time>2021-08-05T09:55:57.450Z</time>
      </trkpt>
      <trkpt lat="46.99269" lon="8.6663">
        <ele>547</ele>
        <time>2021-08-05T09:55:58.449Z</time>
      </trkpt>
      <trkpt lat="46.99268" lon="8.66631">
        <ele>547</ele>
        <time>2021-08-05T09:55:59.449Z</time>
      </trkpt>
      <trkpt lat="46.99269" lon="8.66631">
        <ele>547</ele>
        <time>2021-08-05T09:56:00.450Z</time>
      </trkpt>
      <trkpt lat="46.99269" lon="8.66632">
        <ele>547</ele>
        <time>2021-08-05T09:56:01.450Z</time>
      </trkpt>
      <trkpt lat="46.9927" lon="8.66632">
        <ele>548</ele>
        <time>2021-08-05T09:56:02.449Z</time>
      </trkpt>
      <trkpt lat="46.99271" lon="8.66633">
        <ele>548</ele>
        <time>2021-08-05T09:56:03.449Z</time>
      </trkpt>
      <trkpt lat="46.99273" lon="8.66635">
        <ele>547</ele>
        <time>2021-08-05T09:56:04.450Z</time>
      </trkpt>
      <trkpt lat="46.99275" lon="8.66636">
        <ele>547</ele>
        <time>2021-08-05T09:56:05.449Z</time>
      </trkpt>
      <trkpt lat="46.99279" lon="8.66636">
        <ele>547</ele>
        <time>2021-08-05T09:56:06.449Z</time>
      </trkpt>
      <trkpt lat="46.99282" lon="8.66636">
        <ele>548</ele>
        <time>2021-08-05T09:56:07.450Z</time>
      </trkpt>
      <trkpt lat="46.99285" lon="8.66636">
        <ele>549</ele>
        <time>2021-08-05T09:56:08.450Z</time>
      </trkpt>
      <trkpt lat="46.99287" lon="8.66635">
        <ele>549</ele>
        <time>2021-08-05T09:56:09.450Z</time>
      </trkpt>
      <trkpt lat="46.99289" lon="8.66634">
        <ele>550</ele>
        <time>2021-08-05T09:56:10.450Z</time>
      </trkpt>
      <trkpt lat="46.9929" lon="8.66633">
        <ele>551</ele>
        <time>2021-08-05T09:56:11.450Z</time>
      </trkpt>
      <trkpt lat="46.99291" lon="8.66633">
        <ele>551</ele>
        <time>2021-08-05T09:56:12.450Z</time>
      </trkpt>
      <trkpt lat="46.99292" lon="8.66634">
        <ele>552</ele>
        <time>2021-08-05T09:56:13.450Z</time>
      </trkpt>
      <trkpt lat="46.99294" lon="8.66635">
        <ele>552</ele>
        <time>2021-08-05T09:56:14.449Z</time>
      </trkpt>
      <trkpt lat="46.99305" lon="8.66642">
        <ele>554</ele>
        <time>2021-08-05T09:56:18.449Z</time>
      </trkpt>
      <trkpt lat="46.99305" lon="8.66643">
        <ele>554</ele>
        <time>2021-08-05T09:56:19.450Z</time>
      </trkpt>
      <trkpt lat="46.99304" lon="8.66643">
        <ele>554</ele>
        <time>2021-08-05T09:56:20.449Z</time>
      </trkpt>
      <trkpt lat="46.99303" lon="8.66643">
        <ele>555</ele>
        <time>2021-08-05T09:56:21.450Z</time>
      </trkpt>
      <trkpt lat="46.99303" lon="8.66643">
        <ele>555</ele>
        <time>2021-08-05T09:56:22.449Z</time>
      </trkpt>
      <trkpt lat="46.99301" lon="8.66643">
        <ele>555</ele>
        <time>2021-08-05T09:56:23.450Z</time>
      </trkpt>
      <trkpt lat="46.993" lon="8.66643">
        <ele>555</ele>
        <time>2021-08-05T09:56:24.450Z</time>
      </trkpt>
      <trkpt lat="46.99299" lon="8.66643">
        <ele>555</ele>
        <time>2021-08-05T09:56:25.450Z</time>
      </trkpt>
      <trkpt lat="46.99299" lon="8.66643">
        <ele>556</ele>
        <time>2021-08-05T09:56:26.450Z</time>
      </trkpt>
      <trkpt lat="46.99297" lon="8.66643">
        <ele>556</ele>
        <time>2021-08-05T09:56:27.449Z</time>
      </trkpt>
      <trkpt lat="46.99296" lon="8.66642">
        <ele>556</ele>
        <time>2021-08-05T09:56:28.450Z</time>
      </trkpt>
      <trkpt lat="46.99293" lon="8.66642">
        <ele>557</ele>
        <time>2021-08-05T09:56:29.449Z</time>
      </trkpt>
      <trkpt lat="46.99291" lon="8.66642">
        <ele>557</ele>
        <time>2021-08-05T09:56:30.450Z</time>
      </trkpt>
      <trkpt lat="46.99287" lon="8.66644">
        <ele>557</ele>
        <time>2021-08-05T09:56:31.449Z</time>
      </trkpt>
      <trkpt lat="46.99286" lon="8.66646">
        <ele>557</ele>
        <time>2021-08-05T09:56:32.449Z</time>
      </trkpt>
      <trkpt lat="46.99286" lon="8.66648">
        <ele>557</ele>
        <time>2021-08-05T09:56:33.450Z</time>
      </trkpt>
      <trkpt lat="46.99285" lon="8.66649">
        <ele>558</ele>
        <time>2021-08-05T09:56:34.449Z</time>
      </trkpt>
      <trkpt lat="46.99285" lon="8.6665">
        <ele>558</ele>
        <time>2021-08-05T09:56:35.450Z</time>
      </trkpt>
      <trkpt lat="46.99284" lon="8.66651">
        <ele>558</ele>
        <time>2021-08-05T09:56:36.449Z</time>
      </trkpt>
      <trkpt lat="46.99284" lon="8.66652">
        <ele>558</ele>
        <time>2021-08-05T09:56:37.450Z</time>
      </trkpt>
      <trkpt lat="46.99285" lon="8.66653">
        <ele>558</ele>
        <time>2021-08-05T09:56:38.450Z</time>
      </trkpt>
      <trkpt lat="46.99286" lon="8.66654">
        <ele>558</ele>
        <time>2021-08-05T09:56:39.450Z</time>
      </trkpt>
      <trkpt lat="46.99285" lon="8.66654">
        <ele>558</ele>
        <time>2021-08-05T09:56:40.450Z</time>
      </trkpt>
      <trkpt lat="46.99285" lon="8.66654">
        <ele>559</ele>
        <time>2021-08-05T09:56:41.450Z</time>
      </trkpt>
      <trkpt lat="46.99285" lon="8.66654">
        <ele>560</ele>
        <time>2021-08-05T09:56:42.449Z</time>
      </trkpt>
      <trkpt lat="46.99285" lon="8.66654">
        <ele>561</ele>
        <time>2021-08-05T09:56:43.450Z</time>
      </trkpt>
      <trkpt lat="46.99285" lon="8.66655">
        <ele>561</ele>
        <time>2021-08-05T09:56:44.450Z</time>
      </trkpt>
      <trkpt lat="46.99284" lon="8.66655">
        <ele>562</ele>
        <time>2021-08-05T09:56:45.449Z</time>
      </trkpt>
      <trkpt lat="46.99283" lon="8.66655">
        <ele>562</ele>
        <time>2021-08-05T09:56:46.450Z</time>
      </trkpt>
      <trkpt lat="46.99282" lon="8.66655">
        <ele>563</ele>
        <time>2021-08-05T09:56:47.450Z</time>
      </trkpt>
      <trkpt lat="46.99279" lon="8.66655">
        <ele>563</ele>
        <time>2021-08-05T09:56:48.449Z</time>
      </trkpt>
      <trkpt lat="46.99278" lon="8.66656">
        <ele>564</ele>
        <time>2021-08-05T09:56:49.450Z</time>
      </trkpt>
      <trkpt lat="46.99276" lon="8.66656">
        <ele>564</ele>
        <time>2021-08-05T09:56:50.449Z</time>
      </trkpt>
      <trkpt lat="46.99275" lon="8.66656">
        <ele>564</ele>
        <time>2021-08-05T09:56:51.450Z</time>
      </trkpt>
      <trkpt lat="46.99276" lon="8.66656">
        <ele>564</ele>
        <time>2021-08-05T09:56:52.449Z</time>
      </trkpt>
      <trkpt lat="46.99277" lon="8.66656">
        <ele>564</ele>
        <time>2021-08-05T09:56:53.449Z</time>
      </trkpt>
      <trkpt lat="46.99277" lon="8.66656">
        <ele>564</ele>
        <time>2021-08-05T09:56:54.450Z</time>
      </trkpt>
      <trkpt lat="46.99278" lon="8.66656">
        <ele>564</ele>
        <time>2021-08-05T09:56:55.450Z</time>
      </trkpt>
      <trkpt lat="46.99279" lon="8.66656">
        <ele>565</ele>
        <time>2021-08-05T09:56:56.450Z</time>
      </trkpt>
      <trkpt lat="46.99279" lon="8.66657">
        <ele>565</ele>
        <time>2021-08-05T09:56:57.450Z</time>
      </trkpt>
      <trkpt lat="46.99278" lon="8.66657">
        <ele>565</ele>
        <time>2021-08-05T09:56:58.449Z</time>
      </trkpt>
      <trkpt lat="46.99276" lon="8.66658">
        <ele>565</ele>
        <time>2021-08-05T09:56:59.450Z</time>
      </trkpt>
      <trkpt lat="46.99273" lon="8.6666">
        <ele>565</ele>
        <time>2021-08-05T09:57:00.450Z</time>
      </trkpt>
      <trkpt lat="46.99272" lon="8.66661">
        <ele>565</ele>
        <time>2021-08-05T09:57:01.450Z</time>
      </trkpt>
      <trkpt lat="46.99272" lon="8.66662">
        <ele>565</ele>
        <time>2021-08-05T09:57:02.449Z</time>
      </trkpt>
      <trkpt lat="46.99272" lon="8.66663">
        <ele>565</ele>
        <time>2021-08-05T09:57:03.450Z</time>
      </trkpt>
      <trkpt lat="46.99272" lon="8.66664">
        <ele>565</ele>
        <time>2021-08-05T09:57:04.450Z</time>
      </trkpt>
      <trkpt lat="46.99272" lon="8.66665">
        <ele>565</ele>
        <time>2021-08-05T09:57:05.449Z</time>
      </trkpt>
      <trkpt lat="46.99272" lon="8.66666">
        <ele>565</ele>
        <time>2021-08-05T09:57:06.450Z</time>
      </trkpt>
      <trkpt lat="46.99272" lon="8.66667">
        <ele>565</ele>
        <time>2021-08-05T09:57:07.450Z</time>
      </trkpt>
      <trkpt lat="46.99272" lon="8.66667">
        <ele>565</ele>
        <time>2021-08-05T09:57:08.450Z</time>
      </trkpt>
      <trkpt lat="46.99269" lon="8.66667">
        <ele>565</ele>
        <time>2021-08-05T09:57:09.449Z</time>
      </trkpt>
      <trkpt lat="46.99265" lon="8.66666">
        <ele>566</ele>
        <time>2021-08-05T09:57:10.449Z</time>
      </trkpt>
      <trkpt lat="46.99262" lon="8.66666">
        <ele>566</ele>
        <time>2021-08-05T09:57:11.449Z</time>
      </trkpt>
      <trkpt lat="46.99261" lon="8.66667">
        <ele>566</ele>
        <time>2021-08-05T09:57:12.449Z</time>
      </trkpt>
      <trkpt lat="46.99261" lon="8.66667">
        <ele>566</ele>
        <time>2021-08-05T09:57:13.450Z</time>
      </trkpt>
      <trkpt lat="46.99261" lon="8.66668">
        <ele>566</ele>
        <time>2021-08-05T09:57:14.450Z</time>
      </trkpt>
      <trkpt lat="46.9926" lon="8.66669">
        <ele>566</ele>
        <time>2021-08-05T09:57:15.449Z</time>
      </trkpt>
      <trkpt lat="46.9926" lon="8.66671">
        <ele>566</ele>
        <time>2021-08-05T09:57:16.450Z</time>
      </trkpt>
      <trkpt lat="46.99261" lon="8.66671">
        <ele>566</ele>
        <time>2021-08-05T09:57:17.449Z</time>
      </trkpt>
      <trkpt lat="46.99261" lon="8.66672">
        <ele>566</ele>
        <time>2021-08-05T09:57:18.450Z</time>
      </trkpt>
      <trkpt lat="46.99261" lon="8.66674">
        <ele>567</ele>
        <time>2021-08-05T09:57:19.449Z</time>
      </trkpt>
      <trkpt lat="46.99261" lon="8.66676">
        <ele>567</ele>
        <time>2021-08-05T09:57:20.449Z</time>
      </trkpt>
      <trkpt lat="46.99259" lon="8.66677">
        <ele>567</ele>
        <time>2021-08-05T09:57:21.450Z</time>
      </trkpt>
      <trkpt lat="46.99258" lon="8.66679">
        <ele>567</ele>
        <time>2021-08-05T09:57:22.449Z</time>
      </trkpt>
      <trkpt lat="46.99257" lon="8.66681">
        <ele>567</ele>
        <time>2021-08-05T09:57:23.450Z</time>
      </trkpt>
      <trkpt lat="46.9926" lon="8.66682">
        <ele>567</ele>
        <time>2021-08-05T09:57:24.450Z</time>
      </trkpt>
      <trkpt lat="46.9926" lon="8.66683">
        <ele>567</ele>
        <time>2021-08-05T09:57:25.449Z</time>
      </trkpt>
      <trkpt lat="46.99256" lon="8.66684">
        <ele>567</ele>
        <time>2021-08-05T09:57:26.450Z</time>
      </trkpt>
      <trkpt lat="46.99253" lon="8.66685">
        <ele>568</ele>
        <time>2021-08-05T09:57:27.449Z</time>
      </trkpt>
      <trkpt lat="46.99244" lon="8.66686">
        <ele>568</ele>
        <time>2021-08-05T09:57:28.450Z</time>
      </trkpt>
      <trkpt lat="46.99241" lon="8.66687">
        <ele>568</ele>
        <time>2021-08-05T09:57:29.450Z</time>
      </trkpt>
      <trkpt lat="46.99237" lon="8.66688">
        <ele>568</ele>
        <time>2021-08-05T09:57:30.449Z</time>
      </trkpt>
      <trkpt lat="46.99233" lon="8.66689">
        <ele>568</ele>
        <time>2021-08-05T09:57:31.450Z</time>
      </trkpt>
      <trkpt lat="46.99226" lon="8.6669">
        <ele>569</ele>
        <time>2021-08-05T09:57:32.450Z</time>
      </trkpt>
      <trkpt lat="46.99224" lon="8.6669">
        <ele>569</ele>
        <time>2021-08-05T09:57:33.450Z</time>
      </trkpt>
      <trkpt lat="46.99226" lon="8.66689">
        <ele>569</ele>
        <time>2021-08-05T09:57:34.449Z</time>
      </trkpt>
      <trkpt lat="46.99227" lon="8.66689">
        <ele>569</ele>
        <time>2021-08-05T09:57:35.449Z</time>
      </trkpt>
      <trkpt lat="46.99227" lon="8.66688">
        <ele>569</ele>
        <time>2021-08-05T09:57:36.449Z</time>
      </trkpt>
      <trkpt lat="46.99227" lon="8.66689">
        <ele>569</ele>
        <time>2021-08-05T09:57:37.449Z</time>
      </trkpt>
      <trkpt lat="46.99223" lon="8.6669">
        <ele>569</ele>
        <time>2021-08-05T09:57:38.450Z</time>
      </trkpt>
      <trkpt lat="46.9922" lon="8.66691">
        <ele>569</ele>
        <time>2021-08-05T09:57:39.450Z</time>
      </trkpt>
      <trkpt lat="46.99216" lon="8.66693">
        <ele>569</ele>
        <time>2021-08-05T09:57:40.450Z</time>
      </trkpt>
      <trkpt lat="46.99213" lon="8.66696">
        <ele>569</ele>
        <time>2021-08-05T09:57:41.450Z</time>
      </trkpt>
      <trkpt lat="46.99209" lon="8.66698">
        <ele>569</ele>
        <time>2021-08-05T09:57:42.450Z</time>
      </trkpt>
      <trkpt lat="46.99209" lon="8.667">
        <ele>568</ele>
        <time>2021-08-05T09:57:43.450Z</time>
      </trkpt>
      <trkpt lat="46.99208" lon="8.66701">
        <ele>568</ele>
        <time>2021-08-05T09:57:44.449Z</time>
      </trkpt>
      <trkpt lat="46.99207" lon="8.66702">
        <ele>568</ele>
        <time>2021-08-05T09:57:45.449Z</time>
      </trkpt>
      <trkpt lat="46.99207" lon="8.66704">
        <ele>568</ele>
        <time>2021-08-05T09:57:46.450Z</time>
      </trkpt>
      <trkpt lat="46.99209" lon="8.66705">
        <ele>568</ele>
        <time>2021-08-05T09:57:47.449Z</time>
      </trkpt>
      <trkpt lat="46.99209" lon="8.66707">
        <ele>567</ele>
        <time>2021-08-05T09:57:48.449Z</time>
      </trkpt>
      <trkpt lat="46.9921" lon="8.66709">
        <ele>567</ele>
        <time>2021-08-05T09:57:49.450Z</time>
      </trkpt>
      <trkpt lat="46.99208" lon="8.6671">
        <ele>567</ele>
        <time>2021-08-05T09:57:50.449Z</time>
      </trkpt>
      <trkpt lat="46.99207" lon="8.66713">
        <ele>567</ele>
        <time>2021-08-05T09:57:51.449Z</time>
      </trkpt>
      <trkpt lat="46.99207" lon="8.66715">
        <ele>566</ele>
        <time>2021-08-05T09:57:52.449Z</time>
      </trkpt>
      <trkpt lat="46.99209" lon="8.66716">
        <ele>566</ele>
        <time>2021-08-05T09:57:53.449Z</time>
      </trkpt>
      <trkpt lat="46.99211" lon="8.66717">
        <ele>566</ele>
        <time>2021-08-05T09:57:54.449Z</time>
      </trkpt>
      <trkpt lat="46.99212" lon="8.66719">
        <ele>566</ele>
        <time>2021-08-05T09:57:55.449Z</time>
      </trkpt>
      <trkpt lat="46.99213" lon="8.6672">
        <ele>565</ele>
        <time>2021-08-05T09:57:56.449Z</time>
      </trkpt>
      <trkpt lat="46.99213" lon="8.66721">
        <ele>565</ele>
        <time>2021-08-05T09:57:57.450Z</time>
      </trkpt>
      <trkpt lat="46.99213" lon="8.66722">
        <ele>565</ele>
        <time>2021-08-05T09:57:58.449Z</time>
      </trkpt>
      <trkpt lat="46.99214" lon="8.66723">
        <ele>565</ele>
        <time>2021-08-05T09:57:59.449Z</time>
      </trkpt>
      <trkpt lat="46.99214" lon="8.66723">
        <ele>564</ele>
        <time>2021-08-05T09:58:00.450Z</time>
      </trkpt>
      <trkpt lat="46.99214" lon="8.66724">
        <ele>564</ele>
        <time>2021-08-05T09:58:01.449Z</time>
      </trkpt>
      <trkpt lat="46.99214" lon="8.66725">
        <ele>564</ele>
        <time>2021-08-05T09:58:02.449Z</time>
      </trkpt>
      <trkpt lat="46.99214" lon="8.66725">
        <ele>564</ele>
        <time>2021-08-05T09:58:03.449Z</time>
      </trkpt>
      <trkpt lat="46.99214" lon="8.66726">
        <ele>564</ele>
        <time>2021-08-05T09:58:04.449Z</time>
      </trkpt>
      <trkpt lat="46.99213" lon="8.66727">
        <ele>564</ele>
        <time>2021-08-05T09:58:05.449Z</time>
      </trkpt>
      <trkpt lat="46.99213" lon="8.66728">
        <ele>563</ele>
        <time>2021-08-05T09:58:06.449Z</time>
      </trkpt>
      <trkpt lat="46.99213" lon="8.66729">
        <ele>563</ele>
        <time>2021-08-05T09:58:07.449Z</time>
      </trkpt>
      <trkpt lat="46.99211" lon="8.66731">
        <ele>563</ele>
        <time>2021-08-05T09:58:08.449Z</time>
      </trkpt>
      <trkpt lat="46.99209" lon="8.66732">
        <ele>563</ele>
        <time>2021-08-05T09:58:09.450Z</time>
      </trkpt>
      <trkpt lat="46.99207" lon="8.66733">
        <ele>563</ele>
        <time>2021-08-05T09:58:10.449Z</time>
      </trkpt>
      <trkpt lat="46.99206" lon="8.66735">
        <ele>563</ele>
        <time>2021-08-05T09:58:11.449Z</time>
      </trkpt>
      <trkpt lat="46.99205" lon="8.66736">
        <ele>563</ele>
        <time>2021-08-05T09:58:12.450Z</time>
      </trkpt>
      <trkpt lat="46.99205" lon="8.66738">
        <ele>563</ele>
        <time>2021-08-05T09:58:13.450Z</time>
      </trkpt>
      <trkpt lat="46.99204" lon="8.66739">
        <ele>563</ele>
        <time>2021-08-05T09:58:14.450Z</time>
      </trkpt>
      <trkpt lat="46.99205" lon="8.6674">
        <ele>563</ele>
        <time>2021-08-05T09:58:15.450Z</time>
      </trkpt>
      <trkpt lat="46.99205" lon="8.66742">
        <ele>564</ele>
        <time>2021-08-05T09:58:16.450Z</time>
      </trkpt>
      <trkpt lat="46.99206" lon="8.66743">
        <ele>564</ele>
        <time>2021-08-05T09:58:17.450Z</time>
      </trkpt>
      <trkpt lat="46.99207" lon="8.66744">
        <ele>565</ele>
        <time>2021-08-05T09:58:18.449Z</time>
      </trkpt>
      <trkpt lat="46.99208" lon="8.66745">
        <ele>566</ele>
        <time>2021-08-05T09:58:19.450Z</time>
      </trkpt>
      <trkpt lat="46.99209" lon="8.66747">
        <ele>566</ele>
        <time>2021-08-05T09:58:20.449Z</time>
      </trkpt>
      <trkpt lat="46.99211" lon="8.66747">
        <ele>566</ele>
        <time>2021-08-05T09:58:21.450Z</time>
      </trkpt>
      <trkpt lat="46.99212" lon="8.66748">
        <ele>567</ele>
        <time>2021-08-05T09:58:22.450Z</time>
      </trkpt>
      <trkpt lat="46.99213" lon="8.66749">
        <ele>567</ele>
        <time>2021-08-05T09:58:23.450Z</time>
      </trkpt>
      <trkpt lat="46.99213" lon="8.6675">
        <ele>567</ele>
        <time>2021-08-05T09:58:24.449Z</time>
      </trkpt>
      <trkpt lat="46.99214" lon="8.6675">
        <ele>567</ele>
        <time>2021-08-05T09:58:25.450Z</time>
      </trkpt>
      <trkpt lat="46.99216" lon="8.66751">
        <ele>568</ele>
        <time>2021-08-05T09:58:26.449Z</time>
      </trkpt>
      <trkpt lat="46.99216" lon="8.66752">
        <ele>568</ele>
        <time>2021-08-05T09:58:27.450Z</time>
      </trkpt>
      <trkpt lat="46.99216" lon="8.66752">
        <ele>568</ele>
        <time>2021-08-05T09:58:28.450Z</time>
      </trkpt>
      <trkpt lat="46.99217" lon="8.66753">
        <ele>568</ele>
        <time>2021-08-05T09:58:29.450Z</time>
      </trkpt>
      <trkpt lat="46.99228" lon="8.66754">
        <ele>569</ele>
        <time>2021-08-05T09:58:30.450Z</time>
      </trkpt>
      <trkpt lat="46.99228" lon="8.66755">
        <ele>570</ele>
        <time>2021-08-05T09:58:31.450Z</time>
      </trkpt>
      <trkpt lat="46.99228" lon="8.66755">
        <ele>570</ele>
        <time>2021-08-05T09:58:32.451Z</time>
      </trkpt>
      <trkpt lat="46.99227" lon="8.66756">
        <ele>570</ele>
        <time>2021-08-05T09:58:33.451Z</time>
      </trkpt>
      <trkpt lat="46.99226" lon="8.66757">
        <ele>570</ele>
        <time>2021-08-05T09:58:34.451Z</time>
      </trkpt>
      <trkpt lat="46.99226" lon="8.66759">
        <ele>571</ele>
        <time>2021-08-05T09:58:35.451Z</time>
      </trkpt>
      <trkpt lat="46.99225" lon="8.6676">
        <ele>571</ele>
        <time>2021-08-05T09:58:36.451Z</time>
      </trkpt>
      <trkpt lat="46.99224" lon="8.66762">
        <ele>571</ele>
        <time>2021-08-05T09:58:37.451Z</time>
      </trkpt>
      <trkpt lat="46.99223" lon="8.66763">
        <ele>570</ele>
        <time>2021-08-05T09:58:38.451Z</time>
      </trkpt>
      <trkpt lat="46.99223" lon="8.66764">
        <ele>570</ele>
        <time>2021-08-05T09:58:39.450Z</time>
      </trkpt>
      <trkpt lat="46.99223" lon="8.66765">
        <ele>570</ele>
        <time>2021-08-05T09:58:40.450Z</time>
      </trkpt>
      <trkpt lat="46.99224" lon="8.66766">
        <ele>570</ele>
        <time>2021-08-05T09:58:41.451Z</time>
      </trkpt>
      <trkpt lat="46.99222" lon="8.66767">
        <ele>570</ele>
        <time>2021-08-05T09:58:42.451Z</time>
      </trkpt>
      <trkpt lat="46.9922" lon="8.66769">
        <ele>569</ele>
        <time>2021-08-05T09:58:43.450Z</time>
      </trkpt>
      <trkpt lat="46.9922" lon="8.6677">
        <ele>569</ele>
        <time>2021-08-05T09:58:44.450Z</time>
      </trkpt>
      <trkpt lat="46.99219" lon="8.6677">
        <ele>569</ele>
        <time>2021-08-05T09:58:45.451Z</time>
      </trkpt>
      <trkpt lat="46.99219" lon="8.66771">
        <ele>570</ele>
        <time>2021-08-05T09:58:46.451Z</time>
      </trkpt>
      <trkpt lat="46.99218" lon="8.66773">
        <ele>570</ele>
        <time>2021-08-05T09:58:47.450Z</time>
      </trkpt>
      <trkpt lat="46.99218" lon="8.66774">
        <ele>570</ele>
        <time>2021-08-05T09:58:48.450Z</time>
      </trkpt>
      <trkpt lat="46.99218" lon="8.66775">
        <ele>570</ele>
        <time>2021-08-05T09:58:49.451Z</time>
      </trkpt>
      <trkpt lat="46.99218" lon="8.66776">
        <ele>569</ele>
        <time>2021-08-05T09:58:50.451Z</time>
      </trkpt>
      <trkpt lat="46.99218" lon="8.66777">
        <ele>569</ele>
        <time>2021-08-05T09:58:51.451Z</time>
      </trkpt>
      <trkpt lat="46.99217" lon="8.66779">
        <ele>569</ele>
        <time>2021-08-05T09:58:52.451Z</time>
      </trkpt>
      <trkpt lat="46.99216" lon="8.6678">
        <ele>569</ele>
        <time>2021-08-05T09:58:53.450Z</time>
      </trkpt>
      <trkpt lat="46.99216" lon="8.66782">
        <ele>569</ele>
        <time>2021-08-05T09:58:54.451Z</time>
      </trkpt>
      <trkpt lat="46.99216" lon="8.66783">
        <ele>568</ele>
        <time>2021-08-05T09:58:55.451Z</time>
      </trkpt>
      <trkpt lat="46.99215" lon="8.66785">
        <ele>568</ele>
        <time>2021-08-05T09:58:56.450Z</time>
      </trkpt>
      <trkpt lat="46.99215" lon="8.66786">
        <ele>568</ele>
        <time>2021-08-05T09:58:57.451Z</time>
      </trkpt>
      <trkpt lat="46.99215" lon="8.66788">
        <ele>568</ele>
        <time>2021-08-05T09:58:58.451Z</time>
      </trkpt>
      <trkpt lat="46.99215" lon="8.66789">
        <ele>568</ele>
        <time>2021-08-05T09:58:59.450Z</time>
      </trkpt>
      <trkpt lat="46.99214" lon="8.66791">
        <ele>568</ele>
        <time>2021-08-05T09:59:00.451Z</time>
      </trkpt>
      <trkpt lat="46.99214" lon="8.66792">
        <ele>569</ele>
        <time>2021-08-05T09:59:01.451Z</time>
      </trkpt>
      <trkpt lat="46.99213" lon="8.66793">
        <ele>569</ele>
        <time>2021-08-05T09:59:02.451Z</time>
      </trkpt>
      <trkpt lat="46.99212" lon="8.66794">
        <ele>569</ele>
        <time>2021-08-05T09:59:03.451Z</time>
      </trkpt>
      <trkpt lat="46.99211" lon="8.66795">
        <ele>569</ele>
        <time>2021-08-05T09:59:04.451Z</time>
      </trkpt>
      <trkpt lat="46.99209" lon="8.66796">
        <ele>569</ele>
        <time>2021-08-05T09:59:05.450Z</time>
      </trkpt>
      <trkpt lat="46.99207" lon="8.66798">
        <ele>569</ele>
        <time>2021-08-05T09:59:06.450Z</time>
      </trkpt>
      <trkpt lat="46.99205" lon="8.66799">
        <ele>569</ele>
        <time>2021-08-05T09:59:07.450Z</time>
      </trkpt>
      <trkpt lat="46.99204" lon="8.668">
        <ele>569</ele>
        <time>2021-08-05T09:59:08.451Z</time>
      </trkpt>
      <trkpt lat="46.99204" lon="8.66801">
        <ele>569</ele>
        <time>2021-08-05T09:59:09.451Z</time>
      </trkpt>
      <trkpt lat="46.99203" lon="8.66803">
        <ele>569</ele>
        <time>2021-08-05T09:59:10.451Z</time>
      </trkpt>
      <trkpt lat="46.99202" lon="8.66804">
        <ele>570</ele>
        <time>2021-08-05T09:59:11.451Z</time>
      </trkpt>
      <trkpt lat="46.99201" lon="8.66806">
        <ele>569</ele>
        <time>2021-08-05T09:59:12.451Z</time>
      </trkpt>
      <trkpt lat="46.992" lon="8.66808">
        <ele>569</ele>
        <time>2021-08-05T09:59:13.450Z</time>
      </trkpt>
      <trkpt lat="46.992" lon="8.66809">
        <ele>569</ele>
        <time>2021-08-05T09:59:14.450Z</time>
      </trkpt>
      <trkpt lat="46.99201" lon="8.6681">
        <ele>569</ele>
        <time>2021-08-05T09:59:15.451Z</time>
      </trkpt>
      <trkpt lat="46.99202" lon="8.66811">
        <ele>569</ele>
        <time>2021-08-05T09:59:16.450Z</time>
      </trkpt>
      <trkpt lat="46.99203" lon="8.66811">
        <ele>569</ele>
        <time>2021-08-05T09:59:17.451Z</time>
      </trkpt>
      <trkpt lat="46.99202" lon="8.66813">
        <ele>569</ele>
        <time>2021-08-05T09:59:18.451Z</time>
      </trkpt>
      <trkpt lat="46.99201" lon="8.66814">
        <ele>569</ele>
        <time>2021-08-05T09:59:19.451Z</time>
      </trkpt>
      <trkpt lat="46.992" lon="8.66816">
        <ele>569</ele>
        <time>2021-08-05T09:59:20.450Z</time>
      </trkpt>
      <trkpt lat="46.99201" lon="8.66817">
        <ele>569</ele>
        <time>2021-08-05T09:59:21.451Z</time>
      </trkpt>
      <trkpt lat="46.99199" lon="8.6682">
        <ele>569</ele>
        <time>2021-08-05T09:59:22.451Z</time>
      </trkpt>
      <trkpt lat="46.99198" lon="8.66822">
        <ele>569</ele>
        <time>2021-08-05T09:59:23.451Z</time>
      </trkpt>
      <trkpt lat="46.99196" lon="8.66824">
        <ele>569</ele>
        <time>2021-08-05T09:59:24.451Z</time>
      </trkpt>
      <trkpt lat="46.99195" lon="8.66826">
        <ele>569</ele>
        <time>2021-08-05T09:59:25.451Z</time>
      </trkpt>
      <trkpt lat="46.99195" lon="8.66827">
        <ele>569</ele>
        <time>2021-08-05T09:59:26.450Z</time>
      </trkpt>
      <trkpt lat="46.99195" lon="8.66829">
        <ele>569</ele>
        <time>2021-08-05T09:59:27.451Z</time>
      </trkpt>
      <trkpt lat="46.99194" lon="8.66832">
        <ele>569</ele>
        <time>2021-08-05T09:59:28.450Z</time>
      </trkpt>
      <trkpt lat="46.99193" lon="8.66834">
        <ele>569</ele>
        <time>2021-08-05T09:59:29.450Z</time>
      </trkpt>
      <trkpt lat="46.99192" lon="8.66837">
        <ele>569</ele>
        <time>2021-08-05T09:59:30.450Z</time>
      </trkpt>
      <trkpt lat="46.99191" lon="8.6684">
        <ele>569</ele>
        <time>2021-08-05T09:59:31.451Z</time>
      </trkpt>
      <trkpt lat="46.9919" lon="8.66842">
        <ele>569</ele>
        <time>2021-08-05T09:59:32.450Z</time>
      </trkpt>
      <trkpt lat="46.99191" lon="8.66845">
        <ele>569</ele>
        <time>2021-08-05T09:59:33.451Z</time>
      </trkpt>
      <trkpt lat="46.99193" lon="8.66846">
        <ele>569</ele>
        <time>2021-08-05T09:59:34.451Z</time>
      </trkpt>
      <trkpt lat="46.99195" lon="8.66848">
        <ele>569</ele>
        <time>2021-08-05T09:59:35.451Z</time>
      </trkpt>
      <trkpt lat="46.99197" lon="8.6685">
        <ele>569</ele>
        <time>2021-08-05T09:59:36.451Z</time>
      </trkpt>
      <trkpt lat="46.99198" lon="8.66851">
        <ele>569</ele>
        <time>2021-08-05T09:59:37.450Z</time>
      </trkpt>
      <trkpt lat="46.99199" lon="8.66852">
        <ele>569</ele>
        <time>2021-08-05T09:59:38.451Z</time>
      </trkpt>
      <trkpt lat="46.99197" lon="8.66854">
        <ele>569</ele>
        <time>2021-08-05T09:59:39.451Z</time>
      </trkpt>
      <trkpt lat="46.99195" lon="8.66856">
        <ele>569</ele>
        <time>2021-08-05T09:59:40.451Z</time>
      </trkpt>
      <trkpt lat="46.99194" lon="8.6686">
        <ele>569</ele>
        <time>2021-08-05T09:59:41.451Z</time>
      </trkpt>
      <trkpt lat="46.99194" lon="8.66862">
        <ele>569</ele>
        <time>2021-08-05T09:59:42.451Z</time>
      </trkpt>
      <trkpt lat="46.99193" lon="8.66864">
        <ele>569</ele>
        <time>2021-08-05T09:59:43.450Z</time>
      </trkpt>
      <trkpt lat="46.99194" lon="8.66866">
        <ele>569</ele>
        <time>2021-08-05T09:59:44.451Z</time>
      </trkpt>
      <trkpt lat="46.99193" lon="8.66868">
        <ele>569</ele>
        <time>2021-08-05T09:59:45.450Z</time>
      </trkpt>
      <trkpt lat="46.99192" lon="8.6687">
        <ele>569</ele>
        <time>2021-08-05T09:59:46.451Z</time>
      </trkpt>
      <trkpt lat="46.99191" lon="8.66871">
        <ele>569</ele>
        <time>2021-08-05T09:59:47.451Z</time>
      </trkpt>
      <trkpt lat="46.99191" lon="8.66873">
        <ele>569</ele>
        <time>2021-08-05T09:59:48.450Z</time>
      </trkpt>
      <trkpt lat="46.9919" lon="8.66875">
        <ele>568</ele>
        <time>2021-08-05T09:59:49.451Z</time>
      </trkpt>
      <trkpt lat="46.99189" lon="8.66877">
        <ele>568</ele>
        <time>2021-08-05T09:59:50.451Z</time>
      </trkpt>
      <trkpt lat="46.99188" lon="8.6688">
        <ele>568</ele>
        <time>2021-08-05T09:59:51.450Z</time>
      </trkpt>
      <trkpt lat="46.99187" lon="8.66883">
        <ele>568</ele>
        <time>2021-08-05T09:59:52.451Z</time>
      </trkpt>
      <trkpt lat="46.99186" lon="8.66885">
        <ele>568</ele>
        <time>2021-08-05T09:59:53.451Z</time>
      </trkpt>
      <trkpt lat="46.99186" lon="8.66887">
        <ele>568</ele>
        <time>2021-08-05T09:59:54.450Z</time>
      </trkpt>
      <trkpt lat="46.99185" lon="8.66889">
        <ele>568</ele>
        <time>2021-08-05T09:59:55.451Z</time>
      </trkpt>
      <trkpt lat="46.99186" lon="8.66891">
        <ele>568</ele>
        <time>2021-08-05T09:59:56.450Z</time>
      </trkpt>
      <trkpt lat="46.99188" lon="8.66893">
        <ele>568</ele>
        <time>2021-08-05T09:59:57.450Z</time>
      </trkpt>
      <trkpt lat="46.99188" lon="8.66894">
        <ele>568</ele>
        <time>2021-08-05T09:59:58.451Z</time>
      </trkpt>
      <trkpt lat="46.99188" lon="8.66894">
        <ele>568</ele>
        <time>2021-08-05T09:59:59.451Z</time>
      </trkpt>
      <trkpt lat="46.99189" lon="8.66895">
        <ele>567</ele>
        <time>2021-08-05T10:00:00.450Z</time>
      </trkpt>
      <trkpt lat="46.99189" lon="8.66895">
        <ele>567</ele>
        <time>2021-08-05T10:00:01.451Z</time>
      </trkpt>
      <trkpt lat="46.9919" lon="8.66895">
        <ele>567</ele>
        <time>2021-08-05T10:00:02.451Z</time>
      </trkpt>
      <trkpt lat="46.9919" lon="8.66895">
        <ele>566</ele>
        <time>2021-08-05T10:00:03.451Z</time>
      </trkpt>
      <trkpt lat="46.9919" lon="8.66896">
        <ele>566</ele>
        <time>2021-08-05T10:00:04.451Z</time>
      </trkpt>
      <trkpt lat="46.9919" lon="8.66897">
        <ele>566</ele>
        <time>2021-08-05T10:00:05.450Z</time>
      </trkpt>
      <trkpt lat="46.99189" lon="8.66897">
        <ele>565</ele>
        <time>2021-08-05T10:00:06.451Z</time>
      </trkpt>
      <trkpt lat="46.99189" lon="8.66897">
        <ele>565</ele>
        <time>2021-08-05T10:00:07.450Z</time>
      </trkpt>
      <trkpt lat="46.99189" lon="8.66898">
        <ele>565</ele>
        <time>2021-08-05T10:00:08.450Z</time>
      </trkpt>
      <trkpt lat="46.99188" lon="8.66898">
        <ele>565</ele>
        <time>2021-08-05T10:00:09.451Z</time>
      </trkpt>
      <trkpt lat="46.99188" lon="8.66899">
        <ele>566</ele>
        <time>2021-08-05T10:00:10.451Z</time>
      </trkpt>
      <trkpt lat="46.99187" lon="8.66899">
        <ele>566</ele>
        <time>2021-08-05T10:00:11.450Z</time>
      </trkpt>
      <trkpt lat="46.99187" lon="8.66901">
        <ele>566</ele>
        <time>2021-08-05T10:00:12.451Z</time>
      </trkpt>
      <trkpt lat="46.99185" lon="8.66902">
        <ele>567</ele>
        <time>2021-08-05T10:00:13.450Z</time>
      </trkpt>
      <trkpt lat="46.99184" lon="8.66904">
        <ele>567</ele>
        <time>2021-08-05T10:00:14.451Z</time>
      </trkpt>
      <trkpt lat="46.99184" lon="8.66907">
        <ele>567</ele>
        <time>2021-08-05T10:00:15.450Z</time>
      </trkpt>
      <trkpt lat="46.99183" lon="8.66909">
        <ele>568</ele>
        <time>2021-08-05T10:00:16.451Z</time>
      </trkpt>
      <trkpt lat="46.99181" lon="8.66911">
        <ele>568</ele>
        <time>2021-08-05T10:00:17.450Z</time>
      </trkpt>
      <trkpt lat="46.99179" lon="8.66912">
        <ele>568</ele>
        <time>2021-08-05T10:00:18.451Z</time>
      </trkpt>
      <trkpt lat="46.99179" lon="8.66912">
        <ele>568</ele>
        <time>2021-08-05T10:00:19.450Z</time>
      </trkpt>
      <trkpt lat="46.99179" lon="8.66912">
        <ele>569</ele>
        <time>2021-08-05T10:00:20.450Z</time>
      </trkpt>
      <trkpt lat="46.99179" lon="8.66913">
        <ele>569</ele>
        <time>2021-08-05T10:00:21.451Z</time>
      </trkpt>
      <trkpt lat="46.9918" lon="8.66914">
        <ele>570</ele>
        <time>2021-08-05T10:00:22.451Z</time>
      </trkpt>
      <trkpt lat="46.99181" lon="8.66915">
        <ele>570</ele>
        <time>2021-08-05T10:00:23.451Z</time>
      </trkpt>
      <trkpt lat="46.99181" lon="8.66917">
        <ele>570</ele>
        <time>2021-08-05T10:00:24.450Z</time>
      </trkpt>
      <trkpt lat="46.99182" lon="8.66918">
        <ele>571</ele>
        <time>2021-08-05T10:00:25.451Z</time>
      </trkpt>
      <trkpt lat="46.99181" lon="8.66919">
        <ele>571</ele>
        <time>2021-08-05T10:00:26.450Z</time>
      </trkpt>
      <trkpt lat="46.99181" lon="8.6692">
        <ele>572</ele>
        <time>2021-08-05T10:00:27.451Z</time>
      </trkpt>
      <trkpt lat="46.9918" lon="8.66921">
        <ele>572</ele>
        <time>2021-08-05T10:00:28.450Z</time>
      </trkpt>
      <trkpt lat="46.99179" lon="8.66921">
        <ele>572</ele>
        <time>2021-08-05T10:00:29.450Z</time>
      </trkpt>
      <trkpt lat="46.99179" lon="8.66922">
        <ele>572</ele>
        <time>2021-08-05T10:00:30.450Z</time>
      </trkpt>
      <trkpt lat="46.9918" lon="8.66922">
        <ele>573</ele>
        <time>2021-08-05T10:00:31.451Z</time>
      </trkpt>
      <trkpt lat="46.9918" lon="8.66923">
        <ele>573</ele>
        <time>2021-08-05T10:00:32.450Z</time>
      </trkpt>
      <trkpt lat="46.99181" lon="8.66923">
        <ele>573</ele>
        <time>2021-08-05T10:00:33.451Z</time>
      </trkpt>
      <trkpt lat="46.99181" lon="8.66924">
        <ele>573</ele>
        <time>2021-08-05T10:00:34.451Z</time>
      </trkpt>
      <trkpt lat="46.9918" lon="8.66925">
        <ele>573</ele>
        <time>2021-08-05T10:00:35.451Z</time>
      </trkpt>
      <trkpt lat="46.9918" lon="8.66926">
        <ele>574</ele>
        <time>2021-08-05T10:00:36.451Z</time>
      </trkpt>
      <trkpt lat="46.9918" lon="8.66927">
        <ele>574</ele>
        <time>2021-08-05T10:00:37.451Z</time>
      </trkpt>
      <trkpt lat="46.99179" lon="8.66927">
        <ele>574</ele>
        <time>2021-08-05T10:00:38.450Z</time>
      </trkpt>
      <trkpt lat="46.99179" lon="8.66928">
        <ele>574</ele>
        <time>2021-08-05T10:00:39.450Z</time>
      </trkpt>
      <trkpt lat="46.99179" lon="8.66928">
        <ele>574</ele>
        <time>2021-08-05T10:00:40.451Z</time>
      </trkpt>
      <trkpt lat="46.99179" lon="8.66927">
        <ele>574</ele>
        <time>2021-08-05T10:00:41.451Z</time>
      </trkpt>
      <trkpt lat="46.99179" lon="8.66927">
        <ele>574</ele>
        <time>2021-08-05T10:00:42.451Z</time>
      </trkpt>
      <trkpt lat="46.99178" lon="8.66928">
        <ele>575</ele>
        <time>2021-08-05T10:00:43.450Z</time>
      </trkpt>
      <trkpt lat="46.99177" lon="8.66929">
        <ele>575</ele>
        <time>2021-08-05T10:00:44.450Z</time>
      </trkpt>
      <trkpt lat="46.99176" lon="8.6693">
        <ele>575</ele>
        <time>2021-08-05T10:00:45.450Z</time>
      </trkpt>
      <trkpt lat="46.99176" lon="8.6693">
        <ele>576</ele>
        <time>2021-08-05T10:00:46.451Z</time>
      </trkpt>
      <trkpt lat="46.99176" lon="8.66931">
        <ele>576</ele>
        <time>2021-08-05T10:00:47.450Z</time>
      </trkpt>
      <trkpt lat="46.99176" lon="8.66931">
        <ele>576</ele>
        <time>2021-08-05T10:00:48.451Z</time>
      </trkpt>
      <trkpt lat="46.99176" lon="8.66932">
        <ele>576</ele>
        <time>2021-08-05T10:00:49.450Z</time>
      </trkpt>
      <trkpt lat="46.99173" lon="8.66933">
        <ele>577</ele>
        <time>2021-08-05T10:00:50.451Z</time>
      </trkpt>
      <trkpt lat="46.99172" lon="8.66933">
        <ele>578</ele>
        <time>2021-08-05T10:00:51.450Z</time>
      </trkpt>
      <trkpt lat="46.99171" lon="8.66934">
        <ele>578</ele>
        <time>2021-08-05T10:00:52.450Z</time>
      </trkpt>
      <trkpt lat="46.9917" lon="8.66935">
        <ele>579</ele>
        <time>2021-08-05T10:00:53.450Z</time>
      </trkpt>
      <trkpt lat="46.99169" lon="8.66936">
        <ele>579</ele>
        <time>2021-08-05T10:00:54.451Z</time>
      </trkpt>
      <trkpt lat="46.99168" lon="8.66937">
        <ele>580</ele>
        <time>2021-08-05T10:00:55.450Z</time>
      </trkpt>
      <trkpt lat="46.99167" lon="8.66939">
        <ele>580</ele>
        <time>2021-08-05T10:00:56.450Z</time>
      </trkpt>
      <trkpt lat="46.99167" lon="8.6694">
        <ele>581</ele>
        <time>2021-08-05T10:00:57.450Z</time>
      </trkpt>
      <trkpt lat="46.99168" lon="8.66942">
        <ele>581</ele>
        <time>2021-08-05T10:00:58.451Z</time>
      </trkpt>
      <trkpt lat="46.99168" lon="8.66944">
        <ele>581</ele>
        <time>2021-08-05T10:00:59.450Z</time>
      </trkpt>
      <trkpt lat="46.99168" lon="8.66945">
        <ele>582</ele>
        <time>2021-08-05T10:01:00.451Z</time>
      </trkpt>
      <trkpt lat="46.99168" lon="8.66946">
        <ele>582</ele>
        <time>2021-08-05T10:01:01.451Z</time>
      </trkpt>
      <trkpt lat="46.99168" lon="8.66948">
        <ele>582</ele>
        <time>2021-08-05T10:01:02.450Z</time>
      </trkpt>
      <trkpt lat="46.99168" lon="8.66949">
        <ele>583</ele>
        <time>2021-08-05T10:01:03.451Z</time>
      </trkpt>
      <trkpt lat="46.99167" lon="8.66951">
        <ele>583</ele>
        <time>2021-08-05T10:01:04.450Z</time>
      </trkpt>
      <trkpt lat="46.99168" lon="8.66952">
        <ele>583</ele>
        <time>2021-08-05T10:01:05.451Z</time>
      </trkpt>
      <trkpt lat="46.9917" lon="8.66952">
        <ele>583</ele>
        <time>2021-08-05T10:01:06.451Z</time>
      </trkpt>
      <trkpt lat="46.99173" lon="8.66953">
        <ele>583</ele>
        <time>2021-08-05T10:01:07.451Z</time>
      </trkpt>
      <trkpt lat="46.99175" lon="8.66954">
        <ele>583</ele>
        <time>2021-08-05T10:01:08.451Z</time>
      </trkpt>
      <trkpt lat="46.99178" lon="8.66954">
        <ele>583</ele>
        <time>2021-08-05T10:01:09.451Z</time>
      </trkpt>
      <trkpt lat="46.99179" lon="8.66955">
        <ele>583</ele>
        <time>2021-08-05T10:01:10.451Z</time>
      </trkpt>
      <trkpt lat="46.9918" lon="8.66956">
        <ele>583</ele>
        <time>2021-08-05T10:01:11.450Z</time>
      </trkpt>
      <trkpt lat="46.9918" lon="8.66957">
        <ele>583</ele>
        <time>2021-08-05T10:01:12.451Z</time>
      </trkpt>
      <trkpt lat="46.99181" lon="8.66957">
        <ele>583</ele>
        <time>2021-08-05T10:01:13.451Z</time>
      </trkpt>
      <trkpt lat="46.99181" lon="8.66957">
        <ele>583</ele>
        <time>2021-08-05T10:01:14.451Z</time>
      </trkpt>
      <trkpt lat="46.9918" lon="8.66957">
        <ele>583</ele>
        <time>2021-08-05T10:01:15.451Z</time>
      </trkpt>
      <trkpt lat="46.9918" lon="8.66957">
        <ele>583</ele>
        <time>2021-08-05T10:01:16.450Z</time>
      </trkpt>
      <trkpt lat="46.9918" lon="8.66957">
        <ele>582</ele>
        <time>2021-08-05T10:01:17.450Z</time>
      </trkpt>
      <trkpt lat="46.99175" lon="8.66959">
        <ele>582</ele>
        <time>2021-08-05T10:01:18.452Z</time>
      </trkpt>
      <trkpt lat="46.99172" lon="8.66961">
        <ele>582</ele>
        <time>2021-08-05T10:01:19.452Z</time>
      </trkpt>
      <trkpt lat="46.99172" lon="8.66963">
        <ele>582</ele>
        <time>2021-08-05T10:01:20.452Z</time>
      </trkpt>
      <trkpt lat="46.99172" lon="8.66965">
        <ele>582</ele>
        <time>2021-08-05T10:01:21.451Z</time>
      </trkpt>
      <trkpt lat="46.99173" lon="8.66967">
        <ele>582</ele>
        <time>2021-08-05T10:01:22.451Z</time>
      </trkpt>
      <trkpt lat="46.99173" lon="8.66969">
        <ele>581</ele>
        <time>2021-08-05T10:01:23.452Z</time>
      </trkpt>
      <trkpt lat="46.99173" lon="8.6697">
        <ele>581</ele>
        <time>2021-08-05T10:01:24.452Z</time>
      </trkpt>
      <trkpt lat="46.99173" lon="8.66972">
        <ele>581</ele>
        <time>2021-08-05T10:01:25.452Z</time>
      </trkpt>
      <trkpt lat="46.99171" lon="8.66974">
        <ele>581</ele>
        <time>2021-08-05T10:01:26.452Z</time>
      </trkpt>
      <trkpt lat="46.9917" lon="8.66976">
        <ele>581</ele>
        <time>2021-08-05T10:01:27.452Z</time>
      </trkpt>
      <trkpt lat="46.99169" lon="8.66978">
        <ele>581</ele>
        <time>2021-08-05T10:01:28.452Z</time>
      </trkpt>
      <trkpt lat="46.99169" lon="8.66981">
        <ele>580</ele>
        <time>2021-08-05T10:01:29.452Z</time>
      </trkpt>
      <trkpt lat="46.99169" lon="8.66984">
        <ele>580</ele>
        <time>2021-08-05T10:01:30.451Z</time>
      </trkpt>
      <trkpt lat="46.99168" lon="8.66987">
        <ele>580</ele>
        <time>2021-08-05T10:01:31.451Z</time>
      </trkpt>
      <trkpt lat="46.99166" lon="8.66988">
        <ele>580</ele>
        <time>2021-08-05T10:01:32.452Z</time>
      </trkpt>
      <trkpt lat="46.99165" lon="8.6699">
        <ele>580</ele>
        <time>2021-08-05T10:01:33.451Z</time>
      </trkpt>
      <trkpt lat="46.99163" lon="8.66992">
        <ele>579</ele>
        <time>2021-08-05T10:01:34.451Z</time>
      </trkpt>
      <trkpt lat="46.99161" lon="8.66995">
        <ele>579</ele>
        <time>2021-08-05T10:01:35.452Z</time>
      </trkpt>
      <trkpt lat="46.99159" lon="8.66998">
        <ele>579</ele>
        <time>2021-08-05T10:01:36.451Z</time>
      </trkpt>
      <trkpt lat="46.99158" lon="8.67003">
        <ele>579</ele>
        <time>2021-08-05T10:01:37.451Z</time>
      </trkpt>
      <trkpt lat="46.99156" lon="8.67008">
        <ele>579</ele>
        <time>2021-08-05T10:01:38.451Z</time>
      </trkpt>
      <trkpt lat="46.99156" lon="8.67014">
        <ele>579</ele>
        <time>2021-08-05T10:01:39.451Z</time>
      </trkpt>
      <trkpt lat="46.99155" lon="8.6702">
        <ele>579</ele>
        <time>2021-08-05T10:01:40.452Z</time>
      </trkpt>
      <trkpt lat="46.99153" lon="8.67025">
        <ele>579</ele>
        <time>2021-08-05T10:01:41.451Z</time>
      </trkpt>
      <trkpt lat="46.99152" lon="8.67029">
        <ele>579</ele>
        <time>2021-08-05T10:01:42.452Z</time>
      </trkpt>
      <trkpt lat="46.9915" lon="8.67031">
        <ele>579</ele>
        <time>2021-08-05T10:01:43.452Z</time>
      </trkpt>
      <trkpt lat="46.99149" lon="8.67034">
        <ele>579</ele>
        <time>2021-08-05T10:01:44.451Z</time>
      </trkpt>
      <trkpt lat="46.99147" lon="8.67036">
        <ele>579</ele>
        <time>2021-08-05T10:01:45.451Z</time>
      </trkpt>
      <trkpt lat="46.99145" lon="8.67038">
        <ele>579</ele>
        <time>2021-08-05T10:01:46.452Z</time>
      </trkpt>
      <trkpt lat="46.99143" lon="8.67041">
        <ele>578</ele>
        <time>2021-08-05T10:01:47.451Z</time>
      </trkpt>
      <trkpt lat="46.99142" lon="8.67043">
        <ele>578</ele>
        <time>2021-08-05T10:01:48.452Z</time>
      </trkpt>
      <trkpt lat="46.99141" lon="8.67045">
        <ele>578</ele>
        <time>2021-08-05T10:01:49.452Z</time>
      </trkpt>
      <trkpt lat="46.9914" lon="8.67046">
        <ele>578</ele>
        <time>2021-08-05T10:01:50.452Z</time>
      </trkpt>
      <trkpt lat="46.99139" lon="8.67047">
        <ele>578</ele>
        <time>2021-08-05T10:01:51.451Z</time>
      </trkpt>
      <trkpt lat="46.99139" lon="8.67049">
        <ele>578</ele>
        <time>2021-08-05T10:01:52.451Z</time>
      </trkpt>
      <trkpt lat="46.9914" lon="8.67051">
        <ele>578</ele>
        <time>2021-08-05T10:01:53.451Z</time>
      </trkpt>
      <trkpt lat="46.99139" lon="8.67054">
        <ele>577</ele>
        <time>2021-08-05T10:01:54.452Z</time>
      </trkpt>
      <trkpt lat="46.99136" lon="8.67057">
        <ele>577</ele>
        <time>2021-08-05T10:01:55.451Z</time>
      </trkpt>
      <trkpt lat="46.99134" lon="8.6706">
        <ele>577</ele>
        <time>2021-08-05T10:01:56.451Z</time>
      </trkpt>
      <trkpt lat="46.99132" lon="8.67061">
        <ele>577</ele>
        <time>2021-08-05T10:01:57.451Z</time>
      </trkpt>
      <trkpt lat="46.9913" lon="8.67064">
        <ele>576</ele>
        <time>2021-08-05T10:01:58.452Z</time>
      </trkpt>
      <trkpt lat="46.99129" lon="8.67067">
        <ele>576</ele>
        <time>2021-08-05T10:01:59.452Z</time>
      </trkpt>
      <trkpt lat="46.9913" lon="8.6707">
        <ele>576</ele>
        <time>2021-08-05T10:02:00.452Z</time>
      </trkpt>
      <trkpt lat="46.9913" lon="8.67073">
        <ele>575</ele>
        <time>2021-08-05T10:02:01.451Z</time>
      </trkpt>
      <trkpt lat="46.9913" lon="8.67075">
        <ele>575</ele>
        <time>2021-08-05T10:02:02.451Z</time>
      </trkpt>
      <trkpt lat="46.9913" lon="8.67077">
        <ele>575</ele>
        <time>2021-08-05T10:02:03.452Z</time>
      </trkpt>
      <trkpt lat="46.99129" lon="8.67079">
        <ele>574</ele>
        <time>2021-08-05T10:02:04.452Z</time>
      </trkpt>
      <trkpt lat="46.99128" lon="8.67081">
        <ele>574</ele>
        <time>2021-08-05T10:02:05.451Z</time>
      </trkpt>
      <trkpt lat="46.99127" lon="8.67083">
        <ele>574</ele>
        <time>2021-08-05T10:02:06.451Z</time>
      </trkpt>
      <trkpt lat="46.99127" lon="8.67085">
        <ele>573</ele>
        <time>2021-08-05T10:02:07.451Z</time>
      </trkpt>
      <trkpt lat="46.99127" lon="8.67086">
        <ele>573</ele>
        <time>2021-08-05T10:02:08.452Z</time>
      </trkpt>
      <trkpt lat="46.99128" lon="8.67088">
        <ele>572</ele>
        <time>2021-08-05T10:02:09.452Z</time>
      </trkpt>
      <trkpt lat="46.99126" lon="8.6709">
        <ele>572</ele>
        <time>2021-08-05T10:02:10.452Z</time>
      </trkpt>
      <trkpt lat="46.99125" lon="8.67092">
        <ele>572</ele>
        <time>2021-08-05T10:02:11.452Z</time>
      </trkpt>
      <trkpt lat="46.99125" lon="8.67094">
        <ele>571</ele>
        <time>2021-08-05T10:02:12.452Z</time>
      </trkpt>
      <trkpt lat="46.99125" lon="8.67096">
        <ele>571</ele>
        <time>2021-08-05T10:02:13.452Z</time>
      </trkpt>
      <trkpt lat="46.99124" lon="8.67098">
        <ele>570</ele>
        <time>2021-08-05T10:02:14.452Z</time>
      </trkpt>
      <trkpt lat="46.99124" lon="8.67099">
        <ele>570</ele>
        <time>2021-08-05T10:02:15.452Z</time>
      </trkpt>
      <trkpt lat="46.99123" lon="8.67101">
        <ele>570</ele>
        <time>2021-08-05T10:02:16.451Z</time>
      </trkpt>
      <trkpt lat="46.99122" lon="8.67103">
        <ele>569</ele>
        <time>2021-08-05T10:02:17.451Z</time>
      </trkpt>
      <trkpt lat="46.99122" lon="8.67105">
        <ele>569</ele>
        <time>2021-08-05T10:02:18.451Z</time>
      </trkpt>
      <trkpt lat="46.99122" lon="8.67107">
        <ele>568</ele>
        <time>2021-08-05T10:02:19.452Z</time>
      </trkpt>
      <trkpt lat="46.99122" lon="8.67109">
        <ele>568</ele>
        <time>2021-08-05T10:02:20.452Z</time>
      </trkpt>
      <trkpt lat="46.99122" lon="8.6711">
        <ele>567</ele>
        <time>2021-08-05T10:02:21.452Z</time>
      </trkpt>
      <trkpt lat="46.99122" lon="8.67111">
        <ele>567</ele>
        <time>2021-08-05T10:02:22.451Z</time>
      </trkpt>
      <trkpt lat="46.99123" lon="8.67112">
        <ele>567</ele>
        <time>2021-08-05T10:02:23.452Z</time>
      </trkpt>
      <trkpt lat="46.99123" lon="8.67113">
        <ele>566</ele>
        <time>2021-08-05T10:02:24.452Z</time>
      </trkpt>
      <trkpt lat="46.99123" lon="8.67114">
        <ele>566</ele>
        <time>2021-08-05T10:02:25.452Z</time>
      </trkpt>
      <trkpt lat="46.99123" lon="8.67116">
        <ele>566</ele>
        <time>2021-08-05T10:02:26.451Z</time>
      </trkpt>
      <trkpt lat="46.99123" lon="8.67118">
        <ele>566</ele>
        <time>2021-08-05T10:02:27.452Z</time>
      </trkpt>
      <trkpt lat="46.99123" lon="8.67121">
        <ele>566</ele>
        <time>2021-08-05T10:02:28.452Z</time>
      </trkpt>
      <trkpt lat="46.99123" lon="8.67124">
        <ele>565</ele>
        <time>2021-08-05T10:02:29.451Z</time>
      </trkpt>
      <trkpt lat="46.99122" lon="8.67127">
        <ele>565</ele>
        <time>2021-08-05T10:02:30.451Z</time>
      </trkpt>
      <trkpt lat="46.99122" lon="8.67129">
        <ele>565</ele>
        <time>2021-08-05T10:02:31.451Z</time>
      </trkpt>
      <trkpt lat="46.99121" lon="8.67132">
        <ele>564</ele>
        <time>2021-08-05T10:02:32.451Z</time>
      </trkpt>
      <trkpt lat="46.99121" lon="8.67135">
        <ele>564</ele>
        <time>2021-08-05T10:02:33.452Z</time>
      </trkpt>
      <trkpt lat="46.99122" lon="8.67138">
        <ele>564</ele>
        <time>2021-08-05T10:02:34.452Z</time>
      </trkpt>
      <trkpt lat="46.99123" lon="8.6714">
        <ele>563</ele>
        <time>2021-08-05T10:02:35.452Z</time>
      </trkpt>
      <trkpt lat="46.99123" lon="8.67143">
        <ele>563</ele>
        <time>2021-08-05T10:02:36.452Z</time>
      </trkpt>
      <trkpt lat="46.99124" lon="8.67144">
        <ele>563</ele>
        <time>2021-08-05T10:02:37.451Z</time>
      </trkpt>
      <trkpt lat="46.99124" lon="8.67145">
        <ele>563</ele>
        <time>2021-08-05T10:02:38.451Z</time>
      </trkpt>
      <trkpt lat="46.99124" lon="8.67146">
        <ele>563</ele>
        <time>2021-08-05T10:02:39.452Z</time>
      </trkpt>
      <trkpt lat="46.99124" lon="8.67146">
        <ele>563</ele>
        <time>2021-08-05T10:02:40.452Z</time>
      </trkpt>
      <trkpt lat="46.99124" lon="8.67147">
        <ele>563</ele>
        <time>2021-08-05T10:02:41.451Z</time>
      </trkpt>
      <trkpt lat="46.99125" lon="8.67147">
        <ele>563</ele>
        <time>2021-08-05T10:02:42.451Z</time>
      </trkpt>
      <trkpt lat="46.99125" lon="8.67147">
        <ele>563</ele>
        <time>2021-08-05T10:02:43.452Z</time>
      </trkpt>
      <trkpt lat="46.99125" lon="8.67147">
        <ele>563</ele>
        <time>2021-08-05T10:02:44.452Z</time>
      </trkpt>
      <trkpt lat="46.99126" lon="8.6715">
        <ele>563</ele>
        <time>2021-08-05T10:02:45.453Z</time>
      </trkpt>
      <trkpt lat="46.99127" lon="8.67151">
        <ele>564</ele>
        <time>2021-08-05T10:02:46.453Z</time>
      </trkpt>
      <trkpt lat="46.99127" lon="8.67152">
        <ele>564</ele>
        <time>2021-08-05T10:02:47.452Z</time>
      </trkpt>
      <trkpt lat="46.99128" lon="8.67153">
        <ele>564</ele>
        <time>2021-08-05T10:02:48.453Z</time>
      </trkpt>
      <trkpt lat="46.99128" lon="8.67155">
        <ele>564</ele>
        <time>2021-08-05T10:02:49.452Z</time>
      </trkpt>
      <trkpt lat="46.99128" lon="8.67157">
        <ele>563</ele>
        <time>2021-08-05T10:02:50.453Z</time>
      </trkpt>
      <trkpt lat="46.99129" lon="8.67159">
        <ele>563</ele>
        <time>2021-08-05T10:02:51.452Z</time>
      </trkpt>
      <trkpt lat="46.99129" lon="8.67162">
        <ele>563</ele>
        <time>2021-08-05T10:02:52.452Z</time>
      </trkpt>
      <trkpt lat="46.99131" lon="8.67162">
        <ele>563</ele>
        <time>2021-08-05T10:02:53.453Z</time>
      </trkpt>
      <trkpt lat="46.99133" lon="8.67159">
        <ele>563</ele>
        <time>2021-08-05T10:02:54.453Z</time>
      </trkpt>
      <trkpt lat="46.99134" lon="8.67158">
        <ele>564</ele>
        <time>2021-08-05T10:02:55.452Z</time>
      </trkpt>
      <trkpt lat="46.99135" lon="8.67156">
        <ele>564</ele>
        <time>2021-08-05T10:02:56.453Z</time>
      </trkpt>
      <trkpt lat="46.99135" lon="8.67155">
        <ele>564</ele>
        <time>2021-08-05T10:02:57.453Z</time>
      </trkpt>
      <trkpt lat="46.99133" lon="8.67151">
        <ele>568</ele>
        <time>2021-08-05T10:02:58.453Z</time>
      </trkpt>
      <trkpt lat="46.99133" lon="8.67152">
        <ele>569</ele>
        <time>2021-08-05T10:02:59.453Z</time>
      </trkpt>
      <trkpt lat="46.99134" lon="8.67152">
        <ele>569</ele>
        <time>2021-08-05T10:03:00.453Z</time>
      </trkpt>
      <trkpt lat="46.99134" lon="8.67151">
        <ele>570</ele>
        <time>2021-08-05T10:03:01.454Z</time>
      </trkpt>
      <trkpt lat="46.99135" lon="8.6715">
        <ele>570</ele>
        <time>2021-08-05T10:03:02.454Z</time>
      </trkpt>
      <trkpt lat="46.99135" lon="8.67149">
        <ele>570</ele>
        <time>2021-08-05T10:03:03.454Z</time>
      </trkpt>
      <trkpt lat="46.99136" lon="8.67148">
        <ele>570</ele>
        <time>2021-08-05T10:03:04.454Z</time>
      </trkpt>
      <trkpt lat="46.99137" lon="8.67148">
        <ele>570</ele>
        <time>2021-08-05T10:03:05.454Z</time>
      </trkpt>
      <trkpt lat="46.99137" lon="8.67149">
        <ele>570</ele>
        <time>2021-08-05T10:03:06.453Z</time>
      </trkpt>
      <trkpt lat="46.99137" lon="8.6715">
        <ele>570</ele>
        <time>2021-08-05T10:03:07.454Z</time>
      </trkpt>
      <trkpt lat="46.99136" lon="8.67151">
        <ele>569</ele>
        <time>2021-08-05T10:03:08.454Z</time>
      </trkpt>
      <trkpt lat="46.99136" lon="8.67152">
        <ele>569</ele>
        <time>2021-08-05T10:03:09.454Z</time>
      </trkpt>
      <trkpt lat="46.99136" lon="8.67153">
        <ele>569</ele>
        <time>2021-08-05T10:03:10.453Z</time>
      </trkpt>
      <trkpt lat="46.99136" lon="8.67154">
        <ele>568</ele>
        <time>2021-08-05T10:03:11.453Z</time>
      </trkpt>
      <trkpt lat="46.99137" lon="8.67156">
        <ele>568</ele>
        <time>2021-08-05T10:03:12.454Z</time>
      </trkpt>
      <trkpt lat="46.99137" lon="8.67157">
        <ele>568</ele>
        <time>2021-08-05T10:03:13.454Z</time>
      </trkpt>
      <trkpt lat="46.99138" lon="8.67158">
        <ele>568</ele>
        <time>2021-08-05T10:03:14.454Z</time>
      </trkpt>
      <trkpt lat="46.99139" lon="8.67159">
        <ele>568</ele>
        <time>2021-08-05T10:03:15.454Z</time>
      </trkpt>
      <trkpt lat="46.99139" lon="8.6716">
        <ele>568</ele>
        <time>2021-08-05T10:03:16.453Z</time>
      </trkpt>
      <trkpt lat="46.99138" lon="8.67161">
        <ele>567</ele>
        <time>2021-08-05T10:03:17.454Z</time>
      </trkpt>
      <trkpt lat="46.99138" lon="8.67162">
        <ele>567</ele>
        <time>2021-08-05T10:03:18.453Z</time>
      </trkpt>
      <trkpt lat="46.99138" lon="8.67163">
        <ele>566</ele>
        <time>2021-08-05T10:03:19.454Z</time>
      </trkpt>
      <trkpt lat="46.99138" lon="8.67164">
        <ele>566</ele>
        <time>2021-08-05T10:03:20.454Z</time>
      </trkpt>
      <trkpt lat="46.99138" lon="8.67165">
        <ele>565</ele>
        <time>2021-08-05T10:03:21.454Z</time>
      </trkpt>
      <trkpt lat="46.99137" lon="8.67166">
        <ele>564</ele>
        <time>2021-08-05T10:03:22.454Z</time>
      </trkpt>
      <trkpt lat="46.99136" lon="8.67168">
        <ele>564</ele>
        <time>2021-08-05T10:03:23.453Z</time>
      </trkpt>
      <trkpt lat="46.99135" lon="8.6717">
        <ele>563</ele>
        <time>2021-08-05T10:03:24.454Z</time>
      </trkpt>
      <trkpt lat="46.99134" lon="8.67172">
        <ele>562</ele>
        <time>2021-08-05T10:03:25.454Z</time>
      </trkpt>
      <trkpt lat="46.99133" lon="8.67174">
        <ele>562</ele>
        <time>2021-08-05T10:03:26.453Z</time>
      </trkpt>
      <trkpt lat="46.99132" lon="8.67176">
        <ele>561</ele>
        <time>2021-08-05T10:03:27.453Z</time>
      </trkpt>
      <trkpt lat="46.9913" lon="8.67177">
        <ele>560</ele>
        <time>2021-08-05T10:03:28.453Z</time>
      </trkpt>
      <trkpt lat="46.99128" lon="8.67179">
        <ele>560</ele>
        <time>2021-08-05T10:03:29.454Z</time>
      </trkpt>
      <trkpt lat="46.99126" lon="8.67181">
        <ele>559</ele>
        <time>2021-08-05T10:03:30.454Z</time>
      </trkpt>
      <trkpt lat="46.99126" lon="8.67182">
        <ele>559</ele>
        <time>2021-08-05T10:03:31.454Z</time>
      </trkpt>
      <trkpt lat="46.99127" lon="8.67183">
        <ele>558</ele>
        <time>2021-08-05T10:03:32.453Z</time>
      </trkpt>
      <trkpt lat="46.99128" lon="8.67185">
        <ele>558</ele>
        <time>2021-08-05T10:03:33.453Z</time>
      </trkpt>
      <trkpt lat="46.99128" lon="8.67186">
        <ele>557</ele>
        <time>2021-08-05T10:03:34.454Z</time>
      </trkpt>
      <trkpt lat="46.99128" lon="8.67188">
        <ele>557</ele>
        <time>2021-08-05T10:03:35.454Z</time>
      </trkpt>
      <trkpt lat="46.99128" lon="8.67189">
        <ele>557</ele>
        <time>2021-08-05T10:03:36.454Z</time>
      </trkpt>
      <trkpt lat="46.99128" lon="8.67191">
        <ele>556</ele>
        <time>2021-08-05T10:03:37.454Z</time>
      </trkpt>
      <trkpt lat="46.99128" lon="8.67192">
        <ele>556</ele>
        <time>2021-08-05T10:03:38.454Z</time>
      </trkpt>
      <trkpt lat="46.99127" lon="8.67192">
        <ele>555</ele>
        <time>2021-08-05T10:03:39.454Z</time>
      </trkpt>
      <trkpt lat="46.99127" lon="8.67193">
        <ele>555</ele>
        <time>2021-08-05T10:03:40.453Z</time>
      </trkpt>
      <trkpt lat="46.99125" lon="8.67193">
        <ele>554</ele>
        <time>2021-08-05T10:03:41.454Z</time>
      </trkpt>
      <trkpt lat="46.99124" lon="8.67194">
        <ele>554</ele>
        <time>2021-08-05T10:03:42.454Z</time>
      </trkpt>
      <trkpt lat="46.99123" lon="8.67194">
        <ele>554</ele>
        <time>2021-08-05T10:03:43.454Z</time>
      </trkpt>
      <trkpt lat="46.99122" lon="8.67194">
        <ele>553</ele>
        <time>2021-08-05T10:03:44.454Z</time>
      </trkpt>
      <trkpt lat="46.99122" lon="8.67195">
        <ele>553</ele>
        <time>2021-08-05T10:03:45.453Z</time>
      </trkpt>
      <trkpt lat="46.99122" lon="8.67196">
        <ele>553</ele>
        <time>2021-08-05T10:03:46.454Z</time>
      </trkpt>
      <trkpt lat="46.99122" lon="8.67198">
        <ele>553</ele>
        <time>2021-08-05T10:03:47.454Z</time>
      </trkpt>
      <trkpt lat="46.99122" lon="8.672">
        <ele>552</ele>
        <time>2021-08-05T10:03:48.454Z</time>
      </trkpt>
      <trkpt lat="46.99121" lon="8.67202">
        <ele>552</ele>
        <time>2021-08-05T10:03:49.454Z</time>
      </trkpt>
      <trkpt lat="46.99119" lon="8.67203">
        <ele>552</ele>
        <time>2021-08-05T10:03:50.454Z</time>
      </trkpt>
      <trkpt lat="46.99117" lon="8.67204">
        <ele>552</ele>
        <time>2021-08-05T10:03:51.453Z</time>
      </trkpt>
      <trkpt lat="46.99115" lon="8.67206">
        <ele>552</ele>
        <time>2021-08-05T10:03:52.454Z</time>
      </trkpt>
      <trkpt lat="46.99112" lon="8.67207">
        <ele>552</ele>
        <time>2021-08-05T10:03:53.454Z</time>
      </trkpt>
      <trkpt lat="46.99111" lon="8.67208">
        <ele>552</ele>
        <time>2021-08-05T10:03:54.453Z</time>
      </trkpt>
      <trkpt lat="46.9911" lon="8.6721">
        <ele>552</ele>
        <time>2021-08-05T10:03:55.454Z</time>
      </trkpt>
      <trkpt lat="46.9911" lon="8.67211">
        <ele>552</ele>
        <time>2021-08-05T10:03:56.453Z</time>
      </trkpt>
      <trkpt lat="46.99108" lon="8.67214">
        <ele>552</ele>
        <time>2021-08-05T10:03:57.454Z</time>
      </trkpt>
      <trkpt lat="46.99107" lon="8.67216">
        <ele>552</ele>
        <time>2021-08-05T10:03:58.454Z</time>
      </trkpt>
      <trkpt lat="46.99107" lon="8.67217">
        <ele>552</ele>
        <time>2021-08-05T10:03:59.453Z</time>
      </trkpt>
      <trkpt lat="46.99106" lon="8.67218">
        <ele>552</ele>
        <time>2021-08-05T10:04:00.454Z</time>
      </trkpt>
      <trkpt lat="46.99106" lon="8.6722">
        <ele>553</ele>
        <time>2021-08-05T10:04:01.454Z</time>
      </trkpt>
      <trkpt lat="46.99106" lon="8.67222">
        <ele>553</ele>
        <time>2021-08-05T10:04:02.453Z</time>
      </trkpt>
      <trkpt lat="46.99105" lon="8.67224">
        <ele>554</ele>
        <time>2021-08-05T10:04:03.453Z</time>
      </trkpt>
      <trkpt lat="46.99105" lon="8.67226">
        <ele>554</ele>
        <time>2021-08-05T10:04:04.453Z</time>
      </trkpt>
      <trkpt lat="46.99104" lon="8.67227">
        <ele>555</ele>
        <time>2021-08-05T10:04:05.453Z</time>
      </trkpt>
      <trkpt lat="46.99103" lon="8.67229">
        <ele>555</ele>
        <time>2021-08-05T10:04:06.453Z</time>
      </trkpt>
      <trkpt lat="46.99103" lon="8.67231">
        <ele>556</ele>
        <time>2021-08-05T10:04:07.454Z</time>
      </trkpt>
      <trkpt lat="46.99102" lon="8.67232">
        <ele>557</ele>
        <time>2021-08-05T10:04:08.454Z</time>
      </trkpt>
      <trkpt lat="46.99101" lon="8.67235">
        <ele>557</ele>
        <time>2021-08-05T10:04:09.454Z</time>
      </trkpt>
      <trkpt lat="46.99101" lon="8.67237">
        <ele>557</ele>
        <time>2021-08-05T10:04:10.453Z</time>
      </trkpt>
      <trkpt lat="46.99101" lon="8.6724">
        <ele>558</ele>
        <time>2021-08-05T10:04:11.454Z</time>
      </trkpt>
      <trkpt lat="46.991" lon="8.67242">
        <ele>558</ele>
        <time>2021-08-05T10:04:12.454Z</time>
      </trkpt>
      <trkpt lat="46.991" lon="8.67244">
        <ele>558</ele>
        <time>2021-08-05T10:04:13.454Z</time>
      </trkpt>
      <trkpt lat="46.991" lon="8.67245">
        <ele>559</ele>
        <time>2021-08-05T10:04:14.453Z</time>
      </trkpt>
      <trkpt lat="46.99099" lon="8.67247">
        <ele>559</ele>
        <time>2021-08-05T10:04:15.454Z</time>
      </trkpt>
      <trkpt lat="46.99098" lon="8.67248">
        <ele>559</ele>
        <time>2021-08-05T10:04:16.454Z</time>
      </trkpt>
      <trkpt lat="46.99098" lon="8.6725">
        <ele>559</ele>
        <time>2021-08-05T10:04:17.454Z</time>
      </trkpt>
      <trkpt lat="46.99097" lon="8.67251">
        <ele>559</ele>
        <time>2021-08-05T10:04:18.454Z</time>
      </trkpt>
      <trkpt lat="46.99096" lon="8.67251">
        <ele>560</ele>
        <time>2021-08-05T10:04:19.453Z</time>
      </trkpt>
      <trkpt lat="46.99096" lon="8.67253">
        <ele>560</ele>
        <time>2021-08-05T10:04:20.454Z</time>
      </trkpt>
      <trkpt lat="46.99097" lon="8.67254">
        <ele>561</ele>
        <time>2021-08-05T10:04:21.453Z</time>
      </trkpt>
      <trkpt lat="46.99098" lon="8.67254">
        <ele>561</ele>
        <time>2021-08-05T10:04:22.453Z</time>
      </trkpt>
      <trkpt lat="46.99097" lon="8.67254">
        <ele>562</ele>
        <time>2021-08-05T10:04:23.453Z</time>
      </trkpt>
      <trkpt lat="46.99096" lon="8.67254">
        <ele>562</ele>
        <time>2021-08-05T10:04:24.453Z</time>
      </trkpt>
      <trkpt lat="46.99096" lon="8.67255">
        <ele>563</ele>
        <time>2021-08-05T10:04:25.453Z</time>
      </trkpt>
      <trkpt lat="46.99096" lon="8.67256">
        <ele>563</ele>
        <time>2021-08-05T10:04:26.453Z</time>
      </trkpt>
      <trkpt lat="46.99094" lon="8.67257">
        <ele>563</ele>
        <time>2021-08-05T10:04:27.453Z</time>
      </trkpt>
      <trkpt lat="46.99093" lon="8.67258">
        <ele>563</ele>
        <time>2021-08-05T10:04:28.454Z</time>
      </trkpt>
      <trkpt lat="46.99092" lon="8.67259">
        <ele>564</ele>
        <time>2021-08-05T10:04:29.453Z</time>
      </trkpt>
      <trkpt lat="46.99092" lon="8.6726">
        <ele>563</ele>
        <time>2021-08-05T10:04:30.453Z</time>
      </trkpt>
      <trkpt lat="46.99092" lon="8.67261">
        <ele>562</ele>
        <time>2021-08-05T10:04:31.453Z</time>
      </trkpt>
      <trkpt lat="46.99092" lon="8.67262">
        <ele>561</ele>
        <time>2021-08-05T10:04:32.454Z</time>
      </trkpt>
      <trkpt lat="46.99092" lon="8.67263">
        <ele>560</ele>
        <time>2021-08-05T10:04:33.454Z</time>
      </trkpt>
      <trkpt lat="46.99096" lon="8.67273">
        <ele>554</ele>
        <time>2021-08-05T10:04:34.455Z</time>
      </trkpt>
      <trkpt lat="46.99098" lon="8.67273">
        <ele>555</ele>
        <time>2021-08-05T10:04:35.455Z</time>
      </trkpt>
      <trkpt lat="46.991" lon="8.67271">
        <ele>556</ele>
        <time>2021-08-05T10:04:36.455Z</time>
      </trkpt>
      <trkpt lat="46.99102" lon="8.67271">
        <ele>556</ele>
        <time>2021-08-05T10:04:37.455Z</time>
      </trkpt>
      <trkpt lat="46.99102" lon="8.67272">
        <ele>556</ele>
        <time>2021-08-05T10:04:38.455Z</time>
      </trkpt>
      <trkpt lat="46.99102" lon="8.67273">
        <ele>557</ele>
        <time>2021-08-05T10:04:39.454Z</time>
      </trkpt>
      <trkpt lat="46.99101" lon="8.67275">
        <ele>557</ele>
        <time>2021-08-05T10:04:40.455Z</time>
      </trkpt>
      <trkpt lat="46.991" lon="8.67276">
        <ele>558</ele>
        <time>2021-08-05T10:04:41.455Z</time>
      </trkpt>
      <trkpt lat="46.991" lon="8.67276">
        <ele>558</ele>
        <time>2021-08-05T10:04:42.454Z</time>
      </trkpt>
      <trkpt lat="46.991" lon="8.67276">
        <ele>559</ele>
        <time>2021-08-05T10:04:43.454Z</time>
      </trkpt>
      <trkpt lat="46.99099" lon="8.67276">
        <ele>559</ele>
        <time>2021-08-05T10:04:44.455Z</time>
      </trkpt>
      <trkpt lat="46.99099" lon="8.67276">
        <ele>559</ele>
        <time>2021-08-05T10:04:45.454Z</time>
      </trkpt>
      <trkpt lat="46.99099" lon="8.67276">
        <ele>559</ele>
        <time>2021-08-05T10:04:46.455Z</time>
      </trkpt>
      <trkpt lat="46.991" lon="8.67276">
        <ele>559</ele>
        <time>2021-08-05T10:04:47.454Z</time>
      </trkpt>
      <trkpt lat="46.991" lon="8.67277">
        <ele>559</ele>
        <time>2021-08-05T10:04:48.454Z</time>
      </trkpt>
      <trkpt lat="46.99101" lon="8.67277">
        <ele>559</ele>
        <time>2021-08-05T10:04:49.455Z</time>
      </trkpt>
      <trkpt lat="46.99102" lon="8.67277">
        <ele>559</ele>
        <time>2021-08-05T10:04:50.454Z</time>
      </trkpt>
      <trkpt lat="46.99102" lon="8.67277">
        <ele>559</ele>
        <time>2021-08-05T10:04:51.455Z</time>
      </trkpt>
      <trkpt lat="46.99103" lon="8.67277">
        <ele>558</ele>
        <time>2021-08-05T10:04:52.454Z</time>
      </trkpt>
      <trkpt lat="46.99103" lon="8.67276">
        <ele>558</ele>
        <time>2021-08-05T10:04:53.455Z</time>
      </trkpt>
      <trkpt lat="46.99102" lon="8.67275">
        <ele>558</ele>
        <time>2021-08-05T10:04:54.455Z</time>
      </trkpt>
      <trkpt lat="46.991" lon="8.67273">
        <ele>557</ele>
        <time>2021-08-05T10:04:55.457Z</time>
      </trkpt>
      <trkpt lat="46.991" lon="8.67272">
        <ele>557</ele>
        <time>2021-08-05T10:04:56.456Z</time>
      </trkpt>
      <trkpt lat="46.991" lon="8.6727">
        <ele>557</ele>
        <time>2021-08-05T10:04:57.456Z</time>
      </trkpt>
      <trkpt lat="46.99098" lon="8.67269">
        <ele>557</ele>
        <time>2021-08-05T10:04:58.456Z</time>
      </trkpt>
      <trkpt lat="46.99095" lon="8.67268">
        <ele>558</ele>
        <time>2021-08-05T10:04:59.456Z</time>
      </trkpt>
      <trkpt lat="46.99094" lon="8.6727">
        <ele>558</ele>
        <time>2021-08-05T10:05:00.457Z</time>
      </trkpt>
      <trkpt lat="46.99095" lon="8.6727">
        <ele>558</ele>
        <time>2021-08-05T10:05:01.457Z</time>
      </trkpt>
      <trkpt lat="46.99095" lon="8.67271">
        <ele>557</ele>
        <time>2021-08-05T10:05:02.457Z</time>
      </trkpt>
      <trkpt lat="46.99096" lon="8.67278">
        <ele>552</ele>
        <time>2021-08-05T10:05:03.458Z</time>
      </trkpt>
      <trkpt lat="46.99096" lon="8.67278">
        <ele>553</ele>
        <time>2021-08-05T10:05:04.457Z</time>
      </trkpt>
      <trkpt lat="46.99096" lon="8.67277">
        <ele>553</ele>
        <time>2021-08-05T10:05:05.458Z</time>
      </trkpt>
      <trkpt lat="46.99096" lon="8.67277">
        <ele>553</ele>
        <time>2021-08-05T10:05:06.458Z</time>
      </trkpt>
      <trkpt lat="46.99097" lon="8.67278">
        <ele>556</ele>
        <time>2021-08-05T10:05:07.458Z</time>
      </trkpt>
      <trkpt lat="46.99098" lon="8.67278">
        <ele>557</ele>
        <time>2021-08-05T10:05:08.457Z</time>
      </trkpt>
      <trkpt lat="46.99098" lon="8.6728">
        <ele>552</ele>
        <time>2021-08-05T10:05:09.457Z</time>
      </trkpt>
      <trkpt lat="46.99098" lon="8.6728">
        <ele>552</ele>
        <time>2021-08-05T10:05:10.457Z</time>
      </trkpt>
      <trkpt lat="46.99096" lon="8.67274">
        <ele>555</ele>
        <time>2021-08-05T10:05:11.458Z</time>
      </trkpt>
      <trkpt lat="46.99096" lon="8.67274">
        <ele>555</ele>
        <time>2021-08-05T10:05:12.458Z</time>
      </trkpt>
      <trkpt lat="46.99097" lon="8.67274">
        <ele>554</ele>
        <time>2021-08-05T10:05:13.458Z</time>
      </trkpt>
      <trkpt lat="46.99097" lon="8.67274">
        <ele>554</ele>
        <time>2021-08-05T10:05:14.458Z</time>
      </trkpt>
      <trkpt lat="46.99097" lon="8.67274">
        <ele>555</ele>
        <time>2021-08-05T10:05:15.459Z</time>
      </trkpt>
      <trkpt lat="46.99098" lon="8.67273">
        <ele>555</ele>
        <time>2021-08-05T10:05:16.459Z</time>
      </trkpt>
      <trkpt lat="46.99098" lon="8.67271">
        <ele>555</ele>
        <time>2021-08-05T10:05:17.459Z</time>
      </trkpt>
      <trkpt lat="46.99098" lon="8.67271">
        <ele>555</ele>
        <time>2021-08-05T10:05:18.459Z</time>
      </trkpt>
      <trkpt lat="46.99097" lon="8.67271">
        <ele>555</ele>
        <time>2021-08-05T10:05:19.459Z</time>
      </trkpt>
      <trkpt lat="46.99097" lon="8.67272">
        <ele>556</ele>
        <time>2021-08-05T10:05:20.459Z</time>
      </trkpt>
      <trkpt lat="46.99098" lon="8.67272">
        <ele>556</ele>
        <time>2021-08-05T10:05:21.459Z</time>
      </trkpt>
      <trkpt lat="46.99096" lon="8.67276">
        <ele>555</ele>
        <time>2021-08-05T10:05:22.459Z</time>
      </trkpt>
      <trkpt lat="46.99096" lon="8.67286">
        <ele>554</ele>
        <time>2021-08-05T10:05:23.461Z</time>
      </trkpt>
      <trkpt lat="46.99096" lon="8.67284">
        <ele>553</ele>
        <time>2021-08-05T10:05:24.461Z</time>
      </trkpt>
      <trkpt lat="46.99096" lon="8.67282">
        <ele>554</ele>
        <time>2021-08-05T10:05:25.461Z</time>
      </trkpt>
      <trkpt lat="46.99096" lon="8.67281">
        <ele>553</ele>
        <time>2021-08-05T10:05:26.460Z</time>
      </trkpt>
      <trkpt lat="46.99096" lon="8.6728">
        <ele>553</ele>
        <time>2021-08-05T10:05:27.461Z</time>
      </trkpt>
      <trkpt lat="46.99096" lon="8.67279">
        <ele>553</ele>
        <time>2021-08-05T10:05:28.461Z</time>
      </trkpt>
      <trkpt lat="46.99095" lon="8.67278">
        <ele>553</ele>
        <time>2021-08-05T10:05:29.461Z</time>
      </trkpt>
      <trkpt lat="46.99095" lon="8.67277">
        <ele>552</ele>
        <time>2021-08-05T10:05:30.460Z</time>
      </trkpt>
      <trkpt lat="46.99095" lon="8.67276">
        <ele>552</ele>
        <time>2021-08-05T10:05:31.460Z</time>
      </trkpt>
      <trkpt lat="46.99095" lon="8.67275">
        <ele>552</ele>
        <time>2021-08-05T10:05:32.460Z</time>
      </trkpt>
      <trkpt lat="46.99093" lon="8.67274">
        <ele>552</ele>
        <time>2021-08-05T10:05:33.461Z</time>
      </trkpt>
      <trkpt lat="46.99093" lon="8.67274">
        <ele>552</ele>
        <time>2021-08-05T10:05:34.461Z</time>
      </trkpt>
      <trkpt lat="46.99093" lon="8.67274">
        <ele>553</ele>
        <time>2021-08-05T10:05:35.461Z</time>
      </trkpt>
      <trkpt lat="46.99093" lon="8.67275">
        <ele>553</ele>
        <time>2021-08-05T10:05:36.461Z</time>
      </trkpt>
      <trkpt lat="46.99092" lon="8.67275">
        <ele>554</ele>
        <time>2021-08-05T10:05:37.461Z</time>
      </trkpt>
      <trkpt lat="46.99092" lon="8.67276">
        <ele>554</ele>
        <time>2021-08-05T10:05:38.462Z</time>
      </trkpt>
      <trkpt lat="46.99092" lon="8.67277">
        <ele>555</ele>
        <time>2021-08-05T10:05:39.461Z</time>
      </trkpt>
      <trkpt lat="46.99091" lon="8.67278">
        <ele>556</ele>
        <time>2021-08-05T10:05:40.461Z</time>
      </trkpt>
      <trkpt lat="46.9909" lon="8.67279">
        <ele>556</ele>
        <time>2021-08-05T10:05:41.462Z</time>
      </trkpt>
      <trkpt lat="46.9909" lon="8.67279">
        <ele>557</ele>
        <time>2021-08-05T10:05:42.462Z</time>
      </trkpt>
      <trkpt lat="46.99089" lon="8.6728">
        <ele>557</ele>
        <time>2021-08-05T10:05:43.462Z</time>
      </trkpt>
      <trkpt lat="46.99088" lon="8.67281">
        <ele>558</ele>
        <time>2021-08-05T10:05:44.461Z</time>
      </trkpt>
      <trkpt lat="46.99087" lon="8.67282">
        <ele>558</ele>
        <time>2021-08-05T10:05:45.461Z</time>
      </trkpt>
      <trkpt lat="46.99086" lon="8.67283">
        <ele>559</ele>
        <time>2021-08-05T10:05:46.461Z</time>
      </trkpt>
      <trkpt lat="46.99085" lon="8.67285">
        <ele>560</ele>
        <time>2021-08-05T10:05:47.461Z</time>
      </trkpt>
      <trkpt lat="46.99084" lon="8.67286">
        <ele>560</ele>
        <time>2021-08-05T10:05:48.462Z</time>
      </trkpt>
      <trkpt lat="46.99083" lon="8.67287">
        <ele>561</ele>
        <time>2021-08-05T10:05:49.461Z</time>
      </trkpt>
      <trkpt lat="46.99082" lon="8.67288">
        <ele>561</ele>
        <time>2021-08-05T10:05:50.461Z</time>
      </trkpt>
      <trkpt lat="46.99081" lon="8.6729">
        <ele>561</ele>
        <time>2021-08-05T10:05:51.461Z</time>
      </trkpt>
      <trkpt lat="46.9908" lon="8.67291">
        <ele>561</ele>
        <time>2021-08-05T10:05:52.461Z</time>
      </trkpt>
      <trkpt lat="46.9908" lon="8.67292">
        <ele>561</ele>
        <time>2021-08-05T10:05:53.461Z</time>
      </trkpt>
      <trkpt lat="46.99079" lon="8.67293">
        <ele>562</ele>
        <time>2021-08-05T10:05:54.461Z</time>
      </trkpt>
      <trkpt lat="46.99078" lon="8.67294">
        <ele>561</ele>
        <time>2021-08-05T10:05:55.461Z</time>
      </trkpt>
      <trkpt lat="46.99077" lon="8.67295">
        <ele>561</ele>
        <time>2021-08-05T10:05:56.461Z</time>
      </trkpt>
      <trkpt lat="46.99076" lon="8.67295">
        <ele>561</ele>
        <time>2021-08-05T10:05:57.461Z</time>
      </trkpt>
      <trkpt lat="46.99075" lon="8.67298">
        <ele>561</ele>
        <time>2021-08-05T10:05:58.461Z</time>
      </trkpt>
      <trkpt lat="46.99074" lon="8.67301">
        <ele>561</ele>
        <time>2021-08-05T10:05:59.461Z</time>
      </trkpt>
      <trkpt lat="46.99073" lon="8.67305">
        <ele>561</ele>
        <time>2021-08-05T10:06:00.462Z</time>
      </trkpt>
      <trkpt lat="46.99071" lon="8.67306">
        <ele>561</ele>
        <time>2021-08-05T10:06:01.461Z</time>
      </trkpt>
      <trkpt lat="46.9907" lon="8.67306">
        <ele>561</ele>
        <time>2021-08-05T10:06:02.461Z</time>
      </trkpt>
      <trkpt lat="46.9907" lon="8.67306">
        <ele>562</ele>
        <time>2021-08-05T10:06:03.461Z</time>
      </trkpt>
      <trkpt lat="46.9907" lon="8.67308">
        <ele>562</ele>
        <time>2021-08-05T10:06:04.462Z</time>
      </trkpt>
      <trkpt lat="46.99069" lon="8.6731">
        <ele>562</ele>
        <time>2021-08-05T10:06:05.462Z</time>
      </trkpt>
      <trkpt lat="46.99069" lon="8.67311">
        <ele>563</ele>
        <time>2021-08-05T10:06:06.462Z</time>
      </trkpt>
      <trkpt lat="46.99068" lon="8.67312">
        <ele>563</ele>
        <time>2021-08-05T10:06:07.462Z</time>
      </trkpt>
      <trkpt lat="46.99068" lon="8.67313">
        <ele>563</ele>
        <time>2021-08-05T10:06:08.462Z</time>
      </trkpt>
      <trkpt lat="46.99069" lon="8.67314">
        <ele>564</ele>
        <time>2021-08-05T10:06:09.462Z</time>
      </trkpt>
      <trkpt lat="46.99069" lon="8.67313">
        <ele>564</ele>
        <time>2021-08-05T10:06:10.462Z</time>
      </trkpt>
      <trkpt lat="46.9907" lon="8.67312">
        <ele>564</ele>
        <time>2021-08-05T10:06:11.462Z</time>
      </trkpt>
      <trkpt lat="46.99069" lon="8.67313">
        <ele>563</ele>
        <time>2021-08-05T10:06:12.462Z</time>
      </trkpt>
      <trkpt lat="46.99068" lon="8.67314">
        <ele>563</ele>
        <time>2021-08-05T10:06:13.462Z</time>
      </trkpt>
      <trkpt lat="46.99067" lon="8.67314">
        <ele>563</ele>
        <time>2021-08-05T10:06:14.461Z</time>
      </trkpt>
      <trkpt lat="46.99068" lon="8.67315">
        <ele>562</ele>
        <time>2021-08-05T10:06:15.462Z</time>
      </trkpt>
      <trkpt lat="46.99068" lon="8.67316">
        <ele>562</ele>
        <time>2021-08-05T10:06:16.462Z</time>
      </trkpt>
      <trkpt lat="46.99067" lon="8.67318">
        <ele>561</ele>
        <time>2021-08-05T10:06:17.462Z</time>
      </trkpt>
      <trkpt lat="46.99067" lon="8.6732">
        <ele>561</ele>
        <time>2021-08-05T10:06:18.461Z</time>
      </trkpt>
      <trkpt lat="46.99066" lon="8.67321">
        <ele>560</ele>
        <time>2021-08-05T10:06:19.462Z</time>
      </trkpt>
      <trkpt lat="46.99065" lon="8.67323">
        <ele>560</ele>
        <time>2021-08-05T10:06:20.461Z</time>
      </trkpt>
      <trkpt lat="46.99064" lon="8.67324">
        <ele>559</ele>
        <time>2021-08-05T10:06:21.461Z</time>
      </trkpt>
      <trkpt lat="46.99064" lon="8.67326">
        <ele>559</ele>
        <time>2021-08-05T10:06:22.462Z</time>
      </trkpt>
      <trkpt lat="46.99063" lon="8.67328">
        <ele>559</ele>
        <time>2021-08-05T10:06:23.462Z</time>
      </trkpt>
      <trkpt lat="46.99063" lon="8.67329">
        <ele>558</ele>
        <time>2021-08-05T10:06:24.462Z</time>
      </trkpt>
      <trkpt lat="46.99063" lon="8.67329">
        <ele>558</ele>
        <time>2021-08-05T10:06:25.461Z</time>
      </trkpt>
      <trkpt lat="46.99062" lon="8.67331">
        <ele>558</ele>
        <time>2021-08-05T10:06:26.462Z</time>
      </trkpt>
      <trkpt lat="46.99061" lon="8.67332">
        <ele>557</ele>
        <time>2021-08-05T10:06:27.462Z</time>
      </trkpt>
      <trkpt lat="46.99059" lon="8.67334">
        <ele>556</ele>
        <time>2021-08-05T10:06:28.461Z</time>
      </trkpt>
      <trkpt lat="46.99057" lon="8.67335">
        <ele>555</ele>
        <time>2021-08-05T10:06:29.461Z</time>
      </trkpt>
      <trkpt lat="46.99056" lon="8.67336">
        <ele>554</ele>
        <time>2021-08-05T10:06:30.461Z</time>
      </trkpt>
      <trkpt lat="46.99055" lon="8.67337">
        <ele>553</ele>
        <time>2021-08-05T10:06:31.462Z</time>
      </trkpt>
      <trkpt lat="46.99055" lon="8.67338">
        <ele>552</ele>
        <time>2021-08-05T10:06:32.462Z</time>
      </trkpt>
      <trkpt lat="46.99055" lon="8.67339">
        <ele>552</ele>
        <time>2021-08-05T10:06:33.462Z</time>
      </trkpt>
      <trkpt lat="46.99055" lon="8.67341">
        <ele>551</ele>
        <time>2021-08-05T10:06:34.461Z</time>
      </trkpt>
      <trkpt lat="46.99056" lon="8.67342">
        <ele>551</ele>
        <time>2021-08-05T10:06:35.462Z</time>
      </trkpt>
      <trkpt lat="46.99056" lon="8.67343">
        <ele>551</ele>
        <time>2021-08-05T10:06:36.462Z</time>
      </trkpt>
      <trkpt lat="46.99057" lon="8.67345">
        <ele>551</ele>
        <time>2021-08-05T10:06:37.462Z</time>
      </trkpt>
      <trkpt lat="46.99057" lon="8.67346">
        <ele>552</ele>
        <time>2021-08-05T10:06:38.461Z</time>
      </trkpt>
      <trkpt lat="46.9906" lon="8.67342">
        <ele>554</ele>
        <time>2021-08-05T10:06:39.461Z</time>
      </trkpt>
      <trkpt lat="46.9906" lon="8.67342">
        <ele>553</ele>
        <time>2021-08-05T10:06:40.461Z</time>
      </trkpt>
      <trkpt lat="46.9906" lon="8.67343">
        <ele>555</ele>
        <time>2021-08-05T10:06:41.461Z</time>
      </trkpt>
      <trkpt lat="46.9906" lon="8.67342">
        <ele>555</ele>
        <time>2021-08-05T10:06:42.462Z</time>
      </trkpt>
      <trkpt lat="46.99059" lon="8.6734">
        <ele>555</ele>
        <time>2021-08-05T10:06:43.462Z</time>
      </trkpt>
      <trkpt lat="46.99058" lon="8.67339">
        <ele>555</ele>
        <time>2021-08-05T10:06:44.462Z</time>
      </trkpt>
      <trkpt lat="46.99058" lon="8.67339">
        <ele>555</ele>
        <time>2021-08-05T10:06:45.461Z</time>
      </trkpt>
      <trkpt lat="46.99058" lon="8.67339">
        <ele>555</ele>
        <time>2021-08-05T10:06:46.461Z</time>
      </trkpt>
      <trkpt lat="46.99058" lon="8.67341">
        <ele>555</ele>
        <time>2021-08-05T10:06:47.462Z</time>
      </trkpt>
      <trkpt lat="46.99058" lon="8.67341">
        <ele>556</ele>
        <time>2021-08-05T10:06:48.462Z</time>
      </trkpt>
      <trkpt lat="46.99059" lon="8.67342">
        <ele>556</ele>
        <time>2021-08-05T10:06:49.462Z</time>
      </trkpt>
      <trkpt lat="46.99058" lon="8.67344">
        <ele>557</ele>
        <time>2021-08-05T10:06:50.461Z</time>
      </trkpt>
      <trkpt lat="46.99058" lon="8.67345">
        <ele>557</ele>
        <time>2021-08-05T10:06:51.462Z</time>
      </trkpt>
      <trkpt lat="46.99057" lon="8.67346">
        <ele>558</ele>
        <time>2021-08-05T10:06:52.461Z</time>
      </trkpt>
      <trkpt lat="46.99056" lon="8.67348">
        <ele>558</ele>
        <time>2021-08-05T10:06:53.461Z</time>
      </trkpt>
      <trkpt lat="46.99056" lon="8.67349">
        <ele>557</ele>
        <time>2021-08-05T10:06:54.461Z</time>
      </trkpt>
      <trkpt lat="46.99055" lon="8.67351">
        <ele>557</ele>
        <time>2021-08-05T10:06:55.462Z</time>
      </trkpt>
      <trkpt lat="46.99055" lon="8.67353">
        <ele>556</ele>
        <time>2021-08-05T10:06:56.462Z</time>
      </trkpt>
      <trkpt lat="46.99054" lon="8.67355">
        <ele>556</ele>
        <time>2021-08-05T10:06:57.462Z</time>
      </trkpt>
      <trkpt lat="46.99054" lon="8.67357">
        <ele>555</ele>
        <time>2021-08-05T10:06:58.462Z</time>
      </trkpt>
      <trkpt lat="46.99054" lon="8.67358">
        <ele>555</ele>
        <time>2021-08-05T10:06:59.461Z</time>
      </trkpt>
      <trkpt lat="46.99053" lon="8.67361">
        <ele>554</ele>
        <time>2021-08-05T10:07:00.462Z</time>
      </trkpt>
      <trkpt lat="46.99052" lon="8.67363">
        <ele>554</ele>
        <time>2021-08-05T10:07:01.461Z</time>
      </trkpt>
      <trkpt lat="46.99053" lon="8.67364">
        <ele>553</ele>
        <time>2021-08-05T10:07:02.461Z</time>
      </trkpt>
      <trkpt lat="46.99053" lon="8.67365">
        <ele>553</ele>
        <time>2021-08-05T10:07:03.462Z</time>
      </trkpt>
      <trkpt lat="46.99054" lon="8.67367">
        <ele>553</ele>
        <time>2021-08-05T10:07:04.461Z</time>
      </trkpt>
      <trkpt lat="46.99054" lon="8.67368">
        <ele>553</ele>
        <time>2021-08-05T10:07:05.462Z</time>
      </trkpt>
      <trkpt lat="46.99054" lon="8.6737">
        <ele>553</ele>
        <time>2021-08-05T10:07:06.462Z</time>
      </trkpt>
      <trkpt lat="46.99054" lon="8.67372">
        <ele>553</ele>
        <time>2021-08-05T10:07:07.462Z</time>
      </trkpt>
      <trkpt lat="46.99053" lon="8.67373">
        <ele>553</ele>
        <time>2021-08-05T10:07:08.462Z</time>
      </trkpt>
      <trkpt lat="46.99053" lon="8.67375">
        <ele>553</ele>
        <time>2021-08-05T10:07:09.461Z</time>
      </trkpt>
      <trkpt lat="46.99053" lon="8.67377">
        <ele>553</ele>
        <time>2021-08-05T10:07:10.462Z</time>
      </trkpt>
      <trkpt lat="46.99052" lon="8.67379">
        <ele>553</ele>
        <time>2021-08-05T10:07:11.462Z</time>
      </trkpt>
      <trkpt lat="46.99052" lon="8.67381">
        <ele>553</ele>
        <time>2021-08-05T10:07:12.462Z</time>
      </trkpt>
      <trkpt lat="46.99051" lon="8.67383">
        <ele>553</ele>
        <time>2021-08-05T10:07:13.461Z</time>
      </trkpt>
      <trkpt lat="46.99051" lon="8.67385">
        <ele>552</ele>
        <time>2021-08-05T10:07:14.462Z</time>
      </trkpt>
      <trkpt lat="46.99052" lon="8.67387">
        <ele>552</ele>
        <time>2021-08-05T10:07:15.462Z</time>
      </trkpt>
      <trkpt lat="46.99052" lon="8.67389">
        <ele>553</ele>
        <time>2021-08-05T10:07:16.462Z</time>
      </trkpt>
      <trkpt lat="46.99051" lon="8.67391">
        <ele>553</ele>
        <time>2021-08-05T10:07:17.462Z</time>
      </trkpt>
      <trkpt lat="46.99051" lon="8.67393">
        <ele>553</ele>
        <time>2021-08-05T10:07:18.462Z</time>
      </trkpt>
      <trkpt lat="46.9905" lon="8.67395">
        <ele>553</ele>
        <time>2021-08-05T10:07:19.462Z</time>
      </trkpt>
      <trkpt lat="46.9905" lon="8.67397">
        <ele>554</ele>
        <time>2021-08-05T10:07:20.462Z</time>
      </trkpt>
      <trkpt lat="46.99049" lon="8.67398">
        <ele>554</ele>
        <time>2021-08-05T10:07:21.462Z</time>
      </trkpt>
      <trkpt lat="46.99049" lon="8.67399">
        <ele>553</ele>
        <time>2021-08-05T10:07:22.462Z</time>
      </trkpt>
      <trkpt lat="46.99048" lon="8.67402">
        <ele>553</ele>
        <time>2021-08-05T10:07:23.462Z</time>
      </trkpt>
      <trkpt lat="46.99048" lon="8.67403">
        <ele>552</ele>
        <time>2021-08-05T10:07:24.462Z</time>
      </trkpt>
      <trkpt lat="46.99048" lon="8.67405">
        <ele>552</ele>
        <time>2021-08-05T10:07:25.462Z</time>
      </trkpt>
      <trkpt lat="46.99047" lon="8.67406">
        <ele>551</ele>
        <time>2021-08-05T10:07:26.462Z</time>
      </trkpt>
      <trkpt lat="46.99048" lon="8.67408">
        <ele>551</ele>
        <time>2021-08-05T10:07:27.462Z</time>
      </trkpt>
      <trkpt lat="46.99047" lon="8.6741">
        <ele>550</ele>
        <time>2021-08-05T10:07:28.462Z</time>
      </trkpt>
      <trkpt lat="46.99048" lon="8.67412">
        <ele>550</ele>
        <time>2021-08-05T10:07:29.462Z</time>
      </trkpt>
      <trkpt lat="46.99047" lon="8.67413">
        <ele>550</ele>
        <time>2021-08-05T10:07:30.461Z</time>
      </trkpt>
      <trkpt lat="46.99047" lon="8.67415">
        <ele>550</ele>
        <time>2021-08-05T10:07:31.461Z</time>
      </trkpt>
      <trkpt lat="46.99047" lon="8.67417">
        <ele>550</ele>
        <time>2021-08-05T10:07:32.461Z</time>
      </trkpt>
      <trkpt lat="46.99047" lon="8.67418">
        <ele>550</ele>
        <time>2021-08-05T10:07:33.461Z</time>
      </trkpt>
      <trkpt lat="46.99048" lon="8.6742">
        <ele>550</ele>
        <time>2021-08-05T10:07:34.462Z</time>
      </trkpt>
      <trkpt lat="46.99048" lon="8.67421">
        <ele>551</ele>
        <time>2021-08-05T10:07:35.462Z</time>
      </trkpt>
      <trkpt lat="46.99047" lon="8.67423">
        <ele>551</ele>
        <time>2021-08-05T10:07:36.462Z</time>
      </trkpt>
      <trkpt lat="46.99047" lon="8.67425">
        <ele>551</ele>
        <time>2021-08-05T10:07:37.462Z</time>
      </trkpt>
      <trkpt lat="46.99047" lon="8.67426">
        <ele>551</ele>
        <time>2021-08-05T10:07:38.462Z</time>
      </trkpt>
      <trkpt lat="46.99047" lon="8.67428">
        <ele>551</ele>
        <time>2021-08-05T10:07:39.461Z</time>
      </trkpt>
      <trkpt lat="46.99047" lon="8.6743">
        <ele>551</ele>
        <time>2021-08-05T10:07:40.462Z</time>
      </trkpt>
      <trkpt lat="46.99047" lon="8.67431">
        <ele>551</ele>
        <time>2021-08-05T10:07:41.461Z</time>
      </trkpt>
      <trkpt lat="46.99046" lon="8.67433">
        <ele>550</ele>
        <time>2021-08-05T10:07:42.461Z</time>
      </trkpt>
      <trkpt lat="46.99045" lon="8.67435">
        <ele>550</ele>
        <time>2021-08-05T10:07:43.462Z</time>
      </trkpt>
      <trkpt lat="46.99045" lon="8.67436">
        <ele>551</ele>
        <time>2021-08-05T10:07:44.461Z</time>
      </trkpt>
      <trkpt lat="46.99044" lon="8.67437">
        <ele>551</ele>
        <time>2021-08-05T10:07:45.461Z</time>
      </trkpt>
      <trkpt lat="46.99043" lon="8.67439">
        <ele>551</ele>
        <time>2021-08-05T10:07:46.461Z</time>
      </trkpt>
      <trkpt lat="46.99043" lon="8.67441">
        <ele>552</ele>
        <time>2021-08-05T10:07:47.461Z</time>
      </trkpt>
      <trkpt lat="46.99043" lon="8.67442">
        <ele>552</ele>
        <time>2021-08-05T10:07:48.462Z</time>
      </trkpt>
      <trkpt lat="46.99043" lon="8.67443">
        <ele>552</ele>
        <time>2021-08-05T10:07:49.462Z</time>
      </trkpt>
      <trkpt lat="46.99042" lon="8.67445">
        <ele>552</ele>
        <time>2021-08-05T10:07:50.461Z</time>
      </trkpt>
      <trkpt lat="46.99041" lon="8.67447">
        <ele>553</ele>
        <time>2021-08-05T10:07:51.461Z</time>
      </trkpt>
      <trkpt lat="46.99041" lon="8.67448">
        <ele>553</ele>
        <time>2021-08-05T10:07:52.461Z</time>
      </trkpt>
      <trkpt lat="46.9904" lon="8.67449">
        <ele>553</ele>
        <time>2021-08-05T10:07:53.461Z</time>
      </trkpt>
      <trkpt lat="46.9904" lon="8.67451">
        <ele>554</ele>
        <time>2021-08-05T10:07:54.461Z</time>
      </trkpt>
      <trkpt lat="46.99039" lon="8.67452">
        <ele>554</ele>
        <time>2021-08-05T10:07:55.461Z</time>
      </trkpt>
      <trkpt lat="46.99038" lon="8.67452">
        <ele>555</ele>
        <time>2021-08-05T10:07:56.461Z</time>
      </trkpt>
      <trkpt lat="46.99037" lon="8.67453">
        <ele>555</ele>
        <time>2021-08-05T10:07:57.461Z</time>
      </trkpt>
      <trkpt lat="46.99037" lon="8.67454">
        <ele>555</ele>
        <time>2021-08-05T10:07:58.461Z</time>
      </trkpt>
      <trkpt lat="46.99037" lon="8.67455">
        <ele>555</ele>
        <time>2021-08-05T10:07:59.461Z</time>
      </trkpt>
      <trkpt lat="46.99036" lon="8.67457">
        <ele>555</ele>
        <time>2021-08-05T10:08:00.461Z</time>
      </trkpt>
      <trkpt lat="46.99036" lon="8.67458">
        <ele>555</ele>
        <time>2021-08-05T10:08:01.461Z</time>
      </trkpt>
      <trkpt lat="46.99036" lon="8.6746">
        <ele>556</ele>
        <time>2021-08-05T10:08:02.461Z</time>
      </trkpt>
      <trkpt lat="46.99035" lon="8.67461">
        <ele>556</ele>
        <time>2021-08-05T10:08:03.461Z</time>
      </trkpt>
      <trkpt lat="46.99035" lon="8.67462">
        <ele>556</ele>
        <time>2021-08-05T10:08:04.461Z</time>
      </trkpt>
      <trkpt lat="46.99033" lon="8.67463">
        <ele>555</ele>
        <time>2021-08-05T10:08:05.461Z</time>
      </trkpt>
      <trkpt lat="46.99033" lon="8.67465">
        <ele>554</ele>
        <time>2021-08-05T10:08:06.461Z</time>
      </trkpt>
      <trkpt lat="46.99033" lon="8.67466">
        <ele>554</ele>
        <time>2021-08-05T10:08:07.462Z</time>
      </trkpt>
      <trkpt lat="46.99033" lon="8.67467">
        <ele>553</ele>
        <time>2021-08-05T10:08:08.462Z</time>
      </trkpt>
      <trkpt lat="46.99034" lon="8.67468">
        <ele>553</ele>
        <time>2021-08-05T10:08:09.461Z</time>
      </trkpt>
      <trkpt lat="46.99033" lon="8.6747">
        <ele>554</ele>
        <time>2021-08-05T10:08:10.462Z</time>
      </trkpt>
      <trkpt lat="46.99033" lon="8.67471">
        <ele>554</ele>
        <time>2021-08-05T10:08:11.461Z</time>
      </trkpt>
      <trkpt lat="46.99033" lon="8.67473">
        <ele>554</ele>
        <time>2021-08-05T10:08:12.461Z</time>
      </trkpt>
      <trkpt lat="46.99032" lon="8.67474">
        <ele>555</ele>
        <time>2021-08-05T10:08:13.462Z</time>
      </trkpt>
      <trkpt lat="46.99031" lon="8.67476">
        <ele>555</ele>
        <time>2021-08-05T10:08:14.462Z</time>
      </trkpt>
      <trkpt lat="46.99031" lon="8.67478">
        <ele>555</ele>
        <time>2021-08-05T10:08:15.461Z</time>
      </trkpt>
      <trkpt lat="46.99032" lon="8.6748">
        <ele>555</ele>
        <time>2021-08-05T10:08:16.462Z</time>
      </trkpt>
      <trkpt lat="46.99032" lon="8.67482">
        <ele>556</ele>
        <time>2021-08-05T10:08:17.462Z</time>
      </trkpt>
      <trkpt lat="46.99032" lon="8.67484">
        <ele>556</ele>
        <time>2021-08-05T10:08:18.462Z</time>
      </trkpt>
      <trkpt lat="46.99031" lon="8.67486">
        <ele>556</ele>
        <time>2021-08-05T10:08:19.461Z</time>
      </trkpt>
      <trkpt lat="46.9903" lon="8.67487">
        <ele>556</ele>
        <time>2021-08-05T10:08:20.462Z</time>
      </trkpt>
      <trkpt lat="46.99029" lon="8.67489">
        <ele>556</ele>
        <time>2021-08-05T10:08:21.462Z</time>
      </trkpt>
      <trkpt lat="46.99028" lon="8.6749">
        <ele>556</ele>
        <time>2021-08-05T10:08:22.461Z</time>
      </trkpt>
      <trkpt lat="46.99028" lon="8.67492">
        <ele>556</ele>
        <time>2021-08-05T10:08:23.462Z</time>
      </trkpt>
      <trkpt lat="46.99028" lon="8.67494">
        <ele>557</ele>
        <time>2021-08-05T10:08:24.461Z</time>
      </trkpt>
      <trkpt lat="46.99028" lon="8.67496">
        <ele>557</ele>
        <time>2021-08-05T10:08:25.461Z</time>
      </trkpt>
      <trkpt lat="46.99028" lon="8.67498">
        <ele>557</ele>
        <time>2021-08-05T10:08:26.462Z</time>
      </trkpt>
      <trkpt lat="46.99027" lon="8.67499">
        <ele>557</ele>
        <time>2021-08-05T10:08:27.462Z</time>
      </trkpt>
      <trkpt lat="46.99028" lon="8.67501">
        <ele>558</ele>
        <time>2021-08-05T10:08:28.462Z</time>
      </trkpt>
      <trkpt lat="46.99028" lon="8.67502">
        <ele>558</ele>
        <time>2021-08-05T10:08:29.461Z</time>
      </trkpt>
      <trkpt lat="46.99028" lon="8.67503">
        <ele>558</ele>
        <time>2021-08-05T10:08:30.461Z</time>
      </trkpt>
      <trkpt lat="46.99029" lon="8.67505">
        <ele>559</ele>
        <time>2021-08-05T10:08:31.461Z</time>
      </trkpt>
      <trkpt lat="46.99028" lon="8.67507">
        <ele>559</ele>
        <time>2021-08-05T10:08:32.462Z</time>
      </trkpt>
      <trkpt lat="46.99028" lon="8.67509">
        <ele>560</ele>
        <time>2021-08-05T10:08:33.462Z</time>
      </trkpt>
      <trkpt lat="46.99028" lon="8.67511">
        <ele>561</ele>
        <time>2021-08-05T10:08:34.461Z</time>
      </trkpt>
      <trkpt lat="46.99027" lon="8.67512">
        <ele>561</ele>
        <time>2021-08-05T10:08:35.461Z</time>
      </trkpt>
      <trkpt lat="46.99027" lon="8.67514">
        <ele>562</ele>
        <time>2021-08-05T10:08:36.462Z</time>
      </trkpt>
      <trkpt lat="46.99027" lon="8.67516">
        <ele>562</ele>
        <time>2021-08-05T10:08:37.461Z</time>
      </trkpt>
      <trkpt lat="46.99026" lon="8.67518">
        <ele>562</ele>
        <time>2021-08-05T10:08:38.462Z</time>
      </trkpt>
      <trkpt lat="46.99025" lon="8.67519">
        <ele>561</ele>
        <time>2021-08-05T10:08:39.462Z</time>
      </trkpt>
      <trkpt lat="46.99024" lon="8.67521">
        <ele>561</ele>
        <time>2021-08-05T10:08:40.462Z</time>
      </trkpt>
      <trkpt lat="46.99024" lon="8.67522">
        <ele>562</ele>
        <time>2021-08-05T10:08:41.462Z</time>
      </trkpt>
      <trkpt lat="46.99025" lon="8.67523">
        <ele>562</ele>
        <time>2021-08-05T10:08:42.462Z</time>
      </trkpt>
      <trkpt lat="46.99025" lon="8.67525">
        <ele>562</ele>
        <time>2021-08-05T10:08:43.462Z</time>
      </trkpt>
      <trkpt lat="46.99026" lon="8.67526">
        <ele>563</ele>
        <time>2021-08-05T10:08:44.462Z</time>
      </trkpt>
      <trkpt lat="46.99026" lon="8.67528">
        <ele>563</ele>
        <time>2021-08-05T10:08:45.462Z</time>
      </trkpt>
      <trkpt lat="46.99025" lon="8.6753">
        <ele>563</ele>
        <time>2021-08-05T10:08:46.461Z</time>
      </trkpt>
      <trkpt lat="46.99024" lon="8.67531">
        <ele>563</ele>
        <time>2021-08-05T10:08:47.462Z</time>
      </trkpt>
      <trkpt lat="46.99024" lon="8.67532">
        <ele>563</ele>
        <time>2021-08-05T10:08:48.462Z</time>
      </trkpt>
      <trkpt lat="46.99024" lon="8.67533">
        <ele>563</ele>
        <time>2021-08-05T10:08:49.462Z</time>
      </trkpt>
      <trkpt lat="46.99024" lon="8.67535">
        <ele>563</ele>
        <time>2021-08-05T10:08:50.462Z</time>
      </trkpt>
      <trkpt lat="46.99023" lon="8.67536">
        <ele>563</ele>
        <time>2021-08-05T10:08:51.461Z</time>
      </trkpt>
      <trkpt lat="46.99023" lon="8.67537">
        <ele>562</ele>
        <time>2021-08-05T10:08:52.462Z</time>
      </trkpt>
      <trkpt lat="46.99023" lon="8.67538">
        <ele>562</ele>
        <time>2021-08-05T10:08:53.461Z</time>
      </trkpt>
      <trkpt lat="46.99023" lon="8.67539">
        <ele>562</ele>
        <time>2021-08-05T10:08:54.462Z</time>
      </trkpt>
      <trkpt lat="46.99023" lon="8.67541">
        <ele>561</ele>
        <time>2021-08-05T10:08:55.462Z</time>
      </trkpt>
      <trkpt lat="46.99022" lon="8.67543">
        <ele>561</ele>
        <time>2021-08-05T10:08:56.462Z</time>
      </trkpt>
      <trkpt lat="46.99022" lon="8.67544">
        <ele>560</ele>
        <time>2021-08-05T10:08:57.461Z</time>
      </trkpt>
      <trkpt lat="46.99022" lon="8.67545">
        <ele>560</ele>
        <time>2021-08-05T10:08:58.462Z</time>
      </trkpt>
      <trkpt lat="46.99022" lon="8.67547">
        <ele>560</ele>
        <time>2021-08-05T10:08:59.462Z</time>
      </trkpt>
      <trkpt lat="46.99022" lon="8.67549">
        <ele>560</ele>
        <time>2021-08-05T10:09:00.461Z</time>
      </trkpt>
      <trkpt lat="46.99022" lon="8.67551">
        <ele>560</ele>
        <time>2021-08-05T10:09:01.462Z</time>
      </trkpt>
      <trkpt lat="46.99021" lon="8.67554">
        <ele>560</ele>
        <time>2021-08-05T10:09:02.461Z</time>
      </trkpt>
      <trkpt lat="46.99021" lon="8.67555">
        <ele>560</ele>
        <time>2021-08-05T10:09:03.462Z</time>
      </trkpt>
      <trkpt lat="46.99021" lon="8.67555">
        <ele>560</ele>
        <time>2021-08-05T10:09:04.462Z</time>
      </trkpt>
      <trkpt lat="46.99023" lon="8.67555">
        <ele>560</ele>
        <time>2021-08-05T10:09:05.461Z</time>
      </trkpt>
      <trkpt lat="46.99027" lon="8.67555">
        <ele>561</ele>
        <time>2021-08-05T10:09:06.463Z</time>
      </trkpt>
      <trkpt lat="46.99026" lon="8.67556">
        <ele>561</ele>
        <time>2021-08-05T10:09:07.463Z</time>
      </trkpt>
      <trkpt lat="46.99026" lon="8.67558">
        <ele>561</ele>
        <time>2021-08-05T10:09:08.463Z</time>
      </trkpt>
      <trkpt lat="46.99026" lon="8.67559">
        <ele>561</ele>
        <time>2021-08-05T10:09:09.463Z</time>
      </trkpt>
      <trkpt lat="46.99025" lon="8.6756">
        <ele>561</ele>
        <time>2021-08-05T10:09:10.462Z</time>
      </trkpt>
      <trkpt lat="46.99025" lon="8.67561">
        <ele>561</ele>
        <time>2021-08-05T10:09:11.463Z</time>
      </trkpt>
      <trkpt lat="46.99025" lon="8.67562">
        <ele>561</ele>
        <time>2021-08-05T10:09:12.463Z</time>
      </trkpt>
      <trkpt lat="46.99024" lon="8.67563">
        <ele>561</ele>
        <time>2021-08-05T10:09:13.463Z</time>
      </trkpt>
      <trkpt lat="46.99024" lon="8.67565">
        <ele>561</ele>
        <time>2021-08-05T10:09:14.462Z</time>
      </trkpt>
      <trkpt lat="46.99024" lon="8.67567">
        <ele>560</ele>
        <time>2021-08-05T10:09:15.462Z</time>
      </trkpt>
      <trkpt lat="46.99023" lon="8.67568">
        <ele>560</ele>
        <time>2021-08-05T10:09:16.462Z</time>
      </trkpt>
      <trkpt lat="46.99023" lon="8.6757">
        <ele>559</ele>
        <time>2021-08-05T10:09:17.463Z</time>
      </trkpt>
      <trkpt lat="46.99023" lon="8.67572">
        <ele>559</ele>
        <time>2021-08-05T10:09:18.463Z</time>
      </trkpt>
      <trkpt lat="46.99023" lon="8.67574">
        <ele>559</ele>
        <time>2021-08-05T10:09:19.462Z</time>
      </trkpt>
      <trkpt lat="46.99023" lon="8.67575">
        <ele>559</ele>
        <time>2021-08-05T10:09:20.462Z</time>
      </trkpt>
      <trkpt lat="46.99022" lon="8.67578">
        <ele>559</ele>
        <time>2021-08-05T10:09:21.462Z</time>
      </trkpt>
      <trkpt lat="46.99022" lon="8.67579">
        <ele>558</ele>
        <time>2021-08-05T10:09:22.463Z</time>
      </trkpt>
      <trkpt lat="46.99021" lon="8.6758">
        <ele>558</ele>
        <time>2021-08-05T10:09:23.463Z</time>
      </trkpt>
      <trkpt lat="46.99021" lon="8.67583">
        <ele>558</ele>
        <time>2021-08-05T10:09:24.463Z</time>
      </trkpt>
      <trkpt lat="46.9902" lon="8.67584">
        <ele>558</ele>
        <time>2021-08-05T10:09:25.463Z</time>
      </trkpt>
      <trkpt lat="46.9902" lon="8.67586">
        <ele>558</ele>
        <time>2021-08-05T10:09:26.463Z</time>
      </trkpt>
      <trkpt lat="46.9902" lon="8.67587">
        <ele>558</ele>
        <time>2021-08-05T10:09:27.463Z</time>
      </trkpt>
      <trkpt lat="46.99021" lon="8.67589">
        <ele>558</ele>
        <time>2021-08-05T10:09:28.462Z</time>
      </trkpt>
      <trkpt lat="46.99021" lon="8.6759">
        <ele>557</ele>
        <time>2021-08-05T10:09:29.463Z</time>
      </trkpt>
      <trkpt lat="46.99021" lon="8.67592">
        <ele>557</ele>
        <time>2021-08-05T10:09:30.463Z</time>
      </trkpt>
      <trkpt lat="46.99021" lon="8.67593">
        <ele>557</ele>
        <time>2021-08-05T10:09:31.463Z</time>
      </trkpt>
      <trkpt lat="46.99021" lon="8.67594">
        <ele>556</ele>
        <time>2021-08-05T10:09:32.463Z</time>
      </trkpt>
      <trkpt lat="46.99021" lon="8.67596">
        <ele>556</ele>
        <time>2021-08-05T10:09:33.462Z</time>
      </trkpt>
      <trkpt lat="46.9902" lon="8.67597">
        <ele>556</ele>
        <time>2021-08-05T10:09:34.463Z</time>
      </trkpt>
      <trkpt lat="46.9902" lon="8.67598">
        <ele>555</ele>
        <time>2021-08-05T10:09:35.463Z</time>
      </trkpt>
      <trkpt lat="46.9902" lon="8.67599">
        <ele>555</ele>
        <time>2021-08-05T10:09:36.463Z</time>
      </trkpt>
      <trkpt lat="46.9902" lon="8.676">
        <ele>555</ele>
        <time>2021-08-05T10:09:37.462Z</time>
      </trkpt>
      <trkpt lat="46.99019" lon="8.67602">
        <ele>554</ele>
        <time>2021-08-05T10:09:38.462Z</time>
      </trkpt>
      <trkpt lat="46.99019" lon="8.67603">
        <ele>554</ele>
        <time>2021-08-05T10:09:39.462Z</time>
      </trkpt>
      <trkpt lat="46.99019" lon="8.67604">
        <ele>554</ele>
        <time>2021-08-05T10:09:40.463Z</time>
      </trkpt>
      <trkpt lat="46.99018" lon="8.67606">
        <ele>554</ele>
        <time>2021-08-05T10:09:41.463Z</time>
      </trkpt>
      <trkpt lat="46.99017" lon="8.67607">
        <ele>554</ele>
        <time>2021-08-05T10:09:42.463Z</time>
      </trkpt>
      <trkpt lat="46.99017" lon="8.6761">
        <ele>554</ele>
        <time>2021-08-05T10:09:43.463Z</time>
      </trkpt>
      <trkpt lat="46.99016" lon="8.67611">
        <ele>554</ele>
        <time>2021-08-05T10:09:44.463Z</time>
      </trkpt>
      <trkpt lat="46.99016" lon="8.67613">
        <ele>554</ele>
        <time>2021-08-05T10:09:45.463Z</time>
      </trkpt>
      <trkpt lat="46.99016" lon="8.67615">
        <ele>554</ele>
        <time>2021-08-05T10:09:46.463Z</time>
      </trkpt>
      <trkpt lat="46.99016" lon="8.67617">
        <ele>555</ele>
        <time>2021-08-05T10:09:47.463Z</time>
      </trkpt>
      <trkpt lat="46.99016" lon="8.67618">
        <ele>555</ele>
        <time>2021-08-05T10:09:48.463Z</time>
      </trkpt>
      <trkpt lat="46.99015" lon="8.67621">
        <ele>555</ele>
        <time>2021-08-05T10:09:49.463Z</time>
      </trkpt>
      <trkpt lat="46.99014" lon="8.67623">
        <ele>554</ele>
        <time>2021-08-05T10:09:50.462Z</time>
      </trkpt>
      <trkpt lat="46.99014" lon="8.67625">
        <ele>554</ele>
        <time>2021-08-05T10:09:51.463Z</time>
      </trkpt>
      <trkpt lat="46.99013" lon="8.67627">
        <ele>553</ele>
        <time>2021-08-05T10:09:52.463Z</time>
      </trkpt>
      <trkpt lat="46.99012" lon="8.67629">
        <ele>553</ele>
        <time>2021-08-05T10:09:53.463Z</time>
      </trkpt>
      <trkpt lat="46.99013" lon="8.6763">
        <ele>553</ele>
        <time>2021-08-05T10:09:54.462Z</time>
      </trkpt>
      <trkpt lat="46.99014" lon="8.67631">
        <ele>553</ele>
        <time>2021-08-05T10:09:55.463Z</time>
      </trkpt>
      <trkpt lat="46.99015" lon="8.67632">
        <ele>553</ele>
        <time>2021-08-05T10:09:56.463Z</time>
      </trkpt>
      <trkpt lat="46.99015" lon="8.67634">
        <ele>553</ele>
        <time>2021-08-05T10:09:57.462Z</time>
      </trkpt>
      <trkpt lat="46.99015" lon="8.67635">
        <ele>553</ele>
        <time>2021-08-05T10:09:58.462Z</time>
      </trkpt>
      <trkpt lat="46.99015" lon="8.67637">
        <ele>553</ele>
        <time>2021-08-05T10:09:59.463Z</time>
      </trkpt>
      <trkpt lat="46.99015" lon="8.67638">
        <ele>553</ele>
        <time>2021-08-05T10:10:00.463Z</time>
      </trkpt>
      <trkpt lat="46.99015" lon="8.67639">
        <ele>553</ele>
        <time>2021-08-05T10:10:01.463Z</time>
      </trkpt>
      <trkpt lat="46.99014" lon="8.6764">
        <ele>553</ele>
        <time>2021-08-05T10:10:02.463Z</time>
      </trkpt>
      <trkpt lat="46.99014" lon="8.67642">
        <ele>553</ele>
        <time>2021-08-05T10:10:03.463Z</time>
      </trkpt>
      <trkpt lat="46.99014" lon="8.67643">
        <ele>553</ele>
        <time>2021-08-05T10:10:04.463Z</time>
      </trkpt>
      <trkpt lat="46.99013" lon="8.67644">
        <ele>554</ele>
        <time>2021-08-05T10:10:05.463Z</time>
      </trkpt>
      <trkpt lat="46.99013" lon="8.67646">
        <ele>554</ele>
        <time>2021-08-05T10:10:06.463Z</time>
      </trkpt>
      <trkpt lat="46.99013" lon="8.67647">
        <ele>554</ele>
        <time>2021-08-05T10:10:07.462Z</time>
      </trkpt>
      <trkpt lat="46.99012" lon="8.67649">
        <ele>554</ele>
        <time>2021-08-05T10:10:08.462Z</time>
      </trkpt>
      <trkpt lat="46.99011" lon="8.67651">
        <ele>554</ele>
        <time>2021-08-05T10:10:09.463Z</time>
      </trkpt>
      <trkpt lat="46.9901" lon="8.67653">
        <ele>554</ele>
        <time>2021-08-05T10:10:10.462Z</time>
      </trkpt>
      <trkpt lat="46.9901" lon="8.67655">
        <ele>554</ele>
        <time>2021-08-05T10:10:11.463Z</time>
      </trkpt>
      <trkpt lat="46.99009" lon="8.67657">
        <ele>554</ele>
        <time>2021-08-05T10:10:12.463Z</time>
      </trkpt>
      <trkpt lat="46.99008" lon="8.6766">
        <ele>554</ele>
        <time>2021-08-05T10:10:13.463Z</time>
      </trkpt>
      <trkpt lat="46.99007" lon="8.67661">
        <ele>554</ele>
        <time>2021-08-05T10:10:14.462Z</time>
      </trkpt>
      <trkpt lat="46.99007" lon="8.67663">
        <ele>555</ele>
        <time>2021-08-05T10:10:15.463Z</time>
      </trkpt>
      <trkpt lat="46.99006" lon="8.67665">
        <ele>555</ele>
        <time>2021-08-05T10:10:16.462Z</time>
      </trkpt>
      <trkpt lat="46.99006" lon="8.67667">
        <ele>555</ele>
        <time>2021-08-05T10:10:17.462Z</time>
      </trkpt>
      <trkpt lat="46.99006" lon="8.67668">
        <ele>555</ele>
        <time>2021-08-05T10:10:18.462Z</time>
      </trkpt>
      <trkpt lat="46.99006" lon="8.67669">
        <ele>555</ele>
        <time>2021-08-05T10:10:19.462Z</time>
      </trkpt>
      <trkpt lat="46.99005" lon="8.6767">
        <ele>555</ele>
        <time>2021-08-05T10:10:20.463Z</time>
      </trkpt>
      <trkpt lat="46.99004" lon="8.67672">
        <ele>555</ele>
        <time>2021-08-05T10:10:21.462Z</time>
      </trkpt>
      <trkpt lat="46.99003" lon="8.67673">
        <ele>555</ele>
        <time>2021-08-05T10:10:22.462Z</time>
      </trkpt>
      <trkpt lat="46.99004" lon="8.67675">
        <ele>556</ele>
        <time>2021-08-05T10:10:23.462Z</time>
      </trkpt>
      <trkpt lat="46.99004" lon="8.67676">
        <ele>556</ele>
        <time>2021-08-05T10:10:24.463Z</time>
      </trkpt>
      <trkpt lat="46.99003" lon="8.67678">
        <ele>556</ele>
        <time>2021-08-05T10:10:25.462Z</time>
      </trkpt>
      <trkpt lat="46.99004" lon="8.67679">
        <ele>557</ele>
        <time>2021-08-05T10:10:26.462Z</time>
      </trkpt>
      <trkpt lat="46.99004" lon="8.67682">
        <ele>557</ele>
        <time>2021-08-05T10:10:27.462Z</time>
      </trkpt>
      <trkpt lat="46.99004" lon="8.67683">
        <ele>557</ele>
        <time>2021-08-05T10:10:28.462Z</time>
      </trkpt>
      <trkpt lat="46.99005" lon="8.67685">
        <ele>557</ele>
        <time>2021-08-05T10:10:29.463Z</time>
      </trkpt>
      <trkpt lat="46.99005" lon="8.67686">
        <ele>557</ele>
        <time>2021-08-05T10:10:30.462Z</time>
      </trkpt>
      <trkpt lat="46.99005" lon="8.67689">
        <ele>557</ele>
        <time>2021-08-05T10:10:31.462Z</time>
      </trkpt>
      <trkpt lat="46.99004" lon="8.67691">
        <ele>558</ele>
        <time>2021-08-05T10:10:32.462Z</time>
      </trkpt>
      <trkpt lat="46.99003" lon="8.67693">
        <ele>558</ele>
        <time>2021-08-05T10:10:33.462Z</time>
      </trkpt>
      <trkpt lat="46.99002" lon="8.67693">
        <ele>558</ele>
        <time>2021-08-05T10:10:34.462Z</time>
      </trkpt>
      <trkpt lat="46.99001" lon="8.67693">
        <ele>558</ele>
        <time>2021-08-05T10:10:35.462Z</time>
      </trkpt>
      <trkpt lat="46.99001" lon="8.67693">
        <ele>558</ele>
        <time>2021-08-05T10:10:36.463Z</time>
      </trkpt>
      <trkpt lat="46.99001" lon="8.67694">
        <ele>558</ele>
        <time>2021-08-05T10:10:37.463Z</time>
      </trkpt>
      <trkpt lat="46.99001" lon="8.67694">
        <ele>558</ele>
        <time>2021-08-05T10:10:38.462Z</time>
      </trkpt>
      <trkpt lat="46.99002" lon="8.67695">
        <ele>558</ele>
        <time>2021-08-05T10:10:39.462Z</time>
      </trkpt>
      <trkpt lat="46.99003" lon="8.67695">
        <ele>559</ele>
        <time>2021-08-05T10:10:40.463Z</time>
      </trkpt>
      <trkpt lat="46.99004" lon="8.67696">
        <ele>560</ele>
        <time>2021-08-05T10:10:41.462Z</time>
      </trkpt>
      <trkpt lat="46.99004" lon="8.67697">
        <ele>560</ele>
        <time>2021-08-05T10:10:42.463Z</time>
      </trkpt>
      <trkpt lat="46.99004" lon="8.67698">
        <ele>561</ele>
        <time>2021-08-05T10:10:43.462Z</time>
      </trkpt>
      <trkpt lat="46.99004" lon="8.67699">
        <ele>561</ele>
        <time>2021-08-05T10:10:44.463Z</time>
      </trkpt>
      <trkpt lat="46.99004" lon="8.677">
        <ele>561</ele>
        <time>2021-08-05T10:10:45.462Z</time>
      </trkpt>
      <trkpt lat="46.99004" lon="8.67701">
        <ele>562</ele>
        <time>2021-08-05T10:10:46.463Z</time>
      </trkpt>
      <trkpt lat="46.99003" lon="8.67702">
        <ele>562</ele>
        <time>2021-08-05T10:10:47.463Z</time>
      </trkpt>
      <trkpt lat="46.99003" lon="8.67703">
        <ele>562</ele>
        <time>2021-08-05T10:10:48.463Z</time>
      </trkpt>
      <trkpt lat="46.99004" lon="8.67705">
        <ele>563</ele>
        <time>2021-08-05T10:10:49.463Z</time>
      </trkpt>
      <trkpt lat="46.99004" lon="8.67707">
        <ele>563</ele>
        <time>2021-08-05T10:10:50.463Z</time>
      </trkpt>
      <trkpt lat="46.99004" lon="8.67709">
        <ele>563</ele>
        <time>2021-08-05T10:10:51.463Z</time>
      </trkpt>
      <trkpt lat="46.99004" lon="8.6771">
        <ele>563</ele>
        <time>2021-08-05T10:10:52.463Z</time>
      </trkpt>
      <trkpt lat="46.99004" lon="8.67712">
        <ele>564</ele>
        <time>2021-08-05T10:10:53.463Z</time>
      </trkpt>
      <trkpt lat="46.99005" lon="8.67714">
        <ele>564</ele>
        <time>2021-08-05T10:10:54.463Z</time>
      </trkpt>
      <trkpt lat="46.99005" lon="8.67716">
        <ele>564</ele>
        <time>2021-08-05T10:10:55.463Z</time>
      </trkpt>
      <trkpt lat="46.99005" lon="8.67718">
        <ele>564</ele>
        <time>2021-08-05T10:10:56.463Z</time>
      </trkpt>
      <trkpt lat="46.99005" lon="8.67719">
        <ele>564</ele>
        <time>2021-08-05T10:10:57.462Z</time>
      </trkpt>
      <trkpt lat="46.99005" lon="8.67722">
        <ele>563</ele>
        <time>2021-08-05T10:10:58.463Z</time>
      </trkpt>
      <trkpt lat="46.99004" lon="8.67725">
        <ele>563</ele>
        <time>2021-08-05T10:10:59.463Z</time>
      </trkpt>
      <trkpt lat="46.99005" lon="8.67726">
        <ele>563</ele>
        <time>2021-08-05T10:11:00.462Z</time>
      </trkpt>
      <trkpt lat="46.99004" lon="8.67728">
        <ele>563</ele>
        <time>2021-08-05T10:11:01.463Z</time>
      </trkpt>
      <trkpt lat="46.99004" lon="8.67732">
        <ele>563</ele>
        <time>2021-08-05T10:11:02.463Z</time>
      </trkpt>
      <trkpt lat="46.99004" lon="8.67734">
        <ele>563</ele>
        <time>2021-08-05T10:11:03.462Z</time>
      </trkpt>
      <trkpt lat="46.99003" lon="8.67738">
        <ele>563</ele>
        <time>2021-08-05T10:11:04.462Z</time>
      </trkpt>
      <trkpt lat="46.99003" lon="8.6774">
        <ele>563</ele>
        <time>2021-08-05T10:11:05.463Z</time>
      </trkpt>
      <trkpt lat="46.99003" lon="8.67741">
        <ele>563</ele>
        <time>2021-08-05T10:11:06.463Z</time>
      </trkpt>
      <trkpt lat="46.99002" lon="8.67744">
        <ele>562</ele>
        <time>2021-08-05T10:11:07.463Z</time>
      </trkpt>
      <trkpt lat="46.99002" lon="8.67745">
        <ele>562</ele>
        <time>2021-08-05T10:11:08.463Z</time>
      </trkpt>
      <trkpt lat="46.99002" lon="8.67746">
        <ele>561</ele>
        <time>2021-08-05T10:11:09.463Z</time>
      </trkpt>
      <trkpt lat="46.99002" lon="8.67748">
        <ele>561</ele>
        <time>2021-08-05T10:11:10.463Z</time>
      </trkpt>
      <trkpt lat="46.99002" lon="8.6775">
        <ele>560</ele>
        <time>2021-08-05T10:11:11.463Z</time>
      </trkpt>
      <trkpt lat="46.99001" lon="8.67754">
        <ele>560</ele>
        <time>2021-08-05T10:11:12.463Z</time>
      </trkpt>
      <trkpt lat="46.99001" lon="8.67758">
        <ele>559</ele>
        <time>2021-08-05T10:11:13.462Z</time>
      </trkpt>
      <trkpt lat="46.99001" lon="8.67759">
        <ele>559</ele>
        <time>2021-08-05T10:11:14.463Z</time>
      </trkpt>
      <trkpt lat="46.99001" lon="8.6776">
        <ele>559</ele>
        <time>2021-08-05T10:11:15.463Z</time>
      </trkpt>
      <trkpt lat="46.99001" lon="8.67762">
        <ele>559</ele>
        <time>2021-08-05T10:11:16.462Z</time>
      </trkpt>
      <trkpt lat="46.99" lon="8.67764">
        <ele>559</ele>
        <time>2021-08-05T10:11:17.463Z</time>
      </trkpt>
      <trkpt lat="46.99" lon="8.67766">
        <ele>559</ele>
        <time>2021-08-05T10:11:18.462Z</time>
      </trkpt>
      <trkpt lat="46.99" lon="8.67766">
        <ele>559</ele>
        <time>2021-08-05T10:11:19.462Z</time>
      </trkpt>
      <trkpt lat="46.99" lon="8.67768">
        <ele>559</ele>
        <time>2021-08-05T10:11:20.463Z</time>
      </trkpt>
      <trkpt lat="46.99001" lon="8.67769">
        <ele>559</ele>
        <time>2021-08-05T10:11:21.463Z</time>
      </trkpt>
      <trkpt lat="46.99001" lon="8.67771">
        <ele>560</ele>
        <time>2021-08-05T10:11:22.463Z</time>
      </trkpt>
      <trkpt lat="46.99001" lon="8.67773">
        <ele>560</ele>
        <time>2021-08-05T10:11:23.462Z</time>
      </trkpt>
      <trkpt lat="46.99001" lon="8.67774">
        <ele>560</ele>
        <time>2021-08-05T10:11:24.463Z</time>
      </trkpt>
      <trkpt lat="46.99001" lon="8.67776">
        <ele>561</ele>
        <time>2021-08-05T10:11:25.463Z</time>
      </trkpt>
      <trkpt lat="46.99001" lon="8.67779">
        <ele>561</ele>
        <time>2021-08-05T10:11:26.463Z</time>
      </trkpt>
      <trkpt lat="46.99" lon="8.67781">
        <ele>561</ele>
        <time>2021-08-05T10:11:27.463Z</time>
      </trkpt>
      <trkpt lat="46.99" lon="8.67783">
        <ele>560</ele>
        <time>2021-08-05T10:11:28.463Z</time>
      </trkpt>
      <trkpt lat="46.99" lon="8.67785">
        <ele>560</ele>
        <time>2021-08-05T10:11:29.463Z</time>
      </trkpt>
      <trkpt lat="46.99" lon="8.67787">
        <ele>560</ele>
        <time>2021-08-05T10:11:30.463Z</time>
      </trkpt>
      <trkpt lat="46.99" lon="8.6779">
        <ele>560</ele>
        <time>2021-08-05T10:11:31.463Z</time>
      </trkpt>
      <trkpt lat="46.99" lon="8.67792">
        <ele>560</ele>
        <time>2021-08-05T10:11:32.463Z</time>
      </trkpt>
      <trkpt lat="46.99" lon="8.67794">
        <ele>560</ele>
        <time>2021-08-05T10:11:33.463Z</time>
      </trkpt>
      <trkpt lat="46.99" lon="8.67796">
        <ele>560</ele>
        <time>2021-08-05T10:11:34.463Z</time>
      </trkpt>
      <trkpt lat="46.99001" lon="8.67797">
        <ele>560</ele>
        <time>2021-08-05T10:11:35.463Z</time>
      </trkpt>
      <trkpt lat="46.99" lon="8.67798">
        <ele>560</ele>
        <time>2021-08-05T10:11:36.463Z</time>
      </trkpt>
      <trkpt lat="46.99" lon="8.678">
        <ele>560</ele>
        <time>2021-08-05T10:11:37.463Z</time>
      </trkpt>
      <trkpt lat="46.99001" lon="8.67802">
        <ele>560</ele>
        <time>2021-08-05T10:11:38.463Z</time>
      </trkpt>
      <trkpt lat="46.99001" lon="8.67805">
        <ele>560</ele>
        <time>2021-08-05T10:11:39.463Z</time>
      </trkpt>
      <trkpt lat="46.99001" lon="8.67807">
        <ele>560</ele>
        <time>2021-08-05T10:11:40.462Z</time>
      </trkpt>
      <trkpt lat="46.99002" lon="8.67808">
        <ele>560</ele>
        <time>2021-08-05T10:11:41.462Z</time>
      </trkpt>
      <trkpt lat="46.99002" lon="8.67809">
        <ele>560</ele>
        <time>2021-08-05T10:11:42.462Z</time>
      </trkpt>
      <trkpt lat="46.99003" lon="8.6781">
        <ele>559</ele>
        <time>2021-08-05T10:11:43.463Z</time>
      </trkpt>
      <trkpt lat="46.99002" lon="8.67813">
        <ele>559</ele>
        <time>2021-08-05T10:11:44.462Z</time>
      </trkpt>
      <trkpt lat="46.99002" lon="8.67813">
        <ele>559</ele>
        <time>2021-08-05T10:11:45.462Z</time>
      </trkpt>
      <trkpt lat="46.99002" lon="8.67814">
        <ele>559</ele>
        <time>2021-08-05T10:11:46.463Z</time>
      </trkpt>
      <trkpt lat="46.99002" lon="8.67816">
        <ele>559</ele>
        <time>2021-08-05T10:11:47.462Z</time>
      </trkpt>
      <trkpt lat="46.99002" lon="8.67818">
        <ele>559</ele>
        <time>2021-08-05T10:11:48.462Z</time>
      </trkpt>
      <trkpt lat="46.99003" lon="8.6782">
        <ele>559</ele>
        <time>2021-08-05T10:11:49.462Z</time>
      </trkpt>
      <trkpt lat="46.99003" lon="8.67821">
        <ele>559</ele>
        <time>2021-08-05T10:11:50.463Z</time>
      </trkpt>
      <trkpt lat="46.99002" lon="8.67823">
        <ele>559</ele>
        <time>2021-08-05T10:11:51.463Z</time>
      </trkpt>
      <trkpt lat="46.99002" lon="8.67824">
        <ele>560</ele>
        <time>2021-08-05T10:11:52.463Z</time>
      </trkpt>
      <trkpt lat="46.99002" lon="8.67827">
        <ele>560</ele>
        <time>2021-08-05T10:11:53.463Z</time>
      </trkpt>
      <trkpt lat="46.99002" lon="8.67829">
        <ele>560</ele>
        <time>2021-08-05T10:11:54.463Z</time>
      </trkpt>
      <trkpt lat="46.99002" lon="8.6783">
        <ele>560</ele>
        <time>2021-08-05T10:11:55.463Z</time>
      </trkpt>
      <trkpt lat="46.99003" lon="8.67832">
        <ele>561</ele>
        <time>2021-08-05T10:11:56.463Z</time>
      </trkpt>
      <trkpt lat="46.99003" lon="8.67833">
        <ele>561</ele>
        <time>2021-08-05T10:11:57.463Z</time>
      </trkpt>
      <trkpt lat="46.99003" lon="8.67835">
        <ele>561</ele>
        <time>2021-08-05T10:11:58.463Z</time>
      </trkpt>
      <trkpt lat="46.99003" lon="8.67837">
        <ele>561</ele>
        <time>2021-08-05T10:11:59.463Z</time>
      </trkpt>
      <trkpt lat="46.99003" lon="8.67839">
        <ele>560</ele>
        <time>2021-08-05T10:12:00.463Z</time>
      </trkpt>
      <trkpt lat="46.99002" lon="8.67841">
        <ele>559</ele>
        <time>2021-08-05T10:12:01.463Z</time>
      </trkpt>
      <trkpt lat="46.99002" lon="8.67843">
        <ele>559</ele>
        <time>2021-08-05T10:12:02.463Z</time>
      </trkpt>
      <trkpt lat="46.99002" lon="8.67845">
        <ele>558</ele>
        <time>2021-08-05T10:12:03.463Z</time>
      </trkpt>
      <trkpt lat="46.99001" lon="8.67847">
        <ele>557</ele>
        <time>2021-08-05T10:12:04.463Z</time>
      </trkpt>
      <trkpt lat="46.99002" lon="8.67849">
        <ele>557</ele>
        <time>2021-08-05T10:12:05.463Z</time>
      </trkpt>
      <trkpt lat="46.99002" lon="8.67851">
        <ele>556</ele>
        <time>2021-08-05T10:12:06.463Z</time>
      </trkpt>
      <trkpt lat="46.99003" lon="8.67854">
        <ele>556</ele>
        <time>2021-08-05T10:12:07.463Z</time>
      </trkpt>
      <trkpt lat="46.99003" lon="8.67856">
        <ele>555</ele>
        <time>2021-08-05T10:12:08.462Z</time>
      </trkpt>
      <trkpt lat="46.99003" lon="8.67858">
        <ele>555</ele>
        <time>2021-08-05T10:12:09.463Z</time>
      </trkpt>
      <trkpt lat="46.99002" lon="8.67859">
        <ele>555</ele>
        <time>2021-08-05T10:12:10.462Z</time>
      </trkpt>
      <trkpt lat="46.99003" lon="8.6786">
        <ele>555</ele>
        <time>2021-08-05T10:12:11.463Z</time>
      </trkpt>
      <trkpt lat="46.99003" lon="8.6786">
        <ele>555</ele>
        <time>2021-08-05T10:12:12.463Z</time>
      </trkpt>
      <trkpt lat="46.99004" lon="8.6786">
        <ele>555</ele>
        <time>2021-08-05T10:12:13.462Z</time>
      </trkpt>
      <trkpt lat="46.99004" lon="8.6786">
        <ele>555</ele>
        <time>2021-08-05T10:12:14.462Z</time>
      </trkpt>
      <trkpt lat="46.99007" lon="8.6786">
        <ele>556</ele>
        <time>2021-08-05T10:12:15.464Z</time>
      </trkpt>
      <trkpt lat="46.99006" lon="8.67864">
        <ele>556</ele>
        <time>2021-08-05T10:12:16.465Z</time>
      </trkpt>
      <trkpt lat="46.99006" lon="8.67865">
        <ele>556</ele>
        <time>2021-08-05T10:12:17.465Z</time>
      </trkpt>
      <trkpt lat="46.99006" lon="8.67867">
        <ele>556</ele>
        <time>2021-08-05T10:12:18.465Z</time>
      </trkpt>
      <trkpt lat="46.99006" lon="8.67868">
        <ele>556</ele>
        <time>2021-08-05T10:12:19.464Z</time>
      </trkpt>
      <trkpt lat="46.99006" lon="8.67869">
        <ele>555</ele>
        <time>2021-08-05T10:12:20.465Z</time>
      </trkpt>
      <trkpt lat="46.99006" lon="8.67871">
        <ele>555</ele>
        <time>2021-08-05T10:12:21.464Z</time>
      </trkpt>
      <trkpt lat="46.99005" lon="8.67873">
        <ele>555</ele>
        <time>2021-08-05T10:12:22.465Z</time>
      </trkpt>
      <trkpt lat="46.99006" lon="8.67874">
        <ele>555</ele>
        <time>2021-08-05T10:12:23.465Z</time>
      </trkpt>
      <trkpt lat="46.99005" lon="8.67876">
        <ele>555</ele>
        <time>2021-08-05T10:12:24.464Z</time>
      </trkpt>
      <trkpt lat="46.99005" lon="8.67877">
        <ele>554</ele>
        <time>2021-08-05T10:12:25.465Z</time>
      </trkpt>
      <trkpt lat="46.99004" lon="8.67879">
        <ele>554</ele>
        <time>2021-08-05T10:12:26.464Z</time>
      </trkpt>
      <trkpt lat="46.99004" lon="8.67881">
        <ele>554</ele>
        <time>2021-08-05T10:12:27.465Z</time>
      </trkpt>
      <trkpt lat="46.99003" lon="8.67883">
        <ele>554</ele>
        <time>2021-08-05T10:12:28.465Z</time>
      </trkpt>
      <trkpt lat="46.99003" lon="8.67885">
        <ele>554</ele>
        <time>2021-08-05T10:12:29.465Z</time>
      </trkpt>
      <trkpt lat="46.99003" lon="8.67887">
        <ele>554</ele>
        <time>2021-08-05T10:12:30.464Z</time>
      </trkpt>
      <trkpt lat="46.99002" lon="8.6789">
        <ele>554</ele>
        <time>2021-08-05T10:12:31.465Z</time>
      </trkpt>
      <trkpt lat="46.99002" lon="8.67892">
        <ele>554</ele>
        <time>2021-08-05T10:12:32.465Z</time>
      </trkpt>
      <trkpt lat="46.99001" lon="8.67894">
        <ele>554</ele>
        <time>2021-08-05T10:12:33.464Z</time>
      </trkpt>
      <trkpt lat="46.99001" lon="8.67895">
        <ele>554</ele>
        <time>2021-08-05T10:12:34.465Z</time>
      </trkpt>
      <trkpt lat="46.99001" lon="8.67897">
        <ele>554</ele>
        <time>2021-08-05T10:12:35.465Z</time>
      </trkpt>
      <trkpt lat="46.99" lon="8.67899">
        <ele>554</ele>
        <time>2021-08-05T10:12:36.464Z</time>
      </trkpt>
      <trkpt lat="46.99" lon="8.67902">
        <ele>554</ele>
        <time>2021-08-05T10:12:37.465Z</time>
      </trkpt>
      <trkpt lat="46.98999" lon="8.67903">
        <ele>554</ele>
        <time>2021-08-05T10:12:38.465Z</time>
      </trkpt>
      <trkpt lat="46.98999" lon="8.67906">
        <ele>554</ele>
        <time>2021-08-05T10:12:39.465Z</time>
      </trkpt>
      <trkpt lat="46.98998" lon="8.67908">
        <ele>554</ele>
        <time>2021-08-05T10:12:40.465Z</time>
      </trkpt>
      <trkpt lat="46.98997" lon="8.6791">
        <ele>554</ele>
        <time>2021-08-05T10:12:41.465Z</time>
      </trkpt>
      <trkpt lat="46.98997" lon="8.67911">
        <ele>554</ele>
        <time>2021-08-05T10:12:42.464Z</time>
      </trkpt>
      <trkpt lat="46.98997" lon="8.67913">
        <ele>554</ele>
        <time>2021-08-05T10:12:43.465Z</time>
      </trkpt>
      <trkpt lat="46.98996" lon="8.67914">
        <ele>554</ele>
        <time>2021-08-05T10:12:44.465Z</time>
      </trkpt>
      <trkpt lat="46.98996" lon="8.67915">
        <ele>554</ele>
        <time>2021-08-05T10:12:45.465Z</time>
      </trkpt>
      <trkpt lat="46.98995" lon="8.67916">
        <ele>554</ele>
        <time>2021-08-05T10:12:46.464Z</time>
      </trkpt>
      <trkpt lat="46.98994" lon="8.67918">
        <ele>554</ele>
        <time>2021-08-05T10:12:47.464Z</time>
      </trkpt>
      <trkpt lat="46.98994" lon="8.67919">
        <ele>554</ele>
        <time>2021-08-05T10:12:48.464Z</time>
      </trkpt>
      <trkpt lat="46.98994" lon="8.67921">
        <ele>554</ele>
        <time>2021-08-05T10:12:49.465Z</time>
      </trkpt>
      <trkpt lat="46.98993" lon="8.67922">
        <ele>554</ele>
        <time>2021-08-05T10:12:50.465Z</time>
      </trkpt>
      <trkpt lat="46.98993" lon="8.67924">
        <ele>554</ele>
        <time>2021-08-05T10:12:51.465Z</time>
      </trkpt>
      <trkpt lat="46.98993" lon="8.67925">
        <ele>554</ele>
        <time>2021-08-05T10:12:52.464Z</time>
      </trkpt>
      <trkpt lat="46.98992" lon="8.67927">
        <ele>554</ele>
        <time>2021-08-05T10:12:53.465Z</time>
      </trkpt>
      <trkpt lat="46.98991" lon="8.67929">
        <ele>554</ele>
        <time>2021-08-05T10:12:54.465Z</time>
      </trkpt>
      <trkpt lat="46.98991" lon="8.67931">
        <ele>555</ele>
        <time>2021-08-05T10:12:55.464Z</time>
      </trkpt>
      <trkpt lat="46.98991" lon="8.67932">
        <ele>555</ele>
        <time>2021-08-05T10:12:56.465Z</time>
      </trkpt>
      <trkpt lat="46.98991" lon="8.67934">
        <ele>555</ele>
        <time>2021-08-05T10:12:57.464Z</time>
      </trkpt>
      <trkpt lat="46.98991" lon="8.67936">
        <ele>556</ele>
        <time>2021-08-05T10:12:58.465Z</time>
      </trkpt>
      <trkpt lat="46.98991" lon="8.67938">
        <ele>556</ele>
        <time>2021-08-05T10:12:59.465Z</time>
      </trkpt>
      <trkpt lat="46.98991" lon="8.6794">
        <ele>556</ele>
        <time>2021-08-05T10:13:00.465Z</time>
      </trkpt>
      <trkpt lat="46.98991" lon="8.67941">
        <ele>556</ele>
        <time>2021-08-05T10:13:01.465Z</time>
      </trkpt>
      <trkpt lat="46.98991" lon="8.67943">
        <ele>556</ele>
        <time>2021-08-05T10:13:02.464Z</time>
      </trkpt>
      <trkpt lat="46.9899" lon="8.67944">
        <ele>555</ele>
        <time>2021-08-05T10:13:03.465Z</time>
      </trkpt>
      <trkpt lat="46.98991" lon="8.67945">
        <ele>555</ele>
        <time>2021-08-05T10:13:04.464Z</time>
      </trkpt>
      <trkpt lat="46.98992" lon="8.67945">
        <ele>555</ele>
        <time>2021-08-05T10:13:05.465Z</time>
      </trkpt>
      <trkpt lat="46.98993" lon="8.67944">
        <ele>555</ele>
        <time>2021-08-05T10:13:06.464Z</time>
      </trkpt>
      <trkpt lat="46.98994" lon="8.67944">
        <ele>555</ele>
        <time>2021-08-05T10:13:07.465Z</time>
      </trkpt>
      <trkpt lat="46.98994" lon="8.67943">
        <ele>556</ele>
        <time>2021-08-05T10:13:08.465Z</time>
      </trkpt>
      <trkpt lat="46.98992" lon="8.67941">
        <ele>556</ele>
        <time>2021-08-05T10:13:09.464Z</time>
      </trkpt>
      <trkpt lat="46.98992" lon="8.67941">
        <ele>557</ele>
        <time>2021-08-05T10:13:10.464Z</time>
      </trkpt>
      <trkpt lat="46.98992" lon="8.67941">
        <ele>557</ele>
        <time>2021-08-05T10:13:11.465Z</time>
      </trkpt>
      <trkpt lat="46.98992" lon="8.67942">
        <ele>557</ele>
        <time>2021-08-05T10:13:12.464Z</time>
      </trkpt>
      <trkpt lat="46.98992" lon="8.67942">
        <ele>557</ele>
        <time>2021-08-05T10:13:13.465Z</time>
      </trkpt>
      <trkpt lat="46.98992" lon="8.67942">
        <ele>557</ele>
        <time>2021-08-05T10:13:14.465Z</time>
      </trkpt>
      <trkpt lat="46.98991" lon="8.67942">
        <ele>557</ele>
        <time>2021-08-05T10:13:15.464Z</time>
      </trkpt>
      <trkpt lat="46.98991" lon="8.67943">
        <ele>557</ele>
        <time>2021-08-05T10:13:16.465Z</time>
      </trkpt>
      <trkpt lat="46.98991" lon="8.67944">
        <ele>557</ele>
        <time>2021-08-05T10:13:17.465Z</time>
      </trkpt>
      <trkpt lat="46.9899" lon="8.67945">
        <ele>557</ele>
        <time>2021-08-05T10:13:18.465Z</time>
      </trkpt>
      <trkpt lat="46.9899" lon="8.67947">
        <ele>556</ele>
        <time>2021-08-05T10:13:19.465Z</time>
      </trkpt>
      <trkpt lat="46.9899" lon="8.67948">
        <ele>556</ele>
        <time>2021-08-05T10:13:20.464Z</time>
      </trkpt>
      <trkpt lat="46.9899" lon="8.67948">
        <ele>556</ele>
        <time>2021-08-05T10:13:21.465Z</time>
      </trkpt>
      <trkpt lat="46.9899" lon="8.67949">
        <ele>555</ele>
        <time>2021-08-05T10:13:22.464Z</time>
      </trkpt>
      <trkpt lat="46.98989" lon="8.67949">
        <ele>555</ele>
        <time>2021-08-05T10:13:23.465Z</time>
      </trkpt>
      <trkpt lat="46.98989" lon="8.6795">
        <ele>555</ele>
        <time>2021-08-05T10:13:24.465Z</time>
      </trkpt>
      <trkpt lat="46.98989" lon="8.6795">
        <ele>554</ele>
        <time>2021-08-05T10:13:25.464Z</time>
      </trkpt>
      <trkpt lat="46.9899" lon="8.67952">
        <ele>554</ele>
        <time>2021-08-05T10:13:26.465Z</time>
      </trkpt>
      <trkpt lat="46.98991" lon="8.67954">
        <ele>554</ele>
        <time>2021-08-05T10:13:27.465Z</time>
      </trkpt>
      <trkpt lat="46.98991" lon="8.67955">
        <ele>553</ele>
        <time>2021-08-05T10:13:28.465Z</time>
      </trkpt>
      <trkpt lat="46.98992" lon="8.67957">
        <ele>553</ele>
        <time>2021-08-05T10:13:29.465Z</time>
      </trkpt>
      <trkpt lat="46.98992" lon="8.67959">
        <ele>552</ele>
        <time>2021-08-05T10:13:30.465Z</time>
      </trkpt>
      <trkpt lat="46.98991" lon="8.67961">
        <ele>552</ele>
        <time>2021-08-05T10:13:31.465Z</time>
      </trkpt>
      <trkpt lat="46.98991" lon="8.67963">
        <ele>552</ele>
        <time>2021-08-05T10:13:32.465Z</time>
      </trkpt>
      <trkpt lat="46.98991" lon="8.67965">
        <ele>551</ele>
        <time>2021-08-05T10:13:33.465Z</time>
      </trkpt>
      <trkpt lat="46.98991" lon="8.67966">
        <ele>551</ele>
        <time>2021-08-05T10:13:34.465Z</time>
      </trkpt>
      <trkpt lat="46.98992" lon="8.67968">
        <ele>551</ele>
        <time>2021-08-05T10:13:35.464Z</time>
      </trkpt>
      <trkpt lat="46.98992" lon="8.6797">
        <ele>550</ele>
        <time>2021-08-05T10:13:36.465Z</time>
      </trkpt>
      <trkpt lat="46.98992" lon="8.67972">
        <ele>550</ele>
        <time>2021-08-05T10:13:37.464Z</time>
      </trkpt>
      <trkpt lat="46.98992" lon="8.67974">
        <ele>549</ele>
        <time>2021-08-05T10:13:38.465Z</time>
      </trkpt>
      <trkpt lat="46.98992" lon="8.67976">
        <ele>549</ele>
        <time>2021-08-05T10:13:39.464Z</time>
      </trkpt>
      <trkpt lat="46.98993" lon="8.67978">
        <ele>548</ele>
        <time>2021-08-05T10:13:40.465Z</time>
      </trkpt>
      <trkpt lat="46.98993" lon="8.67979">
        <ele>548</ele>
        <time>2021-08-05T10:13:41.465Z</time>
      </trkpt>
      <trkpt lat="46.98993" lon="8.67982">
        <ele>547</ele>
        <time>2021-08-05T10:13:42.465Z</time>
      </trkpt>
      <trkpt lat="46.98993" lon="8.67983">
        <ele>547</ele>
        <time>2021-08-05T10:13:43.464Z</time>
      </trkpt>
      <trkpt lat="46.98994" lon="8.67984">
        <ele>547</ele>
        <time>2021-08-05T10:13:44.465Z</time>
      </trkpt>
      <trkpt lat="46.98994" lon="8.67986">
        <ele>547</ele>
        <time>2021-08-05T10:13:45.464Z</time>
      </trkpt>
      <trkpt lat="46.98994" lon="8.67988">
        <ele>547</ele>
        <time>2021-08-05T10:13:46.464Z</time>
      </trkpt>
      <trkpt lat="46.98995" lon="8.67989">
        <ele>547</ele>
        <time>2021-08-05T10:13:47.464Z</time>
      </trkpt>
      <trkpt lat="46.98995" lon="8.67992">
        <ele>546</ele>
        <time>2021-08-05T10:13:48.464Z</time>
      </trkpt>
      <trkpt lat="46.98995" lon="8.67994">
        <ele>546</ele>
        <time>2021-08-05T10:13:49.464Z</time>
      </trkpt>
      <trkpt lat="46.98995" lon="8.67996">
        <ele>546</ele>
        <time>2021-08-05T10:13:50.464Z</time>
      </trkpt>
      <trkpt lat="46.98995" lon="8.67998">
        <ele>546</ele>
        <time>2021-08-05T10:13:51.464Z</time>
      </trkpt>
      <trkpt lat="46.98995" lon="8.68">
        <ele>546</ele>
        <time>2021-08-05T10:13:52.464Z</time>
      </trkpt>
      <trkpt lat="46.98994" lon="8.68002">
        <ele>546</ele>
        <time>2021-08-05T10:13:53.465Z</time>
      </trkpt>
      <trkpt lat="46.98993" lon="8.68003">
        <ele>547</ele>
        <time>2021-08-05T10:13:54.464Z</time>
      </trkpt>
      <trkpt lat="46.98993" lon="8.68004">
        <ele>547</ele>
        <time>2021-08-05T10:13:55.464Z</time>
      </trkpt>
      <trkpt lat="46.98993" lon="8.68006">
        <ele>547</ele>
        <time>2021-08-05T10:13:56.464Z</time>
      </trkpt>
      <trkpt lat="46.98993" lon="8.68007">
        <ele>547</ele>
        <time>2021-08-05T10:13:57.464Z</time>
      </trkpt>
      <trkpt lat="46.98992" lon="8.68008">
        <ele>547</ele>
        <time>2021-08-05T10:13:58.465Z</time>
      </trkpt>
      <trkpt lat="46.98993" lon="8.68009">
        <ele>547</ele>
        <time>2021-08-05T10:13:59.465Z</time>
      </trkpt>
      <trkpt lat="46.98993" lon="8.68011">
        <ele>547</ele>
        <time>2021-08-05T10:14:00.465Z</time>
      </trkpt>
      <trkpt lat="46.98993" lon="8.68012">
        <ele>547</ele>
        <time>2021-08-05T10:14:01.464Z</time>
      </trkpt>
      <trkpt lat="46.98992" lon="8.68014">
        <ele>547</ele>
        <time>2021-08-05T10:14:02.465Z</time>
      </trkpt>
      <trkpt lat="46.98992" lon="8.68015">
        <ele>546</ele>
        <time>2021-08-05T10:14:03.465Z</time>
      </trkpt>
      <trkpt lat="46.98991" lon="8.68017">
        <ele>546</ele>
        <time>2021-08-05T10:14:04.464Z</time>
      </trkpt>
      <trkpt lat="46.98991" lon="8.6802">
        <ele>546</ele>
        <time>2021-08-05T10:14:05.464Z</time>
      </trkpt>
      <trkpt lat="46.98991" lon="8.68022">
        <ele>546</ele>
        <time>2021-08-05T10:14:06.464Z</time>
      </trkpt>
      <trkpt lat="46.98991" lon="8.68024">
        <ele>546</ele>
        <time>2021-08-05T10:14:07.464Z</time>
      </trkpt>
      <trkpt lat="46.9899" lon="8.68025">
        <ele>546</ele>
        <time>2021-08-05T10:14:08.464Z</time>
      </trkpt>
      <trkpt lat="46.9899" lon="8.68027">
        <ele>546</ele>
        <time>2021-08-05T10:14:09.464Z</time>
      </trkpt>
      <trkpt lat="46.98991" lon="8.68028">
        <ele>546</ele>
        <time>2021-08-05T10:14:10.465Z</time>
      </trkpt>
      <trkpt lat="46.9899" lon="8.6803">
        <ele>547</ele>
        <time>2021-08-05T10:14:11.465Z</time>
      </trkpt>
      <trkpt lat="46.98989" lon="8.68032">
        <ele>547</ele>
        <time>2021-08-05T10:14:12.465Z</time>
      </trkpt>
      <trkpt lat="46.98988" lon="8.68035">
        <ele>547</ele>
        <time>2021-08-05T10:14:13.465Z</time>
      </trkpt>
      <trkpt lat="46.98988" lon="8.68037">
        <ele>547</ele>
        <time>2021-08-05T10:14:14.465Z</time>
      </trkpt>
      <trkpt lat="46.98988" lon="8.68039">
        <ele>547</ele>
        <time>2021-08-05T10:14:15.464Z</time>
      </trkpt>
      <trkpt lat="46.98987" lon="8.68041">
        <ele>547</ele>
        <time>2021-08-05T10:14:16.465Z</time>
      </trkpt>
      <trkpt lat="46.98987" lon="8.68043">
        <ele>547</ele>
        <time>2021-08-05T10:14:17.465Z</time>
      </trkpt>
      <trkpt lat="46.98987" lon="8.68044">
        <ele>547</ele>
        <time>2021-08-05T10:14:18.464Z</time>
      </trkpt>
      <trkpt lat="46.98987" lon="8.68046">
        <ele>547</ele>
        <time>2021-08-05T10:14:19.465Z</time>
      </trkpt>
      <trkpt lat="46.98986" lon="8.68048">
        <ele>547</ele>
        <time>2021-08-05T10:14:20.465Z</time>
      </trkpt>
      <trkpt lat="46.98986" lon="8.6805">
        <ele>547</ele>
        <time>2021-08-05T10:14:21.465Z</time>
      </trkpt>
      <trkpt lat="46.98986" lon="8.68052">
        <ele>547</ele>
        <time>2021-08-05T10:14:22.465Z</time>
      </trkpt>
      <trkpt lat="46.98987" lon="8.68054">
        <ele>548</ele>
        <time>2021-08-05T10:14:23.465Z</time>
      </trkpt>
      <trkpt lat="46.98987" lon="8.68056">
        <ele>548</ele>
        <time>2021-08-05T10:14:24.465Z</time>
      </trkpt>
      <trkpt lat="46.98987" lon="8.68058">
        <ele>548</ele>
        <time>2021-08-05T10:14:25.464Z</time>
      </trkpt>
      <trkpt lat="46.98987" lon="8.68059">
        <ele>548</ele>
        <time>2021-08-05T10:14:26.465Z</time>
      </trkpt>
      <trkpt lat="46.98987" lon="8.68061">
        <ele>548</ele>
        <time>2021-08-05T10:14:27.465Z</time>
      </trkpt>
      <trkpt lat="46.98986" lon="8.68063">
        <ele>548</ele>
        <time>2021-08-05T10:14:28.465Z</time>
      </trkpt>
      <trkpt lat="46.98987" lon="8.68065">
        <ele>548</ele>
        <time>2021-08-05T10:14:29.465Z</time>
      </trkpt>
      <trkpt lat="46.98987" lon="8.68067">
        <ele>548</ele>
        <time>2021-08-05T10:14:30.465Z</time>
      </trkpt>
      <trkpt lat="46.98988" lon="8.68068">
        <ele>548</ele>
        <time>2021-08-05T10:14:31.465Z</time>
      </trkpt>
      <trkpt lat="46.98989" lon="8.6807">
        <ele>549</ele>
        <time>2021-08-05T10:14:32.464Z</time>
      </trkpt>
      <trkpt lat="46.98989" lon="8.68072">
        <ele>549</ele>
        <time>2021-08-05T10:14:33.465Z</time>
      </trkpt>
      <trkpt lat="46.98989" lon="8.68074">
        <ele>549</ele>
        <time>2021-08-05T10:14:34.465Z</time>
      </trkpt>
      <trkpt lat="46.9899" lon="8.68075">
        <ele>549</ele>
        <time>2021-08-05T10:14:35.465Z</time>
      </trkpt>
      <trkpt lat="46.9899" lon="8.68077">
        <ele>549</ele>
        <time>2021-08-05T10:14:36.464Z</time>
      </trkpt>
      <trkpt lat="46.9899" lon="8.68078">
        <ele>549</ele>
        <time>2021-08-05T10:14:37.465Z</time>
      </trkpt>
      <trkpt lat="46.9899" lon="8.68079">
        <ele>549</ele>
        <time>2021-08-05T10:14:38.464Z</time>
      </trkpt>
      <trkpt lat="46.98991" lon="8.6808">
        <ele>549</ele>
        <time>2021-08-05T10:14:39.464Z</time>
      </trkpt>
      <trkpt lat="46.9899" lon="8.68082">
        <ele>549</ele>
        <time>2021-08-05T10:14:40.465Z</time>
      </trkpt>
      <trkpt lat="46.9899" lon="8.68083">
        <ele>549</ele>
        <time>2021-08-05T10:14:41.464Z</time>
      </trkpt>
      <trkpt lat="46.9899" lon="8.68085">
        <ele>549</ele>
        <time>2021-08-05T10:14:42.465Z</time>
      </trkpt>
      <trkpt lat="46.98991" lon="8.68086">
        <ele>549</ele>
        <time>2021-08-05T10:14:43.465Z</time>
      </trkpt>
      <trkpt lat="46.98991" lon="8.68088">
        <ele>550</ele>
        <time>2021-08-05T10:14:44.465Z</time>
      </trkpt>
      <trkpt lat="46.98991" lon="8.6809">
        <ele>549</ele>
        <time>2021-08-05T10:14:45.465Z</time>
      </trkpt>
      <trkpt lat="46.98991" lon="8.68092">
        <ele>549</ele>
        <time>2021-08-05T10:14:46.465Z</time>
      </trkpt>
      <trkpt lat="46.98991" lon="8.68093">
        <ele>549</ele>
        <time>2021-08-05T10:14:47.465Z</time>
      </trkpt>
      <trkpt lat="46.98991" lon="8.68094">
        <ele>549</ele>
        <time>2021-08-05T10:14:48.465Z</time>
      </trkpt>
      <trkpt lat="46.98991" lon="8.68095">
        <ele>548</ele>
        <time>2021-08-05T10:14:49.465Z</time>
      </trkpt>
      <trkpt lat="46.98991" lon="8.68096">
        <ele>549</ele>
        <time>2021-08-05T10:14:50.465Z</time>
      </trkpt>
      <trkpt lat="46.98991" lon="8.68097">
        <ele>549</ele>
        <time>2021-08-05T10:14:51.465Z</time>
      </trkpt>
      <trkpt lat="46.98991" lon="8.68098">
        <ele>548</ele>
        <time>2021-08-05T10:14:52.465Z</time>
      </trkpt>
      <trkpt lat="46.98992" lon="8.681">
        <ele>548</ele>
        <time>2021-08-05T10:14:53.465Z</time>
      </trkpt>
      <trkpt lat="46.98991" lon="8.68102">
        <ele>548</ele>
        <time>2021-08-05T10:14:54.465Z</time>
      </trkpt>
      <trkpt lat="46.98993" lon="8.68105">
        <ele>548</ele>
        <time>2021-08-05T10:14:55.465Z</time>
      </trkpt>
      <trkpt lat="46.98993" lon="8.68107">
        <ele>548</ele>
        <time>2021-08-05T10:14:56.465Z</time>
      </trkpt>
      <trkpt lat="46.98993" lon="8.68109">
        <ele>548</ele>
        <time>2021-08-05T10:14:57.464Z</time>
      </trkpt>
      <trkpt lat="46.98993" lon="8.6811">
        <ele>548</ele>
        <time>2021-08-05T10:14:58.464Z</time>
      </trkpt>
      <trkpt lat="46.98993" lon="8.68112">
        <ele>548</ele>
        <time>2021-08-05T10:14:59.464Z</time>
      </trkpt>
      <trkpt lat="46.98993" lon="8.68114">
        <ele>547</ele>
        <time>2021-08-05T10:15:00.465Z</time>
      </trkpt>
      <trkpt lat="46.98993" lon="8.68116">
        <ele>547</ele>
        <time>2021-08-05T10:15:01.465Z</time>
      </trkpt>
      <trkpt lat="46.98993" lon="8.68117">
        <ele>547</ele>
        <time>2021-08-05T10:15:02.465Z</time>
      </trkpt>
      <trkpt lat="46.98992" lon="8.68119">
        <ele>547</ele>
        <time>2021-08-05T10:15:03.465Z</time>
      </trkpt>
      <trkpt lat="46.98992" lon="8.6812">
        <ele>546</ele>
        <time>2021-08-05T10:15:04.464Z</time>
      </trkpt>
      <trkpt lat="46.98991" lon="8.68121">
        <ele>546</ele>
        <time>2021-08-05T10:15:05.464Z</time>
      </trkpt>
      <trkpt lat="46.98991" lon="8.68123">
        <ele>546</ele>
        <time>2021-08-05T10:15:06.465Z</time>
      </trkpt>
      <trkpt lat="46.98992" lon="8.68124">
        <ele>546</ele>
        <time>2021-08-05T10:15:07.464Z</time>
      </trkpt>
      <trkpt lat="46.98992" lon="8.68126">
        <ele>546</ele>
        <time>2021-08-05T10:15:08.465Z</time>
      </trkpt>
      <trkpt lat="46.98992" lon="8.68128">
        <ele>546</ele>
        <time>2021-08-05T10:15:09.464Z</time>
      </trkpt>
      <trkpt lat="46.98992" lon="8.6813">
        <ele>546</ele>
        <time>2021-08-05T10:15:10.464Z</time>
      </trkpt>
      <trkpt lat="46.98993" lon="8.68132">
        <ele>546</ele>
        <time>2021-08-05T10:15:11.465Z</time>
      </trkpt>
      <trkpt lat="46.98993" lon="8.68135">
        <ele>546</ele>
        <time>2021-08-05T10:15:12.465Z</time>
      </trkpt>
      <trkpt lat="46.98994" lon="8.68137">
        <ele>546</ele>
        <time>2021-08-05T10:15:13.464Z</time>
      </trkpt>
      <trkpt lat="46.98994" lon="8.6814">
        <ele>546</ele>
        <time>2021-08-05T10:15:14.464Z</time>
      </trkpt>
      <trkpt lat="46.98994" lon="8.68142">
        <ele>546</ele>
        <time>2021-08-05T10:15:15.464Z</time>
      </trkpt>
      <trkpt lat="46.98994" lon="8.68145">
        <ele>546</ele>
        <time>2021-08-05T10:15:16.464Z</time>
      </trkpt>
      <trkpt lat="46.98994" lon="8.68146">
        <ele>546</ele>
        <time>2021-08-05T10:15:17.464Z</time>
      </trkpt>
      <trkpt lat="46.98995" lon="8.68148">
        <ele>546</ele>
        <time>2021-08-05T10:15:18.464Z</time>
      </trkpt>
      <trkpt lat="46.98995" lon="8.68149">
        <ele>546</ele>
        <time>2021-08-05T10:15:19.464Z</time>
      </trkpt>
      <trkpt lat="46.98996" lon="8.68151">
        <ele>546</ele>
        <time>2021-08-05T10:15:20.465Z</time>
      </trkpt>
      <trkpt lat="46.98995" lon="8.68153">
        <ele>546</ele>
        <time>2021-08-05T10:15:21.465Z</time>
      </trkpt>
      <trkpt lat="46.98994" lon="8.68155">
        <ele>547</ele>
        <time>2021-08-05T10:15:22.464Z</time>
      </trkpt>
      <trkpt lat="46.98993" lon="8.68157">
        <ele>547</ele>
        <time>2021-08-05T10:15:23.464Z</time>
      </trkpt>
      <trkpt lat="46.98994" lon="8.68159">
        <ele>547</ele>
        <time>2021-08-05T10:15:24.464Z</time>
      </trkpt>
      <trkpt lat="46.98994" lon="8.68161">
        <ele>547</ele>
        <time>2021-08-05T10:15:25.464Z</time>
      </trkpt>
      <trkpt lat="46.98994" lon="8.68163">
        <ele>547</ele>
        <time>2021-08-05T10:15:26.464Z</time>
      </trkpt>
      <trkpt lat="46.98994" lon="8.68164">
        <ele>547</ele>
        <time>2021-08-05T10:15:27.464Z</time>
      </trkpt>
      <trkpt lat="46.98994" lon="8.68166">
        <ele>547</ele>
        <time>2021-08-05T10:15:28.464Z</time>
      </trkpt>
      <trkpt lat="46.98993" lon="8.68167">
        <ele>547</ele>
        <time>2021-08-05T10:15:29.465Z</time>
      </trkpt>
      <trkpt lat="46.98994" lon="8.68169">
        <ele>547</ele>
        <time>2021-08-05T10:15:30.464Z</time>
      </trkpt>
      <trkpt lat="46.98994" lon="8.68171">
        <ele>546</ele>
        <time>2021-08-05T10:15:31.464Z</time>
      </trkpt>
      <trkpt lat="46.98994" lon="8.68173">
        <ele>546</ele>
        <time>2021-08-05T10:15:32.464Z</time>
      </trkpt>
      <trkpt lat="46.98995" lon="8.68176">
        <ele>545</ele>
        <time>2021-08-05T10:15:33.464Z</time>
      </trkpt>
      <trkpt lat="46.98994" lon="8.68178">
        <ele>545</ele>
        <time>2021-08-05T10:15:34.465Z</time>
      </trkpt>
      <trkpt lat="46.98992" lon="8.6818">
        <ele>545</ele>
        <time>2021-08-05T10:15:35.465Z</time>
      </trkpt>
      <trkpt lat="46.98993" lon="8.68182">
        <ele>545</ele>
        <time>2021-08-05T10:15:36.465Z</time>
      </trkpt>
      <trkpt lat="46.98993" lon="8.68184">
        <ele>545</ele>
        <time>2021-08-05T10:15:37.465Z</time>
      </trkpt>
      <trkpt lat="46.98992" lon="8.68185">
        <ele>544</ele>
        <time>2021-08-05T10:15:38.465Z</time>
      </trkpt>
      <trkpt lat="46.98992" lon="8.68187">
        <ele>544</ele>
        <time>2021-08-05T10:15:39.464Z</time>
      </trkpt>
      <trkpt lat="46.98991" lon="8.68188">
        <ele>544</ele>
        <time>2021-08-05T10:15:40.465Z</time>
      </trkpt>
      <trkpt lat="46.98991" lon="8.68189">
        <ele>543</ele>
        <time>2021-08-05T10:15:41.465Z</time>
      </trkpt>
      <trkpt lat="46.98991" lon="8.6819">
        <ele>543</ele>
        <time>2021-08-05T10:15:42.464Z</time>
      </trkpt>
      <trkpt lat="46.98991" lon="8.68192">
        <ele>543</ele>
        <time>2021-08-05T10:15:43.464Z</time>
      </trkpt>
      <trkpt lat="46.98991" lon="8.68194">
        <ele>543</ele>
        <time>2021-08-05T10:15:44.465Z</time>
      </trkpt>
      <trkpt lat="46.98991" lon="8.68196">
        <ele>542</ele>
        <time>2021-08-05T10:15:45.464Z</time>
      </trkpt>
      <trkpt lat="46.98991" lon="8.68197">
        <ele>542</ele>
        <time>2021-08-05T10:15:46.464Z</time>
      </trkpt>
      <trkpt lat="46.9899" lon="8.68199">
        <ele>542</ele>
        <time>2021-08-05T10:15:47.465Z</time>
      </trkpt>
      <trkpt lat="46.9899" lon="8.682">
        <ele>542</ele>
        <time>2021-08-05T10:15:48.465Z</time>
      </trkpt>
      <trkpt lat="46.9899" lon="8.68201">
        <ele>542</ele>
        <time>2021-08-05T10:15:49.464Z</time>
      </trkpt>
      <trkpt lat="46.9899" lon="8.68203">
        <ele>542</ele>
        <time>2021-08-05T10:15:50.465Z</time>
      </trkpt>
      <trkpt lat="46.9899" lon="8.68205">
        <ele>542</ele>
        <time>2021-08-05T10:15:51.465Z</time>
      </trkpt>
      <trkpt lat="46.9899" lon="8.68207">
        <ele>542</ele>
        <time>2021-08-05T10:15:52.465Z</time>
      </trkpt>
      <trkpt lat="46.9899" lon="8.68208">
        <ele>542</ele>
        <time>2021-08-05T10:15:53.465Z</time>
      </trkpt>
      <trkpt lat="46.9899" lon="8.68209">
        <ele>543</ele>
        <time>2021-08-05T10:15:54.465Z</time>
      </trkpt>
      <trkpt lat="46.98991" lon="8.6821">
        <ele>543</ele>
        <time>2021-08-05T10:15:55.464Z</time>
      </trkpt>
      <trkpt lat="46.98991" lon="8.68212">
        <ele>544</ele>
        <time>2021-08-05T10:15:56.464Z</time>
      </trkpt>
      <trkpt lat="46.98991" lon="8.68213">
        <ele>544</ele>
        <time>2021-08-05T10:15:57.464Z</time>
      </trkpt>
      <trkpt lat="46.98991" lon="8.68215">
        <ele>545</ele>
        <time>2021-08-05T10:15:58.465Z</time>
      </trkpt>
      <trkpt lat="46.98991" lon="8.68216">
        <ele>545</ele>
        <time>2021-08-05T10:15:59.465Z</time>
      </trkpt>
      <trkpt lat="46.98991" lon="8.68218">
        <ele>545</ele>
        <time>2021-08-05T10:16:00.465Z</time>
      </trkpt>
      <trkpt lat="46.98992" lon="8.6822">
        <ele>545</ele>
        <time>2021-08-05T10:16:01.464Z</time>
      </trkpt>
      <trkpt lat="46.98992" lon="8.68222">
        <ele>545</ele>
        <time>2021-08-05T10:16:02.465Z</time>
      </trkpt>
      <trkpt lat="46.98992" lon="8.68224">
        <ele>546</ele>
        <time>2021-08-05T10:16:03.465Z</time>
      </trkpt>
      <trkpt lat="46.98992" lon="8.68226">
        <ele>546</ele>
        <time>2021-08-05T10:16:04.464Z</time>
      </trkpt>
      <trkpt lat="46.98992" lon="8.68228">
        <ele>546</ele>
        <time>2021-08-05T10:16:05.464Z</time>
      </trkpt>
      <trkpt lat="46.98993" lon="8.6823">
        <ele>546</ele>
        <time>2021-08-05T10:16:06.465Z</time>
      </trkpt>
      <trkpt lat="46.98993" lon="8.68232">
        <ele>546</ele>
        <time>2021-08-05T10:16:07.465Z</time>
      </trkpt>
      <trkpt lat="46.98992" lon="8.68234">
        <ele>546</ele>
        <time>2021-08-05T10:16:08.465Z</time>
      </trkpt>
      <trkpt lat="46.98993" lon="8.68236">
        <ele>546</ele>
        <time>2021-08-05T10:16:09.464Z</time>
      </trkpt>
      <trkpt lat="46.98993" lon="8.68238">
        <ele>546</ele>
        <time>2021-08-05T10:16:10.464Z</time>
      </trkpt>
      <trkpt lat="46.98994" lon="8.6824">
        <ele>546</ele>
        <time>2021-08-05T10:16:11.464Z</time>
      </trkpt>
      <trkpt lat="46.98994" lon="8.68242">
        <ele>546</ele>
        <time>2021-08-05T10:16:12.464Z</time>
      </trkpt>
      <trkpt lat="46.98994" lon="8.68244">
        <ele>546</ele>
        <time>2021-08-05T10:16:13.465Z</time>
      </trkpt>
      <trkpt lat="46.98995" lon="8.68245">
        <ele>547</ele>
        <time>2021-08-05T10:16:14.465Z</time>
      </trkpt>
      <trkpt lat="46.98995" lon="8.68247">
        <ele>547</ele>
        <time>2021-08-05T10:16:15.464Z</time>
      </trkpt>
      <trkpt lat="46.98995" lon="8.68249">
        <ele>547</ele>
        <time>2021-08-05T10:16:16.464Z</time>
      </trkpt>
      <trkpt lat="46.98995" lon="8.68251">
        <ele>547</ele>
        <time>2021-08-05T10:16:17.465Z</time>
      </trkpt>
      <trkpt lat="46.98995" lon="8.68253">
        <ele>547</ele>
        <time>2021-08-05T10:16:18.465Z</time>
      </trkpt>
      <trkpt lat="46.98995" lon="8.68255">
        <ele>547</ele>
        <time>2021-08-05T10:16:19.465Z</time>
      </trkpt>
      <trkpt lat="46.98996" lon="8.68256">
        <ele>547</ele>
        <time>2021-08-05T10:16:20.465Z</time>
      </trkpt>
      <trkpt lat="46.98996" lon="8.68258">
        <ele>547</ele>
        <time>2021-08-05T10:16:21.465Z</time>
      </trkpt>
      <trkpt lat="46.98997" lon="8.6826">
        <ele>548</ele>
        <time>2021-08-05T10:16:22.465Z</time>
      </trkpt>
      <trkpt lat="46.98997" lon="8.68261">
        <ele>548</ele>
        <time>2021-08-05T10:16:23.465Z</time>
      </trkpt>
      <trkpt lat="46.98996" lon="8.68264">
        <ele>548</ele>
        <time>2021-08-05T10:16:24.465Z</time>
      </trkpt>
      <trkpt lat="46.98996" lon="8.68266">
        <ele>548</ele>
        <time>2021-08-05T10:16:25.465Z</time>
      </trkpt>
      <trkpt lat="46.98997" lon="8.68268">
        <ele>548</ele>
        <time>2021-08-05T10:16:26.465Z</time>
      </trkpt>
      <trkpt lat="46.98997" lon="8.6827">
        <ele>548</ele>
        <time>2021-08-05T10:16:27.464Z</time>
      </trkpt>
      <trkpt lat="46.98997" lon="8.68271">
        <ele>548</ele>
        <time>2021-08-05T10:16:28.464Z</time>
      </trkpt>
      <trkpt lat="46.98998" lon="8.68273">
        <ele>548</ele>
        <time>2021-08-05T10:16:29.464Z</time>
      </trkpt>
      <trkpt lat="46.98999" lon="8.68274">
        <ele>548</ele>
        <time>2021-08-05T10:16:30.465Z</time>
      </trkpt>
      <trkpt lat="46.98998" lon="8.68275">
        <ele>548</ele>
        <time>2021-08-05T10:16:31.465Z</time>
      </trkpt>
      <trkpt lat="46.98999" lon="8.68276">
        <ele>548</ele>
        <time>2021-08-05T10:16:32.465Z</time>
      </trkpt>
      <trkpt lat="46.98999" lon="8.68277">
        <ele>547</ele>
        <time>2021-08-05T10:16:33.465Z</time>
      </trkpt>
      <trkpt lat="46.99" lon="8.68279">
        <ele>547</ele>
        <time>2021-08-05T10:16:34.464Z</time>
      </trkpt>
      <trkpt lat="46.99" lon="8.6828">
        <ele>547</ele>
        <time>2021-08-05T10:16:35.465Z</time>
      </trkpt>
      <trkpt lat="46.99" lon="8.68282">
        <ele>547</ele>
        <time>2021-08-05T10:16:36.465Z</time>
      </trkpt>
      <trkpt lat="46.99" lon="8.68284">
        <ele>546</ele>
        <time>2021-08-05T10:16:37.465Z</time>
      </trkpt>
      <trkpt lat="46.99001" lon="8.68286">
        <ele>546</ele>
        <time>2021-08-05T10:16:38.465Z</time>
      </trkpt>
      <trkpt lat="46.99002" lon="8.68287">
        <ele>546</ele>
        <time>2021-08-05T10:16:39.465Z</time>
      </trkpt>
      <trkpt lat="46.99003" lon="8.68289">
        <ele>546</ele>
        <time>2021-08-05T10:16:40.465Z</time>
      </trkpt>
      <trkpt lat="46.99002" lon="8.6829">
        <ele>546</ele>
        <time>2021-08-05T10:16:41.465Z</time>
      </trkpt>
      <trkpt lat="46.99003" lon="8.68292">
        <ele>546</ele>
        <time>2021-08-05T10:16:42.464Z</time>
      </trkpt>
      <trkpt lat="46.99003" lon="8.68294">
        <ele>546</ele>
        <time>2021-08-05T10:16:43.465Z</time>
      </trkpt>
      <trkpt lat="46.99003" lon="8.68296">
        <ele>546</ele>
        <time>2021-08-05T10:16:44.464Z</time>
      </trkpt>
      <trkpt lat="46.99003" lon="8.68297">
        <ele>547</ele>
        <time>2021-08-05T10:16:45.464Z</time>
      </trkpt>
      <trkpt lat="46.99004" lon="8.68298">
        <ele>547</ele>
        <time>2021-08-05T10:16:46.464Z</time>
      </trkpt>
      <trkpt lat="46.99004" lon="8.68299">
        <ele>547</ele>
        <time>2021-08-05T10:16:47.465Z</time>
      </trkpt>
      <trkpt lat="46.99004" lon="8.68301">
        <ele>548</ele>
        <time>2021-08-05T10:16:48.465Z</time>
      </trkpt>
      <trkpt lat="46.99004" lon="8.68303">
        <ele>548</ele>
        <time>2021-08-05T10:16:49.464Z</time>
      </trkpt>
      <trkpt lat="46.99003" lon="8.68305">
        <ele>549</ele>
        <time>2021-08-05T10:16:50.465Z</time>
      </trkpt>
      <trkpt lat="46.99004" lon="8.68307">
        <ele>549</ele>
        <time>2021-08-05T10:16:51.465Z</time>
      </trkpt>
      <trkpt lat="46.99004" lon="8.68308">
        <ele>550</ele>
        <time>2021-08-05T10:16:52.465Z</time>
      </trkpt>
      <trkpt lat="46.99004" lon="8.6831">
        <ele>550</ele>
        <time>2021-08-05T10:16:53.465Z</time>
      </trkpt>
      <trkpt lat="46.99004" lon="8.68312">
        <ele>550</ele>
        <time>2021-08-05T10:16:54.464Z</time>
      </trkpt>
      <trkpt lat="46.99004" lon="8.68313">
        <ele>550</ele>
        <time>2021-08-05T10:16:55.465Z</time>
      </trkpt>
      <trkpt lat="46.99003" lon="8.68314">
        <ele>550</ele>
        <time>2021-08-05T10:16:56.465Z</time>
      </trkpt>
      <trkpt lat="46.99004" lon="8.68316">
        <ele>550</ele>
        <time>2021-08-05T10:16:57.465Z</time>
      </trkpt>
      <trkpt lat="46.99004" lon="8.68317">
        <ele>549</ele>
        <time>2021-08-05T10:16:58.465Z</time>
      </trkpt>
      <trkpt lat="46.99004" lon="8.6832">
        <ele>549</ele>
        <time>2021-08-05T10:16:59.465Z</time>
      </trkpt>
      <trkpt lat="46.99004" lon="8.68321">
        <ele>549</ele>
        <time>2021-08-05T10:17:00.465Z</time>
      </trkpt>
      <trkpt lat="46.99005" lon="8.68324">
        <ele>549</ele>
        <time>2021-08-05T10:17:01.464Z</time>
      </trkpt>
      <trkpt lat="46.99005" lon="8.68325">
        <ele>549</ele>
        <time>2021-08-05T10:17:02.465Z</time>
      </trkpt>
      <trkpt lat="46.99006" lon="8.68326">
        <ele>549</ele>
        <time>2021-08-05T10:17:03.464Z</time>
      </trkpt>
      <trkpt lat="46.99006" lon="8.68328">
        <ele>548</ele>
        <time>2021-08-05T10:17:04.465Z</time>
      </trkpt>
      <trkpt lat="46.99007" lon="8.6833">
        <ele>548</ele>
        <time>2021-08-05T10:17:05.464Z</time>
      </trkpt>
      <trkpt lat="46.99007" lon="8.68332">
        <ele>548</ele>
        <time>2021-08-05T10:17:06.465Z</time>
      </trkpt>
      <trkpt lat="46.99007" lon="8.68333">
        <ele>547</ele>
        <time>2021-08-05T10:17:07.465Z</time>
      </trkpt>
      <trkpt lat="46.99007" lon="8.68335">
        <ele>547</ele>
        <time>2021-08-05T10:17:08.464Z</time>
      </trkpt>
      <trkpt lat="46.99008" lon="8.68336">
        <ele>548</ele>
        <time>2021-08-05T10:17:09.465Z</time>
      </trkpt>
      <trkpt lat="46.99008" lon="8.68338">
        <ele>548</ele>
        <time>2021-08-05T10:17:10.465Z</time>
      </trkpt>
      <trkpt lat="46.99008" lon="8.68339">
        <ele>549</ele>
        <time>2021-08-05T10:17:11.464Z</time>
      </trkpt>
      <trkpt lat="46.99008" lon="8.68341">
        <ele>549</ele>
        <time>2021-08-05T10:17:12.465Z</time>
      </trkpt>
      <trkpt lat="46.99009" lon="8.68343">
        <ele>550</ele>
        <time>2021-08-05T10:17:13.465Z</time>
      </trkpt>
      <trkpt lat="46.99009" lon="8.68344">
        <ele>550</ele>
        <time>2021-08-05T10:17:14.465Z</time>
      </trkpt>
      <trkpt lat="46.99009" lon="8.68346">
        <ele>550</ele>
        <time>2021-08-05T10:17:15.465Z</time>
      </trkpt>
      <trkpt lat="46.99009" lon="8.68348">
        <ele>551</ele>
        <time>2021-08-05T10:17:16.465Z</time>
      </trkpt>
      <trkpt lat="46.99009" lon="8.68349">
        <ele>551</ele>
        <time>2021-08-05T10:17:17.465Z</time>
      </trkpt>
      <trkpt lat="46.99009" lon="8.6835">
        <ele>551</ele>
        <time>2021-08-05T10:17:18.465Z</time>
      </trkpt>
      <trkpt lat="46.99009" lon="8.68352">
        <ele>552</ele>
        <time>2021-08-05T10:17:19.465Z</time>
      </trkpt>
      <trkpt lat="46.99009" lon="8.68353">
        <ele>552</ele>
        <time>2021-08-05T10:17:20.465Z</time>
      </trkpt>
      <trkpt lat="46.99009" lon="8.68355">
        <ele>553</ele>
        <time>2021-08-05T10:17:21.464Z</time>
      </trkpt>
      <trkpt lat="46.99009" lon="8.68357">
        <ele>553</ele>
        <time>2021-08-05T10:17:22.465Z</time>
      </trkpt>
      <trkpt lat="46.99009" lon="8.68358">
        <ele>553</ele>
        <time>2021-08-05T10:17:23.465Z</time>
      </trkpt>
      <trkpt lat="46.99009" lon="8.6836">
        <ele>553</ele>
        <time>2021-08-05T10:17:24.465Z</time>
      </trkpt>
      <trkpt lat="46.99009" lon="8.68361">
        <ele>554</ele>
        <time>2021-08-05T10:17:25.465Z</time>
      </trkpt>
      <trkpt lat="46.9901" lon="8.68363">
        <ele>554</ele>
        <time>2021-08-05T10:17:26.465Z</time>
      </trkpt>
      <trkpt lat="46.9901" lon="8.68364">
        <ele>554</ele>
        <time>2021-08-05T10:17:27.464Z</time>
      </trkpt>
      <trkpt lat="46.99011" lon="8.68366">
        <ele>553</ele>
        <time>2021-08-05T10:17:28.465Z</time>
      </trkpt>
      <trkpt lat="46.99011" lon="8.68368">
        <ele>553</ele>
        <time>2021-08-05T10:17:29.464Z</time>
      </trkpt>
      <trkpt lat="46.99011" lon="8.68369">
        <ele>553</ele>
        <time>2021-08-05T10:17:30.464Z</time>
      </trkpt>
      <trkpt lat="46.99011" lon="8.68372">
        <ele>553</ele>
        <time>2021-08-05T10:17:31.465Z</time>
      </trkpt>
      <trkpt lat="46.99012" lon="8.68374">
        <ele>552</ele>
        <time>2021-08-05T10:17:32.464Z</time>
      </trkpt>
      <trkpt lat="46.99013" lon="8.68376">
        <ele>552</ele>
        <time>2021-08-05T10:17:33.465Z</time>
      </trkpt>
      <trkpt lat="46.99013" lon="8.68378">
        <ele>552</ele>
        <time>2021-08-05T10:17:34.464Z</time>
      </trkpt>
      <trkpt lat="46.99013" lon="8.6838">
        <ele>552</ele>
        <time>2021-08-05T10:17:35.464Z</time>
      </trkpt>
      <trkpt lat="46.99013" lon="8.68381">
        <ele>552</ele>
        <time>2021-08-05T10:17:36.465Z</time>
      </trkpt>
      <trkpt lat="46.99013" lon="8.68382">
        <ele>552</ele>
        <time>2021-08-05T10:17:37.465Z</time>
      </trkpt>
      <trkpt lat="46.99013" lon="8.68384">
        <ele>553</ele>
        <time>2021-08-05T10:17:38.465Z</time>
      </trkpt>
      <trkpt lat="46.99012" lon="8.68386">
        <ele>553</ele>
        <time>2021-08-05T10:17:39.464Z</time>
      </trkpt>
      <trkpt lat="46.99012" lon="8.68387">
        <ele>553</ele>
        <time>2021-08-05T10:17:40.465Z</time>
      </trkpt>
      <trkpt lat="46.99012" lon="8.68388">
        <ele>553</ele>
        <time>2021-08-05T10:17:41.464Z</time>
      </trkpt>
      <trkpt lat="46.99012" lon="8.6839">
        <ele>553</ele>
        <time>2021-08-05T10:17:42.464Z</time>
      </trkpt>
      <trkpt lat="46.99013" lon="8.68392">
        <ele>553</ele>
        <time>2021-08-05T10:17:43.465Z</time>
      </trkpt>
      <trkpt lat="46.99013" lon="8.68394">
        <ele>553</ele>
        <time>2021-08-05T10:17:44.464Z</time>
      </trkpt>
      <trkpt lat="46.99013" lon="8.68395">
        <ele>553</ele>
        <time>2021-08-05T10:17:45.465Z</time>
      </trkpt>
      <trkpt lat="46.99013" lon="8.68397">
        <ele>553</ele>
        <time>2021-08-05T10:17:46.465Z</time>
      </trkpt>
      <trkpt lat="46.99013" lon="8.68399">
        <ele>552</ele>
        <time>2021-08-05T10:17:47.465Z</time>
      </trkpt>
      <trkpt lat="46.99012" lon="8.68401">
        <ele>552</ele>
        <time>2021-08-05T10:17:48.465Z</time>
      </trkpt>
      <trkpt lat="46.99012" lon="8.68402">
        <ele>551</ele>
        <time>2021-08-05T10:17:49.465Z</time>
      </trkpt>
      <trkpt lat="46.99011" lon="8.68404">
        <ele>551</ele>
        <time>2021-08-05T10:17:50.465Z</time>
      </trkpt>
      <trkpt lat="46.99011" lon="8.68405">
        <ele>551</ele>
        <time>2021-08-05T10:17:51.465Z</time>
      </trkpt>
      <trkpt lat="46.99012" lon="8.68408">
        <ele>551</ele>
        <time>2021-08-05T10:17:52.465Z</time>
      </trkpt>
      <trkpt lat="46.99012" lon="8.6841">
        <ele>551</ele>
        <time>2021-08-05T10:17:53.464Z</time>
      </trkpt>
      <trkpt lat="46.99012" lon="8.68412">
        <ele>550</ele>
        <time>2021-08-05T10:17:54.465Z</time>
      </trkpt>
      <trkpt lat="46.99011" lon="8.68413">
        <ele>550</ele>
        <time>2021-08-05T10:17:55.465Z</time>
      </trkpt>
      <trkpt lat="46.9901" lon="8.68415">
        <ele>550</ele>
        <time>2021-08-05T10:17:56.465Z</time>
      </trkpt>
      <trkpt lat="46.99009" lon="8.68417">
        <ele>550</ele>
        <time>2021-08-05T10:17:57.465Z</time>
      </trkpt>
      <trkpt lat="46.99009" lon="8.68418">
        <ele>549</ele>
        <time>2021-08-05T10:17:58.465Z</time>
      </trkpt>
      <trkpt lat="46.99008" lon="8.6842">
        <ele>549</ele>
        <time>2021-08-05T10:17:59.464Z</time>
      </trkpt>
      <trkpt lat="46.99008" lon="8.68421">
        <ele>549</ele>
        <time>2021-08-05T10:18:00.465Z</time>
      </trkpt>
      <trkpt lat="46.99007" lon="8.68423">
        <ele>549</ele>
        <time>2021-08-05T10:18:01.465Z</time>
      </trkpt>
      <trkpt lat="46.99007" lon="8.68424">
        <ele>549</ele>
        <time>2021-08-05T10:18:02.465Z</time>
      </trkpt>
      <trkpt lat="46.99006" lon="8.68426">
        <ele>549</ele>
        <time>2021-08-05T10:18:03.465Z</time>
      </trkpt>
      <trkpt lat="46.99006" lon="8.68427">
        <ele>548</ele>
        <time>2021-08-05T10:18:04.465Z</time>
      </trkpt>
      <trkpt lat="46.99005" lon="8.68429">
        <ele>547</ele>
        <time>2021-08-05T10:18:05.465Z</time>
      </trkpt>
      <trkpt lat="46.99005" lon="8.68431">
        <ele>546</ele>
        <time>2021-08-05T10:18:06.465Z</time>
      </trkpt>
      <trkpt lat="46.99005" lon="8.68433">
        <ele>546</ele>
        <time>2021-08-05T10:18:07.465Z</time>
      </trkpt>
      <trkpt lat="46.99004" lon="8.68435">
        <ele>545</ele>
        <time>2021-08-05T10:18:08.465Z</time>
      </trkpt>
      <trkpt lat="46.99003" lon="8.68436">
        <ele>544</ele>
        <time>2021-08-05T10:18:09.464Z</time>
      </trkpt>
      <trkpt lat="46.99002" lon="8.68438">
        <ele>544</ele>
        <time>2021-08-05T10:18:10.465Z</time>
      </trkpt>
      <trkpt lat="46.99001" lon="8.68439">
        <ele>544</ele>
        <time>2021-08-05T10:18:11.465Z</time>
      </trkpt>
      <trkpt lat="46.99001" lon="8.68441">
        <ele>544</ele>
        <time>2021-08-05T10:18:12.465Z</time>
      </trkpt>
      <trkpt lat="46.99" lon="8.68443">
        <ele>544</ele>
        <time>2021-08-05T10:18:13.465Z</time>
      </trkpt>
      <trkpt lat="46.99001" lon="8.68444">
        <ele>544</ele>
        <time>2021-08-05T10:18:14.465Z</time>
      </trkpt>
      <trkpt lat="46.99001" lon="8.68447">
        <ele>544</ele>
        <time>2021-08-05T10:18:15.465Z</time>
      </trkpt>
      <trkpt lat="46.99001" lon="8.68448">
        <ele>544</ele>
        <time>2021-08-05T10:18:16.464Z</time>
      </trkpt>
      <trkpt lat="46.99" lon="8.6845">
        <ele>544</ele>
        <time>2021-08-05T10:18:17.465Z</time>
      </trkpt>
      <trkpt lat="46.99" lon="8.6845">
        <ele>545</ele>
        <time>2021-08-05T10:18:18.465Z</time>
      </trkpt>
      <trkpt lat="46.98999" lon="8.68451">
        <ele>545</ele>
        <time>2021-08-05T10:18:19.464Z</time>
      </trkpt>
      <trkpt lat="46.98998" lon="8.68453">
        <ele>545</ele>
        <time>2021-08-05T10:18:20.464Z</time>
      </trkpt>
      <trkpt lat="46.98998" lon="8.68454">
        <ele>545</ele>
        <time>2021-08-05T10:18:21.465Z</time>
      </trkpt>
      <trkpt lat="46.98997" lon="8.68455">
        <ele>546</ele>
        <time>2021-08-05T10:18:22.464Z</time>
      </trkpt>
      <trkpt lat="46.98997" lon="8.68456">
        <ele>546</ele>
        <time>2021-08-05T10:18:23.465Z</time>
      </trkpt>
      <trkpt lat="46.98996" lon="8.68457">
        <ele>547</ele>
        <time>2021-08-05T10:18:24.464Z</time>
      </trkpt>
      <trkpt lat="46.98996" lon="8.68459">
        <ele>547</ele>
        <time>2021-08-05T10:18:25.465Z</time>
      </trkpt>
      <trkpt lat="46.98995" lon="8.6846">
        <ele>548</ele>
        <time>2021-08-05T10:18:26.465Z</time>
      </trkpt>
      <trkpt lat="46.98994" lon="8.68462">
        <ele>548</ele>
        <time>2021-08-05T10:18:27.465Z</time>
      </trkpt>
      <trkpt lat="46.98994" lon="8.68464">
        <ele>549</ele>
        <time>2021-08-05T10:18:28.464Z</time>
      </trkpt>
      <trkpt lat="46.98994" lon="8.68466">
        <ele>549</ele>
        <time>2021-08-05T10:18:29.465Z</time>
      </trkpt>
      <trkpt lat="46.98994" lon="8.68467">
        <ele>549</ele>
        <time>2021-08-05T10:18:30.464Z</time>
      </trkpt>
      <trkpt lat="46.98994" lon="8.68469">
        <ele>549</ele>
        <time>2021-08-05T10:18:31.464Z</time>
      </trkpt>
      <trkpt lat="46.98993" lon="8.6847">
        <ele>549</ele>
        <time>2021-08-05T10:18:32.465Z</time>
      </trkpt>
      <trkpt lat="46.98993" lon="8.68472">
        <ele>548</ele>
        <time>2021-08-05T10:18:33.465Z</time>
      </trkpt>
      <trkpt lat="46.98992" lon="8.68473">
        <ele>548</ele>
        <time>2021-08-05T10:18:34.464Z</time>
      </trkpt>
      <trkpt lat="46.98991" lon="8.68474">
        <ele>548</ele>
        <time>2021-08-05T10:18:35.464Z</time>
      </trkpt>
      <trkpt lat="46.9899" lon="8.68475">
        <ele>548</ele>
        <time>2021-08-05T10:18:36.465Z</time>
      </trkpt>
      <trkpt lat="46.9899" lon="8.68476">
        <ele>548</ele>
        <time>2021-08-05T10:18:37.465Z</time>
      </trkpt>
      <trkpt lat="46.98989" lon="8.68478">
        <ele>548</ele>
        <time>2021-08-05T10:18:38.465Z</time>
      </trkpt>
      <trkpt lat="46.98989" lon="8.68479">
        <ele>548</ele>
        <time>2021-08-05T10:18:39.465Z</time>
      </trkpt>
      <trkpt lat="46.98988" lon="8.68481">
        <ele>548</ele>
        <time>2021-08-05T10:18:40.464Z</time>
      </trkpt>
      <trkpt lat="46.98988" lon="8.68482">
        <ele>549</ele>
        <time>2021-08-05T10:18:41.465Z</time>
      </trkpt>
      <trkpt lat="46.98987" lon="8.68483">
        <ele>549</ele>
        <time>2021-08-05T10:18:42.465Z</time>
      </trkpt>
      <trkpt lat="46.98986" lon="8.68485">
        <ele>549</ele>
        <time>2021-08-05T10:18:43.465Z</time>
      </trkpt>
      <trkpt lat="46.98985" lon="8.68486">
        <ele>550</ele>
        <time>2021-08-05T10:18:44.465Z</time>
      </trkpt>
      <trkpt lat="46.98984" lon="8.68487">
        <ele>550</ele>
        <time>2021-08-05T10:18:45.465Z</time>
      </trkpt>
      <trkpt lat="46.98984" lon="8.68489">
        <ele>551</ele>
        <time>2021-08-05T10:18:46.464Z</time>
      </trkpt>
      <trkpt lat="46.98983" lon="8.68491">
        <ele>551</ele>
        <time>2021-08-05T10:18:47.465Z</time>
      </trkpt>
      <trkpt lat="46.98983" lon="8.68492">
        <ele>552</ele>
        <time>2021-08-05T10:18:48.465Z</time>
      </trkpt>
      <trkpt lat="46.98983" lon="8.68494">
        <ele>552</ele>
        <time>2021-08-05T10:18:49.464Z</time>
      </trkpt>
      <trkpt lat="46.98982" lon="8.68496">
        <ele>553</ele>
        <time>2021-08-05T10:18:50.465Z</time>
      </trkpt>
      <trkpt lat="46.98982" lon="8.68497">
        <ele>553</ele>
        <time>2021-08-05T10:18:51.464Z</time>
      </trkpt>
      <trkpt lat="46.98982" lon="8.68499">
        <ele>554</ele>
        <time>2021-08-05T10:18:52.465Z</time>
      </trkpt>
      <trkpt lat="46.98982" lon="8.68501">
        <ele>555</ele>
        <time>2021-08-05T10:18:53.464Z</time>
      </trkpt>
      <trkpt lat="46.98981" lon="8.68502">
        <ele>555</ele>
        <time>2021-08-05T10:18:54.465Z</time>
      </trkpt>
      <trkpt lat="46.98981" lon="8.68504">
        <ele>556</ele>
        <time>2021-08-05T10:18:55.465Z</time>
      </trkpt>
      <trkpt lat="46.9898" lon="8.68505">
        <ele>556</ele>
        <time>2021-08-05T10:18:56.464Z</time>
      </trkpt>
      <trkpt lat="46.9898" lon="8.68507">
        <ele>556</ele>
        <time>2021-08-05T10:18:57.464Z</time>
      </trkpt>
      <trkpt lat="46.9898" lon="8.68509">
        <ele>556</ele>
        <time>2021-08-05T10:18:58.465Z</time>
      </trkpt>
      <trkpt lat="46.9898" lon="8.68511">
        <ele>556</ele>
        <time>2021-08-05T10:18:59.465Z</time>
      </trkpt>
      <trkpt lat="46.98979" lon="8.68513">
        <ele>556</ele>
        <time>2021-08-05T10:19:00.465Z</time>
      </trkpt>
      <trkpt lat="46.98978" lon="8.68514">
        <ele>556</ele>
        <time>2021-08-05T10:19:01.465Z</time>
      </trkpt>
      <trkpt lat="46.98978" lon="8.68517">
        <ele>557</ele>
        <time>2021-08-05T10:19:02.465Z</time>
      </trkpt>
      <trkpt lat="46.98978" lon="8.68518">
        <ele>556</ele>
        <time>2021-08-05T10:19:03.465Z</time>
      </trkpt>
      <trkpt lat="46.98978" lon="8.6852">
        <ele>556</ele>
        <time>2021-08-05T10:19:04.465Z</time>
      </trkpt>
      <trkpt lat="46.98978" lon="8.68522">
        <ele>556</ele>
        <time>2021-08-05T10:19:05.465Z</time>
      </trkpt>
      <trkpt lat="46.98979" lon="8.68524">
        <ele>556</ele>
        <time>2021-08-05T10:19:06.464Z</time>
      </trkpt>
      <trkpt lat="46.98979" lon="8.68527">
        <ele>556</ele>
        <time>2021-08-05T10:19:07.465Z</time>
      </trkpt>
      <trkpt lat="46.98979" lon="8.68529">
        <ele>555</ele>
        <time>2021-08-05T10:19:08.464Z</time>
      </trkpt>
      <trkpt lat="46.98979" lon="8.68532">
        <ele>555</ele>
        <time>2021-08-05T10:19:09.465Z</time>
      </trkpt>
      <trkpt lat="46.98979" lon="8.68535">
        <ele>555</ele>
        <time>2021-08-05T10:19:10.465Z</time>
      </trkpt>
      <trkpt lat="46.98979" lon="8.68537">
        <ele>555</ele>
        <time>2021-08-05T10:19:11.465Z</time>
      </trkpt>
      <trkpt lat="46.98979" lon="8.68539">
        <ele>556</ele>
        <time>2021-08-05T10:19:12.464Z</time>
      </trkpt>
      <trkpt lat="46.9898" lon="8.68541">
        <ele>556</ele>
        <time>2021-08-05T10:19:13.464Z</time>
      </trkpt>
      <trkpt lat="46.98979" lon="8.68543">
        <ele>556</ele>
        <time>2021-08-05T10:19:14.465Z</time>
      </trkpt>
      <trkpt lat="46.9898" lon="8.68546">
        <ele>556</ele>
        <time>2021-08-05T10:19:15.465Z</time>
      </trkpt>
      <trkpt lat="46.9898" lon="8.68548">
        <ele>556</ele>
        <time>2021-08-05T10:19:16.465Z</time>
      </trkpt>
      <trkpt lat="46.98981" lon="8.6855">
        <ele>557</ele>
        <time>2021-08-05T10:19:17.465Z</time>
      </trkpt>
      <trkpt lat="46.98981" lon="8.68551">
        <ele>556</ele>
        <time>2021-08-05T10:19:18.465Z</time>
      </trkpt>
      <trkpt lat="46.98981" lon="8.68554">
        <ele>556</ele>
        <time>2021-08-05T10:19:19.465Z</time>
      </trkpt>
      <trkpt lat="46.98981" lon="8.68556">
        <ele>556</ele>
        <time>2021-08-05T10:19:20.465Z</time>
      </trkpt>
      <trkpt lat="46.98981" lon="8.68557">
        <ele>556</ele>
        <time>2021-08-05T10:19:21.464Z</time>
      </trkpt>
      <trkpt lat="46.98982" lon="8.68559">
        <ele>556</ele>
        <time>2021-08-05T10:19:22.465Z</time>
      </trkpt>
      <trkpt lat="46.98982" lon="8.6856">
        <ele>556</ele>
        <time>2021-08-05T10:19:23.465Z</time>
      </trkpt>
      <trkpt lat="46.98983" lon="8.68562">
        <ele>556</ele>
        <time>2021-08-05T10:19:24.464Z</time>
      </trkpt>
      <trkpt lat="46.98983" lon="8.68564">
        <ele>556</ele>
        <time>2021-08-05T10:19:25.465Z</time>
      </trkpt>
      <trkpt lat="46.98983" lon="8.68566">
        <ele>556</ele>
        <time>2021-08-05T10:19:26.465Z</time>
      </trkpt>
      <trkpt lat="46.98984" lon="8.68567">
        <ele>556</ele>
        <time>2021-08-05T10:19:27.465Z</time>
      </trkpt>
      <trkpt lat="46.98984" lon="8.68569">
        <ele>557</ele>
        <time>2021-08-05T10:19:28.465Z</time>
      </trkpt>
      <trkpt lat="46.98985" lon="8.68572">
        <ele>557</ele>
        <time>2021-08-05T10:19:29.465Z</time>
      </trkpt>
      <trkpt lat="46.98985" lon="8.68574">
        <ele>557</ele>
        <time>2021-08-05T10:19:30.465Z</time>
      </trkpt>
      <trkpt lat="46.98985" lon="8.68576">
        <ele>557</ele>
        <time>2021-08-05T10:19:31.464Z</time>
      </trkpt>
      <trkpt lat="46.98986" lon="8.68579">
        <ele>557</ele>
        <time>2021-08-05T10:19:32.465Z</time>
      </trkpt>
      <trkpt lat="46.98987" lon="8.68581">
        <ele>557</ele>
        <time>2021-08-05T10:19:33.464Z</time>
      </trkpt>
      <trkpt lat="46.98988" lon="8.68583">
        <ele>557</ele>
        <time>2021-08-05T10:19:34.465Z</time>
      </trkpt>
      <trkpt lat="46.98989" lon="8.68585">
        <ele>558</ele>
        <time>2021-08-05T10:19:35.465Z</time>
      </trkpt>
      <trkpt lat="46.9899" lon="8.68587">
        <ele>558</ele>
        <time>2021-08-05T10:19:36.464Z</time>
      </trkpt>
      <trkpt lat="46.9899" lon="8.68589">
        <ele>558</ele>
        <time>2021-08-05T10:19:37.464Z</time>
      </trkpt>
      <trkpt lat="46.98991" lon="8.68591">
        <ele>557</ele>
        <time>2021-08-05T10:19:38.464Z</time>
      </trkpt>
      <trkpt lat="46.98993" lon="8.68592">
        <ele>557</ele>
        <time>2021-08-05T10:19:39.465Z</time>
      </trkpt>
      <trkpt lat="46.98993" lon="8.68593">
        <ele>557</ele>
        <time>2021-08-05T10:19:40.465Z</time>
      </trkpt>
      <trkpt lat="46.98994" lon="8.68596">
        <ele>556</ele>
        <time>2021-08-05T10:19:41.464Z</time>
      </trkpt>
      <trkpt lat="46.98994" lon="8.68598">
        <ele>556</ele>
        <time>2021-08-05T10:19:42.465Z</time>
      </trkpt>
      <trkpt lat="46.98995" lon="8.686">
        <ele>556</ele>
        <time>2021-08-05T10:19:43.465Z</time>
      </trkpt>
      <trkpt lat="46.98996" lon="8.68601">
        <ele>556</ele>
        <time>2021-08-05T10:19:44.465Z</time>
      </trkpt>
      <trkpt lat="46.98997" lon="8.68602">
        <ele>556</ele>
        <time>2021-08-05T10:19:45.464Z</time>
      </trkpt>
      <trkpt lat="46.98998" lon="8.68603">
        <ele>556</ele>
        <time>2021-08-05T10:19:46.465Z</time>
      </trkpt>
      <trkpt lat="46.98999" lon="8.68604">
        <ele>556</ele>
        <time>2021-08-05T10:19:47.465Z</time>
      </trkpt>
      <trkpt lat="46.99" lon="8.68603">
        <ele>556</ele>
        <time>2021-08-05T10:19:48.465Z</time>
      </trkpt>
      <trkpt lat="46.99001" lon="8.68603">
        <ele>556</ele>
        <time>2021-08-05T10:19:49.465Z</time>
      </trkpt>
      <trkpt lat="46.99002" lon="8.68603">
        <ele>556</ele>
        <time>2021-08-05T10:19:50.464Z</time>
      </trkpt>
      <trkpt lat="46.99002" lon="8.68603">
        <ele>555</ele>
        <time>2021-08-05T10:19:51.465Z</time>
      </trkpt>
      <trkpt lat="46.99001" lon="8.68604">
        <ele>555</ele>
        <time>2021-08-05T10:19:52.465Z</time>
      </trkpt>
      <trkpt lat="46.99" lon="8.68607">
        <ele>554</ele>
        <time>2021-08-05T10:19:53.466Z</time>
      </trkpt>
      <trkpt lat="46.99" lon="8.68607">
        <ele>554</ele>
        <time>2021-08-05T10:19:54.465Z</time>
      </trkpt>
      <trkpt lat="46.99001" lon="8.68606">
        <ele>554</ele>
        <time>2021-08-05T10:19:55.466Z</time>
      </trkpt>
      <trkpt lat="46.99002" lon="8.68607">
        <ele>554</ele>
        <time>2021-08-05T10:19:56.465Z</time>
      </trkpt>
      <trkpt lat="46.99003" lon="8.68606">
        <ele>554</ele>
        <time>2021-08-05T10:19:57.466Z</time>
      </trkpt>
      <trkpt lat="46.99003" lon="8.68607">
        <ele>554</ele>
        <time>2021-08-05T10:19:58.466Z</time>
      </trkpt>
      <trkpt lat="46.99003" lon="8.68611">
        <ele>557</ele>
        <time>2021-08-05T10:19:59.467Z</time>
      </trkpt>
      <trkpt lat="46.99003" lon="8.68611">
        <ele>557</ele>
        <time>2021-08-05T10:20:00.467Z</time>
      </trkpt>
      <trkpt lat="46.99002" lon="8.68611">
        <ele>558</ele>
        <time>2021-08-05T10:20:01.468Z</time>
      </trkpt>
      <trkpt lat="46.99002" lon="8.6861">
        <ele>558</ele>
        <time>2021-08-05T10:20:02.467Z</time>
      </trkpt>
      <trkpt lat="46.99002" lon="8.68611">
        <ele>558</ele>
        <time>2021-08-05T10:20:03.467Z</time>
      </trkpt>
      <trkpt lat="46.99003" lon="8.68613">
        <ele>558</ele>
        <time>2021-08-05T10:20:04.467Z</time>
      </trkpt>
      <trkpt lat="46.99003" lon="8.68614">
        <ele>558</ele>
        <time>2021-08-05T10:20:05.467Z</time>
      </trkpt>
      <trkpt lat="46.99003" lon="8.68616">
        <ele>558</ele>
        <time>2021-08-05T10:20:06.467Z</time>
      </trkpt>
      <trkpt lat="46.99003" lon="8.68618">
        <ele>558</ele>
        <time>2021-08-05T10:20:07.467Z</time>
      </trkpt>
      <trkpt lat="46.99004" lon="8.6862">
        <ele>559</ele>
        <time>2021-08-05T10:20:08.468Z</time>
      </trkpt>
      <trkpt lat="46.99004" lon="8.68621">
        <ele>559</ele>
        <time>2021-08-05T10:20:09.467Z</time>
      </trkpt>
      <trkpt lat="46.99005" lon="8.68623">
        <ele>560</ele>
        <time>2021-08-05T10:20:10.467Z</time>
      </trkpt>
      <trkpt lat="46.99005" lon="8.68624">
        <ele>560</ele>
        <time>2021-08-05T10:20:11.467Z</time>
      </trkpt>
      <trkpt lat="46.99006" lon="8.68625">
        <ele>561</ele>
        <time>2021-08-05T10:20:12.467Z</time>
      </trkpt>
      <trkpt lat="46.99007" lon="8.68627">
        <ele>562</ele>
        <time>2021-08-05T10:20:13.467Z</time>
      </trkpt>
      <trkpt lat="46.99008" lon="8.68629">
        <ele>563</ele>
        <time>2021-08-05T10:20:14.467Z</time>
      </trkpt>
      <trkpt lat="46.99008" lon="8.68631">
        <ele>564</ele>
        <time>2021-08-05T10:20:15.467Z</time>
      </trkpt>
      <trkpt lat="46.99009" lon="8.68634">
        <ele>565</ele>
        <time>2021-08-05T10:20:16.467Z</time>
      </trkpt>
      <trkpt lat="46.9901" lon="8.68635">
        <ele>566</ele>
        <time>2021-08-05T10:20:17.467Z</time>
      </trkpt>
      <trkpt lat="46.99011" lon="8.68637">
        <ele>566</ele>
        <time>2021-08-05T10:20:18.467Z</time>
      </trkpt>
      <trkpt lat="46.99012" lon="8.68639">
        <ele>567</ele>
        <time>2021-08-05T10:20:19.467Z</time>
      </trkpt>
      <trkpt lat="46.99013" lon="8.6864">
        <ele>568</ele>
        <time>2021-08-05T10:20:20.468Z</time>
      </trkpt>
      <trkpt lat="46.99013" lon="8.68642">
        <ele>569</ele>
        <time>2021-08-05T10:20:21.467Z</time>
      </trkpt>
      <trkpt lat="46.99013" lon="8.68645">
        <ele>570</ele>
        <time>2021-08-05T10:20:22.467Z</time>
      </trkpt>
      <trkpt lat="46.99014" lon="8.68647">
        <ele>570</ele>
        <time>2021-08-05T10:20:23.467Z</time>
      </trkpt>
      <trkpt lat="46.99014" lon="8.68649">
        <ele>571</ele>
        <time>2021-08-05T10:20:24.467Z</time>
      </trkpt>
      <trkpt lat="46.99015" lon="8.6865">
        <ele>572</ele>
        <time>2021-08-05T10:20:25.467Z</time>
      </trkpt>
      <trkpt lat="46.99015" lon="8.68652">
        <ele>573</ele>
        <time>2021-08-05T10:20:26.468Z</time>
      </trkpt>
      <trkpt lat="46.99016" lon="8.68654">
        <ele>574</ele>
        <time>2021-08-05T10:20:27.467Z</time>
      </trkpt>
      <trkpt lat="46.99015" lon="8.68655">
        <ele>575</ele>
        <time>2021-08-05T10:20:28.467Z</time>
      </trkpt>
      <trkpt lat="46.99015" lon="8.68656">
        <ele>575</ele>
        <time>2021-08-05T10:20:29.467Z</time>
      </trkpt>
      <trkpt lat="46.99014" lon="8.68652">
        <ele>576</ele>
        <time>2021-08-05T10:20:30.468Z</time>
      </trkpt>
      <trkpt lat="46.99014" lon="8.68649">
        <ele>576</ele>
        <time>2021-08-05T10:20:31.467Z</time>
      </trkpt>
      <trkpt lat="46.99014" lon="8.68648">
        <ele>576</ele>
        <time>2021-08-05T10:20:32.467Z</time>
      </trkpt>
      <trkpt lat="46.99014" lon="8.68649">
        <ele>576</ele>
        <time>2021-08-05T10:20:33.467Z</time>
      </trkpt>
      <trkpt lat="46.99015" lon="8.6865">
        <ele>576</ele>
        <time>2021-08-05T10:20:34.468Z</time>
      </trkpt>
      <trkpt lat="46.99016" lon="8.68651">
        <ele>575</ele>
        <time>2021-08-05T10:20:35.467Z</time>
      </trkpt>
      <trkpt lat="46.99017" lon="8.68653">
        <ele>574</ele>
        <time>2021-08-05T10:20:36.467Z</time>
      </trkpt>
      <trkpt lat="46.99017" lon="8.68654">
        <ele>574</ele>
        <time>2021-08-05T10:20:37.468Z</time>
      </trkpt>
      <trkpt lat="46.99018" lon="8.68655">
        <ele>573</ele>
        <time>2021-08-05T10:20:38.467Z</time>
      </trkpt>
      <trkpt lat="46.99019" lon="8.68657">
        <ele>573</ele>
        <time>2021-08-05T10:20:39.467Z</time>
      </trkpt>
      <trkpt lat="46.99019" lon="8.68659">
        <ele>573</ele>
        <time>2021-08-05T10:20:40.468Z</time>
      </trkpt>
      <trkpt lat="46.9902" lon="8.68661">
        <ele>572</ele>
        <time>2021-08-05T10:20:41.467Z</time>
      </trkpt>
      <trkpt lat="46.9902" lon="8.68663">
        <ele>572</ele>
        <time>2021-08-05T10:20:42.467Z</time>
      </trkpt>
      <trkpt lat="46.99021" lon="8.68665">
        <ele>571</ele>
        <time>2021-08-05T10:20:43.467Z</time>
      </trkpt>
      <trkpt lat="46.99022" lon="8.68666">
        <ele>571</ele>
        <time>2021-08-05T10:20:44.467Z</time>
      </trkpt>
      <trkpt lat="46.99022" lon="8.68666">
        <ele>571</ele>
        <time>2021-08-05T10:20:45.467Z</time>
      </trkpt>
      <trkpt lat="46.99023" lon="8.68667">
        <ele>570</ele>
        <time>2021-08-05T10:20:46.467Z</time>
      </trkpt>
      <trkpt lat="46.99024" lon="8.68668">
        <ele>570</ele>
        <time>2021-08-05T10:20:47.467Z</time>
      </trkpt>
      <trkpt lat="46.99025" lon="8.68669">
        <ele>569</ele>
        <time>2021-08-05T10:20:48.467Z</time>
      </trkpt>
      <trkpt lat="46.99026" lon="8.68671">
        <ele>569</ele>
        <time>2021-08-05T10:20:49.467Z</time>
      </trkpt>
      <trkpt lat="46.99027" lon="8.68673">
        <ele>568</ele>
        <time>2021-08-05T10:20:50.467Z</time>
      </trkpt>
      <trkpt lat="46.99028" lon="8.68675">
        <ele>568</ele>
        <time>2021-08-05T10:20:51.467Z</time>
      </trkpt>
      <trkpt lat="46.99028" lon="8.68677">
        <ele>568</ele>
        <time>2021-08-05T10:20:52.468Z</time>
      </trkpt>
      <trkpt lat="46.99029" lon="8.6868">
        <ele>568</ele>
        <time>2021-08-05T10:20:53.468Z</time>
      </trkpt>
      <trkpt lat="46.99029" lon="8.68681">
        <ele>568</ele>
        <time>2021-08-05T10:20:54.467Z</time>
      </trkpt>
      <trkpt lat="46.9903" lon="8.68683">
        <ele>568</ele>
        <time>2021-08-05T10:20:55.467Z</time>
      </trkpt>
      <trkpt lat="46.99031" lon="8.68686">
        <ele>568</ele>
        <time>2021-08-05T10:20:56.468Z</time>
      </trkpt>
      <trkpt lat="46.99032" lon="8.68689">
        <ele>567</ele>
        <time>2021-08-05T10:20:57.468Z</time>
      </trkpt>
      <trkpt lat="46.99032" lon="8.68691">
        <ele>567</ele>
        <time>2021-08-05T10:20:58.468Z</time>
      </trkpt>
      <trkpt lat="46.99033" lon="8.68693">
        <ele>567</ele>
        <time>2021-08-05T10:20:59.467Z</time>
      </trkpt>
      <trkpt lat="46.99034" lon="8.68695">
        <ele>567</ele>
        <time>2021-08-05T10:21:00.467Z</time>
      </trkpt>
      <trkpt lat="46.99034" lon="8.68696">
        <ele>566</ele>
        <time>2021-08-05T10:21:01.467Z</time>
      </trkpt>
      <trkpt lat="46.99035" lon="8.68697">
        <ele>566</ele>
        <time>2021-08-05T10:21:02.468Z</time>
      </trkpt>
      <trkpt lat="46.99035" lon="8.68699">
        <ele>566</ele>
        <time>2021-08-05T10:21:03.467Z</time>
      </trkpt>
      <trkpt lat="46.99036" lon="8.68699">
        <ele>566</ele>
        <time>2021-08-05T10:21:04.467Z</time>
      </trkpt>
      <trkpt lat="46.99036" lon="8.68701">
        <ele>566</ele>
        <time>2021-08-05T10:21:05.467Z</time>
      </trkpt>
      <trkpt lat="46.99037" lon="8.68702">
        <ele>566</ele>
        <time>2021-08-05T10:21:06.468Z</time>
      </trkpt>
      <trkpt lat="46.99037" lon="8.68704">
        <ele>566</ele>
        <time>2021-08-05T10:21:07.467Z</time>
      </trkpt>
      <trkpt lat="46.99038" lon="8.68706">
        <ele>566</ele>
        <time>2021-08-05T10:21:08.467Z</time>
      </trkpt>
      <trkpt lat="46.99038" lon="8.68708">
        <ele>565</ele>
        <time>2021-08-05T10:21:09.467Z</time>
      </trkpt>
      <trkpt lat="46.99038" lon="8.68708">
        <ele>565</ele>
        <time>2021-08-05T10:21:10.467Z</time>
      </trkpt>
      <trkpt lat="46.99037" lon="8.68709">
        <ele>565</ele>
        <time>2021-08-05T10:21:11.467Z</time>
      </trkpt>
      <trkpt lat="46.99038" lon="8.68712">
        <ele>565</ele>
        <time>2021-08-05T10:21:12.467Z</time>
      </trkpt>
      <trkpt lat="46.99038" lon="8.68714">
        <ele>565</ele>
        <time>2021-08-05T10:21:13.467Z</time>
      </trkpt>
      <trkpt lat="46.99038" lon="8.68717">
        <ele>565</ele>
        <time>2021-08-05T10:21:14.467Z</time>
      </trkpt>
      <trkpt lat="46.99039" lon="8.6872">
        <ele>566</ele>
        <time>2021-08-05T10:21:15.467Z</time>
      </trkpt>
      <trkpt lat="46.9904" lon="8.68722">
        <ele>566</ele>
        <time>2021-08-05T10:21:16.468Z</time>
      </trkpt>
      <trkpt lat="46.99041" lon="8.68724">
        <ele>566</ele>
        <time>2021-08-05T10:21:17.467Z</time>
      </trkpt>
      <trkpt lat="46.99041" lon="8.68726">
        <ele>566</ele>
        <time>2021-08-05T10:21:18.467Z</time>
      </trkpt>
      <trkpt lat="46.99041" lon="8.68726">
        <ele>566</ele>
        <time>2021-08-05T10:21:19.467Z</time>
      </trkpt>
      <trkpt lat="46.99041" lon="8.68727">
        <ele>567</ele>
        <time>2021-08-05T10:21:20.468Z</time>
      </trkpt>
      <trkpt lat="46.99042" lon="8.68728">
        <ele>567</ele>
        <time>2021-08-05T10:21:21.467Z</time>
      </trkpt>
      <trkpt lat="46.99044" lon="8.6873">
        <ele>567</ele>
        <time>2021-08-05T10:21:22.467Z</time>
      </trkpt>
      <trkpt lat="46.99045" lon="8.6873">
        <ele>567</ele>
        <time>2021-08-05T10:21:23.467Z</time>
      </trkpt>
      <trkpt lat="46.99046" lon="8.68731">
        <ele>567</ele>
        <time>2021-08-05T10:21:24.467Z</time>
      </trkpt>
      <trkpt lat="46.99046" lon="8.68733">
        <ele>567</ele>
        <time>2021-08-05T10:21:25.468Z</time>
      </trkpt>
      <trkpt lat="46.99046" lon="8.68734">
        <ele>566</ele>
        <time>2021-08-05T10:21:26.467Z</time>
      </trkpt>
      <trkpt lat="46.99047" lon="8.68735">
        <ele>566</ele>
        <time>2021-08-05T10:21:27.467Z</time>
      </trkpt>
      <trkpt lat="46.99047" lon="8.68737">
        <ele>566</ele>
        <time>2021-08-05T10:21:28.467Z</time>
      </trkpt>
      <trkpt lat="46.99048" lon="8.68738">
        <ele>566</ele>
        <time>2021-08-05T10:21:29.467Z</time>
      </trkpt>
      <trkpt lat="46.99048" lon="8.68739">
        <ele>566</ele>
        <time>2021-08-05T10:21:30.467Z</time>
      </trkpt>
      <trkpt lat="46.99049" lon="8.6874">
        <ele>566</ele>
        <time>2021-08-05T10:21:31.467Z</time>
      </trkpt>
      <trkpt lat="46.99049" lon="8.68741">
        <ele>566</ele>
        <time>2021-08-05T10:21:32.467Z</time>
      </trkpt>
      <trkpt lat="46.9905" lon="8.68742">
        <ele>565</ele>
        <time>2021-08-05T10:21:33.467Z</time>
      </trkpt>
      <trkpt lat="46.9905" lon="8.68743">
        <ele>565</ele>
        <time>2021-08-05T10:21:34.468Z</time>
      </trkpt>
      <trkpt lat="46.99051" lon="8.68744">
        <ele>565</ele>
        <time>2021-08-05T10:21:35.467Z</time>
      </trkpt>
      <trkpt lat="46.99052" lon="8.68745">
        <ele>565</ele>
        <time>2021-08-05T10:21:36.467Z</time>
      </trkpt>
      <trkpt lat="46.99052" lon="8.68746">
        <ele>565</ele>
        <time>2021-08-05T10:21:37.468Z</time>
      </trkpt>
      <trkpt lat="46.99052" lon="8.68747">
        <ele>565</ele>
        <time>2021-08-05T10:21:38.468Z</time>
      </trkpt>
      <trkpt lat="46.99053" lon="8.68748">
        <ele>565</ele>
        <time>2021-08-05T10:21:39.467Z</time>
      </trkpt>
      <trkpt lat="46.99054" lon="8.68749">
        <ele>564</ele>
        <time>2021-08-05T10:21:40.467Z</time>
      </trkpt>
      <trkpt lat="46.99054" lon="8.6875">
        <ele>564</ele>
        <time>2021-08-05T10:21:41.467Z</time>
      </trkpt>
      <trkpt lat="46.99055" lon="8.6875">
        <ele>564</ele>
        <time>2021-08-05T10:21:42.467Z</time>
      </trkpt>
      <trkpt lat="46.99056" lon="8.68751">
        <ele>564</ele>
        <time>2021-08-05T10:21:43.468Z</time>
      </trkpt>
      <trkpt lat="46.99057" lon="8.68752">
        <ele>564</ele>
        <time>2021-08-05T10:21:44.467Z</time>
      </trkpt>
      <trkpt lat="46.99059" lon="8.68752">
        <ele>563</ele>
        <time>2021-08-05T10:21:45.467Z</time>
      </trkpt>
      <trkpt lat="46.9906" lon="8.68753">
        <ele>563</ele>
        <time>2021-08-05T10:21:46.467Z</time>
      </trkpt>
      <trkpt lat="46.99061" lon="8.68753">
        <ele>563</ele>
        <time>2021-08-05T10:21:47.467Z</time>
      </trkpt>
      <trkpt lat="46.99062" lon="8.68753">
        <ele>563</ele>
        <time>2021-08-05T10:21:48.467Z</time>
      </trkpt>
      <trkpt lat="46.99064" lon="8.68753">
        <ele>563</ele>
        <time>2021-08-05T10:21:49.468Z</time>
      </trkpt>
      <trkpt lat="46.99066" lon="8.68753">
        <ele>563</ele>
        <time>2021-08-05T10:21:50.467Z</time>
      </trkpt>
      <trkpt lat="46.99067" lon="8.68753">
        <ele>563</ele>
        <time>2021-08-05T10:21:51.467Z</time>
      </trkpt>
      <trkpt lat="46.99068" lon="8.68754">
        <ele>563</ele>
        <time>2021-08-05T10:21:52.467Z</time>
      </trkpt>
      <trkpt lat="46.99068" lon="8.68754">
        <ele>562</ele>
        <time>2021-08-05T10:21:53.467Z</time>
      </trkpt>
      <trkpt lat="46.99068" lon="8.68755">
        <ele>562</ele>
        <time>2021-08-05T10:21:54.468Z</time>
      </trkpt>
      <trkpt lat="46.99068" lon="8.68756">
        <ele>562</ele>
        <time>2021-08-05T10:21:55.467Z</time>
      </trkpt>
      <trkpt lat="46.99068" lon="8.68756">
        <ele>561</ele>
        <time>2021-08-05T10:21:56.468Z</time>
      </trkpt>
      <trkpt lat="46.99068" lon="8.68757">
        <ele>561</ele>
        <time>2021-08-05T10:21:57.467Z</time>
      </trkpt>
      <trkpt lat="46.99068" lon="8.68758">
        <ele>560</ele>
        <time>2021-08-05T10:21:58.467Z</time>
      </trkpt>
      <trkpt lat="46.99068" lon="8.68759">
        <ele>559</ele>
        <time>2021-08-05T10:21:59.468Z</time>
      </trkpt>
      <trkpt lat="46.99068" lon="8.6876">
        <ele>559</ele>
        <time>2021-08-05T10:22:00.467Z</time>
      </trkpt>
      <trkpt lat="46.99066" lon="8.68761">
        <ele>558</ele>
        <time>2021-08-05T10:22:01.468Z</time>
      </trkpt>
      <trkpt lat="46.99065" lon="8.68762">
        <ele>558</ele>
        <time>2021-08-05T10:22:02.467Z</time>
      </trkpt>
      <trkpt lat="46.99065" lon="8.68763">
        <ele>557</ele>
        <time>2021-08-05T10:22:03.467Z</time>
      </trkpt>
      <trkpt lat="46.99065" lon="8.68765">
        <ele>557</ele>
        <time>2021-08-05T10:22:04.468Z</time>
      </trkpt>
      <trkpt lat="46.99065" lon="8.68766">
        <ele>557</ele>
        <time>2021-08-05T10:22:05.467Z</time>
      </trkpt>
      <trkpt lat="46.99065" lon="8.68767">
        <ele>556</ele>
        <time>2021-08-05T10:22:06.468Z</time>
      </trkpt>
      <trkpt lat="46.99065" lon="8.68767">
        <ele>556</ele>
        <time>2021-08-05T10:22:07.468Z</time>
      </trkpt>
      <trkpt lat="46.99064" lon="8.68767">
        <ele>556</ele>
        <time>2021-08-05T10:22:08.467Z</time>
      </trkpt>
      <trkpt lat="46.99064" lon="8.68767">
        <ele>556</ele>
        <time>2021-08-05T10:22:09.467Z</time>
      </trkpt>
      <trkpt lat="46.99062" lon="8.68771">
        <ele>556</ele>
        <time>2021-08-05T10:22:10.468Z</time>
      </trkpt>
      <trkpt lat="46.99063" lon="8.68772">
        <ele>555</ele>
        <time>2021-08-05T10:22:11.467Z</time>
      </trkpt>
      <trkpt lat="46.99063" lon="8.68772">
        <ele>555</ele>
        <time>2021-08-05T10:22:12.467Z</time>
      </trkpt>
      <trkpt lat="46.99062" lon="8.68772">
        <ele>555</ele>
        <time>2021-08-05T10:22:13.468Z</time>
      </trkpt>
      <trkpt lat="46.99062" lon="8.68772">
        <ele>554</ele>
        <time>2021-08-05T10:22:14.468Z</time>
      </trkpt>
      <trkpt lat="46.99061" lon="8.68772">
        <ele>554</ele>
        <time>2021-08-05T10:22:15.468Z</time>
      </trkpt>
      <trkpt lat="46.9906" lon="8.68771">
        <ele>553</ele>
        <time>2021-08-05T10:22:16.468Z</time>
      </trkpt>
      <trkpt lat="46.99058" lon="8.68771">
        <ele>553</ele>
        <time>2021-08-05T10:22:17.468Z</time>
      </trkpt>
      <trkpt lat="46.99057" lon="8.68771">
        <ele>553</ele>
        <time>2021-08-05T10:22:18.468Z</time>
      </trkpt>
      <trkpt lat="46.99056" lon="8.68771">
        <ele>553</ele>
        <time>2021-08-05T10:22:19.468Z</time>
      </trkpt>
      <trkpt lat="46.99054" lon="8.68771">
        <ele>552</ele>
        <time>2021-08-05T10:22:20.468Z</time>
      </trkpt>
      <trkpt lat="46.99054" lon="8.68771">
        <ele>552</ele>
        <time>2021-08-05T10:22:21.468Z</time>
      </trkpt>
      <trkpt lat="46.99054" lon="8.6877">
        <ele>552</ele>
        <time>2021-08-05T10:22:22.467Z</time>
      </trkpt>
      <trkpt lat="46.99052" lon="8.6877">
        <ele>552</ele>
        <time>2021-08-05T10:22:23.467Z</time>
      </trkpt>
      <trkpt lat="46.99051" lon="8.68769">
        <ele>552</ele>
        <time>2021-08-05T10:22:24.468Z</time>
      </trkpt>
      <trkpt lat="46.9905" lon="8.68769">
        <ele>552</ele>
        <time>2021-08-05T10:22:25.467Z</time>
      </trkpt>
      <trkpt lat="46.9905" lon="8.68768">
        <ele>552</ele>
        <time>2021-08-05T10:22:26.468Z</time>
      </trkpt>
      <trkpt lat="46.99051" lon="8.68768">
        <ele>552</ele>
        <time>2021-08-05T10:22:27.468Z</time>
      </trkpt>
      <trkpt lat="46.99052" lon="8.68771">
        <ele>552</ele>
        <time>2021-08-05T10:22:28.468Z</time>
      </trkpt>
      <trkpt lat="46.99053" lon="8.68773">
        <ele>552</ele>
        <time>2021-08-05T10:22:29.467Z</time>
      </trkpt>
      <trkpt lat="46.99054" lon="8.68774">
        <ele>552</ele>
        <time>2021-08-05T10:22:30.467Z</time>
      </trkpt>
      <trkpt lat="46.99054" lon="8.68776">
        <ele>552</ele>
        <time>2021-08-05T10:22:31.468Z</time>
      </trkpt>
      <trkpt lat="46.99055" lon="8.68777">
        <ele>553</ele>
        <time>2021-08-05T10:22:32.467Z</time>
      </trkpt>
      <trkpt lat="46.99056" lon="8.68778">
        <ele>553</ele>
        <time>2021-08-05T10:22:33.468Z</time>
      </trkpt>
      <trkpt lat="46.99057" lon="8.68779">
        <ele>553</ele>
        <time>2021-08-05T10:22:34.468Z</time>
      </trkpt>
      <trkpt lat="46.99058" lon="8.68779">
        <ele>554</ele>
        <time>2021-08-05T10:22:35.468Z</time>
      </trkpt>
      <trkpt lat="46.99059" lon="8.68779">
        <ele>555</ele>
        <time>2021-08-05T10:22:36.468Z</time>
      </trkpt>
      <trkpt lat="46.99059" lon="8.68779">
        <ele>556</ele>
        <time>2021-08-05T10:22:37.468Z</time>
      </trkpt>
      <trkpt lat="46.9906" lon="8.6878">
        <ele>557</ele>
        <time>2021-08-05T10:22:38.468Z</time>
      </trkpt>
      <trkpt lat="46.99061" lon="8.6878">
        <ele>558</ele>
        <time>2021-08-05T10:22:39.468Z</time>
      </trkpt>
      <trkpt lat="46.99062" lon="8.68781">
        <ele>559</ele>
        <time>2021-08-05T10:22:40.468Z</time>
      </trkpt>
      <trkpt lat="46.99063" lon="8.68781">
        <ele>560</ele>
        <time>2021-08-05T10:22:41.468Z</time>
      </trkpt>
      <trkpt lat="46.99064" lon="8.68782">
        <ele>560</ele>
        <time>2021-08-05T10:22:42.467Z</time>
      </trkpt>
      <trkpt lat="46.99065" lon="8.68782">
        <ele>561</ele>
        <time>2021-08-05T10:22:43.467Z</time>
      </trkpt>
      <trkpt lat="46.99066" lon="8.68784">
        <ele>561</ele>
        <time>2021-08-05T10:22:44.467Z</time>
      </trkpt>
      <trkpt lat="46.99067" lon="8.68785">
        <ele>561</ele>
        <time>2021-08-05T10:22:45.467Z</time>
      </trkpt>
      <trkpt lat="46.99068" lon="8.68786">
        <ele>561</ele>
        <time>2021-08-05T10:22:46.467Z</time>
      </trkpt>
      <trkpt lat="46.99069" lon="8.68788">
        <ele>561</ele>
        <time>2021-08-05T10:22:47.467Z</time>
      </trkpt>
      <trkpt lat="46.9907" lon="8.68789">
        <ele>561</ele>
        <time>2021-08-05T10:22:48.467Z</time>
      </trkpt>
      <trkpt lat="46.99071" lon="8.68791">
        <ele>561</ele>
        <time>2021-08-05T10:22:49.467Z</time>
      </trkpt>
      <trkpt lat="46.99072" lon="8.68794">
        <ele>562</ele>
        <time>2021-08-05T10:22:50.467Z</time>
      </trkpt>
      <trkpt lat="46.99073" lon="8.68797">
        <ele>562</ele>
        <time>2021-08-05T10:22:51.467Z</time>
      </trkpt>
      <trkpt lat="46.99074" lon="8.688">
        <ele>562</ele>
        <time>2021-08-05T10:22:52.468Z</time>
      </trkpt>
      <trkpt lat="46.99074" lon="8.68802">
        <ele>563</ele>
        <time>2021-08-05T10:22:53.467Z</time>
      </trkpt>
      <trkpt lat="46.99075" lon="8.68804">
        <ele>563</ele>
        <time>2021-08-05T10:22:54.468Z</time>
      </trkpt>
      <trkpt lat="46.99075" lon="8.68806">
        <ele>563</ele>
        <time>2021-08-05T10:22:55.467Z</time>
      </trkpt>
      <trkpt lat="46.99076" lon="8.68807">
        <ele>563</ele>
        <time>2021-08-05T10:22:56.468Z</time>
      </trkpt>
      <trkpt lat="46.99077" lon="8.68809">
        <ele>563</ele>
        <time>2021-08-05T10:22:57.468Z</time>
      </trkpt>
      <trkpt lat="46.99077" lon="8.68811">
        <ele>563</ele>
        <time>2021-08-05T10:22:58.467Z</time>
      </trkpt>
      <trkpt lat="46.99078" lon="8.68813">
        <ele>563</ele>
        <time>2021-08-05T10:22:59.468Z</time>
      </trkpt>
      <trkpt lat="46.99079" lon="8.68816">
        <ele>563</ele>
        <time>2021-08-05T10:23:00.468Z</time>
      </trkpt>
      <trkpt lat="46.99079" lon="8.68817">
        <ele>564</ele>
        <time>2021-08-05T10:23:01.467Z</time>
      </trkpt>
      <trkpt lat="46.9908" lon="8.68819">
        <ele>564</ele>
        <time>2021-08-05T10:23:02.468Z</time>
      </trkpt>
      <trkpt lat="46.99081" lon="8.6882">
        <ele>565</ele>
        <time>2021-08-05T10:23:03.467Z</time>
      </trkpt>
      <trkpt lat="46.99081" lon="8.68822">
        <ele>565</ele>
        <time>2021-08-05T10:23:04.468Z</time>
      </trkpt>
      <trkpt lat="46.99082" lon="8.68823">
        <ele>566</ele>
        <time>2021-08-05T10:23:05.468Z</time>
      </trkpt>
      <trkpt lat="46.99083" lon="8.68825">
        <ele>566</ele>
        <time>2021-08-05T10:23:06.467Z</time>
      </trkpt>
      <trkpt lat="46.99084" lon="8.68825">
        <ele>566</ele>
        <time>2021-08-05T10:23:07.468Z</time>
      </trkpt>
      <trkpt lat="46.99085" lon="8.68827">
        <ele>566</ele>
        <time>2021-08-05T10:23:08.467Z</time>
      </trkpt>
      <trkpt lat="46.99087" lon="8.68827">
        <ele>566</ele>
        <time>2021-08-05T10:23:09.468Z</time>
      </trkpt>
      <trkpt lat="46.99088" lon="8.68828">
        <ele>566</ele>
        <time>2021-08-05T10:23:10.467Z</time>
      </trkpt>
      <trkpt lat="46.99089" lon="8.68829">
        <ele>566</ele>
        <time>2021-08-05T10:23:11.467Z</time>
      </trkpt>
      <trkpt lat="46.9909" lon="8.68829">
        <ele>565</ele>
        <time>2021-08-05T10:23:12.467Z</time>
      </trkpt>
      <trkpt lat="46.99091" lon="8.68829">
        <ele>565</ele>
        <time>2021-08-05T10:23:13.467Z</time>
      </trkpt>
      <trkpt lat="46.99092" lon="8.68829">
        <ele>564</ele>
        <time>2021-08-05T10:23:14.467Z</time>
      </trkpt>
      <trkpt lat="46.99092" lon="8.68828">
        <ele>563</ele>
        <time>2021-08-05T10:23:15.467Z</time>
      </trkpt>
      <trkpt lat="46.99093" lon="8.68825">
        <ele>562</ele>
        <time>2021-08-05T10:23:16.467Z</time>
      </trkpt>
      <trkpt lat="46.99094" lon="8.68824">
        <ele>561</ele>
        <time>2021-08-05T10:23:17.468Z</time>
      </trkpt>
      <trkpt lat="46.99095" lon="8.68824">
        <ele>560</ele>
        <time>2021-08-05T10:23:18.468Z</time>
      </trkpt>
      <trkpt lat="46.99096" lon="8.68824">
        <ele>559</ele>
        <time>2021-08-05T10:23:19.467Z</time>
      </trkpt>
      <trkpt lat="46.99097" lon="8.68823">
        <ele>559</ele>
        <time>2021-08-05T10:23:20.468Z</time>
      </trkpt>
      <trkpt lat="46.99097" lon="8.68822">
        <ele>558</ele>
        <time>2021-08-05T10:23:21.467Z</time>
      </trkpt>
      <trkpt lat="46.99097" lon="8.68821">
        <ele>557</ele>
        <time>2021-08-05T10:23:22.468Z</time>
      </trkpt>
      <trkpt lat="46.99096" lon="8.68821">
        <ele>557</ele>
        <time>2021-08-05T10:23:23.468Z</time>
      </trkpt>
      <trkpt lat="46.99096" lon="8.6882">
        <ele>556</ele>
        <time>2021-08-05T10:23:24.468Z</time>
      </trkpt>
      <trkpt lat="46.99095" lon="8.68819">
        <ele>555</ele>
        <time>2021-08-05T10:23:25.468Z</time>
      </trkpt>
      <trkpt lat="46.99095" lon="8.68818">
        <ele>555</ele>
        <time>2021-08-05T10:23:26.468Z</time>
      </trkpt>
      <trkpt lat="46.99096" lon="8.68817">
        <ele>554</ele>
        <time>2021-08-05T10:23:27.468Z</time>
      </trkpt>
      <trkpt lat="46.99097" lon="8.68816">
        <ele>554</ele>
        <time>2021-08-05T10:23:28.468Z</time>
      </trkpt>
      <trkpt lat="46.99098" lon="8.68816">
        <ele>553</ele>
        <time>2021-08-05T10:23:29.468Z</time>
      </trkpt>
      <trkpt lat="46.99099" lon="8.68815">
        <ele>553</ele>
        <time>2021-08-05T10:23:30.468Z</time>
      </trkpt>
      <trkpt lat="46.991" lon="8.68815">
        <ele>553</ele>
        <time>2021-08-05T10:23:31.467Z</time>
      </trkpt>
      <trkpt lat="46.991" lon="8.68814">
        <ele>553</ele>
        <time>2021-08-05T10:23:32.468Z</time>
      </trkpt>
      <trkpt lat="46.991" lon="8.68814">
        <ele>553</ele>
        <time>2021-08-05T10:23:33.468Z</time>
      </trkpt>
      <trkpt lat="46.99101" lon="8.68814">
        <ele>553</ele>
        <time>2021-08-05T10:23:34.467Z</time>
      </trkpt>
      <trkpt lat="46.99101" lon="8.68814">
        <ele>552</ele>
        <time>2021-08-05T10:23:35.467Z</time>
      </trkpt>
      <trkpt lat="46.99102" lon="8.68814">
        <ele>552</ele>
        <time>2021-08-05T10:23:36.468Z</time>
      </trkpt>
      <trkpt lat="46.99102" lon="8.68813">
        <ele>552</ele>
        <time>2021-08-05T10:23:37.468Z</time>
      </trkpt>
      <trkpt lat="46.99102" lon="8.68812">
        <ele>552</ele>
        <time>2021-08-05T10:23:38.467Z</time>
      </trkpt>
      <trkpt lat="46.99103" lon="8.68811">
        <ele>552</ele>
        <time>2021-08-05T10:23:39.467Z</time>
      </trkpt>
      <trkpt lat="46.99103" lon="8.68809">
        <ele>551</ele>
        <time>2021-08-05T10:23:40.467Z</time>
      </trkpt>
      <trkpt lat="46.99104" lon="8.68807">
        <ele>551</ele>
        <time>2021-08-05T10:23:41.468Z</time>
      </trkpt>
      <trkpt lat="46.99104" lon="8.68807">
        <ele>550</ele>
        <time>2021-08-05T10:23:42.468Z</time>
      </trkpt>
      <trkpt lat="46.99103" lon="8.68807">
        <ele>550</ele>
        <time>2021-08-05T10:23:43.468Z</time>
      </trkpt>
      <trkpt lat="46.99103" lon="8.68807">
        <ele>549</ele>
        <time>2021-08-05T10:23:44.468Z</time>
      </trkpt>
      <trkpt lat="46.99103" lon="8.68806">
        <ele>548</ele>
        <time>2021-08-05T10:23:45.467Z</time>
      </trkpt>
      <trkpt lat="46.99103" lon="8.68806">
        <ele>548</ele>
        <time>2021-08-05T10:23:46.468Z</time>
      </trkpt>
      <trkpt lat="46.99102" lon="8.68806">
        <ele>547</ele>
        <time>2021-08-05T10:23:47.467Z</time>
      </trkpt>
      <trkpt lat="46.99101" lon="8.68807">
        <ele>546</ele>
        <time>2021-08-05T10:23:48.467Z</time>
      </trkpt>
      <trkpt lat="46.99101" lon="8.68808">
        <ele>545</ele>
        <time>2021-08-05T10:23:49.467Z</time>
      </trkpt>
      <trkpt lat="46.991" lon="8.68808">
        <ele>544</ele>
        <time>2021-08-05T10:23:50.468Z</time>
      </trkpt>
      <trkpt lat="46.991" lon="8.68809">
        <ele>544</ele>
        <time>2021-08-05T10:23:51.467Z</time>
      </trkpt>
      <trkpt lat="46.99101" lon="8.68809">
        <ele>543</ele>
        <time>2021-08-05T10:23:52.468Z</time>
      </trkpt>
      <trkpt lat="46.99102" lon="8.68809">
        <ele>542</ele>
        <time>2021-08-05T10:23:53.468Z</time>
      </trkpt>
      <trkpt lat="46.99103" lon="8.68809">
        <ele>541</ele>
        <time>2021-08-05T10:23:54.468Z</time>
      </trkpt>
      <trkpt lat="46.99103" lon="8.68809">
        <ele>539</ele>
        <time>2021-08-05T10:23:55.467Z</time>
      </trkpt>
      <trkpt lat="46.99104" lon="8.68808">
        <ele>538</ele>
        <time>2021-08-05T10:23:56.467Z</time>
      </trkpt>
      <trkpt lat="46.99104" lon="8.68808">
        <ele>536</ele>
        <time>2021-08-05T10:23:57.468Z</time>
      </trkpt>
      <trkpt lat="46.99104" lon="8.68806">
        <ele>532</ele>
        <time>2021-08-05T10:23:58.468Z</time>
      </trkpt>
      <trkpt lat="46.99106" lon="8.68806">
        <ele>531</ele>
        <time>2021-08-05T10:23:59.468Z</time>
      </trkpt>
      <trkpt lat="46.99108" lon="8.68806">
        <ele>530</ele>
        <time>2021-08-05T10:24:00.469Z</time>
      </trkpt>
      <trkpt lat="46.99108" lon="8.68805">
        <ele>529</ele>
        <time>2021-08-05T10:24:01.469Z</time>
      </trkpt>
      <trkpt lat="46.99109" lon="8.68804">
        <ele>528</ele>
        <time>2021-08-05T10:24:02.469Z</time>
      </trkpt>
      <trkpt lat="46.99109" lon="8.68804">
        <ele>528</ele>
        <time>2021-08-05T10:24:03.469Z</time>
      </trkpt>
      <trkpt lat="46.99107" lon="8.688">
        <ele>527</ele>
        <time>2021-08-05T10:24:04.468Z</time>
      </trkpt>
      <trkpt lat="46.99108" lon="8.68801">
        <ele>527</ele>
        <time>2021-08-05T10:24:05.469Z</time>
      </trkpt>
      <trkpt lat="46.99109" lon="8.68801">
        <ele>528</ele>
        <time>2021-08-05T10:24:06.468Z</time>
      </trkpt>
      <trkpt lat="46.99109" lon="8.68802">
        <ele>528</ele>
        <time>2021-08-05T10:24:07.469Z</time>
      </trkpt>
      <trkpt lat="46.99111" lon="8.68802">
        <ele>528</ele>
        <time>2021-08-05T10:24:08.469Z</time>
      </trkpt>
      <trkpt lat="46.99111" lon="8.68802">
        <ele>528</ele>
        <time>2021-08-05T10:24:09.469Z</time>
      </trkpt>
      <trkpt lat="46.99112" lon="8.68801">
        <ele>527</ele>
        <time>2021-08-05T10:24:10.468Z</time>
      </trkpt>
      <trkpt lat="46.99112" lon="8.68801">
        <ele>527</ele>
        <time>2021-08-05T10:24:11.469Z</time>
      </trkpt>
      <trkpt lat="46.99112" lon="8.688">
        <ele>527</ele>
        <time>2021-08-05T10:24:12.469Z</time>
      </trkpt>
      <trkpt lat="46.99113" lon="8.688">
        <ele>526</ele>
        <time>2021-08-05T10:24:13.469Z</time>
      </trkpt>
      <trkpt lat="46.99113" lon="8.688">
        <ele>526</ele>
        <time>2021-08-05T10:24:14.469Z</time>
      </trkpt>
      <trkpt lat="46.99114" lon="8.688">
        <ele>525</ele>
        <time>2021-08-05T10:24:15.469Z</time>
      </trkpt>
      <trkpt lat="46.99114" lon="8.68801">
        <ele>525</ele>
        <time>2021-08-05T10:24:16.468Z</time>
      </trkpt>
      <trkpt lat="46.99115" lon="8.68801">
        <ele>525</ele>
        <time>2021-08-05T10:24:17.469Z</time>
      </trkpt>
      <trkpt lat="46.99115" lon="8.68801">
        <ele>524</ele>
        <time>2021-08-05T10:24:18.469Z</time>
      </trkpt>
      <trkpt lat="46.99115" lon="8.68801">
        <ele>522</ele>
        <time>2021-08-05T10:24:19.470Z</time>
      </trkpt>
      <trkpt lat="46.99117" lon="8.68802">
        <ele>520</ele>
        <time>2021-08-05T10:24:20.470Z</time>
      </trkpt>
      <trkpt lat="46.99117" lon="8.68802">
        <ele>520</ele>
        <time>2021-08-05T10:24:21.470Z</time>
      </trkpt>
      <trkpt lat="46.99117" lon="8.68802">
        <ele>519</ele>
        <time>2021-08-05T10:24:22.470Z</time>
      </trkpt>
      <trkpt lat="46.99116" lon="8.68802">
        <ele>519</ele>
        <time>2021-08-05T10:24:23.470Z</time>
      </trkpt>
      <trkpt lat="46.99116" lon="8.68802">
        <ele>520</ele>
        <time>2021-08-05T10:24:24.471Z</time>
      </trkpt>
      <trkpt lat="46.99116" lon="8.68803">
        <ele>522</ele>
        <time>2021-08-05T10:24:25.471Z</time>
      </trkpt>
      <trkpt lat="46.99116" lon="8.68803">
        <ele>522</ele>
        <time>2021-08-05T10:24:26.471Z</time>
      </trkpt>
      <trkpt lat="46.99116" lon="8.68802">
        <ele>523</ele>
        <time>2021-08-05T10:24:27.470Z</time>
      </trkpt>
      <trkpt lat="46.99117" lon="8.68802">
        <ele>524</ele>
        <time>2021-08-05T10:24:28.470Z</time>
      </trkpt>
      <trkpt lat="46.99118" lon="8.68802">
        <ele>526</ele>
        <time>2021-08-05T10:24:29.472Z</time>
      </trkpt>
      <trkpt lat="46.99118" lon="8.68803">
        <ele>526</ele>
        <time>2021-08-05T10:24:30.472Z</time>
      </trkpt>
      <trkpt lat="46.99118" lon="8.68803">
        <ele>526</ele>
        <time>2021-08-05T10:24:31.471Z</time>
      </trkpt>
      <trkpt lat="46.99118" lon="8.68803">
        <ele>527</ele>
        <time>2021-08-05T10:24:32.472Z</time>
      </trkpt>
      <trkpt lat="46.99118" lon="8.68803">
        <ele>527</ele>
        <time>2021-08-05T10:24:33.471Z</time>
      </trkpt>
      <trkpt lat="46.99118" lon="8.68802">
        <ele>527</ele>
        <time>2021-08-05T10:24:34.472Z</time>
      </trkpt>
      <trkpt lat="46.99118" lon="8.68802">
        <ele>527</ele>
        <time>2021-08-05T10:24:35.472Z</time>
      </trkpt>
      <trkpt lat="46.99119" lon="8.68802">
        <ele>527</ele>
        <time>2021-08-05T10:24:36.471Z</time>
      </trkpt>
      <trkpt lat="46.99118" lon="8.68802">
        <ele>527</ele>
        <time>2021-08-05T10:24:37.472Z</time>
      </trkpt>
      <trkpt lat="46.99118" lon="8.68802">
        <ele>527</ele>
        <time>2021-08-05T10:24:38.472Z</time>
      </trkpt>
      <trkpt lat="46.99119" lon="8.68801">
        <ele>527</ele>
        <time>2021-08-05T10:24:39.471Z</time>
      </trkpt>
      <trkpt lat="46.99119" lon="8.68801">
        <ele>527</ele>
        <time>2021-08-05T10:24:40.471Z</time>
      </trkpt>
      <trkpt lat="46.99119" lon="8.68802">
        <ele>527</ele>
        <time>2021-08-05T10:24:41.472Z</time>
      </trkpt>
      <trkpt lat="46.99118" lon="8.68802">
        <ele>527</ele>
        <time>2021-08-05T10:24:42.472Z</time>
      </trkpt>
      <trkpt lat="46.99119" lon="8.68803">
        <ele>527</ele>
        <time>2021-08-05T10:24:43.472Z</time>
      </trkpt>
      <trkpt lat="46.99118" lon="8.68803">
        <ele>526</ele>
        <time>2021-08-05T10:24:44.472Z</time>
      </trkpt>
      <trkpt lat="46.99117" lon="8.68802">
        <ele>526</ele>
        <time>2021-08-05T10:24:45.472Z</time>
      </trkpt>
      <trkpt lat="46.99117" lon="8.68802">
        <ele>526</ele>
        <time>2021-08-05T10:24:46.471Z</time>
      </trkpt>
      <trkpt lat="46.99117" lon="8.68802">
        <ele>526</ele>
        <time>2021-08-05T10:24:47.472Z</time>
      </trkpt>
      <trkpt lat="46.99117" lon="8.68803">
        <ele>525</ele>
        <time>2021-08-05T10:24:48.472Z</time>
      </trkpt>
      <trkpt lat="46.99117" lon="8.68803">
        <ele>525</ele>
        <time>2021-08-05T10:24:49.471Z</time>
      </trkpt>
      <trkpt lat="46.99116" lon="8.68803">
        <ele>524</ele>
        <time>2021-08-05T10:24:50.471Z</time>
      </trkpt>
      <trkpt lat="46.99117" lon="8.68804">
        <ele>523</ele>
        <time>2021-08-05T10:24:51.473Z</time>
      </trkpt>
      <trkpt lat="46.99118" lon="8.68805">
        <ele>523</ele>
        <time>2021-08-05T10:24:52.473Z</time>
      </trkpt>
      <trkpt lat="46.99119" lon="8.68805">
        <ele>522</ele>
        <time>2021-08-05T10:24:53.472Z</time>
      </trkpt>
      <trkpt lat="46.99119" lon="8.68805">
        <ele>522</ele>
        <time>2021-08-05T10:24:54.472Z</time>
      </trkpt>
      <trkpt lat="46.99119" lon="8.68806">
        <ele>520</ele>
        <time>2021-08-05T10:24:55.473Z</time>
      </trkpt>
      <trkpt lat="46.99119" lon="8.68806">
        <ele>520</ele>
        <time>2021-08-05T10:24:56.474Z</time>
      </trkpt>
      <trkpt lat="46.99119" lon="8.68807">
        <ele>519</ele>
        <time>2021-08-05T10:24:57.473Z</time>
      </trkpt>
      <trkpt lat="46.99118" lon="8.68808">
        <ele>518</ele>
        <time>2021-08-05T10:24:58.475Z</time>
      </trkpt>
      <trkpt lat="46.99118" lon="8.68808">
        <ele>518</ele>
        <time>2021-08-05T10:24:59.476Z</time>
      </trkpt>
      <trkpt lat="46.99117" lon="8.68808">
        <ele>519</ele>
        <time>2021-08-05T10:25:00.476Z</time>
      </trkpt>
      <trkpt lat="46.99117" lon="8.68808">
        <ele>520</ele>
        <time>2021-08-05T10:25:01.475Z</time>
      </trkpt>
      <trkpt lat="46.99117" lon="8.68808">
        <ele>521</ele>
        <time>2021-08-05T10:25:02.476Z</time>
      </trkpt>
      <trkpt lat="46.99117" lon="8.68808">
        <ele>522</ele>
        <time>2021-08-05T10:25:03.476Z</time>
      </trkpt>
      <trkpt lat="46.99118" lon="8.68808">
        <ele>524</ele>
        <time>2021-08-05T10:25:04.476Z</time>
      </trkpt>
      <trkpt lat="46.99118" lon="8.68809">
        <ele>525</ele>
        <time>2021-08-05T10:25:05.476Z</time>
      </trkpt>
      <trkpt lat="46.99118" lon="8.68808">
        <ele>525</ele>
        <time>2021-08-05T10:25:06.477Z</time>
      </trkpt>
      <trkpt lat="46.99118" lon="8.68808">
        <ele>526</ele>
        <time>2021-08-05T10:25:07.476Z</time>
      </trkpt>
      <trkpt lat="46.99118" lon="8.68807">
        <ele>530</ele>
        <time>2021-08-05T10:25:08.477Z</time>
      </trkpt>
      <trkpt lat="46.99117" lon="8.68805">
        <ele>531</ele>
        <time>2021-08-05T10:25:09.478Z</time>
      </trkpt>
      <trkpt lat="46.99115" lon="8.68805">
        <ele>532</ele>
        <time>2021-08-05T10:25:10.478Z</time>
      </trkpt>
      <trkpt lat="46.99115" lon="8.68804">
        <ele>528</ele>
        <time>2021-08-05T10:25:11.477Z</time>
      </trkpt>
      <trkpt lat="46.99115" lon="8.68805">
        <ele>528</ele>
        <time>2021-08-05T10:25:12.478Z</time>
      </trkpt>
      <trkpt lat="46.99115" lon="8.68805">
        <ele>528</ele>
        <time>2021-08-05T10:25:13.478Z</time>
      </trkpt>
      <trkpt lat="46.99118" lon="8.68806">
        <ele>533</ele>
        <time>2021-08-05T10:25:14.478Z</time>
      </trkpt>
      <trkpt lat="46.99118" lon="8.68806">
        <ele>534</ele>
        <time>2021-08-05T10:25:15.478Z</time>
      </trkpt>
      <trkpt lat="46.99118" lon="8.68805">
        <ele>534</ele>
        <time>2021-08-05T10:25:16.479Z</time>
      </trkpt>
      <trkpt lat="46.99118" lon="8.68805">
        <ele>535</ele>
        <time>2021-08-05T10:25:17.479Z</time>
      </trkpt>
      <trkpt lat="46.99119" lon="8.68809">
        <ele>542</ele>
        <time>2021-08-05T10:25:18.479Z</time>
      </trkpt>
      <trkpt lat="46.9912" lon="8.6881">
        <ele>542</ele>
        <time>2021-08-05T10:25:19.479Z</time>
      </trkpt>
      <trkpt lat="46.9912" lon="8.6881">
        <ele>542</ele>
        <time>2021-08-05T10:25:20.478Z</time>
      </trkpt>
      <trkpt lat="46.9912" lon="8.6881">
        <ele>542</ele>
        <time>2021-08-05T10:25:21.478Z</time>
      </trkpt>
      <trkpt lat="46.9912" lon="8.6881">
        <ele>543</ele>
        <time>2021-08-05T10:25:22.478Z</time>
      </trkpt>
      <trkpt lat="46.9912" lon="8.6881">
        <ele>541</ele>
        <time>2021-08-05T10:25:23.479Z</time>
      </trkpt>
      <trkpt lat="46.99119" lon="8.6881">
        <ele>541</ele>
        <time>2021-08-05T10:25:24.479Z</time>
      </trkpt>
      <trkpt lat="46.99117" lon="8.68807">
        <ele>543</ele>
        <time>2021-08-05T10:25:25.479Z</time>
      </trkpt>
      <trkpt lat="46.99117" lon="8.68807">
        <ele>543</ele>
        <time>2021-08-05T10:25:26.479Z</time>
      </trkpt>
      <trkpt lat="46.99117" lon="8.68807">
        <ele>542</ele>
        <time>2021-08-05T10:25:27.478Z</time>
      </trkpt>
      <trkpt lat="46.99112" lon="8.68807">
        <ele>544</ele>
        <time>2021-08-05T10:25:28.480Z</time>
      </trkpt>
      <trkpt lat="46.99112" lon="8.68807">
        <ele>544</ele>
        <time>2021-08-05T10:25:29.479Z</time>
      </trkpt>
      <trkpt lat="46.99111" lon="8.68802">
        <ele>543</ele>
        <time>2021-08-05T10:25:30.480Z</time>
      </trkpt>
      <trkpt lat="46.99111" lon="8.68802">
        <ele>543</ele>
        <time>2021-08-05T10:25:31.481Z</time>
      </trkpt>
      <trkpt lat="46.99111" lon="8.68803">
        <ele>543</ele>
        <time>2021-08-05T10:25:32.480Z</time>
      </trkpt>
      <trkpt lat="46.9911" lon="8.68803">
        <ele>543</ele>
        <time>2021-08-05T10:25:33.481Z</time>
      </trkpt>
      <trkpt lat="46.99112" lon="8.68805">
        <ele>549</ele>
        <time>2021-08-05T10:25:34.480Z</time>
      </trkpt>
      <trkpt lat="46.99113" lon="8.68806">
        <ele>549</ele>
        <time>2021-08-05T10:25:35.480Z</time>
      </trkpt>
      <trkpt lat="46.99113" lon="8.68807">
        <ele>550</ele>
        <time>2021-08-05T10:25:36.480Z</time>
      </trkpt>
      <trkpt lat="46.99114" lon="8.68807">
        <ele>551</ele>
        <time>2021-08-05T10:25:37.480Z</time>
      </trkpt>
      <trkpt lat="46.99116" lon="8.68809">
        <ele>555</ele>
        <time>2021-08-05T10:25:38.481Z</time>
      </trkpt>
      <trkpt lat="46.99116" lon="8.6881">
        <ele>554</ele>
        <time>2021-08-05T10:25:39.481Z</time>
      </trkpt>
      <trkpt lat="46.99114" lon="8.68811">
        <ele>550</ele>
        <time>2021-08-05T10:25:40.481Z</time>
      </trkpt>
      <trkpt lat="46.99114" lon="8.68811">
        <ele>549</ele>
        <time>2021-08-05T10:25:41.481Z</time>
      </trkpt>
      <trkpt lat="46.99114" lon="8.68811">
        <ele>548</ele>
        <time>2021-08-05T10:25:42.480Z</time>
      </trkpt>
      <trkpt lat="46.99114" lon="8.68811">
        <ele>547</ele>
        <time>2021-08-05T10:25:43.481Z</time>
      </trkpt>
      <trkpt lat="46.99115" lon="8.68811">
        <ele>546</ele>
        <time>2021-08-05T10:25:44.481Z</time>
      </trkpt>
      <trkpt lat="46.99115" lon="8.68812">
        <ele>545</ele>
        <time>2021-08-05T10:25:45.481Z</time>
      </trkpt>
      <trkpt lat="46.99116" lon="8.68812">
        <ele>544</ele>
        <time>2021-08-05T10:25:46.480Z</time>
      </trkpt>
      <trkpt lat="46.99117" lon="8.68812">
        <ele>538</ele>
        <time>2021-08-05T10:25:47.481Z</time>
      </trkpt>
      <trkpt lat="46.99117" lon="8.68813">
        <ele>537</ele>
        <time>2021-08-05T10:25:48.481Z</time>
      </trkpt>
      <trkpt lat="46.99117" lon="8.68812">
        <ele>537</ele>
        <time>2021-08-05T10:25:49.481Z</time>
      </trkpt>
      <trkpt lat="46.99112" lon="8.68808">
        <ele>535</ele>
        <time>2021-08-05T10:25:50.483Z</time>
      </trkpt>
      <trkpt lat="46.99108" lon="8.68805">
        <ele>539</ele>
        <time>2021-08-05T10:25:51.482Z</time>
      </trkpt>
      <trkpt lat="46.99108" lon="8.68805">
        <ele>539</ele>
        <time>2021-08-05T10:25:52.483Z</time>
      </trkpt>
      <trkpt lat="46.99108" lon="8.68804">
        <ele>540</ele>
        <time>2021-08-05T10:25:53.482Z</time>
      </trkpt>
      <trkpt lat="46.99108" lon="8.68804">
        <ele>540</ele>
        <time>2021-08-05T10:25:54.483Z</time>
      </trkpt>
      <trkpt lat="46.99107" lon="8.68804">
        <ele>540</ele>
        <time>2021-08-05T10:25:55.483Z</time>
      </trkpt>
      <trkpt lat="46.99104" lon="8.68805">
        <ele>544</ele>
        <time>2021-08-05T10:25:56.483Z</time>
      </trkpt>
      <trkpt lat="46.99103" lon="8.68805">
        <ele>544</ele>
        <time>2021-08-05T10:25:57.482Z</time>
      </trkpt>
      <trkpt lat="46.99104" lon="8.68803">
        <ele>545</ele>
        <time>2021-08-05T10:25:58.483Z</time>
      </trkpt>
      <trkpt lat="46.99104" lon="8.68803">
        <ele>544</ele>
        <time>2021-08-05T10:25:59.483Z</time>
      </trkpt>
      <trkpt lat="46.99104" lon="8.68803">
        <ele>544</ele>
        <time>2021-08-05T10:26:00.482Z</time>
      </trkpt>
      <trkpt lat="46.99102" lon="8.68802">
        <ele>541</ele>
        <time>2021-08-05T10:26:01.482Z</time>
      </trkpt>
      <trkpt lat="46.99102" lon="8.68802">
        <ele>541</ele>
        <time>2021-08-05T10:26:02.482Z</time>
      </trkpt>
      <trkpt lat="46.99101" lon="8.68802">
        <ele>541</ele>
        <time>2021-08-05T10:26:03.483Z</time>
      </trkpt>
      <trkpt lat="46.99102" lon="8.68802">
        <ele>542</ele>
        <time>2021-08-05T10:26:04.484Z</time>
      </trkpt>
      <trkpt lat="46.99102" lon="8.68802">
        <ele>543</ele>
        <time>2021-08-05T10:26:05.485Z</time>
      </trkpt>
      <trkpt lat="46.99102" lon="8.68802">
        <ele>543</ele>
        <time>2021-08-05T10:26:06.484Z</time>
      </trkpt>
      <trkpt lat="46.99101" lon="8.68799">
        <ele>543</ele>
        <time>2021-08-05T10:26:07.486Z</time>
      </trkpt>
      <trkpt lat="46.99101" lon="8.68799">
        <ele>543</ele>
        <time>2021-08-05T10:26:08.485Z</time>
      </trkpt>
      <trkpt lat="46.99102" lon="8.68799">
        <ele>543</ele>
        <time>2021-08-05T10:26:09.485Z</time>
      </trkpt>
      <trkpt lat="46.99108" lon="8.68801">
        <ele>544</ele>
        <time>2021-08-05T10:26:10.486Z</time>
      </trkpt>
      <trkpt lat="46.99109" lon="8.68801">
        <ele>543</ele>
        <time>2021-08-05T10:26:11.486Z</time>
      </trkpt>
      <trkpt lat="46.9911" lon="8.68802">
        <ele>543</ele>
        <time>2021-08-05T10:26:12.487Z</time>
      </trkpt>
      <trkpt lat="46.99109" lon="8.68802">
        <ele>542</ele>
        <time>2021-08-05T10:26:13.486Z</time>
      </trkpt>
      <trkpt lat="46.99117" lon="8.688">
        <ele>548</ele>
        <time>2021-08-05T10:26:14.488Z</time>
      </trkpt>
      <trkpt lat="46.99117" lon="8.688">
        <ele>549</ele>
        <time>2021-08-05T10:26:15.487Z</time>
      </trkpt>
      <trkpt lat="46.99117" lon="8.688">
        <ele>550</ele>
        <time>2021-08-05T10:26:16.487Z</time>
      </trkpt>
      <trkpt lat="46.99114" lon="8.68799">
        <ele>551</ele>
        <time>2021-08-05T10:26:17.489Z</time>
      </trkpt>
      <trkpt lat="46.99113" lon="8.68799">
        <ele>551</ele>
        <time>2021-08-05T10:26:18.489Z</time>
      </trkpt>
      <trkpt lat="46.99112" lon="8.68799">
        <ele>550</ele>
        <time>2021-08-05T10:26:19.488Z</time>
      </trkpt>
      <trkpt lat="46.99112" lon="8.68799">
        <ele>550</ele>
        <time>2021-08-05T10:26:20.489Z</time>
      </trkpt>
      <trkpt lat="46.99112" lon="8.688">
        <ele>549</ele>
        <time>2021-08-05T10:26:21.489Z</time>
      </trkpt>
      <trkpt lat="46.99099" lon="8.6881">
        <ele>554</ele>
        <time>2021-08-05T10:26:22.490Z</time>
      </trkpt>
      <trkpt lat="46.99098" lon="8.68812">
        <ele>554</ele>
        <time>2021-08-05T10:26:23.489Z</time>
      </trkpt>
      <trkpt lat="46.99098" lon="8.68814">
        <ele>555</ele>
        <time>2021-08-05T10:26:24.490Z</time>
      </trkpt>
      <trkpt lat="46.99098" lon="8.68816">
        <ele>554</ele>
        <time>2021-08-05T10:26:25.490Z</time>
      </trkpt>
      <trkpt lat="46.99098" lon="8.68818">
        <ele>554</ele>
        <time>2021-08-05T10:26:26.489Z</time>
      </trkpt>
      <trkpt lat="46.99097" lon="8.6882">
        <ele>555</ele>
        <time>2021-08-05T10:26:27.489Z</time>
      </trkpt>
      <trkpt lat="46.99097" lon="8.68823">
        <ele>555</ele>
        <time>2021-08-05T10:26:28.490Z</time>
      </trkpt>
      <trkpt lat="46.99097" lon="8.68825">
        <ele>555</ele>
        <time>2021-08-05T10:26:29.489Z</time>
      </trkpt>
      <trkpt lat="46.99097" lon="8.68827">
        <ele>556</ele>
        <time>2021-08-05T10:26:30.489Z</time>
      </trkpt>
      <trkpt lat="46.99097" lon="8.68828">
        <ele>556</ele>
        <time>2021-08-05T10:26:31.489Z</time>
      </trkpt>
      <trkpt lat="46.99096" lon="8.68829">
        <ele>556</ele>
        <time>2021-08-05T10:26:32.490Z</time>
      </trkpt>
      <trkpt lat="46.99096" lon="8.68831">
        <ele>556</ele>
        <time>2021-08-05T10:26:33.490Z</time>
      </trkpt>
      <trkpt lat="46.99096" lon="8.68833">
        <ele>556</ele>
        <time>2021-08-05T10:26:34.490Z</time>
      </trkpt>
      <trkpt lat="46.99096" lon="8.68835">
        <ele>557</ele>
        <time>2021-08-05T10:26:35.490Z</time>
      </trkpt>
      <trkpt lat="46.99096" lon="8.68838">
        <ele>557</ele>
        <time>2021-08-05T10:26:36.490Z</time>
      </trkpt>
      <trkpt lat="46.99097" lon="8.68839">
        <ele>557</ele>
        <time>2021-08-05T10:26:37.490Z</time>
      </trkpt>
      <trkpt lat="46.99097" lon="8.68841">
        <ele>558</ele>
        <time>2021-08-05T10:26:38.489Z</time>
      </trkpt>
      <trkpt lat="46.99098" lon="8.68842">
        <ele>558</ele>
        <time>2021-08-05T10:26:39.490Z</time>
      </trkpt>
      <trkpt lat="46.99098" lon="8.68843">
        <ele>558</ele>
        <time>2021-08-05T10:26:40.490Z</time>
      </trkpt>
      <trkpt lat="46.99099" lon="8.68845">
        <ele>559</ele>
        <time>2021-08-05T10:26:41.490Z</time>
      </trkpt>
      <trkpt lat="46.991" lon="8.68846">
        <ele>558</ele>
        <time>2021-08-05T10:26:42.489Z</time>
      </trkpt>
      <trkpt lat="46.991" lon="8.68847">
        <ele>558</ele>
        <time>2021-08-05T10:26:43.489Z</time>
      </trkpt>
      <trkpt lat="46.99101" lon="8.68849">
        <ele>558</ele>
        <time>2021-08-05T10:26:44.490Z</time>
      </trkpt>
      <trkpt lat="46.99101" lon="8.6885">
        <ele>558</ele>
        <time>2021-08-05T10:26:45.489Z</time>
      </trkpt>
      <trkpt lat="46.99102" lon="8.68851">
        <ele>558</ele>
        <time>2021-08-05T10:26:46.490Z</time>
      </trkpt>
      <trkpt lat="46.99102" lon="8.68853">
        <ele>558</ele>
        <time>2021-08-05T10:26:47.490Z</time>
      </trkpt>
      <trkpt lat="46.99103" lon="8.68854">
        <ele>557</ele>
        <time>2021-08-05T10:26:48.490Z</time>
      </trkpt>
      <trkpt lat="46.99103" lon="8.68856">
        <ele>557</ele>
        <time>2021-08-05T10:26:49.489Z</time>
      </trkpt>
      <trkpt lat="46.99104" lon="8.68857">
        <ele>557</ele>
        <time>2021-08-05T10:26:50.489Z</time>
      </trkpt>
      <trkpt lat="46.99104" lon="8.68859">
        <ele>558</ele>
        <time>2021-08-05T10:26:51.490Z</time>
      </trkpt>
      <trkpt lat="46.99105" lon="8.6886">
        <ele>558</ele>
        <time>2021-08-05T10:26:52.490Z</time>
      </trkpt>
      <trkpt lat="46.99106" lon="8.68861">
        <ele>558</ele>
        <time>2021-08-05T10:26:53.489Z</time>
      </trkpt>
      <trkpt lat="46.99106" lon="8.68862">
        <ele>557</ele>
        <time>2021-08-05T10:26:54.490Z</time>
      </trkpt>
      <trkpt lat="46.99107" lon="8.68863">
        <ele>557</ele>
        <time>2021-08-05T10:26:55.489Z</time>
      </trkpt>
      <trkpt lat="46.99107" lon="8.68864">
        <ele>557</ele>
        <time>2021-08-05T10:26:56.489Z</time>
      </trkpt>
      <trkpt lat="46.99108" lon="8.68866">
        <ele>557</ele>
        <time>2021-08-05T10:26:57.489Z</time>
      </trkpt>
      <trkpt lat="46.99108" lon="8.68867">
        <ele>557</ele>
        <time>2021-08-05T10:26:58.490Z</time>
      </trkpt>
      <trkpt lat="46.99109" lon="8.68868">
        <ele>557</ele>
        <time>2021-08-05T10:26:59.490Z</time>
      </trkpt>
      <trkpt lat="46.99109" lon="8.68869">
        <ele>557</ele>
        <time>2021-08-05T10:27:00.490Z</time>
      </trkpt>
      <trkpt lat="46.9911" lon="8.68871">
        <ele>556</ele>
        <time>2021-08-05T10:27:01.489Z</time>
      </trkpt>
      <trkpt lat="46.9911" lon="8.68872">
        <ele>556</ele>
        <time>2021-08-05T10:27:02.490Z</time>
      </trkpt>
      <trkpt lat="46.99111" lon="8.68873">
        <ele>556</ele>
        <time>2021-08-05T10:27:03.490Z</time>
      </trkpt>
      <trkpt lat="46.99112" lon="8.68874">
        <ele>557</ele>
        <time>2021-08-05T10:27:04.490Z</time>
      </trkpt>
      <trkpt lat="46.99112" lon="8.68876">
        <ele>557</ele>
        <time>2021-08-05T10:27:05.490Z</time>
      </trkpt>
      <trkpt lat="46.99113" lon="8.68877">
        <ele>558</ele>
        <time>2021-08-05T10:27:06.490Z</time>
      </trkpt>
      <trkpt lat="46.99113" lon="8.68878">
        <ele>558</ele>
        <time>2021-08-05T10:27:07.490Z</time>
      </trkpt>
      <trkpt lat="46.99114" lon="8.68879">
        <ele>558</ele>
        <time>2021-08-05T10:27:08.490Z</time>
      </trkpt>
      <trkpt lat="46.99115" lon="8.68879">
        <ele>560</ele>
        <time>2021-08-05T10:27:09.490Z</time>
      </trkpt>
      <trkpt lat="46.99115" lon="8.68879">
        <ele>560</ele>
        <time>2021-08-05T10:27:10.490Z</time>
      </trkpt>
      <trkpt lat="46.99115" lon="8.68878">
        <ele>561</ele>
        <time>2021-08-05T10:27:11.490Z</time>
      </trkpt>
      <trkpt lat="46.99114" lon="8.68879">
        <ele>556</ele>
        <time>2021-08-05T10:27:12.490Z</time>
      </trkpt>
      <trkpt lat="46.99114" lon="8.6888">
        <ele>557</ele>
        <time>2021-08-05T10:27:13.490Z</time>
      </trkpt>
      <trkpt lat="46.99115" lon="8.68882">
        <ele>557</ele>
        <time>2021-08-05T10:27:14.489Z</time>
      </trkpt>
      <trkpt lat="46.99115" lon="8.68884">
        <ele>558</ele>
        <time>2021-08-05T10:27:15.490Z</time>
      </trkpt>
      <trkpt lat="46.99115" lon="8.68885">
        <ele>558</ele>
        <time>2021-08-05T10:27:16.489Z</time>
      </trkpt>
      <trkpt lat="46.99116" lon="8.68887">
        <ele>558</ele>
        <time>2021-08-05T10:27:17.489Z</time>
      </trkpt>
      <trkpt lat="46.99117" lon="8.68888">
        <ele>558</ele>
        <time>2021-08-05T10:27:18.489Z</time>
      </trkpt>
      <trkpt lat="46.99117" lon="8.6889">
        <ele>558</ele>
        <time>2021-08-05T10:27:19.489Z</time>
      </trkpt>
      <trkpt lat="46.99117" lon="8.68892">
        <ele>558</ele>
        <time>2021-08-05T10:27:20.490Z</time>
      </trkpt>
      <trkpt lat="46.99118" lon="8.68894">
        <ele>558</ele>
        <time>2021-08-05T10:27:21.489Z</time>
      </trkpt>
      <trkpt lat="46.99118" lon="8.68895">
        <ele>559</ele>
        <time>2021-08-05T10:27:22.489Z</time>
      </trkpt>
      <trkpt lat="46.99119" lon="8.68897">
        <ele>559</ele>
        <time>2021-08-05T10:27:23.490Z</time>
      </trkpt>
      <trkpt lat="46.99119" lon="8.68899">
        <ele>559</ele>
        <time>2021-08-05T10:27:24.490Z</time>
      </trkpt>
      <trkpt lat="46.9912" lon="8.689">
        <ele>560</ele>
        <time>2021-08-05T10:27:25.489Z</time>
      </trkpt>
      <trkpt lat="46.9912" lon="8.68902">
        <ele>560</ele>
        <time>2021-08-05T10:27:26.489Z</time>
      </trkpt>
      <trkpt lat="46.99121" lon="8.68903">
        <ele>561</ele>
        <time>2021-08-05T10:27:27.489Z</time>
      </trkpt>
      <trkpt lat="46.99121" lon="8.68905">
        <ele>561</ele>
        <time>2021-08-05T10:27:28.490Z</time>
      </trkpt>
      <trkpt lat="46.99122" lon="8.68907">
        <ele>561</ele>
        <time>2021-08-05T10:27:29.489Z</time>
      </trkpt>
      <trkpt lat="46.99122" lon="8.68908">
        <ele>562</ele>
        <time>2021-08-05T10:27:30.489Z</time>
      </trkpt>
      <trkpt lat="46.99122" lon="8.68909">
        <ele>562</ele>
        <time>2021-08-05T10:27:31.489Z</time>
      </trkpt>
      <trkpt lat="46.99123" lon="8.68911">
        <ele>562</ele>
        <time>2021-08-05T10:27:32.489Z</time>
      </trkpt>
      <trkpt lat="46.99123" lon="8.68912">
        <ele>562</ele>
        <time>2021-08-05T10:27:33.489Z</time>
      </trkpt>
      <trkpt lat="46.99123" lon="8.68914">
        <ele>561</ele>
        <time>2021-08-05T10:27:34.489Z</time>
      </trkpt>
      <trkpt lat="46.99123" lon="8.68915">
        <ele>561</ele>
        <time>2021-08-05T10:27:35.489Z</time>
      </trkpt>
      <trkpt lat="46.99123" lon="8.68916">
        <ele>560</ele>
        <time>2021-08-05T10:27:36.489Z</time>
      </trkpt>
      <trkpt lat="46.99124" lon="8.68916">
        <ele>559</ele>
        <time>2021-08-05T10:27:37.489Z</time>
      </trkpt>
      <trkpt lat="46.99124" lon="8.68916">
        <ele>558</ele>
        <time>2021-08-05T10:27:38.489Z</time>
      </trkpt>
      <trkpt lat="46.99124" lon="8.68916">
        <ele>558</ele>
        <time>2021-08-05T10:27:39.490Z</time>
      </trkpt>
      <trkpt lat="46.99127" lon="8.68915">
        <ele>558</ele>
        <time>2021-08-05T10:27:40.489Z</time>
      </trkpt>
      <trkpt lat="46.99127" lon="8.68914">
        <ele>558</ele>
        <time>2021-08-05T10:27:41.489Z</time>
      </trkpt>
      <trkpt lat="46.99127" lon="8.68914">
        <ele>558</ele>
        <time>2021-08-05T10:27:42.489Z</time>
      </trkpt>
      <trkpt lat="46.99125" lon="8.68912">
        <ele>554</ele>
        <time>2021-08-05T10:27:43.490Z</time>
      </trkpt>
      <trkpt lat="46.99125" lon="8.68912">
        <ele>554</ele>
        <time>2021-08-05T10:27:44.489Z</time>
      </trkpt>
      <trkpt lat="46.99124" lon="8.68912">
        <ele>554</ele>
        <time>2021-08-05T10:27:45.489Z</time>
      </trkpt>
      <trkpt lat="46.99124" lon="8.68916">
        <ele>554</ele>
        <time>2021-08-05T10:27:46.489Z</time>
      </trkpt>
      <trkpt lat="46.99125" lon="8.68917">
        <ele>554</ele>
        <time>2021-08-05T10:27:47.489Z</time>
      </trkpt>
      <trkpt lat="46.99125" lon="8.68919">
        <ele>554</ele>
        <time>2021-08-05T10:27:48.489Z</time>
      </trkpt>
      <trkpt lat="46.99126" lon="8.6892">
        <ele>555</ele>
        <time>2021-08-05T10:27:49.489Z</time>
      </trkpt>
      <trkpt lat="46.99126" lon="8.68922">
        <ele>555</ele>
        <time>2021-08-05T10:27:50.490Z</time>
      </trkpt>
      <trkpt lat="46.99127" lon="8.68923">
        <ele>555</ele>
        <time>2021-08-05T10:27:51.489Z</time>
      </trkpt>
      <trkpt lat="46.99127" lon="8.68925">
        <ele>554</ele>
        <time>2021-08-05T10:27:52.490Z</time>
      </trkpt>
      <trkpt lat="46.99128" lon="8.68927">
        <ele>554</ele>
        <time>2021-08-05T10:27:53.490Z</time>
      </trkpt>
      <trkpt lat="46.99128" lon="8.68929">
        <ele>554</ele>
        <time>2021-08-05T10:27:54.490Z</time>
      </trkpt>
      <trkpt lat="46.99129" lon="8.68931">
        <ele>554</ele>
        <time>2021-08-05T10:27:55.489Z</time>
      </trkpt>
      <trkpt lat="46.99129" lon="8.68933">
        <ele>554</ele>
        <time>2021-08-05T10:27:56.489Z</time>
      </trkpt>
      <trkpt lat="46.9913" lon="8.68935">
        <ele>554</ele>
        <time>2021-08-05T10:27:57.490Z</time>
      </trkpt>
      <trkpt lat="46.9913" lon="8.68936">
        <ele>555</ele>
        <time>2021-08-05T10:27:58.489Z</time>
      </trkpt>
      <trkpt lat="46.99131" lon="8.68937">
        <ele>555</ele>
        <time>2021-08-05T10:27:59.489Z</time>
      </trkpt>
      <trkpt lat="46.99132" lon="8.68938">
        <ele>555</ele>
        <time>2021-08-05T10:28:00.490Z</time>
      </trkpt>
      <trkpt lat="46.99132" lon="8.68939">
        <ele>555</ele>
        <time>2021-08-05T10:28:01.489Z</time>
      </trkpt>
      <trkpt lat="46.99133" lon="8.6894">
        <ele>555</ele>
        <time>2021-08-05T10:28:02.490Z</time>
      </trkpt>
      <trkpt lat="46.99134" lon="8.68941">
        <ele>555</ele>
        <time>2021-08-05T10:28:03.489Z</time>
      </trkpt>
      <trkpt lat="46.99134" lon="8.68942">
        <ele>556</ele>
        <time>2021-08-05T10:28:04.489Z</time>
      </trkpt>
      <trkpt lat="46.99134" lon="8.68944">
        <ele>556</ele>
        <time>2021-08-05T10:28:05.490Z</time>
      </trkpt>
      <trkpt lat="46.99135" lon="8.68945">
        <ele>557</ele>
        <time>2021-08-05T10:28:06.490Z</time>
      </trkpt>
      <trkpt lat="46.99136" lon="8.68947">
        <ele>557</ele>
        <time>2021-08-05T10:28:07.490Z</time>
      </trkpt>
      <trkpt lat="46.99136" lon="8.68948">
        <ele>557</ele>
        <time>2021-08-05T10:28:08.489Z</time>
      </trkpt>
      <trkpt lat="46.99136" lon="8.6895">
        <ele>557</ele>
        <time>2021-08-05T10:28:09.489Z</time>
      </trkpt>
      <trkpt lat="46.99137" lon="8.68951">
        <ele>557</ele>
        <time>2021-08-05T10:28:10.489Z</time>
      </trkpt>
      <trkpt lat="46.99138" lon="8.68952">
        <ele>556</ele>
        <time>2021-08-05T10:28:11.490Z</time>
      </trkpt>
      <trkpt lat="46.99139" lon="8.68953">
        <ele>556</ele>
        <time>2021-08-05T10:28:12.490Z</time>
      </trkpt>
      <trkpt lat="46.99139" lon="8.68954">
        <ele>555</ele>
        <time>2021-08-05T10:28:13.489Z</time>
      </trkpt>
      <trkpt lat="46.9914" lon="8.68955">
        <ele>555</ele>
        <time>2021-08-05T10:28:14.489Z</time>
      </trkpt>
      <trkpt lat="46.99141" lon="8.68956">
        <ele>555</ele>
        <time>2021-08-05T10:28:15.490Z</time>
      </trkpt>
      <trkpt lat="46.99141" lon="8.68957">
        <ele>555</ele>
        <time>2021-08-05T10:28:16.490Z</time>
      </trkpt>
      <trkpt lat="46.99143" lon="8.68957">
        <ele>555</ele>
        <time>2021-08-05T10:28:17.490Z</time>
      </trkpt>
      <trkpt lat="46.99144" lon="8.68958">
        <ele>555</ele>
        <time>2021-08-05T10:28:18.489Z</time>
      </trkpt>
      <trkpt lat="46.99145" lon="8.68959">
        <ele>555</ele>
        <time>2021-08-05T10:28:19.490Z</time>
      </trkpt>
      <trkpt lat="46.99146" lon="8.6896">
        <ele>555</ele>
        <time>2021-08-05T10:28:20.490Z</time>
      </trkpt>
      <trkpt lat="46.99146" lon="8.68962">
        <ele>556</ele>
        <time>2021-08-05T10:28:21.489Z</time>
      </trkpt>
      <trkpt lat="46.99147" lon="8.68962">
        <ele>557</ele>
        <time>2021-08-05T10:28:22.489Z</time>
      </trkpt>
      <trkpt lat="46.99148" lon="8.68963">
        <ele>557</ele>
        <time>2021-08-05T10:28:23.489Z</time>
      </trkpt>
      <trkpt lat="46.99149" lon="8.68964">
        <ele>557</ele>
        <time>2021-08-05T10:28:24.489Z</time>
      </trkpt>
      <trkpt lat="46.9915" lon="8.68965">
        <ele>557</ele>
        <time>2021-08-05T10:28:25.489Z</time>
      </trkpt>
      <trkpt lat="46.99151" lon="8.68966">
        <ele>557</ele>
        <time>2021-08-05T10:28:26.489Z</time>
      </trkpt>
      <trkpt lat="46.99151" lon="8.68967">
        <ele>558</ele>
        <time>2021-08-05T10:28:27.489Z</time>
      </trkpt>
      <trkpt lat="46.99152" lon="8.68969">
        <ele>558</ele>
        <time>2021-08-05T10:28:28.489Z</time>
      </trkpt>
      <trkpt lat="46.99152" lon="8.6897">
        <ele>559</ele>
        <time>2021-08-05T10:28:29.489Z</time>
      </trkpt>
      <trkpt lat="46.99152" lon="8.68971">
        <ele>560</ele>
        <time>2021-08-05T10:28:30.489Z</time>
      </trkpt>
      <trkpt lat="46.99152" lon="8.68973">
        <ele>561</ele>
        <time>2021-08-05T10:28:31.489Z</time>
      </trkpt>
      <trkpt lat="46.99152" lon="8.68975">
        <ele>561</ele>
        <time>2021-08-05T10:28:32.490Z</time>
      </trkpt>
      <trkpt lat="46.99152" lon="8.68976">
        <ele>562</ele>
        <time>2021-08-05T10:28:33.490Z</time>
      </trkpt>
      <trkpt lat="46.99152" lon="8.68978">
        <ele>562</ele>
        <time>2021-08-05T10:28:34.489Z</time>
      </trkpt>
      <trkpt lat="46.99152" lon="8.68979">
        <ele>561</ele>
        <time>2021-08-05T10:28:35.489Z</time>
      </trkpt>
      <trkpt lat="46.99152" lon="8.68982">
        <ele>561</ele>
        <time>2021-08-05T10:28:36.489Z</time>
      </trkpt>
      <trkpt lat="46.99152" lon="8.68984">
        <ele>560</ele>
        <time>2021-08-05T10:28:37.490Z</time>
      </trkpt>
      <trkpt lat="46.99152" lon="8.68986">
        <ele>560</ele>
        <time>2021-08-05T10:28:38.490Z</time>
      </trkpt>
      <trkpt lat="46.99152" lon="8.68988">
        <ele>559</ele>
        <time>2021-08-05T10:28:39.490Z</time>
      </trkpt>
      <trkpt lat="46.99152" lon="8.68989">
        <ele>558</ele>
        <time>2021-08-05T10:28:40.490Z</time>
      </trkpt>
      <trkpt lat="46.99152" lon="8.68991">
        <ele>557</ele>
        <time>2021-08-05T10:28:41.489Z</time>
      </trkpt>
      <trkpt lat="46.99152" lon="8.68993">
        <ele>557</ele>
        <time>2021-08-05T10:28:42.489Z</time>
      </trkpt>
      <trkpt lat="46.99152" lon="8.68994">
        <ele>556</ele>
        <time>2021-08-05T10:28:43.490Z</time>
      </trkpt>
      <trkpt lat="46.99152" lon="8.68996">
        <ele>556</ele>
        <time>2021-08-05T10:28:44.490Z</time>
      </trkpt>
      <trkpt lat="46.99152" lon="8.68997">
        <ele>556</ele>
        <time>2021-08-05T10:28:45.490Z</time>
      </trkpt>
      <trkpt lat="46.99151" lon="8.68998">
        <ele>556</ele>
        <time>2021-08-05T10:28:46.489Z</time>
      </trkpt>
      <trkpt lat="46.99151" lon="8.69">
        <ele>556</ele>
        <time>2021-08-05T10:28:47.489Z</time>
      </trkpt>
      <trkpt lat="46.9915" lon="8.69001">
        <ele>556</ele>
        <time>2021-08-05T10:28:48.489Z</time>
      </trkpt>
      <trkpt lat="46.99149" lon="8.69003">
        <ele>556</ele>
        <time>2021-08-05T10:28:49.489Z</time>
      </trkpt>
      <trkpt lat="46.99149" lon="8.69004">
        <ele>556</ele>
        <time>2021-08-05T10:28:50.489Z</time>
      </trkpt>
      <trkpt lat="46.99148" lon="8.69005">
        <ele>556</ele>
        <time>2021-08-05T10:28:51.489Z</time>
      </trkpt>
      <trkpt lat="46.99148" lon="8.69007">
        <ele>556</ele>
        <time>2021-08-05T10:28:52.490Z</time>
      </trkpt>
      <trkpt lat="46.99147" lon="8.69009">
        <ele>556</ele>
        <time>2021-08-05T10:28:53.489Z</time>
      </trkpt>
      <trkpt lat="46.99147" lon="8.6901">
        <ele>555</ele>
        <time>2021-08-05T10:28:54.490Z</time>
      </trkpt>
      <trkpt lat="46.99147" lon="8.69012">
        <ele>555</ele>
        <time>2021-08-05T10:28:55.489Z</time>
      </trkpt>
      <trkpt lat="46.99147" lon="8.69013">
        <ele>554</ele>
        <time>2021-08-05T10:28:56.490Z</time>
      </trkpt>
      <trkpt lat="46.99147" lon="8.69014">
        <ele>554</ele>
        <time>2021-08-05T10:28:57.489Z</time>
      </trkpt>
      <trkpt lat="46.99147" lon="8.69015">
        <ele>554</ele>
        <time>2021-08-05T10:28:58.490Z</time>
      </trkpt>
      <trkpt lat="46.99147" lon="8.69017">
        <ele>554</ele>
        <time>2021-08-05T10:28:59.489Z</time>
      </trkpt>
      <trkpt lat="46.99147" lon="8.69019">
        <ele>553</ele>
        <time>2021-08-05T10:29:00.490Z</time>
      </trkpt>
      <trkpt lat="46.99147" lon="8.6902">
        <ele>553</ele>
        <time>2021-08-05T10:29:01.489Z</time>
      </trkpt>
      <trkpt lat="46.99147" lon="8.6902">
        <ele>553</ele>
        <time>2021-08-05T10:29:02.490Z</time>
      </trkpt>
      <trkpt lat="46.99147" lon="8.69021">
        <ele>553</ele>
        <time>2021-08-05T10:29:03.489Z</time>
      </trkpt>
      <trkpt lat="46.99147" lon="8.69022">
        <ele>552</ele>
        <time>2021-08-05T10:29:04.489Z</time>
      </trkpt>
      <trkpt lat="46.99147" lon="8.69023">
        <ele>552</ele>
        <time>2021-08-05T10:29:05.490Z</time>
      </trkpt>
      <trkpt lat="46.99147" lon="8.69025">
        <ele>553</ele>
        <time>2021-08-05T10:29:06.489Z</time>
      </trkpt>
      <trkpt lat="46.99145" lon="8.69027">
        <ele>553</ele>
        <time>2021-08-05T10:29:07.490Z</time>
      </trkpt>
      <trkpt lat="46.99145" lon="8.69028">
        <ele>554</ele>
        <time>2021-08-05T10:29:08.490Z</time>
      </trkpt>
      <trkpt lat="46.99144" lon="8.6903">
        <ele>554</ele>
        <time>2021-08-05T10:29:09.489Z</time>
      </trkpt>
      <trkpt lat="46.99143" lon="8.69031">
        <ele>554</ele>
        <time>2021-08-05T10:29:10.489Z</time>
      </trkpt>
      <trkpt lat="46.99143" lon="8.69032">
        <ele>555</ele>
        <time>2021-08-05T10:29:11.490Z</time>
      </trkpt>
      <trkpt lat="46.99142" lon="8.69035">
        <ele>555</ele>
        <time>2021-08-05T10:29:12.489Z</time>
      </trkpt>
      <trkpt lat="46.99141" lon="8.69036">
        <ele>555</ele>
        <time>2021-08-05T10:29:13.490Z</time>
      </trkpt>
      <trkpt lat="46.99139" lon="8.69038">
        <ele>556</ele>
        <time>2021-08-05T10:29:14.490Z</time>
      </trkpt>
      <trkpt lat="46.99139" lon="8.69039">
        <ele>556</ele>
        <time>2021-08-05T10:29:15.490Z</time>
      </trkpt>
      <trkpt lat="46.99138" lon="8.69041">
        <ele>556</ele>
        <time>2021-08-05T10:29:16.489Z</time>
      </trkpt>
      <trkpt lat="46.99138" lon="8.69042">
        <ele>557</ele>
        <time>2021-08-05T10:29:17.489Z</time>
      </trkpt>
      <trkpt lat="46.99138" lon="8.69043">
        <ele>556</ele>
        <time>2021-08-05T10:29:18.490Z</time>
      </trkpt>
      <trkpt lat="46.99137" lon="8.69044">
        <ele>556</ele>
        <time>2021-08-05T10:29:19.490Z</time>
      </trkpt>
      <trkpt lat="46.99137" lon="8.69046">
        <ele>556</ele>
        <time>2021-08-05T10:29:20.489Z</time>
      </trkpt>
      <trkpt lat="46.99137" lon="8.69047">
        <ele>555</ele>
        <time>2021-08-05T10:29:21.490Z</time>
      </trkpt>
      <trkpt lat="46.99137" lon="8.69048">
        <ele>555</ele>
        <time>2021-08-05T10:29:22.490Z</time>
      </trkpt>
      <trkpt lat="46.99137" lon="8.6905">
        <ele>554</ele>
        <time>2021-08-05T10:29:23.490Z</time>
      </trkpt>
      <trkpt lat="46.99137" lon="8.69051">
        <ele>554</ele>
        <time>2021-08-05T10:29:24.489Z</time>
      </trkpt>
      <trkpt lat="46.99136" lon="8.69052">
        <ele>553</ele>
        <time>2021-08-05T10:29:25.490Z</time>
      </trkpt>
      <trkpt lat="46.99136" lon="8.69054">
        <ele>553</ele>
        <time>2021-08-05T10:29:26.489Z</time>
      </trkpt>
      <trkpt lat="46.99136" lon="8.69055">
        <ele>553</ele>
        <time>2021-08-05T10:29:27.490Z</time>
      </trkpt>
      <trkpt lat="46.99136" lon="8.69057">
        <ele>553</ele>
        <time>2021-08-05T10:29:28.490Z</time>
      </trkpt>
      <trkpt lat="46.99136" lon="8.69058">
        <ele>553</ele>
        <time>2021-08-05T10:29:29.489Z</time>
      </trkpt>
      <trkpt lat="46.99136" lon="8.6906">
        <ele>553</ele>
        <time>2021-08-05T10:29:30.489Z</time>
      </trkpt>
      <trkpt lat="46.99136" lon="8.69061">
        <ele>553</ele>
        <time>2021-08-05T10:29:31.489Z</time>
      </trkpt>
      <trkpt lat="46.99136" lon="8.69062">
        <ele>553</ele>
        <time>2021-08-05T10:29:32.489Z</time>
      </trkpt>
      <trkpt lat="46.99136" lon="8.69064">
        <ele>553</ele>
        <time>2021-08-05T10:29:33.490Z</time>
      </trkpt>
      <trkpt lat="46.99136" lon="8.69065">
        <ele>554</ele>
        <time>2021-08-05T10:29:34.490Z</time>
      </trkpt>
      <trkpt lat="46.99136" lon="8.69066">
        <ele>554</ele>
        <time>2021-08-05T10:29:35.490Z</time>
      </trkpt>
      <trkpt lat="46.99136" lon="8.69068">
        <ele>554</ele>
        <time>2021-08-05T10:29:36.489Z</time>
      </trkpt>
      <trkpt lat="46.99135" lon="8.69068">
        <ele>554</ele>
        <time>2021-08-05T10:29:37.489Z</time>
      </trkpt>
      <trkpt lat="46.99135" lon="8.69069">
        <ele>554</ele>
        <time>2021-08-05T10:29:38.490Z</time>
      </trkpt>
      <trkpt lat="46.99135" lon="8.69069">
        <ele>554</ele>
        <time>2021-08-05T10:29:39.490Z</time>
      </trkpt>
      <trkpt lat="46.99134" lon="8.6907">
        <ele>554</ele>
        <time>2021-08-05T10:29:40.489Z</time>
      </trkpt>
      <trkpt lat="46.99132" lon="8.69071">
        <ele>554</ele>
        <time>2021-08-05T10:29:41.490Z</time>
      </trkpt>
      <trkpt lat="46.99131" lon="8.69073">
        <ele>555</ele>
        <time>2021-08-05T10:29:42.489Z</time>
      </trkpt>
      <trkpt lat="46.99131" lon="8.69074">
        <ele>555</ele>
        <time>2021-08-05T10:29:43.489Z</time>
      </trkpt>
      <trkpt lat="46.9913" lon="8.69075">
        <ele>555</ele>
        <time>2021-08-05T10:29:44.489Z</time>
      </trkpt>
      <trkpt lat="46.99129" lon="8.69078">
        <ele>556</ele>
        <time>2021-08-05T10:29:45.489Z</time>
      </trkpt>
      <trkpt lat="46.99128" lon="8.69079">
        <ele>556</ele>
        <time>2021-08-05T10:29:46.489Z</time>
      </trkpt>
      <trkpt lat="46.99128" lon="8.6908">
        <ele>557</ele>
        <time>2021-08-05T10:29:47.489Z</time>
      </trkpt>
      <trkpt lat="46.99127" lon="8.6908">
        <ele>557</ele>
        <time>2021-08-05T10:29:48.490Z</time>
      </trkpt>
      <trkpt lat="46.99127" lon="8.6908">
        <ele>558</ele>
        <time>2021-08-05T10:29:49.490Z</time>
      </trkpt>
      <trkpt lat="46.99127" lon="8.69081">
        <ele>558</ele>
        <time>2021-08-05T10:29:50.489Z</time>
      </trkpt>
      <trkpt lat="46.99128" lon="8.69082">
        <ele>558</ele>
        <time>2021-08-05T10:29:51.489Z</time>
      </trkpt>
      <trkpt lat="46.99127" lon="8.69082">
        <ele>559</ele>
        <time>2021-08-05T10:29:52.490Z</time>
      </trkpt>
      <trkpt lat="46.99127" lon="8.69083">
        <ele>559</ele>
        <time>2021-08-05T10:29:53.490Z</time>
      </trkpt>
      <trkpt lat="46.99125" lon="8.69083">
        <ele>560</ele>
        <time>2021-08-05T10:29:54.490Z</time>
      </trkpt>
      <trkpt lat="46.99124" lon="8.69083">
        <ele>561</ele>
        <time>2021-08-05T10:29:55.490Z</time>
      </trkpt>
      <trkpt lat="46.99123" lon="8.69083">
        <ele>562</ele>
        <time>2021-08-05T10:29:56.489Z</time>
      </trkpt>
      <trkpt lat="46.99123" lon="8.69084">
        <ele>562</ele>
        <time>2021-08-05T10:29:57.489Z</time>
      </trkpt>
      <trkpt lat="46.99122" lon="8.69086">
        <ele>562</ele>
        <time>2021-08-05T10:29:58.490Z</time>
      </trkpt>
      <trkpt lat="46.99121" lon="8.69087">
        <ele>562</ele>
        <time>2021-08-05T10:29:59.490Z</time>
      </trkpt>
      <trkpt lat="46.9912" lon="8.69088">
        <ele>561</ele>
        <time>2021-08-05T10:30:00.489Z</time>
      </trkpt>
      <trkpt lat="46.99119" lon="8.69089">
        <ele>561</ele>
        <time>2021-08-05T10:30:01.490Z</time>
      </trkpt>
      <trkpt lat="46.99119" lon="8.69089">
        <ele>561</ele>
        <time>2021-08-05T10:30:02.490Z</time>
      </trkpt>
      <trkpt lat="46.99118" lon="8.6909">
        <ele>560</ele>
        <time>2021-08-05T10:30:03.490Z</time>
      </trkpt>
      <trkpt lat="46.99117" lon="8.69091">
        <ele>560</ele>
        <time>2021-08-05T10:30:04.489Z</time>
      </trkpt>
      <trkpt lat="46.99116" lon="8.69092">
        <ele>560</ele>
        <time>2021-08-05T10:30:05.490Z</time>
      </trkpt>
      <trkpt lat="46.99116" lon="8.69094">
        <ele>559</ele>
        <time>2021-08-05T10:30:06.490Z</time>
      </trkpt>
      <trkpt lat="46.99115" lon="8.69095">
        <ele>559</ele>
        <time>2021-08-05T10:30:07.490Z</time>
      </trkpt>
      <trkpt lat="46.99114" lon="8.69096">
        <ele>559</ele>
        <time>2021-08-05T10:30:08.489Z</time>
      </trkpt>
      <trkpt lat="46.99113" lon="8.69098">
        <ele>558</ele>
        <time>2021-08-05T10:30:09.489Z</time>
      </trkpt>
      <trkpt lat="46.99112" lon="8.691">
        <ele>558</ele>
        <time>2021-08-05T10:30:10.489Z</time>
      </trkpt>
      <trkpt lat="46.99112" lon="8.69102">
        <ele>558</ele>
        <time>2021-08-05T10:30:11.490Z</time>
      </trkpt>
      <trkpt lat="46.99112" lon="8.69104">
        <ele>558</ele>
        <time>2021-08-05T10:30:12.490Z</time>
      </trkpt>
      <trkpt lat="46.99112" lon="8.69105">
        <ele>558</ele>
        <time>2021-08-05T10:30:13.490Z</time>
      </trkpt>
      <trkpt lat="46.99112" lon="8.69107">
        <ele>558</ele>
        <time>2021-08-05T10:30:14.490Z</time>
      </trkpt>
      <trkpt lat="46.99111" lon="8.69109">
        <ele>558</ele>
        <time>2021-08-05T10:30:15.490Z</time>
      </trkpt>
      <trkpt lat="46.9911" lon="8.69111">
        <ele>558</ele>
        <time>2021-08-05T10:30:16.490Z</time>
      </trkpt>
      <trkpt lat="46.99108" lon="8.69112">
        <ele>557</ele>
        <time>2021-08-05T10:30:17.489Z</time>
      </trkpt>
      <trkpt lat="46.99107" lon="8.69115">
        <ele>557</ele>
        <time>2021-08-05T10:30:18.490Z</time>
      </trkpt>
      <trkpt lat="46.99106" lon="8.69116">
        <ele>557</ele>
        <time>2021-08-05T10:30:19.489Z</time>
      </trkpt>
      <trkpt lat="46.99105" lon="8.69118">
        <ele>557</ele>
        <time>2021-08-05T10:30:20.489Z</time>
      </trkpt>
      <trkpt lat="46.99104" lon="8.6912">
        <ele>558</ele>
        <time>2021-08-05T10:30:21.489Z</time>
      </trkpt>
      <trkpt lat="46.99103" lon="8.69121">
        <ele>558</ele>
        <time>2021-08-05T10:30:22.489Z</time>
      </trkpt>
      <trkpt lat="46.99103" lon="8.69123">
        <ele>558</ele>
        <time>2021-08-05T10:30:23.489Z</time>
      </trkpt>
      <trkpt lat="46.99102" lon="8.69124">
        <ele>558</ele>
        <time>2021-08-05T10:30:24.489Z</time>
      </trkpt>
      <trkpt lat="46.99102" lon="8.69125">
        <ele>559</ele>
        <time>2021-08-05T10:30:25.490Z</time>
      </trkpt>
      <trkpt lat="46.99101" lon="8.69126">
        <ele>560</ele>
        <time>2021-08-05T10:30:26.489Z</time>
      </trkpt>
      <trkpt lat="46.99101" lon="8.69128">
        <ele>560</ele>
        <time>2021-08-05T10:30:27.490Z</time>
      </trkpt>
      <trkpt lat="46.991" lon="8.69129">
        <ele>560</ele>
        <time>2021-08-05T10:30:28.489Z</time>
      </trkpt>
      <trkpt lat="46.99099" lon="8.6913">
        <ele>561</ele>
        <time>2021-08-05T10:30:29.490Z</time>
      </trkpt>
      <trkpt lat="46.99099" lon="8.69132">
        <ele>561</ele>
        <time>2021-08-05T10:30:30.490Z</time>
      </trkpt>
      <trkpt lat="46.99099" lon="8.69134">
        <ele>562</ele>
        <time>2021-08-05T10:30:31.489Z</time>
      </trkpt>
      <trkpt lat="46.99098" lon="8.69136">
        <ele>562</ele>
        <time>2021-08-05T10:30:32.489Z</time>
      </trkpt>
      <trkpt lat="46.99098" lon="8.69137">
        <ele>561</ele>
        <time>2021-08-05T10:30:33.490Z</time>
      </trkpt>
      <trkpt lat="46.99098" lon="8.69139">
        <ele>561</ele>
        <time>2021-08-05T10:30:34.490Z</time>
      </trkpt>
      <trkpt lat="46.99098" lon="8.6914">
        <ele>561</ele>
        <time>2021-08-05T10:30:35.490Z</time>
      </trkpt>
      <trkpt lat="46.99097" lon="8.69142">
        <ele>561</ele>
        <time>2021-08-05T10:30:36.490Z</time>
      </trkpt>
      <trkpt lat="46.99096" lon="8.69144">
        <ele>562</ele>
        <time>2021-08-05T10:30:37.490Z</time>
      </trkpt>
      <trkpt lat="46.99095" lon="8.69147">
        <ele>562</ele>
        <time>2021-08-05T10:30:38.490Z</time>
      </trkpt>
      <trkpt lat="46.99094" lon="8.6915">
        <ele>563</ele>
        <time>2021-08-05T10:30:39.490Z</time>
      </trkpt>
      <trkpt lat="46.99094" lon="8.69152">
        <ele>563</ele>
        <time>2021-08-05T10:30:40.490Z</time>
      </trkpt>
      <trkpt lat="46.99094" lon="8.69154">
        <ele>563</ele>
        <time>2021-08-05T10:30:41.489Z</time>
      </trkpt>
      <trkpt lat="46.99093" lon="8.69156">
        <ele>564</ele>
        <time>2021-08-05T10:30:42.490Z</time>
      </trkpt>
      <trkpt lat="46.99093" lon="8.69157">
        <ele>563</ele>
        <time>2021-08-05T10:30:43.490Z</time>
      </trkpt>
      <trkpt lat="46.99093" lon="8.69159">
        <ele>563</ele>
        <time>2021-08-05T10:30:44.490Z</time>
      </trkpt>
      <trkpt lat="46.99093" lon="8.6916">
        <ele>563</ele>
        <time>2021-08-05T10:30:45.490Z</time>
      </trkpt>
      <trkpt lat="46.99093" lon="8.6916">
        <ele>563</ele>
        <time>2021-08-05T10:30:46.490Z</time>
      </trkpt>
      <trkpt lat="46.99093" lon="8.69161">
        <ele>562</ele>
        <time>2021-08-05T10:30:47.489Z</time>
      </trkpt>
      <trkpt lat="46.99094" lon="8.69163">
        <ele>562</ele>
        <time>2021-08-05T10:30:48.490Z</time>
      </trkpt>
      <trkpt lat="46.99093" lon="8.69164">
        <ele>562</ele>
        <time>2021-08-05T10:30:49.489Z</time>
      </trkpt>
      <trkpt lat="46.99093" lon="8.69166">
        <ele>561</ele>
        <time>2021-08-05T10:30:50.490Z</time>
      </trkpt>
      <trkpt lat="46.99093" lon="8.69167">
        <ele>560</ele>
        <time>2021-08-05T10:30:51.490Z</time>
      </trkpt>
      <trkpt lat="46.99093" lon="8.69168">
        <ele>560</ele>
        <time>2021-08-05T10:30:52.489Z</time>
      </trkpt>
      <trkpt lat="46.99093" lon="8.6917">
        <ele>560</ele>
        <time>2021-08-05T10:30:53.490Z</time>
      </trkpt>
      <trkpt lat="46.99093" lon="8.69171">
        <ele>559</ele>
        <time>2021-08-05T10:30:54.489Z</time>
      </trkpt>
      <trkpt lat="46.99092" lon="8.69172">
        <ele>559</ele>
        <time>2021-08-05T10:30:55.490Z</time>
      </trkpt>
      <trkpt lat="46.99091" lon="8.69173">
        <ele>558</ele>
        <time>2021-08-05T10:30:56.489Z</time>
      </trkpt>
      <trkpt lat="46.99091" lon="8.69174">
        <ele>558</ele>
        <time>2021-08-05T10:30:57.490Z</time>
      </trkpt>
      <trkpt lat="46.9909" lon="8.69175">
        <ele>557</ele>
        <time>2021-08-05T10:30:58.489Z</time>
      </trkpt>
      <trkpt lat="46.99089" lon="8.69176">
        <ele>557</ele>
        <time>2021-08-05T10:30:59.489Z</time>
      </trkpt>
      <trkpt lat="46.99088" lon="8.69177">
        <ele>558</ele>
        <time>2021-08-05T10:31:00.489Z</time>
      </trkpt>
      <trkpt lat="46.99088" lon="8.69179">
        <ele>558</ele>
        <time>2021-08-05T10:31:01.489Z</time>
      </trkpt>
      <trkpt lat="46.99087" lon="8.6918">
        <ele>559</ele>
        <time>2021-08-05T10:31:02.489Z</time>
      </trkpt>
      <trkpt lat="46.99087" lon="8.69182">
        <ele>559</ele>
        <time>2021-08-05T10:31:03.489Z</time>
      </trkpt>
      <trkpt lat="46.99087" lon="8.69183">
        <ele>559</ele>
        <time>2021-08-05T10:31:04.490Z</time>
      </trkpt>
      <trkpt lat="46.99087" lon="8.69185">
        <ele>559</ele>
        <time>2021-08-05T10:31:05.489Z</time>
      </trkpt>
      <trkpt lat="46.99087" lon="8.69187">
        <ele>559</ele>
        <time>2021-08-05T10:31:06.490Z</time>
      </trkpt>
      <trkpt lat="46.99087" lon="8.69189">
        <ele>559</ele>
        <time>2021-08-05T10:31:07.490Z</time>
      </trkpt>
      <trkpt lat="46.99087" lon="8.6919">
        <ele>560</ele>
        <time>2021-08-05T10:31:08.490Z</time>
      </trkpt>
      <trkpt lat="46.99086" lon="8.69192">
        <ele>560</ele>
        <time>2021-08-05T10:31:09.490Z</time>
      </trkpt>
      <trkpt lat="46.99086" lon="8.69194">
        <ele>560</ele>
        <time>2021-08-05T10:31:10.490Z</time>
      </trkpt>
      <trkpt lat="46.99086" lon="8.69195">
        <ele>560</ele>
        <time>2021-08-05T10:31:11.490Z</time>
      </trkpt>
      <trkpt lat="46.99085" lon="8.69196">
        <ele>560</ele>
        <time>2021-08-05T10:31:12.489Z</time>
      </trkpt>
      <trkpt lat="46.99085" lon="8.69197">
        <ele>559</ele>
        <time>2021-08-05T10:31:13.490Z</time>
      </trkpt>
      <trkpt lat="46.99084" lon="8.69198">
        <ele>559</ele>
        <time>2021-08-05T10:31:14.490Z</time>
      </trkpt>
      <trkpt lat="46.99084" lon="8.69199">
        <ele>559</ele>
        <time>2021-08-05T10:31:15.489Z</time>
      </trkpt>
      <trkpt lat="46.99084" lon="8.692">
        <ele>558</ele>
        <time>2021-08-05T10:31:16.490Z</time>
      </trkpt>
      <trkpt lat="46.99084" lon="8.69202">
        <ele>558</ele>
        <time>2021-08-05T10:31:17.489Z</time>
      </trkpt>
      <trkpt lat="46.99083" lon="8.69203">
        <ele>557</ele>
        <time>2021-08-05T10:31:18.490Z</time>
      </trkpt>
      <trkpt lat="46.99083" lon="8.69204">
        <ele>556</ele>
        <time>2021-08-05T10:31:19.490Z</time>
      </trkpt>
      <trkpt lat="46.99082" lon="8.69206">
        <ele>556</ele>
        <time>2021-08-05T10:31:20.490Z</time>
      </trkpt>
      <trkpt lat="46.99082" lon="8.69207">
        <ele>555</ele>
        <time>2021-08-05T10:31:21.489Z</time>
      </trkpt>
      <trkpt lat="46.99081" lon="8.69208">
        <ele>555</ele>
        <time>2021-08-05T10:31:22.489Z</time>
      </trkpt>
      <trkpt lat="46.9908" lon="8.6921">
        <ele>555</ele>
        <time>2021-08-05T10:31:23.490Z</time>
      </trkpt>
      <trkpt lat="46.99079" lon="8.69211">
        <ele>554</ele>
        <time>2021-08-05T10:31:24.489Z</time>
      </trkpt>
      <trkpt lat="46.99078" lon="8.69212">
        <ele>554</ele>
        <time>2021-08-05T10:31:25.489Z</time>
      </trkpt>
      <trkpt lat="46.99077" lon="8.69214">
        <ele>554</ele>
        <time>2021-08-05T10:31:26.489Z</time>
      </trkpt>
      <trkpt lat="46.99077" lon="8.69215">
        <ele>554</ele>
        <time>2021-08-05T10:31:27.489Z</time>
      </trkpt>
      <trkpt lat="46.99076" lon="8.69216">
        <ele>554</ele>
        <time>2021-08-05T10:31:28.490Z</time>
      </trkpt>
      <trkpt lat="46.99076" lon="8.69217">
        <ele>554</ele>
        <time>2021-08-05T10:31:29.489Z</time>
      </trkpt>
      <trkpt lat="46.99076" lon="8.69219">
        <ele>554</ele>
        <time>2021-08-05T10:31:30.490Z</time>
      </trkpt>
      <trkpt lat="46.99075" lon="8.6922">
        <ele>555</ele>
        <time>2021-08-05T10:31:31.490Z</time>
      </trkpt>
      <trkpt lat="46.99075" lon="8.69222">
        <ele>555</ele>
        <time>2021-08-05T10:31:32.489Z</time>
      </trkpt>
      <trkpt lat="46.99075" lon="8.69223">
        <ele>555</ele>
        <time>2021-08-05T10:31:33.490Z</time>
      </trkpt>
      <trkpt lat="46.99074" lon="8.69225">
        <ele>556</ele>
        <time>2021-08-05T10:31:34.489Z</time>
      </trkpt>
      <trkpt lat="46.99074" lon="8.69226">
        <ele>556</ele>
        <time>2021-08-05T10:31:35.490Z</time>
      </trkpt>
      <trkpt lat="46.99073" lon="8.69228">
        <ele>557</ele>
        <time>2021-08-05T10:31:36.489Z</time>
      </trkpt>
      <trkpt lat="46.99073" lon="8.69229">
        <ele>557</ele>
        <time>2021-08-05T10:31:37.490Z</time>
      </trkpt>
      <trkpt lat="46.99072" lon="8.6923">
        <ele>557</ele>
        <time>2021-08-05T10:31:38.490Z</time>
      </trkpt>
      <trkpt lat="46.99072" lon="8.69232">
        <ele>557</ele>
        <time>2021-08-05T10:31:39.489Z</time>
      </trkpt>
      <trkpt lat="46.99071" lon="8.69233">
        <ele>556</ele>
        <time>2021-08-05T10:31:40.490Z</time>
      </trkpt>
      <trkpt lat="46.9907" lon="8.69235">
        <ele>556</ele>
        <time>2021-08-05T10:31:41.490Z</time>
      </trkpt>
      <trkpt lat="46.9907" lon="8.69237">
        <ele>556</ele>
        <time>2021-08-05T10:31:42.490Z</time>
      </trkpt>
      <trkpt lat="46.9907" lon="8.6924">
        <ele>556</ele>
        <time>2021-08-05T10:31:43.490Z</time>
      </trkpt>
      <trkpt lat="46.99069" lon="8.69241">
        <ele>556</ele>
        <time>2021-08-05T10:31:44.490Z</time>
      </trkpt>
      <trkpt lat="46.99068" lon="8.69243">
        <ele>555</ele>
        <time>2021-08-05T10:31:45.490Z</time>
      </trkpt>
      <trkpt lat="46.99068" lon="8.69245">
        <ele>555</ele>
        <time>2021-08-05T10:31:46.489Z</time>
      </trkpt>
      <trkpt lat="46.99067" lon="8.69246">
        <ele>555</ele>
        <time>2021-08-05T10:31:47.489Z</time>
      </trkpt>
      <trkpt lat="46.99066" lon="8.69248">
        <ele>555</ele>
        <time>2021-08-05T10:31:48.489Z</time>
      </trkpt>
      <trkpt lat="46.99065" lon="8.6925">
        <ele>555</ele>
        <time>2021-08-05T10:31:49.490Z</time>
      </trkpt>
      <trkpt lat="46.99065" lon="8.69251">
        <ele>555</ele>
        <time>2021-08-05T10:31:50.489Z</time>
      </trkpt>
      <trkpt lat="46.99064" lon="8.69253">
        <ele>555</ele>
        <time>2021-08-05T10:31:51.490Z</time>
      </trkpt>
      <trkpt lat="46.99063" lon="8.69254">
        <ele>555</ele>
        <time>2021-08-05T10:31:52.490Z</time>
      </trkpt>
      <trkpt lat="46.99063" lon="8.69256">
        <ele>554</ele>
        <time>2021-08-05T10:31:53.489Z</time>
      </trkpt>
      <trkpt lat="46.99062" lon="8.69258">
        <ele>554</ele>
        <time>2021-08-05T10:31:54.490Z</time>
      </trkpt>
      <trkpt lat="46.99062" lon="8.6926">
        <ele>554</ele>
        <time>2021-08-05T10:31:55.490Z</time>
      </trkpt>
      <trkpt lat="46.99061" lon="8.69261">
        <ele>554</ele>
        <time>2021-08-05T10:31:56.490Z</time>
      </trkpt>
      <trkpt lat="46.99061" lon="8.69263">
        <ele>553</ele>
        <time>2021-08-05T10:31:57.490Z</time>
      </trkpt>
      <trkpt lat="46.9906" lon="8.69264">
        <ele>553</ele>
        <time>2021-08-05T10:31:58.490Z</time>
      </trkpt>
      <trkpt lat="46.99059" lon="8.69265">
        <ele>553</ele>
        <time>2021-08-05T10:31:59.490Z</time>
      </trkpt>
      <trkpt lat="46.99059" lon="8.69267">
        <ele>554</ele>
        <time>2021-08-05T10:32:00.490Z</time>
      </trkpt>
      <trkpt lat="46.99058" lon="8.69268">
        <ele>554</ele>
        <time>2021-08-05T10:32:01.490Z</time>
      </trkpt>
      <trkpt lat="46.99058" lon="8.6927">
        <ele>554</ele>
        <time>2021-08-05T10:32:02.490Z</time>
      </trkpt>
      <trkpt lat="46.99057" lon="8.69272">
        <ele>554</ele>
        <time>2021-08-05T10:32:03.490Z</time>
      </trkpt>
      <trkpt lat="46.99057" lon="8.69274">
        <ele>554</ele>
        <time>2021-08-05T10:32:04.490Z</time>
      </trkpt>
      <trkpt lat="46.99057" lon="8.69275">
        <ele>555</ele>
        <time>2021-08-05T10:32:05.490Z</time>
      </trkpt>
      <trkpt lat="46.99056" lon="8.69277">
        <ele>555</ele>
        <time>2021-08-05T10:32:06.490Z</time>
      </trkpt>
      <trkpt lat="46.99056" lon="8.69279">
        <ele>556</ele>
        <time>2021-08-05T10:32:07.490Z</time>
      </trkpt>
      <trkpt lat="46.99055" lon="8.69281">
        <ele>556</ele>
        <time>2021-08-05T10:32:08.489Z</time>
      </trkpt>
      <trkpt lat="46.99055" lon="8.69282">
        <ele>556</ele>
        <time>2021-08-05T10:32:09.490Z</time>
      </trkpt>
      <trkpt lat="46.99054" lon="8.69284">
        <ele>556</ele>
        <time>2021-08-05T10:32:10.489Z</time>
      </trkpt>
      <trkpt lat="46.99054" lon="8.69285">
        <ele>557</ele>
        <time>2021-08-05T10:32:11.490Z</time>
      </trkpt>
      <trkpt lat="46.99053" lon="8.69287">
        <ele>557</ele>
        <time>2021-08-05T10:32:12.490Z</time>
      </trkpt>
      <trkpt lat="46.99052" lon="8.69288">
        <ele>557</ele>
        <time>2021-08-05T10:32:13.489Z</time>
      </trkpt>
      <trkpt lat="46.99052" lon="8.6929">
        <ele>557</ele>
        <time>2021-08-05T10:32:14.489Z</time>
      </trkpt>
      <trkpt lat="46.99051" lon="8.69291">
        <ele>558</ele>
        <time>2021-08-05T10:32:15.490Z</time>
      </trkpt>
      <trkpt lat="46.99051" lon="8.69293">
        <ele>558</ele>
        <time>2021-08-05T10:32:16.490Z</time>
      </trkpt>
      <trkpt lat="46.9905" lon="8.69295">
        <ele>559</ele>
        <time>2021-08-05T10:32:17.490Z</time>
      </trkpt>
      <trkpt lat="46.99049" lon="8.69296">
        <ele>559</ele>
        <time>2021-08-05T10:32:18.489Z</time>
      </trkpt>
      <trkpt lat="46.99049" lon="8.69298">
        <ele>560</ele>
        <time>2021-08-05T10:32:19.489Z</time>
      </trkpt>
      <trkpt lat="46.99048" lon="8.69299">
        <ele>560</ele>
        <time>2021-08-05T10:32:20.490Z</time>
      </trkpt>
      <trkpt lat="46.99047" lon="8.693">
        <ele>559</ele>
        <time>2021-08-05T10:32:21.489Z</time>
      </trkpt>
      <trkpt lat="46.99047" lon="8.69302">
        <ele>559</ele>
        <time>2021-08-05T10:32:22.490Z</time>
      </trkpt>
      <trkpt lat="46.99046" lon="8.69303">
        <ele>558</ele>
        <time>2021-08-05T10:32:23.490Z</time>
      </trkpt>
      <trkpt lat="46.99045" lon="8.69304">
        <ele>557</ele>
        <time>2021-08-05T10:32:24.490Z</time>
      </trkpt>
      <trkpt lat="46.99044" lon="8.69305">
        <ele>557</ele>
        <time>2021-08-05T10:32:25.490Z</time>
      </trkpt>
      <trkpt lat="46.99043" lon="8.69307">
        <ele>556</ele>
        <time>2021-08-05T10:32:26.489Z</time>
      </trkpt>
      <trkpt lat="46.99043" lon="8.69308">
        <ele>556</ele>
        <time>2021-08-05T10:32:27.490Z</time>
      </trkpt>
      <trkpt lat="46.99043" lon="8.69309">
        <ele>555</ele>
        <time>2021-08-05T10:32:28.490Z</time>
      </trkpt>
      <trkpt lat="46.99042" lon="8.6931">
        <ele>555</ele>
        <time>2021-08-05T10:32:29.490Z</time>
      </trkpt>
      <trkpt lat="46.99042" lon="8.69312">
        <ele>555</ele>
        <time>2021-08-05T10:32:30.490Z</time>
      </trkpt>
      <trkpt lat="46.99041" lon="8.69313">
        <ele>555</ele>
        <time>2021-08-05T10:32:31.490Z</time>
      </trkpt>
      <trkpt lat="46.99041" lon="8.69315">
        <ele>555</ele>
        <time>2021-08-05T10:32:32.489Z</time>
      </trkpt>
      <trkpt lat="46.9904" lon="8.69317">
        <ele>556</ele>
        <time>2021-08-05T10:32:33.490Z</time>
      </trkpt>
      <trkpt lat="46.99039" lon="8.69318">
        <ele>556</ele>
        <time>2021-08-05T10:32:34.489Z</time>
      </trkpt>
      <trkpt lat="46.99039" lon="8.6932">
        <ele>556</ele>
        <time>2021-08-05T10:32:35.490Z</time>
      </trkpt>
      <trkpt lat="46.99038" lon="8.69321">
        <ele>557</ele>
        <time>2021-08-05T10:32:36.490Z</time>
      </trkpt>
      <trkpt lat="46.99038" lon="8.69323">
        <ele>557</ele>
        <time>2021-08-05T10:32:37.490Z</time>
      </trkpt>
      <trkpt lat="46.99037" lon="8.69324">
        <ele>556</ele>
        <time>2021-08-05T10:32:38.489Z</time>
      </trkpt>
      <trkpt lat="46.99037" lon="8.69326">
        <ele>556</ele>
        <time>2021-08-05T10:32:39.490Z</time>
      </trkpt>
      <trkpt lat="46.99036" lon="8.69327">
        <ele>557</ele>
        <time>2021-08-05T10:32:40.489Z</time>
      </trkpt>
      <trkpt lat="46.99035" lon="8.69328">
        <ele>557</ele>
        <time>2021-08-05T10:32:41.489Z</time>
      </trkpt>
      <trkpt lat="46.99035" lon="8.6933">
        <ele>557</ele>
        <time>2021-08-05T10:32:42.489Z</time>
      </trkpt>
      <trkpt lat="46.99034" lon="8.69331">
        <ele>558</ele>
        <time>2021-08-05T10:32:43.489Z</time>
      </trkpt>
      <trkpt lat="46.99034" lon="8.69333">
        <ele>558</ele>
        <time>2021-08-05T10:32:44.489Z</time>
      </trkpt>
      <trkpt lat="46.99033" lon="8.69334">
        <ele>559</ele>
        <time>2021-08-05T10:32:45.489Z</time>
      </trkpt>
      <trkpt lat="46.99032" lon="8.69335">
        <ele>559</ele>
        <time>2021-08-05T10:32:46.490Z</time>
      </trkpt>
      <trkpt lat="46.99032" lon="8.69336">
        <ele>560</ele>
        <time>2021-08-05T10:32:47.490Z</time>
      </trkpt>
      <trkpt lat="46.99031" lon="8.69338">
        <ele>560</ele>
        <time>2021-08-05T10:32:48.490Z</time>
      </trkpt>
      <trkpt lat="46.99031" lon="8.69339">
        <ele>560</ele>
        <time>2021-08-05T10:32:49.490Z</time>
      </trkpt>
      <trkpt lat="46.9903" lon="8.69341">
        <ele>560</ele>
        <time>2021-08-05T10:32:50.490Z</time>
      </trkpt>
      <trkpt lat="46.99029" lon="8.69342">
        <ele>560</ele>
        <time>2021-08-05T10:32:51.490Z</time>
      </trkpt>
      <trkpt lat="46.99029" lon="8.69344">
        <ele>560</ele>
        <time>2021-08-05T10:32:52.489Z</time>
      </trkpt>
      <trkpt lat="46.99028" lon="8.69345">
        <ele>560</ele>
        <time>2021-08-05T10:32:53.489Z</time>
      </trkpt>
      <trkpt lat="46.99027" lon="8.69346">
        <ele>561</ele>
        <time>2021-08-05T10:32:54.490Z</time>
      </trkpt>
      <trkpt lat="46.99027" lon="8.69347">
        <ele>561</ele>
        <time>2021-08-05T10:32:55.489Z</time>
      </trkpt>
      <trkpt lat="46.99026" lon="8.69349">
        <ele>561</ele>
        <time>2021-08-05T10:32:56.489Z</time>
      </trkpt>
      <trkpt lat="46.99026" lon="8.6935">
        <ele>561</ele>
        <time>2021-08-05T10:32:57.490Z</time>
      </trkpt>
      <trkpt lat="46.99026" lon="8.69351">
        <ele>562</ele>
        <time>2021-08-05T10:32:58.489Z</time>
      </trkpt>
      <trkpt lat="46.99025" lon="8.69353">
        <ele>562</ele>
        <time>2021-08-05T10:32:59.490Z</time>
      </trkpt>
      <trkpt lat="46.99024" lon="8.69354">
        <ele>562</ele>
        <time>2021-08-05T10:33:00.490Z</time>
      </trkpt>
      <trkpt lat="46.99023" lon="8.69355">
        <ele>562</ele>
        <time>2021-08-05T10:33:01.490Z</time>
      </trkpt>
      <trkpt lat="46.99022" lon="8.69355">
        <ele>562</ele>
        <time>2021-08-05T10:33:02.490Z</time>
      </trkpt>
      <trkpt lat="46.99021" lon="8.69356">
        <ele>562</ele>
        <time>2021-08-05T10:33:03.490Z</time>
      </trkpt>
      <trkpt lat="46.99019" lon="8.69358">
        <ele>563</ele>
        <time>2021-08-05T10:33:04.489Z</time>
      </trkpt>
      <trkpt lat="46.99018" lon="8.69359">
        <ele>563</ele>
        <time>2021-08-05T10:33:05.490Z</time>
      </trkpt>
      <trkpt lat="46.99018" lon="8.6936">
        <ele>564</ele>
        <time>2021-08-05T10:33:06.490Z</time>
      </trkpt>
      <trkpt lat="46.99017" lon="8.69362">
        <ele>564</ele>
        <time>2021-08-05T10:33:07.489Z</time>
      </trkpt>
      <trkpt lat="46.99017" lon="8.69364">
        <ele>563</ele>
        <time>2021-08-05T10:33:08.490Z</time>
      </trkpt>
      <trkpt lat="46.99016" lon="8.69365">
        <ele>563</ele>
        <time>2021-08-05T10:33:09.490Z</time>
      </trkpt>
      <trkpt lat="46.99016" lon="8.69367">
        <ele>563</ele>
        <time>2021-08-05T10:33:10.490Z</time>
      </trkpt>
      <trkpt lat="46.99016" lon="8.69368">
        <ele>562</ele>
        <time>2021-08-05T10:33:11.490Z</time>
      </trkpt>
      <trkpt lat="46.99016" lon="8.69369">
        <ele>561</ele>
        <time>2021-08-05T10:33:12.490Z</time>
      </trkpt>
      <trkpt lat="46.99017" lon="8.69369">
        <ele>560</ele>
        <time>2021-08-05T10:33:13.490Z</time>
      </trkpt>
      <trkpt lat="46.99017" lon="8.6937">
        <ele>559</ele>
        <time>2021-08-05T10:33:14.490Z</time>
      </trkpt>
      <trkpt lat="46.99017" lon="8.69371">
        <ele>558</ele>
        <time>2021-08-05T10:33:15.489Z</time>
      </trkpt>
      <trkpt lat="46.99017" lon="8.69372">
        <ele>557</ele>
        <time>2021-08-05T10:33:16.489Z</time>
      </trkpt>
      <trkpt lat="46.99019" lon="8.69378">
        <ele>552</ele>
        <time>2021-08-05T10:33:17.489Z</time>
      </trkpt>
      <trkpt lat="46.99019" lon="8.69378">
        <ele>551</ele>
        <time>2021-08-05T10:33:18.490Z</time>
      </trkpt>
      <trkpt lat="46.99019" lon="8.69379">
        <ele>551</ele>
        <time>2021-08-05T10:33:19.489Z</time>
      </trkpt>
      <trkpt lat="46.99019" lon="8.69379">
        <ele>550</ele>
        <time>2021-08-05T10:33:20.489Z</time>
      </trkpt>
      <trkpt lat="46.99019" lon="8.69379">
        <ele>550</ele>
        <time>2021-08-05T10:33:21.489Z</time>
      </trkpt>
      <trkpt lat="46.9902" lon="8.6938">
        <ele>550</ele>
        <time>2021-08-05T10:33:22.490Z</time>
      </trkpt>
      <trkpt lat="46.9902" lon="8.69381">
        <ele>550</ele>
        <time>2021-08-05T10:33:23.490Z</time>
      </trkpt>
      <trkpt lat="46.99027" lon="8.69381">
        <ele>549</ele>
        <time>2021-08-05T10:33:24.491Z</time>
      </trkpt>
      <trkpt lat="46.99027" lon="8.6938">
        <ele>550</ele>
        <time>2021-08-05T10:33:25.491Z</time>
      </trkpt>
      <trkpt lat="46.99028" lon="8.69379">
        <ele>550</ele>
        <time>2021-08-05T10:33:26.490Z</time>
      </trkpt>
      <trkpt lat="46.99029" lon="8.69378">
        <ele>551</ele>
        <time>2021-08-05T10:33:27.491Z</time>
      </trkpt>
      <trkpt lat="46.99029" lon="8.69378">
        <ele>552</ele>
        <time>2021-08-05T10:33:28.491Z</time>
      </trkpt>
      <trkpt lat="46.99029" lon="8.69379">
        <ele>552</ele>
        <time>2021-08-05T10:33:29.490Z</time>
      </trkpt>
      <trkpt lat="46.99029" lon="8.6938">
        <ele>552</ele>
        <time>2021-08-05T10:33:30.490Z</time>
      </trkpt>
      <trkpt lat="46.9903" lon="8.6938">
        <ele>553</ele>
        <time>2021-08-05T10:33:31.490Z</time>
      </trkpt>
      <trkpt lat="46.99031" lon="8.6938">
        <ele>553</ele>
        <time>2021-08-05T10:33:32.490Z</time>
      </trkpt>
      <trkpt lat="46.99031" lon="8.6938">
        <ele>553</ele>
        <time>2021-08-05T10:33:33.490Z</time>
      </trkpt>
      <trkpt lat="46.99032" lon="8.6938">
        <ele>553</ele>
        <time>2021-08-05T10:33:34.491Z</time>
      </trkpt>
      <trkpt lat="46.99032" lon="8.6938">
        <ele>554</ele>
        <time>2021-08-05T10:33:35.490Z</time>
      </trkpt>
      <trkpt lat="46.99031" lon="8.69381">
        <ele>556</ele>
        <time>2021-08-05T10:33:36.490Z</time>
      </trkpt>
      <trkpt lat="46.99031" lon="8.69382">
        <ele>557</ele>
        <time>2021-08-05T10:33:37.490Z</time>
      </trkpt>
      <trkpt lat="46.99031" lon="8.69383">
        <ele>557</ele>
        <time>2021-08-05T10:33:38.490Z</time>
      </trkpt>
      <trkpt lat="46.9903" lon="8.69384">
        <ele>557</ele>
        <time>2021-08-05T10:33:39.490Z</time>
      </trkpt>
      <trkpt lat="46.99028" lon="8.69387">
        <ele>559</ele>
        <time>2021-08-05T10:33:40.490Z</time>
      </trkpt>
      <trkpt lat="46.99027" lon="8.69387">
        <ele>559</ele>
        <time>2021-08-05T10:33:41.491Z</time>
      </trkpt>
      <trkpt lat="46.99026" lon="8.69387">
        <ele>559</ele>
        <time>2021-08-05T10:33:42.490Z</time>
      </trkpt>
      <trkpt lat="46.99024" lon="8.69386">
        <ele>559</ele>
        <time>2021-08-05T10:33:43.490Z</time>
      </trkpt>
      <trkpt lat="46.99024" lon="8.69384">
        <ele>558</ele>
        <time>2021-08-05T10:33:44.490Z</time>
      </trkpt>
      <trkpt lat="46.99023" lon="8.69383">
        <ele>558</ele>
        <time>2021-08-05T10:33:45.490Z</time>
      </trkpt>
      <trkpt lat="46.99023" lon="8.69382">
        <ele>558</ele>
        <time>2021-08-05T10:33:46.491Z</time>
      </trkpt>
      <trkpt lat="46.99022" lon="8.69381">
        <ele>558</ele>
        <time>2021-08-05T10:33:47.491Z</time>
      </trkpt>
      <trkpt lat="46.99022" lon="8.69381">
        <ele>558</ele>
        <time>2021-08-05T10:33:48.491Z</time>
      </trkpt>
      <trkpt lat="46.99021" lon="8.6938">
        <ele>558</ele>
        <time>2021-08-05T10:33:49.491Z</time>
      </trkpt>
      <trkpt lat="46.9902" lon="8.6938">
        <ele>558</ele>
        <time>2021-08-05T10:33:50.491Z</time>
      </trkpt>
      <trkpt lat="46.99019" lon="8.6938">
        <ele>559</ele>
        <time>2021-08-05T10:33:51.490Z</time>
      </trkpt>
      <trkpt lat="46.99019" lon="8.69381">
        <ele>559</ele>
        <time>2021-08-05T10:33:52.491Z</time>
      </trkpt>
      <trkpt lat="46.99018" lon="8.69382">
        <ele>559</ele>
        <time>2021-08-05T10:33:53.491Z</time>
      </trkpt>
      <trkpt lat="46.99017" lon="8.69383">
        <ele>559</ele>
        <time>2021-08-05T10:33:54.491Z</time>
      </trkpt>
      <trkpt lat="46.99017" lon="8.69384">
        <ele>559</ele>
        <time>2021-08-05T10:33:55.491Z</time>
      </trkpt>
      <trkpt lat="46.99016" lon="8.69385">
        <ele>560</ele>
        <time>2021-08-05T10:33:56.491Z</time>
      </trkpt>
      <trkpt lat="46.99016" lon="8.69386">
        <ele>560</ele>
        <time>2021-08-05T10:33:57.490Z</time>
      </trkpt>
      <trkpt lat="46.99016" lon="8.69387">
        <ele>561</ele>
        <time>2021-08-05T10:33:58.491Z</time>
      </trkpt>
      <trkpt lat="46.99016" lon="8.69388">
        <ele>561</ele>
        <time>2021-08-05T10:33:59.491Z</time>
      </trkpt>
      <trkpt lat="46.99016" lon="8.6939">
        <ele>561</ele>
        <time>2021-08-05T10:34:00.491Z</time>
      </trkpt>
      <trkpt lat="46.99016" lon="8.69391">
        <ele>560</ele>
        <time>2021-08-05T10:34:01.491Z</time>
      </trkpt>
      <trkpt lat="46.99016" lon="8.69391">
        <ele>560</ele>
        <time>2021-08-05T10:34:02.491Z</time>
      </trkpt>
      <trkpt lat="46.99016" lon="8.69392">
        <ele>560</ele>
        <time>2021-08-05T10:34:03.491Z</time>
      </trkpt>
      <trkpt lat="46.99016" lon="8.69392">
        <ele>560</ele>
        <time>2021-08-05T10:34:04.491Z</time>
      </trkpt>
      <trkpt lat="46.99017" lon="8.69394">
        <ele>559</ele>
        <time>2021-08-05T10:34:05.491Z</time>
      </trkpt>
      <trkpt lat="46.99016" lon="8.69395">
        <ele>559</ele>
        <time>2021-08-05T10:34:06.491Z</time>
      </trkpt>
      <trkpt lat="46.99015" lon="8.69397">
        <ele>558</ele>
        <time>2021-08-05T10:34:07.491Z</time>
      </trkpt>
      <trkpt lat="46.99014" lon="8.69398">
        <ele>558</ele>
        <time>2021-08-05T10:34:08.491Z</time>
      </trkpt>
      <trkpt lat="46.99013" lon="8.69399">
        <ele>558</ele>
        <time>2021-08-05T10:34:09.491Z</time>
      </trkpt>
      <trkpt lat="46.99012" lon="8.694">
        <ele>558</ele>
        <time>2021-08-05T10:34:10.490Z</time>
      </trkpt>
      <trkpt lat="46.9901" lon="8.694">
        <ele>558</ele>
        <time>2021-08-05T10:34:11.491Z</time>
      </trkpt>
      <trkpt lat="46.99009" lon="8.69401">
        <ele>557</ele>
        <time>2021-08-05T10:34:12.491Z</time>
      </trkpt>
      <trkpt lat="46.99007" lon="8.69401">
        <ele>557</ele>
        <time>2021-08-05T10:34:13.491Z</time>
      </trkpt>
      <trkpt lat="46.99006" lon="8.69403">
        <ele>557</ele>
        <time>2021-08-05T10:34:14.490Z</time>
      </trkpt>
      <trkpt lat="46.99005" lon="8.69404">
        <ele>557</ele>
        <time>2021-08-05T10:34:15.491Z</time>
      </trkpt>
      <trkpt lat="46.99004" lon="8.69406">
        <ele>557</ele>
        <time>2021-08-05T10:34:16.490Z</time>
      </trkpt>
      <trkpt lat="46.99003" lon="8.69407">
        <ele>557</ele>
        <time>2021-08-05T10:34:17.490Z</time>
      </trkpt>
      <trkpt lat="46.99003" lon="8.69408">
        <ele>557</ele>
        <time>2021-08-05T10:34:18.491Z</time>
      </trkpt>
      <trkpt lat="46.99002" lon="8.69409">
        <ele>557</ele>
        <time>2021-08-05T10:34:19.490Z</time>
      </trkpt>
      <trkpt lat="46.99001" lon="8.6941">
        <ele>557</ele>
        <time>2021-08-05T10:34:20.491Z</time>
      </trkpt>
      <trkpt lat="46.99" lon="8.69411">
        <ele>556</ele>
        <time>2021-08-05T10:34:21.491Z</time>
      </trkpt>
      <trkpt lat="46.98999" lon="8.69412">
        <ele>557</ele>
        <time>2021-08-05T10:34:22.490Z</time>
      </trkpt>
      <trkpt lat="46.98999" lon="8.69413">
        <ele>557</ele>
        <time>2021-08-05T10:34:23.491Z</time>
      </trkpt>
      <trkpt lat="46.98998" lon="8.69416">
        <ele>557</ele>
        <time>2021-08-05T10:34:24.491Z</time>
      </trkpt>
      <trkpt lat="46.98997" lon="8.69418">
        <ele>557</ele>
        <time>2021-08-05T10:34:25.490Z</time>
      </trkpt>
      <trkpt lat="46.98997" lon="8.69419">
        <ele>556</ele>
        <time>2021-08-05T10:34:26.491Z</time>
      </trkpt>
      <trkpt lat="46.98997" lon="8.69421">
        <ele>556</ele>
        <time>2021-08-05T10:34:27.490Z</time>
      </trkpt>
      <trkpt lat="46.98996" lon="8.69422">
        <ele>555</ele>
        <time>2021-08-05T10:34:28.490Z</time>
      </trkpt>
      <trkpt lat="46.98996" lon="8.69423">
        <ele>555</ele>
        <time>2021-08-05T10:34:29.491Z</time>
      </trkpt>
      <trkpt lat="46.98995" lon="8.69423">
        <ele>555</ele>
        <time>2021-08-05T10:34:30.490Z</time>
      </trkpt>
      <trkpt lat="46.98996" lon="8.69425">
        <ele>555</ele>
        <time>2021-08-05T10:34:31.491Z</time>
      </trkpt>
      <trkpt lat="46.98996" lon="8.69427">
        <ele>555</ele>
        <time>2021-08-05T10:34:32.491Z</time>
      </trkpt>
      <trkpt lat="46.98996" lon="8.69429">
        <ele>555</ele>
        <time>2021-08-05T10:34:33.490Z</time>
      </trkpt>
      <trkpt lat="46.98996" lon="8.69431">
        <ele>555</ele>
        <time>2021-08-05T10:34:34.491Z</time>
      </trkpt>
      <trkpt lat="46.98996" lon="8.69433">
        <ele>556</ele>
        <time>2021-08-05T10:34:35.490Z</time>
      </trkpt>
      <trkpt lat="46.98995" lon="8.69434">
        <ele>556</ele>
        <time>2021-08-05T10:34:36.490Z</time>
      </trkpt>
      <trkpt lat="46.98994" lon="8.69436">
        <ele>556</ele>
        <time>2021-08-05T10:34:37.491Z</time>
      </trkpt>
      <trkpt lat="46.98993" lon="8.69437">
        <ele>556</ele>
        <time>2021-08-05T10:34:38.491Z</time>
      </trkpt>
      <trkpt lat="46.98992" lon="8.69439">
        <ele>556</ele>
        <time>2021-08-05T10:34:39.491Z</time>
      </trkpt>
      <trkpt lat="46.98992" lon="8.69441">
        <ele>556</ele>
        <time>2021-08-05T10:34:40.490Z</time>
      </trkpt>
      <trkpt lat="46.98992" lon="8.69442">
        <ele>557</ele>
        <time>2021-08-05T10:34:41.491Z</time>
      </trkpt>
      <trkpt lat="46.98992" lon="8.69444">
        <ele>557</ele>
        <time>2021-08-05T10:34:42.491Z</time>
      </trkpt>
      <trkpt lat="46.98992" lon="8.69445">
        <ele>558</ele>
        <time>2021-08-05T10:34:43.491Z</time>
      </trkpt>
      <trkpt lat="46.98992" lon="8.69446">
        <ele>558</ele>
        <time>2021-08-05T10:34:44.490Z</time>
      </trkpt>
      <trkpt lat="46.98991" lon="8.69447">
        <ele>558</ele>
        <time>2021-08-05T10:34:45.490Z</time>
      </trkpt>
      <trkpt lat="46.9899" lon="8.69448">
        <ele>558</ele>
        <time>2021-08-05T10:34:46.490Z</time>
      </trkpt>
      <trkpt lat="46.98989" lon="8.69448">
        <ele>557</ele>
        <time>2021-08-05T10:34:47.491Z</time>
      </trkpt>
      <trkpt lat="46.98989" lon="8.69449">
        <ele>557</ele>
        <time>2021-08-05T10:34:48.490Z</time>
      </trkpt>
      <trkpt lat="46.98989" lon="8.69449">
        <ele>557</ele>
        <time>2021-08-05T10:34:49.491Z</time>
      </trkpt>
      <trkpt lat="46.98989" lon="8.69451">
        <ele>556</ele>
        <time>2021-08-05T10:34:50.490Z</time>
      </trkpt>
      <trkpt lat="46.98989" lon="8.69452">
        <ele>556</ele>
        <time>2021-08-05T10:34:51.491Z</time>
      </trkpt>
      <trkpt lat="46.98989" lon="8.69453">
        <ele>556</ele>
        <time>2021-08-05T10:34:52.491Z</time>
      </trkpt>
      <trkpt lat="46.98989" lon="8.69455">
        <ele>556</ele>
        <time>2021-08-05T10:34:53.491Z</time>
      </trkpt>
      <trkpt lat="46.98988" lon="8.69457">
        <ele>556</ele>
        <time>2021-08-05T10:34:54.491Z</time>
      </trkpt>
      <trkpt lat="46.98988" lon="8.69458">
        <ele>556</ele>
        <time>2021-08-05T10:34:55.490Z</time>
      </trkpt>
      <trkpt lat="46.98988" lon="8.6946">
        <ele>555</ele>
        <time>2021-08-05T10:34:56.491Z</time>
      </trkpt>
      <trkpt lat="46.98987" lon="8.69461">
        <ele>555</ele>
        <time>2021-08-05T10:34:57.491Z</time>
      </trkpt>
      <trkpt lat="46.98987" lon="8.69462">
        <ele>554</ele>
        <time>2021-08-05T10:34:58.490Z</time>
      </trkpt>
      <trkpt lat="46.98987" lon="8.69463">
        <ele>554</ele>
        <time>2021-08-05T10:34:59.491Z</time>
      </trkpt>
      <trkpt lat="46.98987" lon="8.69463">
        <ele>553</ele>
        <time>2021-08-05T10:35:00.491Z</time>
      </trkpt>
      <trkpt lat="46.98986" lon="8.69465">
        <ele>552</ele>
        <time>2021-08-05T10:35:01.491Z</time>
      </trkpt>
      <trkpt lat="46.98986" lon="8.69466">
        <ele>552</ele>
        <time>2021-08-05T10:35:02.491Z</time>
      </trkpt>
      <trkpt lat="46.98985" lon="8.69467">
        <ele>553</ele>
        <time>2021-08-05T10:35:03.490Z</time>
      </trkpt>
      <trkpt lat="46.98985" lon="8.69469">
        <ele>553</ele>
        <time>2021-08-05T10:35:04.491Z</time>
      </trkpt>
      <trkpt lat="46.98984" lon="8.6947">
        <ele>553</ele>
        <time>2021-08-05T10:35:05.491Z</time>
      </trkpt>
      <trkpt lat="46.98984" lon="8.69471">
        <ele>553</ele>
        <time>2021-08-05T10:35:06.491Z</time>
      </trkpt>
      <trkpt lat="46.98983" lon="8.69473">
        <ele>554</ele>
        <time>2021-08-05T10:35:07.490Z</time>
      </trkpt>
      <trkpt lat="46.98983" lon="8.69474">
        <ele>554</ele>
        <time>2021-08-05T10:35:08.491Z</time>
      </trkpt>
      <trkpt lat="46.98982" lon="8.69476">
        <ele>554</ele>
        <time>2021-08-05T10:35:09.490Z</time>
      </trkpt>
      <trkpt lat="46.98981" lon="8.69478">
        <ele>554</ele>
        <time>2021-08-05T10:35:10.490Z</time>
      </trkpt>
      <trkpt lat="46.98981" lon="8.69479">
        <ele>554</ele>
        <time>2021-08-05T10:35:11.490Z</time>
      </trkpt>
      <trkpt lat="46.98981" lon="8.69482">
        <ele>554</ele>
        <time>2021-08-05T10:35:12.491Z</time>
      </trkpt>
      <trkpt lat="46.9898" lon="8.69484">
        <ele>554</ele>
        <time>2021-08-05T10:35:13.490Z</time>
      </trkpt>
      <trkpt lat="46.9898" lon="8.69486">
        <ele>555</ele>
        <time>2021-08-05T10:35:14.490Z</time>
      </trkpt>
      <trkpt lat="46.9898" lon="8.69488">
        <ele>555</ele>
        <time>2021-08-05T10:35:15.491Z</time>
      </trkpt>
      <trkpt lat="46.9898" lon="8.6949">
        <ele>556</ele>
        <time>2021-08-05T10:35:16.490Z</time>
      </trkpt>
      <trkpt lat="46.98979" lon="8.69494">
        <ele>557</ele>
        <time>2021-08-05T10:35:17.491Z</time>
      </trkpt>
      <trkpt lat="46.98979" lon="8.69497">
        <ele>557</ele>
        <time>2021-08-05T10:35:18.491Z</time>
      </trkpt>
      <trkpt lat="46.98979" lon="8.695">
        <ele>558</ele>
        <time>2021-08-05T10:35:19.491Z</time>
      </trkpt>
      <trkpt lat="46.98978" lon="8.69503">
        <ele>559</ele>
        <time>2021-08-05T10:35:20.491Z</time>
      </trkpt>
      <trkpt lat="46.98978" lon="8.69505">
        <ele>560</ele>
        <time>2021-08-05T10:35:21.490Z</time>
      </trkpt>
      <trkpt lat="46.98978" lon="8.69506">
        <ele>560</ele>
        <time>2021-08-05T10:35:22.491Z</time>
      </trkpt>
      <trkpt lat="46.98978" lon="8.69508">
        <ele>561</ele>
        <time>2021-08-05T10:35:23.490Z</time>
      </trkpt>
      <trkpt lat="46.98978" lon="8.69509">
        <ele>561</ele>
        <time>2021-08-05T10:35:24.491Z</time>
      </trkpt>
      <trkpt lat="46.98978" lon="8.69509">
        <ele>561</ele>
        <time>2021-08-05T10:35:25.491Z</time>
      </trkpt>
      <trkpt lat="46.98977" lon="8.6951">
        <ele>561</ele>
        <time>2021-08-05T10:35:26.490Z</time>
      </trkpt>
      <trkpt lat="46.98976" lon="8.6951">
        <ele>562</ele>
        <time>2021-08-05T10:35:27.490Z</time>
      </trkpt>
      <trkpt lat="46.98976" lon="8.69511">
        <ele>562</ele>
        <time>2021-08-05T10:35:28.491Z</time>
      </trkpt>
      <trkpt lat="46.98976" lon="8.69513">
        <ele>561</ele>
        <time>2021-08-05T10:35:29.491Z</time>
      </trkpt>
      <trkpt lat="46.98976" lon="8.69515">
        <ele>561</ele>
        <time>2021-08-05T10:35:30.491Z</time>
      </trkpt>
      <trkpt lat="46.98975" lon="8.69516">
        <ele>561</ele>
        <time>2021-08-05T10:35:31.491Z</time>
      </trkpt>
      <trkpt lat="46.98975" lon="8.69517">
        <ele>561</ele>
        <time>2021-08-05T10:35:32.491Z</time>
      </trkpt>
      <trkpt lat="46.98974" lon="8.69519">
        <ele>561</ele>
        <time>2021-08-05T10:35:33.491Z</time>
      </trkpt>
      <trkpt lat="46.98973" lon="8.6952">
        <ele>562</ele>
        <time>2021-08-05T10:35:34.491Z</time>
      </trkpt>
      <trkpt lat="46.98973" lon="8.69521">
        <ele>563</ele>
        <time>2021-08-05T10:35:35.491Z</time>
      </trkpt>
      <trkpt lat="46.98972" lon="8.69522">
        <ele>564</ele>
        <time>2021-08-05T10:35:36.491Z</time>
      </trkpt>
      <trkpt lat="46.98971" lon="8.69523">
        <ele>565</ele>
        <time>2021-08-05T10:35:37.490Z</time>
      </trkpt>
      <trkpt lat="46.9897" lon="8.69525">
        <ele>566</ele>
        <time>2021-08-05T10:35:38.491Z</time>
      </trkpt>
      <trkpt lat="46.98969" lon="8.69526">
        <ele>566</ele>
        <time>2021-08-05T10:35:39.491Z</time>
      </trkpt>
      <trkpt lat="46.98968" lon="8.69528">
        <ele>567</ele>
        <time>2021-08-05T10:35:40.491Z</time>
      </trkpt>
      <trkpt lat="46.98968" lon="8.69528">
        <ele>567</ele>
        <time>2021-08-05T10:35:41.491Z</time>
      </trkpt>
      <trkpt lat="46.98968" lon="8.6953">
        <ele>567</ele>
        <time>2021-08-05T10:35:42.491Z</time>
      </trkpt>
      <trkpt lat="46.98967" lon="8.69532">
        <ele>568</ele>
        <time>2021-08-05T10:35:43.491Z</time>
      </trkpt>
      <trkpt lat="46.98967" lon="8.69535">
        <ele>568</ele>
        <time>2021-08-05T10:35:44.491Z</time>
      </trkpt>
      <trkpt lat="46.98967" lon="8.69536">
        <ele>568</ele>
        <time>2021-08-05T10:35:45.491Z</time>
      </trkpt>
      <trkpt lat="46.98967" lon="8.69538">
        <ele>568</ele>
        <time>2021-08-05T10:35:46.491Z</time>
      </trkpt>
      <trkpt lat="46.98967" lon="8.6954">
        <ele>567</ele>
        <time>2021-08-05T10:35:47.491Z</time>
      </trkpt>
      <trkpt lat="46.98967" lon="8.69542">
        <ele>567</ele>
        <time>2021-08-05T10:35:48.491Z</time>
      </trkpt>
      <trkpt lat="46.98967" lon="8.69544">
        <ele>566</ele>
        <time>2021-08-05T10:35:49.491Z</time>
      </trkpt>
      <trkpt lat="46.98967" lon="8.69547">
        <ele>566</ele>
        <time>2021-08-05T10:35:50.490Z</time>
      </trkpt>
      <trkpt lat="46.98966" lon="8.69548">
        <ele>566</ele>
        <time>2021-08-05T10:35:51.490Z</time>
      </trkpt>
      <trkpt lat="46.98966" lon="8.6955">
        <ele>565</ele>
        <time>2021-08-05T10:35:52.490Z</time>
      </trkpt>
      <trkpt lat="46.98966" lon="8.69552">
        <ele>565</ele>
        <time>2021-08-05T10:35:53.490Z</time>
      </trkpt>
      <trkpt lat="46.98966" lon="8.69554">
        <ele>565</ele>
        <time>2021-08-05T10:35:54.490Z</time>
      </trkpt>
      <trkpt lat="46.98965" lon="8.69555">
        <ele>565</ele>
        <time>2021-08-05T10:35:55.490Z</time>
      </trkpt>
      <trkpt lat="46.98965" lon="8.69556">
        <ele>565</ele>
        <time>2021-08-05T10:35:56.490Z</time>
      </trkpt>
      <trkpt lat="46.98964" lon="8.69558">
        <ele>565</ele>
        <time>2021-08-05T10:35:57.490Z</time>
      </trkpt>
      <trkpt lat="46.98963" lon="8.69559">
        <ele>565</ele>
        <time>2021-08-05T10:35:58.491Z</time>
      </trkpt>
      <trkpt lat="46.98962" lon="8.6956">
        <ele>565</ele>
        <time>2021-08-05T10:35:59.490Z</time>
      </trkpt>
      <trkpt lat="46.98962" lon="8.69562">
        <ele>565</ele>
        <time>2021-08-05T10:36:00.491Z</time>
      </trkpt>
      <trkpt lat="46.9896" lon="8.69563">
        <ele>565</ele>
        <time>2021-08-05T10:36:01.490Z</time>
      </trkpt>
      <trkpt lat="46.9896" lon="8.69564">
        <ele>565</ele>
        <time>2021-08-05T10:36:02.490Z</time>
      </trkpt>
      <trkpt lat="46.98959" lon="8.69565">
        <ele>565</ele>
        <time>2021-08-05T10:36:03.491Z</time>
      </trkpt>
      <trkpt lat="46.98959" lon="8.69566">
        <ele>564</ele>
        <time>2021-08-05T10:36:04.490Z</time>
      </trkpt>
      <trkpt lat="46.98959" lon="8.69567">
        <ele>563</ele>
        <time>2021-08-05T10:36:05.490Z</time>
      </trkpt>
      <trkpt lat="46.98958" lon="8.69569">
        <ele>563</ele>
        <time>2021-08-05T10:36:06.491Z</time>
      </trkpt>
      <trkpt lat="46.98958" lon="8.69571">
        <ele>563</ele>
        <time>2021-08-05T10:36:07.491Z</time>
      </trkpt>
      <trkpt lat="46.98957" lon="8.69572">
        <ele>563</ele>
        <time>2021-08-05T10:36:08.490Z</time>
      </trkpt>
      <trkpt lat="46.98957" lon="8.69574">
        <ele>564</ele>
        <time>2021-08-05T10:36:09.491Z</time>
      </trkpt>
      <trkpt lat="46.98957" lon="8.69575">
        <ele>564</ele>
        <time>2021-08-05T10:36:10.491Z</time>
      </trkpt>
      <trkpt lat="46.98956" lon="8.69578">
        <ele>564</ele>
        <time>2021-08-05T10:36:11.491Z</time>
      </trkpt>
      <trkpt lat="46.98955" lon="8.69579">
        <ele>565</ele>
        <time>2021-08-05T10:36:12.491Z</time>
      </trkpt>
      <trkpt lat="46.98955" lon="8.69581">
        <ele>565</ele>
        <time>2021-08-05T10:36:13.491Z</time>
      </trkpt>
      <trkpt lat="46.98955" lon="8.69583">
        <ele>565</ele>
        <time>2021-08-05T10:36:14.491Z</time>
      </trkpt>
      <trkpt lat="46.98954" lon="8.69584">
        <ele>565</ele>
        <time>2021-08-05T10:36:15.490Z</time>
      </trkpt>
      <trkpt lat="46.98954" lon="8.69585">
        <ele>565</ele>
        <time>2021-08-05T10:36:16.490Z</time>
      </trkpt>
      <trkpt lat="46.98954" lon="8.69586">
        <ele>565</ele>
        <time>2021-08-05T10:36:17.490Z</time>
      </trkpt>
      <trkpt lat="46.98953" lon="8.69587">
        <ele>565</ele>
        <time>2021-08-05T10:36:18.491Z</time>
      </trkpt>
      <trkpt lat="46.98953" lon="8.69588">
        <ele>565</ele>
        <time>2021-08-05T10:36:19.491Z</time>
      </trkpt>
      <trkpt lat="46.98952" lon="8.6959">
        <ele>565</ele>
        <time>2021-08-05T10:36:20.490Z</time>
      </trkpt>
      <trkpt lat="46.98952" lon="8.69592">
        <ele>565</ele>
        <time>2021-08-05T10:36:21.490Z</time>
      </trkpt>
      <trkpt lat="46.98951" lon="8.69593">
        <ele>565</ele>
        <time>2021-08-05T10:36:22.490Z</time>
      </trkpt>
      <trkpt lat="46.98951" lon="8.69595">
        <ele>565</ele>
        <time>2021-08-05T10:36:23.490Z</time>
      </trkpt>
      <trkpt lat="46.98951" lon="8.69596">
        <ele>565</ele>
        <time>2021-08-05T10:36:24.491Z</time>
      </trkpt>
      <trkpt lat="46.9895" lon="8.69598">
        <ele>564</ele>
        <time>2021-08-05T10:36:25.491Z</time>
      </trkpt>
      <trkpt lat="46.9895" lon="8.696">
        <ele>564</ele>
        <time>2021-08-05T10:36:26.491Z</time>
      </trkpt>
      <trkpt lat="46.98949" lon="8.69601">
        <ele>564</ele>
        <time>2021-08-05T10:36:27.491Z</time>
      </trkpt>
      <trkpt lat="46.98949" lon="8.69603">
        <ele>564</ele>
        <time>2021-08-05T10:36:28.490Z</time>
      </trkpt>
      <trkpt lat="46.98948" lon="8.69604">
        <ele>564</ele>
        <time>2021-08-05T10:36:29.491Z</time>
      </trkpt>
      <trkpt lat="46.98948" lon="8.69606">
        <ele>564</ele>
        <time>2021-08-05T10:36:30.491Z</time>
      </trkpt>
      <trkpt lat="46.98947" lon="8.69607">
        <ele>564</ele>
        <time>2021-08-05T10:36:31.491Z</time>
      </trkpt>
      <trkpt lat="46.98947" lon="8.69609">
        <ele>564</ele>
        <time>2021-08-05T10:36:32.491Z</time>
      </trkpt>
      <trkpt lat="46.98946" lon="8.69611">
        <ele>565</ele>
        <time>2021-08-05T10:36:33.490Z</time>
      </trkpt>
      <trkpt lat="46.98946" lon="8.69612">
        <ele>565</ele>
        <time>2021-08-05T10:36:34.490Z</time>
      </trkpt>
      <trkpt lat="46.98945" lon="8.69614">
        <ele>565</ele>
        <time>2021-08-05T10:36:35.491Z</time>
      </trkpt>
      <trkpt lat="46.98945" lon="8.69616">
        <ele>565</ele>
        <time>2021-08-05T10:36:36.490Z</time>
      </trkpt>
      <trkpt lat="46.98944" lon="8.69618">
        <ele>565</ele>
        <time>2021-08-05T10:36:37.491Z</time>
      </trkpt>
      <trkpt lat="46.98944" lon="8.69619">
        <ele>565</ele>
        <time>2021-08-05T10:36:38.491Z</time>
      </trkpt>
      <trkpt lat="46.98944" lon="8.6962">
        <ele>565</ele>
        <time>2021-08-05T10:36:39.491Z</time>
      </trkpt>
      <trkpt lat="46.98943" lon="8.69621">
        <ele>565</ele>
        <time>2021-08-05T10:36:40.491Z</time>
      </trkpt>
      <trkpt lat="46.98943" lon="8.69623">
        <ele>565</ele>
        <time>2021-08-05T10:36:41.490Z</time>
      </trkpt>
      <trkpt lat="46.98943" lon="8.69625">
        <ele>565</ele>
        <time>2021-08-05T10:36:42.490Z</time>
      </trkpt>
      <trkpt lat="46.98942" lon="8.69626">
        <ele>565</ele>
        <time>2021-08-05T10:36:43.491Z</time>
      </trkpt>
      <trkpt lat="46.98941" lon="8.69628">
        <ele>566</ele>
        <time>2021-08-05T10:36:44.491Z</time>
      </trkpt>
      <trkpt lat="46.98941" lon="8.6963">
        <ele>566</ele>
        <time>2021-08-05T10:36:45.490Z</time>
      </trkpt>
      <trkpt lat="46.9894" lon="8.69632">
        <ele>566</ele>
        <time>2021-08-05T10:36:46.490Z</time>
      </trkpt>
      <trkpt lat="46.9894" lon="8.69633">
        <ele>566</ele>
        <time>2021-08-05T10:36:47.491Z</time>
      </trkpt>
      <trkpt lat="46.9894" lon="8.69634">
        <ele>565</ele>
        <time>2021-08-05T10:36:48.491Z</time>
      </trkpt>
      <trkpt lat="46.98939" lon="8.69636">
        <ele>565</ele>
        <time>2021-08-05T10:36:49.490Z</time>
      </trkpt>
      <trkpt lat="46.98939" lon="8.69638">
        <ele>564</ele>
        <time>2021-08-05T10:36:50.491Z</time>
      </trkpt>
      <trkpt lat="46.98938" lon="8.6964">
        <ele>564</ele>
        <time>2021-08-05T10:36:51.491Z</time>
      </trkpt>
      <trkpt lat="46.98937" lon="8.69641">
        <ele>564</ele>
        <time>2021-08-05T10:36:52.491Z</time>
      </trkpt>
      <trkpt lat="46.98937" lon="8.69642">
        <ele>564</ele>
        <time>2021-08-05T10:36:53.490Z</time>
      </trkpt>
      <trkpt lat="46.98936" lon="8.69644">
        <ele>564</ele>
        <time>2021-08-05T10:36:54.491Z</time>
      </trkpt>
      <trkpt lat="46.98936" lon="8.69646">
        <ele>564</ele>
        <time>2021-08-05T10:36:55.491Z</time>
      </trkpt>
      <trkpt lat="46.98935" lon="8.69648">
        <ele>564</ele>
        <time>2021-08-05T10:36:56.491Z</time>
      </trkpt>
      <trkpt lat="46.98935" lon="8.69649">
        <ele>564</ele>
        <time>2021-08-05T10:36:57.491Z</time>
      </trkpt>
      <trkpt lat="46.98935" lon="8.69651">
        <ele>563</ele>
        <time>2021-08-05T10:36:58.491Z</time>
      </trkpt>
      <trkpt lat="46.98934" lon="8.69653">
        <ele>564</ele>
        <time>2021-08-05T10:36:59.491Z</time>
      </trkpt>
      <trkpt lat="46.98934" lon="8.69654">
        <ele>564</ele>
        <time>2021-08-05T10:37:00.490Z</time>
      </trkpt>
      <trkpt lat="46.98933" lon="8.69655">
        <ele>564</ele>
        <time>2021-08-05T10:37:01.491Z</time>
      </trkpt>
      <trkpt lat="46.98933" lon="8.69656">
        <ele>564</ele>
        <time>2021-08-05T10:37:02.491Z</time>
      </trkpt>
      <trkpt lat="46.98932" lon="8.69658">
        <ele>564</ele>
        <time>2021-08-05T10:37:03.491Z</time>
      </trkpt>
      <trkpt lat="46.98932" lon="8.69659">
        <ele>564</ele>
        <time>2021-08-05T10:37:04.491Z</time>
      </trkpt>
      <trkpt lat="46.98932" lon="8.69661">
        <ele>565</ele>
        <time>2021-08-05T10:37:05.490Z</time>
      </trkpt>
      <trkpt lat="46.98931" lon="8.69662">
        <ele>565</ele>
        <time>2021-08-05T10:37:06.490Z</time>
      </trkpt>
      <trkpt lat="46.98931" lon="8.69664">
        <ele>565</ele>
        <time>2021-08-05T10:37:07.491Z</time>
      </trkpt>
      <trkpt lat="46.9893" lon="8.69665">
        <ele>565</ele>
        <time>2021-08-05T10:37:08.491Z</time>
      </trkpt>
      <trkpt lat="46.9893" lon="8.69667">
        <ele>565</ele>
        <time>2021-08-05T10:37:09.490Z</time>
      </trkpt>
      <trkpt lat="46.98929" lon="8.69668">
        <ele>565</ele>
        <time>2021-08-05T10:37:10.491Z</time>
      </trkpt>
      <trkpt lat="46.98929" lon="8.6967">
        <ele>565</ele>
        <time>2021-08-05T10:37:11.490Z</time>
      </trkpt>
      <trkpt lat="46.98929" lon="8.69672">
        <ele>566</ele>
        <time>2021-08-05T10:37:12.491Z</time>
      </trkpt>
      <trkpt lat="46.98928" lon="8.69673">
        <ele>566</ele>
        <time>2021-08-05T10:37:13.491Z</time>
      </trkpt>
      <trkpt lat="46.98928" lon="8.69674">
        <ele>566</ele>
        <time>2021-08-05T10:37:14.491Z</time>
      </trkpt>
      <trkpt lat="46.98927" lon="8.69676">
        <ele>566</ele>
        <time>2021-08-05T10:37:15.491Z</time>
      </trkpt>
      <trkpt lat="46.98927" lon="8.69678">
        <ele>565</ele>
        <time>2021-08-05T10:37:16.490Z</time>
      </trkpt>
      <trkpt lat="46.98926" lon="8.69679">
        <ele>565</ele>
        <time>2021-08-05T10:37:17.491Z</time>
      </trkpt>
      <trkpt lat="46.98926" lon="8.69681">
        <ele>565</ele>
        <time>2021-08-05T10:37:18.490Z</time>
      </trkpt>
      <trkpt lat="46.98925" lon="8.69682">
        <ele>566</ele>
        <time>2021-08-05T10:37:19.490Z</time>
      </trkpt>
      <trkpt lat="46.98925" lon="8.69684">
        <ele>566</ele>
        <time>2021-08-05T10:37:20.491Z</time>
      </trkpt>
      <trkpt lat="46.98924" lon="8.69686">
        <ele>567</ele>
        <time>2021-08-05T10:37:21.490Z</time>
      </trkpt>
      <trkpt lat="46.98923" lon="8.69687">
        <ele>568</ele>
        <time>2021-08-05T10:37:22.490Z</time>
      </trkpt>
      <trkpt lat="46.98923" lon="8.69689">
        <ele>569</ele>
        <time>2021-08-05T10:37:23.491Z</time>
      </trkpt>
      <trkpt lat="46.98922" lon="8.69691">
        <ele>569</ele>
        <time>2021-08-05T10:37:24.491Z</time>
      </trkpt>
      <trkpt lat="46.98922" lon="8.69692">
        <ele>569</ele>
        <time>2021-08-05T10:37:25.491Z</time>
      </trkpt>
      <trkpt lat="46.98921" lon="8.69693">
        <ele>568</ele>
        <time>2021-08-05T10:37:26.491Z</time>
      </trkpt>
      <trkpt lat="46.98921" lon="8.69694">
        <ele>568</ele>
        <time>2021-08-05T10:37:27.491Z</time>
      </trkpt>
      <trkpt lat="46.9892" lon="8.69696">
        <ele>567</ele>
        <time>2021-08-05T10:37:28.491Z</time>
      </trkpt>
      <trkpt lat="46.98919" lon="8.69697">
        <ele>566</ele>
        <time>2021-08-05T10:37:29.491Z</time>
      </trkpt>
      <trkpt lat="46.98919" lon="8.69699">
        <ele>566</ele>
        <time>2021-08-05T10:37:30.491Z</time>
      </trkpt>
      <trkpt lat="46.98918" lon="8.697">
        <ele>566</ele>
        <time>2021-08-05T10:37:31.491Z</time>
      </trkpt>
      <trkpt lat="46.98917" lon="8.69703">
        <ele>566</ele>
        <time>2021-08-05T10:37:32.491Z</time>
      </trkpt>
      <trkpt lat="46.98917" lon="8.69704">
        <ele>566</ele>
        <time>2021-08-05T10:37:33.490Z</time>
      </trkpt>
      <trkpt lat="46.98916" lon="8.69705">
        <ele>565</ele>
        <time>2021-08-05T10:37:34.490Z</time>
      </trkpt>
      <trkpt lat="46.98916" lon="8.69707">
        <ele>565</ele>
        <time>2021-08-05T10:37:35.490Z</time>
      </trkpt>
      <trkpt lat="46.98916" lon="8.69708">
        <ele>565</ele>
        <time>2021-08-05T10:37:36.490Z</time>
      </trkpt>
      <trkpt lat="46.98915" lon="8.6971">
        <ele>565</ele>
        <time>2021-08-05T10:37:37.491Z</time>
      </trkpt>
      <trkpt lat="46.98915" lon="8.69712">
        <ele>565</ele>
        <time>2021-08-05T10:37:38.490Z</time>
      </trkpt>
      <trkpt lat="46.98914" lon="8.69713">
        <ele>566</ele>
        <time>2021-08-05T10:37:39.491Z</time>
      </trkpt>
      <trkpt lat="46.98913" lon="8.69715">
        <ele>566</ele>
        <time>2021-08-05T10:37:40.491Z</time>
      </trkpt>
      <trkpt lat="46.98913" lon="8.69716">
        <ele>566</ele>
        <time>2021-08-05T10:37:41.490Z</time>
      </trkpt>
      <trkpt lat="46.98913" lon="8.69718">
        <ele>567</ele>
        <time>2021-08-05T10:37:42.491Z</time>
      </trkpt>
      <trkpt lat="46.98913" lon="8.69719">
        <ele>567</ele>
        <time>2021-08-05T10:37:43.490Z</time>
      </trkpt>
      <trkpt lat="46.98912" lon="8.6972">
        <ele>566</ele>
        <time>2021-08-05T10:37:44.490Z</time>
      </trkpt>
      <trkpt lat="46.98912" lon="8.69722">
        <ele>566</ele>
        <time>2021-08-05T10:37:45.491Z</time>
      </trkpt>
      <trkpt lat="46.98912" lon="8.69723">
        <ele>566</ele>
        <time>2021-08-05T10:37:46.491Z</time>
      </trkpt>
      <trkpt lat="46.98911" lon="8.69725">
        <ele>566</ele>
        <time>2021-08-05T10:37:47.490Z</time>
      </trkpt>
      <trkpt lat="46.98911" lon="8.69726">
        <ele>566</ele>
        <time>2021-08-05T10:37:48.491Z</time>
      </trkpt>
      <trkpt lat="46.9891" lon="8.69728">
        <ele>566</ele>
        <time>2021-08-05T10:37:49.490Z</time>
      </trkpt>
      <trkpt lat="46.9891" lon="8.69729">
        <ele>566</ele>
        <time>2021-08-05T10:37:50.490Z</time>
      </trkpt>
      <trkpt lat="46.98909" lon="8.6973">
        <ele>567</ele>
        <time>2021-08-05T10:37:51.491Z</time>
      </trkpt>
      <trkpt lat="46.98909" lon="8.69731">
        <ele>567</ele>
        <time>2021-08-05T10:37:52.490Z</time>
      </trkpt>
      <trkpt lat="46.98908" lon="8.69733">
        <ele>566</ele>
        <time>2021-08-05T10:37:53.490Z</time>
      </trkpt>
      <trkpt lat="46.98908" lon="8.69734">
        <ele>566</ele>
        <time>2021-08-05T10:37:54.490Z</time>
      </trkpt>
      <trkpt lat="46.98907" lon="8.69736">
        <ele>566</ele>
        <time>2021-08-05T10:37:55.490Z</time>
      </trkpt>
      <trkpt lat="46.98907" lon="8.69737">
        <ele>566</ele>
        <time>2021-08-05T10:37:56.490Z</time>
      </trkpt>
      <trkpt lat="46.98906" lon="8.69738">
        <ele>566</ele>
        <time>2021-08-05T10:37:57.490Z</time>
      </trkpt>
      <trkpt lat="46.98906" lon="8.6974">
        <ele>566</ele>
        <time>2021-08-05T10:37:58.490Z</time>
      </trkpt>
      <trkpt lat="46.98905" lon="8.69741">
        <ele>566</ele>
        <time>2021-08-05T10:37:59.491Z</time>
      </trkpt>
      <trkpt lat="46.98905" lon="8.69743">
        <ele>567</ele>
        <time>2021-08-05T10:38:00.490Z</time>
      </trkpt>
      <trkpt lat="46.98904" lon="8.69744">
        <ele>567</ele>
        <time>2021-08-05T10:38:01.490Z</time>
      </trkpt>
      <trkpt lat="46.98904" lon="8.69746">
        <ele>567</ele>
        <time>2021-08-05T10:38:02.490Z</time>
      </trkpt>
      <trkpt lat="46.98903" lon="8.69748">
        <ele>567</ele>
        <time>2021-08-05T10:38:03.490Z</time>
      </trkpt>
      <trkpt lat="46.98903" lon="8.69749">
        <ele>568</ele>
        <time>2021-08-05T10:38:04.490Z</time>
      </trkpt>
      <trkpt lat="46.98902" lon="8.6975">
        <ele>568</ele>
        <time>2021-08-05T10:38:05.490Z</time>
      </trkpt>
      <trkpt lat="46.98902" lon="8.69752">
        <ele>568</ele>
        <time>2021-08-05T10:38:06.490Z</time>
      </trkpt>
      <trkpt lat="46.98902" lon="8.69753">
        <ele>568</ele>
        <time>2021-08-05T10:38:07.490Z</time>
      </trkpt>
      <trkpt lat="46.98901" lon="8.69754">
        <ele>568</ele>
        <time>2021-08-05T10:38:08.490Z</time>
      </trkpt>
      <trkpt lat="46.98901" lon="8.69756">
        <ele>569</ele>
        <time>2021-08-05T10:38:09.490Z</time>
      </trkpt>
      <trkpt lat="46.98901" lon="8.69757">
        <ele>569</ele>
        <time>2021-08-05T10:38:10.491Z</time>
      </trkpt>
      <trkpt lat="46.989" lon="8.69758">
        <ele>569</ele>
        <time>2021-08-05T10:38:11.490Z</time>
      </trkpt>
      <trkpt lat="46.989" lon="8.6976">
        <ele>569</ele>
        <time>2021-08-05T10:38:12.490Z</time>
      </trkpt>
      <trkpt lat="46.989" lon="8.69761">
        <ele>570</ele>
        <time>2021-08-05T10:38:13.490Z</time>
      </trkpt>
      <trkpt lat="46.98899" lon="8.69763">
        <ele>569</ele>
        <time>2021-08-05T10:38:14.490Z</time>
      </trkpt>
      <trkpt lat="46.98899" lon="8.69764">
        <ele>569</ele>
        <time>2021-08-05T10:38:15.490Z</time>
      </trkpt>
      <trkpt lat="46.98898" lon="8.69766">
        <ele>568</ele>
        <time>2021-08-05T10:38:16.490Z</time>
      </trkpt>
      <trkpt lat="46.98898" lon="8.69767">
        <ele>568</ele>
        <time>2021-08-05T10:38:17.490Z</time>
      </trkpt>
      <trkpt lat="46.98897" lon="8.69769">
        <ele>567</ele>
        <time>2021-08-05T10:38:18.490Z</time>
      </trkpt>
      <trkpt lat="46.98897" lon="8.6977">
        <ele>567</ele>
        <time>2021-08-05T10:38:19.491Z</time>
      </trkpt>
      <trkpt lat="46.98896" lon="8.69771">
        <ele>566</ele>
        <time>2021-08-05T10:38:20.491Z</time>
      </trkpt>
      <trkpt lat="46.98896" lon="8.69772">
        <ele>566</ele>
        <time>2021-08-05T10:38:21.490Z</time>
      </trkpt>
      <trkpt lat="46.98896" lon="8.69773">
        <ele>566</ele>
        <time>2021-08-05T10:38:22.490Z</time>
      </trkpt>
      <trkpt lat="46.98895" lon="8.69773">
        <ele>567</ele>
        <time>2021-08-05T10:38:23.490Z</time>
      </trkpt>
      <trkpt lat="46.98894" lon="8.69776">
        <ele>570</ele>
        <time>2021-08-05T10:38:24.490Z</time>
      </trkpt>
      <trkpt lat="46.98894" lon="8.69776">
        <ele>570</ele>
        <time>2021-08-05T10:38:25.491Z</time>
      </trkpt>
      <trkpt lat="46.98894" lon="8.69777">
        <ele>570</ele>
        <time>2021-08-05T10:38:26.490Z</time>
      </trkpt>
      <trkpt lat="46.98894" lon="8.69778">
        <ele>570</ele>
        <time>2021-08-05T10:38:27.491Z</time>
      </trkpt>
      <trkpt lat="46.98893" lon="8.69779">
        <ele>570</ele>
        <time>2021-08-05T10:38:28.491Z</time>
      </trkpt>
      <trkpt lat="46.98893" lon="8.6978">
        <ele>570</ele>
        <time>2021-08-05T10:38:29.491Z</time>
      </trkpt>
      <trkpt lat="46.98893" lon="8.69781">
        <ele>569</ele>
        <time>2021-08-05T10:38:30.491Z</time>
      </trkpt>
      <trkpt lat="46.98892" lon="8.69782">
        <ele>569</ele>
        <time>2021-08-05T10:38:31.491Z</time>
      </trkpt>
      <trkpt lat="46.98892" lon="8.69783">
        <ele>568</ele>
        <time>2021-08-05T10:38:32.491Z</time>
      </trkpt>
      <trkpt lat="46.98891" lon="8.69784">
        <ele>568</ele>
        <time>2021-08-05T10:38:33.491Z</time>
      </trkpt>
      <trkpt lat="46.98891" lon="8.69786">
        <ele>568</ele>
        <time>2021-08-05T10:38:34.490Z</time>
      </trkpt>
      <trkpt lat="46.98891" lon="8.69787">
        <ele>568</ele>
        <time>2021-08-05T10:38:35.491Z</time>
      </trkpt>
      <trkpt lat="46.98891" lon="8.69789">
        <ele>567</ele>
        <time>2021-08-05T10:38:36.491Z</time>
      </trkpt>
      <trkpt lat="46.98891" lon="8.6979">
        <ele>567</ele>
        <time>2021-08-05T10:38:37.491Z</time>
      </trkpt>
      <trkpt lat="46.98891" lon="8.69791">
        <ele>567</ele>
        <time>2021-08-05T10:38:38.491Z</time>
      </trkpt>
      <trkpt lat="46.98891" lon="8.69792">
        <ele>566</ele>
        <time>2021-08-05T10:38:39.490Z</time>
      </trkpt>
      <trkpt lat="46.9889" lon="8.69793">
        <ele>566</ele>
        <time>2021-08-05T10:38:40.490Z</time>
      </trkpt>
      <trkpt lat="46.9889" lon="8.69794">
        <ele>565</ele>
        <time>2021-08-05T10:38:41.490Z</time>
      </trkpt>
      <trkpt lat="46.9889" lon="8.69796">
        <ele>565</ele>
        <time>2021-08-05T10:38:42.490Z</time>
      </trkpt>
      <trkpt lat="46.9889" lon="8.69797">
        <ele>564</ele>
        <time>2021-08-05T10:38:43.490Z</time>
      </trkpt>
      <trkpt lat="46.98889" lon="8.69799">
        <ele>564</ele>
        <time>2021-08-05T10:38:44.491Z</time>
      </trkpt>
      <trkpt lat="46.98889" lon="8.698">
        <ele>564</ele>
        <time>2021-08-05T10:38:45.491Z</time>
      </trkpt>
      <trkpt lat="46.98889" lon="8.69801">
        <ele>564</ele>
        <time>2021-08-05T10:38:46.490Z</time>
      </trkpt>
      <trkpt lat="46.98888" lon="8.69802">
        <ele>564</ele>
        <time>2021-08-05T10:38:47.490Z</time>
      </trkpt>
      <trkpt lat="46.98888" lon="8.69803">
        <ele>564</ele>
        <time>2021-08-05T10:38:48.491Z</time>
      </trkpt>
      <trkpt lat="46.98887" lon="8.69804">
        <ele>564</ele>
        <time>2021-08-05T10:38:49.491Z</time>
      </trkpt>
      <trkpt lat="46.98887" lon="8.69805">
        <ele>564</ele>
        <time>2021-08-05T10:38:50.491Z</time>
      </trkpt>
      <trkpt lat="46.98887" lon="8.69807">
        <ele>564</ele>
        <time>2021-08-05T10:38:51.491Z</time>
      </trkpt>
      <trkpt lat="46.98887" lon="8.69808">
        <ele>565</ele>
        <time>2021-08-05T10:38:52.490Z</time>
      </trkpt>
      <trkpt lat="46.98886" lon="8.6981">
        <ele>565</ele>
        <time>2021-08-05T10:38:53.491Z</time>
      </trkpt>
      <trkpt lat="46.98886" lon="8.69812">
        <ele>565</ele>
        <time>2021-08-05T10:38:54.491Z</time>
      </trkpt>
      <trkpt lat="46.98885" lon="8.69814">
        <ele>565</ele>
        <time>2021-08-05T10:38:55.491Z</time>
      </trkpt>
      <trkpt lat="46.98885" lon="8.69815">
        <ele>565</ele>
        <time>2021-08-05T10:38:56.490Z</time>
      </trkpt>
      <trkpt lat="46.98884" lon="8.69816">
        <ele>565</ele>
        <time>2021-08-05T10:38:57.491Z</time>
      </trkpt>
      <trkpt lat="46.98884" lon="8.69818">
        <ele>564</ele>
        <time>2021-08-05T10:38:58.490Z</time>
      </trkpt>
      <trkpt lat="46.98883" lon="8.69819">
        <ele>565</ele>
        <time>2021-08-05T10:38:59.491Z</time>
      </trkpt>
      <trkpt lat="46.98883" lon="8.69821">
        <ele>565</ele>
        <time>2021-08-05T10:39:00.491Z</time>
      </trkpt>
      <trkpt lat="46.98882" lon="8.69822">
        <ele>565</ele>
        <time>2021-08-05T10:39:01.490Z</time>
      </trkpt>
      <trkpt lat="46.98882" lon="8.69824">
        <ele>564</ele>
        <time>2021-08-05T10:39:02.490Z</time>
      </trkpt>
      <trkpt lat="46.98881" lon="8.69825">
        <ele>564</ele>
        <time>2021-08-05T10:39:03.490Z</time>
      </trkpt>
      <trkpt lat="46.98881" lon="8.69826">
        <ele>564</ele>
        <time>2021-08-05T10:39:04.490Z</time>
      </trkpt>
      <trkpt lat="46.9888" lon="8.69827">
        <ele>563</ele>
        <time>2021-08-05T10:39:05.490Z</time>
      </trkpt>
      <trkpt lat="46.98879" lon="8.69829">
        <ele>562</ele>
        <time>2021-08-05T10:39:06.490Z</time>
      </trkpt>
      <trkpt lat="46.98879" lon="8.6983">
        <ele>562</ele>
        <time>2021-08-05T10:39:07.491Z</time>
      </trkpt>
      <trkpt lat="46.98878" lon="8.69831">
        <ele>561</ele>
        <time>2021-08-05T10:39:08.490Z</time>
      </trkpt>
      <trkpt lat="46.98878" lon="8.69833">
        <ele>560</ele>
        <time>2021-08-05T10:39:09.491Z</time>
      </trkpt>
      <trkpt lat="46.98878" lon="8.69834">
        <ele>560</ele>
        <time>2021-08-05T10:39:10.490Z</time>
      </trkpt>
      <trkpt lat="46.98877" lon="8.69836">
        <ele>559</ele>
        <time>2021-08-05T10:39:11.491Z</time>
      </trkpt>
      <trkpt lat="46.98877" lon="8.69837">
        <ele>559</ele>
        <time>2021-08-05T10:39:12.490Z</time>
      </trkpt>
      <trkpt lat="46.98877" lon="8.69839">
        <ele>559</ele>
        <time>2021-08-05T10:39:13.490Z</time>
      </trkpt>
      <trkpt lat="46.98876" lon="8.6984">
        <ele>559</ele>
        <time>2021-08-05T10:39:14.490Z</time>
      </trkpt>
      <trkpt lat="46.98875" lon="8.69841">
        <ele>558</ele>
        <time>2021-08-05T10:39:15.491Z</time>
      </trkpt>
      <trkpt lat="46.98875" lon="8.69842">
        <ele>558</ele>
        <time>2021-08-05T10:39:16.491Z</time>
      </trkpt>
      <trkpt lat="46.98874" lon="8.69844">
        <ele>558</ele>
        <time>2021-08-05T10:39:17.490Z</time>
      </trkpt>
      <trkpt lat="46.98874" lon="8.69845">
        <ele>558</ele>
        <time>2021-08-05T10:39:18.491Z</time>
      </trkpt>
      <trkpt lat="46.98873" lon="8.69846">
        <ele>558</ele>
        <time>2021-08-05T10:39:19.491Z</time>
      </trkpt>
      <trkpt lat="46.98873" lon="8.69848">
        <ele>558</ele>
        <time>2021-08-05T10:39:20.490Z</time>
      </trkpt>
      <trkpt lat="46.98872" lon="8.69849">
        <ele>557</ele>
        <time>2021-08-05T10:39:21.490Z</time>
      </trkpt>
      <trkpt lat="46.98872" lon="8.6985">
        <ele>557</ele>
        <time>2021-08-05T10:39:22.490Z</time>
      </trkpt>
      <trkpt lat="46.98871" lon="8.69851">
        <ele>557</ele>
        <time>2021-08-05T10:39:23.490Z</time>
      </trkpt>
      <trkpt lat="46.9887" lon="8.69853">
        <ele>557</ele>
        <time>2021-08-05T10:39:24.490Z</time>
      </trkpt>
      <trkpt lat="46.9887" lon="8.69854">
        <ele>557</ele>
        <time>2021-08-05T10:39:25.491Z</time>
      </trkpt>
      <trkpt lat="46.9887" lon="8.69856">
        <ele>557</ele>
        <time>2021-08-05T10:39:26.490Z</time>
      </trkpt>
      <trkpt lat="46.98869" lon="8.69858">
        <ele>557</ele>
        <time>2021-08-05T10:39:27.490Z</time>
      </trkpt>
      <trkpt lat="46.98869" lon="8.6986">
        <ele>556</ele>
        <time>2021-08-05T10:39:28.490Z</time>
      </trkpt>
      <trkpt lat="46.98868" lon="8.69862">
        <ele>556</ele>
        <time>2021-08-05T10:39:29.490Z</time>
      </trkpt>
      <trkpt lat="46.98868" lon="8.69863">
        <ele>556</ele>
        <time>2021-08-05T10:39:30.490Z</time>
      </trkpt>
      <trkpt lat="46.98867" lon="8.69864">
        <ele>556</ele>
        <time>2021-08-05T10:39:31.491Z</time>
      </trkpt>
      <trkpt lat="46.98866" lon="8.69865">
        <ele>555</ele>
        <time>2021-08-05T10:39:32.490Z</time>
      </trkpt>
      <trkpt lat="46.98865" lon="8.69866">
        <ele>555</ele>
        <time>2021-08-05T10:39:33.490Z</time>
      </trkpt>
      <trkpt lat="46.98864" lon="8.69867">
        <ele>556</ele>
        <time>2021-08-05T10:39:34.490Z</time>
      </trkpt>
      <trkpt lat="46.98864" lon="8.69869">
        <ele>556</ele>
        <time>2021-08-05T10:39:35.490Z</time>
      </trkpt>
      <trkpt lat="46.98864" lon="8.6987">
        <ele>557</ele>
        <time>2021-08-05T10:39:36.490Z</time>
      </trkpt>
      <trkpt lat="46.98863" lon="8.69872">
        <ele>557</ele>
        <time>2021-08-05T10:39:37.491Z</time>
      </trkpt>
      <trkpt lat="46.98862" lon="8.69873">
        <ele>558</ele>
        <time>2021-08-05T10:39:38.491Z</time>
      </trkpt>
      <trkpt lat="46.98861" lon="8.69875">
        <ele>559</ele>
        <time>2021-08-05T10:39:39.490Z</time>
      </trkpt>
      <trkpt lat="46.98861" lon="8.69877">
        <ele>560</ele>
        <time>2021-08-05T10:39:40.491Z</time>
      </trkpt>
      <trkpt lat="46.9886" lon="8.69878">
        <ele>561</ele>
        <time>2021-08-05T10:39:41.490Z</time>
      </trkpt>
      <trkpt lat="46.9886" lon="8.6988">
        <ele>561</ele>
        <time>2021-08-05T10:39:42.491Z</time>
      </trkpt>
      <trkpt lat="46.98859" lon="8.69882">
        <ele>562</ele>
        <time>2021-08-05T10:39:43.491Z</time>
      </trkpt>
      <trkpt lat="46.98859" lon="8.69884">
        <ele>563</ele>
        <time>2021-08-05T10:39:44.491Z</time>
      </trkpt>
      <trkpt lat="46.98858" lon="8.69885">
        <ele>563</ele>
        <time>2021-08-05T10:39:45.490Z</time>
      </trkpt>
      <trkpt lat="46.98857" lon="8.69887">
        <ele>564</ele>
        <time>2021-08-05T10:39:46.491Z</time>
      </trkpt>
      <trkpt lat="46.98856" lon="8.69889">
        <ele>565</ele>
        <time>2021-08-05T10:39:47.491Z</time>
      </trkpt>
      <trkpt lat="46.98856" lon="8.6989">
        <ele>566</ele>
        <time>2021-08-05T10:39:48.490Z</time>
      </trkpt>
      <trkpt lat="46.98855" lon="8.69891">
        <ele>567</ele>
        <time>2021-08-05T10:39:49.491Z</time>
      </trkpt>
      <trkpt lat="46.98854" lon="8.69892">
        <ele>567</ele>
        <time>2021-08-05T10:39:50.490Z</time>
      </trkpt>
      <trkpt lat="46.98854" lon="8.69894">
        <ele>567</ele>
        <time>2021-08-05T10:39:51.491Z</time>
      </trkpt>
      <trkpt lat="46.98853" lon="8.69896">
        <ele>567</ele>
        <time>2021-08-05T10:39:52.491Z</time>
      </trkpt>
      <trkpt lat="46.98853" lon="8.69897">
        <ele>566</ele>
        <time>2021-08-05T10:39:53.491Z</time>
      </trkpt>
      <trkpt lat="46.98853" lon="8.69898">
        <ele>565</ele>
        <time>2021-08-05T10:39:54.491Z</time>
      </trkpt>
      <trkpt lat="46.98852" lon="8.699">
        <ele>564</ele>
        <time>2021-08-05T10:39:55.490Z</time>
      </trkpt>
      <trkpt lat="46.98852" lon="8.69901">
        <ele>563</ele>
        <time>2021-08-05T10:39:56.491Z</time>
      </trkpt>
      <trkpt lat="46.98851" lon="8.69902">
        <ele>563</ele>
        <time>2021-08-05T10:39:57.490Z</time>
      </trkpt>
      <trkpt lat="46.98851" lon="8.69903">
        <ele>562</ele>
        <time>2021-08-05T10:39:58.491Z</time>
      </trkpt>
      <trkpt lat="46.9885" lon="8.69904">
        <ele>562</ele>
        <time>2021-08-05T10:39:59.490Z</time>
      </trkpt>
      <trkpt lat="46.98849" lon="8.69905">
        <ele>563</ele>
        <time>2021-08-05T10:40:00.491Z</time>
      </trkpt>
      <trkpt lat="46.98848" lon="8.69907">
        <ele>563</ele>
        <time>2021-08-05T10:40:01.491Z</time>
      </trkpt>
      <trkpt lat="46.98848" lon="8.69908">
        <ele>563</ele>
        <time>2021-08-05T10:40:02.490Z</time>
      </trkpt>
      <trkpt lat="46.98846" lon="8.6991">
        <ele>564</ele>
        <time>2021-08-05T10:40:03.491Z</time>
      </trkpt>
      <trkpt lat="46.98845" lon="8.69912">
        <ele>564</ele>
        <time>2021-08-05T10:40:04.490Z</time>
      </trkpt>
      <trkpt lat="46.98844" lon="8.69914">
        <ele>564</ele>
        <time>2021-08-05T10:40:05.491Z</time>
      </trkpt>
      <trkpt lat="46.98843" lon="8.69915">
        <ele>564</ele>
        <time>2021-08-05T10:40:06.491Z</time>
      </trkpt>
      <trkpt lat="46.98843" lon="8.69917">
        <ele>564</ele>
        <time>2021-08-05T10:40:07.490Z</time>
      </trkpt>
      <trkpt lat="46.98843" lon="8.69919">
        <ele>564</ele>
        <time>2021-08-05T10:40:08.490Z</time>
      </trkpt>
      <trkpt lat="46.98843" lon="8.69922">
        <ele>564</ele>
        <time>2021-08-05T10:40:09.490Z</time>
      </trkpt>
      <trkpt lat="46.98842" lon="8.69923">
        <ele>564</ele>
        <time>2021-08-05T10:40:10.490Z</time>
      </trkpt>
      <trkpt lat="46.98842" lon="8.69924">
        <ele>565</ele>
        <time>2021-08-05T10:40:11.491Z</time>
      </trkpt>
      <trkpt lat="46.98842" lon="8.69925">
        <ele>565</ele>
        <time>2021-08-05T10:40:12.491Z</time>
      </trkpt>
      <trkpt lat="46.98842" lon="8.69927">
        <ele>565</ele>
        <time>2021-08-05T10:40:13.490Z</time>
      </trkpt>
      <trkpt lat="46.98842" lon="8.69929">
        <ele>565</ele>
        <time>2021-08-05T10:40:14.491Z</time>
      </trkpt>
      <trkpt lat="46.98841" lon="8.69931">
        <ele>566</ele>
        <time>2021-08-05T10:40:15.490Z</time>
      </trkpt>
      <trkpt lat="46.98841" lon="8.69932">
        <ele>566</ele>
        <time>2021-08-05T10:40:16.491Z</time>
      </trkpt>
      <trkpt lat="46.98841" lon="8.69933">
        <ele>567</ele>
        <time>2021-08-05T10:40:17.490Z</time>
      </trkpt>
      <trkpt lat="46.98841" lon="8.69935">
        <ele>567</ele>
        <time>2021-08-05T10:40:18.490Z</time>
      </trkpt>
      <trkpt lat="46.9884" lon="8.69936">
        <ele>567</ele>
        <time>2021-08-05T10:40:19.491Z</time>
      </trkpt>
      <trkpt lat="46.9884" lon="8.69937">
        <ele>567</ele>
        <time>2021-08-05T10:40:20.490Z</time>
      </trkpt>
      <trkpt lat="46.9884" lon="8.69938">
        <ele>567</ele>
        <time>2021-08-05T10:40:21.491Z</time>
      </trkpt>
      <trkpt lat="46.98839" lon="8.6994">
        <ele>567</ele>
        <time>2021-08-05T10:40:22.491Z</time>
      </trkpt>
      <trkpt lat="46.98838" lon="8.69941">
        <ele>567</ele>
        <time>2021-08-05T10:40:23.490Z</time>
      </trkpt>
      <trkpt lat="46.98838" lon="8.69942">
        <ele>568</ele>
        <time>2021-08-05T10:40:24.491Z</time>
      </trkpt>
      <trkpt lat="46.98838" lon="8.69943">
        <ele>568</ele>
        <time>2021-08-05T10:40:25.491Z</time>
      </trkpt>
      <trkpt lat="46.98837" lon="8.69945">
        <ele>568</ele>
        <time>2021-08-05T10:40:26.490Z</time>
      </trkpt>
      <trkpt lat="46.98837" lon="8.69946">
        <ele>569</ele>
        <time>2021-08-05T10:40:27.491Z</time>
      </trkpt>
      <trkpt lat="46.98836" lon="8.69948">
        <ele>569</ele>
        <time>2021-08-05T10:40:28.490Z</time>
      </trkpt>
      <trkpt lat="46.98835" lon="8.69949">
        <ele>570</ele>
        <time>2021-08-05T10:40:29.491Z</time>
      </trkpt>
      <trkpt lat="46.98835" lon="8.69951">
        <ele>571</ele>
        <time>2021-08-05T10:40:30.491Z</time>
      </trkpt>
      <trkpt lat="46.98834" lon="8.69952">
        <ele>571</ele>
        <time>2021-08-05T10:40:31.490Z</time>
      </trkpt>
      <trkpt lat="46.98834" lon="8.69954">
        <ele>571</ele>
        <time>2021-08-05T10:40:32.491Z</time>
      </trkpt>
      <trkpt lat="46.98833" lon="8.69955">
        <ele>571</ele>
        <time>2021-08-05T10:40:33.490Z</time>
      </trkpt>
      <trkpt lat="46.98834" lon="8.69957">
        <ele>571</ele>
        <time>2021-08-05T10:40:34.490Z</time>
      </trkpt>
      <trkpt lat="46.98833" lon="8.69958">
        <ele>570</ele>
        <time>2021-08-05T10:40:35.490Z</time>
      </trkpt>
      <trkpt lat="46.98833" lon="8.6996">
        <ele>570</ele>
        <time>2021-08-05T10:40:36.491Z</time>
      </trkpt>
      <trkpt lat="46.98833" lon="8.69962">
        <ele>570</ele>
        <time>2021-08-05T10:40:37.491Z</time>
      </trkpt>
      <trkpt lat="46.98832" lon="8.69963">
        <ele>569</ele>
        <time>2021-08-05T10:40:38.490Z</time>
      </trkpt>
      <trkpt lat="46.98832" lon="8.69963">
        <ele>569</ele>
        <time>2021-08-05T10:40:39.491Z</time>
      </trkpt>
      <trkpt lat="46.98831" lon="8.69964">
        <ele>568</ele>
        <time>2021-08-05T10:40:48.558Z</time>
      </trkpt>
      <trkpt lat="46.9883" lon="8.69966">
        <ele>568</ele>
        <time>2021-08-05T10:40:49.558Z</time>
      </trkpt>
      <trkpt lat="46.98829" lon="8.69967">
        <ele>567</ele>
        <time>2021-08-05T10:40:50.558Z</time>
      </trkpt>
      <trkpt lat="46.98829" lon="8.69969">
        <ele>567</ele>
        <time>2021-08-05T10:40:51.557Z</time>
      </trkpt>
      <trkpt lat="46.98828" lon="8.6997">
        <ele>566</ele>
        <time>2021-08-05T10:40:52.557Z</time>
      </trkpt>
      <trkpt lat="46.98828" lon="8.69971">
        <ele>566</ele>
        <time>2021-08-05T10:40:53.558Z</time>
      </trkpt>
      <trkpt lat="46.98827" lon="8.69972">
        <ele>566</ele>
        <time>2021-08-05T10:40:54.558Z</time>
      </trkpt>
      <trkpt lat="46.98827" lon="8.69973">
        <ele>566</ele>
        <time>2021-08-05T10:40:55.558Z</time>
      </trkpt>
      <trkpt lat="46.98826" lon="8.69974">
        <ele>566</ele>
        <time>2021-08-05T10:40:56.557Z</time>
      </trkpt>
      <trkpt lat="46.98826" lon="8.69976">
        <ele>566</ele>
        <time>2021-08-05T10:40:57.558Z</time>
      </trkpt>
      <trkpt lat="46.98825" lon="8.69978">
        <ele>565</ele>
        <time>2021-08-05T10:40:58.558Z</time>
      </trkpt>
      <trkpt lat="46.98824" lon="8.6998">
        <ele>565</ele>
        <time>2021-08-05T10:40:59.557Z</time>
      </trkpt>
      <trkpt lat="46.98824" lon="8.69982">
        <ele>565</ele>
        <time>2021-08-05T10:41:00.557Z</time>
      </trkpt>
      <trkpt lat="46.98823" lon="8.69983">
        <ele>565</ele>
        <time>2021-08-05T10:41:01.558Z</time>
      </trkpt>
      <trkpt lat="46.98823" lon="8.69985">
        <ele>566</ele>
        <time>2021-08-05T10:41:02.558Z</time>
      </trkpt>
      <trkpt lat="46.98822" lon="8.69988">
        <ele>566</ele>
        <time>2021-08-05T10:41:03.557Z</time>
      </trkpt>
      <trkpt lat="46.98822" lon="8.6999">
        <ele>566</ele>
        <time>2021-08-05T10:41:04.558Z</time>
      </trkpt>
      <trkpt lat="46.98821" lon="8.69993">
        <ele>567</ele>
        <time>2021-08-05T10:41:05.558Z</time>
      </trkpt>
      <trkpt lat="46.98821" lon="8.69995">
        <ele>568</ele>
        <time>2021-08-05T10:41:06.558Z</time>
      </trkpt>
      <trkpt lat="46.9882" lon="8.69997">
        <ele>568</ele>
        <time>2021-08-05T10:41:07.557Z</time>
      </trkpt>
      <trkpt lat="46.9882" lon="8.69999">
        <ele>568</ele>
        <time>2021-08-05T10:41:08.557Z</time>
      </trkpt>
      <trkpt lat="46.98819" lon="8.70002">
        <ele>569</ele>
        <time>2021-08-05T10:41:09.558Z</time>
      </trkpt>
      <trkpt lat="46.98819" lon="8.70004">
        <ele>569</ele>
        <time>2021-08-05T10:41:10.558Z</time>
      </trkpt>
      <trkpt lat="46.98819" lon="8.70006">
        <ele>570</ele>
        <time>2021-08-05T10:41:11.558Z</time>
      </trkpt>
      <trkpt lat="46.98819" lon="8.70008">
        <ele>570</ele>
        <time>2021-08-05T10:41:12.557Z</time>
      </trkpt>
      <trkpt lat="46.98819" lon="8.7001">
        <ele>570</ele>
        <time>2021-08-05T10:41:13.557Z</time>
      </trkpt>
      <trkpt lat="46.98818" lon="8.70012">
        <ele>570</ele>
        <time>2021-08-05T10:41:14.557Z</time>
      </trkpt>
      <trkpt lat="46.98817" lon="8.70013">
        <ele>569</ele>
        <time>2021-08-05T10:41:15.558Z</time>
      </trkpt>
      <trkpt lat="46.98817" lon="8.70015">
        <ele>569</ele>
        <time>2021-08-05T10:41:16.557Z</time>
      </trkpt>
      <trkpt lat="46.98817" lon="8.70017">
        <ele>569</ele>
        <time>2021-08-05T10:41:17.557Z</time>
      </trkpt>
      <trkpt lat="46.98816" lon="8.70019">
        <ele>569</ele>
        <time>2021-08-05T10:41:18.558Z</time>
      </trkpt>
      <trkpt lat="46.98816" lon="8.70021">
        <ele>568</ele>
        <time>2021-08-05T10:41:19.557Z</time>
      </trkpt>
      <trkpt lat="46.98815" lon="8.70022">
        <ele>567</ele>
        <time>2021-08-05T10:41:20.557Z</time>
      </trkpt>
      <trkpt lat="46.98814" lon="8.70024">
        <ele>567</ele>
        <time>2021-08-05T10:41:21.557Z</time>
      </trkpt>
      <trkpt lat="46.98814" lon="8.70026">
        <ele>566</ele>
        <time>2021-08-05T10:41:22.557Z</time>
      </trkpt>
      <trkpt lat="46.98814" lon="8.70027">
        <ele>566</ele>
        <time>2021-08-05T10:41:23.558Z</time>
      </trkpt>
      <trkpt lat="46.98813" lon="8.70028">
        <ele>566</ele>
        <time>2021-08-05T10:41:24.557Z</time>
      </trkpt>
      <trkpt lat="46.98813" lon="8.70029">
        <ele>567</ele>
        <time>2021-08-05T10:41:25.557Z</time>
      </trkpt>
      <trkpt lat="46.98813" lon="8.7003">
        <ele>567</ele>
        <time>2021-08-05T10:41:26.557Z</time>
      </trkpt>
      <trkpt lat="46.98812" lon="8.70032">
        <ele>568</ele>
        <time>2021-08-05T10:41:27.557Z</time>
      </trkpt>
      <trkpt lat="46.98812" lon="8.70033">
        <ele>568</ele>
        <time>2021-08-05T10:41:28.558Z</time>
      </trkpt>
      <trkpt lat="46.98812" lon="8.70035">
        <ele>569</ele>
        <time>2021-08-05T10:41:29.557Z</time>
      </trkpt>
      <trkpt lat="46.98812" lon="8.70037">
        <ele>569</ele>
        <time>2021-08-05T10:41:30.557Z</time>
      </trkpt>
      <trkpt lat="46.98812" lon="8.70038">
        <ele>569</ele>
        <time>2021-08-05T10:41:31.557Z</time>
      </trkpt>
      <trkpt lat="46.98811" lon="8.7004">
        <ele>569</ele>
        <time>2021-08-05T10:41:32.557Z</time>
      </trkpt>
      <trkpt lat="46.98811" lon="8.70041">
        <ele>569</ele>
        <time>2021-08-05T10:41:33.558Z</time>
      </trkpt>
      <trkpt lat="46.98811" lon="8.70043">
        <ele>569</ele>
        <time>2021-08-05T10:41:34.558Z</time>
      </trkpt>
      <trkpt lat="46.98811" lon="8.70044">
        <ele>569</ele>
        <time>2021-08-05T10:41:35.557Z</time>
      </trkpt>
      <trkpt lat="46.98811" lon="8.70046">
        <ele>568</ele>
        <time>2021-08-05T10:41:36.557Z</time>
      </trkpt>
      <trkpt lat="46.9881" lon="8.70047">
        <ele>567</ele>
        <time>2021-08-05T10:41:37.557Z</time>
      </trkpt>
      <trkpt lat="46.9881" lon="8.70049">
        <ele>567</ele>
        <time>2021-08-05T10:41:38.557Z</time>
      </trkpt>
      <trkpt lat="46.9881" lon="8.7005">
        <ele>567</ele>
        <time>2021-08-05T10:41:39.558Z</time>
      </trkpt>
      <trkpt lat="46.9881" lon="8.70051">
        <ele>566</ele>
        <time>2021-08-05T10:41:40.557Z</time>
      </trkpt>
      <trkpt lat="46.98809" lon="8.70052">
        <ele>566</ele>
        <time>2021-08-05T10:41:41.557Z</time>
      </trkpt>
      <trkpt lat="46.98809" lon="8.70054">
        <ele>566</ele>
        <time>2021-08-05T10:41:42.557Z</time>
      </trkpt>
      <trkpt lat="46.98808" lon="8.70055">
        <ele>566</ele>
        <time>2021-08-05T10:41:43.558Z</time>
      </trkpt>
      <trkpt lat="46.98808" lon="8.70057">
        <ele>566</ele>
        <time>2021-08-05T10:41:44.558Z</time>
      </trkpt>
      <trkpt lat="46.98807" lon="8.70059">
        <ele>567</ele>
        <time>2021-08-05T10:41:45.557Z</time>
      </trkpt>
      <trkpt lat="46.98807" lon="8.7006">
        <ele>567</ele>
        <time>2021-08-05T10:41:46.557Z</time>
      </trkpt>
      <trkpt lat="46.98806" lon="8.70061">
        <ele>566</ele>
        <time>2021-08-05T10:41:47.557Z</time>
      </trkpt>
      <trkpt lat="46.98805" lon="8.70063">
        <ele>567</ele>
        <time>2021-08-05T10:41:48.557Z</time>
      </trkpt>
      <trkpt lat="46.98805" lon="8.70064">
        <ele>567</ele>
        <time>2021-08-05T10:41:49.558Z</time>
      </trkpt>
      <trkpt lat="46.98804" lon="8.70066">
        <ele>567</ele>
        <time>2021-08-05T10:41:50.557Z</time>
      </trkpt>
      <trkpt lat="46.98804" lon="8.70068">
        <ele>567</ele>
        <time>2021-08-05T10:41:51.557Z</time>
      </trkpt>
      <trkpt lat="46.98804" lon="8.7007">
        <ele>567</ele>
        <time>2021-08-05T10:41:52.557Z</time>
      </trkpt>
      <trkpt lat="46.98803" lon="8.70071">
        <ele>566</ele>
        <time>2021-08-05T10:41:53.557Z</time>
      </trkpt>
      <trkpt lat="46.98803" lon="8.70073">
        <ele>565</ele>
        <time>2021-08-05T10:41:54.557Z</time>
      </trkpt>
      <trkpt lat="46.98803" lon="8.70074">
        <ele>565</ele>
        <time>2021-08-05T10:41:55.557Z</time>
      </trkpt>
      <trkpt lat="46.98802" lon="8.70076">
        <ele>564</ele>
        <time>2021-08-05T10:41:56.557Z</time>
      </trkpt>
      <trkpt lat="46.98802" lon="8.70078">
        <ele>564</ele>
        <time>2021-08-05T10:41:57.557Z</time>
      </trkpt>
      <trkpt lat="46.98801" lon="8.70079">
        <ele>564</ele>
        <time>2021-08-05T10:41:58.557Z</time>
      </trkpt>
      <trkpt lat="46.98801" lon="8.70081">
        <ele>564</ele>
        <time>2021-08-05T10:41:59.557Z</time>
      </trkpt>
      <trkpt lat="46.988" lon="8.70082">
        <ele>563</ele>
        <time>2021-08-05T10:42:00.557Z</time>
      </trkpt>
      <trkpt lat="46.988" lon="8.70084">
        <ele>563</ele>
        <time>2021-08-05T10:42:01.558Z</time>
      </trkpt>
      <trkpt lat="46.98799" lon="8.70086">
        <ele>563</ele>
        <time>2021-08-05T10:42:02.557Z</time>
      </trkpt>
      <trkpt lat="46.98799" lon="8.70087">
        <ele>563</ele>
        <time>2021-08-05T10:42:03.558Z</time>
      </trkpt>
      <trkpt lat="46.98799" lon="8.70089">
        <ele>563</ele>
        <time>2021-08-05T10:42:04.558Z</time>
      </trkpt>
      <trkpt lat="46.98798" lon="8.7009">
        <ele>563</ele>
        <time>2021-08-05T10:42:05.558Z</time>
      </trkpt>
      <trkpt lat="46.98798" lon="8.70092">
        <ele>562</ele>
        <time>2021-08-05T10:42:06.558Z</time>
      </trkpt>
      <trkpt lat="46.98798" lon="8.70094">
        <ele>562</ele>
        <time>2021-08-05T10:42:07.558Z</time>
      </trkpt>
      <trkpt lat="46.98797" lon="8.70096">
        <ele>562</ele>
        <time>2021-08-05T10:42:08.558Z</time>
      </trkpt>
      <trkpt lat="46.98797" lon="8.70098">
        <ele>561</ele>
        <time>2021-08-05T10:42:09.558Z</time>
      </trkpt>
      <trkpt lat="46.98796" lon="8.70099">
        <ele>561</ele>
        <time>2021-08-05T10:42:10.558Z</time>
      </trkpt>
      <trkpt lat="46.98796" lon="8.70101">
        <ele>561</ele>
        <time>2021-08-05T10:42:11.558Z</time>
      </trkpt>
      <trkpt lat="46.98795" lon="8.70103">
        <ele>561</ele>
        <time>2021-08-05T10:42:12.557Z</time>
      </trkpt>
      <trkpt lat="46.98795" lon="8.70105">
        <ele>560</ele>
        <time>2021-08-05T10:42:13.558Z</time>
      </trkpt>
      <trkpt lat="46.98794" lon="8.70107">
        <ele>560</ele>
        <time>2021-08-05T10:42:14.558Z</time>
      </trkpt>
      <trkpt lat="46.98794" lon="8.70108">
        <ele>560</ele>
        <time>2021-08-05T10:42:15.558Z</time>
      </trkpt>
      <trkpt lat="46.98794" lon="8.7011">
        <ele>560</ele>
        <time>2021-08-05T10:42:16.558Z</time>
      </trkpt>
      <trkpt lat="46.98793" lon="8.70112">
        <ele>560</ele>
        <time>2021-08-05T10:42:17.557Z</time>
      </trkpt>
      <trkpt lat="46.98793" lon="8.70114">
        <ele>560</ele>
        <time>2021-08-05T10:42:18.558Z</time>
      </trkpt>
      <trkpt lat="46.98793" lon="8.70115">
        <ele>561</ele>
        <time>2021-08-05T10:42:19.557Z</time>
      </trkpt>
      <trkpt lat="46.98792" lon="8.70117">
        <ele>561</ele>
        <time>2021-08-05T10:42:20.557Z</time>
      </trkpt>
      <trkpt lat="46.98792" lon="8.70119">
        <ele>562</ele>
        <time>2021-08-05T10:42:21.557Z</time>
      </trkpt>
      <trkpt lat="46.98792" lon="8.70121">
        <ele>562</ele>
        <time>2021-08-05T10:42:22.557Z</time>
      </trkpt>
      <trkpt lat="46.98792" lon="8.70123">
        <ele>563</ele>
        <time>2021-08-05T10:42:23.557Z</time>
      </trkpt>
      <trkpt lat="46.98792" lon="8.70125">
        <ele>563</ele>
        <time>2021-08-05T10:42:24.558Z</time>
      </trkpt>
      <trkpt lat="46.98791" lon="8.70127">
        <ele>563</ele>
        <time>2021-08-05T10:42:25.558Z</time>
      </trkpt>
      <trkpt lat="46.98791" lon="8.70129">
        <ele>564</ele>
        <time>2021-08-05T10:42:26.557Z</time>
      </trkpt>
      <trkpt lat="46.9879" lon="8.7013">
        <ele>564</ele>
        <time>2021-08-05T10:42:27.558Z</time>
      </trkpt>
      <trkpt lat="46.98789" lon="8.70132">
        <ele>564</ele>
        <time>2021-08-05T10:42:28.558Z</time>
      </trkpt>
      <trkpt lat="46.98789" lon="8.70134">
        <ele>564</ele>
        <time>2021-08-05T10:42:29.558Z</time>
      </trkpt>
      <trkpt lat="46.98788" lon="8.70136">
        <ele>564</ele>
        <time>2021-08-05T10:42:30.557Z</time>
      </trkpt>
      <trkpt lat="46.98788" lon="8.70137">
        <ele>563</ele>
        <time>2021-08-05T10:42:31.558Z</time>
      </trkpt>
      <trkpt lat="46.98787" lon="8.70139">
        <ele>563</ele>
        <time>2021-08-05T10:42:32.557Z</time>
      </trkpt>
      <trkpt lat="46.98787" lon="8.7014">
        <ele>563</ele>
        <time>2021-08-05T10:42:33.558Z</time>
      </trkpt>
      <trkpt lat="46.98786" lon="8.70142">
        <ele>563</ele>
        <time>2021-08-05T10:42:34.558Z</time>
      </trkpt>
      <trkpt lat="46.98785" lon="8.70143">
        <ele>563</ele>
        <time>2021-08-05T10:42:35.557Z</time>
      </trkpt>
      <trkpt lat="46.98785" lon="8.70145">
        <ele>563</ele>
        <time>2021-08-05T10:42:36.558Z</time>
      </trkpt>
      <trkpt lat="46.98785" lon="8.70146">
        <ele>563</ele>
        <time>2021-08-05T10:42:37.558Z</time>
      </trkpt>
      <trkpt lat="46.98784" lon="8.70148">
        <ele>563</ele>
        <time>2021-08-05T10:42:38.557Z</time>
      </trkpt>
      <trkpt lat="46.98783" lon="8.7015">
        <ele>564</ele>
        <time>2021-08-05T10:42:39.557Z</time>
      </trkpt>
      <trkpt lat="46.98783" lon="8.70151">
        <ele>565</ele>
        <time>2021-08-05T10:42:40.557Z</time>
      </trkpt>
      <trkpt lat="46.98782" lon="8.70153">
        <ele>565</ele>
        <time>2021-08-05T10:42:41.557Z</time>
      </trkpt>
      <trkpt lat="46.98782" lon="8.70154">
        <ele>565</ele>
        <time>2021-08-05T10:42:42.557Z</time>
      </trkpt>
      <trkpt lat="46.98781" lon="8.70155">
        <ele>565</ele>
        <time>2021-08-05T10:42:43.558Z</time>
      </trkpt>
      <trkpt lat="46.98781" lon="8.70156">
        <ele>565</ele>
        <time>2021-08-05T10:42:44.557Z</time>
      </trkpt>
      <trkpt lat="46.98781" lon="8.70157">
        <ele>565</ele>
        <time>2021-08-05T10:42:45.557Z</time>
      </trkpt>
      <trkpt lat="46.9878" lon="8.70159">
        <ele>565</ele>
        <time>2021-08-05T10:42:46.557Z</time>
      </trkpt>
      <trkpt lat="46.98779" lon="8.7016">
        <ele>565</ele>
        <time>2021-08-05T10:42:47.557Z</time>
      </trkpt>
      <trkpt lat="46.98779" lon="8.70162">
        <ele>565</ele>
        <time>2021-08-05T10:42:48.558Z</time>
      </trkpt>
      <trkpt lat="46.98778" lon="8.70163">
        <ele>565</ele>
        <time>2021-08-05T10:43:05.552Z</time>
      </trkpt>
      <trkpt lat="46.98777" lon="8.70163">
        <ele>565</ele>
        <time>2021-08-05T10:43:06.551Z</time>
      </trkpt>
      <trkpt lat="46.98777" lon="8.70164">
        <ele>565</ele>
        <time>2021-08-05T10:43:07.552Z</time>
      </trkpt>
      <trkpt lat="46.98776" lon="8.70165">
        <ele>565</ele>
        <time>2021-08-05T10:43:08.551Z</time>
      </trkpt>
      <trkpt lat="46.98775" lon="8.70166">
        <ele>566</ele>
        <time>2021-08-05T10:43:09.551Z</time>
      </trkpt>
      <trkpt lat="46.98774" lon="8.70167">
        <ele>566</ele>
        <time>2021-08-05T10:43:10.552Z</time>
      </trkpt>
      <trkpt lat="46.98773" lon="8.70168">
        <ele>566</ele>
        <time>2021-08-05T10:43:44.700Z</time>
      </trkpt>
      <trkpt lat="46.98773" lon="8.70169">
        <ele>566</ele>
        <time>2021-08-05T10:43:45.699Z</time>
      </trkpt>
      <trkpt lat="46.98772" lon="8.7017">
        <ele>566</ele>
        <time>2021-08-05T10:43:46.699Z</time>
      </trkpt>
      <trkpt lat="46.98771" lon="8.70171">
        <ele>565</ele>
        <time>2021-08-05T10:43:47.699Z</time>
      </trkpt>
      <trkpt lat="46.9877" lon="8.70173">
        <ele>565</ele>
        <time>2021-08-05T10:43:48.699Z</time>
      </trkpt>
      <trkpt lat="46.9877" lon="8.70174">
        <ele>566</ele>
        <time>2021-08-05T10:43:49.699Z</time>
      </trkpt>
      <trkpt lat="46.98769" lon="8.70176">
        <ele>566</ele>
        <time>2021-08-05T10:43:50.699Z</time>
      </trkpt>
      <trkpt lat="46.98768" lon="8.70177">
        <ele>566</ele>
        <time>2021-08-05T10:43:51.699Z</time>
      </trkpt>
      <trkpt lat="46.98768" lon="8.70179">
        <ele>565</ele>
        <time>2021-08-05T10:43:52.699Z</time>
      </trkpt>
      <trkpt lat="46.98767" lon="8.7018">
        <ele>565</ele>
        <time>2021-08-05T10:43:53.699Z</time>
      </trkpt>
      <trkpt lat="46.98766" lon="8.70182">
        <ele>565</ele>
        <time>2021-08-05T10:43:54.700Z</time>
      </trkpt>
      <trkpt lat="46.98765" lon="8.70184">
        <ele>565</ele>
        <time>2021-08-05T10:43:55.700Z</time>
      </trkpt>
      <trkpt lat="46.98764" lon="8.70185">
        <ele>564</ele>
        <time>2021-08-05T10:43:57.808Z</time>
      </trkpt>
      <trkpt lat="46.98764" lon="8.70187">
        <ele>564</ele>
        <time>2021-08-05T10:44:27.698Z</time>
      </trkpt>
      <trkpt lat="46.98763" lon="8.70188">
        <ele>564</ele>
        <time>2021-08-05T10:44:28.699Z</time>
      </trkpt>
      <trkpt lat="46.98762" lon="8.7019">
        <ele>565</ele>
        <time>2021-08-05T10:44:33.582Z</time>
      </trkpt>
      <trkpt lat="46.98762" lon="8.70191">
        <ele>565</ele>
        <time>2021-08-05T10:44:34.583Z</time>
      </trkpt>
      <trkpt lat="46.98762" lon="8.70193">
        <ele>565</ele>
        <time>2021-08-05T10:44:35.583Z</time>
      </trkpt>
      <trkpt lat="46.98761" lon="8.70194">
        <ele>565</ele>
        <time>2021-08-05T10:44:36.583Z</time>
      </trkpt>
      <trkpt lat="46.98761" lon="8.70196">
        <ele>566</ele>
        <time>2021-08-05T10:44:37.583Z</time>
      </trkpt>
      <trkpt lat="46.9876" lon="8.70198">
        <ele>566</ele>
        <time>2021-08-05T10:44:38.583Z</time>
      </trkpt>
      <trkpt lat="46.9876" lon="8.702">
        <ele>567</ele>
        <time>2021-08-05T10:44:39.582Z</time>
      </trkpt>
      <trkpt lat="46.98759" lon="8.70202">
        <ele>567</ele>
        <time>2021-08-05T10:44:40.583Z</time>
      </trkpt>
      <trkpt lat="46.98758" lon="8.70204">
        <ele>567</ele>
        <time>2021-08-05T10:44:41.583Z</time>
      </trkpt>
      <trkpt lat="46.98758" lon="8.70206">
        <ele>566</ele>
        <time>2021-08-05T10:44:42.582Z</time>
      </trkpt>
      <trkpt lat="46.98757" lon="8.70208">
        <ele>566</ele>
        <time>2021-08-05T10:44:43.582Z</time>
      </trkpt>
      <trkpt lat="46.98757" lon="8.70209">
        <ele>566</ele>
        <time>2021-08-05T10:44:44.583Z</time>
      </trkpt>
      <trkpt lat="46.98756" lon="8.70211">
        <ele>566</ele>
        <time>2021-08-05T10:44:45.583Z</time>
      </trkpt>
      <trkpt lat="46.98755" lon="8.70212">
        <ele>566</ele>
        <time>2021-08-05T10:44:46.582Z</time>
      </trkpt>
      <trkpt lat="46.98755" lon="8.70214">
        <ele>566</ele>
        <time>2021-08-05T10:44:47.583Z</time>
      </trkpt>
      <trkpt lat="46.98755" lon="8.70215">
        <ele>566</ele>
        <time>2021-08-05T10:44:48.583Z</time>
      </trkpt>
      <trkpt lat="46.98754" lon="8.70217">
        <ele>566</ele>
        <time>2021-08-05T10:44:49.583Z</time>
      </trkpt>
      <trkpt lat="46.98754" lon="8.70218">
        <ele>566</ele>
        <time>2021-08-05T10:44:50.583Z</time>
      </trkpt>
      <trkpt lat="46.98754" lon="8.7022">
        <ele>567</ele>
        <time>2021-08-05T10:44:51.583Z</time>
      </trkpt>
      <trkpt lat="46.98755" lon="8.70221">
        <ele>567</ele>
        <time>2021-08-05T10:44:52.582Z</time>
      </trkpt>
      <trkpt lat="46.98755" lon="8.70222">
        <ele>568</ele>
        <time>2021-08-05T10:44:53.583Z</time>
      </trkpt>
      <trkpt lat="46.98755" lon="8.70224">
        <ele>568</ele>
        <time>2021-08-05T10:44:54.582Z</time>
      </trkpt>
      <trkpt lat="46.98754" lon="8.70225">
        <ele>568</ele>
        <time>2021-08-05T10:44:55.583Z</time>
      </trkpt>
      <trkpt lat="46.98754" lon="8.70226">
        <ele>568</ele>
        <time>2021-08-05T10:44:56.583Z</time>
      </trkpt>
      <trkpt lat="46.98754" lon="8.70228">
        <ele>567</ele>
        <time>2021-08-05T10:44:57.582Z</time>
      </trkpt>
      <trkpt lat="46.98753" lon="8.70229">
        <ele>567</ele>
        <time>2021-08-05T10:44:58.583Z</time>
      </trkpt>
      <trkpt lat="46.98753" lon="8.70231">
        <ele>566</ele>
        <time>2021-08-05T10:44:59.583Z</time>
      </trkpt>
      <trkpt lat="46.98752" lon="8.70233">
        <ele>566</ele>
        <time>2021-08-05T10:45:00.583Z</time>
      </trkpt>
      <trkpt lat="46.98751" lon="8.70235">
        <ele>566</ele>
        <time>2021-08-05T10:45:01.583Z</time>
      </trkpt>
      <trkpt lat="46.98751" lon="8.70237">
        <ele>567</ele>
        <time>2021-08-05T10:45:02.583Z</time>
      </trkpt>
      <trkpt lat="46.9875" lon="8.70238">
        <ele>567</ele>
        <time>2021-08-05T10:45:03.583Z</time>
      </trkpt>
      <trkpt lat="46.98749" lon="8.7024">
        <ele>567</ele>
        <time>2021-08-05T10:45:04.582Z</time>
      </trkpt>
      <trkpt lat="46.98749" lon="8.70241">
        <ele>568</ele>
        <time>2021-08-05T10:45:05.582Z</time>
      </trkpt>
      <trkpt lat="46.98749" lon="8.70243">
        <ele>568</ele>
        <time>2021-08-05T10:45:06.582Z</time>
      </trkpt>
      <trkpt lat="46.98748" lon="8.70245">
        <ele>568</ele>
        <time>2021-08-05T10:45:07.582Z</time>
      </trkpt>
      <trkpt lat="46.98748" lon="8.70246">
        <ele>568</ele>
        <time>2021-08-05T10:45:08.582Z</time>
      </trkpt>
      <trkpt lat="46.98748" lon="8.70248">
        <ele>568</ele>
        <time>2021-08-05T10:45:09.582Z</time>
      </trkpt>
      <trkpt lat="46.98747" lon="8.70249">
        <ele>568</ele>
        <time>2021-08-05T10:45:10.583Z</time>
      </trkpt>
      <trkpt lat="46.98746" lon="8.70251">
        <ele>568</ele>
        <time>2021-08-05T10:45:11.582Z</time>
      </trkpt>
      <trkpt lat="46.98746" lon="8.70252">
        <ele>568</ele>
        <time>2021-08-05T10:45:12.582Z</time>
      </trkpt>
      <trkpt lat="46.98745" lon="8.70253">
        <ele>569</ele>
        <time>2021-08-05T10:45:13.582Z</time>
      </trkpt>
      <trkpt lat="46.98745" lon="8.70255">
        <ele>569</ele>
        <time>2021-08-05T10:45:14.583Z</time>
      </trkpt>
      <trkpt lat="46.98744" lon="8.70257">
        <ele>569</ele>
        <time>2021-08-05T10:45:15.583Z</time>
      </trkpt>
      <trkpt lat="46.98743" lon="8.70258">
        <ele>570</ele>
        <time>2021-08-05T10:45:16.583Z</time>
      </trkpt>
      <trkpt lat="46.98742" lon="8.70259">
        <ele>570</ele>
        <time>2021-08-05T10:45:31.688Z</time>
      </trkpt>
      <trkpt lat="46.98742" lon="8.7026">
        <ele>570</ele>
        <time>2021-08-05T10:45:32.688Z</time>
      </trkpt>
      <trkpt lat="46.98741" lon="8.70262">
        <ele>570</ele>
        <time>2021-08-05T10:45:33.687Z</time>
      </trkpt>
      <trkpt lat="46.98741" lon="8.70263">
        <ele>569</ele>
        <time>2021-08-05T10:45:34.687Z</time>
      </trkpt>
      <trkpt lat="46.9874" lon="8.70265">
        <ele>569</ele>
        <time>2021-08-05T10:45:39.793Z</time>
      </trkpt>
      <trkpt lat="46.98739" lon="8.70267">
        <ele>568</ele>
        <time>2021-08-05T10:45:40.792Z</time>
      </trkpt>
      <trkpt lat="46.98739" lon="8.70269">
        <ele>568</ele>
        <time>2021-08-05T10:45:41.793Z</time>
      </trkpt>
      <trkpt lat="46.98738" lon="8.70271">
        <ele>567</ele>
        <time>2021-08-05T10:45:42.793Z</time>
      </trkpt>
      <trkpt lat="46.98737" lon="8.70272">
        <ele>566</ele>
        <time>2021-08-05T10:45:43.792Z</time>
      </trkpt>
      <trkpt lat="46.98736" lon="8.70274">
        <ele>566</ele>
        <time>2021-08-05T10:45:44.793Z</time>
      </trkpt>
      <trkpt lat="46.98736" lon="8.70275">
        <ele>565</ele>
        <time>2021-08-05T10:45:45.792Z</time>
      </trkpt>
      <trkpt lat="46.98736" lon="8.70277">
        <ele>565</ele>
        <time>2021-08-05T10:45:46.793Z</time>
      </trkpt>
      <trkpt lat="46.98736" lon="8.70278">
        <ele>564</ele>
        <time>2021-08-05T10:45:47.793Z</time>
      </trkpt>
      <trkpt lat="46.98735" lon="8.7028">
        <ele>564</ele>
        <time>2021-08-05T10:45:48.793Z</time>
      </trkpt>
      <trkpt lat="46.98735" lon="8.70282">
        <ele>564</ele>
        <time>2021-08-05T10:46:02.919Z</time>
      </trkpt>
      <trkpt lat="46.98735" lon="8.70284">
        <ele>565</ele>
        <time>2021-08-05T10:46:03.920Z</time>
      </trkpt>
      <trkpt lat="46.98735" lon="8.70285">
        <ele>565</ele>
        <time>2021-08-05T10:46:07.817Z</time>
      </trkpt>
      <trkpt lat="46.98734" lon="8.70286">
        <ele>566</ele>
        <time>2021-08-05T10:46:08.816Z</time>
      </trkpt>
      <trkpt lat="46.98734" lon="8.70288">
        <ele>566</ele>
        <time>2021-08-05T10:46:09.817Z</time>
      </trkpt>
      <trkpt lat="46.98733" lon="8.70289">
        <ele>566</ele>
        <time>2021-08-05T10:46:10.816Z</time>
      </trkpt>
      <trkpt lat="46.98733" lon="8.70291">
        <ele>566</ele>
        <time>2021-08-05T10:46:11.816Z</time>
      </trkpt>
      <trkpt lat="46.98732" lon="8.70292">
        <ele>565</ele>
        <time>2021-08-05T10:46:12.817Z</time>
      </trkpt>
      <trkpt lat="46.98731" lon="8.70294">
        <ele>565</ele>
        <time>2021-08-05T10:46:13.817Z</time>
      </trkpt>
      <trkpt lat="46.98731" lon="8.70295">
        <ele>565</ele>
        <time>2021-08-05T10:46:14.817Z</time>
      </trkpt>
      <trkpt lat="46.98731" lon="8.70297">
        <ele>564</ele>
        <time>2021-08-05T10:46:15.817Z</time>
      </trkpt>
      <trkpt lat="46.9873" lon="8.70298">
        <ele>564</ele>
        <time>2021-08-05T10:46:16.816Z</time>
      </trkpt>
      <trkpt lat="46.9873" lon="8.70299">
        <ele>564</ele>
        <time>2021-08-05T10:46:17.817Z</time>
      </trkpt>
      <trkpt lat="46.98729" lon="8.70301">
        <ele>563</ele>
        <time>2021-08-05T10:46:18.817Z</time>
      </trkpt>
      <trkpt lat="46.98729" lon="8.70302">
        <ele>563</ele>
        <time>2021-08-05T10:46:19.817Z</time>
      </trkpt>
      <trkpt lat="46.98729" lon="8.70303">
        <ele>563</ele>
        <time>2021-08-05T10:46:30.930Z</time>
      </trkpt>
      <trkpt lat="46.98728" lon="8.70305">
        <ele>563</ele>
        <time>2021-08-05T10:46:31.930Z</time>
      </trkpt>
      <trkpt lat="46.98727" lon="8.70307">
        <ele>563</ele>
        <time>2021-08-05T10:46:50.805Z</time>
      </trkpt>
      <trkpt lat="46.98726" lon="8.70308">
        <ele>563</ele>
        <time>2021-08-05T10:46:51.805Z</time>
      </trkpt>
      <trkpt lat="46.98726" lon="8.7031">
        <ele>563</ele>
        <time>2021-08-05T10:46:52.805Z</time>
      </trkpt>
      <trkpt lat="46.98725" lon="8.70312">
        <ele>564</ele>
        <time>2021-08-05T10:46:53.804Z</time>
      </trkpt>
      <trkpt lat="46.98724" lon="8.70313">
        <ele>564</ele>
        <time>2021-08-05T10:46:54.805Z</time>
      </trkpt>
      <trkpt lat="46.98723" lon="8.70314">
        <ele>564</ele>
        <time>2021-08-05T10:46:55.804Z</time>
      </trkpt>
      <trkpt lat="46.98723" lon="8.70316">
        <ele>565</ele>
        <time>2021-08-05T10:46:56.805Z</time>
      </trkpt>
      <trkpt lat="46.98722" lon="8.70317">
        <ele>565</ele>
        <time>2021-08-05T10:46:57.805Z</time>
      </trkpt>
      <trkpt lat="46.98722" lon="8.70319">
        <ele>565</ele>
        <time>2021-08-05T10:46:58.805Z</time>
      </trkpt>
      <trkpt lat="46.98721" lon="8.7032">
        <ele>566</ele>
        <time>2021-08-05T10:46:59.804Z</time>
      </trkpt>
      <trkpt lat="46.98721" lon="8.70322">
        <ele>566</ele>
        <time>2021-08-05T10:47:00.804Z</time>
      </trkpt>
      <trkpt lat="46.98719" lon="8.70323">
        <ele>567</ele>
        <time>2021-08-05T10:47:01.805Z</time>
      </trkpt>
      <trkpt lat="46.98719" lon="8.70325">
        <ele>567</ele>
        <time>2021-08-05T10:47:02.804Z</time>
      </trkpt>
      <trkpt lat="46.98718" lon="8.70326">
        <ele>567</ele>
        <time>2021-08-05T10:47:03.805Z</time>
      </trkpt>
      <trkpt lat="46.98717" lon="8.70327">
        <ele>567</ele>
        <time>2021-08-05T10:47:04.804Z</time>
      </trkpt>
      <trkpt lat="46.98717" lon="8.70329">
        <ele>567</ele>
        <time>2021-08-05T10:47:05.805Z</time>
      </trkpt>
      <trkpt lat="46.98716" lon="8.7033">
        <ele>567</ele>
        <time>2021-08-05T10:47:06.805Z</time>
      </trkpt>
      <trkpt lat="46.98716" lon="8.70331">
        <ele>566</ele>
        <time>2021-08-05T10:47:07.804Z</time>
      </trkpt>
      <trkpt lat="46.98715" lon="8.70333">
        <ele>566</ele>
        <time>2021-08-05T10:47:08.805Z</time>
      </trkpt>
      <trkpt lat="46.98714" lon="8.70334">
        <ele>565</ele>
        <time>2021-08-05T10:47:09.804Z</time>
      </trkpt>
      <trkpt lat="46.98714" lon="8.70336">
        <ele>565</ele>
        <time>2021-08-05T10:47:10.804Z</time>
      </trkpt>
      <trkpt lat="46.98713" lon="8.70338">
        <ele>565</ele>
        <time>2021-08-05T10:47:11.805Z</time>
      </trkpt>
      <trkpt lat="46.98713" lon="8.70339">
        <ele>565</ele>
        <time>2021-08-05T10:47:12.804Z</time>
      </trkpt>
      <trkpt lat="46.98712" lon="8.70341">
        <ele>566</ele>
        <time>2021-08-05T10:47:13.804Z</time>
      </trkpt>
      <trkpt lat="46.98711" lon="8.70342">
        <ele>566</ele>
        <time>2021-08-05T10:47:14.805Z</time>
      </trkpt>
      <trkpt lat="46.98711" lon="8.70344">
        <ele>566</ele>
        <time>2021-08-05T10:47:15.805Z</time>
      </trkpt>
      <trkpt lat="46.9871" lon="8.70345">
        <ele>566</ele>
        <time>2021-08-05T10:47:16.805Z</time>
      </trkpt>
      <trkpt lat="46.9871" lon="8.70347">
        <ele>566</ele>
        <time>2021-08-05T10:47:17.805Z</time>
      </trkpt>
      <trkpt lat="46.98709" lon="8.70348">
        <ele>565</ele>
        <time>2021-08-05T10:47:18.805Z</time>
      </trkpt>
      <trkpt lat="46.98708" lon="8.70349">
        <ele>565</ele>
        <time>2021-08-05T10:47:19.804Z</time>
      </trkpt>
      <trkpt lat="46.98708" lon="8.70351">
        <ele>565</ele>
        <time>2021-08-05T10:47:20.804Z</time>
      </trkpt>
      <trkpt lat="46.98707" lon="8.70352">
        <ele>566</ele>
        <time>2021-08-05T10:47:21.805Z</time>
      </trkpt>
      <trkpt lat="46.98706" lon="8.70353">
        <ele>566</ele>
        <time>2021-08-05T10:47:22.805Z</time>
      </trkpt>
      <trkpt lat="46.98706" lon="8.70354">
        <ele>566</ele>
        <time>2021-08-05T10:47:23.805Z</time>
      </trkpt>
      <trkpt lat="46.98706" lon="8.70356">
        <ele>567</ele>
        <time>2021-08-05T10:47:24.805Z</time>
      </trkpt>
      <trkpt lat="46.98706" lon="8.70358">
        <ele>567</ele>
        <time>2021-08-05T10:47:25.804Z</time>
      </trkpt>
      <trkpt lat="46.98705" lon="8.70359">
        <ele>567</ele>
        <time>2021-08-05T10:47:26.805Z</time>
      </trkpt>
      <trkpt lat="46.98705" lon="8.7036">
        <ele>566</ele>
        <time>2021-08-05T10:47:27.805Z</time>
      </trkpt>
      <trkpt lat="46.98704" lon="8.70361">
        <ele>566</ele>
        <time>2021-08-05T10:47:28.805Z</time>
      </trkpt>
      <trkpt lat="46.98703" lon="8.70362">
        <ele>566</ele>
        <time>2021-08-05T10:47:29.805Z</time>
      </trkpt>
      <trkpt lat="46.98702" lon="8.70363">
        <ele>566</ele>
        <time>2021-08-05T10:47:30.805Z</time>
      </trkpt>
      <trkpt lat="46.98701" lon="8.70365">
        <ele>566</ele>
        <time>2021-08-05T10:47:31.805Z</time>
      </trkpt>
      <trkpt lat="46.987" lon="8.70366">
        <ele>566</ele>
        <time>2021-08-05T10:47:32.804Z</time>
      </trkpt>
      <trkpt lat="46.98699" lon="8.70367">
        <ele>567</ele>
        <time>2021-08-05T10:47:33.805Z</time>
      </trkpt>
      <trkpt lat="46.98698" lon="8.70369">
        <ele>567</ele>
        <time>2021-08-05T10:47:34.805Z</time>
      </trkpt>
      <trkpt lat="46.98698" lon="8.7037">
        <ele>567</ele>
        <time>2021-08-05T10:47:35.804Z</time>
      </trkpt>
      <trkpt lat="46.98696" lon="8.70372">
        <ele>568</ele>
        <time>2021-08-05T10:47:36.805Z</time>
      </trkpt>
      <trkpt lat="46.98696" lon="8.70373">
        <ele>568</ele>
        <time>2021-08-05T10:47:37.805Z</time>
      </trkpt>
      <trkpt lat="46.98694" lon="8.70374">
        <ele>568</ele>
        <time>2021-08-05T10:47:38.804Z</time>
      </trkpt>
      <trkpt lat="46.98694" lon="8.70376">
        <ele>568</ele>
        <time>2021-08-05T10:47:39.804Z</time>
      </trkpt>
      <trkpt lat="46.98693" lon="8.70378">
        <ele>568</ele>
        <time>2021-08-05T10:47:40.805Z</time>
      </trkpt>
      <trkpt lat="46.98692" lon="8.70379">
        <ele>569</ele>
        <time>2021-08-05T10:47:41.805Z</time>
      </trkpt>
      <trkpt lat="46.98691" lon="8.7038">
        <ele>568</ele>
        <time>2021-08-05T10:47:42.805Z</time>
      </trkpt>
      <trkpt lat="46.9869" lon="8.70381">
        <ele>568</ele>
        <time>2021-08-05T10:47:43.804Z</time>
      </trkpt>
      <trkpt lat="46.98689" lon="8.70382">
        <ele>568</ele>
        <time>2021-08-05T10:47:44.804Z</time>
      </trkpt>
      <trkpt lat="46.98689" lon="8.70383">
        <ele>568</ele>
        <time>2021-08-05T10:47:45.805Z</time>
      </trkpt>
      <trkpt lat="46.98688" lon="8.70385">
        <ele>567</ele>
        <time>2021-08-05T10:47:46.805Z</time>
      </trkpt>
      <trkpt lat="46.98687" lon="8.70386">
        <ele>567</ele>
        <time>2021-08-05T10:47:47.805Z</time>
      </trkpt>
      <trkpt lat="46.98686" lon="8.70388">
        <ele>566</ele>
        <time>2021-08-05T10:47:48.805Z</time>
      </trkpt>
      <trkpt lat="46.98685" lon="8.70389">
        <ele>565</ele>
        <time>2021-08-05T10:47:49.804Z</time>
      </trkpt>
      <trkpt lat="46.98685" lon="8.7039">
        <ele>564</ele>
        <time>2021-08-05T10:47:50.804Z</time>
      </trkpt>
      <trkpt lat="46.98684" lon="8.70391">
        <ele>564</ele>
        <time>2021-08-05T10:47:51.805Z</time>
      </trkpt>
      <trkpt lat="46.98683" lon="8.70393">
        <ele>564</ele>
        <time>2021-08-05T10:47:52.804Z</time>
      </trkpt>
      <trkpt lat="46.98682" lon="8.70394">
        <ele>564</ele>
        <time>2021-08-05T10:47:53.805Z</time>
      </trkpt>
      <trkpt lat="46.98682" lon="8.70395">
        <ele>565</ele>
        <time>2021-08-05T10:47:54.805Z</time>
      </trkpt>
      <trkpt lat="46.98681" lon="8.70397">
        <ele>565</ele>
        <time>2021-08-05T10:47:55.804Z</time>
      </trkpt>
      <trkpt lat="46.9868" lon="8.70398">
        <ele>566</ele>
        <time>2021-08-05T10:47:56.804Z</time>
      </trkpt>
      <trkpt lat="46.98679" lon="8.70399">
        <ele>566</ele>
        <time>2021-08-05T10:47:57.805Z</time>
      </trkpt>
      <trkpt lat="46.98678" lon="8.704">
        <ele>567</ele>
        <time>2021-08-05T10:47:58.805Z</time>
      </trkpt>
      <trkpt lat="46.98677" lon="8.70401">
        <ele>567</ele>
        <time>2021-08-05T10:47:59.804Z</time>
      </trkpt>
      <trkpt lat="46.98676" lon="8.70402">
        <ele>567</ele>
        <time>2021-08-05T10:48:00.805Z</time>
      </trkpt>
      <trkpt lat="46.98676" lon="8.70404">
        <ele>566</ele>
        <time>2021-08-05T10:48:01.804Z</time>
      </trkpt>
      <trkpt lat="46.98675" lon="8.70405">
        <ele>566</ele>
        <time>2021-08-05T10:48:02.804Z</time>
      </trkpt>
      <trkpt lat="46.98674" lon="8.70406">
        <ele>565</ele>
        <time>2021-08-05T10:48:03.805Z</time>
      </trkpt>
      <trkpt lat="46.98673" lon="8.70407">
        <ele>565</ele>
        <time>2021-08-05T10:48:04.805Z</time>
      </trkpt>
      <trkpt lat="46.98673" lon="8.70408">
        <ele>565</ele>
        <time>2021-08-05T10:48:05.805Z</time>
      </trkpt>
      <trkpt lat="46.98672" lon="8.7041">
        <ele>565</ele>
        <time>2021-08-05T10:48:06.805Z</time>
      </trkpt>
      <trkpt lat="46.98672" lon="8.70411">
        <ele>565</ele>
        <time>2021-08-05T10:48:07.805Z</time>
      </trkpt>
      <trkpt lat="46.98671" lon="8.70413">
        <ele>565</ele>
        <time>2021-08-05T10:48:08.805Z</time>
      </trkpt>
      <trkpt lat="46.9867" lon="8.70413">
        <ele>565</ele>
        <time>2021-08-05T10:48:09.804Z</time>
      </trkpt>
      <trkpt lat="46.98669" lon="8.70414">
        <ele>566</ele>
        <time>2021-08-05T10:48:10.805Z</time>
      </trkpt>
      <trkpt lat="46.98668" lon="8.70416">
        <ele>566</ele>
        <time>2021-08-05T10:48:11.805Z</time>
      </trkpt>
      <trkpt lat="46.98667" lon="8.70417">
        <ele>566</ele>
        <time>2021-08-05T10:48:12.804Z</time>
      </trkpt>
      <trkpt lat="46.98666" lon="8.70418">
        <ele>566</ele>
        <time>2021-08-05T10:48:13.805Z</time>
      </trkpt>
      <trkpt lat="46.98666" lon="8.70419">
        <ele>566</ele>
        <time>2021-08-05T10:48:14.805Z</time>
      </trkpt>
      <trkpt lat="46.98665" lon="8.7042">
        <ele>566</ele>
        <time>2021-08-05T10:48:15.804Z</time>
      </trkpt>
      <trkpt lat="46.98664" lon="8.70422">
        <ele>566</ele>
        <time>2021-08-05T10:48:16.805Z</time>
      </trkpt>
      <trkpt lat="46.98664" lon="8.70424">
        <ele>566</ele>
        <time>2021-08-05T10:48:17.804Z</time>
      </trkpt>
      <trkpt lat="46.98663" lon="8.70425">
        <ele>566</ele>
        <time>2021-08-05T10:48:18.805Z</time>
      </trkpt>
      <trkpt lat="46.98662" lon="8.70426">
        <ele>567</ele>
        <time>2021-08-05T10:48:19.804Z</time>
      </trkpt>
      <trkpt lat="46.98661" lon="8.70428">
        <ele>567</ele>
        <time>2021-08-05T10:48:20.805Z</time>
      </trkpt>
      <trkpt lat="46.9866" lon="8.70429">
        <ele>567</ele>
        <time>2021-08-05T10:48:21.805Z</time>
      </trkpt>
      <trkpt lat="46.98659" lon="8.7043">
        <ele>567</ele>
        <time>2021-08-05T10:48:22.804Z</time>
      </trkpt>
      <trkpt lat="46.98658" lon="8.70431">
        <ele>566</ele>
        <time>2021-08-05T10:48:23.804Z</time>
      </trkpt>
      <trkpt lat="46.98658" lon="8.70432">
        <ele>566</ele>
        <time>2021-08-05T10:48:24.805Z</time>
      </trkpt>
      <trkpt lat="46.98657" lon="8.70433">
        <ele>566</ele>
        <time>2021-08-05T10:48:25.805Z</time>
      </trkpt>
      <trkpt lat="46.98656" lon="8.70434">
        <ele>566</ele>
        <time>2021-08-05T10:48:26.804Z</time>
      </trkpt>
      <trkpt lat="46.98656" lon="8.70436">
        <ele>565</ele>
        <time>2021-08-05T10:48:27.805Z</time>
      </trkpt>
      <trkpt lat="46.98655" lon="8.70437">
        <ele>565</ele>
        <time>2021-08-05T10:48:28.805Z</time>
      </trkpt>
      <trkpt lat="46.98655" lon="8.70439">
        <ele>565</ele>
        <time>2021-08-05T10:48:29.804Z</time>
      </trkpt>
      <trkpt lat="46.98654" lon="8.7044">
        <ele>565</ele>
        <time>2021-08-05T10:48:30.805Z</time>
      </trkpt>
      <trkpt lat="46.98653" lon="8.70441">
        <ele>566</ele>
        <time>2021-08-05T10:48:31.805Z</time>
      </trkpt>
      <trkpt lat="46.98652" lon="8.70443">
        <ele>566</ele>
        <time>2021-08-05T10:48:32.805Z</time>
      </trkpt>
      <trkpt lat="46.98651" lon="8.70444">
        <ele>567</ele>
        <time>2021-08-05T10:48:33.805Z</time>
      </trkpt>
      <trkpt lat="46.9865" lon="8.70445">
        <ele>566</ele>
        <time>2021-08-05T10:48:34.805Z</time>
      </trkpt>
      <trkpt lat="46.9865" lon="8.70446">
        <ele>566</ele>
        <time>2021-08-05T10:48:35.804Z</time>
      </trkpt>
      <trkpt lat="46.98649" lon="8.70447">
        <ele>566</ele>
        <time>2021-08-05T10:48:36.805Z</time>
      </trkpt>
      <trkpt lat="46.98648" lon="8.70448">
        <ele>566</ele>
        <time>2021-08-05T10:48:37.805Z</time>
      </trkpt>
      <trkpt lat="46.98647" lon="8.70449">
        <ele>565</ele>
        <time>2021-08-05T10:48:38.804Z</time>
      </trkpt>
      <trkpt lat="46.98647" lon="8.7045">
        <ele>564</ele>
        <time>2021-08-05T10:48:39.805Z</time>
      </trkpt>
      <trkpt lat="46.98646" lon="8.7045">
        <ele>564</ele>
        <time>2021-08-05T10:48:40.805Z</time>
      </trkpt>
      <trkpt lat="46.98645" lon="8.70452">
        <ele>564</ele>
        <time>2021-08-05T10:48:41.805Z</time>
      </trkpt>
      <trkpt lat="46.98645" lon="8.70453">
        <ele>564</ele>
        <time>2021-08-05T10:48:42.804Z</time>
      </trkpt>
      <trkpt lat="46.98644" lon="8.70454">
        <ele>565</ele>
        <time>2021-08-05T10:48:43.804Z</time>
      </trkpt>
      <trkpt lat="46.98644" lon="8.70455">
        <ele>565</ele>
        <time>2021-08-05T10:48:44.805Z</time>
      </trkpt>
      <trkpt lat="46.98643" lon="8.70456">
        <ele>565</ele>
        <time>2021-08-05T10:48:45.805Z</time>
      </trkpt>
      <trkpt lat="46.98642" lon="8.70457">
        <ele>565</ele>
        <time>2021-08-05T10:48:46.805Z</time>
      </trkpt>
      <trkpt lat="46.98641" lon="8.70458">
        <ele>565</ele>
        <time>2021-08-05T10:48:47.805Z</time>
      </trkpt>
      <trkpt lat="46.98641" lon="8.70459">
        <ele>565</ele>
        <time>2021-08-05T10:48:48.804Z</time>
      </trkpt>
      <trkpt lat="46.9864" lon="8.7046">
        <ele>564</ele>
        <time>2021-08-05T10:48:49.805Z</time>
      </trkpt>
      <trkpt lat="46.98639" lon="8.70461">
        <ele>564</ele>
        <time>2021-08-05T10:48:50.805Z</time>
      </trkpt>
      <trkpt lat="46.98639" lon="8.70462">
        <ele>564</ele>
        <time>2021-08-05T10:48:51.805Z</time>
      </trkpt>
      <trkpt lat="46.98638" lon="8.70463">
        <ele>564</ele>
        <time>2021-08-05T10:48:52.805Z</time>
      </trkpt>
      <trkpt lat="46.98637" lon="8.70464">
        <ele>564</ele>
        <time>2021-08-05T10:48:53.805Z</time>
      </trkpt>
      <trkpt lat="46.98636" lon="8.70465">
        <ele>563</ele>
        <time>2021-08-05T10:48:54.805Z</time>
      </trkpt>
      <trkpt lat="46.98635" lon="8.70466">
        <ele>564</ele>
        <time>2021-08-05T10:48:55.805Z</time>
      </trkpt>
      <trkpt lat="46.98634" lon="8.70467">
        <ele>564</ele>
        <time>2021-08-05T10:48:56.804Z</time>
      </trkpt>
      <trkpt lat="46.98634" lon="8.70467">
        <ele>564</ele>
        <time>2021-08-05T10:48:57.805Z</time>
      </trkpt>
      <trkpt lat="46.98634" lon="8.70468">
        <ele>564</ele>
        <time>2021-08-05T10:48:58.805Z</time>
      </trkpt>
      <trkpt lat="46.98633" lon="8.70468">
        <ele>564</ele>
        <time>2021-08-05T10:48:59.804Z</time>
      </trkpt>
      <trkpt lat="46.98633" lon="8.70469">
        <ele>564</ele>
        <time>2021-08-05T10:49:00.804Z</time>
      </trkpt>
      <trkpt lat="46.98632" lon="8.70468">
        <ele>564</ele>
        <time>2021-08-05T10:49:01.804Z</time>
      </trkpt>
      <trkpt lat="46.98632" lon="8.70469">
        <ele>565</ele>
        <time>2021-08-05T10:49:02.804Z</time>
      </trkpt>
      <trkpt lat="46.9863" lon="8.70472">
        <ele>566</ele>
        <time>2021-08-05T10:49:03.806Z</time>
      </trkpt>
      <trkpt lat="46.98631" lon="8.70471">
        <ele>566</ele>
        <time>2021-08-05T10:49:04.806Z</time>
      </trkpt>
      <trkpt lat="46.98631" lon="8.70469">
        <ele>565</ele>
        <time>2021-08-05T10:49:05.805Z</time>
      </trkpt>
      <trkpt lat="46.9863" lon="8.70469">
        <ele>565</ele>
        <time>2021-08-05T10:49:06.806Z</time>
      </trkpt>
      <trkpt lat="46.98629" lon="8.70469">
        <ele>566</ele>
        <time>2021-08-05T10:49:07.805Z</time>
      </trkpt>
      <trkpt lat="46.98629" lon="8.7047">
        <ele>567</ele>
        <time>2021-08-05T10:49:08.806Z</time>
      </trkpt>
      <trkpt lat="46.98628" lon="8.70471">
        <ele>567</ele>
        <time>2021-08-05T10:49:09.806Z</time>
      </trkpt>
      <trkpt lat="46.98627" lon="8.70473">
        <ele>568</ele>
        <time>2021-08-05T10:49:10.806Z</time>
      </trkpt>
      <trkpt lat="46.98626" lon="8.70473">
        <ele>569</ele>
        <time>2021-08-05T10:49:11.805Z</time>
      </trkpt>
      <trkpt lat="46.98625" lon="8.70474">
        <ele>570</ele>
        <time>2021-08-05T10:49:12.806Z</time>
      </trkpt>
      <trkpt lat="46.98624" lon="8.70476">
        <ele>570</ele>
        <time>2021-08-05T10:49:13.806Z</time>
      </trkpt>
      <trkpt lat="46.98623" lon="8.70477">
        <ele>571</ele>
        <time>2021-08-05T10:49:14.805Z</time>
      </trkpt>
      <trkpt lat="46.98622" lon="8.70478">
        <ele>571</ele>
        <time>2021-08-05T10:49:15.806Z</time>
      </trkpt>
      <trkpt lat="46.98621" lon="8.7048">
        <ele>571</ele>
        <time>2021-08-05T10:49:16.806Z</time>
      </trkpt>
      <trkpt lat="46.9862" lon="8.70481">
        <ele>571</ele>
        <time>2021-08-05T10:49:17.806Z</time>
      </trkpt>
      <trkpt lat="46.9862" lon="8.70483">
        <ele>571</ele>
        <time>2021-08-05T10:49:18.806Z</time>
      </trkpt>
      <trkpt lat="46.98619" lon="8.70484">
        <ele>571</ele>
        <time>2021-08-05T10:49:19.806Z</time>
      </trkpt>
      <trkpt lat="46.98618" lon="8.70485">
        <ele>571</ele>
        <time>2021-08-05T10:49:20.805Z</time>
      </trkpt>
      <trkpt lat="46.98617" lon="8.70486">
        <ele>571</ele>
        <time>2021-08-05T10:49:21.806Z</time>
      </trkpt>
      <trkpt lat="46.98616" lon="8.70488">
        <ele>572</ele>
        <time>2021-08-05T10:49:22.805Z</time>
      </trkpt>
      <trkpt lat="46.98615" lon="8.70489">
        <ele>573</ele>
        <time>2021-08-05T10:49:23.805Z</time>
      </trkpt>
      <trkpt lat="46.98614" lon="8.7049">
        <ele>573</ele>
        <time>2021-08-05T10:49:24.805Z</time>
      </trkpt>
      <trkpt lat="46.98612" lon="8.70491">
        <ele>573</ele>
        <time>2021-08-05T10:49:25.806Z</time>
      </trkpt>
      <trkpt lat="46.98611" lon="8.70492">
        <ele>573</ele>
        <time>2021-08-05T10:49:26.806Z</time>
      </trkpt>
      <trkpt lat="46.9861" lon="8.70493">
        <ele>573</ele>
        <time>2021-08-05T10:49:27.805Z</time>
      </trkpt>
      <trkpt lat="46.9861" lon="8.70494">
        <ele>574</ele>
        <time>2021-08-05T10:49:28.806Z</time>
      </trkpt>
      <trkpt lat="46.98609" lon="8.70496">
        <ele>574</ele>
        <time>2021-08-05T10:49:29.806Z</time>
      </trkpt>
      <trkpt lat="46.98608" lon="8.70496">
        <ele>574</ele>
        <time>2021-08-05T10:49:30.805Z</time>
      </trkpt>
      <trkpt lat="46.98607" lon="8.70497">
        <ele>574</ele>
        <time>2021-08-05T10:49:31.806Z</time>
      </trkpt>
      <trkpt lat="46.98606" lon="8.70499">
        <ele>574</ele>
        <time>2021-08-05T10:49:32.806Z</time>
      </trkpt>
      <trkpt lat="46.98606" lon="8.705">
        <ele>574</ele>
        <time>2021-08-05T10:49:33.806Z</time>
      </trkpt>
      <trkpt lat="46.98605" lon="8.70501">
        <ele>574</ele>
        <time>2021-08-05T10:49:34.806Z</time>
      </trkpt>
      <trkpt lat="46.98604" lon="8.70502">
        <ele>573</ele>
        <time>2021-08-05T10:49:35.806Z</time>
      </trkpt>
      <trkpt lat="46.98603" lon="8.70504">
        <ele>573</ele>
        <time>2021-08-05T10:49:36.806Z</time>
      </trkpt>
      <trkpt lat="46.98602" lon="8.70504">
        <ele>572</ele>
        <time>2021-08-05T10:49:37.806Z</time>
      </trkpt>
      <trkpt lat="46.98602" lon="8.70505">
        <ele>572</ele>
        <time>2021-08-05T10:49:38.806Z</time>
      </trkpt>
      <trkpt lat="46.98601" lon="8.70507">
        <ele>572</ele>
        <time>2021-08-05T10:49:39.806Z</time>
      </trkpt>
      <trkpt lat="46.986" lon="8.70508">
        <ele>571</ele>
        <time>2021-08-05T10:49:40.805Z</time>
      </trkpt>
      <trkpt lat="46.98598" lon="8.70509">
        <ele>571</ele>
        <time>2021-08-05T10:49:41.806Z</time>
      </trkpt>
      <trkpt lat="46.98596" lon="8.7051">
        <ele>571</ele>
        <time>2021-08-05T10:49:42.805Z</time>
      </trkpt>
      <trkpt lat="46.98595" lon="8.70511">
        <ele>571</ele>
        <time>2021-08-05T10:49:43.805Z</time>
      </trkpt>
      <trkpt lat="46.98594" lon="8.70512">
        <ele>571</ele>
        <time>2021-08-05T10:49:44.805Z</time>
      </trkpt>
      <trkpt lat="46.98593" lon="8.70513">
        <ele>571</ele>
        <time>2021-08-05T10:49:45.806Z</time>
      </trkpt>
      <trkpt lat="46.98592" lon="8.70513">
        <ele>571</ele>
        <time>2021-08-05T10:49:46.806Z</time>
      </trkpt>
      <trkpt lat="46.98592" lon="8.70515">
        <ele>571</ele>
        <time>2021-08-05T10:49:47.806Z</time>
      </trkpt>
      <trkpt lat="46.98591" lon="8.70516">
        <ele>571</ele>
        <time>2021-08-05T10:49:48.805Z</time>
      </trkpt>
      <trkpt lat="46.98591" lon="8.70518">
        <ele>571</ele>
        <time>2021-08-05T10:49:49.805Z</time>
      </trkpt>
      <trkpt lat="46.9859" lon="8.70519">
        <ele>571</ele>
        <time>2021-08-05T10:49:50.805Z</time>
      </trkpt>
      <trkpt lat="46.98589" lon="8.7052">
        <ele>571</ele>
        <time>2021-08-05T10:49:51.805Z</time>
      </trkpt>
      <trkpt lat="46.98588" lon="8.70521">
        <ele>570</ele>
        <time>2021-08-05T10:49:52.805Z</time>
      </trkpt>
      <trkpt lat="46.98587" lon="8.70522">
        <ele>570</ele>
        <time>2021-08-05T10:49:53.805Z</time>
      </trkpt>
      <trkpt lat="46.98587" lon="8.70523">
        <ele>570</ele>
        <time>2021-08-05T10:49:54.806Z</time>
      </trkpt>
      <trkpt lat="46.98586" lon="8.70524">
        <ele>570</ele>
        <time>2021-08-05T10:49:55.806Z</time>
      </trkpt>
      <trkpt lat="46.98586" lon="8.70526">
        <ele>570</ele>
        <time>2021-08-05T10:49:56.806Z</time>
      </trkpt>
      <trkpt lat="46.98585" lon="8.70527">
        <ele>570</ele>
        <time>2021-08-05T10:49:57.806Z</time>
      </trkpt>
      <trkpt lat="46.98585" lon="8.70528">
        <ele>570</ele>
        <time>2021-08-05T10:49:58.806Z</time>
      </trkpt>
      <trkpt lat="46.98584" lon="8.7053">
        <ele>570</ele>
        <time>2021-08-05T10:49:59.806Z</time>
      </trkpt>
      <trkpt lat="46.98583" lon="8.70531">
        <ele>570</ele>
        <time>2021-08-05T10:50:00.806Z</time>
      </trkpt>
      <trkpt lat="46.98582" lon="8.70532">
        <ele>570</ele>
        <time>2021-08-05T10:50:01.806Z</time>
      </trkpt>
      <trkpt lat="46.98581" lon="8.70533">
        <ele>570</ele>
        <time>2021-08-05T10:50:02.806Z</time>
      </trkpt>
      <trkpt lat="46.9858" lon="8.70535">
        <ele>571</ele>
        <time>2021-08-05T10:50:03.806Z</time>
      </trkpt>
      <trkpt lat="46.98579" lon="8.70536">
        <ele>571</ele>
        <time>2021-08-05T10:50:04.806Z</time>
      </trkpt>
      <trkpt lat="46.98577" lon="8.70537">
        <ele>571</ele>
        <time>2021-08-05T10:50:05.806Z</time>
      </trkpt>
      <trkpt lat="46.98576" lon="8.70538">
        <ele>571</ele>
        <time>2021-08-05T10:50:06.806Z</time>
      </trkpt>
      <trkpt lat="46.98575" lon="8.70539">
        <ele>571</ele>
        <time>2021-08-05T10:50:07.806Z</time>
      </trkpt>
      <trkpt lat="46.98574" lon="8.7054">
        <ele>571</ele>
        <time>2021-08-05T10:50:08.806Z</time>
      </trkpt>
      <trkpt lat="46.98573" lon="8.70541">
        <ele>571</ele>
        <time>2021-08-05T10:50:09.806Z</time>
      </trkpt>
      <trkpt lat="46.98572" lon="8.70541">
        <ele>571</ele>
        <time>2021-08-05T10:50:10.805Z</time>
      </trkpt>
      <trkpt lat="46.98571" lon="8.70542">
        <ele>571</ele>
        <time>2021-08-05T10:50:11.806Z</time>
      </trkpt>
      <trkpt lat="46.9857" lon="8.70543">
        <ele>570</ele>
        <time>2021-08-05T10:50:12.806Z</time>
      </trkpt>
      <trkpt lat="46.98569" lon="8.70544">
        <ele>569</ele>
        <time>2021-08-05T10:50:13.805Z</time>
      </trkpt>
      <trkpt lat="46.98567" lon="8.70544">
        <ele>568</ele>
        <time>2021-08-05T10:50:14.806Z</time>
      </trkpt>
      <trkpt lat="46.98567" lon="8.70545">
        <ele>568</ele>
        <time>2021-08-05T10:50:15.805Z</time>
      </trkpt>
      <trkpt lat="46.98566" lon="8.70547">
        <ele>567</ele>
        <time>2021-08-05T10:50:16.806Z</time>
      </trkpt>
      <trkpt lat="46.98565" lon="8.70547">
        <ele>567</ele>
        <time>2021-08-05T10:50:17.805Z</time>
      </trkpt>
      <trkpt lat="46.98565" lon="8.70548">
        <ele>567</ele>
        <time>2021-08-05T10:50:18.805Z</time>
      </trkpt>
      <trkpt lat="46.98564" lon="8.7055">
        <ele>568</ele>
        <time>2021-08-05T10:50:19.806Z</time>
      </trkpt>
      <trkpt lat="46.98563" lon="8.70551">
        <ele>569</ele>
        <time>2021-08-05T10:50:20.806Z</time>
      </trkpt>
      <trkpt lat="46.98563" lon="8.70552">
        <ele>570</ele>
        <time>2021-08-05T10:50:21.806Z</time>
      </trkpt>
      <trkpt lat="46.98562" lon="8.70553">
        <ele>571</ele>
        <time>2021-08-05T10:50:22.806Z</time>
      </trkpt>
      <trkpt lat="46.98561" lon="8.70554">
        <ele>571</ele>
        <time>2021-08-05T10:50:23.806Z</time>
      </trkpt>
      <trkpt lat="46.9856" lon="8.70555">
        <ele>571</ele>
        <time>2021-08-05T10:50:24.806Z</time>
      </trkpt>
      <trkpt lat="46.98559" lon="8.70557">
        <ele>571</ele>
        <time>2021-08-05T10:50:25.805Z</time>
      </trkpt>
      <trkpt lat="46.98558" lon="8.70558">
        <ele>571</ele>
        <time>2021-08-05T10:50:26.806Z</time>
      </trkpt>
      <trkpt lat="46.98558" lon="8.7056">
        <ele>571</ele>
        <time>2021-08-05T10:50:27.806Z</time>
      </trkpt>
      <trkpt lat="46.98557" lon="8.70562">
        <ele>571</ele>
        <time>2021-08-05T10:50:28.806Z</time>
      </trkpt>
      <trkpt lat="46.98556" lon="8.70563">
        <ele>572</ele>
        <time>2021-08-05T10:50:29.806Z</time>
      </trkpt>
      <trkpt lat="46.98555" lon="8.70564">
        <ele>573</ele>
        <time>2021-08-05T10:50:30.805Z</time>
      </trkpt>
      <trkpt lat="46.98554" lon="8.70566">
        <ele>573</ele>
        <time>2021-08-05T10:50:31.806Z</time>
      </trkpt>
      <trkpt lat="46.98554" lon="8.70567">
        <ele>574</ele>
        <time>2021-08-05T10:50:32.805Z</time>
      </trkpt>
      <trkpt lat="46.98553" lon="8.70568">
        <ele>574</ele>
        <time>2021-08-05T10:50:33.805Z</time>
      </trkpt>
      <trkpt lat="46.98552" lon="8.7057">
        <ele>574</ele>
        <time>2021-08-05T10:50:34.806Z</time>
      </trkpt>
      <trkpt lat="46.98551" lon="8.70571">
        <ele>574</ele>
        <time>2021-08-05T10:50:35.805Z</time>
      </trkpt>
      <trkpt lat="46.9855" lon="8.70572">
        <ele>573</ele>
        <time>2021-08-05T10:50:36.805Z</time>
      </trkpt>
      <trkpt lat="46.9855" lon="8.70574">
        <ele>573</ele>
        <time>2021-08-05T10:50:37.806Z</time>
      </trkpt>
      <trkpt lat="46.98549" lon="8.70575">
        <ele>572</ele>
        <time>2021-08-05T10:50:38.806Z</time>
      </trkpt>
      <trkpt lat="46.98548" lon="8.70576">
        <ele>572</ele>
        <time>2021-08-05T10:50:39.806Z</time>
      </trkpt>
      <trkpt lat="46.98547" lon="8.70578">
        <ele>572</ele>
        <time>2021-08-05T10:50:40.806Z</time>
      </trkpt>
      <trkpt lat="46.98547" lon="8.70579">
        <ele>572</ele>
        <time>2021-08-05T10:50:41.805Z</time>
      </trkpt>
      <trkpt lat="46.98546" lon="8.7058">
        <ele>572</ele>
        <time>2021-08-05T10:50:42.805Z</time>
      </trkpt>
      <trkpt lat="46.98545" lon="8.70581">
        <ele>572</ele>
        <time>2021-08-05T10:50:43.805Z</time>
      </trkpt>
      <trkpt lat="46.98544" lon="8.70583">
        <ele>572</ele>
        <time>2021-08-05T10:50:44.805Z</time>
      </trkpt>
      <trkpt lat="46.98544" lon="8.70583">
        <ele>572</ele>
        <time>2021-08-05T10:50:45.806Z</time>
      </trkpt>
      <trkpt lat="46.98543" lon="8.70585">
        <ele>571</ele>
        <time>2021-08-05T10:50:46.806Z</time>
      </trkpt>
      <trkpt lat="46.98542" lon="8.70586">
        <ele>571</ele>
        <time>2021-08-05T10:50:47.805Z</time>
      </trkpt>
      <trkpt lat="46.98541" lon="8.70587">
        <ele>571</ele>
        <time>2021-08-05T10:50:57.921Z</time>
      </trkpt>
      <trkpt lat="46.98541" lon="8.70589">
        <ele>571</ele>
        <time>2021-08-05T10:50:58.921Z</time>
      </trkpt>
      <trkpt lat="46.9854" lon="8.7059">
        <ele>571</ele>
        <time>2021-08-05T10:50:59.921Z</time>
      </trkpt>
      <trkpt lat="46.98539" lon="8.70592">
        <ele>571</ele>
        <time>2021-08-05T10:51:00.921Z</time>
      </trkpt>
      <trkpt lat="46.98539" lon="8.70594">
        <ele>572</ele>
        <time>2021-08-05T10:51:01.921Z</time>
      </trkpt>
      <trkpt lat="46.98538" lon="8.70595">
        <ele>572</ele>
        <time>2021-08-05T10:51:02.921Z</time>
      </trkpt>
      <trkpt lat="46.98537" lon="8.70596">
        <ele>573</ele>
        <time>2021-08-05T10:51:03.921Z</time>
      </trkpt>
      <trkpt lat="46.98536" lon="8.70597">
        <ele>573</ele>
        <time>2021-08-05T10:51:04.921Z</time>
      </trkpt>
      <trkpt lat="46.98535" lon="8.70599">
        <ele>573</ele>
        <time>2021-08-05T10:51:05.920Z</time>
      </trkpt>
      <trkpt lat="46.98534" lon="8.706">
        <ele>572</ele>
        <time>2021-08-05T10:51:06.920Z</time>
      </trkpt>
      <trkpt lat="46.98533" lon="8.70601">
        <ele>572</ele>
        <time>2021-08-05T10:51:07.920Z</time>
      </trkpt>
      <trkpt lat="46.98532" lon="8.70601">
        <ele>571</ele>
        <time>2021-08-05T10:51:08.920Z</time>
      </trkpt>
      <trkpt lat="46.98531" lon="8.70603">
        <ele>571</ele>
        <time>2021-08-05T10:51:09.921Z</time>
      </trkpt>
      <trkpt lat="46.9853" lon="8.70604">
        <ele>571</ele>
        <time>2021-08-05T10:51:10.921Z</time>
      </trkpt>
      <trkpt lat="46.98529" lon="8.70605">
        <ele>571</ele>
        <time>2021-08-05T10:51:11.920Z</time>
      </trkpt>
      <trkpt lat="46.98527" lon="8.70606">
        <ele>571</ele>
        <time>2021-08-05T10:51:12.920Z</time>
      </trkpt>
      <trkpt lat="46.98527" lon="8.70607">
        <ele>572</ele>
        <time>2021-08-05T10:51:27.082Z</time>
      </trkpt>
      <trkpt lat="46.98526" lon="8.70609">
        <ele>573</ele>
        <time>2021-08-05T10:51:28.081Z</time>
      </trkpt>
      <trkpt lat="46.98525" lon="8.7061">
        <ele>573</ele>
        <time>2021-08-05T10:51:29.082Z</time>
      </trkpt>
      <trkpt lat="46.98525" lon="8.70612">
        <ele>574</ele>
        <time>2021-08-05T10:51:30.082Z</time>
      </trkpt>
      <trkpt lat="46.98524" lon="8.70613">
        <ele>574</ele>
        <time>2021-08-05T10:51:31.082Z</time>
      </trkpt>
      <trkpt lat="46.98523" lon="8.70614">
        <ele>574</ele>
        <time>2021-08-05T10:51:32.081Z</time>
      </trkpt>
      <trkpt lat="46.98522" lon="8.70616">
        <ele>575</ele>
        <time>2021-08-05T10:51:33.082Z</time>
      </trkpt>
      <trkpt lat="46.98521" lon="8.70617">
        <ele>575</ele>
        <time>2021-08-05T10:51:34.082Z</time>
      </trkpt>
      <trkpt lat="46.9852" lon="8.70618">
        <ele>575</ele>
        <time>2021-08-05T10:51:35.082Z</time>
      </trkpt>
      <trkpt lat="46.98519" lon="8.70618">
        <ele>575</ele>
        <time>2021-08-05T10:51:36.081Z</time>
      </trkpt>
      <trkpt lat="46.98519" lon="8.70619">
        <ele>575</ele>
        <time>2021-08-05T10:51:37.081Z</time>
      </trkpt>
      <trkpt lat="46.98518" lon="8.7062">
        <ele>575</ele>
        <time>2021-08-05T10:51:38.082Z</time>
      </trkpt>
      <trkpt lat="46.98517" lon="8.70621">
        <ele>576</ele>
        <time>2021-08-05T10:51:39.082Z</time>
      </trkpt>
      <trkpt lat="46.98516" lon="8.70622">
        <ele>576</ele>
        <time>2021-08-05T10:51:40.082Z</time>
      </trkpt>
      <trkpt lat="46.98515" lon="8.70623">
        <ele>575</ele>
        <time>2021-08-05T10:51:41.082Z</time>
      </trkpt>
      <trkpt lat="46.98514" lon="8.70624">
        <ele>575</ele>
        <time>2021-08-05T10:51:42.081Z</time>
      </trkpt>
      <trkpt lat="46.98513" lon="8.70624">
        <ele>574</ele>
        <time>2021-08-05T10:51:43.081Z</time>
      </trkpt>
      <trkpt lat="46.98512" lon="8.70625">
        <ele>573</ele>
        <time>2021-08-05T10:51:44.081Z</time>
      </trkpt>
      <trkpt lat="46.98511" lon="8.70626">
        <ele>572</ele>
        <time>2021-08-05T10:51:45.082Z</time>
      </trkpt>
      <trkpt lat="46.9851" lon="8.70628">
        <ele>572</ele>
        <time>2021-08-05T10:51:46.081Z</time>
      </trkpt>
      <trkpt lat="46.98509" lon="8.70629">
        <ele>571</ele>
        <time>2021-08-05T10:51:47.081Z</time>
      </trkpt>
      <trkpt lat="46.98508" lon="8.7063">
        <ele>571</ele>
        <time>2021-08-05T10:51:48.082Z</time>
      </trkpt>
      <trkpt lat="46.98507" lon="8.70631">
        <ele>570</ele>
        <time>2021-08-05T10:51:49.081Z</time>
      </trkpt>
      <trkpt lat="46.98506" lon="8.70632">
        <ele>570</ele>
        <time>2021-08-05T10:51:50.082Z</time>
      </trkpt>
      <trkpt lat="46.98506" lon="8.70633">
        <ele>569</ele>
        <time>2021-08-05T10:51:51.081Z</time>
      </trkpt>
      <trkpt lat="46.98505" lon="8.70634">
        <ele>569</ele>
        <time>2021-08-05T10:51:52.081Z</time>
      </trkpt>
      <trkpt lat="46.98504" lon="8.70634">
        <ele>569</ele>
        <time>2021-08-05T10:51:53.082Z</time>
      </trkpt>
      <trkpt lat="46.98503" lon="8.70635">
        <ele>569</ele>
        <time>2021-08-05T10:51:54.081Z</time>
      </trkpt>
      <trkpt lat="46.98502" lon="8.70636">
        <ele>569</ele>
        <time>2021-08-05T10:51:55.081Z</time>
      </trkpt>
      <trkpt lat="46.98501" lon="8.70636">
        <ele>569</ele>
        <time>2021-08-05T10:51:56.082Z</time>
      </trkpt>
      <trkpt lat="46.98499" lon="8.70636">
        <ele>570</ele>
        <time>2021-08-05T10:51:57.082Z</time>
      </trkpt>
      <trkpt lat="46.98498" lon="8.70636">
        <ele>571</ele>
        <time>2021-08-05T10:51:58.081Z</time>
      </trkpt>
      <trkpt lat="46.98497" lon="8.70635">
        <ele>571</ele>
        <time>2021-08-05T10:51:59.082Z</time>
      </trkpt>
      <trkpt lat="46.98495" lon="8.70635">
        <ele>572</ele>
        <time>2021-08-05T10:52:00.082Z</time>
      </trkpt>
      <trkpt lat="46.98493" lon="8.70635">
        <ele>573</ele>
        <time>2021-08-05T10:52:01.081Z</time>
      </trkpt>
      <trkpt lat="46.98492" lon="8.70636">
        <ele>574</ele>
        <time>2021-08-05T10:52:02.082Z</time>
      </trkpt>
      <trkpt lat="46.98491" lon="8.70636">
        <ele>575</ele>
        <time>2021-08-05T10:52:03.082Z</time>
      </trkpt>
      <trkpt lat="46.9849" lon="8.70636">
        <ele>575</ele>
        <time>2021-08-05T10:52:04.082Z</time>
      </trkpt>
      <trkpt lat="46.9849" lon="8.70636">
        <ele>576</ele>
        <time>2021-08-05T10:52:05.082Z</time>
      </trkpt>
      <trkpt lat="46.98489" lon="8.70637">
        <ele>576</ele>
        <time>2021-08-05T10:52:06.082Z</time>
      </trkpt>
      <trkpt lat="46.98488" lon="8.70637">
        <ele>577</ele>
        <time>2021-08-05T10:52:07.082Z</time>
      </trkpt>
      <trkpt lat="46.98487" lon="8.70638">
        <ele>577</ele>
        <time>2021-08-05T10:52:08.082Z</time>
      </trkpt>
      <trkpt lat="46.98487" lon="8.70639">
        <ele>577</ele>
        <time>2021-08-05T10:52:09.082Z</time>
      </trkpt>
      <trkpt lat="46.98487" lon="8.70639">
        <ele>577</ele>
        <time>2021-08-05T10:52:10.082Z</time>
      </trkpt>
      <trkpt lat="46.98487" lon="8.70639">
        <ele>576</ele>
        <time>2021-08-05T10:52:11.082Z</time>
      </trkpt>
      <trkpt lat="46.98487" lon="8.7064">
        <ele>575</ele>
        <time>2021-08-05T10:52:12.082Z</time>
      </trkpt>
      <trkpt lat="46.98486" lon="8.7064">
        <ele>574</ele>
        <time>2021-08-05T10:52:13.082Z</time>
      </trkpt>
      <trkpt lat="46.98486" lon="8.70641">
        <ele>574</ele>
        <time>2021-08-05T10:52:14.081Z</time>
      </trkpt>
      <trkpt lat="46.98484" lon="8.70642">
        <ele>574</ele>
        <time>2021-08-05T10:52:15.081Z</time>
      </trkpt>
      <trkpt lat="46.98483" lon="8.70643">
        <ele>574</ele>
        <time>2021-08-05T10:52:16.082Z</time>
      </trkpt>
      <trkpt lat="46.98483" lon="8.70645">
        <ele>574</ele>
        <time>2021-08-05T10:52:17.082Z</time>
      </trkpt>
      <trkpt lat="46.98482" lon="8.70647">
        <ele>574</ele>
        <time>2021-08-05T10:52:18.081Z</time>
      </trkpt>
      <trkpt lat="46.98482" lon="8.70649">
        <ele>574</ele>
        <time>2021-08-05T10:52:19.081Z</time>
      </trkpt>
      <trkpt lat="46.98482" lon="8.70651">
        <ele>574</ele>
        <time>2021-08-05T10:52:20.081Z</time>
      </trkpt>
      <trkpt lat="46.98482" lon="8.70652">
        <ele>574</ele>
        <time>2021-08-05T10:52:21.082Z</time>
      </trkpt>
      <trkpt lat="46.98482" lon="8.70653">
        <ele>574</ele>
        <time>2021-08-05T10:52:22.081Z</time>
      </trkpt>
      <trkpt lat="46.98481" lon="8.70653">
        <ele>574</ele>
        <time>2021-08-05T10:52:23.081Z</time>
      </trkpt>
      <trkpt lat="46.98481" lon="8.70654">
        <ele>574</ele>
        <time>2021-08-05T10:52:24.081Z</time>
      </trkpt>
      <trkpt lat="46.9848" lon="8.70654">
        <ele>574</ele>
        <time>2021-08-05T10:52:25.081Z</time>
      </trkpt>
      <trkpt lat="46.98478" lon="8.70655">
        <ele>574</ele>
        <time>2021-08-05T10:52:26.082Z</time>
      </trkpt>
      <trkpt lat="46.98477" lon="8.70655">
        <ele>575</ele>
        <time>2021-08-05T10:52:27.081Z</time>
      </trkpt>
      <trkpt lat="46.98476" lon="8.70655">
        <ele>575</ele>
        <time>2021-08-05T10:52:28.082Z</time>
      </trkpt>
      <trkpt lat="46.98475" lon="8.70656">
        <ele>576</ele>
        <time>2021-08-05T10:52:29.081Z</time>
      </trkpt>
      <trkpt lat="46.98473" lon="8.70656">
        <ele>576</ele>
        <time>2021-08-05T10:52:30.082Z</time>
      </trkpt>
      <trkpt lat="46.98472" lon="8.70655">
        <ele>576</ele>
        <time>2021-08-05T10:52:31.082Z</time>
      </trkpt>
      <trkpt lat="46.98472" lon="8.70655">
        <ele>576</ele>
        <time>2021-08-05T10:52:32.081Z</time>
      </trkpt>
      <trkpt lat="46.98471" lon="8.70655">
        <ele>576</ele>
        <time>2021-08-05T10:52:33.081Z</time>
      </trkpt>
      <trkpt lat="46.9847" lon="8.70655">
        <ele>576</ele>
        <time>2021-08-05T10:52:34.081Z</time>
      </trkpt>
      <trkpt lat="46.98469" lon="8.70656">
        <ele>577</ele>
        <time>2021-08-05T10:52:35.082Z</time>
      </trkpt>
      <trkpt lat="46.98467" lon="8.70656">
        <ele>577</ele>
        <time>2021-08-05T10:52:36.082Z</time>
      </trkpt>
      <trkpt lat="46.98466" lon="8.70656">
        <ele>578</ele>
        <time>2021-08-05T10:52:37.082Z</time>
      </trkpt>
      <trkpt lat="46.98465" lon="8.70656">
        <ele>578</ele>
        <time>2021-08-05T10:52:38.081Z</time>
      </trkpt>
      <trkpt lat="46.98464" lon="8.70656">
        <ele>578</ele>
        <time>2021-08-05T10:52:39.081Z</time>
      </trkpt>
      <trkpt lat="46.98463" lon="8.70657">
        <ele>578</ele>
        <time>2021-08-05T10:52:40.081Z</time>
      </trkpt>
      <trkpt lat="46.98462" lon="8.70656">
        <ele>578</ele>
        <time>2021-08-05T10:52:41.081Z</time>
      </trkpt>
      <trkpt lat="46.98461" lon="8.70657">
        <ele>578</ele>
        <time>2021-08-05T10:52:42.082Z</time>
      </trkpt>
      <trkpt lat="46.9846" lon="8.70658">
        <ele>578</ele>
        <time>2021-08-05T10:52:43.081Z</time>
      </trkpt>
      <trkpt lat="46.98459" lon="8.70659">
        <ele>578</ele>
        <time>2021-08-05T10:52:44.082Z</time>
      </trkpt>
      <trkpt lat="46.98458" lon="8.70659">
        <ele>578</ele>
        <time>2021-08-05T10:52:45.081Z</time>
      </trkpt>
      <trkpt lat="46.98458" lon="8.7066">
        <ele>578</ele>
        <time>2021-08-05T10:52:46.081Z</time>
      </trkpt>
      <trkpt lat="46.98458" lon="8.70661">
        <ele>577</ele>
        <time>2021-08-05T10:52:47.081Z</time>
      </trkpt>
      <trkpt lat="46.98457" lon="8.70661">
        <ele>577</ele>
        <time>2021-08-05T10:52:48.082Z</time>
      </trkpt>
      <trkpt lat="46.98456" lon="8.70662">
        <ele>577</ele>
        <time>2021-08-05T10:52:49.082Z</time>
      </trkpt>
      <trkpt lat="46.98455" lon="8.70663">
        <ele>578</ele>
        <time>2021-08-05T10:52:50.082Z</time>
      </trkpt>
      <trkpt lat="46.98455" lon="8.70664">
        <ele>578</ele>
        <time>2021-08-05T10:52:51.082Z</time>
      </trkpt>
      <trkpt lat="46.98454" lon="8.70665">
        <ele>578</ele>
        <time>2021-08-05T10:52:52.082Z</time>
      </trkpt>
      <trkpt lat="46.98453" lon="8.70666">
        <ele>579</ele>
        <time>2021-08-05T10:52:53.081Z</time>
      </trkpt>
      <trkpt lat="46.98453" lon="8.70667">
        <ele>579</ele>
        <time>2021-08-05T10:52:54.081Z</time>
      </trkpt>
      <trkpt lat="46.98452" lon="8.70669">
        <ele>580</ele>
        <time>2021-08-05T10:52:55.082Z</time>
      </trkpt>
      <trkpt lat="46.98451" lon="8.7067">
        <ele>580</ele>
        <time>2021-08-05T10:52:56.082Z</time>
      </trkpt>
      <trkpt lat="46.9845" lon="8.70671">
        <ele>581</ele>
        <time>2021-08-05T10:52:57.082Z</time>
      </trkpt>
      <trkpt lat="46.98449" lon="8.70672">
        <ele>581</ele>
        <time>2021-08-05T10:52:58.081Z</time>
      </trkpt>
      <trkpt lat="46.98448" lon="8.70672">
        <ele>582</ele>
        <time>2021-08-05T10:52:59.082Z</time>
      </trkpt>
      <trkpt lat="46.98448" lon="8.70673">
        <ele>583</ele>
        <time>2021-08-05T10:53:00.082Z</time>
      </trkpt>
      <trkpt lat="46.98447" lon="8.70674">
        <ele>583</ele>
        <time>2021-08-05T10:53:01.082Z</time>
      </trkpt>
      <trkpt lat="46.98446" lon="8.70675">
        <ele>584</ele>
        <time>2021-08-05T10:53:02.082Z</time>
      </trkpt>
      <trkpt lat="46.98445" lon="8.70675">
        <ele>585</ele>
        <time>2021-08-05T10:53:03.082Z</time>
      </trkpt>
      <trkpt lat="46.98445" lon="8.70676">
        <ele>586</ele>
        <time>2021-08-05T10:53:04.082Z</time>
      </trkpt>
      <trkpt lat="46.98444" lon="8.70677">
        <ele>587</ele>
        <time>2021-08-05T10:53:05.082Z</time>
      </trkpt>
      <trkpt lat="46.98443" lon="8.70678">
        <ele>588</ele>
        <time>2021-08-05T10:53:06.082Z</time>
      </trkpt>
      <trkpt lat="46.98443" lon="8.7068">
        <ele>589</ele>
        <time>2021-08-05T10:53:07.082Z</time>
      </trkpt>
      <trkpt lat="46.98443" lon="8.70681">
        <ele>590</ele>
        <time>2021-08-05T10:53:08.081Z</time>
      </trkpt>
      <trkpt lat="46.98443" lon="8.70683">
        <ele>590</ele>
        <time>2021-08-05T10:53:09.082Z</time>
      </trkpt>
      <trkpt lat="46.98443" lon="8.70685">
        <ele>590</ele>
        <time>2021-08-05T10:53:10.082Z</time>
      </trkpt>
      <trkpt lat="46.98443" lon="8.70687">
        <ele>590</ele>
        <time>2021-08-05T10:53:11.082Z</time>
      </trkpt>
      <trkpt lat="46.98442" lon="8.70688">
        <ele>590</ele>
        <time>2021-08-05T10:53:12.081Z</time>
      </trkpt>
      <trkpt lat="46.98441" lon="8.70689">
        <ele>588</ele>
        <time>2021-08-05T10:53:13.082Z</time>
      </trkpt>
      <trkpt lat="46.98441" lon="8.70691">
        <ele>587</ele>
        <time>2021-08-05T10:53:14.082Z</time>
      </trkpt>
      <trkpt lat="46.9844" lon="8.70693">
        <ele>586</ele>
        <time>2021-08-05T10:53:15.082Z</time>
      </trkpt>
      <trkpt lat="46.9844" lon="8.70694">
        <ele>585</ele>
        <time>2021-08-05T10:53:16.082Z</time>
      </trkpt>
      <trkpt lat="46.9844" lon="8.70695">
        <ele>585</ele>
        <time>2021-08-05T10:53:17.081Z</time>
      </trkpt>
      <trkpt lat="46.98439" lon="8.70696">
        <ele>584</ele>
        <time>2021-08-05T10:53:18.081Z</time>
      </trkpt>
      <trkpt lat="46.98438" lon="8.70697">
        <ele>585</ele>
        <time>2021-08-05T10:53:19.082Z</time>
      </trkpt>
      <trkpt lat="46.98438" lon="8.70698">
        <ele>585</ele>
        <time>2021-08-05T10:53:20.082Z</time>
      </trkpt>
      <trkpt lat="46.98437" lon="8.70699">
        <ele>584</ele>
        <time>2021-08-05T10:53:21.082Z</time>
      </trkpt>
      <trkpt lat="46.98436" lon="8.70701">
        <ele>584</ele>
        <time>2021-08-05T10:53:22.082Z</time>
      </trkpt>
      <trkpt lat="46.98435" lon="8.70703">
        <ele>585</ele>
        <time>2021-08-05T10:53:23.081Z</time>
      </trkpt>
      <trkpt lat="46.98434" lon="8.70704">
        <ele>585</ele>
        <time>2021-08-05T10:53:24.082Z</time>
      </trkpt>
      <trkpt lat="46.98433" lon="8.70705">
        <ele>585</ele>
        <time>2021-08-05T10:53:25.081Z</time>
      </trkpt>
      <trkpt lat="46.98433" lon="8.70706">
        <ele>585</ele>
        <time>2021-08-05T10:53:26.081Z</time>
      </trkpt>
      <trkpt lat="46.98432" lon="8.70708">
        <ele>586</ele>
        <time>2021-08-05T10:53:27.081Z</time>
      </trkpt>
      <trkpt lat="46.98432" lon="8.70709">
        <ele>586</ele>
        <time>2021-08-05T10:53:28.082Z</time>
      </trkpt>
      <trkpt lat="46.98431" lon="8.7071">
        <ele>586</ele>
        <time>2021-08-05T10:53:29.081Z</time>
      </trkpt>
      <trkpt lat="46.98431" lon="8.70711">
        <ele>586</ele>
        <time>2021-08-05T10:53:30.082Z</time>
      </trkpt>
      <trkpt lat="46.9843" lon="8.70713">
        <ele>586</ele>
        <time>2021-08-05T10:53:31.082Z</time>
      </trkpt>
      <trkpt lat="46.98429" lon="8.70715">
        <ele>586</ele>
        <time>2021-08-05T10:53:32.081Z</time>
      </trkpt>
      <trkpt lat="46.98428" lon="8.70717">
        <ele>586</ele>
        <time>2021-08-05T10:53:33.082Z</time>
      </trkpt>
      <trkpt lat="46.98427" lon="8.70718">
        <ele>586</ele>
        <time>2021-08-05T10:53:34.081Z</time>
      </trkpt>
      <trkpt lat="46.98427" lon="8.7072">
        <ele>586</ele>
        <time>2021-08-05T10:53:35.082Z</time>
      </trkpt>
      <trkpt lat="46.98426" lon="8.70722">
        <ele>586</ele>
        <time>2021-08-05T10:53:36.082Z</time>
      </trkpt>
      <trkpt lat="46.98426" lon="8.70723">
        <ele>585</ele>
        <time>2021-08-05T10:53:37.082Z</time>
      </trkpt>
      <trkpt lat="46.98426" lon="8.70725">
        <ele>585</ele>
        <time>2021-08-05T10:53:38.082Z</time>
      </trkpt>
      <trkpt lat="46.98425" lon="8.70726">
        <ele>585</ele>
        <time>2021-08-05T10:53:39.082Z</time>
      </trkpt>
      <trkpt lat="46.98425" lon="8.70728">
        <ele>584</ele>
        <time>2021-08-05T10:53:40.081Z</time>
      </trkpt>
      <trkpt lat="46.98424" lon="8.70729">
        <ele>584</ele>
        <time>2021-08-05T10:53:41.082Z</time>
      </trkpt>
      <trkpt lat="46.98423" lon="8.70731">
        <ele>584</ele>
        <time>2021-08-05T10:53:42.082Z</time>
      </trkpt>
      <trkpt lat="46.98422" lon="8.70732">
        <ele>583</ele>
        <time>2021-08-05T10:53:43.082Z</time>
      </trkpt>
      <trkpt lat="46.98422" lon="8.70734">
        <ele>583</ele>
        <time>2021-08-05T10:53:44.082Z</time>
      </trkpt>
      <trkpt lat="46.98421" lon="8.70736">
        <ele>583</ele>
        <time>2021-08-05T10:53:45.082Z</time>
      </trkpt>
      <trkpt lat="46.9842" lon="8.70737">
        <ele>583</ele>
        <time>2021-08-05T10:53:46.082Z</time>
      </trkpt>
      <trkpt lat="46.9842" lon="8.70738">
        <ele>582</ele>
        <time>2021-08-05T10:53:47.081Z</time>
      </trkpt>
      <trkpt lat="46.9842" lon="8.70739">
        <ele>582</ele>
        <time>2021-08-05T10:53:48.082Z</time>
      </trkpt>
      <trkpt lat="46.98419" lon="8.70741">
        <ele>582</ele>
        <time>2021-08-05T10:53:49.082Z</time>
      </trkpt>
      <trkpt lat="46.98418" lon="8.70742">
        <ele>581</ele>
        <time>2021-08-05T10:53:50.082Z</time>
      </trkpt>
      <trkpt lat="46.98417" lon="8.70743">
        <ele>581</ele>
        <time>2021-08-05T10:53:51.082Z</time>
      </trkpt>
      <trkpt lat="46.98416" lon="8.70745">
        <ele>581</ele>
        <time>2021-08-05T10:53:52.081Z</time>
      </trkpt>
      <trkpt lat="46.98415" lon="8.70746">
        <ele>581</ele>
        <time>2021-08-05T10:53:53.082Z</time>
      </trkpt>
      <trkpt lat="46.98415" lon="8.70748">
        <ele>581</ele>
        <time>2021-08-05T10:53:54.082Z</time>
      </trkpt>
      <trkpt lat="46.98414" lon="8.70749">
        <ele>581</ele>
        <time>2021-08-05T10:53:55.081Z</time>
      </trkpt>
      <trkpt lat="46.98413" lon="8.7075">
        <ele>581</ele>
        <time>2021-08-05T10:53:56.082Z</time>
      </trkpt>
      <trkpt lat="46.98413" lon="8.70751">
        <ele>581</ele>
        <time>2021-08-05T10:53:57.081Z</time>
      </trkpt>
      <trkpt lat="46.98412" lon="8.70753">
        <ele>581</ele>
        <time>2021-08-05T10:53:58.081Z</time>
      </trkpt>
      <trkpt lat="46.98411" lon="8.70754">
        <ele>581</ele>
        <time>2021-08-05T10:53:59.082Z</time>
      </trkpt>
      <trkpt lat="46.98411" lon="8.70756">
        <ele>581</ele>
        <time>2021-08-05T10:54:00.081Z</time>
      </trkpt>
      <trkpt lat="46.98411" lon="8.70758">
        <ele>581</ele>
        <time>2021-08-05T10:54:01.082Z</time>
      </trkpt>
      <trkpt lat="46.9841" lon="8.7076">
        <ele>581</ele>
        <time>2021-08-05T10:54:02.082Z</time>
      </trkpt>
      <trkpt lat="46.9841" lon="8.70762">
        <ele>581</ele>
        <time>2021-08-05T10:54:03.082Z</time>
      </trkpt>
      <trkpt lat="46.98409" lon="8.70764">
        <ele>581</ele>
        <time>2021-08-05T10:54:04.082Z</time>
      </trkpt>
      <trkpt lat="46.98409" lon="8.70765">
        <ele>582</ele>
        <time>2021-08-05T10:54:05.081Z</time>
      </trkpt>
      <trkpt lat="46.98409" lon="8.70766">
        <ele>582</ele>
        <time>2021-08-05T10:54:06.081Z</time>
      </trkpt>
      <trkpt lat="46.98408" lon="8.70768">
        <ele>582</ele>
        <time>2021-08-05T10:54:07.081Z</time>
      </trkpt>
      <trkpt lat="46.98407" lon="8.7077">
        <ele>583</ele>
        <time>2021-08-05T10:54:08.082Z</time>
      </trkpt>
      <trkpt lat="46.98406" lon="8.70772">
        <ele>583</ele>
        <time>2021-08-05T10:54:09.082Z</time>
      </trkpt>
      <trkpt lat="46.98406" lon="8.70774">
        <ele>583</ele>
        <time>2021-08-05T10:54:10.082Z</time>
      </trkpt>
      <trkpt lat="46.98406" lon="8.70776">
        <ele>583</ele>
        <time>2021-08-05T10:54:11.082Z</time>
      </trkpt>
      <trkpt lat="46.98405" lon="8.70778">
        <ele>583</ele>
        <time>2021-08-05T10:54:12.081Z</time>
      </trkpt>
      <trkpt lat="46.98404" lon="8.7078">
        <ele>583</ele>
        <time>2021-08-05T10:54:13.081Z</time>
      </trkpt>
      <trkpt lat="46.98404" lon="8.70781">
        <ele>584</ele>
        <time>2021-08-05T10:54:14.081Z</time>
      </trkpt>
      <trkpt lat="46.98403" lon="8.70782">
        <ele>584</ele>
        <time>2021-08-05T10:54:15.082Z</time>
      </trkpt>
      <trkpt lat="46.98403" lon="8.70784">
        <ele>585</ele>
        <time>2021-08-05T10:54:16.081Z</time>
      </trkpt>
      <trkpt lat="46.98402" lon="8.70785">
        <ele>585</ele>
        <time>2021-08-05T10:54:17.082Z</time>
      </trkpt>
      <trkpt lat="46.98402" lon="8.70786">
        <ele>585</ele>
        <time>2021-08-05T10:54:18.082Z</time>
      </trkpt>
      <trkpt lat="46.98401" lon="8.70787">
        <ele>585</ele>
        <time>2021-08-05T10:54:19.082Z</time>
      </trkpt>
      <trkpt lat="46.984" lon="8.70788">
        <ele>586</ele>
        <time>2021-08-05T10:54:20.081Z</time>
      </trkpt>
      <trkpt lat="46.984" lon="8.7079">
        <ele>586</ele>
        <time>2021-08-05T10:54:21.082Z</time>
      </trkpt>
      <trkpt lat="46.98399" lon="8.70792">
        <ele>586</ele>
        <time>2021-08-05T10:54:22.082Z</time>
      </trkpt>
      <trkpt lat="46.98398" lon="8.70793">
        <ele>586</ele>
        <time>2021-08-05T10:54:23.082Z</time>
      </trkpt>
      <trkpt lat="46.98397" lon="8.70794">
        <ele>586</ele>
        <time>2021-08-05T10:54:24.082Z</time>
      </trkpt>
      <trkpt lat="46.98396" lon="8.70794">
        <ele>586</ele>
        <time>2021-08-05T10:54:25.081Z</time>
      </trkpt>
      <trkpt lat="46.98395" lon="8.70796">
        <ele>586</ele>
        <time>2021-08-05T10:54:26.082Z</time>
      </trkpt>
      <trkpt lat="46.98394" lon="8.70797">
        <ele>586</ele>
        <time>2021-08-05T10:54:27.081Z</time>
      </trkpt>
      <trkpt lat="46.98392" lon="8.70798">
        <ele>586</ele>
        <time>2021-08-05T10:54:28.081Z</time>
      </trkpt>
      <trkpt lat="46.98391" lon="8.708">
        <ele>586</ele>
        <time>2021-08-05T10:54:29.082Z</time>
      </trkpt>
      <trkpt lat="46.9839" lon="8.70802">
        <ele>586</ele>
        <time>2021-08-05T10:54:30.082Z</time>
      </trkpt>
      <trkpt lat="46.98389" lon="8.70803">
        <ele>586</ele>
        <time>2021-08-05T10:54:31.082Z</time>
      </trkpt>
      <trkpt lat="46.98388" lon="8.70805">
        <ele>586</ele>
        <time>2021-08-05T10:54:32.082Z</time>
      </trkpt>
      <trkpt lat="46.98387" lon="8.70808">
        <ele>586</ele>
        <time>2021-08-05T10:54:33.082Z</time>
      </trkpt>
      <trkpt lat="46.98386" lon="8.7081">
        <ele>586</ele>
        <time>2021-08-05T10:54:34.082Z</time>
      </trkpt>
      <trkpt lat="46.98385" lon="8.70812">
        <ele>586</ele>
        <time>2021-08-05T10:54:35.082Z</time>
      </trkpt>
      <trkpt lat="46.98384" lon="8.70815">
        <ele>586</ele>
        <time>2021-08-05T10:54:36.082Z</time>
      </trkpt>
      <trkpt lat="46.98383" lon="8.70816">
        <ele>585</ele>
        <time>2021-08-05T10:54:37.082Z</time>
      </trkpt>
      <trkpt lat="46.98381" lon="8.70818">
        <ele>585</ele>
        <time>2021-08-05T10:54:38.082Z</time>
      </trkpt>
      <trkpt lat="46.9838" lon="8.70819">
        <ele>585</ele>
        <time>2021-08-05T10:54:39.082Z</time>
      </trkpt>
      <trkpt lat="46.98379" lon="8.7082">
        <ele>585</ele>
        <time>2021-08-05T10:54:40.082Z</time>
      </trkpt>
      <trkpt lat="46.98378" lon="8.70821">
        <ele>585</ele>
        <time>2021-08-05T10:54:41.081Z</time>
      </trkpt>
      <trkpt lat="46.98377" lon="8.70822">
        <ele>584</ele>
        <time>2021-08-05T10:54:42.081Z</time>
      </trkpt>
      <trkpt lat="46.98376" lon="8.70823">
        <ele>584</ele>
        <time>2021-08-05T10:54:43.082Z</time>
      </trkpt>
      <trkpt lat="46.98375" lon="8.70824">
        <ele>584</ele>
        <time>2021-08-05T10:54:44.082Z</time>
      </trkpt>
      <trkpt lat="46.98374" lon="8.70825">
        <ele>585</ele>
        <time>2021-08-05T10:54:45.082Z</time>
      </trkpt>
      <trkpt lat="46.98373" lon="8.70827">
        <ele>585</ele>
        <time>2021-08-05T10:54:46.081Z</time>
      </trkpt>
      <trkpt lat="46.98372" lon="8.70827">
        <ele>585</ele>
        <time>2021-08-05T10:54:47.081Z</time>
      </trkpt>
      <trkpt lat="46.98371" lon="8.70828">
        <ele>585</ele>
        <time>2021-08-05T10:54:48.081Z</time>
      </trkpt>
      <trkpt lat="46.9837" lon="8.70829">
        <ele>585</ele>
        <time>2021-08-05T10:54:49.081Z</time>
      </trkpt>
      <trkpt lat="46.98369" lon="8.70829">
        <ele>585</ele>
        <time>2021-08-05T10:54:50.082Z</time>
      </trkpt>
      <trkpt lat="46.98368" lon="8.7083">
        <ele>585</ele>
        <time>2021-08-05T10:54:51.081Z</time>
      </trkpt>
      <trkpt lat="46.98367" lon="8.7083">
        <ele>585</ele>
        <time>2021-08-05T10:54:52.082Z</time>
      </trkpt>
      <trkpt lat="46.98366" lon="8.70831">
        <ele>584</ele>
        <time>2021-08-05T10:54:53.082Z</time>
      </trkpt>
      <trkpt lat="46.98366" lon="8.70832">
        <ele>583</ele>
        <time>2021-08-05T10:54:54.081Z</time>
      </trkpt>
      <trkpt lat="46.98365" lon="8.70833">
        <ele>583</ele>
        <time>2021-08-05T10:54:55.082Z</time>
      </trkpt>
      <trkpt lat="46.98363" lon="8.70834">
        <ele>583</ele>
        <time>2021-08-05T10:54:56.081Z</time>
      </trkpt>
      <trkpt lat="46.98362" lon="8.70836">
        <ele>583</ele>
        <time>2021-08-05T10:54:57.082Z</time>
      </trkpt>
      <trkpt lat="46.98361" lon="8.70837">
        <ele>582</ele>
        <time>2021-08-05T10:54:58.081Z</time>
      </trkpt>
      <trkpt lat="46.9836" lon="8.70839">
        <ele>582</ele>
        <time>2021-08-05T10:54:59.082Z</time>
      </trkpt>
      <trkpt lat="46.98359" lon="8.7084">
        <ele>581</ele>
        <time>2021-08-05T10:55:00.082Z</time>
      </trkpt>
      <trkpt lat="46.98358" lon="8.70842">
        <ele>581</ele>
        <time>2021-08-05T10:55:01.081Z</time>
      </trkpt>
      <trkpt lat="46.98357" lon="8.70843">
        <ele>580</ele>
        <time>2021-08-05T10:55:02.082Z</time>
      </trkpt>
      <trkpt lat="46.98356" lon="8.70844">
        <ele>579</ele>
        <time>2021-08-05T10:55:03.082Z</time>
      </trkpt>
      <trkpt lat="46.98355" lon="8.70845">
        <ele>579</ele>
        <time>2021-08-05T10:55:04.082Z</time>
      </trkpt>
      <trkpt lat="46.98354" lon="8.70846">
        <ele>579</ele>
        <time>2021-08-05T10:55:05.082Z</time>
      </trkpt>
      <trkpt lat="46.98353" lon="8.70848">
        <ele>579</ele>
        <time>2021-08-05T10:55:06.081Z</time>
      </trkpt>
      <trkpt lat="46.98352" lon="8.70849">
        <ele>579</ele>
        <time>2021-08-05T10:55:07.081Z</time>
      </trkpt>
      <trkpt lat="46.98351" lon="8.7085">
        <ele>579</ele>
        <time>2021-08-05T10:55:08.082Z</time>
      </trkpt>
      <trkpt lat="46.9835" lon="8.70851">
        <ele>579</ele>
        <time>2021-08-05T10:55:09.082Z</time>
      </trkpt>
      <trkpt lat="46.98349" lon="8.70852">
        <ele>579</ele>
        <time>2021-08-05T10:55:10.082Z</time>
      </trkpt>
      <trkpt lat="46.98348" lon="8.70853">
        <ele>579</ele>
        <time>2021-08-05T10:55:11.082Z</time>
      </trkpt>
      <trkpt lat="46.98348" lon="8.70854">
        <ele>579</ele>
        <time>2021-08-05T10:55:12.081Z</time>
      </trkpt>
      <trkpt lat="46.98348" lon="8.70856">
        <ele>579</ele>
        <time>2021-08-05T10:55:13.082Z</time>
      </trkpt>
      <trkpt lat="46.98347" lon="8.70857">
        <ele>579</ele>
        <time>2021-08-05T10:55:14.082Z</time>
      </trkpt>
      <trkpt lat="46.98347" lon="8.70857">
        <ele>578</ele>
        <time>2021-08-05T10:55:15.082Z</time>
      </trkpt>
      <trkpt lat="46.98347" lon="8.70858">
        <ele>578</ele>
        <time>2021-08-05T10:55:16.082Z</time>
      </trkpt>
      <trkpt lat="46.98347" lon="8.70858">
        <ele>578</ele>
        <time>2021-08-05T10:55:17.082Z</time>
      </trkpt>
      <trkpt lat="46.98347" lon="8.70858">
        <ele>578</ele>
        <time>2021-08-05T10:55:18.082Z</time>
      </trkpt>
      <trkpt lat="46.98348" lon="8.70859">
        <ele>576</ele>
        <time>2021-08-05T10:55:19.082Z</time>
      </trkpt>
      <trkpt lat="46.98348" lon="8.70862">
        <ele>573</ele>
        <time>2021-08-05T10:55:20.082Z</time>
      </trkpt>
      <trkpt lat="46.98348" lon="8.70863">
        <ele>573</ele>
        <time>2021-08-05T10:55:21.081Z</time>
      </trkpt>
      <trkpt lat="46.98346" lon="8.70862">
        <ele>570</ele>
        <time>2021-08-05T10:55:22.082Z</time>
      </trkpt>
      <trkpt lat="46.98347" lon="8.70863">
        <ele>570</ele>
        <time>2021-08-05T10:55:23.081Z</time>
      </trkpt>
      <trkpt lat="46.98347" lon="8.70864">
        <ele>570</ele>
        <time>2021-08-05T10:55:24.082Z</time>
      </trkpt>
      <trkpt lat="46.98347" lon="8.70864">
        <ele>570</ele>
        <time>2021-08-05T10:55:25.082Z</time>
      </trkpt>
      <trkpt lat="46.98346" lon="8.70866">
        <ele>570</ele>
        <time>2021-08-05T10:55:26.081Z</time>
      </trkpt>
      <trkpt lat="46.98345" lon="8.70867">
        <ele>571</ele>
        <time>2021-08-05T10:55:27.082Z</time>
      </trkpt>
      <trkpt lat="46.98345" lon="8.70868">
        <ele>571</ele>
        <time>2021-08-05T10:55:28.082Z</time>
      </trkpt>
      <trkpt lat="46.98344" lon="8.70868">
        <ele>571</ele>
        <time>2021-08-05T10:55:29.082Z</time>
      </trkpt>
      <trkpt lat="46.98344" lon="8.70869">
        <ele>571</ele>
        <time>2021-08-05T10:55:30.082Z</time>
      </trkpt>
      <trkpt lat="46.98344" lon="8.70869">
        <ele>572</ele>
        <time>2021-08-05T10:55:31.081Z</time>
      </trkpt>
      <trkpt lat="46.98343" lon="8.7087">
        <ele>573</ele>
        <time>2021-08-05T10:55:32.082Z</time>
      </trkpt>
      <trkpt lat="46.98343" lon="8.70871">
        <ele>573</ele>
        <time>2021-08-05T10:55:33.082Z</time>
      </trkpt>
      <trkpt lat="46.98343" lon="8.70871">
        <ele>573</ele>
        <time>2021-08-05T10:55:34.081Z</time>
      </trkpt>
      <trkpt lat="46.98342" lon="8.70864">
        <ele>570</ele>
        <time>2021-08-05T10:55:35.082Z</time>
      </trkpt>
      <trkpt lat="46.98342" lon="8.70864">
        <ele>570</ele>
        <time>2021-08-05T10:55:36.081Z</time>
      </trkpt>
      <trkpt lat="46.98343" lon="8.70865">
        <ele>570</ele>
        <time>2021-08-05T10:55:37.081Z</time>
      </trkpt>
      <trkpt lat="46.98342" lon="8.70866">
        <ele>571</ele>
        <time>2021-08-05T10:55:38.081Z</time>
      </trkpt>
      <trkpt lat="46.98341" lon="8.70866">
        <ele>572</ele>
        <time>2021-08-05T10:55:39.082Z</time>
      </trkpt>
      <trkpt lat="46.98341" lon="8.70867">
        <ele>573</ele>
        <time>2021-08-05T10:55:40.081Z</time>
      </trkpt>
      <trkpt lat="46.9834" lon="8.70868">
        <ele>574</ele>
        <time>2021-08-05T10:55:41.082Z</time>
      </trkpt>
      <trkpt lat="46.98339" lon="8.70869">
        <ele>574</ele>
        <time>2021-08-05T10:55:42.082Z</time>
      </trkpt>
      <trkpt lat="46.98339" lon="8.70869">
        <ele>575</ele>
        <time>2021-08-05T10:55:43.081Z</time>
      </trkpt>
      <trkpt lat="46.98338" lon="8.7087">
        <ele>576</ele>
        <time>2021-08-05T10:55:44.081Z</time>
      </trkpt>
      <trkpt lat="46.98338" lon="8.70871">
        <ele>576</ele>
        <time>2021-08-05T10:55:45.082Z</time>
      </trkpt>
      <trkpt lat="46.98338" lon="8.70872">
        <ele>576</ele>
        <time>2021-08-05T10:55:46.081Z</time>
      </trkpt>
      <trkpt lat="46.98337" lon="8.70873">
        <ele>576</ele>
        <time>2021-08-05T10:55:47.081Z</time>
      </trkpt>
      <trkpt lat="46.98337" lon="8.70874">
        <ele>575</ele>
        <time>2021-08-05T10:55:48.081Z</time>
      </trkpt>
      <trkpt lat="46.98336" lon="8.70875">
        <ele>575</ele>
        <time>2021-08-05T10:55:49.082Z</time>
      </trkpt>
      <trkpt lat="46.98336" lon="8.70876">
        <ele>575</ele>
        <time>2021-08-05T10:55:50.082Z</time>
      </trkpt>
      <trkpt lat="46.98335" lon="8.70877">
        <ele>574</ele>
        <time>2021-08-05T10:55:51.081Z</time>
      </trkpt>
      <trkpt lat="46.98334" lon="8.70878">
        <ele>574</ele>
        <time>2021-08-05T10:55:52.081Z</time>
      </trkpt>
      <trkpt lat="46.98333" lon="8.70879">
        <ele>573</ele>
        <time>2021-08-05T10:55:53.082Z</time>
      </trkpt>
      <trkpt lat="46.98332" lon="8.70881">
        <ele>573</ele>
        <time>2021-08-05T10:55:54.081Z</time>
      </trkpt>
      <trkpt lat="46.98331" lon="8.70882">
        <ele>573</ele>
        <time>2021-08-05T10:55:55.082Z</time>
      </trkpt>
      <trkpt lat="46.9833" lon="8.70884">
        <ele>572</ele>
        <time>2021-08-05T10:55:56.082Z</time>
      </trkpt>
      <trkpt lat="46.98328" lon="8.70886">
        <ele>572</ele>
        <time>2021-08-05T10:55:57.081Z</time>
      </trkpt>
      <trkpt lat="46.98327" lon="8.70887">
        <ele>571</ele>
        <time>2021-08-05T10:55:58.082Z</time>
      </trkpt>
      <trkpt lat="46.98326" lon="8.70889">
        <ele>571</ele>
        <time>2021-08-05T10:55:59.081Z</time>
      </trkpt>
      <trkpt lat="46.98325" lon="8.70889">
        <ele>571</ele>
        <time>2021-08-05T10:56:00.081Z</time>
      </trkpt>
      <trkpt lat="46.98324" lon="8.7089">
        <ele>571</ele>
        <time>2021-08-05T10:56:01.081Z</time>
      </trkpt>
      <trkpt lat="46.98323" lon="8.7089">
        <ele>571</ele>
        <time>2021-08-05T10:56:02.081Z</time>
      </trkpt>
      <trkpt lat="46.98322" lon="8.70891">
        <ele>571</ele>
        <time>2021-08-05T10:56:03.081Z</time>
      </trkpt>
      <trkpt lat="46.98321" lon="8.70892">
        <ele>571</ele>
        <time>2021-08-05T10:56:04.082Z</time>
      </trkpt>
      <trkpt lat="46.98319" lon="8.70893">
        <ele>572</ele>
        <time>2021-08-05T10:56:05.081Z</time>
      </trkpt>
      <trkpt lat="46.98319" lon="8.70894">
        <ele>572</ele>
        <time>2021-08-05T10:56:06.082Z</time>
      </trkpt>
      <trkpt lat="46.98319" lon="8.70894">
        <ele>572</ele>
        <time>2021-08-05T10:56:07.082Z</time>
      </trkpt>
      <trkpt lat="46.98318" lon="8.70895">
        <ele>572</ele>
        <time>2021-08-05T10:56:08.081Z</time>
      </trkpt>
      <trkpt lat="46.98317" lon="8.70898">
        <ele>572</ele>
        <time>2021-08-05T10:56:09.081Z</time>
      </trkpt>
      <trkpt lat="46.98316" lon="8.709">
        <ele>572</ele>
        <time>2021-08-05T10:56:10.082Z</time>
      </trkpt>
      <trkpt lat="46.98316" lon="8.70902">
        <ele>572</ele>
        <time>2021-08-05T10:56:11.081Z</time>
      </trkpt>
      <trkpt lat="46.98316" lon="8.70903">
        <ele>572</ele>
        <time>2021-08-05T10:56:12.082Z</time>
      </trkpt>
      <trkpt lat="46.98315" lon="8.70905">
        <ele>572</ele>
        <time>2021-08-05T10:56:13.081Z</time>
      </trkpt>
      <trkpt lat="46.98315" lon="8.70906">
        <ele>573</ele>
        <time>2021-08-05T10:56:14.082Z</time>
      </trkpt>
      <trkpt lat="46.98314" lon="8.70906">
        <ele>573</ele>
        <time>2021-08-05T10:56:15.082Z</time>
      </trkpt>
      <trkpt lat="46.98314" lon="8.70907">
        <ele>573</ele>
        <time>2021-08-05T10:56:16.082Z</time>
      </trkpt>
      <trkpt lat="46.98314" lon="8.70907">
        <ele>573</ele>
        <time>2021-08-05T10:56:17.082Z</time>
      </trkpt>
      <trkpt lat="46.98313" lon="8.70907">
        <ele>573</ele>
        <time>2021-08-05T10:56:18.082Z</time>
      </trkpt>
      <trkpt lat="46.98312" lon="8.70907">
        <ele>573</ele>
        <time>2021-08-05T10:56:19.082Z</time>
      </trkpt>
      <trkpt lat="46.98312" lon="8.70907">
        <ele>573</ele>
        <time>2021-08-05T10:56:20.082Z</time>
      </trkpt>
      <trkpt lat="46.98312" lon="8.70907">
        <ele>573</ele>
        <time>2021-08-05T10:56:21.081Z</time>
      </trkpt>
      <trkpt lat="46.98312" lon="8.70907">
        <ele>574</ele>
        <time>2021-08-05T10:56:22.081Z</time>
      </trkpt>
      <trkpt lat="46.98311" lon="8.70908">
        <ele>574</ele>
        <time>2021-08-05T10:56:23.082Z</time>
      </trkpt>
      <trkpt lat="46.98311" lon="8.70908">
        <ele>574</ele>
        <time>2021-08-05T10:56:24.082Z</time>
      </trkpt>
      <trkpt lat="46.98311" lon="8.7091">
        <ele>574</ele>
        <time>2021-08-05T10:56:25.082Z</time>
      </trkpt>
      <trkpt lat="46.9831" lon="8.70911">
        <ele>574</ele>
        <time>2021-08-05T10:56:26.081Z</time>
      </trkpt>
      <trkpt lat="46.9831" lon="8.70913">
        <ele>574</ele>
        <time>2021-08-05T10:56:27.081Z</time>
      </trkpt>
      <trkpt lat="46.98309" lon="8.70914">
        <ele>574</ele>
        <time>2021-08-05T10:56:28.082Z</time>
      </trkpt>
      <trkpt lat="46.98308" lon="8.70915">
        <ele>574</ele>
        <time>2021-08-05T10:56:44.218Z</time>
      </trkpt>
      <trkpt lat="46.98308" lon="8.70916">
        <ele>574</ele>
        <time>2021-08-05T10:56:45.218Z</time>
      </trkpt>
      <trkpt lat="46.98307" lon="8.70918">
        <ele>574</ele>
        <time>2021-08-05T10:56:46.218Z</time>
      </trkpt>
      <trkpt lat="46.98307" lon="8.7092">
        <ele>573</ele>
        <time>2021-08-05T10:57:32.307Z</time>
      </trkpt>
      <trkpt lat="46.98307" lon="8.70923">
        <ele>572</ele>
        <time>2021-08-05T10:57:33.307Z</time>
      </trkpt>
      <trkpt lat="46.98307" lon="8.70924">
        <ele>571</ele>
        <time>2021-08-05T10:57:34.307Z</time>
      </trkpt>
      <trkpt lat="46.98308" lon="8.70924">
        <ele>571</ele>
        <time>2021-08-05T10:57:35.307Z</time>
      </trkpt>
      <trkpt lat="46.98308" lon="8.70925">
        <ele>570</ele>
        <time>2021-08-05T10:57:36.307Z</time>
      </trkpt>
      <trkpt lat="46.98308" lon="8.70926">
        <ele>569</ele>
        <time>2021-08-05T10:57:37.306Z</time>
      </trkpt>
      <trkpt lat="46.98308" lon="8.70927">
        <ele>569</ele>
        <time>2021-08-05T10:57:38.307Z</time>
      </trkpt>
      <trkpt lat="46.98308" lon="8.70928">
        <ele>568</ele>
        <time>2021-08-05T10:57:39.307Z</time>
      </trkpt>
      <trkpt lat="46.98308" lon="8.70929">
        <ele>568</ele>
        <time>2021-08-05T10:57:40.307Z</time>
      </trkpt>
      <trkpt lat="46.98307" lon="8.70931">
        <ele>567</ele>
        <time>2021-08-05T10:57:52.451Z</time>
      </trkpt>
      <trkpt lat="46.98306" lon="8.70932">
        <ele>566</ele>
        <time>2021-08-05T10:57:53.450Z</time>
      </trkpt>
      <trkpt lat="46.98306" lon="8.70934">
        <ele>566</ele>
        <time>2021-08-05T10:57:54.451Z</time>
      </trkpt>
      <trkpt lat="46.98306" lon="8.70935">
        <ele>565</ele>
        <time>2021-08-05T10:57:57.421Z</time>
      </trkpt>
      <trkpt lat="46.98306" lon="8.70937">
        <ele>564</ele>
        <time>2021-08-05T10:57:58.421Z</time>
      </trkpt>
      <trkpt lat="46.98306" lon="8.70939">
        <ele>563</ele>
        <time>2021-08-05T10:57:59.421Z</time>
      </trkpt>
      <trkpt lat="46.98306" lon="8.70941">
        <ele>563</ele>
        <time>2021-08-05T10:58:00.421Z</time>
      </trkpt>
      <trkpt lat="46.98306" lon="8.70943">
        <ele>562</ele>
        <time>2021-08-05T10:58:01.421Z</time>
      </trkpt>
      <trkpt lat="46.98305" lon="8.70945">
        <ele>562</ele>
        <time>2021-08-05T10:58:02.421Z</time>
      </trkpt>
      <trkpt lat="46.98305" lon="8.70947">
        <ele>561</ele>
        <time>2021-08-05T10:58:03.422Z</time>
      </trkpt>
      <trkpt lat="46.98305" lon="8.70948">
        <ele>560</ele>
        <time>2021-08-05T10:58:04.421Z</time>
      </trkpt>
      <trkpt lat="46.98305" lon="8.70949">
        <ele>560</ele>
        <time>2021-08-05T10:58:05.421Z</time>
      </trkpt>
      <trkpt lat="46.98306" lon="8.7095">
        <ele>559</ele>
        <time>2021-08-05T10:58:06.421Z</time>
      </trkpt>
      <trkpt lat="46.98306" lon="8.7095">
        <ele>559</ele>
        <time>2021-08-05T10:58:07.422Z</time>
      </trkpt>
      <trkpt lat="46.98306" lon="8.70951">
        <ele>558</ele>
        <time>2021-08-05T10:58:08.422Z</time>
      </trkpt>
      <trkpt lat="46.98306" lon="8.70951">
        <ele>558</ele>
        <time>2021-08-05T10:58:09.421Z</time>
      </trkpt>
      <trkpt lat="46.98307" lon="8.70952">
        <ele>558</ele>
        <time>2021-08-05T10:58:10.421Z</time>
      </trkpt>
      <trkpt lat="46.98306" lon="8.70954">
        <ele>558</ele>
        <time>2021-08-05T10:58:11.421Z</time>
      </trkpt>
      <trkpt lat="46.98306" lon="8.70955">
        <ele>558</ele>
        <time>2021-08-05T10:58:12.421Z</time>
      </trkpt>
      <trkpt lat="46.98306" lon="8.70957">
        <ele>558</ele>
        <time>2021-08-05T10:58:13.421Z</time>
      </trkpt>
      <trkpt lat="46.98306" lon="8.70958">
        <ele>558</ele>
        <time>2021-08-05T10:58:14.421Z</time>
      </trkpt>
      <trkpt lat="46.98307" lon="8.70959">
        <ele>558</ele>
        <time>2021-08-05T10:58:15.421Z</time>
      </trkpt>
      <trkpt lat="46.98307" lon="8.7096">
        <ele>558</ele>
        <time>2021-08-05T10:58:16.421Z</time>
      </trkpt>
      <trkpt lat="46.98308" lon="8.70961">
        <ele>559</ele>
        <time>2021-08-05T10:58:17.422Z</time>
      </trkpt>
      <trkpt lat="46.98308" lon="8.70962">
        <ele>560</ele>
        <time>2021-08-05T10:58:18.421Z</time>
      </trkpt>
      <trkpt lat="46.98308" lon="8.70964">
        <ele>561</ele>
        <time>2021-08-05T10:58:19.421Z</time>
      </trkpt>
      <trkpt lat="46.98307" lon="8.70965">
        <ele>562</ele>
        <time>2021-08-05T10:58:20.421Z</time>
      </trkpt>
      <trkpt lat="46.98307" lon="8.70967">
        <ele>563</ele>
        <time>2021-08-05T10:58:21.421Z</time>
      </trkpt>
      <trkpt lat="46.98306" lon="8.70968">
        <ele>564</ele>
        <time>2021-08-05T10:58:22.421Z</time>
      </trkpt>
      <trkpt lat="46.98306" lon="8.7097">
        <ele>565</ele>
        <time>2021-08-05T10:58:23.421Z</time>
      </trkpt>
      <trkpt lat="46.98305" lon="8.70971">
        <ele>565</ele>
        <time>2021-08-05T10:58:24.422Z</time>
      </trkpt>
      <trkpt lat="46.98304" lon="8.70972">
        <ele>566</ele>
        <time>2021-08-05T10:58:25.421Z</time>
      </trkpt>
      <trkpt lat="46.98304" lon="8.70972">
        <ele>566</ele>
        <time>2021-08-05T10:58:26.421Z</time>
      </trkpt>
      <trkpt lat="46.98304" lon="8.70974">
        <ele>567</ele>
        <time>2021-08-05T10:58:27.421Z</time>
      </trkpt>
      <trkpt lat="46.98304" lon="8.70974">
        <ele>567</ele>
        <time>2021-08-05T10:58:28.422Z</time>
      </trkpt>
      <trkpt lat="46.98303" lon="8.70975">
        <ele>568</ele>
        <time>2021-08-05T10:58:29.421Z</time>
      </trkpt>
      <trkpt lat="46.98303" lon="8.70976">
        <ele>568</ele>
        <time>2021-08-05T10:58:30.422Z</time>
      </trkpt>
      <trkpt lat="46.98303" lon="8.70977">
        <ele>569</ele>
        <time>2021-08-05T10:58:31.421Z</time>
      </trkpt>
      <trkpt lat="46.98303" lon="8.70978">
        <ele>570</ele>
        <time>2021-08-05T10:58:32.422Z</time>
      </trkpt>
      <trkpt lat="46.98302" lon="8.70979">
        <ele>571</ele>
        <time>2021-08-05T10:58:33.422Z</time>
      </trkpt>
      <trkpt lat="46.98302" lon="8.70981">
        <ele>572</ele>
        <time>2021-08-05T10:58:34.422Z</time>
      </trkpt>
      <trkpt lat="46.98302" lon="8.70982">
        <ele>572</ele>
        <time>2021-08-05T10:58:35.421Z</time>
      </trkpt>
      <trkpt lat="46.98302" lon="8.70984">
        <ele>572</ele>
        <time>2021-08-05T10:58:36.422Z</time>
      </trkpt>
      <trkpt lat="46.98302" lon="8.70986">
        <ele>572</ele>
        <time>2021-08-05T10:58:37.422Z</time>
      </trkpt>
      <trkpt lat="46.98301" lon="8.70987">
        <ele>572</ele>
        <time>2021-08-05T10:58:38.422Z</time>
      </trkpt>
      <trkpt lat="46.98301" lon="8.70989">
        <ele>572</ele>
        <time>2021-08-05T10:58:39.421Z</time>
      </trkpt>
      <trkpt lat="46.983" lon="8.70991">
        <ele>571</ele>
        <time>2021-08-05T10:58:40.421Z</time>
      </trkpt>
      <trkpt lat="46.98299" lon="8.70992">
        <ele>571</ele>
        <time>2021-08-05T10:58:41.421Z</time>
      </trkpt>
      <trkpt lat="46.98298" lon="8.70994">
        <ele>571</ele>
        <time>2021-08-05T10:58:42.422Z</time>
      </trkpt>
      <trkpt lat="46.98297" lon="8.70997">
        <ele>570</ele>
        <time>2021-08-05T10:58:43.421Z</time>
      </trkpt>
      <trkpt lat="46.98296" lon="8.70998">
        <ele>570</ele>
        <time>2021-08-05T10:58:44.422Z</time>
      </trkpt>
      <trkpt lat="46.98295" lon="8.70999">
        <ele>570</ele>
        <time>2021-08-05T10:58:45.422Z</time>
      </trkpt>
      <trkpt lat="46.98295" lon="8.71">
        <ele>570</ele>
        <time>2021-08-05T10:58:46.422Z</time>
      </trkpt>
      <trkpt lat="46.98294" lon="8.71001">
        <ele>570</ele>
        <time>2021-08-05T10:58:47.422Z</time>
      </trkpt>
      <trkpt lat="46.98293" lon="8.71003">
        <ele>570</ele>
        <time>2021-08-05T10:58:48.421Z</time>
      </trkpt>
      <trkpt lat="46.98293" lon="8.71004">
        <ele>570</ele>
        <time>2021-08-05T10:58:49.422Z</time>
      </trkpt>
      <trkpt lat="46.98292" lon="8.71005">
        <ele>570</ele>
        <time>2021-08-05T10:58:50.422Z</time>
      </trkpt>
      <trkpt lat="46.9829" lon="8.71008">
        <ele>570</ele>
        <time>2021-08-05T10:58:51.422Z</time>
      </trkpt>
      <trkpt lat="46.98289" lon="8.71011">
        <ele>569</ele>
        <time>2021-08-05T10:58:52.422Z</time>
      </trkpt>
      <trkpt lat="46.98289" lon="8.71013">
        <ele>569</ele>
        <time>2021-08-05T10:58:53.422Z</time>
      </trkpt>
      <trkpt lat="46.98287" lon="8.71016">
        <ele>568</ele>
        <time>2021-08-05T10:58:54.422Z</time>
      </trkpt>
      <trkpt lat="46.98286" lon="8.71018">
        <ele>567</ele>
        <time>2021-08-05T10:58:55.422Z</time>
      </trkpt>
      <trkpt lat="46.98285" lon="8.7102">
        <ele>566</ele>
        <time>2021-08-05T10:58:56.422Z</time>
      </trkpt>
      <trkpt lat="46.98285" lon="8.71021">
        <ele>566</ele>
        <time>2021-08-05T10:58:57.421Z</time>
      </trkpt>
      <trkpt lat="46.98285" lon="8.71023">
        <ele>565</ele>
        <time>2021-08-05T10:58:58.422Z</time>
      </trkpt>
      <trkpt lat="46.98285" lon="8.71024">
        <ele>565</ele>
        <time>2021-08-05T10:58:59.422Z</time>
      </trkpt>
      <trkpt lat="46.98284" lon="8.71026">
        <ele>564</ele>
        <time>2021-08-05T10:59:00.422Z</time>
      </trkpt>
      <trkpt lat="46.98283" lon="8.71027">
        <ele>564</ele>
        <time>2021-08-05T10:59:01.421Z</time>
      </trkpt>
      <trkpt lat="46.98282" lon="8.71028">
        <ele>564</ele>
        <time>2021-08-05T10:59:02.422Z</time>
      </trkpt>
      <trkpt lat="46.98282" lon="8.7103">
        <ele>565</ele>
        <time>2021-08-05T10:59:03.422Z</time>
      </trkpt>
      <trkpt lat="46.98282" lon="8.71032">
        <ele>566</ele>
        <time>2021-08-05T10:59:04.422Z</time>
      </trkpt>
      <trkpt lat="46.98282" lon="8.71034">
        <ele>567</ele>
        <time>2021-08-05T10:59:05.421Z</time>
      </trkpt>
      <trkpt lat="46.98281" lon="8.71036">
        <ele>567</ele>
        <time>2021-08-05T10:59:06.422Z</time>
      </trkpt>
      <trkpt lat="46.9828" lon="8.71037">
        <ele>568</ele>
        <time>2021-08-05T10:59:07.422Z</time>
      </trkpt>
      <trkpt lat="46.98279" lon="8.71039">
        <ele>568</ele>
        <time>2021-08-05T10:59:08.422Z</time>
      </trkpt>
      <trkpt lat="46.98279" lon="8.7104">
        <ele>569</ele>
        <time>2021-08-05T10:59:09.421Z</time>
      </trkpt>
      <trkpt lat="46.98279" lon="8.71042">
        <ele>569</ele>
        <time>2021-08-05T10:59:10.421Z</time>
      </trkpt>
      <trkpt lat="46.98278" lon="8.71043">
        <ele>569</ele>
        <time>2021-08-05T10:59:11.422Z</time>
      </trkpt>
      <trkpt lat="46.98278" lon="8.71045">
        <ele>569</ele>
        <time>2021-08-05T10:59:12.422Z</time>
      </trkpt>
      <trkpt lat="46.98278" lon="8.71047">
        <ele>570</ele>
        <time>2021-08-05T10:59:13.422Z</time>
      </trkpt>
      <trkpt lat="46.98278" lon="8.71049">
        <ele>570</ele>
        <time>2021-08-05T10:59:14.421Z</time>
      </trkpt>
      <trkpt lat="46.98278" lon="8.71051">
        <ele>569</ele>
        <time>2021-08-05T10:59:15.421Z</time>
      </trkpt>
      <trkpt lat="46.98278" lon="8.71053">
        <ele>569</ele>
        <time>2021-08-05T10:59:16.421Z</time>
      </trkpt>
      <trkpt lat="46.98278" lon="8.71055">
        <ele>570</ele>
        <time>2021-08-05T10:59:17.421Z</time>
      </trkpt>
      <trkpt lat="46.98278" lon="8.71056">
        <ele>570</ele>
        <time>2021-08-05T10:59:18.422Z</time>
      </trkpt>
      <trkpt lat="46.98278" lon="8.71058">
        <ele>570</ele>
        <time>2021-08-05T10:59:19.422Z</time>
      </trkpt>
      <trkpt lat="46.98279" lon="8.71061">
        <ele>570</ele>
        <time>2021-08-05T10:59:20.422Z</time>
      </trkpt>
      <trkpt lat="46.98279" lon="8.71062">
        <ele>570</ele>
        <time>2021-08-05T10:59:21.422Z</time>
      </trkpt>
      <trkpt lat="46.9828" lon="8.71064">
        <ele>570</ele>
        <time>2021-08-05T10:59:22.422Z</time>
      </trkpt>
      <trkpt lat="46.9828" lon="8.71066">
        <ele>570</ele>
        <time>2021-08-05T10:59:23.421Z</time>
      </trkpt>
      <trkpt lat="46.98281" lon="8.71068">
        <ele>571</ele>
        <time>2021-08-05T10:59:24.422Z</time>
      </trkpt>
      <trkpt lat="46.98281" lon="8.71069">
        <ele>571</ele>
        <time>2021-08-05T10:59:25.422Z</time>
      </trkpt>
      <trkpt lat="46.98282" lon="8.71071">
        <ele>572</ele>
        <time>2021-08-05T10:59:26.422Z</time>
      </trkpt>
      <trkpt lat="46.98282" lon="8.71072">
        <ele>572</ele>
        <time>2021-08-05T10:59:27.421Z</time>
      </trkpt>
      <trkpt lat="46.98282" lon="8.71073">
        <ele>572</ele>
        <time>2021-08-05T10:59:28.422Z</time>
      </trkpt>
      <trkpt lat="46.98282" lon="8.71074">
        <ele>572</ele>
        <time>2021-08-05T10:59:29.422Z</time>
      </trkpt>
      <trkpt lat="46.98281" lon="8.71074">
        <ele>573</ele>
        <time>2021-08-05T10:59:30.422Z</time>
      </trkpt>
      <trkpt lat="46.98281" lon="8.71075">
        <ele>573</ele>
        <time>2021-08-05T10:59:31.422Z</time>
      </trkpt>
      <trkpt lat="46.98281" lon="8.71076">
        <ele>573</ele>
        <time>2021-08-05T10:59:32.422Z</time>
      </trkpt>
      <trkpt lat="46.98281" lon="8.71077">
        <ele>573</ele>
        <time>2021-08-05T10:59:33.422Z</time>
      </trkpt>
      <trkpt lat="46.98264" lon="8.71087">
        <ele>574</ele>
        <time>2021-08-05T11:00:03.421Z</time>
      </trkpt>
      <trkpt lat="46.98266" lon="8.71092">
        <ele>575</ele>
        <time>2021-08-05T11:00:04.422Z</time>
      </trkpt>
      <trkpt lat="46.98265" lon="8.71095">
        <ele>575</ele>
        <time>2021-08-05T11:00:05.421Z</time>
      </trkpt>
      <trkpt lat="46.98266" lon="8.71098">
        <ele>576</ele>
        <time>2021-08-05T11:00:06.422Z</time>
      </trkpt>
      <trkpt lat="46.98266" lon="8.71101">
        <ele>576</ele>
        <time>2021-08-05T11:00:07.421Z</time>
      </trkpt>
      <trkpt lat="46.98268" lon="8.71101">
        <ele>577</ele>
        <time>2021-08-05T11:00:08.422Z</time>
      </trkpt>
      <trkpt lat="46.98269" lon="8.71102">
        <ele>577</ele>
        <time>2021-08-05T11:00:09.422Z</time>
      </trkpt>
      <trkpt lat="46.98269" lon="8.71103">
        <ele>577</ele>
        <time>2021-08-05T11:00:10.421Z</time>
      </trkpt>
      <trkpt lat="46.98269" lon="8.71104">
        <ele>577</ele>
        <time>2021-08-05T11:00:11.422Z</time>
      </trkpt>
      <trkpt lat="46.9827" lon="8.71104">
        <ele>578</ele>
        <time>2021-08-05T11:00:12.422Z</time>
      </trkpt>
      <trkpt lat="46.9827" lon="8.71105">
        <ele>578</ele>
        <time>2021-08-05T11:00:13.421Z</time>
      </trkpt>
      <trkpt lat="46.98271" lon="8.71106">
        <ele>578</ele>
        <time>2021-08-05T11:00:14.421Z</time>
      </trkpt>
      <trkpt lat="46.98272" lon="8.71107">
        <ele>578</ele>
        <time>2021-08-05T11:00:15.422Z</time>
      </trkpt>
      <trkpt lat="46.98273" lon="8.71108">
        <ele>578</ele>
        <time>2021-08-05T11:00:16.422Z</time>
      </trkpt>
      <trkpt lat="46.98273" lon="8.7111">
        <ele>578</ele>
        <time>2021-08-05T11:00:17.421Z</time>
      </trkpt>
      <trkpt lat="46.98274" lon="8.71111">
        <ele>577</ele>
        <time>2021-08-05T11:00:18.422Z</time>
      </trkpt>
      <trkpt lat="46.98275" lon="8.71111">
        <ele>577</ele>
        <time>2021-08-05T11:00:19.421Z</time>
      </trkpt>
      <trkpt lat="46.98276" lon="8.71111">
        <ele>577</ele>
        <time>2021-08-05T11:00:20.421Z</time>
      </trkpt>
      <trkpt lat="46.98276" lon="8.71112">
        <ele>577</ele>
        <time>2021-08-05T11:00:21.421Z</time>
      </trkpt>
      <trkpt lat="46.98277" lon="8.71114">
        <ele>577</ele>
        <time>2021-08-05T11:00:22.422Z</time>
      </trkpt>
      <trkpt lat="46.98277" lon="8.71115">
        <ele>576</ele>
        <time>2021-08-05T11:00:23.422Z</time>
      </trkpt>
      <trkpt lat="46.98278" lon="8.71116">
        <ele>576</ele>
        <time>2021-08-05T11:00:24.422Z</time>
      </trkpt>
      <trkpt lat="46.98278" lon="8.71118">
        <ele>576</ele>
        <time>2021-08-05T11:00:25.421Z</time>
      </trkpt>
      <trkpt lat="46.98279" lon="8.71119">
        <ele>575</ele>
        <time>2021-08-05T11:00:26.422Z</time>
      </trkpt>
      <trkpt lat="46.98279" lon="8.7112">
        <ele>575</ele>
        <time>2021-08-05T11:00:27.422Z</time>
      </trkpt>
      <trkpt lat="46.98279" lon="8.71121">
        <ele>574</ele>
        <time>2021-08-05T11:00:28.422Z</time>
      </trkpt>
      <trkpt lat="46.98279" lon="8.71122">
        <ele>574</ele>
        <time>2021-08-05T11:00:29.421Z</time>
      </trkpt>
      <trkpt lat="46.98278" lon="8.71123">
        <ele>573</ele>
        <time>2021-08-05T11:00:30.421Z</time>
      </trkpt>
      <trkpt lat="46.98278" lon="8.71124">
        <ele>573</ele>
        <time>2021-08-05T11:00:31.421Z</time>
      </trkpt>
      <trkpt lat="46.98278" lon="8.71126">
        <ele>572</ele>
        <time>2021-08-05T11:00:32.421Z</time>
      </trkpt>
      <trkpt lat="46.98278" lon="8.71127">
        <ele>572</ele>
        <time>2021-08-05T11:00:33.421Z</time>
      </trkpt>
      <trkpt lat="46.98278" lon="8.71129">
        <ele>572</ele>
        <time>2021-08-05T11:00:34.421Z</time>
      </trkpt>
      <trkpt lat="46.98277" lon="8.7113">
        <ele>571</ele>
        <time>2021-08-05T11:00:35.421Z</time>
      </trkpt>
      <trkpt lat="46.98277" lon="8.71131">
        <ele>571</ele>
        <time>2021-08-05T11:00:36.421Z</time>
      </trkpt>
      <trkpt lat="46.98277" lon="8.71133">
        <ele>570</ele>
        <time>2021-08-05T11:00:37.421Z</time>
      </trkpt>
      <trkpt lat="46.98277" lon="8.71135">
        <ele>570</ele>
        <time>2021-08-05T11:00:38.421Z</time>
      </trkpt>
      <trkpt lat="46.98278" lon="8.71137">
        <ele>570</ele>
        <time>2021-08-05T11:00:39.421Z</time>
      </trkpt>
      <trkpt lat="46.98278" lon="8.71139">
        <ele>569</ele>
        <time>2021-08-05T11:00:40.421Z</time>
      </trkpt>
      <trkpt lat="46.98278" lon="8.71141">
        <ele>569</ele>
        <time>2021-08-05T11:00:41.421Z</time>
      </trkpt>
      <trkpt lat="46.98278" lon="8.71143">
        <ele>569</ele>
        <time>2021-08-05T11:00:42.421Z</time>
      </trkpt>
      <trkpt lat="46.98277" lon="8.71145">
        <ele>569</ele>
        <time>2021-08-05T11:00:43.422Z</time>
      </trkpt>
      <trkpt lat="46.98277" lon="8.71148">
        <ele>569</ele>
        <time>2021-08-05T11:00:44.422Z</time>
      </trkpt>
      <trkpt lat="46.98277" lon="8.71149">
        <ele>569</ele>
        <time>2021-08-05T11:00:45.421Z</time>
      </trkpt>
      <trkpt lat="46.98277" lon="8.71151">
        <ele>568</ele>
        <time>2021-08-05T11:00:46.422Z</time>
      </trkpt>
      <trkpt lat="46.98278" lon="8.71153">
        <ele>569</ele>
        <time>2021-08-05T11:00:47.422Z</time>
      </trkpt>
      <trkpt lat="46.98277" lon="8.71155">
        <ele>568</ele>
        <time>2021-08-05T11:00:48.422Z</time>
      </trkpt>
      <trkpt lat="46.98278" lon="8.71156">
        <ele>568</ele>
        <time>2021-08-05T11:00:49.421Z</time>
      </trkpt>
      <trkpt lat="46.98277" lon="8.71158">
        <ele>568</ele>
        <time>2021-08-05T11:00:50.422Z</time>
      </trkpt>
      <trkpt lat="46.98277" lon="8.7116">
        <ele>568</ele>
        <time>2021-08-05T11:00:51.422Z</time>
      </trkpt>
      <trkpt lat="46.98277" lon="8.71161">
        <ele>567</ele>
        <time>2021-08-05T11:00:52.422Z</time>
      </trkpt>
      <trkpt lat="46.98278" lon="8.71162">
        <ele>567</ele>
        <time>2021-08-05T11:00:53.421Z</time>
      </trkpt>
      <trkpt lat="46.98278" lon="8.71164">
        <ele>566</ele>
        <time>2021-08-05T11:00:54.422Z</time>
      </trkpt>
      <trkpt lat="46.98277" lon="8.71165">
        <ele>566</ele>
        <time>2021-08-05T11:00:55.422Z</time>
      </trkpt>
      <trkpt lat="46.98278" lon="8.71167">
        <ele>566</ele>
        <time>2021-08-05T11:00:56.422Z</time>
      </trkpt>
      <trkpt lat="46.98278" lon="8.71168">
        <ele>565</ele>
        <time>2021-08-05T11:00:57.422Z</time>
      </trkpt>
      <trkpt lat="46.98278" lon="8.71169">
        <ele>565</ele>
        <time>2021-08-05T11:00:58.421Z</time>
      </trkpt>
      <trkpt lat="46.98278" lon="8.71171">
        <ele>565</ele>
        <time>2021-08-05T11:00:59.422Z</time>
      </trkpt>
      <trkpt lat="46.98278" lon="8.71173">
        <ele>565</ele>
        <time>2021-08-05T11:01:00.422Z</time>
      </trkpt>
      <trkpt lat="46.98279" lon="8.71175">
        <ele>565</ele>
        <time>2021-08-05T11:01:01.422Z</time>
      </trkpt>
      <trkpt lat="46.98278" lon="8.71176">
        <ele>565</ele>
        <time>2021-08-05T11:01:02.421Z</time>
      </trkpt>
      <trkpt lat="46.98278" lon="8.71178">
        <ele>565</ele>
        <time>2021-08-05T11:01:03.422Z</time>
      </trkpt>
      <trkpt lat="46.98278" lon="8.7118">
        <ele>565</ele>
        <time>2021-08-05T11:01:04.422Z</time>
      </trkpt>
      <trkpt lat="46.98278" lon="8.71182">
        <ele>565</ele>
        <time>2021-08-05T11:01:05.421Z</time>
      </trkpt>
      <trkpt lat="46.98278" lon="8.71184">
        <ele>565</ele>
        <time>2021-08-05T11:01:06.422Z</time>
      </trkpt>
      <trkpt lat="46.98279" lon="8.71186">
        <ele>565</ele>
        <time>2021-08-05T11:01:07.421Z</time>
      </trkpt>
      <trkpt lat="46.98279" lon="8.71187">
        <ele>566</ele>
        <time>2021-08-05T11:01:08.421Z</time>
      </trkpt>
      <trkpt lat="46.9828" lon="8.71189">
        <ele>566</ele>
        <time>2021-08-05T11:01:09.422Z</time>
      </trkpt>
      <trkpt lat="46.9828" lon="8.7119">
        <ele>567</ele>
        <time>2021-08-05T11:01:10.421Z</time>
      </trkpt>
      <trkpt lat="46.98281" lon="8.71191">
        <ele>567</ele>
        <time>2021-08-05T11:01:11.421Z</time>
      </trkpt>
      <trkpt lat="46.98281" lon="8.71192">
        <ele>567</ele>
        <time>2021-08-05T11:01:12.422Z</time>
      </trkpt>
      <trkpt lat="46.98281" lon="8.71193">
        <ele>568</ele>
        <time>2021-08-05T11:01:13.422Z</time>
      </trkpt>
      <trkpt lat="46.98281" lon="8.71195">
        <ele>568</ele>
        <time>2021-08-05T11:01:14.422Z</time>
      </trkpt>
      <trkpt lat="46.98282" lon="8.71197">
        <ele>568</ele>
        <time>2021-08-05T11:01:15.422Z</time>
      </trkpt>
      <trkpt lat="46.98283" lon="8.71198">
        <ele>568</ele>
        <time>2021-08-05T11:01:16.422Z</time>
      </trkpt>
      <trkpt lat="46.98283" lon="8.712">
        <ele>568</ele>
        <time>2021-08-05T11:01:17.422Z</time>
      </trkpt>
      <trkpt lat="46.98283" lon="8.71201">
        <ele>568</ele>
        <time>2021-08-05T11:01:18.422Z</time>
      </trkpt>
      <trkpt lat="46.98283" lon="8.71201">
        <ele>568</ele>
        <time>2021-08-05T11:01:19.422Z</time>
      </trkpt>
      <trkpt lat="46.98283" lon="8.71202">
        <ele>568</ele>
        <time>2021-08-05T11:01:20.422Z</time>
      </trkpt>
      <trkpt lat="46.98284" lon="8.71201">
        <ele>568</ele>
        <time>2021-08-05T11:01:21.422Z</time>
      </trkpt>
      <trkpt lat="46.98284" lon="8.71201">
        <ele>569</ele>
        <time>2021-08-05T11:01:22.422Z</time>
      </trkpt>
      <trkpt lat="46.98283" lon="8.71201">
        <ele>569</ele>
        <time>2021-08-05T11:01:23.422Z</time>
      </trkpt>
      <trkpt lat="46.98282" lon="8.712">
        <ele>570</ele>
        <time>2021-08-05T11:01:24.421Z</time>
      </trkpt>
      <trkpt lat="46.98282" lon="8.712">
        <ele>571</ele>
        <time>2021-08-05T11:01:25.422Z</time>
      </trkpt>
      <trkpt lat="46.98281" lon="8.71201">
        <ele>571</ele>
        <time>2021-08-05T11:01:26.422Z</time>
      </trkpt>
      <trkpt lat="46.9828" lon="8.71202">
        <ele>572</ele>
        <time>2021-08-05T11:01:27.422Z</time>
      </trkpt>
      <trkpt lat="46.9828" lon="8.71204">
        <ele>573</ele>
        <time>2021-08-05T11:01:28.422Z</time>
      </trkpt>
      <trkpt lat="46.9828" lon="8.71206">
        <ele>574</ele>
        <time>2021-08-05T11:01:29.422Z</time>
      </trkpt>
      <trkpt lat="46.98279" lon="8.71208">
        <ele>575</ele>
        <time>2021-08-05T11:01:30.422Z</time>
      </trkpt>
      <trkpt lat="46.98279" lon="8.71208">
        <ele>576</ele>
        <time>2021-08-05T11:01:31.422Z</time>
      </trkpt>
      <trkpt lat="46.98278" lon="8.71209">
        <ele>576</ele>
        <time>2021-08-05T11:01:32.421Z</time>
      </trkpt>
      <trkpt lat="46.98277" lon="8.7121">
        <ele>577</ele>
        <time>2021-08-05T11:01:33.421Z</time>
      </trkpt>
      <trkpt lat="46.98276" lon="8.7121">
        <ele>577</ele>
        <time>2021-08-05T11:01:34.422Z</time>
      </trkpt>
      <trkpt lat="46.98276" lon="8.7121">
        <ele>578</ele>
        <time>2021-08-05T11:01:35.422Z</time>
      </trkpt>
      <trkpt lat="46.98275" lon="8.71211">
        <ele>578</ele>
        <time>2021-08-05T11:01:39.469Z</time>
      </trkpt>
      <trkpt lat="46.98275" lon="8.71211">
        <ele>578</ele>
        <time>2021-08-05T11:01:40.468Z</time>
      </trkpt>
      <trkpt lat="46.98274" lon="8.71212">
        <ele>578</ele>
        <time>2021-08-05T11:01:41.469Z</time>
      </trkpt>
      <trkpt lat="46.98273" lon="8.71213">
        <ele>579</ele>
        <time>2021-08-05T11:01:42.469Z</time>
      </trkpt>
      <trkpt lat="46.98273" lon="8.71215">
        <ele>579</ele>
        <time>2021-08-05T11:01:43.469Z</time>
      </trkpt>
      <trkpt lat="46.98272" lon="8.71216">
        <ele>580</ele>
        <time>2021-08-05T11:01:44.469Z</time>
      </trkpt>
      <trkpt lat="46.98272" lon="8.71216">
        <ele>582</ele>
        <time>2021-08-05T11:01:45.468Z</time>
      </trkpt>
      <trkpt lat="46.98272" lon="8.71218">
        <ele>583</ele>
        <time>2021-08-05T11:01:46.469Z</time>
      </trkpt>
      <trkpt lat="46.98272" lon="8.71219">
        <ele>585</ele>
        <time>2021-08-05T11:01:47.469Z</time>
      </trkpt>
      <trkpt lat="46.98272" lon="8.71221">
        <ele>586</ele>
        <time>2021-08-05T11:01:48.468Z</time>
      </trkpt>
      <trkpt lat="46.98272" lon="8.71222">
        <ele>588</ele>
        <time>2021-08-05T11:01:49.469Z</time>
      </trkpt>
      <trkpt lat="46.98272" lon="8.71223">
        <ele>589</ele>
        <time>2021-08-05T11:01:50.469Z</time>
      </trkpt>
      <trkpt lat="46.98272" lon="8.71224">
        <ele>590</ele>
        <time>2021-08-05T11:01:51.469Z</time>
      </trkpt>
      <trkpt lat="46.98271" lon="8.71225">
        <ele>590</ele>
        <time>2021-08-05T11:01:52.469Z</time>
      </trkpt>
      <trkpt lat="46.98271" lon="8.71225">
        <ele>591</ele>
        <time>2021-08-05T11:01:53.468Z</time>
      </trkpt>
      <trkpt lat="46.98271" lon="8.71223">
        <ele>592</ele>
        <time>2021-08-05T11:01:54.468Z</time>
      </trkpt>
      <trkpt lat="46.98273" lon="8.71224">
        <ele>592</ele>
        <time>2021-08-05T11:01:55.469Z</time>
      </trkpt>
      <trkpt lat="46.98275" lon="8.71227">
        <ele>592</ele>
        <time>2021-08-05T11:01:56.469Z</time>
      </trkpt>
      <trkpt lat="46.98276" lon="8.71229">
        <ele>592</ele>
        <time>2021-08-05T11:01:57.468Z</time>
      </trkpt>
      <trkpt lat="46.98277" lon="8.71225">
        <ele>594</ele>
        <time>2021-08-05T11:01:58.469Z</time>
      </trkpt>
      <trkpt lat="46.98278" lon="8.71228">
        <ele>594</ele>
        <time>2021-08-05T11:01:59.469Z</time>
      </trkpt>
      <trkpt lat="46.98278" lon="8.71229">
        <ele>594</ele>
        <time>2021-08-05T11:02:00.470Z</time>
      </trkpt>
      <trkpt lat="46.98279" lon="8.7123">
        <ele>594</ele>
        <time>2021-08-05T11:02:01.469Z</time>
      </trkpt>
      <trkpt lat="46.98279" lon="8.71231">
        <ele>594</ele>
        <time>2021-08-05T11:02:02.470Z</time>
      </trkpt>
      <trkpt lat="46.9828" lon="8.71232">
        <ele>594</ele>
        <time>2021-08-05T11:02:03.470Z</time>
      </trkpt>
      <trkpt lat="46.98281" lon="8.71232">
        <ele>593</ele>
        <time>2021-08-05T11:02:04.470Z</time>
      </trkpt>
      <trkpt lat="46.98282" lon="8.71232">
        <ele>593</ele>
        <time>2021-08-05T11:02:05.470Z</time>
      </trkpt>
      <trkpt lat="46.98282" lon="8.71232">
        <ele>593</ele>
        <time>2021-08-05T11:02:06.470Z</time>
      </trkpt>
      <trkpt lat="46.98282" lon="8.71233">
        <ele>593</ele>
        <time>2021-08-05T11:02:07.470Z</time>
      </trkpt>
      <trkpt lat="46.98283" lon="8.71233">
        <ele>593</ele>
        <time>2021-08-05T11:02:08.469Z</time>
      </trkpt>
      <trkpt lat="46.98284" lon="8.71233">
        <ele>592</ele>
        <time>2021-08-05T11:02:09.469Z</time>
      </trkpt>
      <trkpt lat="46.98285" lon="8.71233">
        <ele>592</ele>
        <time>2021-08-05T11:02:10.470Z</time>
      </trkpt>
      <trkpt lat="46.98286" lon="8.71233">
        <ele>592</ele>
        <time>2021-08-05T11:02:11.469Z</time>
      </trkpt>
      <trkpt lat="46.98287" lon="8.71234">
        <ele>592</ele>
        <time>2021-08-05T11:02:12.470Z</time>
      </trkpt>
      <trkpt lat="46.98288" lon="8.71233">
        <ele>591</ele>
        <time>2021-08-05T11:02:13.470Z</time>
      </trkpt>
      <trkpt lat="46.98288" lon="8.71233">
        <ele>592</ele>
        <time>2021-08-05T11:02:14.470Z</time>
      </trkpt>
      <trkpt lat="46.98288" lon="8.71233">
        <ele>592</ele>
        <time>2021-08-05T11:02:15.470Z</time>
      </trkpt>
      <trkpt lat="46.98288" lon="8.71232">
        <ele>592</ele>
        <time>2021-08-05T11:02:18.599Z</time>
      </trkpt>
      <trkpt lat="46.98286" lon="8.7123">
        <ele>592</ele>
        <time>2021-08-05T11:02:19.598Z</time>
      </trkpt>
      <trkpt lat="46.98284" lon="8.71228">
        <ele>593</ele>
        <time>2021-08-05T11:02:20.599Z</time>
      </trkpt>
      <trkpt lat="46.98284" lon="8.71227">
        <ele>593</ele>
        <time>2021-08-05T11:02:21.599Z</time>
      </trkpt>
      <trkpt lat="46.98284" lon="8.71227">
        <ele>593</ele>
        <time>2021-08-05T11:02:22.599Z</time>
      </trkpt>
      <trkpt lat="46.98282" lon="8.71227">
        <ele>590</ele>
        <time>2021-08-05T11:02:23.598Z</time>
      </trkpt>
      <trkpt lat="46.98283" lon="8.71229">
        <ele>585</ele>
        <time>2021-08-05T11:02:24.599Z</time>
      </trkpt>
      <trkpt lat="46.98283" lon="8.71232">
        <ele>585</ele>
        <time>2021-08-05T11:02:25.599Z</time>
      </trkpt>
      <trkpt lat="46.98283" lon="8.71234">
        <ele>585</ele>
        <time>2021-08-05T11:02:26.598Z</time>
      </trkpt>
      <trkpt lat="46.98283" lon="8.71235">
        <ele>584</ele>
        <time>2021-08-05T11:02:27.599Z</time>
      </trkpt>
      <trkpt lat="46.98283" lon="8.71237">
        <ele>584</ele>
        <time>2021-08-05T11:02:28.598Z</time>
      </trkpt>
      <trkpt lat="46.98283" lon="8.71238">
        <ele>584</ele>
        <time>2021-08-05T11:02:29.599Z</time>
      </trkpt>
      <trkpt lat="46.98284" lon="8.71239">
        <ele>583</ele>
        <time>2021-08-05T11:02:30.598Z</time>
      </trkpt>
      <trkpt lat="46.98284" lon="8.71241">
        <ele>583</ele>
        <time>2021-08-05T11:02:31.598Z</time>
      </trkpt>
      <trkpt lat="46.98285" lon="8.71242">
        <ele>582</ele>
        <time>2021-08-05T11:02:32.598Z</time>
      </trkpt>
      <trkpt lat="46.98285" lon="8.71242">
        <ele>582</ele>
        <time>2021-08-05T11:02:33.599Z</time>
      </trkpt>
      <trkpt lat="46.98285" lon="8.71244">
        <ele>581</ele>
        <time>2021-08-05T11:02:34.599Z</time>
      </trkpt>
      <trkpt lat="46.98285" lon="8.71245">
        <ele>581</ele>
        <time>2021-08-05T11:02:35.598Z</time>
      </trkpt>
      <trkpt lat="46.98285" lon="8.71247">
        <ele>581</ele>
        <time>2021-08-05T11:02:36.598Z</time>
      </trkpt>
      <trkpt lat="46.98285" lon="8.71248">
        <ele>580</ele>
        <time>2021-08-05T11:02:37.598Z</time>
      </trkpt>
      <trkpt lat="46.98285" lon="8.71249">
        <ele>580</ele>
        <time>2021-08-05T11:02:38.599Z</time>
      </trkpt>
      <trkpt lat="46.98284" lon="8.7125">
        <ele>579</ele>
        <time>2021-08-05T11:02:39.599Z</time>
      </trkpt>
      <trkpt lat="46.98284" lon="8.7125">
        <ele>579</ele>
        <time>2021-08-05T11:02:40.598Z</time>
      </trkpt>
      <trkpt lat="46.98283" lon="8.71251">
        <ele>579</ele>
        <time>2021-08-05T11:02:41.598Z</time>
      </trkpt>
      <trkpt lat="46.98282" lon="8.71253">
        <ele>578</ele>
        <time>2021-08-05T11:02:42.598Z</time>
      </trkpt>
      <trkpt lat="46.98282" lon="8.71254">
        <ele>578</ele>
        <time>2021-08-05T11:02:43.598Z</time>
      </trkpt>
      <trkpt lat="46.98281" lon="8.71256">
        <ele>578</ele>
        <time>2021-08-05T11:02:44.598Z</time>
      </trkpt>
      <trkpt lat="46.98281" lon="8.71258">
        <ele>578</ele>
        <time>2021-08-05T11:02:45.599Z</time>
      </trkpt>
      <trkpt lat="46.98281" lon="8.71259">
        <ele>578</ele>
        <time>2021-08-05T11:02:46.598Z</time>
      </trkpt>
      <trkpt lat="46.9828" lon="8.7126">
        <ele>578</ele>
        <time>2021-08-05T11:02:47.598Z</time>
      </trkpt>
      <trkpt lat="46.9828" lon="8.71261">
        <ele>577</ele>
        <time>2021-08-05T11:02:48.599Z</time>
      </trkpt>
      <trkpt lat="46.98279" lon="8.71261">
        <ele>577</ele>
        <time>2021-08-05T11:02:49.598Z</time>
      </trkpt>
      <trkpt lat="46.9828" lon="8.71262">
        <ele>576</ele>
        <time>2021-08-05T11:02:50.598Z</time>
      </trkpt>
      <trkpt lat="46.9828" lon="8.71262">
        <ele>576</ele>
        <time>2021-08-05T11:02:51.598Z</time>
      </trkpt>
      <trkpt lat="46.98281" lon="8.71263">
        <ele>576</ele>
        <time>2021-08-05T11:02:52.598Z</time>
      </trkpt>
      <trkpt lat="46.98281" lon="8.71264">
        <ele>576</ele>
        <time>2021-08-05T11:02:53.598Z</time>
      </trkpt>
      <trkpt lat="46.98281" lon="8.71266">
        <ele>576</ele>
        <time>2021-08-05T11:02:54.599Z</time>
      </trkpt>
      <trkpt lat="46.98281" lon="8.71267">
        <ele>576</ele>
        <time>2021-08-05T11:02:55.599Z</time>
      </trkpt>
      <trkpt lat="46.9828" lon="8.71268">
        <ele>576</ele>
        <time>2021-08-05T11:02:56.599Z</time>
      </trkpt>
      <trkpt lat="46.98279" lon="8.7127">
        <ele>576</ele>
        <time>2021-08-05T11:02:57.598Z</time>
      </trkpt>
      <trkpt lat="46.98279" lon="8.71271">
        <ele>576</ele>
        <time>2021-08-05T11:02:58.599Z</time>
      </trkpt>
      <trkpt lat="46.98278" lon="8.71273">
        <ele>576</ele>
        <time>2021-08-05T11:02:59.599Z</time>
      </trkpt>
      <trkpt lat="46.98278" lon="8.71274">
        <ele>576</ele>
        <time>2021-08-05T11:03:00.599Z</time>
      </trkpt>
      <trkpt lat="46.98277" lon="8.71275">
        <ele>576</ele>
        <time>2021-08-05T11:03:01.598Z</time>
      </trkpt>
      <trkpt lat="46.98277" lon="8.71276">
        <ele>577</ele>
        <time>2021-08-05T11:03:02.599Z</time>
      </trkpt>
      <trkpt lat="46.98277" lon="8.71277">
        <ele>577</ele>
        <time>2021-08-05T11:03:03.599Z</time>
      </trkpt>
      <trkpt lat="46.98276" lon="8.71278">
        <ele>578</ele>
        <time>2021-08-05T11:03:04.598Z</time>
      </trkpt>
      <trkpt lat="46.98276" lon="8.7128">
        <ele>578</ele>
        <time>2021-08-05T11:03:05.599Z</time>
      </trkpt>
      <trkpt lat="46.98276" lon="8.71282">
        <ele>579</ele>
        <time>2021-08-05T11:03:06.599Z</time>
      </trkpt>
      <trkpt lat="46.98276" lon="8.71284">
        <ele>580</ele>
        <time>2021-08-05T11:03:07.598Z</time>
      </trkpt>
      <trkpt lat="46.98276" lon="8.71285">
        <ele>580</ele>
        <time>2021-08-05T11:03:08.599Z</time>
      </trkpt>
      <trkpt lat="46.98276" lon="8.71286">
        <ele>580</ele>
        <time>2021-08-05T11:03:09.599Z</time>
      </trkpt>
      <trkpt lat="46.98275" lon="8.71288">
        <ele>581</ele>
        <time>2021-08-05T11:03:10.598Z</time>
      </trkpt>
      <trkpt lat="46.98274" lon="8.7129">
        <ele>581</ele>
        <time>2021-08-05T11:03:11.599Z</time>
      </trkpt>
      <trkpt lat="46.98272" lon="8.71292">
        <ele>581</ele>
        <time>2021-08-05T11:03:12.598Z</time>
      </trkpt>
      <trkpt lat="46.98271" lon="8.71294">
        <ele>581</ele>
        <time>2021-08-05T11:03:13.598Z</time>
      </trkpt>
      <trkpt lat="46.98271" lon="8.71296">
        <ele>581</ele>
        <time>2021-08-05T11:03:14.599Z</time>
      </trkpt>
      <trkpt lat="46.98271" lon="8.71298">
        <ele>581</ele>
        <time>2021-08-05T11:03:15.599Z</time>
      </trkpt>
      <trkpt lat="46.9827" lon="8.71299">
        <ele>581</ele>
        <time>2021-08-05T11:03:16.599Z</time>
      </trkpt>
      <trkpt lat="46.9827" lon="8.71301">
        <ele>581</ele>
        <time>2021-08-05T11:03:17.598Z</time>
      </trkpt>
      <trkpt lat="46.98269" lon="8.71303">
        <ele>580</ele>
        <time>2021-08-05T11:03:18.599Z</time>
      </trkpt>
      <trkpt lat="46.98268" lon="8.71305">
        <ele>580</ele>
        <time>2021-08-05T11:03:19.599Z</time>
      </trkpt>
      <trkpt lat="46.98268" lon="8.71306">
        <ele>580</ele>
        <time>2021-08-05T11:03:20.599Z</time>
      </trkpt>
      <trkpt lat="46.98267" lon="8.71308">
        <ele>579</ele>
        <time>2021-08-05T11:03:21.599Z</time>
      </trkpt>
      <trkpt lat="46.98266" lon="8.71308">
        <ele>579</ele>
        <time>2021-08-05T11:03:22.599Z</time>
      </trkpt>
      <trkpt lat="46.98265" lon="8.71309">
        <ele>579</ele>
        <time>2021-08-05T11:03:23.598Z</time>
      </trkpt>
      <trkpt lat="46.98264" lon="8.71311">
        <ele>578</ele>
        <time>2021-08-05T11:03:24.598Z</time>
      </trkpt>
      <trkpt lat="46.98264" lon="8.71312">
        <ele>578</ele>
        <time>2021-08-05T11:03:25.599Z</time>
      </trkpt>
      <trkpt lat="46.98263" lon="8.71314">
        <ele>578</ele>
        <time>2021-08-05T11:03:26.598Z</time>
      </trkpt>
      <trkpt lat="46.98262" lon="8.71315">
        <ele>578</ele>
        <time>2021-08-05T11:03:27.599Z</time>
      </trkpt>
      <trkpt lat="46.9826" lon="8.71317">
        <ele>578</ele>
        <time>2021-08-05T11:03:28.598Z</time>
      </trkpt>
      <trkpt lat="46.9826" lon="8.71319">
        <ele>578</ele>
        <time>2021-08-05T11:03:29.599Z</time>
      </trkpt>
      <trkpt lat="46.9826" lon="8.7132">
        <ele>579</ele>
        <time>2021-08-05T11:03:30.599Z</time>
      </trkpt>
      <trkpt lat="46.98259" lon="8.71321">
        <ele>579</ele>
        <time>2021-08-05T11:03:31.599Z</time>
      </trkpt>
      <trkpt lat="46.98259" lon="8.71321">
        <ele>579</ele>
        <time>2021-08-05T11:03:32.598Z</time>
      </trkpt>
      <trkpt lat="46.98257" lon="8.71322">
        <ele>579</ele>
        <time>2021-08-05T11:03:33.599Z</time>
      </trkpt>
      <trkpt lat="46.98256" lon="8.71322">
        <ele>579</ele>
        <time>2021-08-05T11:03:34.599Z</time>
      </trkpt>
      <trkpt lat="46.98255" lon="8.71323">
        <ele>579</ele>
        <time>2021-08-05T11:03:35.599Z</time>
      </trkpt>
      <trkpt lat="46.98254" lon="8.71323">
        <ele>579</ele>
        <time>2021-08-05T11:03:36.598Z</time>
      </trkpt>
      <trkpt lat="46.98254" lon="8.71324">
        <ele>579</ele>
        <time>2021-08-05T11:03:37.599Z</time>
      </trkpt>
      <trkpt lat="46.98253" lon="8.71324">
        <ele>579</ele>
        <time>2021-08-05T11:03:38.598Z</time>
      </trkpt>
      <trkpt lat="46.98253" lon="8.71325">
        <ele>579</ele>
        <time>2021-08-05T11:03:39.598Z</time>
      </trkpt>
      <trkpt lat="46.98252" lon="8.71325">
        <ele>579</ele>
        <time>2021-08-05T11:03:40.599Z</time>
      </trkpt>
      <trkpt lat="46.98251" lon="8.71326">
        <ele>579</ele>
        <time>2021-08-05T11:03:41.599Z</time>
      </trkpt>
      <trkpt lat="46.98251" lon="8.71327">
        <ele>579</ele>
        <time>2021-08-05T11:03:42.599Z</time>
      </trkpt>
      <trkpt lat="46.9825" lon="8.71328">
        <ele>579</ele>
        <time>2021-08-05T11:03:43.599Z</time>
      </trkpt>
      <trkpt lat="46.98249" lon="8.7133">
        <ele>579</ele>
        <time>2021-08-05T11:03:44.599Z</time>
      </trkpt>
      <trkpt lat="46.98248" lon="8.71332">
        <ele>579</ele>
        <time>2021-08-05T11:03:45.599Z</time>
      </trkpt>
      <trkpt lat="46.98247" lon="8.71333">
        <ele>580</ele>
        <time>2021-08-05T11:03:46.598Z</time>
      </trkpt>
      <trkpt lat="46.98246" lon="8.71334">
        <ele>580</ele>
        <time>2021-08-05T11:03:47.599Z</time>
      </trkpt>
      <trkpt lat="46.98245" lon="8.71336">
        <ele>580</ele>
        <time>2021-08-05T11:03:48.599Z</time>
      </trkpt>
      <trkpt lat="46.98245" lon="8.71338">
        <ele>581</ele>
        <time>2021-08-05T11:03:49.598Z</time>
      </trkpt>
      <trkpt lat="46.98245" lon="8.7134">
        <ele>581</ele>
        <time>2021-08-05T11:03:50.599Z</time>
      </trkpt>
      <trkpt lat="46.98245" lon="8.71341">
        <ele>581</ele>
        <time>2021-08-05T11:03:51.598Z</time>
      </trkpt>
      <trkpt lat="46.98244" lon="8.71343">
        <ele>582</ele>
        <time>2021-08-05T11:03:52.598Z</time>
      </trkpt>
      <trkpt lat="46.98243" lon="8.71345">
        <ele>582</ele>
        <time>2021-08-05T11:03:53.599Z</time>
      </trkpt>
      <trkpt lat="46.98243" lon="8.71346">
        <ele>582</ele>
        <time>2021-08-05T11:03:54.599Z</time>
      </trkpt>
      <trkpt lat="46.98242" lon="8.71348">
        <ele>583</ele>
        <time>2021-08-05T11:03:55.598Z</time>
      </trkpt>
      <trkpt lat="46.98242" lon="8.7135">
        <ele>583</ele>
        <time>2021-08-05T11:03:56.598Z</time>
      </trkpt>
      <trkpt lat="46.98241" lon="8.71351">
        <ele>583</ele>
        <time>2021-08-05T11:03:57.599Z</time>
      </trkpt>
      <trkpt lat="46.98241" lon="8.71352">
        <ele>584</ele>
        <time>2021-08-05T11:03:58.599Z</time>
      </trkpt>
      <trkpt lat="46.9824" lon="8.71353">
        <ele>584</ele>
        <time>2021-08-05T11:03:59.598Z</time>
      </trkpt>
      <trkpt lat="46.9824" lon="8.71355">
        <ele>584</ele>
        <time>2021-08-05T11:04:00.599Z</time>
      </trkpt>
      <trkpt lat="46.98239" lon="8.71356">
        <ele>584</ele>
        <time>2021-08-05T11:04:01.599Z</time>
      </trkpt>
      <trkpt lat="46.98239" lon="8.71357">
        <ele>584</ele>
        <time>2021-08-05T11:04:02.599Z</time>
      </trkpt>
      <trkpt lat="46.98238" lon="8.71359">
        <ele>584</ele>
        <time>2021-08-05T11:04:03.598Z</time>
      </trkpt>
      <trkpt lat="46.98237" lon="8.71361">
        <ele>584</ele>
        <time>2021-08-05T11:04:04.598Z</time>
      </trkpt>
      <trkpt lat="46.98236" lon="8.71362">
        <ele>584</ele>
        <time>2021-08-05T11:04:05.599Z</time>
      </trkpt>
      <trkpt lat="46.98235" lon="8.71364">
        <ele>584</ele>
        <time>2021-08-05T11:04:06.598Z</time>
      </trkpt>
      <trkpt lat="46.98234" lon="8.71367">
        <ele>584</ele>
        <time>2021-08-05T11:04:07.599Z</time>
      </trkpt>
      <trkpt lat="46.98234" lon="8.71369">
        <ele>583</ele>
        <time>2021-08-05T11:04:08.599Z</time>
      </trkpt>
      <trkpt lat="46.98234" lon="8.71371">
        <ele>584</ele>
        <time>2021-08-05T11:04:09.599Z</time>
      </trkpt>
      <trkpt lat="46.98234" lon="8.71374">
        <ele>584</ele>
        <time>2021-08-05T11:04:10.599Z</time>
      </trkpt>
      <trkpt lat="46.98232" lon="8.71376">
        <ele>584</ele>
        <time>2021-08-05T11:04:11.599Z</time>
      </trkpt>
      <trkpt lat="46.98231" lon="8.71378">
        <ele>584</ele>
        <time>2021-08-05T11:04:12.598Z</time>
      </trkpt>
      <trkpt lat="46.9823" lon="8.7138">
        <ele>584</ele>
        <time>2021-08-05T11:04:13.598Z</time>
      </trkpt>
      <trkpt lat="46.98229" lon="8.71382">
        <ele>584</ele>
        <time>2021-08-05T11:04:14.598Z</time>
      </trkpt>
      <trkpt lat="46.98228" lon="8.71384">
        <ele>584</ele>
        <time>2021-08-05T11:04:15.599Z</time>
      </trkpt>
      <trkpt lat="46.98228" lon="8.71386">
        <ele>585</ele>
        <time>2021-08-05T11:04:16.599Z</time>
      </trkpt>
      <trkpt lat="46.98228" lon="8.71388">
        <ele>585</ele>
        <time>2021-08-05T11:04:17.599Z</time>
      </trkpt>
      <trkpt lat="46.98227" lon="8.7139">
        <ele>585</ele>
        <time>2021-08-05T11:04:18.599Z</time>
      </trkpt>
      <trkpt lat="46.98226" lon="8.71392">
        <ele>586</ele>
        <time>2021-08-05T11:04:19.599Z</time>
      </trkpt>
      <trkpt lat="46.98224" lon="8.71393">
        <ele>586</ele>
        <time>2021-08-05T11:04:26.729Z</time>
      </trkpt>
      <trkpt lat="46.98223" lon="8.71394">
        <ele>586</ele>
        <time>2021-08-05T11:04:27.729Z</time>
      </trkpt>
      <trkpt lat="46.98222" lon="8.71396">
        <ele>585</ele>
        <time>2021-08-05T11:04:28.729Z</time>
      </trkpt>
      <trkpt lat="46.98221" lon="8.71399">
        <ele>585</ele>
        <time>2021-08-05T11:04:29.729Z</time>
      </trkpt>
      <trkpt lat="46.9822" lon="8.71401">
        <ele>585</ele>
        <time>2021-08-05T11:04:30.729Z</time>
      </trkpt>
      <trkpt lat="46.98219" lon="8.71403">
        <ele>585</ele>
        <time>2021-08-05T11:04:31.729Z</time>
      </trkpt>
      <trkpt lat="46.98218" lon="8.71404">
        <ele>585</ele>
        <time>2021-08-05T11:04:32.729Z</time>
      </trkpt>
      <trkpt lat="46.98217" lon="8.71406">
        <ele>585</ele>
        <time>2021-08-05T11:04:33.729Z</time>
      </trkpt>
      <trkpt lat="46.98216" lon="8.71407">
        <ele>585</ele>
        <time>2021-08-05T11:04:34.729Z</time>
      </trkpt>
      <trkpt lat="46.98216" lon="8.71408">
        <ele>585</ele>
        <time>2021-08-05T11:04:35.729Z</time>
      </trkpt>
      <trkpt lat="46.98215" lon="8.7141">
        <ele>585</ele>
        <time>2021-08-05T11:04:36.729Z</time>
      </trkpt>
      <trkpt lat="46.98214" lon="8.71411">
        <ele>585</ele>
        <time>2021-08-05T11:04:37.728Z</time>
      </trkpt>
      <trkpt lat="46.98213" lon="8.71413">
        <ele>585</ele>
        <time>2021-08-05T11:04:38.728Z</time>
      </trkpt>
      <trkpt lat="46.98212" lon="8.71414">
        <ele>585</ele>
        <time>2021-08-05T11:04:39.729Z</time>
      </trkpt>
      <trkpt lat="46.98212" lon="8.71416">
        <ele>586</ele>
        <time>2021-08-05T11:04:40.728Z</time>
      </trkpt>
      <trkpt lat="46.98211" lon="8.71418">
        <ele>586</ele>
        <time>2021-08-05T11:04:41.728Z</time>
      </trkpt>
      <trkpt lat="46.98211" lon="8.71421">
        <ele>586</ele>
        <time>2021-08-05T11:04:42.728Z</time>
      </trkpt>
      <trkpt lat="46.9821" lon="8.71422">
        <ele>586</ele>
        <time>2021-08-05T11:04:43.729Z</time>
      </trkpt>
      <trkpt lat="46.9821" lon="8.71424">
        <ele>587</ele>
        <time>2021-08-05T11:04:44.728Z</time>
      </trkpt>
      <trkpt lat="46.98209" lon="8.71426">
        <ele>587</ele>
        <time>2021-08-05T11:04:45.728Z</time>
      </trkpt>
      <trkpt lat="46.98208" lon="8.71427">
        <ele>587</ele>
        <time>2021-08-05T11:04:46.728Z</time>
      </trkpt>
      <trkpt lat="46.98208" lon="8.71429">
        <ele>587</ele>
        <time>2021-08-05T11:04:47.729Z</time>
      </trkpt>
      <trkpt lat="46.98207" lon="8.7143">
        <ele>587</ele>
        <time>2021-08-05T11:04:48.729Z</time>
      </trkpt>
      <trkpt lat="46.98206" lon="8.71432">
        <ele>587</ele>
        <time>2021-08-05T11:04:49.728Z</time>
      </trkpt>
      <trkpt lat="46.98206" lon="8.71433">
        <ele>587</ele>
        <time>2021-08-05T11:04:50.728Z</time>
      </trkpt>
      <trkpt lat="46.98205" lon="8.71434">
        <ele>587</ele>
        <time>2021-08-05T11:04:51.728Z</time>
      </trkpt>
      <trkpt lat="46.98204" lon="8.71435">
        <ele>587</ele>
        <time>2021-08-05T11:04:52.729Z</time>
      </trkpt>
      <trkpt lat="46.98203" lon="8.71436">
        <ele>586</ele>
        <time>2021-08-05T11:04:54.788Z</time>
      </trkpt>
      <trkpt lat="46.98203" lon="8.71437">
        <ele>586</ele>
        <time>2021-08-05T11:04:55.788Z</time>
      </trkpt>
      <trkpt lat="46.98202" lon="8.71439">
        <ele>586</ele>
        <time>2021-08-05T11:04:56.789Z</time>
      </trkpt>
      <trkpt lat="46.98201" lon="8.7144">
        <ele>586</ele>
        <time>2021-08-05T11:04:57.789Z</time>
      </trkpt>
      <trkpt lat="46.982" lon="8.71442">
        <ele>586</ele>
        <time>2021-08-05T11:04:58.789Z</time>
      </trkpt>
      <trkpt lat="46.982" lon="8.71443">
        <ele>586</ele>
        <time>2021-08-05T11:04:59.789Z</time>
      </trkpt>
      <trkpt lat="46.98199" lon="8.71445">
        <ele>587</ele>
        <time>2021-08-05T11:05:02.914Z</time>
      </trkpt>
      <trkpt lat="46.98198" lon="8.71446">
        <ele>587</ele>
        <time>2021-08-05T11:05:03.914Z</time>
      </trkpt>
      <trkpt lat="46.98197" lon="8.71448">
        <ele>587</ele>
        <time>2021-08-05T11:05:04.914Z</time>
      </trkpt>
      <trkpt lat="46.98197" lon="8.71449">
        <ele>587</ele>
        <time>2021-08-05T11:05:05.914Z</time>
      </trkpt>
      <trkpt lat="46.98196" lon="8.71451">
        <ele>587</ele>
        <time>2021-08-05T11:05:12.920Z</time>
      </trkpt>
      <trkpt lat="46.98195" lon="8.71453">
        <ele>587</ele>
        <time>2021-08-05T11:05:13.920Z</time>
      </trkpt>
      <trkpt lat="46.98194" lon="8.71455">
        <ele>587</ele>
        <time>2021-08-05T11:05:14.919Z</time>
      </trkpt>
      <trkpt lat="46.98194" lon="8.71456">
        <ele>587</ele>
        <time>2021-08-05T11:05:15.919Z</time>
      </trkpt>
      <trkpt lat="46.98193" lon="8.71458">
        <ele>587</ele>
        <time>2021-08-05T11:05:16.920Z</time>
      </trkpt>
      <trkpt lat="46.98192" lon="8.7146">
        <ele>587</ele>
        <time>2021-08-05T11:05:17.920Z</time>
      </trkpt>
      <trkpt lat="46.98191" lon="8.71461">
        <ele>588</ele>
        <time>2021-08-05T11:05:18.920Z</time>
      </trkpt>
      <trkpt lat="46.9819" lon="8.71463">
        <ele>588</ele>
        <time>2021-08-05T11:05:19.920Z</time>
      </trkpt>
      <trkpt lat="46.9819" lon="8.71464">
        <ele>588</ele>
        <time>2021-08-05T11:05:23.916Z</time>
      </trkpt>
      <trkpt lat="46.98189" lon="8.71466">
        <ele>589</ele>
        <time>2021-08-05T11:05:24.916Z</time>
      </trkpt>
      <trkpt lat="46.98188" lon="8.71469">
        <ele>589</ele>
        <time>2021-08-05T11:05:25.916Z</time>
      </trkpt>
      <trkpt lat="46.98187" lon="8.7147">
        <ele>589</ele>
        <time>2021-08-05T11:05:26.916Z</time>
      </trkpt>
      <trkpt lat="46.98186" lon="8.71472">
        <ele>590</ele>
        <time>2021-08-05T11:05:27.916Z</time>
      </trkpt>
      <trkpt lat="46.98186" lon="8.71473">
        <ele>590</ele>
        <time>2021-08-05T11:05:41.092Z</time>
      </trkpt>
      <trkpt lat="46.98185" lon="8.71475">
        <ele>591</ele>
        <time>2021-08-05T11:05:42.092Z</time>
      </trkpt>
      <trkpt lat="46.98184" lon="8.71476">
        <ele>591</ele>
        <time>2021-08-05T11:05:43.091Z</time>
      </trkpt>
      <trkpt lat="46.98183" lon="8.71478">
        <ele>591</ele>
        <time>2021-08-05T11:06:00.166Z</time>
      </trkpt>
      <trkpt lat="46.98182" lon="8.7148">
        <ele>591</ele>
        <time>2021-08-05T11:06:01.165Z</time>
      </trkpt>
      <trkpt lat="46.98181" lon="8.71481">
        <ele>591</ele>
        <time>2021-08-05T11:06:02.166Z</time>
      </trkpt>
      <trkpt lat="46.98181" lon="8.71483">
        <ele>591</ele>
        <time>2021-08-05T11:06:03.165Z</time>
      </trkpt>
      <trkpt lat="46.9818" lon="8.71484">
        <ele>591</ele>
        <time>2021-08-05T11:06:04.166Z</time>
      </trkpt>
      <trkpt lat="46.98179" lon="8.71485">
        <ele>591</ele>
        <time>2021-08-05T11:06:05.166Z</time>
      </trkpt>
      <trkpt lat="46.98178" lon="8.71487">
        <ele>591</ele>
        <time>2021-08-05T11:06:06.166Z</time>
      </trkpt>
      <trkpt lat="46.98178" lon="8.71489">
        <ele>591</ele>
        <time>2021-08-05T11:06:07.166Z</time>
      </trkpt>
      <trkpt lat="46.98177" lon="8.7149">
        <ele>591</ele>
        <time>2021-08-05T11:06:08.165Z</time>
      </trkpt>
      <trkpt lat="46.98176" lon="8.71491">
        <ele>591</ele>
        <time>2021-08-05T11:06:09.166Z</time>
      </trkpt>
      <trkpt lat="46.98175" lon="8.71493">
        <ele>591</ele>
        <time>2021-08-05T11:06:10.166Z</time>
      </trkpt>
      <trkpt lat="46.98174" lon="8.71494">
        <ele>592</ele>
        <time>2021-08-05T11:06:11.166Z</time>
      </trkpt>
      <trkpt lat="46.98173" lon="8.71495">
        <ele>592</ele>
        <time>2021-08-05T11:06:12.166Z</time>
      </trkpt>
      <trkpt lat="46.98172" lon="8.71497">
        <ele>592</ele>
        <time>2021-08-05T11:06:13.166Z</time>
      </trkpt>
      <trkpt lat="46.98172" lon="8.71498">
        <ele>592</ele>
        <time>2021-08-05T11:06:41.347Z</time>
      </trkpt>
      <trkpt lat="46.98171" lon="8.715">
        <ele>592</ele>
        <time>2021-08-05T11:06:42.346Z</time>
      </trkpt>
      <trkpt lat="46.98171" lon="8.71502">
        <ele>592</ele>
        <time>2021-08-05T11:06:43.347Z</time>
      </trkpt>
      <trkpt lat="46.9817" lon="8.71503">
        <ele>592</ele>
        <time>2021-08-05T11:06:44.346Z</time>
      </trkpt>
      <trkpt lat="46.98169" lon="8.71505">
        <ele>592</ele>
        <time>2021-08-05T11:06:45.346Z</time>
      </trkpt>
      <trkpt lat="46.98169" lon="8.71506">
        <ele>592</ele>
        <time>2021-08-05T11:06:46.347Z</time>
      </trkpt>
      <trkpt lat="46.98169" lon="8.71507">
        <ele>592</ele>
        <time>2021-08-05T11:06:47.346Z</time>
      </trkpt>
      <trkpt lat="46.98168" lon="8.71509">
        <ele>592</ele>
        <time>2021-08-05T11:06:51.448Z</time>
      </trkpt>
      <trkpt lat="46.98168" lon="8.71511">
        <ele>592</ele>
        <time>2021-08-05T11:06:52.449Z</time>
      </trkpt>
      <trkpt lat="46.98168" lon="8.71512">
        <ele>592</ele>
        <time>2021-08-05T11:06:53.448Z</time>
      </trkpt>
      <trkpt lat="46.98168" lon="8.71514">
        <ele>592</ele>
        <time>2021-08-05T11:06:59.314Z</time>
      </trkpt>
      <trkpt lat="46.98168" lon="8.71515">
        <ele>592</ele>
        <time>2021-08-05T11:07:01.160Z</time>
      </trkpt>
      <trkpt lat="46.98167" lon="8.71517">
        <ele>592</ele>
        <time>2021-08-05T11:07:02.161Z</time>
      </trkpt>
      <trkpt lat="46.98167" lon="8.71518">
        <ele>592</ele>
        <time>2021-08-05T11:07:03.161Z</time>
      </trkpt>
      <trkpt lat="46.98166" lon="8.71519">
        <ele>592</ele>
        <time>2021-08-05T11:07:04.160Z</time>
      </trkpt>
      <trkpt lat="46.98165" lon="8.71521">
        <ele>592</ele>
        <time>2021-08-05T11:07:05.161Z</time>
      </trkpt>
      <trkpt lat="46.98165" lon="8.71523">
        <ele>592</ele>
        <time>2021-08-05T11:07:07.162Z</time>
      </trkpt>
      <trkpt lat="46.98164" lon="8.71524">
        <ele>592</ele>
        <time>2021-08-05T11:07:08.161Z</time>
      </trkpt>
      <trkpt lat="46.98163" lon="8.71526">
        <ele>591</ele>
        <time>2021-08-05T11:07:09.161Z</time>
      </trkpt>
      <trkpt lat="46.98162" lon="8.71527">
        <ele>591</ele>
        <time>2021-08-05T11:07:10.161Z</time>
      </trkpt>
      <trkpt lat="46.98161" lon="8.71529">
        <ele>591</ele>
        <time>2021-08-05T11:07:11.161Z</time>
      </trkpt>
      <trkpt lat="46.9816" lon="8.71532">
        <ele>590</ele>
        <time>2021-08-05T11:07:12.161Z</time>
      </trkpt>
      <trkpt lat="46.98159" lon="8.71534">
        <ele>590</ele>
        <time>2021-08-05T11:07:13.162Z</time>
      </trkpt>
      <trkpt lat="46.98158" lon="8.71536">
        <ele>590</ele>
        <time>2021-08-05T11:07:14.162Z</time>
      </trkpt>
      <trkpt lat="46.98157" lon="8.71539">
        <ele>589</ele>
        <time>2021-08-05T11:07:15.162Z</time>
      </trkpt>
      <trkpt lat="46.98157" lon="8.71542">
        <ele>589</ele>
        <time>2021-08-05T11:07:16.162Z</time>
      </trkpt>
      <trkpt lat="46.98156" lon="8.71544">
        <ele>589</ele>
        <time>2021-08-05T11:07:17.162Z</time>
      </trkpt>
      <trkpt lat="46.98155" lon="8.71546">
        <ele>588</ele>
        <time>2021-08-05T11:07:18.162Z</time>
      </trkpt>
      <trkpt lat="46.98154" lon="8.71547">
        <ele>588</ele>
        <time>2021-08-05T11:07:20.200Z</time>
      </trkpt>
      <trkpt lat="46.98153" lon="8.7155">
        <ele>587</ele>
        <time>2021-08-05T11:07:22.022Z</time>
      </trkpt>
      <trkpt lat="46.98152" lon="8.71552">
        <ele>587</ele>
        <time>2021-08-05T11:07:25.797Z</time>
      </trkpt>
      <trkpt lat="46.98151" lon="8.71554">
        <ele>586</ele>
        <time>2021-08-05T11:07:26.798Z</time>
      </trkpt>
      <trkpt lat="46.98151" lon="8.71556">
        <ele>585</ele>
        <time>2021-08-05T11:07:27.798Z</time>
      </trkpt>
      <trkpt lat="46.98151" lon="8.71557">
        <ele>585</ele>
        <time>2021-08-05T11:07:28.797Z</time>
      </trkpt>
      <trkpt lat="46.9815" lon="8.71558">
        <ele>585</ele>
        <time>2021-08-05T11:07:29.797Z</time>
      </trkpt>
      <trkpt lat="46.98149" lon="8.71559">
        <ele>584</ele>
        <time>2021-08-05T11:07:30.798Z</time>
      </trkpt>
      <trkpt lat="46.98148" lon="8.71561">
        <ele>584</ele>
        <time>2021-08-05T11:07:31.798Z</time>
      </trkpt>
      <trkpt lat="46.98146" lon="8.71564">
        <ele>584</ele>
        <time>2021-08-05T11:08:25.784Z</time>
      </trkpt>
      <trkpt lat="46.98146" lon="8.71567">
        <ele>584</ele>
        <time>2021-08-05T11:08:31.706Z</time>
      </trkpt>
      <trkpt lat="46.98146" lon="8.71568">
        <ele>584</ele>
        <time>2021-08-05T11:08:32.706Z</time>
      </trkpt>
      <trkpt lat="46.98145" lon="8.71569">
        <ele>584</ele>
        <time>2021-08-05T11:08:33.706Z</time>
      </trkpt>
      <trkpt lat="46.98145" lon="8.7157">
        <ele>584</ele>
        <time>2021-08-05T11:08:34.706Z</time>
      </trkpt>
      <trkpt lat="46.98145" lon="8.71572">
        <ele>584</ele>
        <time>2021-08-05T11:08:35.706Z</time>
      </trkpt>
      <trkpt lat="46.98144" lon="8.71574">
        <ele>584</ele>
        <time>2021-08-05T11:08:36.705Z</time>
      </trkpt>
      <trkpt lat="46.98144" lon="8.71575">
        <ele>585</ele>
        <time>2021-08-05T11:08:37.705Z</time>
      </trkpt>
      <trkpt lat="46.98143" lon="8.71577">
        <ele>585</ele>
        <time>2021-08-05T11:08:38.706Z</time>
      </trkpt>
      <trkpt lat="46.98142" lon="8.71578">
        <ele>585</ele>
        <time>2021-08-05T11:08:39.706Z</time>
      </trkpt>
      <trkpt lat="46.98142" lon="8.7158">
        <ele>585</ele>
        <time>2021-08-05T11:08:40.705Z</time>
      </trkpt>
      <trkpt lat="46.98141" lon="8.71582">
        <ele>585</ele>
        <time>2021-08-05T11:08:41.706Z</time>
      </trkpt>
      <trkpt lat="46.9814" lon="8.71584">
        <ele>585</ele>
        <time>2021-08-05T11:08:42.705Z</time>
      </trkpt>
      <trkpt lat="46.98139" lon="8.71586">
        <ele>586</ele>
        <time>2021-08-05T11:08:43.706Z</time>
      </trkpt>
      <trkpt lat="46.98139" lon="8.71587">
        <ele>586</ele>
        <time>2021-08-05T11:08:44.706Z</time>
      </trkpt>
      <trkpt lat="46.98137" lon="8.7159">
        <ele>586</ele>
        <time>2021-08-05T11:08:45.706Z</time>
      </trkpt>
      <trkpt lat="46.98136" lon="8.71592">
        <ele>586</ele>
        <time>2021-08-05T11:08:46.706Z</time>
      </trkpt>
      <trkpt lat="46.98135" lon="8.71593">
        <ele>586</ele>
        <time>2021-08-05T11:08:47.706Z</time>
      </trkpt>
      <trkpt lat="46.98135" lon="8.71595">
        <ele>586</ele>
        <time>2021-08-05T11:08:50.789Z</time>
      </trkpt>
      <trkpt lat="46.98135" lon="8.71599">
        <ele>586</ele>
        <time>2021-08-05T11:08:51.789Z</time>
      </trkpt>
      <trkpt lat="46.98134" lon="8.71602">
        <ele>586</ele>
        <time>2021-08-05T11:08:52.790Z</time>
      </trkpt>
      <trkpt lat="46.98134" lon="8.71603">
        <ele>587</ele>
        <time>2021-08-05T11:08:53.790Z</time>
      </trkpt>
      <trkpt lat="46.98135" lon="8.71604">
        <ele>587</ele>
        <time>2021-08-05T11:08:54.790Z</time>
      </trkpt>
      <trkpt lat="46.98135" lon="8.71605">
        <ele>587</ele>
        <time>2021-08-05T11:09:23.911Z</time>
      </trkpt>
      <trkpt lat="46.98136" lon="8.71608">
        <ele>587</ele>
        <time>2021-08-05T11:09:24.910Z</time>
      </trkpt>
      <trkpt lat="46.98136" lon="8.71609">
        <ele>587</ele>
        <time>2021-08-05T11:09:25.910Z</time>
      </trkpt>
      <trkpt lat="46.98135" lon="8.71611">
        <ele>587</ele>
        <time>2021-08-05T11:09:26.911Z</time>
      </trkpt>
      <trkpt lat="46.98135" lon="8.71613">
        <ele>587</ele>
        <time>2021-08-05T11:09:27.910Z</time>
      </trkpt>
      <trkpt lat="46.98135" lon="8.71615">
        <ele>587</ele>
        <time>2021-08-05T11:09:28.911Z</time>
      </trkpt>
      <trkpt lat="46.98135" lon="8.71616">
        <ele>586</ele>
        <time>2021-08-05T11:09:36.091Z</time>
      </trkpt>
      <trkpt lat="46.98135" lon="8.71618">
        <ele>586</ele>
        <time>2021-08-05T11:09:37.091Z</time>
      </trkpt>
      <trkpt lat="46.98135" lon="8.7162">
        <ele>586</ele>
        <time>2021-08-05T11:09:38.091Z</time>
      </trkpt>
      <trkpt lat="46.98136" lon="8.71622">
        <ele>586</ele>
        <time>2021-08-05T11:09:39.091Z</time>
      </trkpt>
      <trkpt lat="46.98136" lon="8.71624">
        <ele>586</ele>
        <time>2021-08-05T11:09:40.090Z</time>
      </trkpt>
      <trkpt lat="46.98136" lon="8.71626">
        <ele>585</ele>
        <time>2021-08-05T11:09:41.091Z</time>
      </trkpt>
      <trkpt lat="46.98136" lon="8.71627">
        <ele>585</ele>
        <time>2021-08-05T11:09:42.091Z</time>
      </trkpt>
      <trkpt lat="46.98136" lon="8.71629">
        <ele>585</ele>
        <time>2021-08-05T11:09:43.091Z</time>
      </trkpt>
      <trkpt lat="46.98136" lon="8.71631">
        <ele>584</ele>
        <time>2021-08-05T11:09:44.091Z</time>
      </trkpt>
      <trkpt lat="46.98136" lon="8.71632">
        <ele>584</ele>
        <time>2021-08-05T11:09:45.090Z</time>
      </trkpt>
      <trkpt lat="46.98135" lon="8.71633">
        <ele>584</ele>
        <time>2021-08-05T11:09:46.091Z</time>
      </trkpt>
      <trkpt lat="46.98134" lon="8.71633">
        <ele>584</ele>
        <time>2021-08-05T11:09:47.091Z</time>
      </trkpt>
      <trkpt lat="46.98133" lon="8.71633">
        <ele>584</ele>
        <time>2021-08-05T11:09:48.091Z</time>
      </trkpt>
      <trkpt lat="46.98132" lon="8.71635">
        <ele>584</ele>
        <time>2021-08-05T11:09:49.091Z</time>
      </trkpt>
      <trkpt lat="46.98132" lon="8.71636">
        <ele>583</ele>
        <time>2021-08-05T11:09:50.091Z</time>
      </trkpt>
      <trkpt lat="46.98131" lon="8.71637">
        <ele>583</ele>
        <time>2021-08-05T11:09:51.090Z</time>
      </trkpt>
      <trkpt lat="46.98131" lon="8.71638">
        <ele>583</ele>
        <time>2021-08-05T11:09:52.091Z</time>
      </trkpt>
      <trkpt lat="46.9813" lon="8.71638">
        <ele>583</ele>
        <time>2021-08-05T11:09:53.091Z</time>
      </trkpt>
      <trkpt lat="46.98128" lon="8.71638">
        <ele>583</ele>
        <time>2021-08-05T11:09:54.091Z</time>
      </trkpt>
      <trkpt lat="46.98127" lon="8.71638">
        <ele>582</ele>
        <time>2021-08-05T11:09:55.090Z</time>
      </trkpt>
      <trkpt lat="46.98126" lon="8.71638">
        <ele>582</ele>
        <time>2021-08-05T11:09:56.091Z</time>
      </trkpt>
      <trkpt lat="46.98126" lon="8.7164">
        <ele>582</ele>
        <time>2021-08-05T11:09:57.090Z</time>
      </trkpt>
      <trkpt lat="46.98126" lon="8.71641">
        <ele>583</ele>
        <time>2021-08-05T11:09:58.091Z</time>
      </trkpt>
      <trkpt lat="46.98125" lon="8.71643">
        <ele>583</ele>
        <time>2021-08-05T11:09:59.090Z</time>
      </trkpt>
      <trkpt lat="46.98125" lon="8.71645">
        <ele>583</ele>
        <time>2021-08-05T11:10:00.090Z</time>
      </trkpt>
      <trkpt lat="46.98125" lon="8.71647">
        <ele>583</ele>
        <time>2021-08-05T11:10:01.091Z</time>
      </trkpt>
      <trkpt lat="46.98125" lon="8.71649">
        <ele>583</ele>
        <time>2021-08-05T11:10:02.090Z</time>
      </trkpt>
      <trkpt lat="46.98125" lon="8.71652">
        <ele>584</ele>
        <time>2021-08-05T11:10:03.090Z</time>
      </trkpt>
      <trkpt lat="46.98125" lon="8.71654">
        <ele>584</ele>
        <time>2021-08-05T11:10:04.091Z</time>
      </trkpt>
      <trkpt lat="46.98125" lon="8.71656">
        <ele>584</ele>
        <time>2021-08-05T11:10:05.091Z</time>
      </trkpt>
      <trkpt lat="46.98124" lon="8.71658">
        <ele>584</ele>
        <time>2021-08-05T11:10:06.090Z</time>
      </trkpt>
      <trkpt lat="46.98125" lon="8.7166">
        <ele>584</ele>
        <time>2021-08-05T11:10:07.090Z</time>
      </trkpt>
      <trkpt lat="46.98126" lon="8.71661">
        <ele>584</ele>
        <time>2021-08-05T11:10:08.090Z</time>
      </trkpt>
      <trkpt lat="46.98127" lon="8.71661">
        <ele>584</ele>
        <time>2021-08-05T11:10:09.090Z</time>
      </trkpt>
      <trkpt lat="46.98127" lon="8.71662">
        <ele>584</ele>
        <time>2021-08-05T11:10:10.090Z</time>
      </trkpt>
      <trkpt lat="46.98128" lon="8.71664">
        <ele>584</ele>
        <time>2021-08-05T11:10:11.090Z</time>
      </trkpt>
      <trkpt lat="46.98128" lon="8.71666">
        <ele>584</ele>
        <time>2021-08-05T11:10:12.091Z</time>
      </trkpt>
      <trkpt lat="46.98128" lon="8.71668">
        <ele>584</ele>
        <time>2021-08-05T11:10:13.091Z</time>
      </trkpt>
      <trkpt lat="46.98128" lon="8.7167">
        <ele>585</ele>
        <time>2021-08-05T11:10:14.090Z</time>
      </trkpt>
      <trkpt lat="46.98127" lon="8.71672">
        <ele>585</ele>
        <time>2021-08-05T11:10:15.090Z</time>
      </trkpt>
      <trkpt lat="46.98128" lon="8.71674">
        <ele>585</ele>
        <time>2021-08-05T11:10:16.091Z</time>
      </trkpt>
      <trkpt lat="46.98128" lon="8.71675">
        <ele>585</ele>
        <time>2021-08-05T11:10:17.090Z</time>
      </trkpt>
      <trkpt lat="46.98127" lon="8.71677">
        <ele>585</ele>
        <time>2021-08-05T11:10:18.090Z</time>
      </trkpt>
      <trkpt lat="46.98127" lon="8.71679">
        <ele>584</ele>
        <time>2021-08-05T11:10:19.090Z</time>
      </trkpt>
      <trkpt lat="46.98126" lon="8.71682">
        <ele>584</ele>
        <time>2021-08-05T11:10:20.090Z</time>
      </trkpt>
      <trkpt lat="46.98124" lon="8.71685">
        <ele>584</ele>
        <time>2021-08-05T11:10:21.090Z</time>
      </trkpt>
      <trkpt lat="46.98124" lon="8.71687">
        <ele>584</ele>
        <time>2021-08-05T11:10:22.090Z</time>
      </trkpt>
      <trkpt lat="46.98124" lon="8.71689">
        <ele>584</ele>
        <time>2021-08-05T11:10:23.090Z</time>
      </trkpt>
      <trkpt lat="46.98124" lon="8.7169">
        <ele>584</ele>
        <time>2021-08-05T11:10:24.090Z</time>
      </trkpt>
      <trkpt lat="46.98124" lon="8.71692">
        <ele>584</ele>
        <time>2021-08-05T11:10:25.090Z</time>
      </trkpt>
      <trkpt lat="46.98124" lon="8.71695">
        <ele>584</ele>
        <time>2021-08-05T11:10:26.090Z</time>
      </trkpt>
      <trkpt lat="46.98124" lon="8.71696">
        <ele>584</ele>
        <time>2021-08-05T11:10:27.090Z</time>
      </trkpt>
      <trkpt lat="46.98125" lon="8.71699">
        <ele>584</ele>
        <time>2021-08-05T11:10:28.090Z</time>
      </trkpt>
      <trkpt lat="46.98124" lon="8.71701">
        <ele>584</ele>
        <time>2021-08-05T11:10:29.090Z</time>
      </trkpt>
      <trkpt lat="46.98124" lon="8.71704">
        <ele>584</ele>
        <time>2021-08-05T11:10:30.091Z</time>
      </trkpt>
      <trkpt lat="46.98123" lon="8.71706">
        <ele>584</ele>
        <time>2021-08-05T11:10:31.090Z</time>
      </trkpt>
      <trkpt lat="46.98123" lon="8.71708">
        <ele>584</ele>
        <time>2021-08-05T11:10:32.091Z</time>
      </trkpt>
      <trkpt lat="46.98124" lon="8.7171">
        <ele>584</ele>
        <time>2021-08-05T11:10:33.091Z</time>
      </trkpt>
      <trkpt lat="46.98124" lon="8.71712">
        <ele>584</ele>
        <time>2021-08-05T11:10:34.091Z</time>
      </trkpt>
      <trkpt lat="46.98124" lon="8.71714">
        <ele>584</ele>
        <time>2021-08-05T11:10:35.091Z</time>
      </trkpt>
      <trkpt lat="46.98124" lon="8.71715">
        <ele>584</ele>
        <time>2021-08-05T11:10:36.090Z</time>
      </trkpt>
      <trkpt lat="46.98124" lon="8.71716">
        <ele>584</ele>
        <time>2021-08-05T11:10:37.091Z</time>
      </trkpt>
      <trkpt lat="46.98125" lon="8.71717">
        <ele>583</ele>
        <time>2021-08-05T11:10:38.090Z</time>
      </trkpt>
      <trkpt lat="46.98125" lon="8.71718">
        <ele>583</ele>
        <time>2021-08-05T11:10:39.091Z</time>
      </trkpt>
      <trkpt lat="46.98125" lon="8.71719">
        <ele>583</ele>
        <time>2021-08-05T11:10:40.091Z</time>
      </trkpt>
      <trkpt lat="46.98125" lon="8.7172">
        <ele>583</ele>
        <time>2021-08-05T11:10:41.090Z</time>
      </trkpt>
      <trkpt lat="46.98125" lon="8.7172">
        <ele>583</ele>
        <time>2021-08-05T11:10:42.090Z</time>
      </trkpt>
      <trkpt lat="46.98125" lon="8.71722">
        <ele>582</ele>
        <time>2021-08-05T11:10:43.091Z</time>
      </trkpt>
      <trkpt lat="46.98125" lon="8.71723">
        <ele>582</ele>
        <time>2021-08-05T11:10:44.090Z</time>
      </trkpt>
      <trkpt lat="46.98126" lon="8.71725">
        <ele>582</ele>
        <time>2021-08-05T11:10:45.091Z</time>
      </trkpt>
      <trkpt lat="46.98126" lon="8.71726">
        <ele>582</ele>
        <time>2021-08-05T11:10:46.090Z</time>
      </trkpt>
      <trkpt lat="46.98127" lon="8.71728">
        <ele>581</ele>
        <time>2021-08-05T11:10:47.090Z</time>
      </trkpt>
      <trkpt lat="46.98128" lon="8.7173">
        <ele>581</ele>
        <time>2021-08-05T11:10:48.090Z</time>
      </trkpt>
      <trkpt lat="46.98129" lon="8.71731">
        <ele>581</ele>
        <time>2021-08-05T11:10:49.091Z</time>
      </trkpt>
      <trkpt lat="46.9813" lon="8.71732">
        <ele>581</ele>
        <time>2021-08-05T11:10:50.090Z</time>
      </trkpt>
      <trkpt lat="46.98131" lon="8.71733">
        <ele>581</ele>
        <time>2021-08-05T11:10:51.091Z</time>
      </trkpt>
      <trkpt lat="46.98133" lon="8.71733">
        <ele>581</ele>
        <time>2021-08-05T11:10:52.091Z</time>
      </trkpt>
      <trkpt lat="46.98134" lon="8.71734">
        <ele>581</ele>
        <time>2021-08-05T11:10:53.091Z</time>
      </trkpt>
      <trkpt lat="46.98135" lon="8.71735">
        <ele>582</ele>
        <time>2021-08-05T11:10:54.091Z</time>
      </trkpt>
      <trkpt lat="46.98136" lon="8.71736">
        <ele>582</ele>
        <time>2021-08-05T11:10:55.090Z</time>
      </trkpt>
      <trkpt lat="46.98138" lon="8.71737">
        <ele>582</ele>
        <time>2021-08-05T11:10:56.091Z</time>
      </trkpt>
      <trkpt lat="46.98139" lon="8.71737">
        <ele>583</ele>
        <time>2021-08-05T11:10:57.090Z</time>
      </trkpt>
      <trkpt lat="46.98141" lon="8.71737">
        <ele>583</ele>
        <time>2021-08-05T11:10:58.090Z</time>
      </trkpt>
      <trkpt lat="46.98142" lon="8.71738">
        <ele>584</ele>
        <time>2021-08-05T11:10:59.091Z</time>
      </trkpt>
      <trkpt lat="46.98143" lon="8.7174">
        <ele>584</ele>
        <time>2021-08-05T11:11:00.090Z</time>
      </trkpt>
      <trkpt lat="46.98143" lon="8.71741">
        <ele>584</ele>
        <time>2021-08-05T11:11:01.091Z</time>
      </trkpt>
      <trkpt lat="46.98144" lon="8.71742">
        <ele>585</ele>
        <time>2021-08-05T11:11:02.091Z</time>
      </trkpt>
      <trkpt lat="46.98145" lon="8.71743">
        <ele>585</ele>
        <time>2021-08-05T11:11:03.091Z</time>
      </trkpt>
      <trkpt lat="46.98146" lon="8.71743">
        <ele>585</ele>
        <time>2021-08-05T11:11:04.091Z</time>
      </trkpt>
      <trkpt lat="46.98147" lon="8.71744">
        <ele>585</ele>
        <time>2021-08-05T11:11:05.090Z</time>
      </trkpt>
      <trkpt lat="46.98148" lon="8.71745">
        <ele>586</ele>
        <time>2021-08-05T11:11:06.091Z</time>
      </trkpt>
      <trkpt lat="46.98149" lon="8.71746">
        <ele>586</ele>
        <time>2021-08-05T11:11:07.090Z</time>
      </trkpt>
      <trkpt lat="46.98151" lon="8.71747">
        <ele>586</ele>
        <time>2021-08-05T11:11:08.090Z</time>
      </trkpt>
      <trkpt lat="46.98152" lon="8.71748">
        <ele>586</ele>
        <time>2021-08-05T11:11:09.090Z</time>
      </trkpt>
      <trkpt lat="46.98153" lon="8.71749">
        <ele>587</ele>
        <time>2021-08-05T11:11:10.090Z</time>
      </trkpt>
      <trkpt lat="46.98153" lon="8.71751">
        <ele>587</ele>
        <time>2021-08-05T11:11:11.091Z</time>
      </trkpt>
      <trkpt lat="46.98155" lon="8.71752">
        <ele>587</ele>
        <time>2021-08-05T11:11:12.091Z</time>
      </trkpt>
      <trkpt lat="46.98154" lon="8.71755">
        <ele>587</ele>
        <time>2021-08-05T11:11:13.091Z</time>
      </trkpt>
      <trkpt lat="46.98154" lon="8.71757">
        <ele>587</ele>
        <time>2021-08-05T11:11:14.091Z</time>
      </trkpt>
      <trkpt lat="46.98155" lon="8.71758">
        <ele>587</ele>
        <time>2021-08-05T11:11:15.090Z</time>
      </trkpt>
      <trkpt lat="46.98155" lon="8.71759">
        <ele>588</ele>
        <time>2021-08-05T11:11:16.090Z</time>
      </trkpt>
      <trkpt lat="46.98156" lon="8.7176">
        <ele>588</ele>
        <time>2021-08-05T11:11:17.090Z</time>
      </trkpt>
      <trkpt lat="46.98158" lon="8.7176">
        <ele>588</ele>
        <time>2021-08-05T11:11:18.091Z</time>
      </trkpt>
      <trkpt lat="46.98159" lon="8.71761">
        <ele>588</ele>
        <time>2021-08-05T11:11:19.091Z</time>
      </trkpt>
      <trkpt lat="46.9816" lon="8.71762">
        <ele>588</ele>
        <time>2021-08-05T11:11:20.091Z</time>
      </trkpt>
      <trkpt lat="46.98161" lon="8.71764">
        <ele>587</ele>
        <time>2021-08-05T11:11:21.090Z</time>
      </trkpt>
      <trkpt lat="46.98161" lon="8.71766">
        <ele>587</ele>
        <time>2021-08-05T11:11:22.091Z</time>
      </trkpt>
      <trkpt lat="46.98162" lon="8.71767">
        <ele>587</ele>
        <time>2021-08-05T11:11:23.090Z</time>
      </trkpt>
      <trkpt lat="46.98162" lon="8.71769">
        <ele>587</ele>
        <time>2021-08-05T11:11:24.091Z</time>
      </trkpt>
      <trkpt lat="46.98163" lon="8.7177">
        <ele>586</ele>
        <time>2021-08-05T11:11:25.091Z</time>
      </trkpt>
      <trkpt lat="46.98164" lon="8.71772">
        <ele>586</ele>
        <time>2021-08-05T11:11:26.091Z</time>
      </trkpt>
      <trkpt lat="46.98164" lon="8.71774">
        <ele>586</ele>
        <time>2021-08-05T11:11:27.091Z</time>
      </trkpt>
      <trkpt lat="46.98164" lon="8.71777">
        <ele>586</ele>
        <time>2021-08-05T11:11:28.090Z</time>
      </trkpt>
      <trkpt lat="46.98165" lon="8.71779">
        <ele>585</ele>
        <time>2021-08-05T11:11:29.090Z</time>
      </trkpt>
      <trkpt lat="46.98166" lon="8.71781">
        <ele>585</ele>
        <time>2021-08-05T11:11:30.090Z</time>
      </trkpt>
      <trkpt lat="46.98166" lon="8.71783">
        <ele>585</ele>
        <time>2021-08-05T11:11:31.091Z</time>
      </trkpt>
      <trkpt lat="46.98166" lon="8.71785">
        <ele>585</ele>
        <time>2021-08-05T11:11:32.091Z</time>
      </trkpt>
      <trkpt lat="46.98168" lon="8.71787">
        <ele>585</ele>
        <time>2021-08-05T11:11:33.090Z</time>
      </trkpt>
      <trkpt lat="46.98169" lon="8.71786">
        <ele>585</ele>
        <time>2021-08-05T11:11:34.090Z</time>
      </trkpt>
      <trkpt lat="46.98171" lon="8.71789">
        <ele>584</ele>
        <time>2021-08-05T11:11:35.090Z</time>
      </trkpt>
      <trkpt lat="46.9817" lon="8.71792">
        <ele>584</ele>
        <time>2021-08-05T11:11:36.090Z</time>
      </trkpt>
      <trkpt lat="46.9817" lon="8.71795">
        <ele>584</ele>
        <time>2021-08-05T11:11:37.090Z</time>
      </trkpt>
      <trkpt lat="46.98168" lon="8.71797">
        <ele>584</ele>
        <time>2021-08-05T11:11:38.090Z</time>
      </trkpt>
      <trkpt lat="46.98168" lon="8.718">
        <ele>584</ele>
        <time>2021-08-05T11:11:39.090Z</time>
      </trkpt>
      <trkpt lat="46.98168" lon="8.71802">
        <ele>584</ele>
        <time>2021-08-05T11:11:40.091Z</time>
      </trkpt>
      <trkpt lat="46.98169" lon="8.71804">
        <ele>584</ele>
        <time>2021-08-05T11:11:41.090Z</time>
      </trkpt>
      <trkpt lat="46.98169" lon="8.71806">
        <ele>584</ele>
        <time>2021-08-05T11:11:42.090Z</time>
      </trkpt>
      <trkpt lat="46.98169" lon="8.71807">
        <ele>583</ele>
        <time>2021-08-05T11:11:43.090Z</time>
      </trkpt>
      <trkpt lat="46.98169" lon="8.71808">
        <ele>583</ele>
        <time>2021-08-05T11:11:44.090Z</time>
      </trkpt>
      <trkpt lat="46.98169" lon="8.7181">
        <ele>583</ele>
        <time>2021-08-05T11:11:45.090Z</time>
      </trkpt>
      <trkpt lat="46.98169" lon="8.71812">
        <ele>583</ele>
        <time>2021-08-05T11:11:46.090Z</time>
      </trkpt>
      <trkpt lat="46.98169" lon="8.71813">
        <ele>583</ele>
        <time>2021-08-05T11:11:47.090Z</time>
      </trkpt>
      <trkpt lat="46.98169" lon="8.71815">
        <ele>583</ele>
        <time>2021-08-05T11:11:48.090Z</time>
      </trkpt>
      <trkpt lat="46.98169" lon="8.71817">
        <ele>583</ele>
        <time>2021-08-05T11:11:49.090Z</time>
      </trkpt>
      <trkpt lat="46.98169" lon="8.7182">
        <ele>582</ele>
        <time>2021-08-05T11:11:50.090Z</time>
      </trkpt>
      <trkpt lat="46.98168" lon="8.71823">
        <ele>582</ele>
        <time>2021-08-05T11:11:51.090Z</time>
      </trkpt>
      <trkpt lat="46.98168" lon="8.71826">
        <ele>581</ele>
        <time>2021-08-05T11:11:52.090Z</time>
      </trkpt>
      <trkpt lat="46.98168" lon="8.71829">
        <ele>581</ele>
        <time>2021-08-05T11:11:53.090Z</time>
      </trkpt>
      <trkpt lat="46.98167" lon="8.71832">
        <ele>581</ele>
        <time>2021-08-05T11:11:54.090Z</time>
      </trkpt>
      <trkpt lat="46.98167" lon="8.71833">
        <ele>580</ele>
        <time>2021-08-05T11:11:55.090Z</time>
      </trkpt>
      <trkpt lat="46.98167" lon="8.71836">
        <ele>580</ele>
        <time>2021-08-05T11:11:56.090Z</time>
      </trkpt>
      <trkpt lat="46.98167" lon="8.71837">
        <ele>580</ele>
        <time>2021-08-05T11:11:57.090Z</time>
      </trkpt>
      <trkpt lat="46.98166" lon="8.71839">
        <ele>580</ele>
        <time>2021-08-05T11:11:58.090Z</time>
      </trkpt>
      <trkpt lat="46.98166" lon="8.71841">
        <ele>580</ele>
        <time>2021-08-05T11:11:59.090Z</time>
      </trkpt>
      <trkpt lat="46.98166" lon="8.71842">
        <ele>580</ele>
        <time>2021-08-05T11:12:00.091Z</time>
      </trkpt>
      <trkpt lat="46.98166" lon="8.71844">
        <ele>580</ele>
        <time>2021-08-05T11:12:01.090Z</time>
      </trkpt>
      <trkpt lat="46.98166" lon="8.71846">
        <ele>580</ele>
        <time>2021-08-05T11:12:02.091Z</time>
      </trkpt>
      <trkpt lat="46.98166" lon="8.71847">
        <ele>580</ele>
        <time>2021-08-05T11:12:03.091Z</time>
      </trkpt>
      <trkpt lat="46.98167" lon="8.71849">
        <ele>580</ele>
        <time>2021-08-05T11:12:04.091Z</time>
      </trkpt>
      <trkpt lat="46.98167" lon="8.71851">
        <ele>579</ele>
        <time>2021-08-05T11:12:05.090Z</time>
      </trkpt>
      <trkpt lat="46.98167" lon="8.71853">
        <ele>579</ele>
        <time>2021-08-05T11:12:06.091Z</time>
      </trkpt>
      <trkpt lat="46.98166" lon="8.71855">
        <ele>580</ele>
        <time>2021-08-05T11:12:07.091Z</time>
      </trkpt>
      <trkpt lat="46.98166" lon="8.71856">
        <ele>580</ele>
        <time>2021-08-05T11:12:08.091Z</time>
      </trkpt>
      <trkpt lat="46.98166" lon="8.71859">
        <ele>580</ele>
        <time>2021-08-05T11:12:09.091Z</time>
      </trkpt>
      <trkpt lat="46.98166" lon="8.71861">
        <ele>580</ele>
        <time>2021-08-05T11:12:10.091Z</time>
      </trkpt>
      <trkpt lat="46.98166" lon="8.71863">
        <ele>580</ele>
        <time>2021-08-05T11:12:11.091Z</time>
      </trkpt>
      <trkpt lat="46.98165" lon="8.71865">
        <ele>580</ele>
        <time>2021-08-05T11:12:12.091Z</time>
      </trkpt>
      <trkpt lat="46.98165" lon="8.71867">
        <ele>580</ele>
        <time>2021-08-05T11:12:13.091Z</time>
      </trkpt>
      <trkpt lat="46.98165" lon="8.71869">
        <ele>580</ele>
        <time>2021-08-05T11:12:14.091Z</time>
      </trkpt>
      <trkpt lat="46.98165" lon="8.71871">
        <ele>581</ele>
        <time>2021-08-05T11:12:15.091Z</time>
      </trkpt>
      <trkpt lat="46.98165" lon="8.71872">
        <ele>582</ele>
        <time>2021-08-05T11:12:16.090Z</time>
      </trkpt>
      <trkpt lat="46.98165" lon="8.71874">
        <ele>582</ele>
        <time>2021-08-05T11:12:17.090Z</time>
      </trkpt>
      <trkpt lat="46.98165" lon="8.71876">
        <ele>583</ele>
        <time>2021-08-05T11:12:18.091Z</time>
      </trkpt>
      <trkpt lat="46.98165" lon="8.71877">
        <ele>583</ele>
        <time>2021-08-05T11:12:19.090Z</time>
      </trkpt>
      <trkpt lat="46.98164" lon="8.71879">
        <ele>583</ele>
        <time>2021-08-05T11:12:20.090Z</time>
      </trkpt>
      <trkpt lat="46.98164" lon="8.7188">
        <ele>583</ele>
        <time>2021-08-05T11:12:21.091Z</time>
      </trkpt>
      <trkpt lat="46.98164" lon="8.71882">
        <ele>583</ele>
        <time>2021-08-05T11:12:22.091Z</time>
      </trkpt>
      <trkpt lat="46.98163" lon="8.71885">
        <ele>584</ele>
        <time>2021-08-05T11:12:23.090Z</time>
      </trkpt>
      <trkpt lat="46.98163" lon="8.71887">
        <ele>584</ele>
        <time>2021-08-05T11:12:24.091Z</time>
      </trkpt>
      <trkpt lat="46.98163" lon="8.71889">
        <ele>584</ele>
        <time>2021-08-05T11:12:25.091Z</time>
      </trkpt>
      <trkpt lat="46.98162" lon="8.71891">
        <ele>584</ele>
        <time>2021-08-05T11:12:26.091Z</time>
      </trkpt>
      <trkpt lat="46.98162" lon="8.71894">
        <ele>584</ele>
        <time>2021-08-05T11:12:27.090Z</time>
      </trkpt>
      <trkpt lat="46.98162" lon="8.71896">
        <ele>584</ele>
        <time>2021-08-05T11:12:28.090Z</time>
      </trkpt>
      <trkpt lat="46.98162" lon="8.71898">
        <ele>584</ele>
        <time>2021-08-05T11:12:29.091Z</time>
      </trkpt>
      <trkpt lat="46.98162" lon="8.719">
        <ele>584</ele>
        <time>2021-08-05T11:12:30.091Z</time>
      </trkpt>
      <trkpt lat="46.98162" lon="8.71902">
        <ele>584</ele>
        <time>2021-08-05T11:12:31.091Z</time>
      </trkpt>
      <trkpt lat="46.98161" lon="8.71904">
        <ele>585</ele>
        <time>2021-08-05T11:12:32.090Z</time>
      </trkpt>
      <trkpt lat="46.98161" lon="8.71906">
        <ele>585</ele>
        <time>2021-08-05T11:12:33.090Z</time>
      </trkpt>
      <trkpt lat="46.98161" lon="8.71908">
        <ele>585</ele>
        <time>2021-08-05T11:12:34.090Z</time>
      </trkpt>
      <trkpt lat="46.98161" lon="8.7191">
        <ele>586</ele>
        <time>2021-08-05T11:12:35.091Z</time>
      </trkpt>
      <trkpt lat="46.98161" lon="8.71912">
        <ele>586</ele>
        <time>2021-08-05T11:12:36.090Z</time>
      </trkpt>
      <trkpt lat="46.98161" lon="8.71913">
        <ele>586</ele>
        <time>2021-08-05T11:12:37.090Z</time>
      </trkpt>
      <trkpt lat="46.98161" lon="8.71916">
        <ele>587</ele>
        <time>2021-08-05T11:12:38.091Z</time>
      </trkpt>
      <trkpt lat="46.98161" lon="8.71917">
        <ele>587</ele>
        <time>2021-08-05T11:12:39.091Z</time>
      </trkpt>
      <trkpt lat="46.98161" lon="8.7192">
        <ele>587</ele>
        <time>2021-08-05T11:12:40.090Z</time>
      </trkpt>
      <trkpt lat="46.98161" lon="8.71922">
        <ele>588</ele>
        <time>2021-08-05T11:12:41.091Z</time>
      </trkpt>
      <trkpt lat="46.98161" lon="8.71924">
        <ele>588</ele>
        <time>2021-08-05T11:12:42.091Z</time>
      </trkpt>
      <trkpt lat="46.9816" lon="8.71927">
        <ele>589</ele>
        <time>2021-08-05T11:12:43.091Z</time>
      </trkpt>
      <trkpt lat="46.9816" lon="8.71928">
        <ele>589</ele>
        <time>2021-08-05T11:12:44.090Z</time>
      </trkpt>
      <trkpt lat="46.98161" lon="8.7193">
        <ele>589</ele>
        <time>2021-08-05T11:12:45.091Z</time>
      </trkpt>
      <trkpt lat="46.9816" lon="8.71932">
        <ele>589</ele>
        <time>2021-08-05T11:12:46.091Z</time>
      </trkpt>
      <trkpt lat="46.9816" lon="8.71934">
        <ele>589</ele>
        <time>2021-08-05T11:12:47.090Z</time>
      </trkpt>
      <trkpt lat="46.9816" lon="8.71936">
        <ele>589</ele>
        <time>2021-08-05T11:12:48.091Z</time>
      </trkpt>
      <trkpt lat="46.9816" lon="8.71939">
        <ele>589</ele>
        <time>2021-08-05T11:12:49.091Z</time>
      </trkpt>
      <trkpt lat="46.98161" lon="8.71942">
        <ele>589</ele>
        <time>2021-08-05T11:12:50.091Z</time>
      </trkpt>
      <trkpt lat="46.98161" lon="8.71944">
        <ele>589</ele>
        <time>2021-08-05T11:12:51.091Z</time>
      </trkpt>
      <trkpt lat="46.9816" lon="8.71946">
        <ele>590</ele>
        <time>2021-08-05T11:12:52.090Z</time>
      </trkpt>
      <trkpt lat="46.9816" lon="8.71947">
        <ele>590</ele>
        <time>2021-08-05T11:12:53.090Z</time>
      </trkpt>
      <trkpt lat="46.9816" lon="8.71949">
        <ele>591</ele>
        <time>2021-08-05T11:12:54.091Z</time>
      </trkpt>
      <trkpt lat="46.9816" lon="8.71951">
        <ele>591</ele>
        <time>2021-08-05T11:12:55.090Z</time>
      </trkpt>
      <trkpt lat="46.9816" lon="8.71952">
        <ele>591</ele>
        <time>2021-08-05T11:12:56.091Z</time>
      </trkpt>
      <trkpt lat="46.9816" lon="8.71953">
        <ele>591</ele>
        <time>2021-08-05T11:12:57.091Z</time>
      </trkpt>
      <trkpt lat="46.9816" lon="8.71955">
        <ele>592</ele>
        <time>2021-08-05T11:12:58.091Z</time>
      </trkpt>
      <trkpt lat="46.98161" lon="8.71957">
        <ele>592</ele>
        <time>2021-08-05T11:12:59.091Z</time>
      </trkpt>
      <trkpt lat="46.98161" lon="8.71959">
        <ele>593</ele>
        <time>2021-08-05T11:13:00.090Z</time>
      </trkpt>
      <trkpt lat="46.9816" lon="8.71961">
        <ele>593</ele>
        <time>2021-08-05T11:13:01.090Z</time>
      </trkpt>
      <trkpt lat="46.9816" lon="8.71963">
        <ele>593</ele>
        <time>2021-08-05T11:13:02.091Z</time>
      </trkpt>
      <trkpt lat="46.9816" lon="8.71965">
        <ele>593</ele>
        <time>2021-08-05T11:13:03.090Z</time>
      </trkpt>
      <trkpt lat="46.9816" lon="8.71967">
        <ele>593</ele>
        <time>2021-08-05T11:13:04.090Z</time>
      </trkpt>
      <trkpt lat="46.98161" lon="8.71968">
        <ele>593</ele>
        <time>2021-08-05T11:13:05.091Z</time>
      </trkpt>
      <trkpt lat="46.9816" lon="8.7197">
        <ele>593</ele>
        <time>2021-08-05T11:13:06.090Z</time>
      </trkpt>
      <trkpt lat="46.9816" lon="8.71972">
        <ele>593</ele>
        <time>2021-08-05T11:13:07.091Z</time>
      </trkpt>
      <trkpt lat="46.9816" lon="8.71975">
        <ele>593</ele>
        <time>2021-08-05T11:13:08.091Z</time>
      </trkpt>
      <trkpt lat="46.9816" lon="8.71977">
        <ele>593</ele>
        <time>2021-08-05T11:13:09.091Z</time>
      </trkpt>
      <trkpt lat="46.9816" lon="8.7198">
        <ele>593</ele>
        <time>2021-08-05T11:13:10.091Z</time>
      </trkpt>
      <trkpt lat="46.9816" lon="8.71982">
        <ele>594</ele>
        <time>2021-08-05T11:13:11.090Z</time>
      </trkpt>
      <trkpt lat="46.9816" lon="8.71986">
        <ele>594</ele>
        <time>2021-08-05T11:13:12.090Z</time>
      </trkpt>
      <trkpt lat="46.9816" lon="8.71989">
        <ele>594</ele>
        <time>2021-08-05T11:13:13.090Z</time>
      </trkpt>
      <trkpt lat="46.9816" lon="8.71993">
        <ele>594</ele>
        <time>2021-08-05T11:13:14.091Z</time>
      </trkpt>
      <trkpt lat="46.9816" lon="8.71996">
        <ele>594</ele>
        <time>2021-08-05T11:13:15.090Z</time>
      </trkpt>
      <trkpt lat="46.9816" lon="8.71998">
        <ele>594</ele>
        <time>2021-08-05T11:13:16.090Z</time>
      </trkpt>
      <trkpt lat="46.9816" lon="8.72">
        <ele>594</ele>
        <time>2021-08-05T11:13:17.091Z</time>
      </trkpt>
      <trkpt lat="46.9816" lon="8.72002">
        <ele>593</ele>
        <time>2021-08-05T11:13:18.091Z</time>
      </trkpt>
      <trkpt lat="46.9816" lon="8.72004">
        <ele>593</ele>
        <time>2021-08-05T11:13:19.091Z</time>
      </trkpt>
      <trkpt lat="46.9816" lon="8.72005">
        <ele>593</ele>
        <time>2021-08-05T11:13:20.091Z</time>
      </trkpt>
      <trkpt lat="46.9816" lon="8.72008">
        <ele>593</ele>
        <time>2021-08-05T11:13:21.090Z</time>
      </trkpt>
      <trkpt lat="46.9816" lon="8.72009">
        <ele>592</ele>
        <time>2021-08-05T11:13:22.091Z</time>
      </trkpt>
      <trkpt lat="46.9816" lon="8.72011">
        <ele>592</ele>
        <time>2021-08-05T11:13:23.090Z</time>
      </trkpt>
      <trkpt lat="46.9816" lon="8.72012">
        <ele>592</ele>
        <time>2021-08-05T11:13:24.091Z</time>
      </trkpt>
      <trkpt lat="46.9816" lon="8.72013">
        <ele>592</ele>
        <time>2021-08-05T11:13:25.091Z</time>
      </trkpt>
      <trkpt lat="46.9816" lon="8.72014">
        <ele>592</ele>
        <time>2021-08-05T11:13:26.091Z</time>
      </trkpt>
      <trkpt lat="46.9816" lon="8.72015">
        <ele>592</ele>
        <time>2021-08-05T11:13:27.091Z</time>
      </trkpt>
      <trkpt lat="46.9816" lon="8.72017">
        <ele>592</ele>
        <time>2021-08-05T11:13:28.090Z</time>
      </trkpt>
      <trkpt lat="46.9816" lon="8.72019">
        <ele>592</ele>
        <time>2021-08-05T11:13:29.091Z</time>
      </trkpt>
      <trkpt lat="46.9816" lon="8.72021">
        <ele>592</ele>
        <time>2021-08-05T11:13:30.091Z</time>
      </trkpt>
      <trkpt lat="46.9816" lon="8.72023">
        <ele>592</ele>
        <time>2021-08-05T11:13:31.090Z</time>
      </trkpt>
      <trkpt lat="46.9816" lon="8.72025">
        <ele>592</ele>
        <time>2021-08-05T11:13:32.091Z</time>
      </trkpt>
      <trkpt lat="46.9816" lon="8.72026">
        <ele>592</ele>
        <time>2021-08-05T11:13:33.090Z</time>
      </trkpt>
      <trkpt lat="46.9816" lon="8.72028">
        <ele>592</ele>
        <time>2021-08-05T11:13:34.091Z</time>
      </trkpt>
      <trkpt lat="46.98159" lon="8.7203">
        <ele>593</ele>
        <time>2021-08-05T11:13:35.091Z</time>
      </trkpt>
      <trkpt lat="46.98159" lon="8.72033">
        <ele>593</ele>
        <time>2021-08-05T11:13:36.091Z</time>
      </trkpt>
      <trkpt lat="46.98159" lon="8.72034">
        <ele>593</ele>
        <time>2021-08-05T11:13:37.091Z</time>
      </trkpt>
      <trkpt lat="46.98158" lon="8.72036">
        <ele>594</ele>
        <time>2021-08-05T11:13:38.091Z</time>
      </trkpt>
      <trkpt lat="46.98158" lon="8.72038">
        <ele>594</ele>
        <time>2021-08-05T11:13:39.091Z</time>
      </trkpt>
      <trkpt lat="46.98158" lon="8.7204">
        <ele>594</ele>
        <time>2021-08-05T11:13:40.090Z</time>
      </trkpt>
      <trkpt lat="46.98158" lon="8.72042">
        <ele>595</ele>
        <time>2021-08-05T11:13:41.091Z</time>
      </trkpt>
      <trkpt lat="46.98158" lon="8.72044">
        <ele>595</ele>
        <time>2021-08-05T11:13:42.091Z</time>
      </trkpt>
      <trkpt lat="46.98158" lon="8.72046">
        <ele>595</ele>
        <time>2021-08-05T11:13:43.090Z</time>
      </trkpt>
      <trkpt lat="46.98158" lon="8.72048">
        <ele>596</ele>
        <time>2021-08-05T11:13:44.091Z</time>
      </trkpt>
      <trkpt lat="46.98158" lon="8.7205">
        <ele>596</ele>
        <time>2021-08-05T11:13:45.091Z</time>
      </trkpt>
      <trkpt lat="46.98158" lon="8.72051">
        <ele>596</ele>
        <time>2021-08-05T11:13:46.090Z</time>
      </trkpt>
      <trkpt lat="46.98157" lon="8.72053">
        <ele>595</ele>
        <time>2021-08-05T11:13:47.091Z</time>
      </trkpt>
      <trkpt lat="46.98158" lon="8.72054">
        <ele>595</ele>
        <time>2021-08-05T11:13:48.091Z</time>
      </trkpt>
      <trkpt lat="46.98158" lon="8.72056">
        <ele>594</ele>
        <time>2021-08-05T11:13:49.090Z</time>
      </trkpt>
      <trkpt lat="46.98158" lon="8.72057">
        <ele>594</ele>
        <time>2021-08-05T11:13:50.091Z</time>
      </trkpt>
      <trkpt lat="46.98158" lon="8.72059">
        <ele>594</ele>
        <time>2021-08-05T11:13:51.090Z</time>
      </trkpt>
      <trkpt lat="46.98159" lon="8.7206">
        <ele>593</ele>
        <time>2021-08-05T11:13:52.091Z</time>
      </trkpt>
      <trkpt lat="46.98159" lon="8.72061">
        <ele>593</ele>
        <time>2021-08-05T11:13:53.091Z</time>
      </trkpt>
      <trkpt lat="46.98159" lon="8.72063">
        <ele>593</ele>
        <time>2021-08-05T11:13:54.091Z</time>
      </trkpt>
      <trkpt lat="46.98159" lon="8.72065">
        <ele>592</ele>
        <time>2021-08-05T11:13:55.090Z</time>
      </trkpt>
      <trkpt lat="46.98159" lon="8.72066">
        <ele>591</ele>
        <time>2021-08-05T11:13:56.091Z</time>
      </trkpt>
      <trkpt lat="46.98159" lon="8.72068">
        <ele>591</ele>
        <time>2021-08-05T11:13:57.090Z</time>
      </trkpt>
      <trkpt lat="46.98159" lon="8.72069">
        <ele>590</ele>
        <time>2021-08-05T11:13:58.091Z</time>
      </trkpt>
      <trkpt lat="46.98159" lon="8.72071">
        <ele>590</ele>
        <time>2021-08-05T11:13:59.090Z</time>
      </trkpt>
      <trkpt lat="46.9816" lon="8.72072">
        <ele>590</ele>
        <time>2021-08-05T11:14:00.091Z</time>
      </trkpt>
      <trkpt lat="46.9816" lon="8.72074">
        <ele>590</ele>
        <time>2021-08-05T11:14:01.091Z</time>
      </trkpt>
      <trkpt lat="46.9816" lon="8.72076">
        <ele>590</ele>
        <time>2021-08-05T11:14:02.091Z</time>
      </trkpt>
      <trkpt lat="46.9816" lon="8.72077">
        <ele>589</ele>
        <time>2021-08-05T11:14:03.091Z</time>
      </trkpt>
      <trkpt lat="46.98161" lon="8.72079">
        <ele>588</ele>
        <time>2021-08-05T11:14:04.091Z</time>
      </trkpt>
      <trkpt lat="46.98161" lon="8.7208">
        <ele>587</ele>
        <time>2021-08-05T11:14:05.091Z</time>
      </trkpt>
      <trkpt lat="46.98161" lon="8.72083">
        <ele>588</ele>
        <time>2021-08-05T11:14:06.091Z</time>
      </trkpt>
      <trkpt lat="46.98162" lon="8.72084">
        <ele>588</ele>
        <time>2021-08-05T11:14:07.090Z</time>
      </trkpt>
      <trkpt lat="46.98162" lon="8.72086">
        <ele>588</ele>
        <time>2021-08-05T11:14:08.091Z</time>
      </trkpt>
      <trkpt lat="46.98163" lon="8.72087">
        <ele>588</ele>
        <time>2021-08-05T11:14:09.090Z</time>
      </trkpt>
      <trkpt lat="46.98163" lon="8.72089">
        <ele>588</ele>
        <time>2021-08-05T11:14:10.090Z</time>
      </trkpt>
      <trkpt lat="46.98163" lon="8.7209">
        <ele>589</ele>
        <time>2021-08-05T11:14:11.091Z</time>
      </trkpt>
      <trkpt lat="46.98164" lon="8.72091">
        <ele>589</ele>
        <time>2021-08-05T11:14:12.090Z</time>
      </trkpt>
      <trkpt lat="46.98164" lon="8.72093">
        <ele>589</ele>
        <time>2021-08-05T11:14:13.091Z</time>
      </trkpt>
      <trkpt lat="46.98165" lon="8.72095">
        <ele>589</ele>
        <time>2021-08-05T11:14:14.091Z</time>
      </trkpt>
      <trkpt lat="46.98165" lon="8.72097">
        <ele>588</ele>
        <time>2021-08-05T11:14:15.090Z</time>
      </trkpt>
      <trkpt lat="46.98165" lon="8.72099">
        <ele>588</ele>
        <time>2021-08-05T11:14:16.091Z</time>
      </trkpt>
      <trkpt lat="46.98166" lon="8.721">
        <ele>588</ele>
        <time>2021-08-05T11:14:17.091Z</time>
      </trkpt>
      <trkpt lat="46.98166" lon="8.72102">
        <ele>588</ele>
        <time>2021-08-05T11:14:18.091Z</time>
      </trkpt>
      <trkpt lat="46.98167" lon="8.72103">
        <ele>588</ele>
        <time>2021-08-05T11:14:19.090Z</time>
      </trkpt>
      <trkpt lat="46.98167" lon="8.72105">
        <ele>588</ele>
        <time>2021-08-05T11:14:20.091Z</time>
      </trkpt>
      <trkpt lat="46.98168" lon="8.72107">
        <ele>588</ele>
        <time>2021-08-05T11:14:21.091Z</time>
      </trkpt>
      <trkpt lat="46.98168" lon="8.72109">
        <ele>588</ele>
        <time>2021-08-05T11:14:22.091Z</time>
      </trkpt>
      <trkpt lat="46.98168" lon="8.72111">
        <ele>588</ele>
        <time>2021-08-05T11:14:23.091Z</time>
      </trkpt>
      <trkpt lat="46.98168" lon="8.72112">
        <ele>588</ele>
        <time>2021-08-05T11:14:24.091Z</time>
      </trkpt>
      <trkpt lat="46.98169" lon="8.72114">
        <ele>588</ele>
        <time>2021-08-05T11:14:25.091Z</time>
      </trkpt>
      <trkpt lat="46.98169" lon="8.72116">
        <ele>588</ele>
        <time>2021-08-05T11:14:26.091Z</time>
      </trkpt>
      <trkpt lat="46.98169" lon="8.72118">
        <ele>587</ele>
        <time>2021-08-05T11:14:36.177Z</time>
      </trkpt>
      <trkpt lat="46.98169" lon="8.7212">
        <ele>587</ele>
        <time>2021-08-05T11:14:37.177Z</time>
      </trkpt>
      <trkpt lat="46.9817" lon="8.72121">
        <ele>586</ele>
        <time>2021-08-05T11:14:38.177Z</time>
      </trkpt>
      <trkpt lat="46.9817" lon="8.72123">
        <ele>585</ele>
        <time>2021-08-05T11:14:39.177Z</time>
      </trkpt>
      <trkpt lat="46.98171" lon="8.72124">
        <ele>584</ele>
        <time>2021-08-05T11:14:40.177Z</time>
      </trkpt>
      <trkpt lat="46.98171" lon="8.72126">
        <ele>583</ele>
        <time>2021-08-05T11:14:41.176Z</time>
      </trkpt>
      <trkpt lat="46.98172" lon="8.72127">
        <ele>582</ele>
        <time>2021-08-05T11:14:42.177Z</time>
      </trkpt>
      <trkpt lat="46.98172" lon="8.72129">
        <ele>582</ele>
        <time>2021-08-05T11:14:43.177Z</time>
      </trkpt>
      <trkpt lat="46.98173" lon="8.72131">
        <ele>582</ele>
        <time>2021-08-05T11:14:44.177Z</time>
      </trkpt>
      <trkpt lat="46.98173" lon="8.72132">
        <ele>581</ele>
        <time>2021-08-05T11:14:45.177Z</time>
      </trkpt>
      <trkpt lat="46.98173" lon="8.72134">
        <ele>581</ele>
        <time>2021-08-05T11:14:46.176Z</time>
      </trkpt>
      <trkpt lat="46.98174" lon="8.72135">
        <ele>581</ele>
        <time>2021-08-05T11:14:47.176Z</time>
      </trkpt>
      <trkpt lat="46.98174" lon="8.72136">
        <ele>581</ele>
        <time>2021-08-05T11:14:48.177Z</time>
      </trkpt>
      <trkpt lat="46.98175" lon="8.72138">
        <ele>581</ele>
        <time>2021-08-05T11:14:49.177Z</time>
      </trkpt>
      <trkpt lat="46.98175" lon="8.72139">
        <ele>581</ele>
        <time>2021-08-05T11:14:50.177Z</time>
      </trkpt>
      <trkpt lat="46.98176" lon="8.72141">
        <ele>581</ele>
        <time>2021-08-05T11:14:51.177Z</time>
      </trkpt>
      <trkpt lat="46.98177" lon="8.72142">
        <ele>581</ele>
        <time>2021-08-05T11:14:52.177Z</time>
      </trkpt>
      <trkpt lat="46.98177" lon="8.72144">
        <ele>581</ele>
        <time>2021-08-05T11:14:53.177Z</time>
      </trkpt>
      <trkpt lat="46.98177" lon="8.72145">
        <ele>581</ele>
        <time>2021-08-05T11:14:54.177Z</time>
      </trkpt>
      <trkpt lat="46.98178" lon="8.72147">
        <ele>581</ele>
        <time>2021-08-05T11:14:55.177Z</time>
      </trkpt>
      <trkpt lat="46.98178" lon="8.72149">
        <ele>580</ele>
        <time>2021-08-05T11:14:56.177Z</time>
      </trkpt>
      <trkpt lat="46.98178" lon="8.7215">
        <ele>580</ele>
        <time>2021-08-05T11:14:57.176Z</time>
      </trkpt>
      <trkpt lat="46.98179" lon="8.72152">
        <ele>580</ele>
        <time>2021-08-05T11:14:58.177Z</time>
      </trkpt>
      <trkpt lat="46.98179" lon="8.72154">
        <ele>580</ele>
        <time>2021-08-05T11:14:59.177Z</time>
      </trkpt>
      <trkpt lat="46.98179" lon="8.72156">
        <ele>580</ele>
        <time>2021-08-05T11:15:00.177Z</time>
      </trkpt>
      <trkpt lat="46.9818" lon="8.72158">
        <ele>580</ele>
        <time>2021-08-05T11:15:01.177Z</time>
      </trkpt>
      <trkpt lat="46.9818" lon="8.7216">
        <ele>580</ele>
        <time>2021-08-05T11:15:02.177Z</time>
      </trkpt>
      <trkpt lat="46.9818" lon="8.72162">
        <ele>580</ele>
        <time>2021-08-05T11:15:03.177Z</time>
      </trkpt>
      <trkpt lat="46.9818" lon="8.72164">
        <ele>580</ele>
        <time>2021-08-05T11:15:04.177Z</time>
      </trkpt>
      <trkpt lat="46.98181" lon="8.72166">
        <ele>580</ele>
        <time>2021-08-05T11:15:05.177Z</time>
      </trkpt>
      <trkpt lat="46.98181" lon="8.72168">
        <ele>580</ele>
        <time>2021-08-05T11:15:06.177Z</time>
      </trkpt>
      <trkpt lat="46.98181" lon="8.7217">
        <ele>580</ele>
        <time>2021-08-05T11:15:07.177Z</time>
      </trkpt>
      <trkpt lat="46.98181" lon="8.72171">
        <ele>580</ele>
        <time>2021-08-05T11:15:08.177Z</time>
      </trkpt>
      <trkpt lat="46.98181" lon="8.72174">
        <ele>580</ele>
        <time>2021-08-05T11:15:09.177Z</time>
      </trkpt>
      <trkpt lat="46.98182" lon="8.72175">
        <ele>580</ele>
        <time>2021-08-05T11:15:10.177Z</time>
      </trkpt>
      <trkpt lat="46.98182" lon="8.72177">
        <ele>581</ele>
        <time>2021-08-05T11:15:11.177Z</time>
      </trkpt>
      <trkpt lat="46.98182" lon="8.72179">
        <ele>581</ele>
        <time>2021-08-05T11:15:12.177Z</time>
      </trkpt>
      <trkpt lat="46.98182" lon="8.72181">
        <ele>582</ele>
        <time>2021-08-05T11:15:13.177Z</time>
      </trkpt>
      <trkpt lat="46.98182" lon="8.72183">
        <ele>582</ele>
        <time>2021-08-05T11:15:14.176Z</time>
      </trkpt>
      <trkpt lat="46.98182" lon="8.72185">
        <ele>582</ele>
        <time>2021-08-05T11:15:15.177Z</time>
      </trkpt>
      <trkpt lat="46.98182" lon="8.72187">
        <ele>582</ele>
        <time>2021-08-05T11:15:16.176Z</time>
      </trkpt>
      <trkpt lat="46.98182" lon="8.72188">
        <ele>582</ele>
        <time>2021-08-05T11:15:17.176Z</time>
      </trkpt>
      <trkpt lat="46.98182" lon="8.7219">
        <ele>582</ele>
        <time>2021-08-05T11:15:18.177Z</time>
      </trkpt>
      <trkpt lat="46.98183" lon="8.72191">
        <ele>582</ele>
        <time>2021-08-05T11:15:19.177Z</time>
      </trkpt>
      <trkpt lat="46.98183" lon="8.72193">
        <ele>581</ele>
        <time>2021-08-05T11:15:20.177Z</time>
      </trkpt>
      <trkpt lat="46.98183" lon="8.72194">
        <ele>580</ele>
        <time>2021-08-05T11:15:21.177Z</time>
      </trkpt>
      <trkpt lat="46.98183" lon="8.72196">
        <ele>580</ele>
        <time>2021-08-05T11:15:22.176Z</time>
      </trkpt>
      <trkpt lat="46.98183" lon="8.72198">
        <ele>580</ele>
        <time>2021-08-05T11:15:23.176Z</time>
      </trkpt>
      <trkpt lat="46.98182" lon="8.72199">
        <ele>580</ele>
        <time>2021-08-05T11:15:24.176Z</time>
      </trkpt>
      <trkpt lat="46.98182" lon="8.72201">
        <ele>580</ele>
        <time>2021-08-05T11:15:25.176Z</time>
      </trkpt>
      <trkpt lat="46.98182" lon="8.72203">
        <ele>579</ele>
        <time>2021-08-05T11:15:26.177Z</time>
      </trkpt>
      <trkpt lat="46.98182" lon="8.72205">
        <ele>580</ele>
        <time>2021-08-05T11:15:27.177Z</time>
      </trkpt>
      <trkpt lat="46.98182" lon="8.72207">
        <ele>580</ele>
        <time>2021-08-05T11:15:28.176Z</time>
      </trkpt>
      <trkpt lat="46.98182" lon="8.72209">
        <ele>579</ele>
        <time>2021-08-05T11:15:29.176Z</time>
      </trkpt>
      <trkpt lat="46.98182" lon="8.72211">
        <ele>579</ele>
        <time>2021-08-05T11:15:30.176Z</time>
      </trkpt>
      <trkpt lat="46.98183" lon="8.72213">
        <ele>580</ele>
        <time>2021-08-05T11:15:31.176Z</time>
      </trkpt>
      <trkpt lat="46.98183" lon="8.72215">
        <ele>580</ele>
        <time>2021-08-05T11:15:32.177Z</time>
      </trkpt>
      <trkpt lat="46.98183" lon="8.72217">
        <ele>580</ele>
        <time>2021-08-05T11:15:33.177Z</time>
      </trkpt>
      <trkpt lat="46.98184" lon="8.72219">
        <ele>579</ele>
        <time>2021-08-05T11:15:34.176Z</time>
      </trkpt>
      <trkpt lat="46.98184" lon="8.7222">
        <ele>579</ele>
        <time>2021-08-05T11:15:35.177Z</time>
      </trkpt>
      <trkpt lat="46.98184" lon="8.72221">
        <ele>580</ele>
        <time>2021-08-05T11:15:36.177Z</time>
      </trkpt>
      <trkpt lat="46.98184" lon="8.72223">
        <ele>580</ele>
        <time>2021-08-05T11:15:37.176Z</time>
      </trkpt>
      <trkpt lat="46.98184" lon="8.72225">
        <ele>581</ele>
        <time>2021-08-05T11:15:38.177Z</time>
      </trkpt>
      <trkpt lat="46.98184" lon="8.72227">
        <ele>581</ele>
        <time>2021-08-05T11:15:39.176Z</time>
      </trkpt>
      <trkpt lat="46.98184" lon="8.72228">
        <ele>581</ele>
        <time>2021-08-05T11:15:40.176Z</time>
      </trkpt>
      <trkpt lat="46.98184" lon="8.7223">
        <ele>582</ele>
        <time>2021-08-05T11:15:41.177Z</time>
      </trkpt>
      <trkpt lat="46.98184" lon="8.72231">
        <ele>581</ele>
        <time>2021-08-05T11:15:42.177Z</time>
      </trkpt>
      <trkpt lat="46.98184" lon="8.72233">
        <ele>581</ele>
        <time>2021-08-05T11:15:43.177Z</time>
      </trkpt>
      <trkpt lat="46.98184" lon="8.72235">
        <ele>581</ele>
        <time>2021-08-05T11:15:44.176Z</time>
      </trkpt>
      <trkpt lat="46.98184" lon="8.72236">
        <ele>581</ele>
        <time>2021-08-05T11:15:45.177Z</time>
      </trkpt>
      <trkpt lat="46.98184" lon="8.72238">
        <ele>580</ele>
        <time>2021-08-05T11:15:46.177Z</time>
      </trkpt>
      <trkpt lat="46.98184" lon="8.7224">
        <ele>580</ele>
        <time>2021-08-05T11:15:47.176Z</time>
      </trkpt>
      <trkpt lat="46.98185" lon="8.72241">
        <ele>579</ele>
        <time>2021-08-05T11:15:48.177Z</time>
      </trkpt>
      <trkpt lat="46.98185" lon="8.72243">
        <ele>579</ele>
        <time>2021-08-05T11:15:49.177Z</time>
      </trkpt>
      <trkpt lat="46.98185" lon="8.72245">
        <ele>580</ele>
        <time>2021-08-05T11:15:50.177Z</time>
      </trkpt>
      <trkpt lat="46.98185" lon="8.72246">
        <ele>580</ele>
        <time>2021-08-05T11:15:51.177Z</time>
      </trkpt>
      <trkpt lat="46.98185" lon="8.72248">
        <ele>580</ele>
        <time>2021-08-05T11:15:52.177Z</time>
      </trkpt>
      <trkpt lat="46.98185" lon="8.7225">
        <ele>580</ele>
        <time>2021-08-05T11:15:53.176Z</time>
      </trkpt>
      <trkpt lat="46.98185" lon="8.72252">
        <ele>581</ele>
        <time>2021-08-05T11:15:54.177Z</time>
      </trkpt>
      <trkpt lat="46.98186" lon="8.72253">
        <ele>581</ele>
        <time>2021-08-05T11:15:55.177Z</time>
      </trkpt>
      <trkpt lat="46.98186" lon="8.72255">
        <ele>582</ele>
        <time>2021-08-05T11:15:56.177Z</time>
      </trkpt>
      <trkpt lat="46.98186" lon="8.72257">
        <ele>582</ele>
        <time>2021-08-05T11:15:57.176Z</time>
      </trkpt>
      <trkpt lat="46.98186" lon="8.72259">
        <ele>582</ele>
        <time>2021-08-05T11:15:58.176Z</time>
      </trkpt>
      <trkpt lat="46.98186" lon="8.72261">
        <ele>582</ele>
        <time>2021-08-05T11:15:59.177Z</time>
      </trkpt>
      <trkpt lat="46.98186" lon="8.72263">
        <ele>582</ele>
        <time>2021-08-05T11:16:00.176Z</time>
      </trkpt>
      <trkpt lat="46.98186" lon="8.72265">
        <ele>582</ele>
        <time>2021-08-05T11:16:01.177Z</time>
      </trkpt>
      <trkpt lat="46.98186" lon="8.72266">
        <ele>582</ele>
        <time>2021-08-05T11:16:02.176Z</time>
      </trkpt>
      <trkpt lat="46.98185" lon="8.72268">
        <ele>582</ele>
        <time>2021-08-05T11:16:03.176Z</time>
      </trkpt>
      <trkpt lat="46.98185" lon="8.7227">
        <ele>582</ele>
        <time>2021-08-05T11:16:04.177Z</time>
      </trkpt>
      <trkpt lat="46.98185" lon="8.72271">
        <ele>582</ele>
        <time>2021-08-05T11:16:05.176Z</time>
      </trkpt>
      <trkpt lat="46.98185" lon="8.72273">
        <ele>582</ele>
        <time>2021-08-05T11:16:06.177Z</time>
      </trkpt>
      <trkpt lat="46.98185" lon="8.72274">
        <ele>581</ele>
        <time>2021-08-05T11:16:07.177Z</time>
      </trkpt>
      <trkpt lat="46.98186" lon="8.72276">
        <ele>581</ele>
        <time>2021-08-05T11:16:08.177Z</time>
      </trkpt>
      <trkpt lat="46.98186" lon="8.72278">
        <ele>581</ele>
        <time>2021-08-05T11:16:09.177Z</time>
      </trkpt>
      <trkpt lat="46.98185" lon="8.72279">
        <ele>581</ele>
        <time>2021-08-05T11:16:10.177Z</time>
      </trkpt>
      <trkpt lat="46.98185" lon="8.72281">
        <ele>581</ele>
        <time>2021-08-05T11:16:11.176Z</time>
      </trkpt>
      <trkpt lat="46.98185" lon="8.72283">
        <ele>581</ele>
        <time>2021-08-05T11:16:12.177Z</time>
      </trkpt>
      <trkpt lat="46.98185" lon="8.72285">
        <ele>582</ele>
        <time>2021-08-05T11:16:13.177Z</time>
      </trkpt>
      <trkpt lat="46.98185" lon="8.72287">
        <ele>582</ele>
        <time>2021-08-05T11:16:14.177Z</time>
      </trkpt>
      <trkpt lat="46.98184" lon="8.72288">
        <ele>582</ele>
        <time>2021-08-05T11:16:15.177Z</time>
      </trkpt>
      <trkpt lat="46.98184" lon="8.7229">
        <ele>582</ele>
        <time>2021-08-05T11:16:16.177Z</time>
      </trkpt>
      <trkpt lat="46.98184" lon="8.72291">
        <ele>582</ele>
        <time>2021-08-05T11:16:17.176Z</time>
      </trkpt>
      <trkpt lat="46.98184" lon="8.72293">
        <ele>582</ele>
        <time>2021-08-05T11:16:18.177Z</time>
      </trkpt>
      <trkpt lat="46.98184" lon="8.72295">
        <ele>582</ele>
        <time>2021-08-05T11:16:19.176Z</time>
      </trkpt>
      <trkpt lat="46.98183" lon="8.72297">
        <ele>581</ele>
        <time>2021-08-05T11:16:20.177Z</time>
      </trkpt>
      <trkpt lat="46.98184" lon="8.72298">
        <ele>580</ele>
        <time>2021-08-05T11:16:21.177Z</time>
      </trkpt>
      <trkpt lat="46.98184" lon="8.723">
        <ele>579</ele>
        <time>2021-08-05T11:16:22.177Z</time>
      </trkpt>
      <trkpt lat="46.98184" lon="8.72302">
        <ele>579</ele>
        <time>2021-08-05T11:16:23.176Z</time>
      </trkpt>
      <trkpt lat="46.98184" lon="8.72304">
        <ele>579</ele>
        <time>2021-08-05T11:16:24.176Z</time>
      </trkpt>
      <trkpt lat="46.98184" lon="8.72307">
        <ele>579</ele>
        <time>2021-08-05T11:16:25.177Z</time>
      </trkpt>
      <trkpt lat="46.98184" lon="8.72309">
        <ele>578</ele>
        <time>2021-08-05T11:16:26.177Z</time>
      </trkpt>
      <trkpt lat="46.98184" lon="8.72311">
        <ele>578</ele>
        <time>2021-08-05T11:16:27.176Z</time>
      </trkpt>
      <trkpt lat="46.98184" lon="8.72313">
        <ele>578</ele>
        <time>2021-08-05T11:16:28.176Z</time>
      </trkpt>
      <trkpt lat="46.98184" lon="8.72314">
        <ele>578</ele>
        <time>2021-08-05T11:16:29.176Z</time>
      </trkpt>
      <trkpt lat="46.98184" lon="8.72316">
        <ele>578</ele>
        <time>2021-08-05T11:16:30.176Z</time>
      </trkpt>
      <trkpt lat="46.98184" lon="8.72318">
        <ele>578</ele>
        <time>2021-08-05T11:16:31.177Z</time>
      </trkpt>
      <trkpt lat="46.98184" lon="8.7232">
        <ele>579</ele>
        <time>2021-08-05T11:16:32.176Z</time>
      </trkpt>
      <trkpt lat="46.98185" lon="8.72322">
        <ele>579</ele>
        <time>2021-08-05T11:16:33.176Z</time>
      </trkpt>
      <trkpt lat="46.98185" lon="8.72324">
        <ele>579</ele>
        <time>2021-08-05T11:16:34.177Z</time>
      </trkpt>
      <trkpt lat="46.98185" lon="8.72326">
        <ele>579</ele>
        <time>2021-08-05T11:16:35.176Z</time>
      </trkpt>
      <trkpt lat="46.98185" lon="8.72328">
        <ele>580</ele>
        <time>2021-08-05T11:16:36.176Z</time>
      </trkpt>
      <trkpt lat="46.98185" lon="8.7233">
        <ele>580</ele>
        <time>2021-08-05T11:16:37.176Z</time>
      </trkpt>
      <trkpt lat="46.98186" lon="8.72332">
        <ele>580</ele>
        <time>2021-08-05T11:16:38.177Z</time>
      </trkpt>
      <trkpt lat="46.98186" lon="8.72335">
        <ele>581</ele>
        <time>2021-08-05T11:16:39.176Z</time>
      </trkpt>
      <trkpt lat="46.98186" lon="8.72337">
        <ele>581</ele>
        <time>2021-08-05T11:16:40.176Z</time>
      </trkpt>
      <trkpt lat="46.98186" lon="8.72339">
        <ele>581</ele>
        <time>2021-08-05T11:16:41.176Z</time>
      </trkpt>
      <trkpt lat="46.98186" lon="8.7234">
        <ele>580</ele>
        <time>2021-08-05T11:16:42.177Z</time>
      </trkpt>
      <trkpt lat="46.98186" lon="8.72342">
        <ele>580</ele>
        <time>2021-08-05T11:16:43.177Z</time>
      </trkpt>
      <trkpt lat="46.98186" lon="8.72344">
        <ele>580</ele>
        <time>2021-08-05T11:16:44.176Z</time>
      </trkpt>
      <trkpt lat="46.98186" lon="8.72346">
        <ele>580</ele>
        <time>2021-08-05T11:16:45.177Z</time>
      </trkpt>
      <trkpt lat="46.98186" lon="8.72348">
        <ele>580</ele>
        <time>2021-08-05T11:16:46.177Z</time>
      </trkpt>
      <trkpt lat="46.98186" lon="8.72349">
        <ele>580</ele>
        <time>2021-08-05T11:16:47.176Z</time>
      </trkpt>
      <trkpt lat="46.98185" lon="8.72351">
        <ele>580</ele>
        <time>2021-08-05T11:16:48.177Z</time>
      </trkpt>
      <trkpt lat="46.98185" lon="8.72354">
        <ele>579</ele>
        <time>2021-08-05T11:16:49.176Z</time>
      </trkpt>
      <trkpt lat="46.98185" lon="8.72356">
        <ele>579</ele>
        <time>2021-08-05T11:16:50.177Z</time>
      </trkpt>
      <trkpt lat="46.98185" lon="8.72358">
        <ele>579</ele>
        <time>2021-08-05T11:16:51.177Z</time>
      </trkpt>
      <trkpt lat="46.98185" lon="8.7236">
        <ele>580</ele>
        <time>2021-08-05T11:16:52.177Z</time>
      </trkpt>
      <trkpt lat="46.98185" lon="8.72363">
        <ele>580</ele>
        <time>2021-08-05T11:16:53.177Z</time>
      </trkpt>
      <trkpt lat="46.98185" lon="8.72365">
        <ele>580</ele>
        <time>2021-08-05T11:16:54.177Z</time>
      </trkpt>
      <trkpt lat="46.98185" lon="8.72367">
        <ele>580</ele>
        <time>2021-08-05T11:16:55.177Z</time>
      </trkpt>
      <trkpt lat="46.98185" lon="8.72368">
        <ele>580</ele>
        <time>2021-08-05T11:16:56.177Z</time>
      </trkpt>
      <trkpt lat="46.98184" lon="8.7237">
        <ele>580</ele>
        <time>2021-08-05T11:16:57.176Z</time>
      </trkpt>
      <trkpt lat="46.98184" lon="8.72372">
        <ele>580</ele>
        <time>2021-08-05T11:16:58.177Z</time>
      </trkpt>
      <trkpt lat="46.98184" lon="8.72374">
        <ele>580</ele>
        <time>2021-08-05T11:16:59.176Z</time>
      </trkpt>
      <trkpt lat="46.98184" lon="8.72376">
        <ele>580</ele>
        <time>2021-08-05T11:17:00.177Z</time>
      </trkpt>
      <trkpt lat="46.98183" lon="8.72378">
        <ele>580</ele>
        <time>2021-08-05T11:17:01.176Z</time>
      </trkpt>
      <trkpt lat="46.98183" lon="8.7238">
        <ele>580</ele>
        <time>2021-08-05T11:17:02.176Z</time>
      </trkpt>
      <trkpt lat="46.98183" lon="8.72382">
        <ele>580</ele>
        <time>2021-08-05T11:17:03.177Z</time>
      </trkpt>
      <trkpt lat="46.98182" lon="8.72384">
        <ele>580</ele>
        <time>2021-08-05T11:17:04.176Z</time>
      </trkpt>
      <trkpt lat="46.98182" lon="8.72386">
        <ele>581</ele>
        <time>2021-08-05T11:17:05.176Z</time>
      </trkpt>
      <trkpt lat="46.98182" lon="8.72388">
        <ele>580</ele>
        <time>2021-08-05T11:17:06.177Z</time>
      </trkpt>
      <trkpt lat="46.98182" lon="8.7239">
        <ele>580</ele>
        <time>2021-08-05T11:17:07.176Z</time>
      </trkpt>
      <trkpt lat="46.98182" lon="8.72392">
        <ele>580</ele>
        <time>2021-08-05T11:17:08.176Z</time>
      </trkpt>
      <trkpt lat="46.98182" lon="8.72394">
        <ele>581</ele>
        <time>2021-08-05T11:17:09.176Z</time>
      </trkpt>
      <trkpt lat="46.98182" lon="8.72396">
        <ele>581</ele>
        <time>2021-08-05T11:17:10.176Z</time>
      </trkpt>
      <trkpt lat="46.98182" lon="8.72398">
        <ele>582</ele>
        <time>2021-08-05T11:17:11.176Z</time>
      </trkpt>
      <trkpt lat="46.98182" lon="8.724">
        <ele>582</ele>
        <time>2021-08-05T11:17:12.176Z</time>
      </trkpt>
      <trkpt lat="46.98182" lon="8.72402">
        <ele>583</ele>
        <time>2021-08-05T11:17:13.176Z</time>
      </trkpt>
      <trkpt lat="46.98182" lon="8.72404">
        <ele>583</ele>
        <time>2021-08-05T11:17:14.177Z</time>
      </trkpt>
      <trkpt lat="46.98182" lon="8.72406">
        <ele>584</ele>
        <time>2021-08-05T11:17:15.176Z</time>
      </trkpt>
      <trkpt lat="46.98182" lon="8.72408">
        <ele>584</ele>
        <time>2021-08-05T11:17:16.177Z</time>
      </trkpt>
      <trkpt lat="46.98182" lon="8.7241">
        <ele>585</ele>
        <time>2021-08-05T11:17:17.177Z</time>
      </trkpt>
      <trkpt lat="46.98182" lon="8.72412">
        <ele>585</ele>
        <time>2021-08-05T11:17:18.176Z</time>
      </trkpt>
      <trkpt lat="46.98182" lon="8.72414">
        <ele>585</ele>
        <time>2021-08-05T11:17:19.176Z</time>
      </trkpt>
      <trkpt lat="46.98182" lon="8.72416">
        <ele>585</ele>
        <time>2021-08-05T11:17:20.176Z</time>
      </trkpt>
      <trkpt lat="46.98182" lon="8.72418">
        <ele>585</ele>
        <time>2021-08-05T11:17:21.177Z</time>
      </trkpt>
      <trkpt lat="46.98182" lon="8.7242">
        <ele>585</ele>
        <time>2021-08-05T11:17:22.176Z</time>
      </trkpt>
      <trkpt lat="46.98182" lon="8.72422">
        <ele>585</ele>
        <time>2021-08-05T11:17:23.176Z</time>
      </trkpt>
      <trkpt lat="46.98182" lon="8.72425">
        <ele>585</ele>
        <time>2021-08-05T11:17:24.176Z</time>
      </trkpt>
      <trkpt lat="46.98182" lon="8.72426">
        <ele>585</ele>
        <time>2021-08-05T11:17:25.176Z</time>
      </trkpt>
      <trkpt lat="46.98182" lon="8.72428">
        <ele>584</ele>
        <time>2021-08-05T11:17:26.176Z</time>
      </trkpt>
      <trkpt lat="46.98182" lon="8.72431">
        <ele>584</ele>
        <time>2021-08-05T11:17:27.176Z</time>
      </trkpt>
      <trkpt lat="46.98182" lon="8.72433">
        <ele>584</ele>
        <time>2021-08-05T11:17:28.177Z</time>
      </trkpt>
      <trkpt lat="46.98182" lon="8.72435">
        <ele>584</ele>
        <time>2021-08-05T11:17:29.177Z</time>
      </trkpt>
      <trkpt lat="46.98182" lon="8.72437">
        <ele>583</ele>
        <time>2021-08-05T11:17:30.176Z</time>
      </trkpt>
      <trkpt lat="46.98182" lon="8.72439">
        <ele>583</ele>
        <time>2021-08-05T11:17:31.176Z</time>
      </trkpt>
      <trkpt lat="46.98181" lon="8.72441">
        <ele>583</ele>
        <time>2021-08-05T11:17:32.176Z</time>
      </trkpt>
      <trkpt lat="46.98181" lon="8.72443">
        <ele>583</ele>
        <time>2021-08-05T11:17:33.177Z</time>
      </trkpt>
      <trkpt lat="46.98181" lon="8.72445">
        <ele>583</ele>
        <time>2021-08-05T11:17:34.177Z</time>
      </trkpt>
      <trkpt lat="46.98181" lon="8.72447">
        <ele>583</ele>
        <time>2021-08-05T11:17:35.176Z</time>
      </trkpt>
      <trkpt lat="46.98181" lon="8.72448">
        <ele>582</ele>
        <time>2021-08-05T11:17:36.176Z</time>
      </trkpt>
      <trkpt lat="46.98181" lon="8.7245">
        <ele>582</ele>
        <time>2021-08-05T11:17:37.176Z</time>
      </trkpt>
      <trkpt lat="46.98181" lon="8.72452">
        <ele>581</ele>
        <time>2021-08-05T11:17:38.177Z</time>
      </trkpt>
      <trkpt lat="46.98181" lon="8.72454">
        <ele>581</ele>
        <time>2021-08-05T11:17:39.177Z</time>
      </trkpt>
      <trkpt lat="46.98181" lon="8.72455">
        <ele>581</ele>
        <time>2021-08-05T11:17:40.176Z</time>
      </trkpt>
      <trkpt lat="46.98181" lon="8.72457">
        <ele>581</ele>
        <time>2021-08-05T11:17:41.176Z</time>
      </trkpt>
      <trkpt lat="46.98181" lon="8.72459">
        <ele>581</ele>
        <time>2021-08-05T11:17:42.176Z</time>
      </trkpt>
      <trkpt lat="46.98181" lon="8.72461">
        <ele>581</ele>
        <time>2021-08-05T11:17:43.176Z</time>
      </trkpt>
      <trkpt lat="46.98181" lon="8.72462">
        <ele>581</ele>
        <time>2021-08-05T11:17:44.176Z</time>
      </trkpt>
      <trkpt lat="46.98181" lon="8.72464">
        <ele>581</ele>
        <time>2021-08-05T11:17:45.176Z</time>
      </trkpt>
      <trkpt lat="46.98181" lon="8.72467">
        <ele>581</ele>
        <time>2021-08-05T11:17:46.176Z</time>
      </trkpt>
      <trkpt lat="46.9818" lon="8.72469">
        <ele>581</ele>
        <time>2021-08-05T11:17:47.176Z</time>
      </trkpt>
      <trkpt lat="46.9818" lon="8.72471">
        <ele>581</ele>
        <time>2021-08-05T11:17:48.177Z</time>
      </trkpt>
      <trkpt lat="46.9818" lon="8.72472">
        <ele>582</ele>
        <time>2021-08-05T11:17:49.176Z</time>
      </trkpt>
      <trkpt lat="46.9818" lon="8.72475">
        <ele>582</ele>
        <time>2021-08-05T11:17:50.176Z</time>
      </trkpt>
      <trkpt lat="46.98179" lon="8.72476">
        <ele>582</ele>
        <time>2021-08-05T11:17:51.176Z</time>
      </trkpt>
      <trkpt lat="46.98179" lon="8.72477">
        <ele>582</ele>
        <time>2021-08-05T11:17:52.176Z</time>
      </trkpt>
      <trkpt lat="46.98179" lon="8.72479">
        <ele>582</ele>
        <time>2021-08-05T11:17:53.177Z</time>
      </trkpt>
      <trkpt lat="46.98178" lon="8.72481">
        <ele>582</ele>
        <time>2021-08-05T11:17:54.176Z</time>
      </trkpt>
      <trkpt lat="46.98178" lon="8.72483">
        <ele>581</ele>
        <time>2021-08-05T11:17:55.176Z</time>
      </trkpt>
      <trkpt lat="46.98178" lon="8.72485">
        <ele>582</ele>
        <time>2021-08-05T11:17:56.176Z</time>
      </trkpt>
      <trkpt lat="46.98177" lon="8.72486">
        <ele>582</ele>
        <time>2021-08-05T11:17:57.176Z</time>
      </trkpt>
      <trkpt lat="46.98177" lon="8.72488">
        <ele>582</ele>
        <time>2021-08-05T11:17:58.176Z</time>
      </trkpt>
      <trkpt lat="46.98176" lon="8.7249">
        <ele>582</ele>
        <time>2021-08-05T11:17:59.176Z</time>
      </trkpt>
      <trkpt lat="46.98176" lon="8.72492">
        <ele>582</ele>
        <time>2021-08-05T11:18:00.176Z</time>
      </trkpt>
      <trkpt lat="46.98175" lon="8.72494">
        <ele>583</ele>
        <time>2021-08-05T11:18:01.176Z</time>
      </trkpt>
      <trkpt lat="46.98175" lon="8.72497">
        <ele>583</ele>
        <time>2021-08-05T11:18:02.176Z</time>
      </trkpt>
      <trkpt lat="46.98174" lon="8.72498">
        <ele>583</ele>
        <time>2021-08-05T11:18:03.177Z</time>
      </trkpt>
      <trkpt lat="46.98174" lon="8.72501">
        <ele>583</ele>
        <time>2021-08-05T11:18:04.177Z</time>
      </trkpt>
      <trkpt lat="46.98173" lon="8.72502">
        <ele>583</ele>
        <time>2021-08-05T11:18:05.176Z</time>
      </trkpt>
      <trkpt lat="46.98173" lon="8.72504">
        <ele>583</ele>
        <time>2021-08-05T11:18:06.176Z</time>
      </trkpt>
      <trkpt lat="46.98172" lon="8.72506">
        <ele>583</ele>
        <time>2021-08-05T11:18:07.176Z</time>
      </trkpt>
      <trkpt lat="46.98172" lon="8.72508">
        <ele>583</ele>
        <time>2021-08-05T11:18:08.177Z</time>
      </trkpt>
      <trkpt lat="46.98172" lon="8.72509">
        <ele>583</ele>
        <time>2021-08-05T11:18:09.177Z</time>
      </trkpt>
      <trkpt lat="46.98171" lon="8.72511">
        <ele>583</ele>
        <time>2021-08-05T11:18:10.177Z</time>
      </trkpt>
      <trkpt lat="46.98171" lon="8.72512">
        <ele>582</ele>
        <time>2021-08-05T11:18:11.176Z</time>
      </trkpt>
      <trkpt lat="46.98171" lon="8.72514">
        <ele>582</ele>
        <time>2021-08-05T11:18:12.176Z</time>
      </trkpt>
      <trkpt lat="46.9817" lon="8.72516">
        <ele>582</ele>
        <time>2021-08-05T11:18:13.177Z</time>
      </trkpt>
      <trkpt lat="46.9817" lon="8.72518">
        <ele>581</ele>
        <time>2021-08-05T11:18:14.176Z</time>
      </trkpt>
      <trkpt lat="46.9817" lon="8.72519">
        <ele>581</ele>
        <time>2021-08-05T11:18:15.176Z</time>
      </trkpt>
      <trkpt lat="46.9817" lon="8.72521">
        <ele>580</ele>
        <time>2021-08-05T11:18:16.177Z</time>
      </trkpt>
      <trkpt lat="46.98169" lon="8.72523">
        <ele>580</ele>
        <time>2021-08-05T11:18:17.176Z</time>
      </trkpt>
      <trkpt lat="46.98169" lon="8.72524">
        <ele>580</ele>
        <time>2021-08-05T11:18:18.176Z</time>
      </trkpt>
      <trkpt lat="46.98169" lon="8.72526">
        <ele>580</ele>
        <time>2021-08-05T11:18:19.176Z</time>
      </trkpt>
      <trkpt lat="46.98168" lon="8.72528">
        <ele>580</ele>
        <time>2021-08-05T11:18:20.176Z</time>
      </trkpt>
      <trkpt lat="46.98168" lon="8.72529">
        <ele>581</ele>
        <time>2021-08-05T11:18:21.176Z</time>
      </trkpt>
      <trkpt lat="46.98168" lon="8.72531">
        <ele>581</ele>
        <time>2021-08-05T11:18:22.176Z</time>
      </trkpt>
      <trkpt lat="46.98167" lon="8.72533">
        <ele>581</ele>
        <time>2021-08-05T11:18:23.177Z</time>
      </trkpt>
      <trkpt lat="46.98167" lon="8.72535">
        <ele>581</ele>
        <time>2021-08-05T11:18:24.176Z</time>
      </trkpt>
      <trkpt lat="46.98167" lon="8.72536">
        <ele>581</ele>
        <time>2021-08-05T11:18:25.177Z</time>
      </trkpt>
      <trkpt lat="46.98167" lon="8.72538">
        <ele>581</ele>
        <time>2021-08-05T11:18:26.177Z</time>
      </trkpt>
      <trkpt lat="46.98167" lon="8.7254">
        <ele>581</ele>
        <time>2021-08-05T11:18:27.177Z</time>
      </trkpt>
      <trkpt lat="46.98166" lon="8.72542">
        <ele>581</ele>
        <time>2021-08-05T11:18:28.177Z</time>
      </trkpt>
      <trkpt lat="46.98166" lon="8.72543">
        <ele>581</ele>
        <time>2021-08-05T11:18:29.177Z</time>
      </trkpt>
      <trkpt lat="46.98165" lon="8.72545">
        <ele>581</ele>
        <time>2021-08-05T11:18:30.177Z</time>
      </trkpt>
      <trkpt lat="46.98165" lon="8.72547">
        <ele>581</ele>
        <time>2021-08-05T11:18:31.177Z</time>
      </trkpt>
      <trkpt lat="46.98164" lon="8.72549">
        <ele>582</ele>
        <time>2021-08-05T11:18:32.177Z</time>
      </trkpt>
      <trkpt lat="46.98164" lon="8.7255">
        <ele>582</ele>
        <time>2021-08-05T11:18:33.177Z</time>
      </trkpt>
      <trkpt lat="46.98163" lon="8.72552">
        <ele>582</ele>
        <time>2021-08-05T11:18:34.177Z</time>
      </trkpt>
      <trkpt lat="46.98163" lon="8.72554">
        <ele>582</ele>
        <time>2021-08-05T11:18:35.176Z</time>
      </trkpt>
      <trkpt lat="46.98162" lon="8.72555">
        <ele>581</ele>
        <time>2021-08-05T11:18:36.177Z</time>
      </trkpt>
      <trkpt lat="46.98162" lon="8.72557">
        <ele>581</ele>
        <time>2021-08-05T11:18:37.177Z</time>
      </trkpt>
      <trkpt lat="46.98161" lon="8.72558">
        <ele>581</ele>
        <time>2021-08-05T11:18:40.298Z</time>
      </trkpt>
      <trkpt lat="46.98161" lon="8.7256">
        <ele>581</ele>
        <time>2021-08-05T11:18:41.298Z</time>
      </trkpt>
      <trkpt lat="46.9816" lon="8.72561">
        <ele>581</ele>
        <time>2021-08-05T11:18:42.298Z</time>
      </trkpt>
      <trkpt lat="46.98159" lon="8.72562">
        <ele>581</ele>
        <time>2021-08-05T11:18:43.299Z</time>
      </trkpt>
      <trkpt lat="46.98158" lon="8.72563">
        <ele>580</ele>
        <time>2021-08-05T11:18:44.298Z</time>
      </trkpt>
      <trkpt lat="46.98158" lon="8.72565">
        <ele>580</ele>
        <time>2021-08-05T11:18:45.298Z</time>
      </trkpt>
      <trkpt lat="46.98157" lon="8.72566">
        <ele>579</ele>
        <time>2021-08-05T11:18:46.298Z</time>
      </trkpt>
      <trkpt lat="46.98157" lon="8.72568">
        <ele>579</ele>
        <time>2021-08-05T11:18:47.298Z</time>
      </trkpt>
      <trkpt lat="46.98156" lon="8.72569">
        <ele>579</ele>
        <time>2021-08-05T11:18:48.298Z</time>
      </trkpt>
      <trkpt lat="46.98155" lon="8.72571">
        <ele>579</ele>
        <time>2021-08-05T11:18:49.299Z</time>
      </trkpt>
      <trkpt lat="46.98154" lon="8.72572">
        <ele>580</ele>
        <time>2021-08-05T11:18:50.298Z</time>
      </trkpt>
      <trkpt lat="46.98153" lon="8.72573">
        <ele>580</ele>
        <time>2021-08-05T11:18:51.298Z</time>
      </trkpt>
      <trkpt lat="46.98152" lon="8.72574">
        <ele>580</ele>
        <time>2021-08-05T11:18:52.298Z</time>
      </trkpt>
      <trkpt lat="46.98152" lon="8.72576">
        <ele>581</ele>
        <time>2021-08-05T11:18:53.298Z</time>
      </trkpt>
      <trkpt lat="46.98152" lon="8.72577">
        <ele>582</ele>
        <time>2021-08-05T11:18:54.299Z</time>
      </trkpt>
      <trkpt lat="46.98151" lon="8.72579">
        <ele>582</ele>
        <time>2021-08-05T11:18:55.299Z</time>
      </trkpt>
      <trkpt lat="46.98151" lon="8.7258">
        <ele>583</ele>
        <time>2021-08-05T11:18:56.299Z</time>
      </trkpt>
      <trkpt lat="46.9815" lon="8.72582">
        <ele>584</ele>
        <time>2021-08-05T11:18:57.298Z</time>
      </trkpt>
      <trkpt lat="46.9815" lon="8.72584">
        <ele>584</ele>
        <time>2021-08-05T11:18:58.299Z</time>
      </trkpt>
      <trkpt lat="46.9815" lon="8.72584">
        <ele>585</ele>
        <time>2021-08-05T11:18:59.298Z</time>
      </trkpt>
      <trkpt lat="46.9815" lon="8.72584">
        <ele>585</ele>
        <time>2021-08-05T11:19:00.298Z</time>
      </trkpt>
      <trkpt lat="46.98149" lon="8.72584">
        <ele>585</ele>
        <time>2021-08-05T11:19:01.299Z</time>
      </trkpt>
      <trkpt lat="46.98148" lon="8.72585">
        <ele>585</ele>
        <time>2021-08-05T11:19:02.299Z</time>
      </trkpt>
      <trkpt lat="46.98147" lon="8.72585">
        <ele>585</ele>
        <time>2021-08-05T11:19:03.298Z</time>
      </trkpt>
      <trkpt lat="46.98146" lon="8.72586">
        <ele>585</ele>
        <time>2021-08-05T11:19:04.299Z</time>
      </trkpt>
      <trkpt lat="46.98146" lon="8.72587">
        <ele>585</ele>
        <time>2021-08-05T11:19:05.299Z</time>
      </trkpt>
      <trkpt lat="46.98145" lon="8.72589">
        <ele>585</ele>
        <time>2021-08-05T11:19:06.299Z</time>
      </trkpt>
      <trkpt lat="46.98145" lon="8.7259">
        <ele>584</ele>
        <time>2021-08-05T11:19:07.298Z</time>
      </trkpt>
      <trkpt lat="46.98144" lon="8.72591">
        <ele>584</ele>
        <time>2021-08-05T11:19:08.299Z</time>
      </trkpt>
      <trkpt lat="46.98143" lon="8.72592">
        <ele>584</ele>
        <time>2021-08-05T11:19:09.299Z</time>
      </trkpt>
      <trkpt lat="46.98143" lon="8.72593">
        <ele>584</ele>
        <time>2021-08-05T11:19:10.298Z</time>
      </trkpt>
      <trkpt lat="46.98142" lon="8.72594">
        <ele>584</ele>
        <time>2021-08-05T11:19:11.299Z</time>
      </trkpt>
      <trkpt lat="46.98141" lon="8.72594">
        <ele>584</ele>
        <time>2021-08-05T11:19:12.299Z</time>
      </trkpt>
      <trkpt lat="46.9814" lon="8.72596">
        <ele>584</ele>
        <time>2021-08-05T11:19:13.299Z</time>
      </trkpt>
      <trkpt lat="46.9814" lon="8.72597">
        <ele>584</ele>
        <time>2021-08-05T11:19:14.299Z</time>
      </trkpt>
      <trkpt lat="46.98139" lon="8.72598">
        <ele>585</ele>
        <time>2021-08-05T11:19:15.299Z</time>
      </trkpt>
      <trkpt lat="46.98138" lon="8.72599">
        <ele>585</ele>
        <time>2021-08-05T11:19:16.298Z</time>
      </trkpt>
      <trkpt lat="46.98137" lon="8.726">
        <ele>585</ele>
        <time>2021-08-05T11:19:17.298Z</time>
      </trkpt>
      <trkpt lat="46.98137" lon="8.72602">
        <ele>585</ele>
        <time>2021-08-05T11:19:18.299Z</time>
      </trkpt>
      <trkpt lat="46.98137" lon="8.72603">
        <ele>585</ele>
        <time>2021-08-05T11:19:19.299Z</time>
      </trkpt>
      <trkpt lat="46.98136" lon="8.72604">
        <ele>585</ele>
        <time>2021-08-05T11:19:20.299Z</time>
      </trkpt>
      <trkpt lat="46.98135" lon="8.72604">
        <ele>585</ele>
        <time>2021-08-05T11:19:21.299Z</time>
      </trkpt>
      <trkpt lat="46.98135" lon="8.72604">
        <ele>585</ele>
        <time>2021-08-05T11:19:22.298Z</time>
      </trkpt>
      <trkpt lat="46.98135" lon="8.72605">
        <ele>586</ele>
        <time>2021-08-05T11:19:23.299Z</time>
      </trkpt>
      <trkpt lat="46.98135" lon="8.72605">
        <ele>586</ele>
        <time>2021-08-05T11:19:24.300Z</time>
      </trkpt>
      <trkpt lat="46.98135" lon="8.72605">
        <ele>586</ele>
        <time>2021-08-05T11:19:25.300Z</time>
      </trkpt>
      <trkpt lat="46.98135" lon="8.72606">
        <ele>586</ele>
        <time>2021-08-05T11:19:26.300Z</time>
      </trkpt>
      <trkpt lat="46.98135" lon="8.72608">
        <ele>587</ele>
        <time>2021-08-05T11:19:27.300Z</time>
      </trkpt>
      <trkpt lat="46.98135" lon="8.72609">
        <ele>587</ele>
        <time>2021-08-05T11:19:28.299Z</time>
      </trkpt>
      <trkpt lat="46.98134" lon="8.72611">
        <ele>585</ele>
        <time>2021-08-05T11:19:29.299Z</time>
      </trkpt>
      <trkpt lat="46.98133" lon="8.72612">
        <ele>585</ele>
        <time>2021-08-05T11:19:30.299Z</time>
      </trkpt>
      <trkpt lat="46.98133" lon="8.72613">
        <ele>586</ele>
        <time>2021-08-05T11:19:31.299Z</time>
      </trkpt>
      <trkpt lat="46.98132" lon="8.72614">
        <ele>586</ele>
        <time>2021-08-05T11:19:32.299Z</time>
      </trkpt>
      <trkpt lat="46.98131" lon="8.72614">
        <ele>585</ele>
        <time>2021-08-05T11:19:33.300Z</time>
      </trkpt>
      <trkpt lat="46.98131" lon="8.72616">
        <ele>585</ele>
        <time>2021-08-05T11:19:34.300Z</time>
      </trkpt>
      <trkpt lat="46.98131" lon="8.72617">
        <ele>585</ele>
        <time>2021-08-05T11:19:35.299Z</time>
      </trkpt>
      <trkpt lat="46.9813" lon="8.72618">
        <ele>585</ele>
        <time>2021-08-05T11:19:36.299Z</time>
      </trkpt>
      <trkpt lat="46.9813" lon="8.72619">
        <ele>586</ele>
        <time>2021-08-05T11:19:37.300Z</time>
      </trkpt>
      <trkpt lat="46.9813" lon="8.7262">
        <ele>586</ele>
        <time>2021-08-05T11:19:38.300Z</time>
      </trkpt>
      <trkpt lat="46.98129" lon="8.72621">
        <ele>586</ele>
        <time>2021-08-05T11:19:39.300Z</time>
      </trkpt>
      <trkpt lat="46.98129" lon="8.72622">
        <ele>586</ele>
        <time>2021-08-05T11:19:40.299Z</time>
      </trkpt>
      <trkpt lat="46.98129" lon="8.72623">
        <ele>586</ele>
        <time>2021-08-05T11:19:41.299Z</time>
      </trkpt>
      <trkpt lat="46.98129" lon="8.72624">
        <ele>586</ele>
        <time>2021-08-05T11:19:42.300Z</time>
      </trkpt>
      <trkpt lat="46.98128" lon="8.72625">
        <ele>586</ele>
        <time>2021-08-05T11:19:43.299Z</time>
      </trkpt>
      <trkpt lat="46.98128" lon="8.72626">
        <ele>586</ele>
        <time>2021-08-05T11:19:44.300Z</time>
      </trkpt>
      <trkpt lat="46.98127" lon="8.72628">
        <ele>586</ele>
        <time>2021-08-05T11:19:45.300Z</time>
      </trkpt>
      <trkpt lat="46.98127" lon="8.7263">
        <ele>586</ele>
        <time>2021-08-05T11:19:46.299Z</time>
      </trkpt>
      <trkpt lat="46.98127" lon="8.72632">
        <ele>586</ele>
        <time>2021-08-05T11:19:47.299Z</time>
      </trkpt>
      <trkpt lat="46.98126" lon="8.72633">
        <ele>587</ele>
        <time>2021-08-05T11:19:48.300Z</time>
      </trkpt>
      <trkpt lat="46.98126" lon="8.72635">
        <ele>587</ele>
        <time>2021-08-05T11:19:49.300Z</time>
      </trkpt>
      <trkpt lat="46.98126" lon="8.72637">
        <ele>587</ele>
        <time>2021-08-05T11:19:50.299Z</time>
      </trkpt>
      <trkpt lat="46.98126" lon="8.72638">
        <ele>588</ele>
        <time>2021-08-05T11:19:51.299Z</time>
      </trkpt>
      <trkpt lat="46.98125" lon="8.7264">
        <ele>588</ele>
        <time>2021-08-05T11:19:52.300Z</time>
      </trkpt>
      <trkpt lat="46.98125" lon="8.72642">
        <ele>588</ele>
        <time>2021-08-05T11:19:53.300Z</time>
      </trkpt>
      <trkpt lat="46.98125" lon="8.72643">
        <ele>589</ele>
        <time>2021-08-05T11:19:54.300Z</time>
      </trkpt>
      <trkpt lat="46.98125" lon="8.72643">
        <ele>589</ele>
        <time>2021-08-05T11:19:55.300Z</time>
      </trkpt>
      <trkpt lat="46.98125" lon="8.72643">
        <ele>590</ele>
        <time>2021-08-05T11:19:56.299Z</time>
      </trkpt>
      <trkpt lat="46.98125" lon="8.72642">
        <ele>591</ele>
        <time>2021-08-05T11:19:57.301Z</time>
      </trkpt>
      <trkpt lat="46.98123" lon="8.72643">
        <ele>591</ele>
        <time>2021-08-05T11:19:58.301Z</time>
      </trkpt>
      <trkpt lat="46.98123" lon="8.72645">
        <ele>591</ele>
        <time>2021-08-05T11:19:59.300Z</time>
      </trkpt>
      <trkpt lat="46.98122" lon="8.72647">
        <ele>591</ele>
        <time>2021-08-05T11:20:00.300Z</time>
      </trkpt>
      <trkpt lat="46.98122" lon="8.72648">
        <ele>591</ele>
        <time>2021-08-05T11:20:01.301Z</time>
      </trkpt>
      <trkpt lat="46.98121" lon="8.7265">
        <ele>591</ele>
        <time>2021-08-05T11:20:02.300Z</time>
      </trkpt>
      <trkpt lat="46.98121" lon="8.72652">
        <ele>591</ele>
        <time>2021-08-05T11:20:03.300Z</time>
      </trkpt>
      <trkpt lat="46.9812" lon="8.72653">
        <ele>591</ele>
        <time>2021-08-05T11:20:04.300Z</time>
      </trkpt>
      <trkpt lat="46.9812" lon="8.72655">
        <ele>591</ele>
        <time>2021-08-05T11:20:05.301Z</time>
      </trkpt>
      <trkpt lat="46.98119" lon="8.72657">
        <ele>591</ele>
        <time>2021-08-05T11:20:06.300Z</time>
      </trkpt>
      <trkpt lat="46.98119" lon="8.72658">
        <ele>591</ele>
        <time>2021-08-05T11:20:07.301Z</time>
      </trkpt>
      <trkpt lat="46.98119" lon="8.7266">
        <ele>591</ele>
        <time>2021-08-05T11:20:08.300Z</time>
      </trkpt>
      <trkpt lat="46.98118" lon="8.72661">
        <ele>591</ele>
        <time>2021-08-05T11:20:09.300Z</time>
      </trkpt>
      <trkpt lat="46.98118" lon="8.72663">
        <ele>591</ele>
        <time>2021-08-05T11:20:10.301Z</time>
      </trkpt>
      <trkpt lat="46.98117" lon="8.72664">
        <ele>591</ele>
        <time>2021-08-05T11:20:11.301Z</time>
      </trkpt>
      <trkpt lat="46.98116" lon="8.72666">
        <ele>591</ele>
        <time>2021-08-05T11:20:12.301Z</time>
      </trkpt>
      <trkpt lat="46.98116" lon="8.72668">
        <ele>591</ele>
        <time>2021-08-05T11:20:13.300Z</time>
      </trkpt>
      <trkpt lat="46.98115" lon="8.7267">
        <ele>591</ele>
        <time>2021-08-05T11:20:14.301Z</time>
      </trkpt>
      <trkpt lat="46.98115" lon="8.72671">
        <ele>591</ele>
        <time>2021-08-05T11:20:15.301Z</time>
      </trkpt>
      <trkpt lat="46.98115" lon="8.72673">
        <ele>591</ele>
        <time>2021-08-05T11:20:16.301Z</time>
      </trkpt>
      <trkpt lat="46.98114" lon="8.72675">
        <ele>591</ele>
        <time>2021-08-05T11:20:17.301Z</time>
      </trkpt>
      <trkpt lat="46.98114" lon="8.72677">
        <ele>591</ele>
        <time>2021-08-05T11:20:18.301Z</time>
      </trkpt>
      <trkpt lat="46.98113" lon="8.72679">
        <ele>591</ele>
        <time>2021-08-05T11:20:19.301Z</time>
      </trkpt>
      <trkpt lat="46.98113" lon="8.7268">
        <ele>591</ele>
        <time>2021-08-05T11:20:20.301Z</time>
      </trkpt>
      <trkpt lat="46.98113" lon="8.72682">
        <ele>591</ele>
        <time>2021-08-05T11:20:21.300Z</time>
      </trkpt>
      <trkpt lat="46.98112" lon="8.72684">
        <ele>591</ele>
        <time>2021-08-05T11:20:22.301Z</time>
      </trkpt>
      <trkpt lat="46.98112" lon="8.72686">
        <ele>592</ele>
        <time>2021-08-05T11:20:23.301Z</time>
      </trkpt>
      <trkpt lat="46.98112" lon="8.72687">
        <ele>592</ele>
        <time>2021-08-05T11:20:24.300Z</time>
      </trkpt>
      <trkpt lat="46.98112" lon="8.72689">
        <ele>592</ele>
        <time>2021-08-05T11:20:25.301Z</time>
      </trkpt>
      <trkpt lat="46.98112" lon="8.72691">
        <ele>591</ele>
        <time>2021-08-05T11:20:26.301Z</time>
      </trkpt>
      <trkpt lat="46.98112" lon="8.72693">
        <ele>591</ele>
        <time>2021-08-05T11:20:27.300Z</time>
      </trkpt>
      <trkpt lat="46.98112" lon="8.72694">
        <ele>592</ele>
        <time>2021-08-05T11:20:28.300Z</time>
      </trkpt>
      <trkpt lat="46.98112" lon="8.72696">
        <ele>592</ele>
        <time>2021-08-05T11:20:29.301Z</time>
      </trkpt>
      <trkpt lat="46.98111" lon="8.72698">
        <ele>592</ele>
        <time>2021-08-05T11:20:30.301Z</time>
      </trkpt>
      <trkpt lat="46.98111" lon="8.727">
        <ele>592</ele>
        <time>2021-08-05T11:20:31.300Z</time>
      </trkpt>
      <trkpt lat="46.98111" lon="8.72702">
        <ele>592</ele>
        <time>2021-08-05T11:20:32.301Z</time>
      </trkpt>
      <trkpt lat="46.9811" lon="8.72704">
        <ele>593</ele>
        <time>2021-08-05T11:20:33.301Z</time>
      </trkpt>
      <trkpt lat="46.98109" lon="8.72705">
        <ele>593</ele>
        <time>2021-08-05T11:20:34.300Z</time>
      </trkpt>
      <trkpt lat="46.98109" lon="8.72707">
        <ele>593</ele>
        <time>2021-08-05T11:20:35.301Z</time>
      </trkpt>
      <trkpt lat="46.98108" lon="8.72708">
        <ele>593</ele>
        <time>2021-08-05T11:20:36.301Z</time>
      </trkpt>
      <trkpt lat="46.98108" lon="8.7271">
        <ele>593</ele>
        <time>2021-08-05T11:20:37.301Z</time>
      </trkpt>
      <trkpt lat="46.98107" lon="8.72711">
        <ele>593</ele>
        <time>2021-08-05T11:20:38.301Z</time>
      </trkpt>
      <trkpt lat="46.98107" lon="8.72713">
        <ele>593</ele>
        <time>2021-08-05T11:20:39.300Z</time>
      </trkpt>
      <trkpt lat="46.98107" lon="8.72715">
        <ele>593</ele>
        <time>2021-08-05T11:20:40.301Z</time>
      </trkpt>
      <trkpt lat="46.98106" lon="8.72717">
        <ele>592</ele>
        <time>2021-08-05T11:20:41.301Z</time>
      </trkpt>
      <trkpt lat="46.98106" lon="8.72718">
        <ele>592</ele>
        <time>2021-08-05T11:20:42.300Z</time>
      </trkpt>
      <trkpt lat="46.98106" lon="8.7272">
        <ele>592</ele>
        <time>2021-08-05T11:20:43.301Z</time>
      </trkpt>
      <trkpt lat="46.98105" lon="8.72721">
        <ele>592</ele>
        <time>2021-08-05T11:20:44.301Z</time>
      </trkpt>
      <trkpt lat="46.98105" lon="8.72723">
        <ele>592</ele>
        <time>2021-08-05T11:20:45.300Z</time>
      </trkpt>
      <trkpt lat="46.98104" lon="8.72724">
        <ele>591</ele>
        <time>2021-08-05T11:20:46.300Z</time>
      </trkpt>
      <trkpt lat="46.98104" lon="8.72726">
        <ele>591</ele>
        <time>2021-08-05T11:20:47.301Z</time>
      </trkpt>
      <trkpt lat="46.98103" lon="8.72728">
        <ele>591</ele>
        <time>2021-08-05T11:20:48.301Z</time>
      </trkpt>
      <trkpt lat="46.98102" lon="8.72729">
        <ele>590</ele>
        <time>2021-08-05T11:20:49.301Z</time>
      </trkpt>
      <trkpt lat="46.98102" lon="8.72731">
        <ele>590</ele>
        <time>2021-08-05T11:20:50.300Z</time>
      </trkpt>
      <trkpt lat="46.98101" lon="8.72732">
        <ele>590</ele>
        <time>2021-08-05T11:20:51.301Z</time>
      </trkpt>
      <trkpt lat="46.98101" lon="8.72733">
        <ele>589</ele>
        <time>2021-08-05T11:20:52.300Z</time>
      </trkpt>
      <trkpt lat="46.981" lon="8.72734">
        <ele>589</ele>
        <time>2021-08-05T11:20:53.301Z</time>
      </trkpt>
      <trkpt lat="46.98099" lon="8.72735">
        <ele>589</ele>
        <time>2021-08-05T11:20:54.301Z</time>
      </trkpt>
      <trkpt lat="46.98098" lon="8.72736">
        <ele>589</ele>
        <time>2021-08-05T11:20:55.300Z</time>
      </trkpt>
      <trkpt lat="46.98098" lon="8.72737">
        <ele>589</ele>
        <time>2021-08-05T11:20:56.300Z</time>
      </trkpt>
      <trkpt lat="46.98097" lon="8.72739">
        <ele>589</ele>
        <time>2021-08-05T11:20:57.300Z</time>
      </trkpt>
      <trkpt lat="46.98096" lon="8.7274">
        <ele>589</ele>
        <time>2021-08-05T11:20:58.300Z</time>
      </trkpt>
      <trkpt lat="46.98095" lon="8.72741">
        <ele>589</ele>
        <time>2021-08-05T11:20:59.301Z</time>
      </trkpt>
      <trkpt lat="46.98094" lon="8.72742">
        <ele>589</ele>
        <time>2021-08-05T11:21:00.301Z</time>
      </trkpt>
      <trkpt lat="46.98094" lon="8.72744">
        <ele>589</ele>
        <time>2021-08-05T11:21:01.300Z</time>
      </trkpt>
      <trkpt lat="46.98093" lon="8.72745">
        <ele>588</ele>
        <time>2021-08-05T11:21:02.301Z</time>
      </trkpt>
      <trkpt lat="46.98093" lon="8.72746">
        <ele>588</ele>
        <time>2021-08-05T11:21:03.301Z</time>
      </trkpt>
      <trkpt lat="46.98092" lon="8.72748">
        <ele>588</ele>
        <time>2021-08-05T11:21:04.300Z</time>
      </trkpt>
      <trkpt lat="46.98092" lon="8.72749">
        <ele>587</ele>
        <time>2021-08-05T11:21:05.300Z</time>
      </trkpt>
      <trkpt lat="46.98092" lon="8.7275">
        <ele>587</ele>
        <time>2021-08-05T11:21:06.301Z</time>
      </trkpt>
      <trkpt lat="46.98091" lon="8.72752">
        <ele>587</ele>
        <time>2021-08-05T11:21:07.301Z</time>
      </trkpt>
      <trkpt lat="46.98091" lon="8.72754">
        <ele>587</ele>
        <time>2021-08-05T11:21:08.301Z</time>
      </trkpt>
      <trkpt lat="46.9809" lon="8.72755">
        <ele>587</ele>
        <time>2021-08-05T11:21:09.301Z</time>
      </trkpt>
      <trkpt lat="46.9809" lon="8.72757">
        <ele>587</ele>
        <time>2021-08-05T11:21:10.300Z</time>
      </trkpt>
      <trkpt lat="46.98089" lon="8.72759">
        <ele>586</ele>
        <time>2021-08-05T11:21:11.300Z</time>
      </trkpt>
      <trkpt lat="46.98089" lon="8.72761">
        <ele>586</ele>
        <time>2021-08-05T11:21:12.300Z</time>
      </trkpt>
      <trkpt lat="46.98089" lon="8.72763">
        <ele>586</ele>
        <time>2021-08-05T11:21:13.300Z</time>
      </trkpt>
      <trkpt lat="46.98089" lon="8.72764">
        <ele>586</ele>
        <time>2021-08-05T11:21:14.301Z</time>
      </trkpt>
      <trkpt lat="46.98089" lon="8.72766">
        <ele>586</ele>
        <time>2021-08-05T11:21:15.301Z</time>
      </trkpt>
      <trkpt lat="46.98088" lon="8.72768">
        <ele>586</ele>
        <time>2021-08-05T11:21:16.301Z</time>
      </trkpt>
      <trkpt lat="46.98088" lon="8.72769">
        <ele>586</ele>
        <time>2021-08-05T11:21:17.300Z</time>
      </trkpt>
      <trkpt lat="46.98088" lon="8.72771">
        <ele>587</ele>
        <time>2021-08-05T11:21:18.300Z</time>
      </trkpt>
      <trkpt lat="46.98087" lon="8.72772">
        <ele>588</ele>
        <time>2021-08-05T11:21:19.301Z</time>
      </trkpt>
      <trkpt lat="46.98087" lon="8.72773">
        <ele>588</ele>
        <time>2021-08-05T11:21:20.301Z</time>
      </trkpt>
      <trkpt lat="46.98086" lon="8.72775">
        <ele>589</ele>
        <time>2021-08-05T11:21:21.301Z</time>
      </trkpt>
      <trkpt lat="46.98086" lon="8.72776">
        <ele>589</ele>
        <time>2021-08-05T11:21:22.300Z</time>
      </trkpt>
      <trkpt lat="46.98085" lon="8.72778">
        <ele>589</ele>
        <time>2021-08-05T11:21:23.300Z</time>
      </trkpt>
      <trkpt lat="46.98085" lon="8.72779">
        <ele>588</ele>
        <time>2021-08-05T11:21:24.301Z</time>
      </trkpt>
      <trkpt lat="46.98084" lon="8.72781">
        <ele>588</ele>
        <time>2021-08-05T11:21:25.300Z</time>
      </trkpt>
      <trkpt lat="46.98083" lon="8.72783">
        <ele>588</ele>
        <time>2021-08-05T11:21:26.300Z</time>
      </trkpt>
      <trkpt lat="46.98083" lon="8.72785">
        <ele>588</ele>
        <time>2021-08-05T11:21:27.301Z</time>
      </trkpt>
      <trkpt lat="46.98082" lon="8.72787">
        <ele>588</ele>
        <time>2021-08-05T11:21:28.301Z</time>
      </trkpt>
      <trkpt lat="46.98081" lon="8.72788">
        <ele>588</ele>
        <time>2021-08-05T11:21:29.300Z</time>
      </trkpt>
      <trkpt lat="46.9808" lon="8.7279">
        <ele>588</ele>
        <time>2021-08-05T11:21:30.301Z</time>
      </trkpt>
      <trkpt lat="46.9808" lon="8.72791">
        <ele>587</ele>
        <time>2021-08-05T11:21:31.300Z</time>
      </trkpt>
      <trkpt lat="46.98079" lon="8.72792">
        <ele>587</ele>
        <time>2021-08-05T11:21:32.301Z</time>
      </trkpt>
      <trkpt lat="46.98078" lon="8.72793">
        <ele>586</ele>
        <time>2021-08-05T11:21:33.301Z</time>
      </trkpt>
      <trkpt lat="46.98078" lon="8.72794">
        <ele>586</ele>
        <time>2021-08-05T11:21:34.300Z</time>
      </trkpt>
      <trkpt lat="46.98078" lon="8.72795">
        <ele>585</ele>
        <time>2021-08-05T11:21:35.301Z</time>
      </trkpt>
      <trkpt lat="46.98077" lon="8.72796">
        <ele>585</ele>
        <time>2021-08-05T11:21:36.300Z</time>
      </trkpt>
      <trkpt lat="46.98077" lon="8.72798">
        <ele>584</ele>
        <time>2021-08-05T11:21:37.301Z</time>
      </trkpt>
      <trkpt lat="46.98076" lon="8.72798">
        <ele>584</ele>
        <time>2021-08-05T11:21:38.301Z</time>
      </trkpt>
      <trkpt lat="46.98075" lon="8.728">
        <ele>583</ele>
        <time>2021-08-05T11:21:39.300Z</time>
      </trkpt>
      <trkpt lat="46.98075" lon="8.72801">
        <ele>583</ele>
        <time>2021-08-05T11:21:40.301Z</time>
      </trkpt>
      <trkpt lat="46.98074" lon="8.72802">
        <ele>582</ele>
        <time>2021-08-05T11:21:41.300Z</time>
      </trkpt>
      <trkpt lat="46.98073" lon="8.72803">
        <ele>582</ele>
        <time>2021-08-05T11:21:42.300Z</time>
      </trkpt>
      <trkpt lat="46.98072" lon="8.72803">
        <ele>582</ele>
        <time>2021-08-05T11:21:43.300Z</time>
      </trkpt>
      <trkpt lat="46.9807" lon="8.72804">
        <ele>581</ele>
        <time>2021-08-05T11:21:44.301Z</time>
      </trkpt>
      <trkpt lat="46.98069" lon="8.72804">
        <ele>581</ele>
        <time>2021-08-05T11:21:45.301Z</time>
      </trkpt>
      <trkpt lat="46.98068" lon="8.72805">
        <ele>581</ele>
        <time>2021-08-05T11:21:46.301Z</time>
      </trkpt>
      <trkpt lat="46.98067" lon="8.72806">
        <ele>581</ele>
        <time>2021-08-05T11:21:47.300Z</time>
      </trkpt>
      <trkpt lat="46.98066" lon="8.72807">
        <ele>580</ele>
        <time>2021-08-05T11:21:48.300Z</time>
      </trkpt>
      <trkpt lat="46.98064" lon="8.72808">
        <ele>580</ele>
        <time>2021-08-05T11:21:49.301Z</time>
      </trkpt>
      <trkpt lat="46.98063" lon="8.72809">
        <ele>579</ele>
        <time>2021-08-05T11:21:50.300Z</time>
      </trkpt>
      <trkpt lat="46.98062" lon="8.72809">
        <ele>579</ele>
        <time>2021-08-05T11:21:51.300Z</time>
      </trkpt>
      <trkpt lat="46.9806" lon="8.72809">
        <ele>579</ele>
        <time>2021-08-05T11:21:52.300Z</time>
      </trkpt>
      <trkpt lat="46.98059" lon="8.7281">
        <ele>579</ele>
        <time>2021-08-05T11:21:53.301Z</time>
      </trkpt>
      <trkpt lat="46.98058" lon="8.72811">
        <ele>579</ele>
        <time>2021-08-05T11:21:54.301Z</time>
      </trkpt>
      <trkpt lat="46.98057" lon="8.72811">
        <ele>580</ele>
        <time>2021-08-05T11:21:55.300Z</time>
      </trkpt>
      <trkpt lat="46.98056" lon="8.72812">
        <ele>580</ele>
        <time>2021-08-05T11:21:56.300Z</time>
      </trkpt>
      <trkpt lat="46.98055" lon="8.72813">
        <ele>580</ele>
        <time>2021-08-05T11:21:57.301Z</time>
      </trkpt>
      <trkpt lat="46.98054" lon="8.72814">
        <ele>580</ele>
        <time>2021-08-05T11:21:58.301Z</time>
      </trkpt>
      <trkpt lat="46.98053" lon="8.72814">
        <ele>580</ele>
        <time>2021-08-05T11:21:59.300Z</time>
      </trkpt>
      <trkpt lat="46.98052" lon="8.72815">
        <ele>581</ele>
        <time>2021-08-05T11:22:00.300Z</time>
      </trkpt>
      <trkpt lat="46.98052" lon="8.72815">
        <ele>581</ele>
        <time>2021-08-05T11:22:01.300Z</time>
      </trkpt>
      <trkpt lat="46.98051" lon="8.72816">
        <ele>582</ele>
        <time>2021-08-05T11:22:02.301Z</time>
      </trkpt>
      <trkpt lat="46.98049" lon="8.72817">
        <ele>582</ele>
        <time>2021-08-05T11:22:03.300Z</time>
      </trkpt>
      <trkpt lat="46.98048" lon="8.72817">
        <ele>583</ele>
        <time>2021-08-05T11:22:04.301Z</time>
      </trkpt>
      <trkpt lat="46.98048" lon="8.72818">
        <ele>583</ele>
        <time>2021-08-05T11:22:05.301Z</time>
      </trkpt>
      <trkpt lat="46.98046" lon="8.72819">
        <ele>584</ele>
        <time>2021-08-05T11:22:06.301Z</time>
      </trkpt>
      <trkpt lat="46.98045" lon="8.72819">
        <ele>584</ele>
        <time>2021-08-05T11:22:07.301Z</time>
      </trkpt>
      <trkpt lat="46.98044" lon="8.7282">
        <ele>585</ele>
        <time>2021-08-05T11:22:08.300Z</time>
      </trkpt>
      <trkpt lat="46.98043" lon="8.72821">
        <ele>585</ele>
        <time>2021-08-05T11:22:09.301Z</time>
      </trkpt>
      <trkpt lat="46.98042" lon="8.72822">
        <ele>585</ele>
        <time>2021-08-05T11:22:10.301Z</time>
      </trkpt>
      <trkpt lat="46.98041" lon="8.72823">
        <ele>585</ele>
        <time>2021-08-05T11:22:11.301Z</time>
      </trkpt>
      <trkpt lat="46.9804" lon="8.72824">
        <ele>585</ele>
        <time>2021-08-05T11:22:12.300Z</time>
      </trkpt>
      <trkpt lat="46.98039" lon="8.72825">
        <ele>585</ele>
        <time>2021-08-05T11:22:13.300Z</time>
      </trkpt>
      <trkpt lat="46.98037" lon="8.72826">
        <ele>585</ele>
        <time>2021-08-05T11:22:14.301Z</time>
      </trkpt>
      <trkpt lat="46.98036" lon="8.72826">
        <ele>584</ele>
        <time>2021-08-05T11:22:15.300Z</time>
      </trkpt>
      <trkpt lat="46.98036" lon="8.72827">
        <ele>584</ele>
        <time>2021-08-05T11:22:16.300Z</time>
      </trkpt>
      <trkpt lat="46.98035" lon="8.72828">
        <ele>584</ele>
        <time>2021-08-05T11:22:17.300Z</time>
      </trkpt>
      <trkpt lat="46.98033" lon="8.72828">
        <ele>584</ele>
        <time>2021-08-05T11:22:18.300Z</time>
      </trkpt>
      <trkpt lat="46.98032" lon="8.72829">
        <ele>585</ele>
        <time>2021-08-05T11:22:19.301Z</time>
      </trkpt>
      <trkpt lat="46.98031" lon="8.7283">
        <ele>585</ele>
        <time>2021-08-05T11:22:20.300Z</time>
      </trkpt>
      <trkpt lat="46.9803" lon="8.7283">
        <ele>585</ele>
        <time>2021-08-05T11:22:21.300Z</time>
      </trkpt>
      <trkpt lat="46.98029" lon="8.72831">
        <ele>585</ele>
        <time>2021-08-05T11:22:22.300Z</time>
      </trkpt>
      <trkpt lat="46.98028" lon="8.72831">
        <ele>586</ele>
        <time>2021-08-05T11:22:23.300Z</time>
      </trkpt>
      <trkpt lat="46.98027" lon="8.72832">
        <ele>586</ele>
        <time>2021-08-05T11:22:24.300Z</time>
      </trkpt>
      <trkpt lat="46.98026" lon="8.72832">
        <ele>586</ele>
        <time>2021-08-05T11:22:25.301Z</time>
      </trkpt>
      <trkpt lat="46.98024" lon="8.72833">
        <ele>586</ele>
        <time>2021-08-05T11:22:26.301Z</time>
      </trkpt>
      <trkpt lat="46.98023" lon="8.72833">
        <ele>586</ele>
        <time>2021-08-05T11:22:27.301Z</time>
      </trkpt>
      <trkpt lat="46.98022" lon="8.72834">
        <ele>586</ele>
        <time>2021-08-05T11:22:28.301Z</time>
      </trkpt>
      <trkpt lat="46.98022" lon="8.72835">
        <ele>586</ele>
        <time>2021-08-05T11:22:29.301Z</time>
      </trkpt>
      <trkpt lat="46.98021" lon="8.72835">
        <ele>586</ele>
        <time>2021-08-05T11:22:30.301Z</time>
      </trkpt>
      <trkpt lat="46.9802" lon="8.72836">
        <ele>585</ele>
        <time>2021-08-05T11:22:31.300Z</time>
      </trkpt>
      <trkpt lat="46.9802" lon="8.72836">
        <ele>585</ele>
        <time>2021-08-05T11:22:32.301Z</time>
      </trkpt>
      <trkpt lat="46.98019" lon="8.72837">
        <ele>585</ele>
        <time>2021-08-05T11:22:33.301Z</time>
      </trkpt>
      <trkpt lat="46.98018" lon="8.72837">
        <ele>585</ele>
        <time>2021-08-05T11:22:34.300Z</time>
      </trkpt>
      <trkpt lat="46.98017" lon="8.72838">
        <ele>585</ele>
        <time>2021-08-05T11:22:35.300Z</time>
      </trkpt>
      <trkpt lat="46.98015" lon="8.72839">
        <ele>585</ele>
        <time>2021-08-05T11:22:36.300Z</time>
      </trkpt>
      <trkpt lat="46.98014" lon="8.72839">
        <ele>585</ele>
        <time>2021-08-05T11:22:37.300Z</time>
      </trkpt>
      <trkpt lat="46.98013" lon="8.7284">
        <ele>585</ele>
        <time>2021-08-05T11:22:38.300Z</time>
      </trkpt>
      <trkpt lat="46.98012" lon="8.7284">
        <ele>585</ele>
        <time>2021-08-05T11:22:39.300Z</time>
      </trkpt>
      <trkpt lat="46.98011" lon="8.7284">
        <ele>585</ele>
        <time>2021-08-05T11:22:40.300Z</time>
      </trkpt>
      <trkpt lat="46.9801" lon="8.72841">
        <ele>584</ele>
        <time>2021-08-05T11:22:41.300Z</time>
      </trkpt>
      <trkpt lat="46.98009" lon="8.72842">
        <ele>584</ele>
        <time>2021-08-05T11:22:42.300Z</time>
      </trkpt>
      <trkpt lat="46.98008" lon="8.72842">
        <ele>584</ele>
        <time>2021-08-05T11:22:43.300Z</time>
      </trkpt>
      <trkpt lat="46.98006" lon="8.72843">
        <ele>584</ele>
        <time>2021-08-05T11:22:44.301Z</time>
      </trkpt>
      <trkpt lat="46.98005" lon="8.72844">
        <ele>584</ele>
        <time>2021-08-05T11:22:45.300Z</time>
      </trkpt>
      <trkpt lat="46.98004" lon="8.72844">
        <ele>584</ele>
        <time>2021-08-05T11:22:46.300Z</time>
      </trkpt>
      <trkpt lat="46.98003" lon="8.72845">
        <ele>584</ele>
        <time>2021-08-05T11:22:47.301Z</time>
      </trkpt>
      <trkpt lat="46.98002" lon="8.72846">
        <ele>583</ele>
        <time>2021-08-05T11:22:48.301Z</time>
      </trkpt>
      <trkpt lat="46.98001" lon="8.72847">
        <ele>583</ele>
        <time>2021-08-05T11:22:49.300Z</time>
      </trkpt>
      <trkpt lat="46.98" lon="8.72848">
        <ele>583</ele>
        <time>2021-08-05T11:22:50.300Z</time>
      </trkpt>
      <trkpt lat="46.97999" lon="8.72849">
        <ele>583</ele>
        <time>2021-08-05T11:22:51.301Z</time>
      </trkpt>
      <trkpt lat="46.97998" lon="8.7285">
        <ele>583</ele>
        <time>2021-08-05T11:22:52.301Z</time>
      </trkpt>
      <trkpt lat="46.97997" lon="8.72851">
        <ele>583</ele>
        <time>2021-08-05T11:22:53.301Z</time>
      </trkpt>
      <trkpt lat="46.97996" lon="8.72852">
        <ele>583</ele>
        <time>2021-08-05T11:22:54.301Z</time>
      </trkpt>
      <trkpt lat="46.97995" lon="8.72853">
        <ele>583</ele>
        <time>2021-08-05T11:22:55.301Z</time>
      </trkpt>
      <trkpt lat="46.97994" lon="8.72854">
        <ele>584</ele>
        <time>2021-08-05T11:22:56.301Z</time>
      </trkpt>
      <trkpt lat="46.97993" lon="8.72854">
        <ele>584</ele>
        <time>2021-08-05T11:22:57.300Z</time>
      </trkpt>
      <trkpt lat="46.97992" lon="8.72855">
        <ele>585</ele>
        <time>2021-08-05T11:22:58.300Z</time>
      </trkpt>
      <trkpt lat="46.97991" lon="8.72857">
        <ele>585</ele>
        <time>2021-08-05T11:22:59.300Z</time>
      </trkpt>
      <trkpt lat="46.9799" lon="8.72858">
        <ele>585</ele>
        <time>2021-08-05T11:23:00.301Z</time>
      </trkpt>
      <trkpt lat="46.97989" lon="8.72859">
        <ele>584</ele>
        <time>2021-08-05T11:23:01.300Z</time>
      </trkpt>
      <trkpt lat="46.97988" lon="8.72861">
        <ele>584</ele>
        <time>2021-08-05T11:23:02.301Z</time>
      </trkpt>
      <trkpt lat="46.97987" lon="8.72862">
        <ele>584</ele>
        <time>2021-08-05T11:23:03.301Z</time>
      </trkpt>
      <trkpt lat="46.97986" lon="8.72863">
        <ele>584</ele>
        <time>2021-08-05T11:23:04.301Z</time>
      </trkpt>
      <trkpt lat="46.97985" lon="8.72864">
        <ele>584</ele>
        <time>2021-08-05T11:23:05.301Z</time>
      </trkpt>
      <trkpt lat="46.97984" lon="8.72865">
        <ele>584</ele>
        <time>2021-08-05T11:23:06.300Z</time>
      </trkpt>
      <trkpt lat="46.97983" lon="8.72867">
        <ele>584</ele>
        <time>2021-08-05T11:23:07.301Z</time>
      </trkpt>
      <trkpt lat="46.97982" lon="8.72868">
        <ele>584</ele>
        <time>2021-08-05T11:23:08.301Z</time>
      </trkpt>
      <trkpt lat="46.97981" lon="8.72869">
        <ele>584</ele>
        <time>2021-08-05T11:23:09.301Z</time>
      </trkpt>
      <trkpt lat="46.97981" lon="8.7287">
        <ele>584</ele>
        <time>2021-08-05T11:23:10.301Z</time>
      </trkpt>
      <trkpt lat="46.9798" lon="8.72871">
        <ele>584</ele>
        <time>2021-08-05T11:23:11.300Z</time>
      </trkpt>
      <trkpt lat="46.97979" lon="8.72872">
        <ele>584</ele>
        <time>2021-08-05T11:23:12.300Z</time>
      </trkpt>
      <trkpt lat="46.97978" lon="8.72873">
        <ele>584</ele>
        <time>2021-08-05T11:23:13.300Z</time>
      </trkpt>
      <trkpt lat="46.97977" lon="8.72875">
        <ele>584</ele>
        <time>2021-08-05T11:23:14.301Z</time>
      </trkpt>
      <trkpt lat="46.97976" lon="8.72876">
        <ele>585</ele>
        <time>2021-08-05T11:23:15.300Z</time>
      </trkpt>
      <trkpt lat="46.97975" lon="8.72878">
        <ele>585</ele>
        <time>2021-08-05T11:23:16.301Z</time>
      </trkpt>
      <trkpt lat="46.97974" lon="8.72879">
        <ele>585</ele>
        <time>2021-08-05T11:23:17.301Z</time>
      </trkpt>
      <trkpt lat="46.97974" lon="8.7288">
        <ele>585</ele>
        <time>2021-08-05T11:23:18.300Z</time>
      </trkpt>
      <trkpt lat="46.97973" lon="8.72882">
        <ele>585</ele>
        <time>2021-08-05T11:23:19.300Z</time>
      </trkpt>
      <trkpt lat="46.97972" lon="8.72884">
        <ele>585</ele>
        <time>2021-08-05T11:23:20.301Z</time>
      </trkpt>
      <trkpt lat="46.97971" lon="8.72885">
        <ele>585</ele>
        <time>2021-08-05T11:23:21.301Z</time>
      </trkpt>
      <trkpt lat="46.9797" lon="8.72887">
        <ele>585</ele>
        <time>2021-08-05T11:23:22.301Z</time>
      </trkpt>
      <trkpt lat="46.9797" lon="8.72888">
        <ele>585</ele>
        <time>2021-08-05T11:23:23.301Z</time>
      </trkpt>
      <trkpt lat="46.97969" lon="8.7289">
        <ele>585</ele>
        <time>2021-08-05T11:23:24.300Z</time>
      </trkpt>
      <trkpt lat="46.97968" lon="8.72891">
        <ele>585</ele>
        <time>2021-08-05T11:23:25.300Z</time>
      </trkpt>
      <trkpt lat="46.97967" lon="8.72893">
        <ele>584</ele>
        <time>2021-08-05T11:23:26.301Z</time>
      </trkpt>
      <trkpt lat="46.97966" lon="8.72895">
        <ele>584</ele>
        <time>2021-08-05T11:23:27.300Z</time>
      </trkpt>
      <trkpt lat="46.97966" lon="8.72897">
        <ele>583</ele>
        <time>2021-08-05T11:23:28.300Z</time>
      </trkpt>
      <trkpt lat="46.97965" lon="8.72899">
        <ele>583</ele>
        <time>2021-08-05T11:23:29.301Z</time>
      </trkpt>
      <trkpt lat="46.97964" lon="8.729">
        <ele>583</ele>
        <time>2021-08-05T11:23:30.301Z</time>
      </trkpt>
      <trkpt lat="46.97964" lon="8.72902">
        <ele>583</ele>
        <time>2021-08-05T11:23:31.300Z</time>
      </trkpt>
      <trkpt lat="46.97963" lon="8.72903">
        <ele>583</ele>
        <time>2021-08-05T11:23:32.300Z</time>
      </trkpt>
      <trkpt lat="46.97962" lon="8.72904">
        <ele>583</ele>
        <time>2021-08-05T11:23:33.300Z</time>
      </trkpt>
      <trkpt lat="46.97962" lon="8.72905">
        <ele>583</ele>
        <time>2021-08-05T11:23:34.300Z</time>
      </trkpt>
      <trkpt lat="46.97961" lon="8.72907">
        <ele>583</ele>
        <time>2021-08-05T11:23:35.300Z</time>
      </trkpt>
      <trkpt lat="46.9796" lon="8.72908">
        <ele>583</ele>
        <time>2021-08-05T11:23:36.300Z</time>
      </trkpt>
      <trkpt lat="46.9796" lon="8.7291">
        <ele>583</ele>
        <time>2021-08-05T11:23:37.300Z</time>
      </trkpt>
      <trkpt lat="46.97959" lon="8.72911">
        <ele>583</ele>
        <time>2021-08-05T11:23:38.300Z</time>
      </trkpt>
      <trkpt lat="46.97958" lon="8.72913">
        <ele>583</ele>
        <time>2021-08-05T11:23:39.300Z</time>
      </trkpt>
      <trkpt lat="46.97958" lon="8.72914">
        <ele>583</ele>
        <time>2021-08-05T11:23:40.301Z</time>
      </trkpt>
      <trkpt lat="46.97957" lon="8.72916">
        <ele>582</ele>
        <time>2021-08-05T11:23:41.300Z</time>
      </trkpt>
      <trkpt lat="46.97956" lon="8.72917">
        <ele>582</ele>
        <time>2021-08-05T11:23:42.300Z</time>
      </trkpt>
      <trkpt lat="46.97955" lon="8.72918">
        <ele>581</ele>
        <time>2021-08-05T11:23:43.301Z</time>
      </trkpt>
      <trkpt lat="46.97954" lon="8.7292">
        <ele>581</ele>
        <time>2021-08-05T11:23:44.300Z</time>
      </trkpt>
      <trkpt lat="46.97953" lon="8.72921">
        <ele>581</ele>
        <time>2021-08-05T11:23:45.300Z</time>
      </trkpt>
      <trkpt lat="46.97953" lon="8.72923">
        <ele>581</ele>
        <time>2021-08-05T11:23:46.300Z</time>
      </trkpt>
      <trkpt lat="46.97952" lon="8.72924">
        <ele>581</ele>
        <time>2021-08-05T11:23:47.300Z</time>
      </trkpt>
      <trkpt lat="46.97951" lon="8.72925">
        <ele>581</ele>
        <time>2021-08-05T11:23:48.300Z</time>
      </trkpt>
      <trkpt lat="46.97951" lon="8.72926">
        <ele>581</ele>
        <time>2021-08-05T11:23:49.301Z</time>
      </trkpt>
      <trkpt lat="46.9795" lon="8.72928">
        <ele>581</ele>
        <time>2021-08-05T11:23:50.301Z</time>
      </trkpt>
      <trkpt lat="46.97949" lon="8.72929">
        <ele>581</ele>
        <time>2021-08-05T11:23:51.301Z</time>
      </trkpt>
      <trkpt lat="46.97948" lon="8.72931">
        <ele>581</ele>
        <time>2021-08-05T11:23:52.301Z</time>
      </trkpt>
      <trkpt lat="46.97948" lon="8.72932">
        <ele>582</ele>
        <time>2021-08-05T11:23:53.301Z</time>
      </trkpt>
      <trkpt lat="46.97947" lon="8.72934">
        <ele>582</ele>
        <time>2021-08-05T11:23:54.301Z</time>
      </trkpt>
      <trkpt lat="46.97946" lon="8.72935">
        <ele>582</ele>
        <time>2021-08-05T11:23:55.301Z</time>
      </trkpt>
      <trkpt lat="46.97946" lon="8.72937">
        <ele>582</ele>
        <time>2021-08-05T11:23:56.301Z</time>
      </trkpt>
      <trkpt lat="46.97945" lon="8.72938">
        <ele>583</ele>
        <time>2021-08-05T11:23:57.301Z</time>
      </trkpt>
      <trkpt lat="46.97944" lon="8.7294">
        <ele>583</ele>
        <time>2021-08-05T11:23:58.300Z</time>
      </trkpt>
      <trkpt lat="46.97943" lon="8.72941">
        <ele>584</ele>
        <time>2021-08-05T11:23:59.301Z</time>
      </trkpt>
      <trkpt lat="46.97942" lon="8.72943">
        <ele>584</ele>
        <time>2021-08-05T11:24:00.301Z</time>
      </trkpt>
      <trkpt lat="46.97942" lon="8.72945">
        <ele>585</ele>
        <time>2021-08-05T11:24:01.301Z</time>
      </trkpt>
      <trkpt lat="46.97941" lon="8.72947">
        <ele>585</ele>
        <time>2021-08-05T11:24:02.301Z</time>
      </trkpt>
      <trkpt lat="46.9794" lon="8.72948">
        <ele>585</ele>
        <time>2021-08-05T11:24:03.301Z</time>
      </trkpt>
      <trkpt lat="46.9794" lon="8.7295">
        <ele>585</ele>
        <time>2021-08-05T11:24:04.301Z</time>
      </trkpt>
      <trkpt lat="46.97939" lon="8.72951">
        <ele>586</ele>
        <time>2021-08-05T11:24:05.300Z</time>
      </trkpt>
      <trkpt lat="46.97939" lon="8.72953">
        <ele>586</ele>
        <time>2021-08-05T11:24:06.301Z</time>
      </trkpt>
      <trkpt lat="46.97938" lon="8.72954">
        <ele>586</ele>
        <time>2021-08-05T11:24:07.301Z</time>
      </trkpt>
      <trkpt lat="46.97938" lon="8.72955">
        <ele>586</ele>
        <time>2021-08-05T11:24:08.300Z</time>
      </trkpt>
      <trkpt lat="46.97937" lon="8.72956">
        <ele>586</ele>
        <time>2021-08-05T11:24:09.300Z</time>
      </trkpt>
      <trkpt lat="46.97937" lon="8.72957">
        <ele>586</ele>
        <time>2021-08-05T11:24:12.283Z</time>
      </trkpt>
      <trkpt lat="46.97936" lon="8.72959">
        <ele>586</ele>
        <time>2021-08-05T11:24:13.283Z</time>
      </trkpt>
      <trkpt lat="46.97935" lon="8.7296">
        <ele>586</ele>
        <time>2021-08-05T11:24:14.284Z</time>
      </trkpt>
      <trkpt lat="46.97935" lon="8.72961">
        <ele>586</ele>
        <time>2021-08-05T11:24:15.283Z</time>
      </trkpt>
      <trkpt lat="46.97934" lon="8.72963">
        <ele>586</ele>
        <time>2021-08-05T11:24:16.284Z</time>
      </trkpt>
      <trkpt lat="46.97934" lon="8.72964">
        <ele>586</ele>
        <time>2021-08-05T11:24:17.284Z</time>
      </trkpt>
      <trkpt lat="46.97933" lon="8.72965">
        <ele>585</ele>
        <time>2021-08-05T11:24:18.284Z</time>
      </trkpt>
      <trkpt lat="46.97932" lon="8.72967">
        <ele>585</ele>
        <time>2021-08-05T11:24:19.284Z</time>
      </trkpt>
      <trkpt lat="46.97932" lon="8.72968">
        <ele>585</ele>
        <time>2021-08-05T11:24:20.283Z</time>
      </trkpt>
      <trkpt lat="46.97931" lon="8.72969">
        <ele>586</ele>
        <time>2021-08-05T11:24:21.284Z</time>
      </trkpt>
      <trkpt lat="46.97931" lon="8.72971">
        <ele>586</ele>
        <time>2021-08-05T11:24:22.284Z</time>
      </trkpt>
      <trkpt lat="46.9793" lon="8.72972">
        <ele>586</ele>
        <time>2021-08-05T11:24:23.284Z</time>
      </trkpt>
      <trkpt lat="46.9793" lon="8.72973">
        <ele>587</ele>
        <time>2021-08-05T11:24:24.284Z</time>
      </trkpt>
      <trkpt lat="46.97929" lon="8.72974">
        <ele>587</ele>
        <time>2021-08-05T11:24:25.283Z</time>
      </trkpt>
      <trkpt lat="46.97928" lon="8.72975">
        <ele>588</ele>
        <time>2021-08-05T11:24:26.283Z</time>
      </trkpt>
      <trkpt lat="46.97927" lon="8.72976">
        <ele>588</ele>
        <time>2021-08-05T11:24:27.283Z</time>
      </trkpt>
      <trkpt lat="46.97926" lon="8.72977">
        <ele>588</ele>
        <time>2021-08-05T11:24:28.283Z</time>
      </trkpt>
      <trkpt lat="46.97925" lon="8.72978">
        <ele>588</ele>
        <time>2021-08-05T11:24:29.284Z</time>
      </trkpt>
      <trkpt lat="46.97924" lon="8.7298">
        <ele>588</ele>
        <time>2021-08-05T11:24:30.283Z</time>
      </trkpt>
      <trkpt lat="46.97923" lon="8.72982">
        <ele>588</ele>
        <time>2021-08-05T11:24:31.283Z</time>
      </trkpt>
      <trkpt lat="46.97923" lon="8.72983">
        <ele>588</ele>
        <time>2021-08-05T11:24:32.284Z</time>
      </trkpt>
      <trkpt lat="46.97922" lon="8.72985">
        <ele>588</ele>
        <time>2021-08-05T11:24:33.283Z</time>
      </trkpt>
      <trkpt lat="46.97921" lon="8.72986">
        <ele>589</ele>
        <time>2021-08-05T11:24:34.284Z</time>
      </trkpt>
      <trkpt lat="46.9792" lon="8.72987">
        <ele>589</ele>
        <time>2021-08-05T11:24:35.284Z</time>
      </trkpt>
      <trkpt lat="46.97919" lon="8.72988">
        <ele>589</ele>
        <time>2021-08-05T11:24:36.284Z</time>
      </trkpt>
      <trkpt lat="46.97919" lon="8.7299">
        <ele>589</ele>
        <time>2021-08-05T11:24:37.283Z</time>
      </trkpt>
      <trkpt lat="46.97918" lon="8.72992">
        <ele>589</ele>
        <time>2021-08-05T11:24:38.283Z</time>
      </trkpt>
      <trkpt lat="46.97917" lon="8.72993">
        <ele>589</ele>
        <time>2021-08-05T11:24:39.284Z</time>
      </trkpt>
      <trkpt lat="46.97917" lon="8.72994">
        <ele>589</ele>
        <time>2021-08-05T11:24:40.283Z</time>
      </trkpt>
      <trkpt lat="46.97916" lon="8.72996">
        <ele>589</ele>
        <time>2021-08-05T11:24:41.283Z</time>
      </trkpt>
      <trkpt lat="46.97915" lon="8.72997">
        <ele>588</ele>
        <time>2021-08-05T11:24:42.284Z</time>
      </trkpt>
      <trkpt lat="46.97914" lon="8.72999">
        <ele>588</ele>
        <time>2021-08-05T11:24:43.284Z</time>
      </trkpt>
      <trkpt lat="46.97913" lon="8.73">
        <ele>588</ele>
        <time>2021-08-05T11:24:44.283Z</time>
      </trkpt>
      <trkpt lat="46.97912" lon="8.73001">
        <ele>587</ele>
        <time>2021-08-05T11:24:45.283Z</time>
      </trkpt>
      <trkpt lat="46.97911" lon="8.73002">
        <ele>587</ele>
        <time>2021-08-05T11:24:46.284Z</time>
      </trkpt>
      <trkpt lat="46.9791" lon="8.73003">
        <ele>586</ele>
        <time>2021-08-05T11:24:47.284Z</time>
      </trkpt>
      <trkpt lat="46.97909" lon="8.73005">
        <ele>586</ele>
        <time>2021-08-05T11:24:48.283Z</time>
      </trkpt>
      <trkpt lat="46.97908" lon="8.73006">
        <ele>586</ele>
        <time>2021-08-05T11:24:49.284Z</time>
      </trkpt>
      <trkpt lat="46.97907" lon="8.73007">
        <ele>586</ele>
        <time>2021-08-05T11:24:50.283Z</time>
      </trkpt>
      <trkpt lat="46.97906" lon="8.73008">
        <ele>586</ele>
        <time>2021-08-05T11:24:51.283Z</time>
      </trkpt>
      <trkpt lat="46.97905" lon="8.73009">
        <ele>587</ele>
        <time>2021-08-05T11:24:52.283Z</time>
      </trkpt>
      <trkpt lat="46.97904" lon="8.73011">
        <ele>587</ele>
        <time>2021-08-05T11:24:53.284Z</time>
      </trkpt>
      <trkpt lat="46.97903" lon="8.73012">
        <ele>588</ele>
        <time>2021-08-05T11:24:54.284Z</time>
      </trkpt>
      <trkpt lat="46.97902" lon="8.73013">
        <ele>588</ele>
        <time>2021-08-05T11:24:55.284Z</time>
      </trkpt>
      <trkpt lat="46.97901" lon="8.73014">
        <ele>588</ele>
        <time>2021-08-05T11:24:56.283Z</time>
      </trkpt>
      <trkpt lat="46.979" lon="8.73015">
        <ele>588</ele>
        <time>2021-08-05T11:24:57.284Z</time>
      </trkpt>
      <trkpt lat="46.97899" lon="8.73016">
        <ele>588</ele>
        <time>2021-08-05T11:24:58.284Z</time>
      </trkpt>
      <trkpt lat="46.97898" lon="8.73017">
        <ele>588</ele>
        <time>2021-08-05T11:24:59.284Z</time>
      </trkpt>
      <trkpt lat="46.97897" lon="8.73018">
        <ele>589</ele>
        <time>2021-08-05T11:25:00.283Z</time>
      </trkpt>
      <trkpt lat="46.97896" lon="8.73019">
        <ele>589</ele>
        <time>2021-08-05T11:25:01.283Z</time>
      </trkpt>
      <trkpt lat="46.97895" lon="8.73021">
        <ele>589</ele>
        <time>2021-08-05T11:25:02.284Z</time>
      </trkpt>
      <trkpt lat="46.97894" lon="8.73022">
        <ele>590</ele>
        <time>2021-08-05T11:25:03.284Z</time>
      </trkpt>
      <trkpt lat="46.97893" lon="8.73023">
        <ele>590</ele>
        <time>2021-08-05T11:25:04.283Z</time>
      </trkpt>
      <trkpt lat="46.97892" lon="8.73025">
        <ele>590</ele>
        <time>2021-08-05T11:25:05.284Z</time>
      </trkpt>
      <trkpt lat="46.97892" lon="8.73026">
        <ele>590</ele>
        <time>2021-08-05T11:25:06.284Z</time>
      </trkpt>
      <trkpt lat="46.97891" lon="8.73028">
        <ele>589</ele>
        <time>2021-08-05T11:25:07.284Z</time>
      </trkpt>
      <trkpt lat="46.97891" lon="8.73029">
        <ele>589</ele>
        <time>2021-08-05T11:25:08.283Z</time>
      </trkpt>
      <trkpt lat="46.97891" lon="8.73031">
        <ele>589</ele>
        <time>2021-08-05T11:25:09.284Z</time>
      </trkpt>
      <trkpt lat="46.97891" lon="8.73033">
        <ele>589</ele>
        <time>2021-08-05T11:25:10.283Z</time>
      </trkpt>
      <trkpt lat="46.97891" lon="8.73035">
        <ele>588</ele>
        <time>2021-08-05T11:25:11.284Z</time>
      </trkpt>
      <trkpt lat="46.97891" lon="8.73037">
        <ele>588</ele>
        <time>2021-08-05T11:25:12.284Z</time>
      </trkpt>
      <trkpt lat="46.97891" lon="8.73039">
        <ele>588</ele>
        <time>2021-08-05T11:25:13.284Z</time>
      </trkpt>
      <trkpt lat="46.97891" lon="8.73041">
        <ele>587</ele>
        <time>2021-08-05T11:25:14.283Z</time>
      </trkpt>
      <trkpt lat="46.9789" lon="8.73043">
        <ele>587</ele>
        <time>2021-08-05T11:25:15.284Z</time>
      </trkpt>
      <trkpt lat="46.9789" lon="8.73045">
        <ele>587</ele>
        <time>2021-08-05T11:25:16.284Z</time>
      </trkpt>
      <trkpt lat="46.97889" lon="8.73047">
        <ele>587</ele>
        <time>2021-08-05T11:25:17.284Z</time>
      </trkpt>
      <trkpt lat="46.97888" lon="8.73048">
        <ele>588</ele>
        <time>2021-08-05T11:25:18.284Z</time>
      </trkpt>
      <trkpt lat="46.97887" lon="8.7305">
        <ele>588</ele>
        <time>2021-08-05T11:25:19.283Z</time>
      </trkpt>
      <trkpt lat="46.97887" lon="8.73051">
        <ele>588</ele>
        <time>2021-08-05T11:25:20.283Z</time>
      </trkpt>
      <trkpt lat="46.97886" lon="8.73053">
        <ele>588</ele>
        <time>2021-08-05T11:25:21.284Z</time>
      </trkpt>
      <trkpt lat="46.97886" lon="8.73055">
        <ele>588</ele>
        <time>2021-08-05T11:25:22.283Z</time>
      </trkpt>
      <trkpt lat="46.97885" lon="8.73056">
        <ele>589</ele>
        <time>2021-08-05T11:25:23.284Z</time>
      </trkpt>
      <trkpt lat="46.97885" lon="8.73058">
        <ele>589</ele>
        <time>2021-08-05T11:25:24.283Z</time>
      </trkpt>
      <trkpt lat="46.97884" lon="8.73059">
        <ele>590</ele>
        <time>2021-08-05T11:25:25.283Z</time>
      </trkpt>
      <trkpt lat="46.97884" lon="8.73061">
        <ele>590</ele>
        <time>2021-08-05T11:25:26.283Z</time>
      </trkpt>
      <trkpt lat="46.97883" lon="8.73063">
        <ele>591</ele>
        <time>2021-08-05T11:25:27.284Z</time>
      </trkpt>
      <trkpt lat="46.97882" lon="8.73064">
        <ele>591</ele>
        <time>2021-08-05T11:25:28.284Z</time>
      </trkpt>
      <trkpt lat="46.97882" lon="8.73066">
        <ele>591</ele>
        <time>2021-08-05T11:25:29.284Z</time>
      </trkpt>
      <trkpt lat="46.97881" lon="8.73068">
        <ele>592</ele>
        <time>2021-08-05T11:25:30.284Z</time>
      </trkpt>
      <trkpt lat="46.97881" lon="8.7307">
        <ele>592</ele>
        <time>2021-08-05T11:25:31.284Z</time>
      </trkpt>
      <trkpt lat="46.9788" lon="8.73072">
        <ele>592</ele>
        <time>2021-08-05T11:25:32.283Z</time>
      </trkpt>
      <trkpt lat="46.97879" lon="8.73073">
        <ele>593</ele>
        <time>2021-08-05T11:25:33.284Z</time>
      </trkpt>
      <trkpt lat="46.97879" lon="8.73075">
        <ele>593</ele>
        <time>2021-08-05T11:25:34.283Z</time>
      </trkpt>
      <trkpt lat="46.97878" lon="8.73077">
        <ele>593</ele>
        <time>2021-08-05T11:25:35.283Z</time>
      </trkpt>
      <trkpt lat="46.97878" lon="8.73079">
        <ele>593</ele>
        <time>2021-08-05T11:25:36.284Z</time>
      </trkpt>
      <trkpt lat="46.97878" lon="8.73081">
        <ele>593</ele>
        <time>2021-08-05T11:25:37.284Z</time>
      </trkpt>
      <trkpt lat="46.97877" lon="8.73084">
        <ele>593</ele>
        <time>2021-08-05T11:25:38.283Z</time>
      </trkpt>
      <trkpt lat="46.97877" lon="8.73085">
        <ele>593</ele>
        <time>2021-08-05T11:25:39.284Z</time>
      </trkpt>
      <trkpt lat="46.97877" lon="8.73087">
        <ele>593</ele>
        <time>2021-08-05T11:25:40.284Z</time>
      </trkpt>
      <trkpt lat="46.97877" lon="8.73089">
        <ele>593</ele>
        <time>2021-08-05T11:25:41.284Z</time>
      </trkpt>
      <trkpt lat="46.97877" lon="8.73091">
        <ele>592</ele>
        <time>2021-08-05T11:25:42.284Z</time>
      </trkpt>
      <trkpt lat="46.97877" lon="8.73093">
        <ele>592</ele>
        <time>2021-08-05T11:25:43.283Z</time>
      </trkpt>
      <trkpt lat="46.97877" lon="8.73094">
        <ele>592</ele>
        <time>2021-08-05T11:25:44.284Z</time>
      </trkpt>
      <trkpt lat="46.97877" lon="8.73096">
        <ele>591</ele>
        <time>2021-08-05T11:25:45.284Z</time>
      </trkpt>
      <trkpt lat="46.97876" lon="8.73098">
        <ele>591</ele>
        <time>2021-08-05T11:25:46.284Z</time>
      </trkpt>
      <trkpt lat="46.97876" lon="8.73101">
        <ele>591</ele>
        <time>2021-08-05T11:25:47.284Z</time>
      </trkpt>
      <trkpt lat="46.97877" lon="8.73102">
        <ele>591</ele>
        <time>2021-08-05T11:25:48.284Z</time>
      </trkpt>
      <trkpt lat="46.97877" lon="8.73104">
        <ele>591</ele>
        <time>2021-08-05T11:25:49.284Z</time>
      </trkpt>
      <trkpt lat="46.97876" lon="8.73106">
        <ele>590</ele>
        <time>2021-08-05T11:25:50.283Z</time>
      </trkpt>
      <trkpt lat="46.97876" lon="8.73108">
        <ele>590</ele>
        <time>2021-08-05T11:25:51.283Z</time>
      </trkpt>
      <trkpt lat="46.97876" lon="8.7311">
        <ele>590</ele>
        <time>2021-08-05T11:25:52.283Z</time>
      </trkpt>
      <trkpt lat="46.97876" lon="8.73112">
        <ele>591</ele>
        <time>2021-08-05T11:25:53.284Z</time>
      </trkpt>
      <trkpt lat="46.97876" lon="8.73114">
        <ele>591</ele>
        <time>2021-08-05T11:25:54.283Z</time>
      </trkpt>
      <trkpt lat="46.97876" lon="8.73116">
        <ele>591</ele>
        <time>2021-08-05T11:25:55.284Z</time>
      </trkpt>
      <trkpt lat="46.97876" lon="8.73118">
        <ele>591</ele>
        <time>2021-08-05T11:25:56.284Z</time>
      </trkpt>
      <trkpt lat="46.97875" lon="8.7312">
        <ele>591</ele>
        <time>2021-08-05T11:25:57.284Z</time>
      </trkpt>
      <trkpt lat="46.97875" lon="8.73122">
        <ele>590</ele>
        <time>2021-08-05T11:25:58.284Z</time>
      </trkpt>
      <trkpt lat="46.97875" lon="8.73124">
        <ele>590</ele>
        <time>2021-08-05T11:25:59.283Z</time>
      </trkpt>
      <trkpt lat="46.97876" lon="8.73126">
        <ele>590</ele>
        <time>2021-08-05T11:26:00.284Z</time>
      </trkpt>
      <trkpt lat="46.97876" lon="8.73127">
        <ele>590</ele>
        <time>2021-08-05T11:26:01.283Z</time>
      </trkpt>
      <trkpt lat="46.97876" lon="8.73129">
        <ele>589</ele>
        <time>2021-08-05T11:26:02.284Z</time>
      </trkpt>
      <trkpt lat="46.97876" lon="8.73131">
        <ele>589</ele>
        <time>2021-08-05T11:26:03.284Z</time>
      </trkpt>
      <trkpt lat="46.97876" lon="8.73133">
        <ele>588</ele>
        <time>2021-08-05T11:26:04.284Z</time>
      </trkpt>
      <trkpt lat="46.97876" lon="8.73135">
        <ele>587</ele>
        <time>2021-08-05T11:26:05.284Z</time>
      </trkpt>
      <trkpt lat="46.97877" lon="8.73137">
        <ele>587</ele>
        <time>2021-08-05T11:26:06.284Z</time>
      </trkpt>
      <trkpt lat="46.97877" lon="8.73139">
        <ele>587</ele>
        <time>2021-08-05T11:26:07.283Z</time>
      </trkpt>
      <trkpt lat="46.97877" lon="8.73141">
        <ele>587</ele>
        <time>2021-08-05T11:26:08.284Z</time>
      </trkpt>
      <trkpt lat="46.97876" lon="8.73143">
        <ele>587</ele>
        <time>2021-08-05T11:26:09.284Z</time>
      </trkpt>
      <trkpt lat="46.97876" lon="8.73145">
        <ele>587</ele>
        <time>2021-08-05T11:26:10.284Z</time>
      </trkpt>
      <trkpt lat="46.97876" lon="8.73147">
        <ele>587</ele>
        <time>2021-08-05T11:26:11.284Z</time>
      </trkpt>
      <trkpt lat="46.97876" lon="8.73148">
        <ele>588</ele>
        <time>2021-08-05T11:26:12.284Z</time>
      </trkpt>
      <trkpt lat="46.97875" lon="8.73149">
        <ele>588</ele>
        <time>2021-08-05T11:26:13.283Z</time>
      </trkpt>
      <trkpt lat="46.97875" lon="8.7315">
        <ele>589</ele>
        <time>2021-08-05T11:26:14.284Z</time>
      </trkpt>
      <trkpt lat="46.97874" lon="8.73152">
        <ele>589</ele>
        <time>2021-08-05T11:26:15.283Z</time>
      </trkpt>
      <trkpt lat="46.97874" lon="8.73154">
        <ele>590</ele>
        <time>2021-08-05T11:26:16.284Z</time>
      </trkpt>
      <trkpt lat="46.97871" lon="8.73162">
        <ele>590</ele>
        <time>2021-08-05T11:26:19.286Z</time>
      </trkpt>
      <trkpt lat="46.97872" lon="8.73164">
        <ele>590</ele>
        <time>2021-08-05T11:26:20.285Z</time>
      </trkpt>
      <trkpt lat="46.97873" lon="8.73165">
        <ele>590</ele>
        <time>2021-08-05T11:26:21.285Z</time>
      </trkpt>
      <trkpt lat="46.97874" lon="8.73167">
        <ele>590</ele>
        <time>2021-08-05T11:26:22.285Z</time>
      </trkpt>
      <trkpt lat="46.97875" lon="8.73168">
        <ele>590</ele>
        <time>2021-08-05T11:26:23.286Z</time>
      </trkpt>
      <trkpt lat="46.97875" lon="8.73169">
        <ele>590</ele>
        <time>2021-08-05T11:26:24.286Z</time>
      </trkpt>
      <trkpt lat="46.97876" lon="8.73171">
        <ele>591</ele>
        <time>2021-08-05T11:26:25.286Z</time>
      </trkpt>
      <trkpt lat="46.97876" lon="8.73173">
        <ele>591</ele>
        <time>2021-08-05T11:26:26.286Z</time>
      </trkpt>
      <trkpt lat="46.97876" lon="8.73175">
        <ele>591</ele>
        <time>2021-08-05T11:26:27.285Z</time>
      </trkpt>
      <trkpt lat="46.97877" lon="8.73176">
        <ele>591</ele>
        <time>2021-08-05T11:26:28.286Z</time>
      </trkpt>
      <trkpt lat="46.97877" lon="8.73178">
        <ele>591</ele>
        <time>2021-08-05T11:26:29.286Z</time>
      </trkpt>
      <trkpt lat="46.97877" lon="8.73182">
        <ele>591</ele>
        <time>2021-08-05T11:26:30.285Z</time>
      </trkpt>
      <trkpt lat="46.97878" lon="8.73185">
        <ele>592</ele>
        <time>2021-08-05T11:26:31.286Z</time>
      </trkpt>
      <trkpt lat="46.97878" lon="8.73187">
        <ele>592</ele>
        <time>2021-08-05T11:26:32.286Z</time>
      </trkpt>
      <trkpt lat="46.97878" lon="8.73189">
        <ele>592</ele>
        <time>2021-08-05T11:26:33.286Z</time>
      </trkpt>
      <trkpt lat="46.97878" lon="8.73191">
        <ele>592</ele>
        <time>2021-08-05T11:26:34.286Z</time>
      </trkpt>
      <trkpt lat="46.97878" lon="8.73194">
        <ele>592</ele>
        <time>2021-08-05T11:26:35.286Z</time>
      </trkpt>
      <trkpt lat="46.97878" lon="8.73195">
        <ele>593</ele>
        <time>2021-08-05T11:26:36.285Z</time>
      </trkpt>
      <trkpt lat="46.97878" lon="8.73197">
        <ele>593</ele>
        <time>2021-08-05T11:26:37.286Z</time>
      </trkpt>
      <trkpt lat="46.97878" lon="8.732">
        <ele>593</ele>
        <time>2021-08-05T11:26:38.286Z</time>
      </trkpt>
      <trkpt lat="46.97877" lon="8.73202">
        <ele>594</ele>
        <time>2021-08-05T11:26:39.285Z</time>
      </trkpt>
      <trkpt lat="46.97877" lon="8.73204">
        <ele>594</ele>
        <time>2021-08-05T11:26:40.285Z</time>
      </trkpt>
      <trkpt lat="46.97877" lon="8.73206">
        <ele>594</ele>
        <time>2021-08-05T11:26:41.286Z</time>
      </trkpt>
      <trkpt lat="46.97877" lon="8.73208">
        <ele>595</ele>
        <time>2021-08-05T11:26:42.285Z</time>
      </trkpt>
      <trkpt lat="46.97877" lon="8.73209">
        <ele>595</ele>
        <time>2021-08-05T11:26:43.286Z</time>
      </trkpt>
      <trkpt lat="46.97876" lon="8.73211">
        <ele>595</ele>
        <time>2021-08-05T11:26:44.285Z</time>
      </trkpt>
      <trkpt lat="46.97876" lon="8.73212">
        <ele>594</ele>
        <time>2021-08-05T11:26:45.286Z</time>
      </trkpt>
      <trkpt lat="46.97876" lon="8.73214">
        <ele>594</ele>
        <time>2021-08-05T11:26:46.286Z</time>
      </trkpt>
      <trkpt lat="46.97876" lon="8.73215">
        <ele>593</ele>
        <time>2021-08-05T11:26:47.286Z</time>
      </trkpt>
      <trkpt lat="46.97876" lon="8.73217">
        <ele>592</ele>
        <time>2021-08-05T11:26:48.286Z</time>
      </trkpt>
      <trkpt lat="46.97876" lon="8.73218">
        <ele>592</ele>
        <time>2021-08-05T11:26:49.285Z</time>
      </trkpt>
      <trkpt lat="46.97875" lon="8.7322">
        <ele>592</ele>
        <time>2021-08-05T11:26:50.285Z</time>
      </trkpt>
      <trkpt lat="46.97875" lon="8.73222">
        <ele>592</ele>
        <time>2021-08-05T11:26:51.286Z</time>
      </trkpt>
      <trkpt lat="46.97874" lon="8.73224">
        <ele>591</ele>
        <time>2021-08-05T11:26:52.285Z</time>
      </trkpt>
      <trkpt lat="46.97874" lon="8.73225">
        <ele>591</ele>
        <time>2021-08-05T11:26:53.286Z</time>
      </trkpt>
      <trkpt lat="46.97873" lon="8.73227">
        <ele>591</ele>
        <time>2021-08-05T11:26:54.286Z</time>
      </trkpt>
      <trkpt lat="46.97873" lon="8.73229">
        <ele>590</ele>
        <time>2021-08-05T11:26:55.285Z</time>
      </trkpt>
      <trkpt lat="46.97872" lon="8.7323">
        <ele>589</ele>
        <time>2021-08-05T11:26:56.286Z</time>
      </trkpt>
      <trkpt lat="46.97872" lon="8.73232">
        <ele>588</ele>
        <time>2021-08-05T11:26:57.285Z</time>
      </trkpt>
      <trkpt lat="46.97871" lon="8.73234">
        <ele>588</ele>
        <time>2021-08-05T11:26:58.285Z</time>
      </trkpt>
      <trkpt lat="46.97871" lon="8.73236">
        <ele>588</ele>
        <time>2021-08-05T11:26:59.285Z</time>
      </trkpt>
      <trkpt lat="46.9787" lon="8.73237">
        <ele>588</ele>
        <time>2021-08-05T11:27:00.286Z</time>
      </trkpt>
      <trkpt lat="46.97869" lon="8.73239">
        <ele>588</ele>
        <time>2021-08-05T11:27:01.286Z</time>
      </trkpt>
      <trkpt lat="46.97869" lon="8.73241">
        <ele>588</ele>
        <time>2021-08-05T11:27:02.286Z</time>
      </trkpt>
      <trkpt lat="46.97868" lon="8.73242">
        <ele>588</ele>
        <time>2021-08-05T11:27:03.285Z</time>
      </trkpt>
      <trkpt lat="46.97868" lon="8.73244">
        <ele>588</ele>
        <time>2021-08-05T11:27:04.286Z</time>
      </trkpt>
      <trkpt lat="46.97867" lon="8.73245">
        <ele>587</ele>
        <time>2021-08-05T11:27:05.286Z</time>
      </trkpt>
      <trkpt lat="46.97867" lon="8.73246">
        <ele>587</ele>
        <time>2021-08-05T11:27:06.286Z</time>
      </trkpt>
      <trkpt lat="46.97866" lon="8.73248">
        <ele>587</ele>
        <time>2021-08-05T11:27:07.286Z</time>
      </trkpt>
      <trkpt lat="46.97865" lon="8.7325">
        <ele>587</ele>
        <time>2021-08-05T11:27:08.285Z</time>
      </trkpt>
      <trkpt lat="46.97864" lon="8.73251">
        <ele>587</ele>
        <time>2021-08-05T11:27:09.286Z</time>
      </trkpt>
      <trkpt lat="46.97864" lon="8.73253">
        <ele>587</ele>
        <time>2021-08-05T11:27:10.285Z</time>
      </trkpt>
      <trkpt lat="46.97863" lon="8.73254">
        <ele>587</ele>
        <time>2021-08-05T11:27:11.286Z</time>
      </trkpt>
      <trkpt lat="46.97862" lon="8.73256">
        <ele>587</ele>
        <time>2021-08-05T11:27:12.285Z</time>
      </trkpt>
      <trkpt lat="46.97862" lon="8.73257">
        <ele>588</ele>
        <time>2021-08-05T11:27:13.286Z</time>
      </trkpt>
      <trkpt lat="46.97861" lon="8.73258">
        <ele>588</ele>
        <time>2021-08-05T11:27:14.286Z</time>
      </trkpt>
      <trkpt lat="46.9786" lon="8.7326">
        <ele>588</ele>
        <time>2021-08-05T11:27:15.286Z</time>
      </trkpt>
      <trkpt lat="46.97859" lon="8.73262">
        <ele>589</ele>
        <time>2021-08-05T11:27:16.286Z</time>
      </trkpt>
      <trkpt lat="46.97858" lon="8.73264">
        <ele>589</ele>
        <time>2021-08-05T11:27:17.285Z</time>
      </trkpt>
      <trkpt lat="46.97857" lon="8.73266">
        <ele>589</ele>
        <time>2021-08-05T11:27:18.286Z</time>
      </trkpt>
      <trkpt lat="46.97857" lon="8.73268">
        <ele>589</ele>
        <time>2021-08-05T11:27:19.286Z</time>
      </trkpt>
      <trkpt lat="46.97856" lon="8.73269">
        <ele>589</ele>
        <time>2021-08-05T11:27:20.285Z</time>
      </trkpt>
      <trkpt lat="46.97855" lon="8.7327">
        <ele>589</ele>
        <time>2021-08-05T11:27:21.285Z</time>
      </trkpt>
      <trkpt lat="46.97854" lon="8.73272">
        <ele>589</ele>
        <time>2021-08-05T11:27:22.286Z</time>
      </trkpt>
      <trkpt lat="46.97853" lon="8.73274">
        <ele>590</ele>
        <time>2021-08-05T11:27:23.286Z</time>
      </trkpt>
      <trkpt lat="46.97853" lon="8.73275">
        <ele>591</ele>
        <time>2021-08-05T11:27:24.286Z</time>
      </trkpt>
      <trkpt lat="46.97852" lon="8.73276">
        <ele>591</ele>
        <time>2021-08-05T11:27:25.286Z</time>
      </trkpt>
      <trkpt lat="46.97851" lon="8.73277">
        <ele>592</ele>
        <time>2021-08-05T11:27:26.286Z</time>
      </trkpt>
      <trkpt lat="46.97851" lon="8.73278">
        <ele>593</ele>
        <time>2021-08-05T11:27:27.286Z</time>
      </trkpt>
      <trkpt lat="46.9785" lon="8.7328">
        <ele>594</ele>
        <time>2021-08-05T11:27:28.286Z</time>
      </trkpt>
      <trkpt lat="46.97849" lon="8.73282">
        <ele>594</ele>
        <time>2021-08-05T11:27:29.286Z</time>
      </trkpt>
      <trkpt lat="46.97849" lon="8.73283">
        <ele>594</ele>
        <time>2021-08-05T11:27:30.285Z</time>
      </trkpt>
      <trkpt lat="46.97848" lon="8.73285">
        <ele>595</ele>
        <time>2021-08-05T11:27:31.285Z</time>
      </trkpt>
      <trkpt lat="46.97847" lon="8.73287">
        <ele>595</ele>
        <time>2021-08-05T11:27:32.285Z</time>
      </trkpt>
      <trkpt lat="46.97846" lon="8.73289">
        <ele>595</ele>
        <time>2021-08-05T11:27:33.285Z</time>
      </trkpt>
      <trkpt lat="46.97846" lon="8.7329">
        <ele>595</ele>
        <time>2021-08-05T11:27:34.285Z</time>
      </trkpt>
      <trkpt lat="46.97845" lon="8.73292">
        <ele>595</ele>
        <time>2021-08-05T11:27:35.285Z</time>
      </trkpt>
      <trkpt lat="46.97844" lon="8.73293">
        <ele>595</ele>
        <time>2021-08-05T11:27:36.286Z</time>
      </trkpt>
      <trkpt lat="46.97843" lon="8.73293">
        <ele>595</ele>
        <time>2021-08-05T11:27:37.285Z</time>
      </trkpt>
      <trkpt lat="46.97841" lon="8.73294">
        <ele>595</ele>
        <time>2021-08-05T11:27:38.286Z</time>
      </trkpt>
      <trkpt lat="46.97841" lon="8.73296">
        <ele>595</ele>
        <time>2021-08-05T11:27:39.286Z</time>
      </trkpt>
      <trkpt lat="46.9784" lon="8.73297">
        <ele>595</ele>
        <time>2021-08-05T11:27:40.285Z</time>
      </trkpt>
      <trkpt lat="46.97839" lon="8.73299">
        <ele>595</ele>
        <time>2021-08-05T11:27:41.286Z</time>
      </trkpt>
      <trkpt lat="46.97839" lon="8.733">
        <ele>595</ele>
        <time>2021-08-05T11:27:42.285Z</time>
      </trkpt>
      <trkpt lat="46.97838" lon="8.73302">
        <ele>594</ele>
        <time>2021-08-05T11:27:43.286Z</time>
      </trkpt>
      <trkpt lat="46.97838" lon="8.73304">
        <ele>594</ele>
        <time>2021-08-05T11:27:44.285Z</time>
      </trkpt>
      <trkpt lat="46.97837" lon="8.73305">
        <ele>594</ele>
        <time>2021-08-05T11:27:45.285Z</time>
      </trkpt>
      <trkpt lat="46.97836" lon="8.73306">
        <ele>594</ele>
        <time>2021-08-05T11:27:46.285Z</time>
      </trkpt>
      <trkpt lat="46.97835" lon="8.73307">
        <ele>593</ele>
        <time>2021-08-05T11:27:47.286Z</time>
      </trkpt>
      <trkpt lat="46.97835" lon="8.73309">
        <ele>593</ele>
        <time>2021-08-05T11:27:48.285Z</time>
      </trkpt>
      <trkpt lat="46.97834" lon="8.7331">
        <ele>593</ele>
        <time>2021-08-05T11:27:49.285Z</time>
      </trkpt>
      <trkpt lat="46.97833" lon="8.73312">
        <ele>593</ele>
        <time>2021-08-05T11:27:50.286Z</time>
      </trkpt>
      <trkpt lat="46.97832" lon="8.73314">
        <ele>593</ele>
        <time>2021-08-05T11:27:51.286Z</time>
      </trkpt>
      <trkpt lat="46.97832" lon="8.73316">
        <ele>593</ele>
        <time>2021-08-05T11:27:52.285Z</time>
      </trkpt>
      <trkpt lat="46.97832" lon="8.73318">
        <ele>593</ele>
        <time>2021-08-05T11:27:53.285Z</time>
      </trkpt>
      <trkpt lat="46.97831" lon="8.73319">
        <ele>592</ele>
        <time>2021-08-05T11:27:54.285Z</time>
      </trkpt>
      <trkpt lat="46.97831" lon="8.73321">
        <ele>592</ele>
        <time>2021-08-05T11:27:55.285Z</time>
      </trkpt>
      <trkpt lat="46.9783" lon="8.73323">
        <ele>592</ele>
        <time>2021-08-05T11:27:56.285Z</time>
      </trkpt>
      <trkpt lat="46.9783" lon="8.73325">
        <ele>592</ele>
        <time>2021-08-05T11:27:57.286Z</time>
      </trkpt>
      <trkpt lat="46.9783" lon="8.73327">
        <ele>592</ele>
        <time>2021-08-05T11:27:58.285Z</time>
      </trkpt>
      <trkpt lat="46.97831" lon="8.73329">
        <ele>591</ele>
        <time>2021-08-05T11:27:59.285Z</time>
      </trkpt>
      <trkpt lat="46.97831" lon="8.7333">
        <ele>591</ele>
        <time>2021-08-05T11:28:00.285Z</time>
      </trkpt>
      <trkpt lat="46.97831" lon="8.73332">
        <ele>591</ele>
        <time>2021-08-05T11:28:01.286Z</time>
      </trkpt>
      <trkpt lat="46.97831" lon="8.73333">
        <ele>590</ele>
        <time>2021-08-05T11:28:02.285Z</time>
      </trkpt>
      <trkpt lat="46.97832" lon="8.73335">
        <ele>590</ele>
        <time>2021-08-05T11:28:03.285Z</time>
      </trkpt>
      <trkpt lat="46.97832" lon="8.73336">
        <ele>590</ele>
        <time>2021-08-05T11:28:04.285Z</time>
      </trkpt>
      <trkpt lat="46.97832" lon="8.73338">
        <ele>590</ele>
        <time>2021-08-05T11:28:05.285Z</time>
      </trkpt>
      <trkpt lat="46.97833" lon="8.73339">
        <ele>590</ele>
        <time>2021-08-05T11:28:06.286Z</time>
      </trkpt>
      <trkpt lat="46.97833" lon="8.7334">
        <ele>590</ele>
        <time>2021-08-05T11:28:07.285Z</time>
      </trkpt>
      <trkpt lat="46.97833" lon="8.73342">
        <ele>590</ele>
        <time>2021-08-05T11:28:08.285Z</time>
      </trkpt>
      <trkpt lat="46.97833" lon="8.73344">
        <ele>591</ele>
        <time>2021-08-05T11:28:09.286Z</time>
      </trkpt>
      <trkpt lat="46.97832" lon="8.73346">
        <ele>591</ele>
        <time>2021-08-05T11:28:10.285Z</time>
      </trkpt>
      <trkpt lat="46.97832" lon="8.73348">
        <ele>591</ele>
        <time>2021-08-05T11:28:11.285Z</time>
      </trkpt>
      <trkpt lat="46.97831" lon="8.7335">
        <ele>592</ele>
        <time>2021-08-05T11:28:12.285Z</time>
      </trkpt>
      <trkpt lat="46.97831" lon="8.73352">
        <ele>592</ele>
        <time>2021-08-05T11:28:13.286Z</time>
      </trkpt>
      <trkpt lat="46.97831" lon="8.73354">
        <ele>592</ele>
        <time>2021-08-05T11:28:14.286Z</time>
      </trkpt>
      <trkpt lat="46.9783" lon="8.73357">
        <ele>593</ele>
        <time>2021-08-05T11:28:15.285Z</time>
      </trkpt>
      <trkpt lat="46.97831" lon="8.73359">
        <ele>593</ele>
        <time>2021-08-05T11:28:16.285Z</time>
      </trkpt>
      <trkpt lat="46.97831" lon="8.7336">
        <ele>592</ele>
        <time>2021-08-05T11:28:17.286Z</time>
      </trkpt>
      <trkpt lat="46.97831" lon="8.73362">
        <ele>592</ele>
        <time>2021-08-05T11:28:18.285Z</time>
      </trkpt>
      <trkpt lat="46.97831" lon="8.73363">
        <ele>591</ele>
        <time>2021-08-05T11:28:19.286Z</time>
      </trkpt>
      <trkpt lat="46.97831" lon="8.73365">
        <ele>591</ele>
        <time>2021-08-05T11:28:20.285Z</time>
      </trkpt>
      <trkpt lat="46.9783" lon="8.73366">
        <ele>591</ele>
        <time>2021-08-05T11:28:21.286Z</time>
      </trkpt>
      <trkpt lat="46.9783" lon="8.73367">
        <ele>590</ele>
        <time>2021-08-05T11:28:22.286Z</time>
      </trkpt>
      <trkpt lat="46.9783" lon="8.73369">
        <ele>590</ele>
        <time>2021-08-05T11:28:23.286Z</time>
      </trkpt>
      <trkpt lat="46.9783" lon="8.7337">
        <ele>589</ele>
        <time>2021-08-05T11:28:24.286Z</time>
      </trkpt>
      <trkpt lat="46.9783" lon="8.73372">
        <ele>589</ele>
        <time>2021-08-05T11:28:25.286Z</time>
      </trkpt>
      <trkpt lat="46.9783" lon="8.73374">
        <ele>589</ele>
        <time>2021-08-05T11:28:26.286Z</time>
      </trkpt>
      <trkpt lat="46.9783" lon="8.73376">
        <ele>589</ele>
        <time>2021-08-05T11:28:27.285Z</time>
      </trkpt>
      <trkpt lat="46.97829" lon="8.73378">
        <ele>589</ele>
        <time>2021-08-05T11:28:28.286Z</time>
      </trkpt>
      <trkpt lat="46.97829" lon="8.7338">
        <ele>589</ele>
        <time>2021-08-05T11:28:29.285Z</time>
      </trkpt>
      <trkpt lat="46.97829" lon="8.73381">
        <ele>590</ele>
        <time>2021-08-05T11:28:30.286Z</time>
      </trkpt>
      <trkpt lat="46.97829" lon="8.73383">
        <ele>590</ele>
        <time>2021-08-05T11:28:31.285Z</time>
      </trkpt>
      <trkpt lat="46.97829" lon="8.73385">
        <ele>590</ele>
        <time>2021-08-05T11:28:32.286Z</time>
      </trkpt>
      <trkpt lat="46.97828" lon="8.73386">
        <ele>591</ele>
        <time>2021-08-05T11:28:33.286Z</time>
      </trkpt>
      <trkpt lat="46.97828" lon="8.73388">
        <ele>591</ele>
        <time>2021-08-05T11:28:34.286Z</time>
      </trkpt>
      <trkpt lat="46.97828" lon="8.7339">
        <ele>591</ele>
        <time>2021-08-05T11:28:35.286Z</time>
      </trkpt>
      <trkpt lat="46.97828" lon="8.73392">
        <ele>591</ele>
        <time>2021-08-05T11:28:36.286Z</time>
      </trkpt>
      <trkpt lat="46.97827" lon="8.73393">
        <ele>591</ele>
        <time>2021-08-05T11:28:37.286Z</time>
      </trkpt>
      <trkpt lat="46.97827" lon="8.73394">
        <ele>591</ele>
        <time>2021-08-05T11:28:38.285Z</time>
      </trkpt>
      <trkpt lat="46.97827" lon="8.73396">
        <ele>591</ele>
        <time>2021-08-05T11:28:39.285Z</time>
      </trkpt>
      <trkpt lat="46.97826" lon="8.73397">
        <ele>592</ele>
        <time>2021-08-05T11:28:40.286Z</time>
      </trkpt>
      <trkpt lat="46.97825" lon="8.73399">
        <ele>592</ele>
        <time>2021-08-05T11:28:41.285Z</time>
      </trkpt>
      <trkpt lat="46.97824" lon="8.734">
        <ele>592</ele>
        <time>2021-08-05T11:28:42.285Z</time>
      </trkpt>
      <trkpt lat="46.97824" lon="8.73402">
        <ele>593</ele>
        <time>2021-08-05T11:28:43.286Z</time>
      </trkpt>
      <trkpt lat="46.97823" lon="8.73404">
        <ele>593</ele>
        <time>2021-08-05T11:28:44.286Z</time>
      </trkpt>
      <trkpt lat="46.97823" lon="8.73405">
        <ele>592</ele>
        <time>2021-08-05T11:28:45.286Z</time>
      </trkpt>
      <trkpt lat="46.97822" lon="8.73407">
        <ele>592</ele>
        <time>2021-08-05T11:28:46.286Z</time>
      </trkpt>
      <trkpt lat="46.97821" lon="8.73408">
        <ele>592</ele>
        <time>2021-08-05T11:28:47.286Z</time>
      </trkpt>
      <trkpt lat="46.9782" lon="8.7341">
        <ele>591</ele>
        <time>2021-08-05T11:28:48.285Z</time>
      </trkpt>
      <trkpt lat="46.9782" lon="8.73411">
        <ele>591</ele>
        <time>2021-08-05T11:28:49.285Z</time>
      </trkpt>
      <trkpt lat="46.97819" lon="8.73413">
        <ele>591</ele>
        <time>2021-08-05T11:28:50.286Z</time>
      </trkpt>
      <trkpt lat="46.97819" lon="8.73414">
        <ele>591</ele>
        <time>2021-08-05T11:28:51.285Z</time>
      </trkpt>
      <trkpt lat="46.97818" lon="8.73416">
        <ele>591</ele>
        <time>2021-08-05T11:28:52.285Z</time>
      </trkpt>
      <trkpt lat="46.97818" lon="8.73418">
        <ele>591</ele>
        <time>2021-08-05T11:28:53.285Z</time>
      </trkpt>
      <trkpt lat="46.97817" lon="8.73419">
        <ele>590</ele>
        <time>2021-08-05T11:28:54.286Z</time>
      </trkpt>
      <trkpt lat="46.97817" lon="8.7342">
        <ele>589</ele>
        <time>2021-08-05T11:28:55.285Z</time>
      </trkpt>
      <trkpt lat="46.97816" lon="8.73421">
        <ele>589</ele>
        <time>2021-08-05T11:28:56.286Z</time>
      </trkpt>
      <trkpt lat="46.97815" lon="8.73422">
        <ele>588</ele>
        <time>2021-08-05T11:28:57.285Z</time>
      </trkpt>
      <trkpt lat="46.97814" lon="8.73423">
        <ele>588</ele>
        <time>2021-08-05T11:28:58.285Z</time>
      </trkpt>
      <trkpt lat="46.97813" lon="8.73425">
        <ele>588</ele>
        <time>2021-08-05T11:28:59.285Z</time>
      </trkpt>
      <trkpt lat="46.97813" lon="8.73426">
        <ele>588</ele>
        <time>2021-08-05T11:29:00.286Z</time>
      </trkpt>
      <trkpt lat="46.97812" lon="8.73427">
        <ele>587</ele>
        <time>2021-08-05T11:29:01.286Z</time>
      </trkpt>
      <trkpt lat="46.97811" lon="8.73429">
        <ele>586</ele>
        <time>2021-08-05T11:29:02.285Z</time>
      </trkpt>
      <trkpt lat="46.9781" lon="8.7343">
        <ele>586</ele>
        <time>2021-08-05T11:29:03.285Z</time>
      </trkpt>
      <trkpt lat="46.97809" lon="8.73431">
        <ele>585</ele>
        <time>2021-08-05T11:29:04.286Z</time>
      </trkpt>
      <trkpt lat="46.97808" lon="8.73432">
        <ele>585</ele>
        <time>2021-08-05T11:29:05.285Z</time>
      </trkpt>
      <trkpt lat="46.97807" lon="8.73433">
        <ele>585</ele>
        <time>2021-08-05T11:29:06.286Z</time>
      </trkpt>
      <trkpt lat="46.97806" lon="8.73434">
        <ele>585</ele>
        <time>2021-08-05T11:29:07.286Z</time>
      </trkpt>
      <trkpt lat="46.97806" lon="8.73435">
        <ele>585</ele>
        <time>2021-08-05T11:29:08.286Z</time>
      </trkpt>
      <trkpt lat="46.97805" lon="8.73437">
        <ele>585</ele>
        <time>2021-08-05T11:29:09.285Z</time>
      </trkpt>
      <trkpt lat="46.97804" lon="8.73439">
        <ele>586</ele>
        <time>2021-08-05T11:29:10.285Z</time>
      </trkpt>
      <trkpt lat="46.97803" lon="8.7344">
        <ele>587</ele>
        <time>2021-08-05T11:29:11.285Z</time>
      </trkpt>
      <trkpt lat="46.97803" lon="8.73442">
        <ele>588</ele>
        <time>2021-08-05T11:29:12.286Z</time>
      </trkpt>
      <trkpt lat="46.97802" lon="8.73444">
        <ele>588</ele>
        <time>2021-08-05T11:29:13.285Z</time>
      </trkpt>
      <trkpt lat="46.97802" lon="8.73445">
        <ele>589</ele>
        <time>2021-08-05T11:29:14.285Z</time>
      </trkpt>
      <trkpt lat="46.97801" lon="8.73447">
        <ele>589</ele>
        <time>2021-08-05T11:29:15.285Z</time>
      </trkpt>
      <trkpt lat="46.978" lon="8.73448">
        <ele>589</ele>
        <time>2021-08-05T11:29:16.286Z</time>
      </trkpt>
      <trkpt lat="46.97799" lon="8.7345">
        <ele>590</ele>
        <time>2021-08-05T11:29:17.286Z</time>
      </trkpt>
      <trkpt lat="46.97798" lon="8.73451">
        <ele>590</ele>
        <time>2021-08-05T11:29:18.286Z</time>
      </trkpt>
      <trkpt lat="46.97798" lon="8.73452">
        <ele>590</ele>
        <time>2021-08-05T11:29:19.286Z</time>
      </trkpt>
      <trkpt lat="46.97797" lon="8.73453">
        <ele>590</ele>
        <time>2021-08-05T11:29:20.285Z</time>
      </trkpt>
      <trkpt lat="46.97796" lon="8.73454">
        <ele>590</ele>
        <time>2021-08-05T11:29:21.286Z</time>
      </trkpt>
      <trkpt lat="46.97795" lon="8.73456">
        <ele>590</ele>
        <time>2021-08-05T11:29:22.286Z</time>
      </trkpt>
      <trkpt lat="46.97795" lon="8.73457">
        <ele>590</ele>
        <time>2021-08-05T11:29:23.285Z</time>
      </trkpt>
      <trkpt lat="46.97794" lon="8.73458">
        <ele>590</ele>
        <time>2021-08-05T11:29:24.286Z</time>
      </trkpt>
      <trkpt lat="46.97793" lon="8.7346">
        <ele>590</ele>
        <time>2021-08-05T11:29:25.285Z</time>
      </trkpt>
      <trkpt lat="46.97793" lon="8.73462">
        <ele>590</ele>
        <time>2021-08-05T11:29:26.285Z</time>
      </trkpt>
      <trkpt lat="46.97792" lon="8.73463">
        <ele>590</ele>
        <time>2021-08-05T11:29:27.285Z</time>
      </trkpt>
      <trkpt lat="46.97791" lon="8.73465">
        <ele>590</ele>
        <time>2021-08-05T11:29:28.285Z</time>
      </trkpt>
      <trkpt lat="46.97791" lon="8.73467">
        <ele>590</ele>
        <time>2021-08-05T11:29:29.286Z</time>
      </trkpt>
      <trkpt lat="46.9779" lon="8.73468">
        <ele>590</ele>
        <time>2021-08-05T11:29:30.286Z</time>
      </trkpt>
      <trkpt lat="46.97788" lon="8.73469">
        <ele>590</ele>
        <time>2021-08-05T11:29:31.286Z</time>
      </trkpt>
      <trkpt lat="46.97788" lon="8.73471">
        <ele>591</ele>
        <time>2021-08-05T11:29:32.285Z</time>
      </trkpt>
      <trkpt lat="46.97787" lon="8.73471">
        <ele>591</ele>
        <time>2021-08-05T11:29:33.285Z</time>
      </trkpt>
      <trkpt lat="46.97785" lon="8.73472">
        <ele>592</ele>
        <time>2021-08-05T11:29:34.286Z</time>
      </trkpt>
      <trkpt lat="46.97784" lon="8.73474">
        <ele>593</ele>
        <time>2021-08-05T11:29:35.286Z</time>
      </trkpt>
      <trkpt lat="46.97783" lon="8.73475">
        <ele>594</ele>
        <time>2021-08-05T11:29:36.286Z</time>
      </trkpt>
      <trkpt lat="46.97783" lon="8.73477">
        <ele>595</ele>
        <time>2021-08-05T11:29:37.286Z</time>
      </trkpt>
      <trkpt lat="46.97782" lon="8.73478">
        <ele>596</ele>
        <time>2021-08-05T11:29:38.285Z</time>
      </trkpt>
      <trkpt lat="46.97781" lon="8.73479">
        <ele>597</ele>
        <time>2021-08-05T11:29:39.285Z</time>
      </trkpt>
      <trkpt lat="46.9778" lon="8.73481">
        <ele>597</ele>
        <time>2021-08-05T11:29:40.286Z</time>
      </trkpt>
      <trkpt lat="46.9778" lon="8.73482">
        <ele>597</ele>
        <time>2021-08-05T11:29:41.286Z</time>
      </trkpt>
      <trkpt lat="46.9778" lon="8.73484">
        <ele>597</ele>
        <time>2021-08-05T11:29:42.285Z</time>
      </trkpt>
      <trkpt lat="46.97779" lon="8.73485">
        <ele>597</ele>
        <time>2021-08-05T11:29:43.285Z</time>
      </trkpt>
      <trkpt lat="46.97779" lon="8.73487">
        <ele>596</ele>
        <time>2021-08-05T11:29:44.285Z</time>
      </trkpt>
      <trkpt lat="46.97778" lon="8.73489">
        <ele>596</ele>
        <time>2021-08-05T11:29:45.286Z</time>
      </trkpt>
      <trkpt lat="46.97778" lon="8.7349">
        <ele>595</ele>
        <time>2021-08-05T11:29:46.285Z</time>
      </trkpt>
      <trkpt lat="46.97777" lon="8.73492">
        <ele>595</ele>
        <time>2021-08-05T11:29:47.285Z</time>
      </trkpt>
      <trkpt lat="46.97776" lon="8.73494">
        <ele>594</ele>
        <time>2021-08-05T11:29:48.285Z</time>
      </trkpt>
      <trkpt lat="46.97776" lon="8.73496">
        <ele>594</ele>
        <time>2021-08-05T11:29:49.286Z</time>
      </trkpt>
      <trkpt lat="46.97775" lon="8.73498">
        <ele>593</ele>
        <time>2021-08-05T11:29:50.285Z</time>
      </trkpt>
      <trkpt lat="46.97775" lon="8.735">
        <ele>593</ele>
        <time>2021-08-05T11:29:51.286Z</time>
      </trkpt>
      <trkpt lat="46.97774" lon="8.73501">
        <ele>592</ele>
        <time>2021-08-05T11:29:52.286Z</time>
      </trkpt>
      <trkpt lat="46.97773" lon="8.73503">
        <ele>591</ele>
        <time>2021-08-05T11:29:53.285Z</time>
      </trkpt>
      <trkpt lat="46.97773" lon="8.73505">
        <ele>591</ele>
        <time>2021-08-05T11:29:54.285Z</time>
      </trkpt>
      <trkpt lat="46.97772" lon="8.73507">
        <ele>591</ele>
        <time>2021-08-05T11:29:55.285Z</time>
      </trkpt>
      <trkpt lat="46.97771" lon="8.73509">
        <ele>591</ele>
        <time>2021-08-05T11:29:56.286Z</time>
      </trkpt>
      <trkpt lat="46.9777" lon="8.73511">
        <ele>591</ele>
        <time>2021-08-05T11:29:57.286Z</time>
      </trkpt>
      <trkpt lat="46.9777" lon="8.73513">
        <ele>591</ele>
        <time>2021-08-05T11:29:58.286Z</time>
      </trkpt>
      <trkpt lat="46.97769" lon="8.73515">
        <ele>590</ele>
        <time>2021-08-05T11:29:59.286Z</time>
      </trkpt>
      <trkpt lat="46.97768" lon="8.73517">
        <ele>590</ele>
        <time>2021-08-05T11:30:00.285Z</time>
      </trkpt>
      <trkpt lat="46.97768" lon="8.73518">
        <ele>590</ele>
        <time>2021-08-05T11:30:01.286Z</time>
      </trkpt>
      <trkpt lat="46.97767" lon="8.73519">
        <ele>590</ele>
        <time>2021-08-05T11:30:02.286Z</time>
      </trkpt>
      <trkpt lat="46.97766" lon="8.73521">
        <ele>590</ele>
        <time>2021-08-05T11:30:03.285Z</time>
      </trkpt>
      <trkpt lat="46.97766" lon="8.73522">
        <ele>590</ele>
        <time>2021-08-05T11:30:04.286Z</time>
      </trkpt>
      <trkpt lat="46.97765" lon="8.73523">
        <ele>590</ele>
        <time>2021-08-05T11:30:05.286Z</time>
      </trkpt>
      <trkpt lat="46.97765" lon="8.73525">
        <ele>590</ele>
        <time>2021-08-05T11:30:06.286Z</time>
      </trkpt>
      <trkpt lat="46.97764" lon="8.73526">
        <ele>590</ele>
        <time>2021-08-05T11:30:07.286Z</time>
      </trkpt>
      <trkpt lat="46.97763" lon="8.73527">
        <ele>590</ele>
        <time>2021-08-05T11:30:08.286Z</time>
      </trkpt>
      <trkpt lat="46.97763" lon="8.73529">
        <ele>590</ele>
        <time>2021-08-05T11:30:09.286Z</time>
      </trkpt>
      <trkpt lat="46.97762" lon="8.7353">
        <ele>590</ele>
        <time>2021-08-05T11:30:10.286Z</time>
      </trkpt>
      <trkpt lat="46.97761" lon="8.73532">
        <ele>590</ele>
        <time>2021-08-05T11:30:11.286Z</time>
      </trkpt>
      <trkpt lat="46.97761" lon="8.73534">
        <ele>590</ele>
        <time>2021-08-05T11:30:12.286Z</time>
      </trkpt>
      <trkpt lat="46.9776" lon="8.73536">
        <ele>589</ele>
        <time>2021-08-05T11:30:13.285Z</time>
      </trkpt>
      <trkpt lat="46.97759" lon="8.73537">
        <ele>589</ele>
        <time>2021-08-05T11:30:14.285Z</time>
      </trkpt>
      <trkpt lat="46.97758" lon="8.73539">
        <ele>589</ele>
        <time>2021-08-05T11:30:15.286Z</time>
      </trkpt>
      <trkpt lat="46.97757" lon="8.73541">
        <ele>589</ele>
        <time>2021-08-05T11:30:16.286Z</time>
      </trkpt>
      <trkpt lat="46.97757" lon="8.73542">
        <ele>589</ele>
        <time>2021-08-05T11:30:17.285Z</time>
      </trkpt>
      <trkpt lat="46.97756" lon="8.73544">
        <ele>589</ele>
        <time>2021-08-05T11:30:18.285Z</time>
      </trkpt>
      <trkpt lat="46.97755" lon="8.73546">
        <ele>589</ele>
        <time>2021-08-05T11:30:19.286Z</time>
      </trkpt>
      <trkpt lat="46.97755" lon="8.73547">
        <ele>589</ele>
        <time>2021-08-05T11:30:20.286Z</time>
      </trkpt>
      <trkpt lat="46.97754" lon="8.73549">
        <ele>589</ele>
        <time>2021-08-05T11:30:21.285Z</time>
      </trkpt>
      <trkpt lat="46.97754" lon="8.73551">
        <ele>589</ele>
        <time>2021-08-05T11:30:22.286Z</time>
      </trkpt>
      <trkpt lat="46.97753" lon="8.73553">
        <ele>589</ele>
        <time>2021-08-05T11:30:23.286Z</time>
      </trkpt>
      <trkpt lat="46.97753" lon="8.73554">
        <ele>589</ele>
        <time>2021-08-05T11:30:24.285Z</time>
      </trkpt>
      <trkpt lat="46.97753" lon="8.73556">
        <ele>590</ele>
        <time>2021-08-05T11:30:25.286Z</time>
      </trkpt>
      <trkpt lat="46.97752" lon="8.73558">
        <ele>590</ele>
        <time>2021-08-05T11:30:26.285Z</time>
      </trkpt>
      <trkpt lat="46.97752" lon="8.73559">
        <ele>590</ele>
        <time>2021-08-05T11:30:27.286Z</time>
      </trkpt>
      <trkpt lat="46.97751" lon="8.7356">
        <ele>590</ele>
        <time>2021-08-05T11:30:28.285Z</time>
      </trkpt>
      <trkpt lat="46.9775" lon="8.73562">
        <ele>590</ele>
        <time>2021-08-05T11:30:29.285Z</time>
      </trkpt>
      <trkpt lat="46.9775" lon="8.73564">
        <ele>590</ele>
        <time>2021-08-05T11:30:30.285Z</time>
      </trkpt>
      <trkpt lat="46.97749" lon="8.73565">
        <ele>590</ele>
        <time>2021-08-05T11:30:31.285Z</time>
      </trkpt>
      <trkpt lat="46.97749" lon="8.73567">
        <ele>591</ele>
        <time>2021-08-05T11:30:32.285Z</time>
      </trkpt>
      <trkpt lat="46.97748" lon="8.73569">
        <ele>591</ele>
        <time>2021-08-05T11:30:33.285Z</time>
      </trkpt>
      <trkpt lat="46.97747" lon="8.73571">
        <ele>592</ele>
        <time>2021-08-05T11:30:34.285Z</time>
      </trkpt>
      <trkpt lat="46.97746" lon="8.73573">
        <ele>592</ele>
        <time>2021-08-05T11:30:35.285Z</time>
      </trkpt>
      <trkpt lat="46.97746" lon="8.73575">
        <ele>593</ele>
        <time>2021-08-05T11:30:36.286Z</time>
      </trkpt>
      <trkpt lat="46.97745" lon="8.73577">
        <ele>593</ele>
        <time>2021-08-05T11:30:37.286Z</time>
      </trkpt>
      <trkpt lat="46.97744" lon="8.73579">
        <ele>593</ele>
        <time>2021-08-05T11:30:38.285Z</time>
      </trkpt>
      <trkpt lat="46.97743" lon="8.73581">
        <ele>593</ele>
        <time>2021-08-05T11:30:39.285Z</time>
      </trkpt>
      <trkpt lat="46.97743" lon="8.73583">
        <ele>592</ele>
        <time>2021-08-05T11:30:40.285Z</time>
      </trkpt>
      <trkpt lat="46.97742" lon="8.73585">
        <ele>592</ele>
        <time>2021-08-05T11:30:41.286Z</time>
      </trkpt>
      <trkpt lat="46.97741" lon="8.73586">
        <ele>592</ele>
        <time>2021-08-05T11:30:42.285Z</time>
      </trkpt>
      <trkpt lat="46.97741" lon="8.73588">
        <ele>592</ele>
        <time>2021-08-05T11:30:43.286Z</time>
      </trkpt>
      <trkpt lat="46.9774" lon="8.73589">
        <ele>592</ele>
        <time>2021-08-05T11:30:44.286Z</time>
      </trkpt>
      <trkpt lat="46.97739" lon="8.73591">
        <ele>591</ele>
        <time>2021-08-05T11:30:45.285Z</time>
      </trkpt>
      <trkpt lat="46.97738" lon="8.73593">
        <ele>591</ele>
        <time>2021-08-05T11:30:46.285Z</time>
      </trkpt>
      <trkpt lat="46.97738" lon="8.73595">
        <ele>591</ele>
        <time>2021-08-05T11:30:47.285Z</time>
      </trkpt>
      <trkpt lat="46.97738" lon="8.73597">
        <ele>590</ele>
        <time>2021-08-05T11:30:48.285Z</time>
      </trkpt>
      <trkpt lat="46.97737" lon="8.73599">
        <ele>590</ele>
        <time>2021-08-05T11:30:49.285Z</time>
      </trkpt>
      <trkpt lat="46.97737" lon="8.73601">
        <ele>590</ele>
        <time>2021-08-05T11:30:50.286Z</time>
      </trkpt>
      <trkpt lat="46.97736" lon="8.73603">
        <ele>590</ele>
        <time>2021-08-05T11:30:51.285Z</time>
      </trkpt>
      <trkpt lat="46.97736" lon="8.73605">
        <ele>590</ele>
        <time>2021-08-05T11:30:52.285Z</time>
      </trkpt>
      <trkpt lat="46.97736" lon="8.73607">
        <ele>591</ele>
        <time>2021-08-05T11:30:53.286Z</time>
      </trkpt>
      <trkpt lat="46.97735" lon="8.73609">
        <ele>591</ele>
        <time>2021-08-05T11:30:54.286Z</time>
      </trkpt>
      <trkpt lat="46.97735" lon="8.73612">
        <ele>591</ele>
        <time>2021-08-05T11:30:55.285Z</time>
      </trkpt>
      <trkpt lat="46.97734" lon="8.73613">
        <ele>591</ele>
        <time>2021-08-05T11:30:56.286Z</time>
      </trkpt>
      <trkpt lat="46.97734" lon="8.73614">
        <ele>591</ele>
        <time>2021-08-05T11:30:57.285Z</time>
      </trkpt>
      <trkpt lat="46.97734" lon="8.73616">
        <ele>591</ele>
        <time>2021-08-05T11:30:58.285Z</time>
      </trkpt>
      <trkpt lat="46.97733" lon="8.73618">
        <ele>590</ele>
        <time>2021-08-05T11:30:59.286Z</time>
      </trkpt>
      <trkpt lat="46.97732" lon="8.7362">
        <ele>590</ele>
        <time>2021-08-05T11:31:00.286Z</time>
      </trkpt>
      <trkpt lat="46.97732" lon="8.73622">
        <ele>590</ele>
        <time>2021-08-05T11:31:01.285Z</time>
      </trkpt>
      <trkpt lat="46.97732" lon="8.73623">
        <ele>590</ele>
        <time>2021-08-05T11:31:02.286Z</time>
      </trkpt>
      <trkpt lat="46.97732" lon="8.73625">
        <ele>591</ele>
        <time>2021-08-05T11:31:03.286Z</time>
      </trkpt>
      <trkpt lat="46.97731" lon="8.73627">
        <ele>591</ele>
        <time>2021-08-05T11:31:04.285Z</time>
      </trkpt>
      <trkpt lat="46.97731" lon="8.73629">
        <ele>591</ele>
        <time>2021-08-05T11:31:05.286Z</time>
      </trkpt>
      <trkpt lat="46.9773" lon="8.7363">
        <ele>591</ele>
        <time>2021-08-05T11:31:06.285Z</time>
      </trkpt>
      <trkpt lat="46.9773" lon="8.73632">
        <ele>591</ele>
        <time>2021-08-05T11:31:07.286Z</time>
      </trkpt>
      <trkpt lat="46.9773" lon="8.73635">
        <ele>591</ele>
        <time>2021-08-05T11:31:08.286Z</time>
      </trkpt>
      <trkpt lat="46.97729" lon="8.73637">
        <ele>591</ele>
        <time>2021-08-05T11:31:09.285Z</time>
      </trkpt>
      <trkpt lat="46.97729" lon="8.73638">
        <ele>590</ele>
        <time>2021-08-05T11:31:10.286Z</time>
      </trkpt>
      <trkpt lat="46.97729" lon="8.73641">
        <ele>590</ele>
        <time>2021-08-05T11:31:11.285Z</time>
      </trkpt>
      <trkpt lat="46.97728" lon="8.73643">
        <ele>590</ele>
        <time>2021-08-05T11:31:12.286Z</time>
      </trkpt>
      <trkpt lat="46.97728" lon="8.73645">
        <ele>590</ele>
        <time>2021-08-05T11:31:13.286Z</time>
      </trkpt>
      <trkpt lat="46.97728" lon="8.73647">
        <ele>590</ele>
        <time>2021-08-05T11:31:14.285Z</time>
      </trkpt>
      <trkpt lat="46.97727" lon="8.73648">
        <ele>589</ele>
        <time>2021-08-05T11:31:15.285Z</time>
      </trkpt>
      <trkpt lat="46.97727" lon="8.73649">
        <ele>589</ele>
        <time>2021-08-05T11:31:16.285Z</time>
      </trkpt>
      <trkpt lat="46.97727" lon="8.73651">
        <ele>589</ele>
        <time>2021-08-05T11:31:17.286Z</time>
      </trkpt>
      <trkpt lat="46.97726" lon="8.73653">
        <ele>588</ele>
        <time>2021-08-05T11:31:18.286Z</time>
      </trkpt>
      <trkpt lat="46.97726" lon="8.73654">
        <ele>588</ele>
        <time>2021-08-05T11:31:19.285Z</time>
      </trkpt>
      <trkpt lat="46.97726" lon="8.73656">
        <ele>588</ele>
        <time>2021-08-05T11:31:20.285Z</time>
      </trkpt>
      <trkpt lat="46.97725" lon="8.73658">
        <ele>588</ele>
        <time>2021-08-05T11:31:21.285Z</time>
      </trkpt>
      <trkpt lat="46.97725" lon="8.73659">
        <ele>588</ele>
        <time>2021-08-05T11:31:22.285Z</time>
      </trkpt>
      <trkpt lat="46.97725" lon="8.73661">
        <ele>588</ele>
        <time>2021-08-05T11:31:23.285Z</time>
      </trkpt>
      <trkpt lat="46.97725" lon="8.73663">
        <ele>588</ele>
        <time>2021-08-05T11:31:24.285Z</time>
      </trkpt>
      <trkpt lat="46.97725" lon="8.73665">
        <ele>589</ele>
        <time>2021-08-05T11:31:25.285Z</time>
      </trkpt>
      <trkpt lat="46.97725" lon="8.73667">
        <ele>589</ele>
        <time>2021-08-05T11:31:26.286Z</time>
      </trkpt>
      <trkpt lat="46.97724" lon="8.73669">
        <ele>589</ele>
        <time>2021-08-05T11:31:27.285Z</time>
      </trkpt>
      <trkpt lat="46.97724" lon="8.73672">
        <ele>589</ele>
        <time>2021-08-05T11:31:28.285Z</time>
      </trkpt>
      <trkpt lat="46.97723" lon="8.73674">
        <ele>590</ele>
        <time>2021-08-05T11:31:29.285Z</time>
      </trkpt>
      <trkpt lat="46.97723" lon="8.73676">
        <ele>590</ele>
        <time>2021-08-05T11:31:30.285Z</time>
      </trkpt>
      <trkpt lat="46.97723" lon="8.73678">
        <ele>590</ele>
        <time>2021-08-05T11:31:31.285Z</time>
      </trkpt>
      <trkpt lat="46.97723" lon="8.7368">
        <ele>590</ele>
        <time>2021-08-05T11:31:32.285Z</time>
      </trkpt>
      <trkpt lat="46.97723" lon="8.73682">
        <ele>590</ele>
        <time>2021-08-05T11:31:33.286Z</time>
      </trkpt>
      <trkpt lat="46.97723" lon="8.73684">
        <ele>590</ele>
        <time>2021-08-05T11:31:34.286Z</time>
      </trkpt>
      <trkpt lat="46.97722" lon="8.73686">
        <ele>590</ele>
        <time>2021-08-05T11:31:35.285Z</time>
      </trkpt>
      <trkpt lat="46.97722" lon="8.73688">
        <ele>589</ele>
        <time>2021-08-05T11:31:36.286Z</time>
      </trkpt>
      <trkpt lat="46.97722" lon="8.7369">
        <ele>589</ele>
        <time>2021-08-05T11:31:37.286Z</time>
      </trkpt>
      <trkpt lat="46.97722" lon="8.73693">
        <ele>589</ele>
        <time>2021-08-05T11:31:38.286Z</time>
      </trkpt>
      <trkpt lat="46.97722" lon="8.73695">
        <ele>590</ele>
        <time>2021-08-05T11:31:39.285Z</time>
      </trkpt>
      <trkpt lat="46.97721" lon="8.73697">
        <ele>590</ele>
        <time>2021-08-05T11:31:40.286Z</time>
      </trkpt>
      <trkpt lat="46.97721" lon="8.73699">
        <ele>590</ele>
        <time>2021-08-05T11:31:41.285Z</time>
      </trkpt>
      <trkpt lat="46.97721" lon="8.73702">
        <ele>590</ele>
        <time>2021-08-05T11:31:42.286Z</time>
      </trkpt>
      <trkpt lat="46.9772" lon="8.73704">
        <ele>591</ele>
        <time>2021-08-05T11:31:43.285Z</time>
      </trkpt>
      <trkpt lat="46.9772" lon="8.73706">
        <ele>591</ele>
        <time>2021-08-05T11:31:44.285Z</time>
      </trkpt>
      <trkpt lat="46.9772" lon="8.73708">
        <ele>591</ele>
        <time>2021-08-05T11:31:45.285Z</time>
      </trkpt>
      <trkpt lat="46.9772" lon="8.7371">
        <ele>591</ele>
        <time>2021-08-05T11:31:46.285Z</time>
      </trkpt>
      <trkpt lat="46.9772" lon="8.73712">
        <ele>591</ele>
        <time>2021-08-05T11:31:47.286Z</time>
      </trkpt>
      <trkpt lat="46.9772" lon="8.73714">
        <ele>591</ele>
        <time>2021-08-05T11:31:48.285Z</time>
      </trkpt>
      <trkpt lat="46.9772" lon="8.73717">
        <ele>590</ele>
        <time>2021-08-05T11:31:49.286Z</time>
      </trkpt>
      <trkpt lat="46.9772" lon="8.73719">
        <ele>590</ele>
        <time>2021-08-05T11:31:50.285Z</time>
      </trkpt>
      <trkpt lat="46.9772" lon="8.73721">
        <ele>591</ele>
        <time>2021-08-05T11:31:51.285Z</time>
      </trkpt>
      <trkpt lat="46.9772" lon="8.73723">
        <ele>590</ele>
        <time>2021-08-05T11:31:52.285Z</time>
      </trkpt>
      <trkpt lat="46.97719" lon="8.73725">
        <ele>591</ele>
        <time>2021-08-05T11:31:53.286Z</time>
      </trkpt>
      <trkpt lat="46.97719" lon="8.73727">
        <ele>591</ele>
        <time>2021-08-05T11:31:54.285Z</time>
      </trkpt>
      <trkpt lat="46.97719" lon="8.73729">
        <ele>591</ele>
        <time>2021-08-05T11:31:55.285Z</time>
      </trkpt>
      <trkpt lat="46.97719" lon="8.73731">
        <ele>591</ele>
        <time>2021-08-05T11:31:56.285Z</time>
      </trkpt>
      <trkpt lat="46.9772" lon="8.73732">
        <ele>591</ele>
        <time>2021-08-05T11:31:57.286Z</time>
      </trkpt>
      <trkpt lat="46.9772" lon="8.73733">
        <ele>591</ele>
        <time>2021-08-05T11:31:58.285Z</time>
      </trkpt>
      <trkpt lat="46.9772" lon="8.73736">
        <ele>591</ele>
        <time>2021-08-05T11:31:59.285Z</time>
      </trkpt>
      <trkpt lat="46.9772" lon="8.73737">
        <ele>591</ele>
        <time>2021-08-05T11:32:00.285Z</time>
      </trkpt>
      <trkpt lat="46.9772" lon="8.73739">
        <ele>592</ele>
        <time>2021-08-05T11:32:01.285Z</time>
      </trkpt>
      <trkpt lat="46.9772" lon="8.73741">
        <ele>592</ele>
        <time>2021-08-05T11:32:02.285Z</time>
      </trkpt>
      <trkpt lat="46.9772" lon="8.73743">
        <ele>592</ele>
        <time>2021-08-05T11:32:03.286Z</time>
      </trkpt>
      <trkpt lat="46.9772" lon="8.73744">
        <ele>592</ele>
        <time>2021-08-05T11:32:04.285Z</time>
      </trkpt>
      <trkpt lat="46.9772" lon="8.73746">
        <ele>592</ele>
        <time>2021-08-05T11:32:05.285Z</time>
      </trkpt>
      <trkpt lat="46.9772" lon="8.73748">
        <ele>592</ele>
        <time>2021-08-05T11:32:06.285Z</time>
      </trkpt>
      <trkpt lat="46.97721" lon="8.73749">
        <ele>592</ele>
        <time>2021-08-05T11:32:07.285Z</time>
      </trkpt>
      <trkpt lat="46.97721" lon="8.73751">
        <ele>592</ele>
        <time>2021-08-05T11:32:08.286Z</time>
      </trkpt>
      <trkpt lat="46.97721" lon="8.73753">
        <ele>593</ele>
        <time>2021-08-05T11:32:09.285Z</time>
      </trkpt>
      <trkpt lat="46.97721" lon="8.73755">
        <ele>593</ele>
        <time>2021-08-05T11:32:10.285Z</time>
      </trkpt>
      <trkpt lat="46.97721" lon="8.73757">
        <ele>593</ele>
        <time>2021-08-05T11:32:11.285Z</time>
      </trkpt>
      <trkpt lat="46.97721" lon="8.73759">
        <ele>593</ele>
        <time>2021-08-05T11:32:12.285Z</time>
      </trkpt>
      <trkpt lat="46.97721" lon="8.73761">
        <ele>593</ele>
        <time>2021-08-05T11:32:13.285Z</time>
      </trkpt>
      <trkpt lat="46.97721" lon="8.73763">
        <ele>593</ele>
        <time>2021-08-05T11:32:14.286Z</time>
      </trkpt>
      <trkpt lat="46.97721" lon="8.73765">
        <ele>593</ele>
        <time>2021-08-05T11:32:15.285Z</time>
      </trkpt>
      <trkpt lat="46.97721" lon="8.73767">
        <ele>593</ele>
        <time>2021-08-05T11:32:16.286Z</time>
      </trkpt>
      <trkpt lat="46.97721" lon="8.7377">
        <ele>593</ele>
        <time>2021-08-05T11:32:17.285Z</time>
      </trkpt>
      <trkpt lat="46.97721" lon="8.73772">
        <ele>593</ele>
        <time>2021-08-05T11:32:18.285Z</time>
      </trkpt>
      <trkpt lat="46.97721" lon="8.73774">
        <ele>593</ele>
        <time>2021-08-05T11:32:19.286Z</time>
      </trkpt>
      <trkpt lat="46.97721" lon="8.73776">
        <ele>593</ele>
        <time>2021-08-05T11:32:20.285Z</time>
      </trkpt>
      <trkpt lat="46.97722" lon="8.73778">
        <ele>593</ele>
        <time>2021-08-05T11:32:21.286Z</time>
      </trkpt>
      <trkpt lat="46.97722" lon="8.7378">
        <ele>593</ele>
        <time>2021-08-05T11:32:22.285Z</time>
      </trkpt>
      <trkpt lat="46.97722" lon="8.73782">
        <ele>594</ele>
        <time>2021-08-05T11:32:23.285Z</time>
      </trkpt>
      <trkpt lat="46.97722" lon="8.73784">
        <ele>594</ele>
        <time>2021-08-05T11:32:24.285Z</time>
      </trkpt>
      <trkpt lat="46.97723" lon="8.73786">
        <ele>594</ele>
        <time>2021-08-05T11:32:25.286Z</time>
      </trkpt>
      <trkpt lat="46.97723" lon="8.73787">
        <ele>595</ele>
        <time>2021-08-05T11:32:26.285Z</time>
      </trkpt>
      <trkpt lat="46.97723" lon="8.73789">
        <ele>595</ele>
        <time>2021-08-05T11:32:27.286Z</time>
      </trkpt>
      <trkpt lat="46.97724" lon="8.73791">
        <ele>595</ele>
        <time>2021-08-05T11:32:28.285Z</time>
      </trkpt>
      <trkpt lat="46.97724" lon="8.73793">
        <ele>595</ele>
        <time>2021-08-05T11:32:29.285Z</time>
      </trkpt>
      <trkpt lat="46.97724" lon="8.73795">
        <ele>595</ele>
        <time>2021-08-05T11:32:30.285Z</time>
      </trkpt>
      <trkpt lat="46.97724" lon="8.73797">
        <ele>595</ele>
        <time>2021-08-05T11:32:31.285Z</time>
      </trkpt>
      <trkpt lat="46.97725" lon="8.73799">
        <ele>595</ele>
        <time>2021-08-05T11:32:32.285Z</time>
      </trkpt>
      <trkpt lat="46.97725" lon="8.73801">
        <ele>595</ele>
        <time>2021-08-05T11:32:33.285Z</time>
      </trkpt>
      <trkpt lat="46.97725" lon="8.73803">
        <ele>595</ele>
        <time>2021-08-05T11:32:34.286Z</time>
      </trkpt>
      <trkpt lat="46.97725" lon="8.73804">
        <ele>595</ele>
        <time>2021-08-05T11:32:35.286Z</time>
      </trkpt>
      <trkpt lat="46.97725" lon="8.73806">
        <ele>595</ele>
        <time>2021-08-05T11:32:36.286Z</time>
      </trkpt>
      <trkpt lat="46.97726" lon="8.73808">
        <ele>594</ele>
        <time>2021-08-05T11:32:37.285Z</time>
      </trkpt>
      <trkpt lat="46.97726" lon="8.7381">
        <ele>594</ele>
        <time>2021-08-05T11:32:38.286Z</time>
      </trkpt>
      <trkpt lat="46.97726" lon="8.73812">
        <ele>594</ele>
        <time>2021-08-05T11:32:39.286Z</time>
      </trkpt>
      <trkpt lat="46.97727" lon="8.73814">
        <ele>593</ele>
        <time>2021-08-05T11:32:40.285Z</time>
      </trkpt>
      <trkpt lat="46.97727" lon="8.73816">
        <ele>593</ele>
        <time>2021-08-05T11:32:41.286Z</time>
      </trkpt>
      <trkpt lat="46.97727" lon="8.73818">
        <ele>593</ele>
        <time>2021-08-05T11:32:42.286Z</time>
      </trkpt>
      <trkpt lat="46.97728" lon="8.7382">
        <ele>593</ele>
        <time>2021-08-05T11:32:43.286Z</time>
      </trkpt>
      <trkpt lat="46.97728" lon="8.73821">
        <ele>593</ele>
        <time>2021-08-05T11:32:44.286Z</time>
      </trkpt>
      <trkpt lat="46.97729" lon="8.73823">
        <ele>592</ele>
        <time>2021-08-05T11:32:45.285Z</time>
      </trkpt>
      <trkpt lat="46.97729" lon="8.73825">
        <ele>592</ele>
        <time>2021-08-05T11:32:46.285Z</time>
      </trkpt>
      <trkpt lat="46.9773" lon="8.73826">
        <ele>592</ele>
        <time>2021-08-05T11:32:47.285Z</time>
      </trkpt>
      <trkpt lat="46.9773" lon="8.73828">
        <ele>592</ele>
        <time>2021-08-05T11:32:48.286Z</time>
      </trkpt>
      <trkpt lat="46.97731" lon="8.7383">
        <ele>592</ele>
        <time>2021-08-05T11:32:49.286Z</time>
      </trkpt>
      <trkpt lat="46.97731" lon="8.73832">
        <ele>592</ele>
        <time>2021-08-05T11:32:50.285Z</time>
      </trkpt>
      <trkpt lat="46.97732" lon="8.73833">
        <ele>593</ele>
        <time>2021-08-05T11:32:51.286Z</time>
      </trkpt>
      <trkpt lat="46.97733" lon="8.73834">
        <ele>593</ele>
        <time>2021-08-05T11:32:52.286Z</time>
      </trkpt>
      <trkpt lat="46.97733" lon="8.73836">
        <ele>594</ele>
        <time>2021-08-05T11:32:53.285Z</time>
      </trkpt>
      <trkpt lat="46.97734" lon="8.73838">
        <ele>594</ele>
        <time>2021-08-05T11:32:54.285Z</time>
      </trkpt>
      <trkpt lat="46.97734" lon="8.7384">
        <ele>594</ele>
        <time>2021-08-05T11:32:55.285Z</time>
      </trkpt>
      <trkpt lat="46.97734" lon="8.73842">
        <ele>595</ele>
        <time>2021-08-05T11:32:56.285Z</time>
      </trkpt>
      <trkpt lat="46.97734" lon="8.73845">
        <ele>595</ele>
        <time>2021-08-05T11:32:57.285Z</time>
      </trkpt>
      <trkpt lat="46.97735" lon="8.73847">
        <ele>595</ele>
        <time>2021-08-05T11:32:58.285Z</time>
      </trkpt>
      <trkpt lat="46.97735" lon="8.73849">
        <ele>595</ele>
        <time>2021-08-05T11:32:59.286Z</time>
      </trkpt>
      <trkpt lat="46.97736" lon="8.73851">
        <ele>595</ele>
        <time>2021-08-05T11:33:00.285Z</time>
      </trkpt>
      <trkpt lat="46.97737" lon="8.73853">
        <ele>595</ele>
        <time>2021-08-05T11:33:01.285Z</time>
      </trkpt>
      <trkpt lat="46.97738" lon="8.73854">
        <ele>595</ele>
        <time>2021-08-05T11:33:02.285Z</time>
      </trkpt>
      <trkpt lat="46.97738" lon="8.73856">
        <ele>595</ele>
        <time>2021-08-05T11:33:03.285Z</time>
      </trkpt>
      <trkpt lat="46.97738" lon="8.73859">
        <ele>595</ele>
        <time>2021-08-05T11:33:04.286Z</time>
      </trkpt>
      <trkpt lat="46.97738" lon="8.73861">
        <ele>595</ele>
        <time>2021-08-05T11:33:05.286Z</time>
      </trkpt>
      <trkpt lat="46.97739" lon="8.73862">
        <ele>596</ele>
        <time>2021-08-05T11:33:06.285Z</time>
      </trkpt>
      <trkpt lat="46.9774" lon="8.73864">
        <ele>596</ele>
        <time>2021-08-05T11:33:07.286Z</time>
      </trkpt>
      <trkpt lat="46.97741" lon="8.73865">
        <ele>596</ele>
        <time>2021-08-05T11:33:08.286Z</time>
      </trkpt>
      <trkpt lat="46.97741" lon="8.73867">
        <ele>596</ele>
        <time>2021-08-05T11:33:09.286Z</time>
      </trkpt>
      <trkpt lat="46.97741" lon="8.73869">
        <ele>596</ele>
        <time>2021-08-05T11:33:10.285Z</time>
      </trkpt>
      <trkpt lat="46.97742" lon="8.73871">
        <ele>597</ele>
        <time>2021-08-05T11:33:11.286Z</time>
      </trkpt>
      <trkpt lat="46.97742" lon="8.73873">
        <ele>597</ele>
        <time>2021-08-05T11:33:12.286Z</time>
      </trkpt>
      <trkpt lat="46.97742" lon="8.73875">
        <ele>597</ele>
        <time>2021-08-05T11:33:13.286Z</time>
      </trkpt>
      <trkpt lat="46.97743" lon="8.73877">
        <ele>597</ele>
        <time>2021-08-05T11:33:14.286Z</time>
      </trkpt>
      <trkpt lat="46.97743" lon="8.73879">
        <ele>597</ele>
        <time>2021-08-05T11:33:15.286Z</time>
      </trkpt>
      <trkpt lat="46.97744" lon="8.7388">
        <ele>598</ele>
        <time>2021-08-05T11:33:16.286Z</time>
      </trkpt>
      <trkpt lat="46.97745" lon="8.73882">
        <ele>598</ele>
        <time>2021-08-05T11:33:17.285Z</time>
      </trkpt>
      <trkpt lat="46.97746" lon="8.73884">
        <ele>598</ele>
        <time>2021-08-05T11:33:18.285Z</time>
      </trkpt>
      <trkpt lat="46.97747" lon="8.73885">
        <ele>598</ele>
        <time>2021-08-05T11:33:19.285Z</time>
      </trkpt>
      <trkpt lat="46.97747" lon="8.73886">
        <ele>598</ele>
        <time>2021-08-05T11:33:20.285Z</time>
      </trkpt>
      <trkpt lat="46.97748" lon="8.73888">
        <ele>599</ele>
        <time>2021-08-05T11:33:21.286Z</time>
      </trkpt>
      <trkpt lat="46.97749" lon="8.73889">
        <ele>599</ele>
        <time>2021-08-05T11:33:22.285Z</time>
      </trkpt>
      <trkpt lat="46.97749" lon="8.73891">
        <ele>599</ele>
        <time>2021-08-05T11:33:23.285Z</time>
      </trkpt>
      <trkpt lat="46.9775" lon="8.73894">
        <ele>600</ele>
        <time>2021-08-05T11:33:24.286Z</time>
      </trkpt>
      <trkpt lat="46.9775" lon="8.73895">
        <ele>600</ele>
        <time>2021-08-05T11:33:25.286Z</time>
      </trkpt>
      <trkpt lat="46.97751" lon="8.73896">
        <ele>600</ele>
        <time>2021-08-05T11:33:26.285Z</time>
      </trkpt>
      <trkpt lat="46.97752" lon="8.73898">
        <ele>600</ele>
        <time>2021-08-05T11:33:27.285Z</time>
      </trkpt>
      <trkpt lat="46.97753" lon="8.73899">
        <ele>601</ele>
        <time>2021-08-05T11:33:28.286Z</time>
      </trkpt>
      <trkpt lat="46.97754" lon="8.73901">
        <ele>601</ele>
        <time>2021-08-05T11:33:29.286Z</time>
      </trkpt>
      <trkpt lat="46.97755" lon="8.73903">
        <ele>601</ele>
        <time>2021-08-05T11:33:30.285Z</time>
      </trkpt>
      <trkpt lat="46.97756" lon="8.73904">
        <ele>601</ele>
        <time>2021-08-05T11:33:31.286Z</time>
      </trkpt>
      <trkpt lat="46.97756" lon="8.73906">
        <ele>601</ele>
        <time>2021-08-05T11:33:32.286Z</time>
      </trkpt>
      <trkpt lat="46.97757" lon="8.73907">
        <ele>601</ele>
        <time>2021-08-05T11:33:33.285Z</time>
      </trkpt>
      <trkpt lat="46.97758" lon="8.73909">
        <ele>601</ele>
        <time>2021-08-05T11:33:34.285Z</time>
      </trkpt>
      <trkpt lat="46.97759" lon="8.73911">
        <ele>601</ele>
        <time>2021-08-05T11:33:35.285Z</time>
      </trkpt>
      <trkpt lat="46.9776" lon="8.73912">
        <ele>601</ele>
        <time>2021-08-05T11:33:36.286Z</time>
      </trkpt>
      <trkpt lat="46.97761" lon="8.73914">
        <ele>601</ele>
        <time>2021-08-05T11:33:37.286Z</time>
      </trkpt>
      <trkpt lat="46.97761" lon="8.73916">
        <ele>600</ele>
        <time>2021-08-05T11:33:38.285Z</time>
      </trkpt>
      <trkpt lat="46.97762" lon="8.73918">
        <ele>600</ele>
        <time>2021-08-05T11:33:39.286Z</time>
      </trkpt>
      <trkpt lat="46.97764" lon="8.73919">
        <ele>599</ele>
        <time>2021-08-05T11:33:40.286Z</time>
      </trkpt>
      <trkpt lat="46.97765" lon="8.7392">
        <ele>599</ele>
        <time>2021-08-05T11:33:41.286Z</time>
      </trkpt>
      <trkpt lat="46.97765" lon="8.73921">
        <ele>598</ele>
        <time>2021-08-05T11:33:42.286Z</time>
      </trkpt>
      <trkpt lat="46.97766" lon="8.73922">
        <ele>598</ele>
        <time>2021-08-05T11:33:43.285Z</time>
      </trkpt>
      <trkpt lat="46.97767" lon="8.73924">
        <ele>598</ele>
        <time>2021-08-05T11:33:44.285Z</time>
      </trkpt>
      <trkpt lat="46.97768" lon="8.73925">
        <ele>598</ele>
        <time>2021-08-05T11:33:45.286Z</time>
      </trkpt>
      <trkpt lat="46.97769" lon="8.73926">
        <ele>599</ele>
        <time>2021-08-05T11:33:46.285Z</time>
      </trkpt>
      <trkpt lat="46.9777" lon="8.73927">
        <ele>599</ele>
        <time>2021-08-05T11:33:47.285Z</time>
      </trkpt>
      <trkpt lat="46.97771" lon="8.73928">
        <ele>599</ele>
        <time>2021-08-05T11:33:48.285Z</time>
      </trkpt>
      <trkpt lat="46.97772" lon="8.73929">
        <ele>599</ele>
        <time>2021-08-05T11:33:49.286Z</time>
      </trkpt>
      <trkpt lat="46.97773" lon="8.7393">
        <ele>599</ele>
        <time>2021-08-05T11:33:50.285Z</time>
      </trkpt>
      <trkpt lat="46.97774" lon="8.73931">
        <ele>599</ele>
        <time>2021-08-05T11:33:51.286Z</time>
      </trkpt>
      <trkpt lat="46.97774" lon="8.73933">
        <ele>599</ele>
        <time>2021-08-05T11:33:52.285Z</time>
      </trkpt>
      <trkpt lat="46.97775" lon="8.73934">
        <ele>599</ele>
        <time>2021-08-05T11:33:53.286Z</time>
      </trkpt>
      <trkpt lat="46.97776" lon="8.73935">
        <ele>599</ele>
        <time>2021-08-05T11:33:54.286Z</time>
      </trkpt>
      <trkpt lat="46.97777" lon="8.73937">
        <ele>599</ele>
        <time>2021-08-05T11:33:55.286Z</time>
      </trkpt>
      <trkpt lat="46.97778" lon="8.73939">
        <ele>599</ele>
        <time>2021-08-05T11:33:56.286Z</time>
      </trkpt>
      <trkpt lat="46.97779" lon="8.7394">
        <ele>598</ele>
        <time>2021-08-05T11:33:57.286Z</time>
      </trkpt>
      <trkpt lat="46.9778" lon="8.73941">
        <ele>598</ele>
        <time>2021-08-05T11:33:58.286Z</time>
      </trkpt>
      <trkpt lat="46.97781" lon="8.73943">
        <ele>598</ele>
        <time>2021-08-05T11:33:59.286Z</time>
      </trkpt>
      <trkpt lat="46.97782" lon="8.73944">
        <ele>597</ele>
        <time>2021-08-05T11:34:00.285Z</time>
      </trkpt>
      <trkpt lat="46.97783" lon="8.73945">
        <ele>596</ele>
        <time>2021-08-05T11:34:01.286Z</time>
      </trkpt>
      <trkpt lat="46.97784" lon="8.73946">
        <ele>596</ele>
        <time>2021-08-05T11:34:02.285Z</time>
      </trkpt>
      <trkpt lat="46.97785" lon="8.73948">
        <ele>595</ele>
        <time>2021-08-05T11:34:03.286Z</time>
      </trkpt>
      <trkpt lat="46.97786" lon="8.73949">
        <ele>595</ele>
        <time>2021-08-05T11:34:04.286Z</time>
      </trkpt>
      <trkpt lat="46.97787" lon="8.73951">
        <ele>595</ele>
        <time>2021-08-05T11:34:05.286Z</time>
      </trkpt>
      <trkpt lat="46.97788" lon="8.73952">
        <ele>595</ele>
        <time>2021-08-05T11:34:06.285Z</time>
      </trkpt>
      <trkpt lat="46.97789" lon="8.73953">
        <ele>595</ele>
        <time>2021-08-05T11:34:07.285Z</time>
      </trkpt>
      <trkpt lat="46.9779" lon="8.73954">
        <ele>595</ele>
        <time>2021-08-05T11:34:08.285Z</time>
      </trkpt>
      <trkpt lat="46.97791" lon="8.73955">
        <ele>596</ele>
        <time>2021-08-05T11:34:09.286Z</time>
      </trkpt>
      <trkpt lat="46.97792" lon="8.73956">
        <ele>596</ele>
        <time>2021-08-05T11:34:10.286Z</time>
      </trkpt>
      <trkpt lat="46.97793" lon="8.73957">
        <ele>596</ele>
        <time>2021-08-05T11:34:11.285Z</time>
      </trkpt>
      <trkpt lat="46.97794" lon="8.73958">
        <ele>596</ele>
        <time>2021-08-05T11:34:12.286Z</time>
      </trkpt>
      <trkpt lat="46.97794" lon="8.7396">
        <ele>596</ele>
        <time>2021-08-05T11:34:13.286Z</time>
      </trkpt>
      <trkpt lat="46.97795" lon="8.73961">
        <ele>596</ele>
        <time>2021-08-05T11:34:14.285Z</time>
      </trkpt>
      <trkpt lat="46.97796" lon="8.73963">
        <ele>595</ele>
        <time>2021-08-05T11:34:15.285Z</time>
      </trkpt>
      <trkpt lat="46.97797" lon="8.73964">
        <ele>595</ele>
        <time>2021-08-05T11:34:16.286Z</time>
      </trkpt>
      <trkpt lat="46.97798" lon="8.73965">
        <ele>595</ele>
        <time>2021-08-05T11:34:17.285Z</time>
      </trkpt>
      <trkpt lat="46.97799" lon="8.73967">
        <ele>596</ele>
        <time>2021-08-05T11:34:18.286Z</time>
      </trkpt>
      <trkpt lat="46.978" lon="8.73969">
        <ele>596</ele>
        <time>2021-08-05T11:34:19.285Z</time>
      </trkpt>
      <trkpt lat="46.978" lon="8.7397">
        <ele>596</ele>
        <time>2021-08-05T11:34:20.285Z</time>
      </trkpt>
      <trkpt lat="46.97801" lon="8.73972">
        <ele>597</ele>
        <time>2021-08-05T11:34:21.285Z</time>
      </trkpt>
      <trkpt lat="46.97802" lon="8.73974">
        <ele>597</ele>
        <time>2021-08-05T11:34:22.285Z</time>
      </trkpt>
      <trkpt lat="46.97802" lon="8.73976">
        <ele>596</ele>
        <time>2021-08-05T11:34:23.286Z</time>
      </trkpt>
      <trkpt lat="46.97803" lon="8.73978">
        <ele>596</ele>
        <time>2021-08-05T11:34:24.286Z</time>
      </trkpt>
      <trkpt lat="46.97803" lon="8.73979">
        <ele>596</ele>
        <time>2021-08-05T11:34:25.285Z</time>
      </trkpt>
      <trkpt lat="46.97804" lon="8.73982">
        <ele>596</ele>
        <time>2021-08-05T11:34:26.286Z</time>
      </trkpt>
      <trkpt lat="46.97804" lon="8.73984">
        <ele>596</ele>
        <time>2021-08-05T11:34:27.286Z</time>
      </trkpt>
      <trkpt lat="46.97804" lon="8.73985">
        <ele>596</ele>
        <time>2021-08-05T11:34:28.285Z</time>
      </trkpt>
      <trkpt lat="46.97805" lon="8.73987">
        <ele>596</ele>
        <time>2021-08-05T11:34:29.286Z</time>
      </trkpt>
      <trkpt lat="46.97805" lon="8.73989">
        <ele>596</ele>
        <time>2021-08-05T11:34:30.285Z</time>
      </trkpt>
      <trkpt lat="46.97805" lon="8.73991">
        <ele>596</ele>
        <time>2021-08-05T11:34:31.285Z</time>
      </trkpt>
      <trkpt lat="46.97806" lon="8.73992">
        <ele>596</ele>
        <time>2021-08-05T11:34:32.286Z</time>
      </trkpt>
      <trkpt lat="46.97807" lon="8.73993">
        <ele>596</ele>
        <time>2021-08-05T11:34:33.286Z</time>
      </trkpt>
      <trkpt lat="46.97807" lon="8.73995">
        <ele>595</ele>
        <time>2021-08-05T11:34:34.285Z</time>
      </trkpt>
      <trkpt lat="46.97807" lon="8.73997">
        <ele>595</ele>
        <time>2021-08-05T11:34:35.285Z</time>
      </trkpt>
      <trkpt lat="46.97808" lon="8.73999">
        <ele>595</ele>
        <time>2021-08-05T11:34:36.286Z</time>
      </trkpt>
      <trkpt lat="46.97808" lon="8.74001">
        <ele>595</ele>
        <time>2021-08-05T11:34:37.286Z</time>
      </trkpt>
      <trkpt lat="46.97808" lon="8.74003">
        <ele>595</ele>
        <time>2021-08-05T11:34:38.286Z</time>
      </trkpt>
      <trkpt lat="46.97809" lon="8.74005">
        <ele>595</ele>
        <time>2021-08-05T11:34:39.285Z</time>
      </trkpt>
      <trkpt lat="46.97809" lon="8.74007">
        <ele>595</ele>
        <time>2021-08-05T11:34:40.286Z</time>
      </trkpt>
      <trkpt lat="46.97809" lon="8.74009">
        <ele>595</ele>
        <time>2021-08-05T11:34:41.285Z</time>
      </trkpt>
      <trkpt lat="46.9781" lon="8.74011">
        <ele>596</ele>
        <time>2021-08-05T11:34:42.286Z</time>
      </trkpt>
      <trkpt lat="46.9781" lon="8.74013">
        <ele>596</ele>
        <time>2021-08-05T11:34:43.286Z</time>
      </trkpt>
      <trkpt lat="46.97811" lon="8.74014">
        <ele>596</ele>
        <time>2021-08-05T11:34:44.286Z</time>
      </trkpt>
      <trkpt lat="46.97812" lon="8.74017">
        <ele>596</ele>
        <time>2021-08-05T11:34:45.286Z</time>
      </trkpt>
      <trkpt lat="46.97812" lon="8.74018">
        <ele>596</ele>
        <time>2021-08-05T11:34:46.286Z</time>
      </trkpt>
      <trkpt lat="46.97813" lon="8.7402">
        <ele>596</ele>
        <time>2021-08-05T11:34:47.286Z</time>
      </trkpt>
      <trkpt lat="46.97813" lon="8.74022">
        <ele>596</ele>
        <time>2021-08-05T11:34:48.285Z</time>
      </trkpt>
      <trkpt lat="46.97814" lon="8.74024">
        <ele>597</ele>
        <time>2021-08-05T11:34:49.285Z</time>
      </trkpt>
      <trkpt lat="46.97814" lon="8.74026">
        <ele>597</ele>
        <time>2021-08-05T11:34:50.286Z</time>
      </trkpt>
      <trkpt lat="46.97814" lon="8.74028">
        <ele>597</ele>
        <time>2021-08-05T11:34:51.286Z</time>
      </trkpt>
      <trkpt lat="46.97815" lon="8.7403">
        <ele>597</ele>
        <time>2021-08-05T11:34:52.285Z</time>
      </trkpt>
      <trkpt lat="46.97815" lon="8.74033">
        <ele>597</ele>
        <time>2021-08-05T11:34:53.286Z</time>
      </trkpt>
      <trkpt lat="46.97816" lon="8.74035">
        <ele>598</ele>
        <time>2021-08-05T11:34:54.286Z</time>
      </trkpt>
      <trkpt lat="46.97816" lon="8.74037">
        <ele>598</ele>
        <time>2021-08-05T11:34:55.286Z</time>
      </trkpt>
      <trkpt lat="46.97817" lon="8.74039">
        <ele>598</ele>
        <time>2021-08-05T11:34:56.286Z</time>
      </trkpt>
      <trkpt lat="46.97818" lon="8.7404">
        <ele>598</ele>
        <time>2021-08-05T11:34:57.286Z</time>
      </trkpt>
      <trkpt lat="46.97819" lon="8.74041">
        <ele>599</ele>
        <time>2021-08-05T11:34:58.285Z</time>
      </trkpt>
      <trkpt lat="46.9782" lon="8.74042">
        <ele>599</ele>
        <time>2021-08-05T11:34:59.286Z</time>
      </trkpt>
      <trkpt lat="46.97822" lon="8.74042">
        <ele>600</ele>
        <time>2021-08-05T11:35:00.286Z</time>
      </trkpt>
      <trkpt lat="46.97823" lon="8.74042">
        <ele>600</ele>
        <time>2021-08-05T11:35:01.286Z</time>
      </trkpt>
      <trkpt lat="46.97824" lon="8.74042">
        <ele>600</ele>
        <time>2021-08-05T11:35:02.285Z</time>
      </trkpt>
      <trkpt lat="46.97825" lon="8.74041">
        <ele>600</ele>
        <time>2021-08-05T11:35:03.286Z</time>
      </trkpt>
      <trkpt lat="46.97826" lon="8.7404">
        <ele>600</ele>
        <time>2021-08-05T11:35:04.285Z</time>
      </trkpt>
      <trkpt lat="46.97828" lon="8.74039">
        <ele>600</ele>
        <time>2021-08-05T11:35:05.286Z</time>
      </trkpt>
      <trkpt lat="46.97829" lon="8.74038">
        <ele>600</ele>
        <time>2021-08-05T11:35:06.285Z</time>
      </trkpt>
      <trkpt lat="46.97831" lon="8.74037">
        <ele>600</ele>
        <time>2021-08-05T11:35:07.286Z</time>
      </trkpt>
      <trkpt lat="46.97832" lon="8.74036">
        <ele>600</ele>
        <time>2021-08-05T11:35:08.286Z</time>
      </trkpt>
      <trkpt lat="46.97833" lon="8.74035">
        <ele>599</ele>
        <time>2021-08-05T11:35:09.285Z</time>
      </trkpt>
      <trkpt lat="46.97835" lon="8.74034">
        <ele>599</ele>
        <time>2021-08-05T11:35:10.285Z</time>
      </trkpt>
      <trkpt lat="46.97836" lon="8.74033">
        <ele>599</ele>
        <time>2021-08-05T11:35:11.286Z</time>
      </trkpt>
      <trkpt lat="46.97837" lon="8.74033">
        <ele>598</ele>
        <time>2021-08-05T11:35:12.285Z</time>
      </trkpt>
      <trkpt lat="46.97838" lon="8.74033">
        <ele>598</ele>
        <time>2021-08-05T11:35:13.286Z</time>
      </trkpt>
      <trkpt lat="46.97839" lon="8.74034">
        <ele>598</ele>
        <time>2021-08-05T11:35:14.285Z</time>
      </trkpt>
      <trkpt lat="46.9784" lon="8.74034">
        <ele>598</ele>
        <time>2021-08-05T11:35:15.286Z</time>
      </trkpt>
      <trkpt lat="46.97841" lon="8.74035">
        <ele>597</ele>
        <time>2021-08-05T11:35:16.285Z</time>
      </trkpt>
      <trkpt lat="46.97843" lon="8.74035">
        <ele>597</ele>
        <time>2021-08-05T11:35:17.285Z</time>
      </trkpt>
      <trkpt lat="46.97844" lon="8.74036">
        <ele>597</ele>
        <time>2021-08-05T11:35:18.286Z</time>
      </trkpt>
      <trkpt lat="46.97844" lon="8.74037">
        <ele>596</ele>
        <time>2021-08-05T11:35:19.286Z</time>
      </trkpt>
      <trkpt lat="46.97846" lon="8.74039">
        <ele>596</ele>
        <time>2021-08-05T11:35:20.286Z</time>
      </trkpt>
      <trkpt lat="46.97846" lon="8.7404">
        <ele>596</ele>
        <time>2021-08-05T11:35:21.286Z</time>
      </trkpt>
      <trkpt lat="46.97847" lon="8.74041">
        <ele>597</ele>
        <time>2021-08-05T11:35:22.286Z</time>
      </trkpt>
      <trkpt lat="46.97848" lon="8.74043">
        <ele>597</ele>
        <time>2021-08-05T11:35:23.285Z</time>
      </trkpt>
      <trkpt lat="46.97849" lon="8.74045">
        <ele>597</ele>
        <time>2021-08-05T11:35:24.286Z</time>
      </trkpt>
      <trkpt lat="46.9785" lon="8.74046">
        <ele>597</ele>
        <time>2021-08-05T11:35:25.286Z</time>
      </trkpt>
      <trkpt lat="46.9785" lon="8.74048">
        <ele>598</ele>
        <time>2021-08-05T11:35:26.286Z</time>
      </trkpt>
      <trkpt lat="46.97851" lon="8.7405">
        <ele>598</ele>
        <time>2021-08-05T11:35:27.286Z</time>
      </trkpt>
      <trkpt lat="46.97852" lon="8.74051">
        <ele>597</ele>
        <time>2021-08-05T11:35:28.286Z</time>
      </trkpt>
      <trkpt lat="46.97853" lon="8.74053">
        <ele>597</ele>
        <time>2021-08-05T11:35:29.286Z</time>
      </trkpt>
      <trkpt lat="46.97854" lon="8.74054">
        <ele>597</ele>
        <time>2021-08-05T11:35:30.286Z</time>
      </trkpt>
      <trkpt lat="46.97854" lon="8.74055">
        <ele>597</ele>
        <time>2021-08-05T11:35:31.285Z</time>
      </trkpt>
      <trkpt lat="46.97855" lon="8.74056">
        <ele>597</ele>
        <time>2021-08-05T11:35:32.286Z</time>
      </trkpt>
      <trkpt lat="46.97856" lon="8.74057">
        <ele>596</ele>
        <time>2021-08-05T11:35:33.286Z</time>
      </trkpt>
      <trkpt lat="46.97857" lon="8.74058">
        <ele>596</ele>
        <time>2021-08-05T11:35:34.286Z</time>
      </trkpt>
      <trkpt lat="46.97859" lon="8.7406">
        <ele>595</ele>
        <time>2021-08-05T11:35:35.285Z</time>
      </trkpt>
      <trkpt lat="46.97859" lon="8.74061">
        <ele>594</ele>
        <time>2021-08-05T11:35:36.285Z</time>
      </trkpt>
      <trkpt lat="46.9786" lon="8.74063">
        <ele>594</ele>
        <time>2021-08-05T11:35:37.286Z</time>
      </trkpt>
      <trkpt lat="46.97861" lon="8.74065">
        <ele>593</ele>
        <time>2021-08-05T11:35:38.285Z</time>
      </trkpt>
      <trkpt lat="46.97861" lon="8.74067">
        <ele>593</ele>
        <time>2021-08-05T11:35:39.286Z</time>
      </trkpt>
      <trkpt lat="46.97862" lon="8.74068">
        <ele>592</ele>
        <time>2021-08-05T11:35:40.285Z</time>
      </trkpt>
      <trkpt lat="46.97863" lon="8.74069">
        <ele>592</ele>
        <time>2021-08-05T11:35:41.286Z</time>
      </trkpt>
      <trkpt lat="46.97864" lon="8.74071">
        <ele>591</ele>
        <time>2021-08-05T11:35:42.286Z</time>
      </trkpt>
      <trkpt lat="46.97865" lon="8.74073">
        <ele>591</ele>
        <time>2021-08-05T11:35:43.286Z</time>
      </trkpt>
      <trkpt lat="46.97865" lon="8.74075">
        <ele>591</ele>
        <time>2021-08-05T11:35:44.286Z</time>
      </trkpt>
      <trkpt lat="46.97866" lon="8.74076">
        <ele>591</ele>
        <time>2021-08-05T11:35:45.286Z</time>
      </trkpt>
      <trkpt lat="46.97867" lon="8.74078">
        <ele>592</ele>
        <time>2021-08-05T11:35:46.286Z</time>
      </trkpt>
      <trkpt lat="46.97868" lon="8.7408">
        <ele>592</ele>
        <time>2021-08-05T11:35:47.285Z</time>
      </trkpt>
      <trkpt lat="46.97868" lon="8.74081">
        <ele>593</ele>
        <time>2021-08-05T11:35:48.285Z</time>
      </trkpt>
      <trkpt lat="46.97868" lon="8.74083">
        <ele>594</ele>
        <time>2021-08-05T11:35:49.286Z</time>
      </trkpt>
      <trkpt lat="46.97869" lon="8.74085">
        <ele>594</ele>
        <time>2021-08-05T11:35:50.285Z</time>
      </trkpt>
      <trkpt lat="46.97869" lon="8.74087">
        <ele>594</ele>
        <time>2021-08-05T11:35:51.286Z</time>
      </trkpt>
      <trkpt lat="46.9787" lon="8.74088">
        <ele>594</ele>
        <time>2021-08-05T11:35:52.286Z</time>
      </trkpt>
      <trkpt lat="46.9787" lon="8.7409">
        <ele>594</ele>
        <time>2021-08-05T11:35:53.286Z</time>
      </trkpt>
      <trkpt lat="46.97871" lon="8.74092">
        <ele>594</ele>
        <time>2021-08-05T11:35:54.286Z</time>
      </trkpt>
      <trkpt lat="46.97871" lon="8.74094">
        <ele>594</ele>
        <time>2021-08-05T11:35:55.286Z</time>
      </trkpt>
      <trkpt lat="46.97872" lon="8.74095">
        <ele>594</ele>
        <time>2021-08-05T11:35:56.285Z</time>
      </trkpt>
      <trkpt lat="46.97872" lon="8.74097">
        <ele>594</ele>
        <time>2021-08-05T11:35:57.286Z</time>
      </trkpt>
      <trkpt lat="46.97872" lon="8.74099">
        <ele>594</ele>
        <time>2021-08-05T11:35:58.286Z</time>
      </trkpt>
      <trkpt lat="46.97873" lon="8.74101">
        <ele>594</ele>
        <time>2021-08-05T11:35:59.285Z</time>
      </trkpt>
      <trkpt lat="46.97873" lon="8.74104">
        <ele>594</ele>
        <time>2021-08-05T11:36:00.285Z</time>
      </trkpt>
      <trkpt lat="46.97872" lon="8.74106">
        <ele>593</ele>
        <time>2021-08-05T11:36:01.286Z</time>
      </trkpt>
      <trkpt lat="46.97873" lon="8.74108">
        <ele>593</ele>
        <time>2021-08-05T11:36:02.286Z</time>
      </trkpt>
      <trkpt lat="46.97874" lon="8.74109">
        <ele>592</ele>
        <time>2021-08-05T11:36:03.286Z</time>
      </trkpt>
      <trkpt lat="46.97874" lon="8.7411">
        <ele>592</ele>
        <time>2021-08-05T11:36:04.286Z</time>
      </trkpt>
      <trkpt lat="46.97874" lon="8.74112">
        <ele>593</ele>
        <time>2021-08-05T11:36:05.286Z</time>
      </trkpt>
      <trkpt lat="46.97874" lon="8.74114">
        <ele>593</ele>
        <time>2021-08-05T11:36:06.286Z</time>
      </trkpt>
      <trkpt lat="46.97875" lon="8.74115">
        <ele>594</ele>
        <time>2021-08-05T11:36:07.286Z</time>
      </trkpt>
      <trkpt lat="46.97875" lon="8.74117">
        <ele>594</ele>
        <time>2021-08-05T11:36:08.285Z</time>
      </trkpt>
      <trkpt lat="46.97875" lon="8.74118">
        <ele>594</ele>
        <time>2021-08-05T11:36:09.285Z</time>
      </trkpt>
      <trkpt lat="46.97875" lon="8.7412">
        <ele>594</ele>
        <time>2021-08-05T11:36:10.286Z</time>
      </trkpt>
      <trkpt lat="46.97875" lon="8.74122">
        <ele>593</ele>
        <time>2021-08-05T11:36:11.285Z</time>
      </trkpt>
      <trkpt lat="46.97876" lon="8.74123">
        <ele>593</ele>
        <time>2021-08-05T11:36:12.286Z</time>
      </trkpt>
      <trkpt lat="46.97876" lon="8.74125">
        <ele>593</ele>
        <time>2021-08-05T11:36:13.286Z</time>
      </trkpt>
      <trkpt lat="46.97876" lon="8.74127">
        <ele>592</ele>
        <time>2021-08-05T11:36:14.285Z</time>
      </trkpt>
      <trkpt lat="46.97876" lon="8.74129">
        <ele>593</ele>
        <time>2021-08-05T11:36:15.286Z</time>
      </trkpt>
      <trkpt lat="46.97876" lon="8.74131">
        <ele>593</ele>
        <time>2021-08-05T11:36:16.286Z</time>
      </trkpt>
      <trkpt lat="46.97877" lon="8.74133">
        <ele>593</ele>
        <time>2021-08-05T11:36:17.285Z</time>
      </trkpt>
      <trkpt lat="46.97877" lon="8.74135">
        <ele>594</ele>
        <time>2021-08-05T11:36:18.285Z</time>
      </trkpt>
      <trkpt lat="46.97877" lon="8.74136">
        <ele>594</ele>
        <time>2021-08-05T11:36:19.286Z</time>
      </trkpt>
      <trkpt lat="46.97876" lon="8.74138">
        <ele>594</ele>
        <time>2021-08-05T11:36:20.286Z</time>
      </trkpt>
      <trkpt lat="46.97876" lon="8.7414">
        <ele>594</ele>
        <time>2021-08-05T11:36:21.285Z</time>
      </trkpt>
      <trkpt lat="46.97876" lon="8.74142">
        <ele>594</ele>
        <time>2021-08-05T11:36:22.286Z</time>
      </trkpt>
      <trkpt lat="46.97876" lon="8.74144">
        <ele>594</ele>
        <time>2021-08-05T11:36:23.286Z</time>
      </trkpt>
      <trkpt lat="46.97876" lon="8.74145">
        <ele>594</ele>
        <time>2021-08-05T11:36:24.285Z</time>
      </trkpt>
      <trkpt lat="46.97876" lon="8.74147">
        <ele>594</ele>
        <time>2021-08-05T11:36:25.286Z</time>
      </trkpt>
      <trkpt lat="46.97875" lon="8.74148">
        <ele>594</ele>
        <time>2021-08-05T11:36:26.285Z</time>
      </trkpt>
      <trkpt lat="46.97875" lon="8.7415">
        <ele>594</ele>
        <time>2021-08-05T11:36:27.286Z</time>
      </trkpt>
      <trkpt lat="46.97875" lon="8.74153">
        <ele>594</ele>
        <time>2021-08-05T11:36:28.286Z</time>
      </trkpt>
      <trkpt lat="46.97874" lon="8.74155">
        <ele>594</ele>
        <time>2021-08-05T11:36:29.286Z</time>
      </trkpt>
      <trkpt lat="46.97874" lon="8.74157">
        <ele>594</ele>
        <time>2021-08-05T11:36:30.285Z</time>
      </trkpt>
      <trkpt lat="46.97874" lon="8.74159">
        <ele>594</ele>
        <time>2021-08-05T11:36:31.286Z</time>
      </trkpt>
      <trkpt lat="46.97873" lon="8.74161">
        <ele>594</ele>
        <time>2021-08-05T11:36:32.285Z</time>
      </trkpt>
      <trkpt lat="46.97873" lon="8.74163">
        <ele>595</ele>
        <time>2021-08-05T11:36:33.286Z</time>
      </trkpt>
      <trkpt lat="46.97872" lon="8.74165">
        <ele>595</ele>
        <time>2021-08-05T11:36:34.286Z</time>
      </trkpt>
      <trkpt lat="46.97872" lon="8.74166">
        <ele>595</ele>
        <time>2021-08-05T11:36:35.285Z</time>
      </trkpt>
      <trkpt lat="46.97871" lon="8.74168">
        <ele>596</ele>
        <time>2021-08-05T11:36:36.286Z</time>
      </trkpt>
      <trkpt lat="46.97871" lon="8.7417">
        <ele>596</ele>
        <time>2021-08-05T11:36:37.285Z</time>
      </trkpt>
      <trkpt lat="46.9787" lon="8.74172">
        <ele>597</ele>
        <time>2021-08-05T11:36:38.285Z</time>
      </trkpt>
      <trkpt lat="46.97869" lon="8.74174">
        <ele>597</ele>
        <time>2021-08-05T11:36:39.286Z</time>
      </trkpt>
      <trkpt lat="46.97869" lon="8.74176">
        <ele>598</ele>
        <time>2021-08-05T11:36:40.286Z</time>
      </trkpt>
      <trkpt lat="46.97868" lon="8.74178">
        <ele>598</ele>
        <time>2021-08-05T11:36:41.285Z</time>
      </trkpt>
      <trkpt lat="46.97868" lon="8.7418">
        <ele>598</ele>
        <time>2021-08-05T11:36:42.286Z</time>
      </trkpt>
      <trkpt lat="46.97868" lon="8.74182">
        <ele>598</ele>
        <time>2021-08-05T11:36:43.285Z</time>
      </trkpt>
      <trkpt lat="46.97867" lon="8.74184">
        <ele>598</ele>
        <time>2021-08-05T11:36:44.285Z</time>
      </trkpt>
      <trkpt lat="46.97867" lon="8.74186">
        <ele>598</ele>
        <time>2021-08-05T11:36:45.286Z</time>
      </trkpt>
      <trkpt lat="46.97867" lon="8.74188">
        <ele>597</ele>
        <time>2021-08-05T11:36:46.286Z</time>
      </trkpt>
      <trkpt lat="46.97866" lon="8.7419">
        <ele>597</ele>
        <time>2021-08-05T11:36:47.286Z</time>
      </trkpt>
      <trkpt lat="46.97866" lon="8.74192">
        <ele>597</ele>
        <time>2021-08-05T11:36:48.286Z</time>
      </trkpt>
      <trkpt lat="46.97865" lon="8.74194">
        <ele>597</ele>
        <time>2021-08-05T11:36:49.286Z</time>
      </trkpt>
      <trkpt lat="46.97865" lon="8.74195">
        <ele>598</ele>
        <time>2021-08-05T11:36:50.286Z</time>
      </trkpt>
      <trkpt lat="46.97865" lon="8.74197">
        <ele>598</ele>
        <time>2021-08-05T11:36:51.285Z</time>
      </trkpt>
      <trkpt lat="46.97864" lon="8.74199">
        <ele>598</ele>
        <time>2021-08-05T11:36:52.285Z</time>
      </trkpt>
      <trkpt lat="46.97864" lon="8.742">
        <ele>598</ele>
        <time>2021-08-05T11:36:53.286Z</time>
      </trkpt>
      <trkpt lat="46.97863" lon="8.74202">
        <ele>598</ele>
        <time>2021-08-05T11:36:54.285Z</time>
      </trkpt>
      <trkpt lat="46.97863" lon="8.74204">
        <ele>597</ele>
        <time>2021-08-05T11:36:55.286Z</time>
      </trkpt>
      <trkpt lat="46.97863" lon="8.74206">
        <ele>597</ele>
        <time>2021-08-05T11:36:56.286Z</time>
      </trkpt>
      <trkpt lat="46.97862" lon="8.74208">
        <ele>597</ele>
        <time>2021-08-05T11:36:57.285Z</time>
      </trkpt>
      <trkpt lat="46.97862" lon="8.74209">
        <ele>597</ele>
        <time>2021-08-05T11:36:58.286Z</time>
      </trkpt>
      <trkpt lat="46.97861" lon="8.74211">
        <ele>597</ele>
        <time>2021-08-05T11:36:59.286Z</time>
      </trkpt>
      <trkpt lat="46.97861" lon="8.74213">
        <ele>597</ele>
        <time>2021-08-05T11:37:00.286Z</time>
      </trkpt>
      <trkpt lat="46.97861" lon="8.74215">
        <ele>597</ele>
        <time>2021-08-05T11:37:01.286Z</time>
      </trkpt>
      <trkpt lat="46.9786" lon="8.74217">
        <ele>597</ele>
        <time>2021-08-05T11:37:02.286Z</time>
      </trkpt>
      <trkpt lat="46.9786" lon="8.74218">
        <ele>597</ele>
        <time>2021-08-05T11:37:03.285Z</time>
      </trkpt>
      <trkpt lat="46.97859" lon="8.7422">
        <ele>597</ele>
        <time>2021-08-05T11:37:04.285Z</time>
      </trkpt>
      <trkpt lat="46.97859" lon="8.74222">
        <ele>597</ele>
        <time>2021-08-05T11:37:05.286Z</time>
      </trkpt>
      <trkpt lat="46.97859" lon="8.74224">
        <ele>596</ele>
        <time>2021-08-05T11:37:06.285Z</time>
      </trkpt>
      <trkpt lat="46.97858" lon="8.74225">
        <ele>596</ele>
        <time>2021-08-05T11:37:07.286Z</time>
      </trkpt>
      <trkpt lat="46.97858" lon="8.74226">
        <ele>597</ele>
        <time>2021-08-05T11:37:08.286Z</time>
      </trkpt>
      <trkpt lat="46.97857" lon="8.74228">
        <ele>597</ele>
        <time>2021-08-05T11:37:09.286Z</time>
      </trkpt>
      <trkpt lat="46.97857" lon="8.74231">
        <ele>596</ele>
        <time>2021-08-05T11:37:10.286Z</time>
      </trkpt>
      <trkpt lat="46.97856" lon="8.74232">
        <ele>596</ele>
        <time>2021-08-05T11:37:11.285Z</time>
      </trkpt>
      <trkpt lat="46.97856" lon="8.74234">
        <ele>596</ele>
        <time>2021-08-05T11:37:12.286Z</time>
      </trkpt>
      <trkpt lat="46.97856" lon="8.74236">
        <ele>596</ele>
        <time>2021-08-05T11:37:13.286Z</time>
      </trkpt>
      <trkpt lat="46.97855" lon="8.74239">
        <ele>596</ele>
        <time>2021-08-05T11:37:14.286Z</time>
      </trkpt>
      <trkpt lat="46.97855" lon="8.74241">
        <ele>596</ele>
        <time>2021-08-05T11:37:15.285Z</time>
      </trkpt>
      <trkpt lat="46.97855" lon="8.74243">
        <ele>596</ele>
        <time>2021-08-05T11:37:16.286Z</time>
      </trkpt>
      <trkpt lat="46.97854" lon="8.74243">
        <ele>596</ele>
        <time>2021-08-05T11:37:17.285Z</time>
      </trkpt>
      <trkpt lat="46.97854" lon="8.74246">
        <ele>596</ele>
        <time>2021-08-05T11:37:18.286Z</time>
      </trkpt>
      <trkpt lat="46.97854" lon="8.74249">
        <ele>596</ele>
        <time>2021-08-05T11:37:19.286Z</time>
      </trkpt>
      <trkpt lat="46.97853" lon="8.74252">
        <ele>596</ele>
        <time>2021-08-05T11:37:20.285Z</time>
      </trkpt>
      <trkpt lat="46.97853" lon="8.74253">
        <ele>596</ele>
        <time>2021-08-05T11:37:21.285Z</time>
      </trkpt>
      <trkpt lat="46.97853" lon="8.74255">
        <ele>596</ele>
        <time>2021-08-05T11:37:22.286Z</time>
      </trkpt>
      <trkpt lat="46.97852" lon="8.74257">
        <ele>596</ele>
        <time>2021-08-05T11:37:23.286Z</time>
      </trkpt>
      <trkpt lat="46.97852" lon="8.74258">
        <ele>595</ele>
        <time>2021-08-05T11:37:24.286Z</time>
      </trkpt>
      <trkpt lat="46.97852" lon="8.74259">
        <ele>595</ele>
        <time>2021-08-05T11:37:25.285Z</time>
      </trkpt>
      <trkpt lat="46.97851" lon="8.74261">
        <ele>595</ele>
        <time>2021-08-05T11:37:26.286Z</time>
      </trkpt>
      <trkpt lat="46.97851" lon="8.74264">
        <ele>595</ele>
        <time>2021-08-05T11:37:27.285Z</time>
      </trkpt>
      <trkpt lat="46.9785" lon="8.74266">
        <ele>595</ele>
        <time>2021-08-05T11:37:28.285Z</time>
      </trkpt>
      <trkpt lat="46.9785" lon="8.74268">
        <ele>596</ele>
        <time>2021-08-05T11:37:29.286Z</time>
      </trkpt>
      <trkpt lat="46.97849" lon="8.7427">
        <ele>596</ele>
        <time>2021-08-05T11:37:30.286Z</time>
      </trkpt>
      <trkpt lat="46.97849" lon="8.74271">
        <ele>595</ele>
        <time>2021-08-05T11:37:31.285Z</time>
      </trkpt>
      <trkpt lat="46.97849" lon="8.74273">
        <ele>595</ele>
        <time>2021-08-05T11:37:32.285Z</time>
      </trkpt>
      <trkpt lat="46.97848" lon="8.74275">
        <ele>595</ele>
        <time>2021-08-05T11:37:33.285Z</time>
      </trkpt>
      <trkpt lat="46.97847" lon="8.74277">
        <ele>595</ele>
        <time>2021-08-05T11:37:35.431Z</time>
      </trkpt>
      <trkpt lat="46.97847" lon="8.74278">
        <ele>595</ele>
        <time>2021-08-05T11:37:36.431Z</time>
      </trkpt>
      <trkpt lat="46.97846" lon="8.7428">
        <ele>595</ele>
        <time>2021-08-05T11:37:37.431Z</time>
      </trkpt>
      <trkpt lat="46.97846" lon="8.74281">
        <ele>595</ele>
        <time>2021-08-05T11:37:38.432Z</time>
      </trkpt>
      <trkpt lat="46.97846" lon="8.74282">
        <ele>595</ele>
        <time>2021-08-05T11:37:39.431Z</time>
      </trkpt>
      <trkpt lat="46.97846" lon="8.74282">
        <ele>595</ele>
        <time>2021-08-05T11:37:40.431Z</time>
      </trkpt>
      <trkpt lat="46.97845" lon="8.74278">
        <ele>595</ele>
        <time>2021-08-05T11:37:41.431Z</time>
      </trkpt>
      <trkpt lat="46.97845" lon="8.7428">
        <ele>596</ele>
        <time>2021-08-05T11:37:42.432Z</time>
      </trkpt>
      <trkpt lat="46.97844" lon="8.74282">
        <ele>596</ele>
        <time>2021-08-05T11:37:43.431Z</time>
      </trkpt>
      <trkpt lat="46.97844" lon="8.74284">
        <ele>597</ele>
        <time>2021-08-05T11:37:44.431Z</time>
      </trkpt>
      <trkpt lat="46.97843" lon="8.74286">
        <ele>597</ele>
        <time>2021-08-05T11:37:45.431Z</time>
      </trkpt>
      <trkpt lat="46.97843" lon="8.74288">
        <ele>598</ele>
        <time>2021-08-05T11:37:46.432Z</time>
      </trkpt>
      <trkpt lat="46.97843" lon="8.74291">
        <ele>598</ele>
        <time>2021-08-05T11:37:47.432Z</time>
      </trkpt>
      <trkpt lat="46.97843" lon="8.74293">
        <ele>598</ele>
        <time>2021-08-05T11:37:48.431Z</time>
      </trkpt>
      <trkpt lat="46.97842" lon="8.74294">
        <ele>598</ele>
        <time>2021-08-05T11:37:49.431Z</time>
      </trkpt>
      <trkpt lat="46.97841" lon="8.74296">
        <ele>598</ele>
        <time>2021-08-05T11:37:50.432Z</time>
      </trkpt>
      <trkpt lat="46.97841" lon="8.74298">
        <ele>599</ele>
        <time>2021-08-05T11:37:51.431Z</time>
      </trkpt>
      <trkpt lat="46.9784" lon="8.743">
        <ele>599</ele>
        <time>2021-08-05T11:37:52.432Z</time>
      </trkpt>
      <trkpt lat="46.9784" lon="8.74302">
        <ele>599</ele>
        <time>2021-08-05T11:37:53.432Z</time>
      </trkpt>
      <trkpt lat="46.97839" lon="8.74303">
        <ele>599</ele>
        <time>2021-08-05T11:37:54.432Z</time>
      </trkpt>
      <trkpt lat="46.97839" lon="8.74306">
        <ele>599</ele>
        <time>2021-08-05T11:37:55.431Z</time>
      </trkpt>
      <trkpt lat="46.97839" lon="8.74308">
        <ele>599</ele>
        <time>2021-08-05T11:37:56.432Z</time>
      </trkpt>
      <trkpt lat="46.97838" lon="8.7431">
        <ele>599</ele>
        <time>2021-08-05T11:37:57.432Z</time>
      </trkpt>
      <trkpt lat="46.97837" lon="8.74312">
        <ele>599</ele>
        <time>2021-08-05T11:37:58.431Z</time>
      </trkpt>
      <trkpt lat="46.97837" lon="8.74313">
        <ele>598</ele>
        <time>2021-08-05T11:37:59.432Z</time>
      </trkpt>
      <trkpt lat="46.97836" lon="8.74315">
        <ele>598</ele>
        <time>2021-08-05T11:38:00.432Z</time>
      </trkpt>
      <trkpt lat="46.97836" lon="8.74318">
        <ele>598</ele>
        <time>2021-08-05T11:38:01.432Z</time>
      </trkpt>
      <trkpt lat="46.97835" lon="8.74318">
        <ele>598</ele>
        <time>2021-08-05T11:38:02.432Z</time>
      </trkpt>
      <trkpt lat="46.97834" lon="8.74319">
        <ele>598</ele>
        <time>2021-08-05T11:38:03.432Z</time>
      </trkpt>
      <trkpt lat="46.97834" lon="8.74321">
        <ele>598</ele>
        <time>2021-08-05T11:38:04.432Z</time>
      </trkpt>
      <trkpt lat="46.97834" lon="8.74323">
        <ele>597</ele>
        <time>2021-08-05T11:38:05.432Z</time>
      </trkpt>
      <trkpt lat="46.97834" lon="8.74325">
        <ele>597</ele>
        <time>2021-08-05T11:38:06.432Z</time>
      </trkpt>
      <trkpt lat="46.97834" lon="8.74327">
        <ele>597</ele>
        <time>2021-08-05T11:38:07.432Z</time>
      </trkpt>
      <trkpt lat="46.97834" lon="8.74328">
        <ele>597</ele>
        <time>2021-08-05T11:38:08.432Z</time>
      </trkpt>
      <trkpt lat="46.97833" lon="8.7433">
        <ele>597</ele>
        <time>2021-08-05T11:38:09.432Z</time>
      </trkpt>
      <trkpt lat="46.97833" lon="8.74332">
        <ele>596</ele>
        <time>2021-08-05T11:38:10.432Z</time>
      </trkpt>
      <trkpt lat="46.97832" lon="8.74333">
        <ele>596</ele>
        <time>2021-08-05T11:38:11.431Z</time>
      </trkpt>
      <trkpt lat="46.97832" lon="8.74335">
        <ele>596</ele>
        <time>2021-08-05T11:38:12.432Z</time>
      </trkpt>
      <trkpt lat="46.97831" lon="8.74337">
        <ele>596</ele>
        <time>2021-08-05T11:38:13.432Z</time>
      </trkpt>
      <trkpt lat="46.97831" lon="8.74339">
        <ele>596</ele>
        <time>2021-08-05T11:38:14.432Z</time>
      </trkpt>
      <trkpt lat="46.9783" lon="8.7434">
        <ele>596</ele>
        <time>2021-08-05T11:38:15.431Z</time>
      </trkpt>
      <trkpt lat="46.9783" lon="8.74342">
        <ele>596</ele>
        <time>2021-08-05T11:38:16.431Z</time>
      </trkpt>
      <trkpt lat="46.97829" lon="8.74343">
        <ele>597</ele>
        <time>2021-08-05T11:38:17.431Z</time>
      </trkpt>
      <trkpt lat="46.97828" lon="8.74345">
        <ele>597</ele>
        <time>2021-08-05T11:38:18.432Z</time>
      </trkpt>
      <trkpt lat="46.97828" lon="8.74347">
        <ele>596</ele>
        <time>2021-08-05T11:38:19.431Z</time>
      </trkpt>
      <trkpt lat="46.97827" lon="8.74349">
        <ele>597</ele>
        <time>2021-08-05T11:38:20.431Z</time>
      </trkpt>
      <trkpt lat="46.97827" lon="8.7435">
        <ele>597</ele>
        <time>2021-08-05T11:38:21.431Z</time>
      </trkpt>
      <trkpt lat="46.97826" lon="8.74352">
        <ele>598</ele>
        <time>2021-08-05T11:38:22.431Z</time>
      </trkpt>
      <trkpt lat="46.97825" lon="8.74355">
        <ele>598</ele>
        <time>2021-08-05T11:38:23.431Z</time>
      </trkpt>
      <trkpt lat="46.97825" lon="8.74357">
        <ele>598</ele>
        <time>2021-08-05T11:38:24.431Z</time>
      </trkpt>
      <trkpt lat="46.97824" lon="8.74359">
        <ele>599</ele>
        <time>2021-08-05T11:38:25.432Z</time>
      </trkpt>
      <trkpt lat="46.97824" lon="8.74361">
        <ele>599</ele>
        <time>2021-08-05T11:38:26.431Z</time>
      </trkpt>
      <trkpt lat="46.97824" lon="8.74363">
        <ele>599</ele>
        <time>2021-08-05T11:38:27.432Z</time>
      </trkpt>
      <trkpt lat="46.97823" lon="8.74364">
        <ele>599</ele>
        <time>2021-08-05T11:38:28.432Z</time>
      </trkpt>
      <trkpt lat="46.97823" lon="8.74366">
        <ele>599</ele>
        <time>2021-08-05T11:38:29.432Z</time>
      </trkpt>
      <trkpt lat="46.97822" lon="8.74368">
        <ele>599</ele>
        <time>2021-08-05T11:38:30.432Z</time>
      </trkpt>
      <trkpt lat="46.97822" lon="8.7437">
        <ele>598</ele>
        <time>2021-08-05T11:38:31.432Z</time>
      </trkpt>
      <trkpt lat="46.97822" lon="8.74372">
        <ele>598</ele>
        <time>2021-08-05T11:38:32.432Z</time>
      </trkpt>
      <trkpt lat="46.97821" lon="8.74375">
        <ele>598</ele>
        <time>2021-08-05T11:38:33.431Z</time>
      </trkpt>
      <trkpt lat="46.97821" lon="8.74376">
        <ele>598</ele>
        <time>2021-08-05T11:38:34.431Z</time>
      </trkpt>
      <trkpt lat="46.9782" lon="8.74378">
        <ele>598</ele>
        <time>2021-08-05T11:38:35.432Z</time>
      </trkpt>
      <trkpt lat="46.9782" lon="8.7438">
        <ele>598</ele>
        <time>2021-08-05T11:38:36.432Z</time>
      </trkpt>
      <trkpt lat="46.97819" lon="8.74381">
        <ele>597</ele>
        <time>2021-08-05T11:38:37.432Z</time>
      </trkpt>
      <trkpt lat="46.97819" lon="8.74383">
        <ele>597</ele>
        <time>2021-08-05T11:38:38.432Z</time>
      </trkpt>
      <trkpt lat="46.97818" lon="8.74385">
        <ele>597</ele>
        <time>2021-08-05T11:38:39.431Z</time>
      </trkpt>
      <trkpt lat="46.97818" lon="8.74387">
        <ele>597</ele>
        <time>2021-08-05T11:38:40.431Z</time>
      </trkpt>
      <trkpt lat="46.97818" lon="8.74389">
        <ele>596</ele>
        <time>2021-08-05T11:38:41.431Z</time>
      </trkpt>
      <trkpt lat="46.97817" lon="8.74391">
        <ele>596</ele>
        <time>2021-08-05T11:38:42.432Z</time>
      </trkpt>
      <trkpt lat="46.97817" lon="8.74393">
        <ele>595</ele>
        <time>2021-08-05T11:38:43.431Z</time>
      </trkpt>
      <trkpt lat="46.97816" lon="8.74395">
        <ele>595</ele>
        <time>2021-08-05T11:38:44.432Z</time>
      </trkpt>
      <trkpt lat="46.97815" lon="8.74397">
        <ele>595</ele>
        <time>2021-08-05T11:38:45.431Z</time>
      </trkpt>
      <trkpt lat="46.97815" lon="8.74399">
        <ele>595</ele>
        <time>2021-08-05T11:38:46.432Z</time>
      </trkpt>
      <trkpt lat="46.97814" lon="8.74401">
        <ele>596</ele>
        <time>2021-08-05T11:38:47.432Z</time>
      </trkpt>
      <trkpt lat="46.97814" lon="8.74403">
        <ele>596</ele>
        <time>2021-08-05T11:38:48.432Z</time>
      </trkpt>
      <trkpt lat="46.97813" lon="8.74404">
        <ele>596</ele>
        <time>2021-08-05T11:38:49.432Z</time>
      </trkpt>
      <trkpt lat="46.97813" lon="8.74406">
        <ele>596</ele>
        <time>2021-08-05T11:38:50.432Z</time>
      </trkpt>
      <trkpt lat="46.97812" lon="8.74408">
        <ele>596</ele>
        <time>2021-08-05T11:38:51.431Z</time>
      </trkpt>
      <trkpt lat="46.97812" lon="8.7441">
        <ele>596</ele>
        <time>2021-08-05T11:38:52.432Z</time>
      </trkpt>
      <trkpt lat="46.97811" lon="8.74412">
        <ele>596</ele>
        <time>2021-08-05T11:38:53.432Z</time>
      </trkpt>
      <trkpt lat="46.97811" lon="8.74414">
        <ele>596</ele>
        <time>2021-08-05T11:38:54.432Z</time>
      </trkpt>
      <trkpt lat="46.9781" lon="8.74416">
        <ele>596</ele>
        <time>2021-08-05T11:38:55.432Z</time>
      </trkpt>
      <trkpt lat="46.97809" lon="8.74418">
        <ele>596</ele>
        <time>2021-08-05T11:38:56.432Z</time>
      </trkpt>
      <trkpt lat="46.97809" lon="8.7442">
        <ele>596</ele>
        <time>2021-08-05T11:39:08.535Z</time>
      </trkpt>
      <trkpt lat="46.97808" lon="8.74422">
        <ele>596</ele>
        <time>2021-08-05T11:39:09.536Z</time>
      </trkpt>
      <trkpt lat="46.97807" lon="8.74423">
        <ele>596</ele>
        <time>2021-08-05T11:39:18.328Z</time>
      </trkpt>
      <trkpt lat="46.97807" lon="8.74425">
        <ele>595</ele>
        <time>2021-08-05T11:39:19.328Z</time>
      </trkpt>
      <trkpt lat="46.97806" lon="8.74427">
        <ele>595</ele>
        <time>2021-08-05T11:39:20.328Z</time>
      </trkpt>
      <trkpt lat="46.97805" lon="8.74429">
        <ele>595</ele>
        <time>2021-08-05T11:39:21.327Z</time>
      </trkpt>
      <trkpt lat="46.97805" lon="8.7443">
        <ele>595</ele>
        <time>2021-08-05T11:39:22.328Z</time>
      </trkpt>
      <trkpt lat="46.97804" lon="8.74432">
        <ele>595</ele>
        <time>2021-08-05T11:39:23.327Z</time>
      </trkpt>
      <trkpt lat="46.97804" lon="8.74434">
        <ele>595</ele>
        <time>2021-08-05T11:39:24.327Z</time>
      </trkpt>
      <trkpt lat="46.97804" lon="8.74435">
        <ele>595</ele>
        <time>2021-08-05T11:39:25.328Z</time>
      </trkpt>
      <trkpt lat="46.97803" lon="8.74437">
        <ele>595</ele>
        <time>2021-08-05T11:39:26.328Z</time>
      </trkpt>
      <trkpt lat="46.97803" lon="8.74439">
        <ele>595</ele>
        <time>2021-08-05T11:39:27.328Z</time>
      </trkpt>
      <trkpt lat="46.97802" lon="8.74441">
        <ele>596</ele>
        <time>2021-08-05T11:39:28.328Z</time>
      </trkpt>
      <trkpt lat="46.97802" lon="8.74443">
        <ele>596</ele>
        <time>2021-08-05T11:39:38.451Z</time>
      </trkpt>
      <trkpt lat="46.97802" lon="8.74445">
        <ele>597</ele>
        <time>2021-08-05T11:39:39.451Z</time>
      </trkpt>
      <trkpt lat="46.97801" lon="8.74447">
        <ele>597</ele>
        <time>2021-08-05T11:39:40.450Z</time>
      </trkpt>
      <trkpt lat="46.97801" lon="8.74449">
        <ele>598</ele>
        <time>2021-08-05T11:39:50.329Z</time>
      </trkpt>
      <trkpt lat="46.978" lon="8.7445">
        <ele>598</ele>
        <time>2021-08-05T11:39:51.330Z</time>
      </trkpt>
      <trkpt lat="46.978" lon="8.74452">
        <ele>598</ele>
        <time>2021-08-05T11:39:57.177Z</time>
      </trkpt>
      <trkpt lat="46.978" lon="8.74453">
        <ele>599</ele>
        <time>2021-08-05T11:39:58.177Z</time>
      </trkpt>
      <trkpt lat="46.97799" lon="8.74455">
        <ele>600</ele>
        <time>2021-08-05T11:39:59.177Z</time>
      </trkpt>
      <trkpt lat="46.97799" lon="8.74457">
        <ele>600</ele>
        <time>2021-08-05T11:40:30.308Z</time>
      </trkpt>
      <trkpt lat="46.97798" lon="8.74459">
        <ele>600</ele>
        <time>2021-08-05T11:40:31.307Z</time>
      </trkpt>
      <trkpt lat="46.97797" lon="8.74461">
        <ele>601</ele>
        <time>2021-08-05T11:40:32.308Z</time>
      </trkpt>
      <trkpt lat="46.97797" lon="8.74463">
        <ele>601</ele>
        <time>2021-08-05T11:40:33.308Z</time>
      </trkpt>
      <trkpt lat="46.97796" lon="8.74465">
        <ele>601</ele>
        <time>2021-08-05T11:40:34.308Z</time>
      </trkpt>
      <trkpt lat="46.97795" lon="8.74466">
        <ele>602</ele>
        <time>2021-08-05T11:40:35.307Z</time>
      </trkpt>
      <trkpt lat="46.97794" lon="8.74468">
        <ele>602</ele>
        <time>2021-08-05T11:40:36.308Z</time>
      </trkpt>
      <trkpt lat="46.97794" lon="8.7447">
        <ele>602</ele>
        <time>2021-08-05T11:40:42.444Z</time>
      </trkpt>
      <trkpt lat="46.97793" lon="8.74472">
        <ele>603</ele>
        <time>2021-08-05T11:40:43.443Z</time>
      </trkpt>
      <trkpt lat="46.97793" lon="8.74474">
        <ele>603</ele>
        <time>2021-08-05T11:40:44.444Z</time>
      </trkpt>
      <trkpt lat="46.97792" lon="8.74476">
        <ele>603</ele>
        <time>2021-08-05T11:40:45.443Z</time>
      </trkpt>
      <trkpt lat="46.97792" lon="8.74478">
        <ele>603</ele>
        <time>2021-08-05T11:40:57.533Z</time>
      </trkpt>
      <trkpt lat="46.97792" lon="8.74479">
        <ele>602</ele>
        <time>2021-08-05T11:40:58.533Z</time>
      </trkpt>
      <trkpt lat="46.97792" lon="8.7448">
        <ele>601</ele>
        <time>2021-08-05T11:40:59.533Z</time>
      </trkpt>
      <trkpt lat="46.97792" lon="8.74481">
        <ele>600</ele>
        <time>2021-08-05T11:41:06.659Z</time>
      </trkpt>
      <trkpt lat="46.97791" lon="8.74482">
        <ele>600</ele>
        <time>2021-08-05T11:41:07.659Z</time>
      </trkpt>
      <trkpt lat="46.97791" lon="8.74484">
        <ele>600</ele>
        <time>2021-08-05T11:41:08.660Z</time>
      </trkpt>
      <trkpt lat="46.97791" lon="8.74485">
        <ele>599</ele>
        <time>2021-08-05T11:41:09.659Z</time>
      </trkpt>
      <trkpt lat="46.9779" lon="8.74486">
        <ele>599</ele>
        <time>2021-08-05T11:41:10.659Z</time>
      </trkpt>
      <trkpt lat="46.9779" lon="8.74486">
        <ele>599</ele>
        <time>2021-08-05T11:41:11.660Z</time>
      </trkpt>
      <trkpt lat="46.97789" lon="8.74488">
        <ele>599</ele>
        <time>2021-08-05T11:41:12.659Z</time>
      </trkpt>
      <trkpt lat="46.97789" lon="8.7449">
        <ele>599</ele>
        <time>2021-08-05T11:41:23.783Z</time>
      </trkpt>
      <trkpt lat="46.97789" lon="8.74493">
        <ele>599</ele>
        <time>2021-08-05T11:41:24.783Z</time>
      </trkpt>
      <trkpt lat="46.97788" lon="8.74495">
        <ele>599</ele>
        <time>2021-08-05T11:41:30.572Z</time>
      </trkpt>
      <trkpt lat="46.97788" lon="8.74497">
        <ele>599</ele>
        <time>2021-08-05T11:41:31.572Z</time>
      </trkpt>
      <trkpt lat="46.97787" lon="8.74499">
        <ele>599</ele>
        <time>2021-08-05T11:41:32.571Z</time>
      </trkpt>
      <trkpt lat="46.97787" lon="8.74501">
        <ele>599</ele>
        <time>2021-08-05T11:41:34.675Z</time>
      </trkpt>
      <trkpt lat="46.97786" lon="8.74502">
        <ele>599</ele>
        <time>2021-08-05T11:41:35.675Z</time>
      </trkpt>
      <trkpt lat="46.97786" lon="8.74504">
        <ele>599</ele>
        <time>2021-08-05T11:41:43.556Z</time>
      </trkpt>
      <trkpt lat="46.97785" lon="8.74506">
        <ele>599</ele>
        <time>2021-08-05T11:41:44.556Z</time>
      </trkpt>
      <trkpt lat="46.97785" lon="8.74509">
        <ele>599</ele>
        <time>2021-08-05T11:41:45.556Z</time>
      </trkpt>
      <trkpt lat="46.97784" lon="8.74511">
        <ele>598</ele>
        <time>2021-08-05T11:41:46.557Z</time>
      </trkpt>
      <trkpt lat="46.97784" lon="8.74513">
        <ele>598</ele>
        <time>2021-08-05T11:41:47.557Z</time>
      </trkpt>
      <trkpt lat="46.97783" lon="8.74515">
        <ele>598</ele>
        <time>2021-08-05T11:41:53.659Z</time>
      </trkpt>
      <trkpt lat="46.97783" lon="8.74518">
        <ele>598</ele>
        <time>2021-08-05T11:42:10.549Z</time>
      </trkpt>
      <trkpt lat="46.97782" lon="8.7452">
        <ele>598</ele>
        <time>2021-08-05T11:42:11.548Z</time>
      </trkpt>
      <trkpt lat="46.97781" lon="8.74522">
        <ele>598</ele>
        <time>2021-08-05T11:42:12.549Z</time>
      </trkpt>
      <trkpt lat="46.97781" lon="8.74524">
        <ele>598</ele>
        <time>2021-08-05T11:42:13.548Z</time>
      </trkpt>
      <trkpt lat="46.9778" lon="8.74526">
        <ele>598</ele>
        <time>2021-08-05T11:42:14.548Z</time>
      </trkpt>
      <trkpt lat="46.9778" lon="8.74527">
        <ele>598</ele>
        <time>2021-08-05T11:42:15.549Z</time>
      </trkpt>
      <trkpt lat="46.97779" lon="8.74529">
        <ele>598</ele>
        <time>2021-08-05T11:42:29.668Z</time>
      </trkpt>
      <trkpt lat="46.97779" lon="8.74531">
        <ele>598</ele>
        <time>2021-08-05T11:42:30.668Z</time>
      </trkpt>
      <trkpt lat="46.97779" lon="8.74533">
        <ele>598</ele>
        <time>2021-08-05T11:42:31.668Z</time>
      </trkpt>
      <trkpt lat="46.97778" lon="8.74534">
        <ele>598</ele>
        <time>2021-08-05T11:42:32.668Z</time>
      </trkpt>
      <trkpt lat="46.97778" lon="8.74536">
        <ele>598</ele>
        <time>2021-08-05T11:42:33.668Z</time>
      </trkpt>
      <trkpt lat="46.97778" lon="8.74538">
        <ele>597</ele>
        <time>2021-08-05T11:42:34.668Z</time>
      </trkpt>
      <trkpt lat="46.97777" lon="8.7454">
        <ele>597</ele>
        <time>2021-08-05T11:42:35.667Z</time>
      </trkpt>
      <trkpt lat="46.97777" lon="8.74542">
        <ele>597</ele>
        <time>2021-08-05T11:42:36.667Z</time>
      </trkpt>
      <trkpt lat="46.97776" lon="8.74544">
        <ele>597</ele>
        <time>2021-08-05T11:42:37.667Z</time>
      </trkpt>
      <trkpt lat="46.97776" lon="8.74546">
        <ele>597</ele>
        <time>2021-08-05T11:42:38.668Z</time>
      </trkpt>
      <trkpt lat="46.97775" lon="8.74549">
        <ele>597</ele>
        <time>2021-08-05T11:42:39.668Z</time>
      </trkpt>
      <trkpt lat="46.97774" lon="8.74551">
        <ele>597</ele>
        <time>2021-08-05T11:42:40.668Z</time>
      </trkpt>
      <trkpt lat="46.97774" lon="8.74553">
        <ele>597</ele>
        <time>2021-08-05T11:42:41.668Z</time>
      </trkpt>
      <trkpt lat="46.97774" lon="8.74555">
        <ele>597</ele>
        <time>2021-08-05T11:42:42.668Z</time>
      </trkpt>
      <trkpt lat="46.97774" lon="8.74556">
        <ele>597</ele>
        <time>2021-08-05T11:42:43.668Z</time>
      </trkpt>
      <trkpt lat="46.97773" lon="8.74557">
        <ele>596</ele>
        <time>2021-08-05T11:42:44.668Z</time>
      </trkpt>
      <trkpt lat="46.97773" lon="8.74559">
        <ele>596</ele>
        <time>2021-08-05T11:42:45.667Z</time>
      </trkpt>
      <trkpt lat="46.97772" lon="8.7456">
        <ele>596</ele>
        <time>2021-08-05T11:42:46.667Z</time>
      </trkpt>
      <trkpt lat="46.97772" lon="8.74561">
        <ele>595</ele>
        <time>2021-08-05T11:42:47.668Z</time>
      </trkpt>
      <trkpt lat="46.97772" lon="8.74562">
        <ele>595</ele>
        <time>2021-08-05T11:42:48.668Z</time>
      </trkpt>
      <trkpt lat="46.97771" lon="8.74563">
        <ele>594</ele>
        <time>2021-08-05T11:42:49.668Z</time>
      </trkpt>
      <trkpt lat="46.97771" lon="8.74564">
        <ele>594</ele>
        <time>2021-08-05T11:42:50.667Z</time>
      </trkpt>
      <trkpt lat="46.97771" lon="8.74566">
        <ele>594</ele>
        <time>2021-08-05T11:42:51.667Z</time>
      </trkpt>
      <trkpt lat="46.97771" lon="8.74567">
        <ele>594</ele>
        <time>2021-08-05T11:42:52.668Z</time>
      </trkpt>
      <trkpt lat="46.9777" lon="8.74569">
        <ele>594</ele>
        <time>2021-08-05T11:42:53.667Z</time>
      </trkpt>
      <trkpt lat="46.9777" lon="8.74571">
        <ele>593</ele>
        <time>2021-08-05T11:42:54.668Z</time>
      </trkpt>
      <trkpt lat="46.9777" lon="8.74574">
        <ele>593</ele>
        <time>2021-08-05T11:42:55.668Z</time>
      </trkpt>
      <trkpt lat="46.9777" lon="8.74576">
        <ele>593</ele>
        <time>2021-08-05T11:42:56.668Z</time>
      </trkpt>
      <trkpt lat="46.97769" lon="8.74578">
        <ele>593</ele>
        <time>2021-08-05T11:42:57.668Z</time>
      </trkpt>
      <trkpt lat="46.97769" lon="8.74579">
        <ele>592</ele>
        <time>2021-08-05T11:42:58.667Z</time>
      </trkpt>
      <trkpt lat="46.97768" lon="8.74581">
        <ele>592</ele>
        <time>2021-08-05T11:42:59.668Z</time>
      </trkpt>
      <trkpt lat="46.97768" lon="8.74583">
        <ele>592</ele>
        <time>2021-08-05T11:43:00.668Z</time>
      </trkpt>
      <trkpt lat="46.97768" lon="8.74585">
        <ele>592</ele>
        <time>2021-08-05T11:43:01.667Z</time>
      </trkpt>
      <trkpt lat="46.97768" lon="8.74587">
        <ele>592</ele>
        <time>2021-08-05T11:43:02.668Z</time>
      </trkpt>
      <trkpt lat="46.97768" lon="8.7459">
        <ele>592</ele>
        <time>2021-08-05T11:43:03.668Z</time>
      </trkpt>
      <trkpt lat="46.97768" lon="8.74592">
        <ele>592</ele>
        <time>2021-08-05T11:43:04.668Z</time>
      </trkpt>
      <trkpt lat="46.97768" lon="8.74594">
        <ele>592</ele>
        <time>2021-08-05T11:43:05.668Z</time>
      </trkpt>
      <trkpt lat="46.97768" lon="8.74596">
        <ele>592</ele>
        <time>2021-08-05T11:43:06.667Z</time>
      </trkpt>
      <trkpt lat="46.97767" lon="8.74597">
        <ele>592</ele>
        <time>2021-08-05T11:43:07.668Z</time>
      </trkpt>
      <trkpt lat="46.97767" lon="8.74599">
        <ele>592</ele>
        <time>2021-08-05T11:43:08.667Z</time>
      </trkpt>
      <trkpt lat="46.97767" lon="8.746">
        <ele>592</ele>
        <time>2021-08-05T11:43:09.668Z</time>
      </trkpt>
      <trkpt lat="46.97766" lon="8.74602">
        <ele>593</ele>
        <time>2021-08-05T11:43:10.668Z</time>
      </trkpt>
      <trkpt lat="46.97766" lon="8.74603">
        <ele>593</ele>
        <time>2021-08-05T11:43:11.667Z</time>
      </trkpt>
      <trkpt lat="46.97765" lon="8.74605">
        <ele>594</ele>
        <time>2021-08-05T11:43:12.667Z</time>
      </trkpt>
      <trkpt lat="46.97764" lon="8.74607">
        <ele>594</ele>
        <time>2021-08-05T11:43:13.667Z</time>
      </trkpt>
      <trkpt lat="46.97764" lon="8.7461">
        <ele>594</ele>
        <time>2021-08-05T11:43:14.667Z</time>
      </trkpt>
      <trkpt lat="46.97764" lon="8.74611">
        <ele>594</ele>
        <time>2021-08-05T11:43:15.667Z</time>
      </trkpt>
      <trkpt lat="46.97764" lon="8.74613">
        <ele>595</ele>
        <time>2021-08-05T11:43:16.667Z</time>
      </trkpt>
      <trkpt lat="46.97764" lon="8.74614">
        <ele>595</ele>
        <time>2021-08-05T11:43:17.667Z</time>
      </trkpt>
      <trkpt lat="46.97764" lon="8.74616">
        <ele>596</ele>
        <time>2021-08-05T11:43:18.667Z</time>
      </trkpt>
      <trkpt lat="46.97764" lon="8.74617">
        <ele>596</ele>
        <time>2021-08-05T11:43:19.667Z</time>
      </trkpt>
      <trkpt lat="46.97763" lon="8.74618">
        <ele>596</ele>
        <time>2021-08-05T11:43:20.668Z</time>
      </trkpt>
      <trkpt lat="46.97763" lon="8.7462">
        <ele>596</ele>
        <time>2021-08-05T11:43:40.678Z</time>
      </trkpt>
      <trkpt lat="46.97763" lon="8.74621">
        <ele>596</ele>
        <time>2021-08-05T11:43:41.678Z</time>
      </trkpt>
      <trkpt lat="46.97764" lon="8.74623">
        <ele>595</ele>
        <time>2021-08-05T11:43:42.678Z</time>
      </trkpt>
      <trkpt lat="46.97764" lon="8.74625">
        <ele>595</ele>
        <time>2021-08-05T11:43:55.790Z</time>
      </trkpt>
      <trkpt lat="46.97764" lon="8.74627">
        <ele>595</ele>
        <time>2021-08-05T11:43:56.790Z</time>
      </trkpt>
      <trkpt lat="46.97764" lon="8.74629">
        <ele>595</ele>
        <time>2021-08-05T11:43:57.790Z</time>
      </trkpt>
      <trkpt lat="46.97764" lon="8.74631">
        <ele>595</ele>
        <time>2021-08-05T11:43:58.790Z</time>
      </trkpt>
      <trkpt lat="46.97763" lon="8.74633">
        <ele>595</ele>
        <time>2021-08-05T11:43:59.791Z</time>
      </trkpt>
      <trkpt lat="46.97763" lon="8.74635">
        <ele>595</ele>
        <time>2021-08-05T11:44:00.790Z</time>
      </trkpt>
      <trkpt lat="46.97763" lon="8.74637">
        <ele>595</ele>
        <time>2021-08-05T11:44:01.790Z</time>
      </trkpt>
      <trkpt lat="46.97762" lon="8.74639">
        <ele>596</ele>
        <time>2021-08-05T11:44:02.790Z</time>
      </trkpt>
      <trkpt lat="46.97762" lon="8.74641">
        <ele>596</ele>
        <time>2021-08-05T11:44:03.790Z</time>
      </trkpt>
      <trkpt lat="46.97762" lon="8.74643">
        <ele>596</ele>
        <time>2021-08-05T11:44:04.790Z</time>
      </trkpt>
      <trkpt lat="46.97762" lon="8.74645">
        <ele>597</ele>
        <time>2021-08-05T11:44:05.790Z</time>
      </trkpt>
      <trkpt lat="46.97762" lon="8.74647">
        <ele>597</ele>
        <time>2021-08-05T11:44:06.790Z</time>
      </trkpt>
      <trkpt lat="46.97761" lon="8.7465">
        <ele>597</ele>
        <time>2021-08-05T11:44:07.791Z</time>
      </trkpt>
      <trkpt lat="46.97761" lon="8.74651">
        <ele>597</ele>
        <time>2021-08-05T11:44:08.790Z</time>
      </trkpt>
      <trkpt lat="46.97761" lon="8.74654">
        <ele>598</ele>
        <time>2021-08-05T11:44:09.790Z</time>
      </trkpt>
      <trkpt lat="46.97761" lon="8.74656">
        <ele>598</ele>
        <time>2021-08-05T11:44:10.790Z</time>
      </trkpt>
      <trkpt lat="46.97761" lon="8.74657">
        <ele>598</ele>
        <time>2021-08-05T11:44:11.791Z</time>
      </trkpt>
      <trkpt lat="46.97761" lon="8.74659">
        <ele>598</ele>
        <time>2021-08-05T11:44:12.791Z</time>
      </trkpt>
      <trkpt lat="46.9776" lon="8.7466">
        <ele>598</ele>
        <time>2021-08-05T11:44:13.791Z</time>
      </trkpt>
      <trkpt lat="46.9776" lon="8.74662">
        <ele>597</ele>
        <time>2021-08-05T11:44:14.791Z</time>
      </trkpt>
      <trkpt lat="46.9776" lon="8.74663">
        <ele>597</ele>
        <time>2021-08-05T11:44:15.790Z</time>
      </trkpt>
      <trkpt lat="46.9776" lon="8.74665">
        <ele>597</ele>
        <time>2021-08-05T11:44:16.791Z</time>
      </trkpt>
      <trkpt lat="46.97759" lon="8.74666">
        <ele>598</ele>
        <time>2021-08-05T11:44:17.791Z</time>
      </trkpt>
      <trkpt lat="46.97759" lon="8.74668">
        <ele>598</ele>
        <time>2021-08-05T11:44:18.791Z</time>
      </trkpt>
      <trkpt lat="46.97759" lon="8.74669">
        <ele>598</ele>
        <time>2021-08-05T11:44:19.791Z</time>
      </trkpt>
      <trkpt lat="46.97759" lon="8.74671">
        <ele>599</ele>
        <time>2021-08-05T11:44:20.790Z</time>
      </trkpt>
      <trkpt lat="46.97759" lon="8.74673">
        <ele>599</ele>
        <time>2021-08-05T11:44:21.790Z</time>
      </trkpt>
      <trkpt lat="46.97759" lon="8.74676">
        <ele>599</ele>
        <time>2021-08-05T11:44:22.791Z</time>
      </trkpt>
      <trkpt lat="46.97758" lon="8.74678">
        <ele>599</ele>
        <time>2021-08-05T11:44:23.791Z</time>
      </trkpt>
      <trkpt lat="46.97758" lon="8.74679">
        <ele>599</ele>
        <time>2021-08-05T11:44:24.790Z</time>
      </trkpt>
      <trkpt lat="46.97758" lon="8.74681">
        <ele>599</ele>
        <time>2021-08-05T11:44:25.790Z</time>
      </trkpt>
      <trkpt lat="46.97758" lon="8.74683">
        <ele>599</ele>
        <time>2021-08-05T11:44:26.791Z</time>
      </trkpt>
      <trkpt lat="46.97758" lon="8.74685">
        <ele>599</ele>
        <time>2021-08-05T11:44:27.790Z</time>
      </trkpt>
      <trkpt lat="46.97757" lon="8.74687">
        <ele>599</ele>
        <time>2021-08-05T11:44:28.791Z</time>
      </trkpt>
      <trkpt lat="46.97758" lon="8.7469">
        <ele>599</ele>
        <time>2021-08-05T11:44:29.790Z</time>
      </trkpt>
      <trkpt lat="46.97758" lon="8.74692">
        <ele>599</ele>
        <time>2021-08-05T11:44:30.791Z</time>
      </trkpt>
      <trkpt lat="46.97758" lon="8.74694">
        <ele>599</ele>
        <time>2021-08-05T11:44:31.791Z</time>
      </trkpt>
      <trkpt lat="46.97757" lon="8.74696">
        <ele>599</ele>
        <time>2021-08-05T11:44:32.790Z</time>
      </trkpt>
      <trkpt lat="46.97756" lon="8.74698">
        <ele>600</ele>
        <time>2021-08-05T11:44:33.791Z</time>
      </trkpt>
      <trkpt lat="46.97756" lon="8.747">
        <ele>600</ele>
        <time>2021-08-05T11:44:34.790Z</time>
      </trkpt>
      <trkpt lat="46.97756" lon="8.74702">
        <ele>601</ele>
        <time>2021-08-05T11:44:35.791Z</time>
      </trkpt>
      <trkpt lat="46.97755" lon="8.74704">
        <ele>601</ele>
        <time>2021-08-05T11:44:36.791Z</time>
      </trkpt>
      <trkpt lat="46.97755" lon="8.74706">
        <ele>601</ele>
        <time>2021-08-05T11:44:37.790Z</time>
      </trkpt>
      <trkpt lat="46.97755" lon="8.74709">
        <ele>601</ele>
        <time>2021-08-05T11:44:38.791Z</time>
      </trkpt>
      <trkpt lat="46.97755" lon="8.74711">
        <ele>601</ele>
        <time>2021-08-05T11:44:39.790Z</time>
      </trkpt>
      <trkpt lat="46.97754" lon="8.74713">
        <ele>601</ele>
        <time>2021-08-05T11:44:40.790Z</time>
      </trkpt>
      <trkpt lat="46.97754" lon="8.74714">
        <ele>601</ele>
        <time>2021-08-05T11:44:41.790Z</time>
      </trkpt>
      <trkpt lat="46.97754" lon="8.74716">
        <ele>601</ele>
        <time>2021-08-05T11:44:42.791Z</time>
      </trkpt>
      <trkpt lat="46.97754" lon="8.74718">
        <ele>601</ele>
        <time>2021-08-05T11:44:43.790Z</time>
      </trkpt>
      <trkpt lat="46.97753" lon="8.7472">
        <ele>600</ele>
        <time>2021-08-05T11:44:44.791Z</time>
      </trkpt>
      <trkpt lat="46.97753" lon="8.74722">
        <ele>600</ele>
        <time>2021-08-05T11:44:45.791Z</time>
      </trkpt>
      <trkpt lat="46.97753" lon="8.74723">
        <ele>599</ele>
        <time>2021-08-05T11:44:46.790Z</time>
      </trkpt>
      <trkpt lat="46.97753" lon="8.74726">
        <ele>599</ele>
        <time>2021-08-05T11:44:47.791Z</time>
      </trkpt>
      <trkpt lat="46.97753" lon="8.74729">
        <ele>599</ele>
        <time>2021-08-05T11:44:48.791Z</time>
      </trkpt>
      <trkpt lat="46.97752" lon="8.7473">
        <ele>599</ele>
        <time>2021-08-05T11:44:49.790Z</time>
      </trkpt>
      <trkpt lat="46.97752" lon="8.74732">
        <ele>599</ele>
        <time>2021-08-05T11:44:50.790Z</time>
      </trkpt>
      <trkpt lat="46.97751" lon="8.74734">
        <ele>600</ele>
        <time>2021-08-05T11:44:51.790Z</time>
      </trkpt>
      <trkpt lat="46.97751" lon="8.74736">
        <ele>600</ele>
        <time>2021-08-05T11:44:52.790Z</time>
      </trkpt>
      <trkpt lat="46.97751" lon="8.74738">
        <ele>601</ele>
        <time>2021-08-05T11:44:53.790Z</time>
      </trkpt>
      <trkpt lat="46.9775" lon="8.7474">
        <ele>601</ele>
        <time>2021-08-05T11:44:54.790Z</time>
      </trkpt>
      <trkpt lat="46.97749" lon="8.74742">
        <ele>601</ele>
        <time>2021-08-05T11:44:55.790Z</time>
      </trkpt>
      <trkpt lat="46.97749" lon="8.74744">
        <ele>602</ele>
        <time>2021-08-05T11:44:56.791Z</time>
      </trkpt>
      <trkpt lat="46.97749" lon="8.74746">
        <ele>602</ele>
        <time>2021-08-05T11:44:57.791Z</time>
      </trkpt>
      <trkpt lat="46.97748" lon="8.74748">
        <ele>602</ele>
        <time>2021-08-05T11:44:58.790Z</time>
      </trkpt>
      <trkpt lat="46.97748" lon="8.74749">
        <ele>602</ele>
        <time>2021-08-05T11:44:59.790Z</time>
      </trkpt>
      <trkpt lat="46.97748" lon="8.74751">
        <ele>603</ele>
        <time>2021-08-05T11:45:00.791Z</time>
      </trkpt>
      <trkpt lat="46.97747" lon="8.74753">
        <ele>603</ele>
        <time>2021-08-05T11:45:01.790Z</time>
      </trkpt>
      <trkpt lat="46.97747" lon="8.74755">
        <ele>603</ele>
        <time>2021-08-05T11:45:02.790Z</time>
      </trkpt>
      <trkpt lat="46.97747" lon="8.74757">
        <ele>604</ele>
        <time>2021-08-05T11:45:03.791Z</time>
      </trkpt>
      <trkpt lat="46.97747" lon="8.74759">
        <ele>604</ele>
        <time>2021-08-05T11:45:04.791Z</time>
      </trkpt>
      <trkpt lat="46.97747" lon="8.74761">
        <ele>605</ele>
        <time>2021-08-05T11:45:05.790Z</time>
      </trkpt>
      <trkpt lat="46.97747" lon="8.74763">
        <ele>605</ele>
        <time>2021-08-05T11:45:06.791Z</time>
      </trkpt>
      <trkpt lat="46.97747" lon="8.74765">
        <ele>605</ele>
        <time>2021-08-05T11:45:07.791Z</time>
      </trkpt>
      <trkpt lat="46.97747" lon="8.74766">
        <ele>605</ele>
        <time>2021-08-05T11:45:08.790Z</time>
      </trkpt>
      <trkpt lat="46.97747" lon="8.74768">
        <ele>605</ele>
        <time>2021-08-05T11:45:09.791Z</time>
      </trkpt>
      <trkpt lat="46.97747" lon="8.7477">
        <ele>604</ele>
        <time>2021-08-05T11:45:10.790Z</time>
      </trkpt>
      <trkpt lat="46.97747" lon="8.74773">
        <ele>604</ele>
        <time>2021-08-05T11:45:11.791Z</time>
      </trkpt>
      <trkpt lat="46.97748" lon="8.74775">
        <ele>603</ele>
        <time>2021-08-05T11:45:12.790Z</time>
      </trkpt>
      <trkpt lat="46.97748" lon="8.74777">
        <ele>603</ele>
        <time>2021-08-05T11:45:13.790Z</time>
      </trkpt>
      <trkpt lat="46.97748" lon="8.74778">
        <ele>602</ele>
        <time>2021-08-05T11:45:14.790Z</time>
      </trkpt>
      <trkpt lat="46.97748" lon="8.7478">
        <ele>602</ele>
        <time>2021-08-05T11:45:15.791Z</time>
      </trkpt>
      <trkpt lat="46.97748" lon="8.74782">
        <ele>601</ele>
        <time>2021-08-05T11:45:16.791Z</time>
      </trkpt>
      <trkpt lat="46.97748" lon="8.74784">
        <ele>601</ele>
        <time>2021-08-05T11:45:17.790Z</time>
      </trkpt>
      <trkpt lat="46.97748" lon="8.74786">
        <ele>601</ele>
        <time>2021-08-05T11:45:18.790Z</time>
      </trkpt>
      <trkpt lat="46.97748" lon="8.74789">
        <ele>601</ele>
        <time>2021-08-05T11:45:19.790Z</time>
      </trkpt>
      <trkpt lat="46.97748" lon="8.74791">
        <ele>600</ele>
        <time>2021-08-05T11:45:20.790Z</time>
      </trkpt>
      <trkpt lat="46.97747" lon="8.74793">
        <ele>601</ele>
        <time>2021-08-05T11:45:21.791Z</time>
      </trkpt>
      <trkpt lat="46.97747" lon="8.74795">
        <ele>601</ele>
        <time>2021-08-05T11:45:22.791Z</time>
      </trkpt>
      <trkpt lat="46.97747" lon="8.74797">
        <ele>601</ele>
        <time>2021-08-05T11:45:23.790Z</time>
      </trkpt>
      <trkpt lat="46.97747" lon="8.74799">
        <ele>601</ele>
        <time>2021-08-05T11:45:24.790Z</time>
      </trkpt>
      <trkpt lat="46.97747" lon="8.74802">
        <ele>600</ele>
        <time>2021-08-05T11:45:25.790Z</time>
      </trkpt>
      <trkpt lat="46.97747" lon="8.74804">
        <ele>600</ele>
        <time>2021-08-05T11:45:26.791Z</time>
      </trkpt>
      <trkpt lat="46.97746" lon="8.74806">
        <ele>600</ele>
        <time>2021-08-05T11:45:27.791Z</time>
      </trkpt>
      <trkpt lat="46.97746" lon="8.74808">
        <ele>600</ele>
        <time>2021-08-05T11:45:28.791Z</time>
      </trkpt>
      <trkpt lat="46.97746" lon="8.7481">
        <ele>600</ele>
        <time>2021-08-05T11:45:29.791Z</time>
      </trkpt>
      <trkpt lat="46.97745" lon="8.74812">
        <ele>600</ele>
        <time>2021-08-05T11:45:30.791Z</time>
      </trkpt>
      <trkpt lat="46.97745" lon="8.74814">
        <ele>600</ele>
        <time>2021-08-05T11:45:31.791Z</time>
      </trkpt>
      <trkpt lat="46.97745" lon="8.74817">
        <ele>601</ele>
        <time>2021-08-05T11:45:32.790Z</time>
      </trkpt>
      <trkpt lat="46.97745" lon="8.74819">
        <ele>601</ele>
        <time>2021-08-05T11:45:33.791Z</time>
      </trkpt>
      <trkpt lat="46.97745" lon="8.74821">
        <ele>602</ele>
        <time>2021-08-05T11:45:34.791Z</time>
      </trkpt>
      <trkpt lat="46.97744" lon="8.74823">
        <ele>602</ele>
        <time>2021-08-05T11:45:35.791Z</time>
      </trkpt>
      <trkpt lat="46.97744" lon="8.74825">
        <ele>603</ele>
        <time>2021-08-05T11:45:36.791Z</time>
      </trkpt>
      <trkpt lat="46.97744" lon="8.74827">
        <ele>603</ele>
        <time>2021-08-05T11:45:37.790Z</time>
      </trkpt>
      <trkpt lat="46.97744" lon="8.74829">
        <ele>603</ele>
        <time>2021-08-05T11:45:38.790Z</time>
      </trkpt>
      <trkpt lat="46.97744" lon="8.74832">
        <ele>604</ele>
        <time>2021-08-05T11:45:39.790Z</time>
      </trkpt>
      <trkpt lat="46.97743" lon="8.74834">
        <ele>604</ele>
        <time>2021-08-05T11:45:40.790Z</time>
      </trkpt>
      <trkpt lat="46.97743" lon="8.74836">
        <ele>604</ele>
        <time>2021-08-05T11:45:41.790Z</time>
      </trkpt>
      <trkpt lat="46.97742" lon="8.74837">
        <ele>605</ele>
        <time>2021-08-05T11:45:42.790Z</time>
      </trkpt>
      <trkpt lat="46.97742" lon="8.74839">
        <ele>605</ele>
        <time>2021-08-05T11:45:43.791Z</time>
      </trkpt>
      <trkpt lat="46.97742" lon="8.74841">
        <ele>605</ele>
        <time>2021-08-05T11:45:44.791Z</time>
      </trkpt>
      <trkpt lat="46.97741" lon="8.74843">
        <ele>605</ele>
        <time>2021-08-05T11:45:45.791Z</time>
      </trkpt>
      <trkpt lat="46.97741" lon="8.74845">
        <ele>605</ele>
        <time>2021-08-05T11:45:46.791Z</time>
      </trkpt>
      <trkpt lat="46.97741" lon="8.74846">
        <ele>605</ele>
        <time>2021-08-05T11:45:47.791Z</time>
      </trkpt>
      <trkpt lat="46.9774" lon="8.74849">
        <ele>604</ele>
        <time>2021-08-05T11:45:48.791Z</time>
      </trkpt>
      <trkpt lat="46.9774" lon="8.74851">
        <ele>604</ele>
        <time>2021-08-05T11:45:49.791Z</time>
      </trkpt>
      <trkpt lat="46.9774" lon="8.74853">
        <ele>604</ele>
        <time>2021-08-05T11:45:50.791Z</time>
      </trkpt>
      <trkpt lat="46.9774" lon="8.74855">
        <ele>604</ele>
        <time>2021-08-05T11:45:51.790Z</time>
      </trkpt>
      <trkpt lat="46.97739" lon="8.74857">
        <ele>603</ele>
        <time>2021-08-05T11:45:52.790Z</time>
      </trkpt>
      <trkpt lat="46.97739" lon="8.74859">
        <ele>603</ele>
        <time>2021-08-05T11:45:53.791Z</time>
      </trkpt>
      <trkpt lat="46.97739" lon="8.7486">
        <ele>603</ele>
        <time>2021-08-05T11:45:54.791Z</time>
      </trkpt>
      <trkpt lat="46.97738" lon="8.74863">
        <ele>603</ele>
        <time>2021-08-05T11:45:55.790Z</time>
      </trkpt>
      <trkpt lat="46.97738" lon="8.74865">
        <ele>603</ele>
        <time>2021-08-05T11:45:56.790Z</time>
      </trkpt>
      <trkpt lat="46.97738" lon="8.74867">
        <ele>602</ele>
        <time>2021-08-05T11:45:57.790Z</time>
      </trkpt>
      <trkpt lat="46.97738" lon="8.74869">
        <ele>602</ele>
        <time>2021-08-05T11:45:58.791Z</time>
      </trkpt>
      <trkpt lat="46.97737" lon="8.7487">
        <ele>601</ele>
        <time>2021-08-05T11:45:59.790Z</time>
      </trkpt>
      <trkpt lat="46.97737" lon="8.74871">
        <ele>601</ele>
        <time>2021-08-05T11:46:00.790Z</time>
      </trkpt>
      <trkpt lat="46.97737" lon="8.74873">
        <ele>601</ele>
        <time>2021-08-05T11:46:01.790Z</time>
      </trkpt>
      <trkpt lat="46.97736" lon="8.74875">
        <ele>601</ele>
        <time>2021-08-05T11:46:02.790Z</time>
      </trkpt>
      <trkpt lat="46.97736" lon="8.74877">
        <ele>602</ele>
        <time>2021-08-05T11:46:03.790Z</time>
      </trkpt>
      <trkpt lat="46.97735" lon="8.74879">
        <ele>602</ele>
        <time>2021-08-05T11:46:04.790Z</time>
      </trkpt>
      <trkpt lat="46.97735" lon="8.7488">
        <ele>603</ele>
        <time>2021-08-05T11:46:05.790Z</time>
      </trkpt>
      <trkpt lat="46.97733" lon="8.74882">
        <ele>604</ele>
        <time>2021-08-05T11:46:06.790Z</time>
      </trkpt>
      <trkpt lat="46.97732" lon="8.74883">
        <ele>605</ele>
        <time>2021-08-05T11:46:07.791Z</time>
      </trkpt>
      <trkpt lat="46.97731" lon="8.74884">
        <ele>605</ele>
        <time>2021-08-05T11:46:08.790Z</time>
      </trkpt>
      <trkpt lat="46.97731" lon="8.74885">
        <ele>606</ele>
        <time>2021-08-05T11:46:09.791Z</time>
      </trkpt>
      <trkpt lat="46.9773" lon="8.74887">
        <ele>606</ele>
        <time>2021-08-05T11:46:10.790Z</time>
      </trkpt>
      <trkpt lat="46.9773" lon="8.74889">
        <ele>607</ele>
        <time>2021-08-05T11:46:11.790Z</time>
      </trkpt>
      <trkpt lat="46.97729" lon="8.74891">
        <ele>607</ele>
        <time>2021-08-05T11:46:12.790Z</time>
      </trkpt>
      <trkpt lat="46.97728" lon="8.74892">
        <ele>607</ele>
        <time>2021-08-05T11:46:13.791Z</time>
      </trkpt>
      <trkpt lat="46.97728" lon="8.74894">
        <ele>608</ele>
        <time>2021-08-05T11:46:14.791Z</time>
      </trkpt>
      <trkpt lat="46.97728" lon="8.74896">
        <ele>608</ele>
        <time>2021-08-05T11:46:15.791Z</time>
      </trkpt>
      <trkpt lat="46.97729" lon="8.74899">
        <ele>608</ele>
        <time>2021-08-05T11:46:16.790Z</time>
      </trkpt>
      <trkpt lat="46.97729" lon="8.74901">
        <ele>608</ele>
        <time>2021-08-05T11:46:17.791Z</time>
      </trkpt>
      <trkpt lat="46.97729" lon="8.74903">
        <ele>608</ele>
        <time>2021-08-05T11:46:18.791Z</time>
      </trkpt>
      <trkpt lat="46.97728" lon="8.74905">
        <ele>609</ele>
        <time>2021-08-05T11:46:19.791Z</time>
      </trkpt>
      <trkpt lat="46.97727" lon="8.74906">
        <ele>610</ele>
        <time>2021-08-05T11:46:20.790Z</time>
      </trkpt>
      <trkpt lat="46.97726" lon="8.74908">
        <ele>610</ele>
        <time>2021-08-05T11:46:21.790Z</time>
      </trkpt>
      <trkpt lat="46.97726" lon="8.7491">
        <ele>610</ele>
        <time>2021-08-05T11:46:22.790Z</time>
      </trkpt>
      <trkpt lat="46.97726" lon="8.74912">
        <ele>610</ele>
        <time>2021-08-05T11:46:23.791Z</time>
      </trkpt>
      <trkpt lat="46.97726" lon="8.74914">
        <ele>610</ele>
        <time>2021-08-05T11:46:24.791Z</time>
      </trkpt>
      <trkpt lat="46.97726" lon="8.74917">
        <ele>611</ele>
        <time>2021-08-05T11:46:25.790Z</time>
      </trkpt>
      <trkpt lat="46.97725" lon="8.74918">
        <ele>611</ele>
        <time>2021-08-05T11:46:26.790Z</time>
      </trkpt>
      <trkpt lat="46.97725" lon="8.7492">
        <ele>611</ele>
        <time>2021-08-05T11:46:27.791Z</time>
      </trkpt>
      <trkpt lat="46.97725" lon="8.74922">
        <ele>612</ele>
        <time>2021-08-05T11:46:28.791Z</time>
      </trkpt>
      <trkpt lat="46.97724" lon="8.74924">
        <ele>612</ele>
        <time>2021-08-05T11:46:29.790Z</time>
      </trkpt>
      <trkpt lat="46.97724" lon="8.74926">
        <ele>613</ele>
        <time>2021-08-05T11:46:30.790Z</time>
      </trkpt>
      <trkpt lat="46.97724" lon="8.74929">
        <ele>613</ele>
        <time>2021-08-05T11:46:31.790Z</time>
      </trkpt>
      <trkpt lat="46.97724" lon="8.74931">
        <ele>613</ele>
        <time>2021-08-05T11:46:32.790Z</time>
      </trkpt>
      <trkpt lat="46.97723" lon="8.74932">
        <ele>613</ele>
        <time>2021-08-05T11:46:33.790Z</time>
      </trkpt>
      <trkpt lat="46.97723" lon="8.74934">
        <ele>614</ele>
        <time>2021-08-05T11:46:34.791Z</time>
      </trkpt>
      <trkpt lat="46.97723" lon="8.74936">
        <ele>614</ele>
        <time>2021-08-05T11:46:35.790Z</time>
      </trkpt>
      <trkpt lat="46.97723" lon="8.74939">
        <ele>614</ele>
        <time>2021-08-05T11:46:36.791Z</time>
      </trkpt>
      <trkpt lat="46.97723" lon="8.74941">
        <ele>614</ele>
        <time>2021-08-05T11:46:37.790Z</time>
      </trkpt>
      <trkpt lat="46.97723" lon="8.74943">
        <ele>614</ele>
        <time>2021-08-05T11:46:38.791Z</time>
      </trkpt>
      <trkpt lat="46.97723" lon="8.74945">
        <ele>614</ele>
        <time>2021-08-05T11:46:39.791Z</time>
      </trkpt>
      <trkpt lat="46.97722" lon="8.74947">
        <ele>615</ele>
        <time>2021-08-05T11:46:40.790Z</time>
      </trkpt>
      <trkpt lat="46.97721" lon="8.74949">
        <ele>615</ele>
        <time>2021-08-05T11:46:41.790Z</time>
      </trkpt>
      <trkpt lat="46.97721" lon="8.74951">
        <ele>615</ele>
        <time>2021-08-05T11:46:42.791Z</time>
      </trkpt>
      <trkpt lat="46.97721" lon="8.74953">
        <ele>616</ele>
        <time>2021-08-05T11:46:43.791Z</time>
      </trkpt>
      <trkpt lat="46.97721" lon="8.74955">
        <ele>616</ele>
        <time>2021-08-05T11:46:44.791Z</time>
      </trkpt>
      <trkpt lat="46.9772" lon="8.74957">
        <ele>616</ele>
        <time>2021-08-05T11:46:45.790Z</time>
      </trkpt>
      <trkpt lat="46.9772" lon="8.74959">
        <ele>616</ele>
        <time>2021-08-05T11:46:46.790Z</time>
      </trkpt>
      <trkpt lat="46.9772" lon="8.74961">
        <ele>616</ele>
        <time>2021-08-05T11:46:47.791Z</time>
      </trkpt>
      <trkpt lat="46.97721" lon="8.74963">
        <ele>615</ele>
        <time>2021-08-05T11:46:48.790Z</time>
      </trkpt>
      <trkpt lat="46.97721" lon="8.74965">
        <ele>614</ele>
        <time>2021-08-05T11:46:49.791Z</time>
      </trkpt>
      <trkpt lat="46.97721" lon="8.74967">
        <ele>613</ele>
        <time>2021-08-05T11:46:50.791Z</time>
      </trkpt>
      <trkpt lat="46.97721" lon="8.74969">
        <ele>613</ele>
        <time>2021-08-05T11:46:51.791Z</time>
      </trkpt>
      <trkpt lat="46.97721" lon="8.74971">
        <ele>612</ele>
        <time>2021-08-05T11:46:52.791Z</time>
      </trkpt>
      <trkpt lat="46.97721" lon="8.74974">
        <ele>611</ele>
        <time>2021-08-05T11:46:53.791Z</time>
      </trkpt>
      <trkpt lat="46.97721" lon="8.74977">
        <ele>611</ele>
        <time>2021-08-05T11:46:54.791Z</time>
      </trkpt>
      <trkpt lat="46.97721" lon="8.7498">
        <ele>610</ele>
        <time>2021-08-05T11:46:55.791Z</time>
      </trkpt>
      <trkpt lat="46.97721" lon="8.74982">
        <ele>609</ele>
        <time>2021-08-05T11:46:56.791Z</time>
      </trkpt>
      <trkpt lat="46.9772" lon="8.74984">
        <ele>608</ele>
        <time>2021-08-05T11:46:57.790Z</time>
      </trkpt>
      <trkpt lat="46.9772" lon="8.74984">
        <ele>607</ele>
        <time>2021-08-05T11:46:58.790Z</time>
      </trkpt>
      <trkpt lat="46.9772" lon="8.74986">
        <ele>606</ele>
        <time>2021-08-05T11:46:59.791Z</time>
      </trkpt>
      <trkpt lat="46.9772" lon="8.74987">
        <ele>605</ele>
        <time>2021-08-05T11:47:00.791Z</time>
      </trkpt>
      <trkpt lat="46.9772" lon="8.74989">
        <ele>604</ele>
        <time>2021-08-05T11:47:01.791Z</time>
      </trkpt>
      <trkpt lat="46.9772" lon="8.74992">
        <ele>604</ele>
        <time>2021-08-05T11:47:02.791Z</time>
      </trkpt>
      <trkpt lat="46.97719" lon="8.74995">
        <ele>604</ele>
        <time>2021-08-05T11:47:03.791Z</time>
      </trkpt>
      <trkpt lat="46.97719" lon="8.74997">
        <ele>604</ele>
        <time>2021-08-05T11:47:04.791Z</time>
      </trkpt>
      <trkpt lat="46.97719" lon="8.74999">
        <ele>605</ele>
        <time>2021-08-05T11:47:05.791Z</time>
      </trkpt>
      <trkpt lat="46.9772" lon="8.75">
        <ele>605</ele>
        <time>2021-08-05T11:47:06.791Z</time>
      </trkpt>
      <trkpt lat="46.9772" lon="8.75002">
        <ele>605</ele>
        <time>2021-08-05T11:47:07.790Z</time>
      </trkpt>
      <trkpt lat="46.9772" lon="8.75004">
        <ele>606</ele>
        <time>2021-08-05T11:47:08.791Z</time>
      </trkpt>
      <trkpt lat="46.97719" lon="8.75007">
        <ele>606</ele>
        <time>2021-08-05T11:47:09.791Z</time>
      </trkpt>
      <trkpt lat="46.97719" lon="8.75009">
        <ele>606</ele>
        <time>2021-08-05T11:47:10.791Z</time>
      </trkpt>
      <trkpt lat="46.97719" lon="8.75012">
        <ele>606</ele>
        <time>2021-08-05T11:47:11.791Z</time>
      </trkpt>
      <trkpt lat="46.97718" lon="8.75015">
        <ele>606</ele>
        <time>2021-08-05T11:47:12.791Z</time>
      </trkpt>
      <trkpt lat="46.97719" lon="8.75016">
        <ele>606</ele>
        <time>2021-08-05T11:47:13.791Z</time>
      </trkpt>
      <trkpt lat="46.97719" lon="8.75017">
        <ele>606</ele>
        <time>2021-08-05T11:47:14.790Z</time>
      </trkpt>
      <trkpt lat="46.97719" lon="8.75019">
        <ele>606</ele>
        <time>2021-08-05T11:47:15.790Z</time>
      </trkpt>
      <trkpt lat="46.97718" lon="8.75021">
        <ele>606</ele>
        <time>2021-08-05T11:47:16.790Z</time>
      </trkpt>
      <trkpt lat="46.97718" lon="8.75023">
        <ele>606</ele>
        <time>2021-08-05T11:47:17.790Z</time>
      </trkpt>
      <trkpt lat="46.97718" lon="8.75025">
        <ele>605</ele>
        <time>2021-08-05T11:47:18.791Z</time>
      </trkpt>
      <trkpt lat="46.97718" lon="8.75027">
        <ele>605</ele>
        <time>2021-08-05T11:47:19.791Z</time>
      </trkpt>
      <trkpt lat="46.97717" lon="8.75029">
        <ele>605</ele>
        <time>2021-08-05T11:47:20.791Z</time>
      </trkpt>
      <trkpt lat="46.97717" lon="8.75031">
        <ele>605</ele>
        <time>2021-08-05T11:47:21.790Z</time>
      </trkpt>
      <trkpt lat="46.97716" lon="8.75033">
        <ele>605</ele>
        <time>2021-08-05T11:47:22.790Z</time>
      </trkpt>
      <trkpt lat="46.97716" lon="8.75036">
        <ele>606</ele>
        <time>2021-08-05T11:47:23.791Z</time>
      </trkpt>
      <trkpt lat="46.97715" lon="8.75038">
        <ele>606</ele>
        <time>2021-08-05T11:47:24.791Z</time>
      </trkpt>
      <trkpt lat="46.97715" lon="8.7504">
        <ele>606</ele>
        <time>2021-08-05T11:47:25.790Z</time>
      </trkpt>
      <trkpt lat="46.97715" lon="8.75042">
        <ele>607</ele>
        <time>2021-08-05T11:47:26.790Z</time>
      </trkpt>
      <trkpt lat="46.97714" lon="8.75044">
        <ele>607</ele>
        <time>2021-08-05T11:47:27.790Z</time>
      </trkpt>
      <trkpt lat="46.97714" lon="8.75046">
        <ele>608</ele>
        <time>2021-08-05T11:47:28.790Z</time>
      </trkpt>
      <trkpt lat="46.97714" lon="8.75048">
        <ele>608</ele>
        <time>2021-08-05T11:47:29.791Z</time>
      </trkpt>
      <trkpt lat="46.97714" lon="8.75049">
        <ele>608</ele>
        <time>2021-08-05T11:47:30.790Z</time>
      </trkpt>
      <trkpt lat="46.97714" lon="8.75052">
        <ele>608</ele>
        <time>2021-08-05T11:47:31.790Z</time>
      </trkpt>
      <trkpt lat="46.97714" lon="8.75054">
        <ele>608</ele>
        <time>2021-08-05T11:47:32.791Z</time>
      </trkpt>
      <trkpt lat="46.97714" lon="8.75056">
        <ele>609</ele>
        <time>2021-08-05T11:47:33.791Z</time>
      </trkpt>
      <trkpt lat="46.97715" lon="8.75059">
        <ele>608</ele>
        <time>2021-08-05T11:47:34.791Z</time>
      </trkpt>
      <trkpt lat="46.97715" lon="8.75061">
        <ele>608</ele>
        <time>2021-08-05T11:47:35.790Z</time>
      </trkpt>
      <trkpt lat="46.97714" lon="8.75063">
        <ele>607</ele>
        <time>2021-08-05T11:47:36.790Z</time>
      </trkpt>
      <trkpt lat="46.97714" lon="8.75065">
        <ele>607</ele>
        <time>2021-08-05T11:47:37.790Z</time>
      </trkpt>
      <trkpt lat="46.97715" lon="8.75066">
        <ele>606</ele>
        <time>2021-08-05T11:47:38.790Z</time>
      </trkpt>
      <trkpt lat="46.97715" lon="8.75069">
        <ele>606</ele>
        <time>2021-08-05T11:47:39.791Z</time>
      </trkpt>
      <trkpt lat="46.97715" lon="8.75071">
        <ele>605</ele>
        <time>2021-08-05T11:47:40.791Z</time>
      </trkpt>
      <trkpt lat="46.97715" lon="8.75073">
        <ele>605</ele>
        <time>2021-08-05T11:47:41.790Z</time>
      </trkpt>
      <trkpt lat="46.97714" lon="8.75075">
        <ele>604</ele>
        <time>2021-08-05T11:47:42.791Z</time>
      </trkpt>
      <trkpt lat="46.97714" lon="8.75077">
        <ele>604</ele>
        <time>2021-08-05T11:47:43.791Z</time>
      </trkpt>
      <trkpt lat="46.97714" lon="8.75079">
        <ele>604</ele>
        <time>2021-08-05T11:47:44.791Z</time>
      </trkpt>
      <trkpt lat="46.97713" lon="8.75084">
        <ele>603</ele>
        <time>2021-08-05T11:47:45.791Z</time>
      </trkpt>
      <trkpt lat="46.97713" lon="8.75086">
        <ele>603</ele>
        <time>2021-08-05T11:47:46.791Z</time>
      </trkpt>
      <trkpt lat="46.97712" lon="8.75088">
        <ele>603</ele>
        <time>2021-08-05T11:47:47.791Z</time>
      </trkpt>
      <trkpt lat="46.97712" lon="8.7509">
        <ele>603</ele>
        <time>2021-08-05T11:47:48.791Z</time>
      </trkpt>
      <trkpt lat="46.97711" lon="8.7509">
        <ele>603</ele>
        <time>2021-08-05T11:47:49.791Z</time>
      </trkpt>
      <trkpt lat="46.97711" lon="8.75092">
        <ele>603</ele>
        <time>2021-08-05T11:47:50.791Z</time>
      </trkpt>
      <trkpt lat="46.97711" lon="8.75093">
        <ele>602</ele>
        <time>2021-08-05T11:47:51.790Z</time>
      </trkpt>
      <trkpt lat="46.97711" lon="8.75093">
        <ele>602</ele>
        <time>2021-08-05T11:47:52.791Z</time>
      </trkpt>
      <trkpt lat="46.97711" lon="8.75095">
        <ele>602</ele>
        <time>2021-08-05T11:47:53.791Z</time>
      </trkpt>
      <trkpt lat="46.97711" lon="8.75096">
        <ele>601</ele>
        <time>2021-08-05T11:47:54.791Z</time>
      </trkpt>
      <trkpt lat="46.97711" lon="8.75098">
        <ele>601</ele>
        <time>2021-08-05T11:47:55.791Z</time>
      </trkpt>
      <trkpt lat="46.97711" lon="8.75099">
        <ele>601</ele>
        <time>2021-08-05T11:47:56.791Z</time>
      </trkpt>
      <trkpt lat="46.97711" lon="8.75101">
        <ele>601</ele>
        <time>2021-08-05T11:47:57.790Z</time>
      </trkpt>
      <trkpt lat="46.97711" lon="8.75102">
        <ele>601</ele>
        <time>2021-08-05T11:47:58.790Z</time>
      </trkpt>
      <trkpt lat="46.97712" lon="8.75103">
        <ele>601</ele>
        <time>2021-08-05T11:47:59.791Z</time>
      </trkpt>
      <trkpt lat="46.97712" lon="8.75105">
        <ele>601</ele>
        <time>2021-08-05T11:48:00.791Z</time>
      </trkpt>
      <trkpt lat="46.97712" lon="8.75106">
        <ele>601</ele>
        <time>2021-08-05T11:48:01.790Z</time>
      </trkpt>
      <trkpt lat="46.97711" lon="8.75109">
        <ele>601</ele>
        <time>2021-08-05T11:48:02.791Z</time>
      </trkpt>
      <trkpt lat="46.97712" lon="8.75111">
        <ele>601</ele>
        <time>2021-08-05T11:48:03.791Z</time>
      </trkpt>
      <trkpt lat="46.97712" lon="8.75112">
        <ele>601</ele>
        <time>2021-08-05T11:48:04.791Z</time>
      </trkpt>
      <trkpt lat="46.97712" lon="8.75114">
        <ele>602</ele>
        <time>2021-08-05T11:48:05.791Z</time>
      </trkpt>
      <trkpt lat="46.97712" lon="8.75116">
        <ele>602</ele>
        <time>2021-08-05T11:48:06.790Z</time>
      </trkpt>
      <trkpt lat="46.97712" lon="8.75118">
        <ele>602</ele>
        <time>2021-08-05T11:48:07.790Z</time>
      </trkpt>
      <trkpt lat="46.97713" lon="8.7512">
        <ele>602</ele>
        <time>2021-08-05T11:48:08.791Z</time>
      </trkpt>
      <trkpt lat="46.97713" lon="8.75122">
        <ele>603</ele>
        <time>2021-08-05T11:48:09.791Z</time>
      </trkpt>
      <trkpt lat="46.97712" lon="8.75123">
        <ele>603</ele>
        <time>2021-08-05T11:48:10.790Z</time>
      </trkpt>
      <trkpt lat="46.97712" lon="8.75125">
        <ele>603</ele>
        <time>2021-08-05T11:48:11.790Z</time>
      </trkpt>
      <trkpt lat="46.97711" lon="8.75127">
        <ele>603</ele>
        <time>2021-08-05T11:48:12.791Z</time>
      </trkpt>
      <trkpt lat="46.97711" lon="8.7513">
        <ele>603</ele>
        <time>2021-08-05T11:48:13.791Z</time>
      </trkpt>
      <trkpt lat="46.97711" lon="8.75133">
        <ele>603</ele>
        <time>2021-08-05T11:48:14.791Z</time>
      </trkpt>
      <trkpt lat="46.97711" lon="8.75135">
        <ele>603</ele>
        <time>2021-08-05T11:48:15.791Z</time>
      </trkpt>
      <trkpt lat="46.97711" lon="8.75136">
        <ele>603</ele>
        <time>2021-08-05T11:48:16.791Z</time>
      </trkpt>
      <trkpt lat="46.97711" lon="8.75138">
        <ele>603</ele>
        <time>2021-08-05T11:48:17.791Z</time>
      </trkpt>
      <trkpt lat="46.97711" lon="8.7514">
        <ele>603</ele>
        <time>2021-08-05T11:48:18.790Z</time>
      </trkpt>
      <trkpt lat="46.97711" lon="8.75142">
        <ele>603</ele>
        <time>2021-08-05T11:48:19.790Z</time>
      </trkpt>
      <trkpt lat="46.97711" lon="8.75143">
        <ele>603</ele>
        <time>2021-08-05T11:48:20.790Z</time>
      </trkpt>
      <trkpt lat="46.97711" lon="8.75146">
        <ele>603</ele>
        <time>2021-08-05T11:48:21.790Z</time>
      </trkpt>
      <trkpt lat="46.97711" lon="8.75148">
        <ele>603</ele>
        <time>2021-08-05T11:48:22.791Z</time>
      </trkpt>
      <trkpt lat="46.9771" lon="8.7515">
        <ele>603</ele>
        <time>2021-08-05T11:48:23.791Z</time>
      </trkpt>
      <trkpt lat="46.97711" lon="8.75152">
        <ele>603</ele>
        <time>2021-08-05T11:48:24.791Z</time>
      </trkpt>
      <trkpt lat="46.97711" lon="8.75155">
        <ele>603</ele>
        <time>2021-08-05T11:48:25.791Z</time>
      </trkpt>
      <trkpt lat="46.97711" lon="8.75156">
        <ele>604</ele>
        <time>2021-08-05T11:48:26.791Z</time>
      </trkpt>
      <trkpt lat="46.97711" lon="8.75157">
        <ele>604</ele>
        <time>2021-08-05T11:48:27.791Z</time>
      </trkpt>
      <trkpt lat="46.97711" lon="8.75159">
        <ele>604</ele>
        <time>2021-08-05T11:48:28.790Z</time>
      </trkpt>
      <trkpt lat="46.97711" lon="8.7516">
        <ele>603</ele>
        <time>2021-08-05T11:48:29.791Z</time>
      </trkpt>
      <trkpt lat="46.97711" lon="8.75162">
        <ele>603</ele>
        <time>2021-08-05T11:48:30.791Z</time>
      </trkpt>
      <trkpt lat="46.97711" lon="8.75164">
        <ele>603</ele>
        <time>2021-08-05T11:48:31.791Z</time>
      </trkpt>
      <trkpt lat="46.97712" lon="8.75166">
        <ele>603</ele>
        <time>2021-08-05T11:48:32.791Z</time>
      </trkpt>
      <trkpt lat="46.97712" lon="8.75167">
        <ele>603</ele>
        <time>2021-08-05T11:48:33.791Z</time>
      </trkpt>
      <trkpt lat="46.97711" lon="8.75169">
        <ele>603</ele>
        <time>2021-08-05T11:48:34.791Z</time>
      </trkpt>
      <trkpt lat="46.97711" lon="8.75172">
        <ele>604</ele>
        <time>2021-08-05T11:48:35.790Z</time>
      </trkpt>
      <trkpt lat="46.9771" lon="8.75174">
        <ele>604</ele>
        <time>2021-08-05T11:48:36.791Z</time>
      </trkpt>
      <trkpt lat="46.97709" lon="8.75176">
        <ele>604</ele>
        <time>2021-08-05T11:48:37.791Z</time>
      </trkpt>
      <trkpt lat="46.97709" lon="8.75178">
        <ele>605</ele>
        <time>2021-08-05T11:48:38.791Z</time>
      </trkpt>
      <trkpt lat="46.97708" lon="8.7518">
        <ele>605</ele>
        <time>2021-08-05T11:48:39.790Z</time>
      </trkpt>
      <trkpt lat="46.97708" lon="8.75182">
        <ele>605</ele>
        <time>2021-08-05T11:48:40.791Z</time>
      </trkpt>
      <trkpt lat="46.97708" lon="8.75185">
        <ele>605</ele>
        <time>2021-08-05T11:48:41.790Z</time>
      </trkpt>
      <trkpt lat="46.97707" lon="8.75187">
        <ele>604</ele>
        <time>2021-08-05T11:48:42.790Z</time>
      </trkpt>
      <trkpt lat="46.97707" lon="8.7519">
        <ele>604</ele>
        <time>2021-08-05T11:48:43.791Z</time>
      </trkpt>
      <trkpt lat="46.97706" lon="8.75192">
        <ele>604</ele>
        <time>2021-08-05T11:48:44.791Z</time>
      </trkpt>
      <trkpt lat="46.97705" lon="8.75193">
        <ele>604</ele>
        <time>2021-08-05T11:48:45.791Z</time>
      </trkpt>
      <trkpt lat="46.97705" lon="8.75196">
        <ele>604</ele>
        <time>2021-08-05T11:48:46.791Z</time>
      </trkpt>
      <trkpt lat="46.97705" lon="8.75198">
        <ele>604</ele>
        <time>2021-08-05T11:48:47.791Z</time>
      </trkpt>
      <trkpt lat="46.97705" lon="8.752">
        <ele>604</ele>
        <time>2021-08-05T11:48:48.791Z</time>
      </trkpt>
      <trkpt lat="46.97705" lon="8.75202">
        <ele>604</ele>
        <time>2021-08-05T11:48:49.791Z</time>
      </trkpt>
      <trkpt lat="46.97704" lon="8.75204">
        <ele>604</ele>
        <time>2021-08-05T11:48:50.791Z</time>
      </trkpt>
      <trkpt lat="46.97704" lon="8.75206">
        <ele>604</ele>
        <time>2021-08-05T11:48:51.791Z</time>
      </trkpt>
      <trkpt lat="46.97704" lon="8.75208">
        <ele>604</ele>
        <time>2021-08-05T11:48:52.791Z</time>
      </trkpt>
      <trkpt lat="46.97704" lon="8.7521">
        <ele>604</ele>
        <time>2021-08-05T11:48:53.790Z</time>
      </trkpt>
      <trkpt lat="46.97704" lon="8.75212">
        <ele>604</ele>
        <time>2021-08-05T11:48:54.791Z</time>
      </trkpt>
      <trkpt lat="46.97703" lon="8.75214">
        <ele>604</ele>
        <time>2021-08-05T11:48:55.791Z</time>
      </trkpt>
      <trkpt lat="46.97703" lon="8.75217">
        <ele>604</ele>
        <time>2021-08-05T11:48:56.791Z</time>
      </trkpt>
      <trkpt lat="46.97703" lon="8.75218">
        <ele>604</ele>
        <time>2021-08-05T11:48:57.790Z</time>
      </trkpt>
      <trkpt lat="46.97702" lon="8.75221">
        <ele>605</ele>
        <time>2021-08-05T11:48:58.791Z</time>
      </trkpt>
      <trkpt lat="46.97702" lon="8.75223">
        <ele>605</ele>
        <time>2021-08-05T11:48:59.791Z</time>
      </trkpt>
      <trkpt lat="46.97702" lon="8.75225">
        <ele>605</ele>
        <time>2021-08-05T11:49:00.791Z</time>
      </trkpt>
      <trkpt lat="46.97701" lon="8.75228">
        <ele>605</ele>
        <time>2021-08-05T11:49:01.791Z</time>
      </trkpt>
      <trkpt lat="46.97701" lon="8.7523">
        <ele>605</ele>
        <time>2021-08-05T11:49:02.791Z</time>
      </trkpt>
      <trkpt lat="46.97701" lon="8.75231">
        <ele>605</ele>
        <time>2021-08-05T11:49:03.791Z</time>
      </trkpt>
      <trkpt lat="46.97701" lon="8.75233">
        <ele>605</ele>
        <time>2021-08-05T11:49:04.791Z</time>
      </trkpt>
      <trkpt lat="46.97701" lon="8.75235">
        <ele>606</ele>
        <time>2021-08-05T11:49:05.791Z</time>
      </trkpt>
      <trkpt lat="46.97701" lon="8.75237">
        <ele>606</ele>
        <time>2021-08-05T11:49:06.790Z</time>
      </trkpt>
      <trkpt lat="46.97701" lon="8.75239">
        <ele>606</ele>
        <time>2021-08-05T11:49:07.790Z</time>
      </trkpt>
      <trkpt lat="46.977" lon="8.75242">
        <ele>606</ele>
        <time>2021-08-05T11:49:08.791Z</time>
      </trkpt>
      <trkpt lat="46.977" lon="8.75243">
        <ele>607</ele>
        <time>2021-08-05T11:49:09.790Z</time>
      </trkpt>
      <trkpt lat="46.977" lon="8.75245">
        <ele>607</ele>
        <time>2021-08-05T11:49:10.790Z</time>
      </trkpt>
      <trkpt lat="46.97699" lon="8.75247">
        <ele>607</ele>
        <time>2021-08-05T11:49:11.791Z</time>
      </trkpt>
      <trkpt lat="46.97699" lon="8.75249">
        <ele>607</ele>
        <time>2021-08-05T11:49:12.790Z</time>
      </trkpt>
      <trkpt lat="46.97698" lon="8.75251">
        <ele>608</ele>
        <time>2021-08-05T11:49:13.790Z</time>
      </trkpt>
      <trkpt lat="46.97698" lon="8.75253">
        <ele>608</ele>
        <time>2021-08-05T11:49:14.790Z</time>
      </trkpt>
      <trkpt lat="46.97698" lon="8.75255">
        <ele>608</ele>
        <time>2021-08-05T11:49:15.791Z</time>
      </trkpt>
      <trkpt lat="46.97698" lon="8.75257">
        <ele>608</ele>
        <time>2021-08-05T11:49:16.790Z</time>
      </trkpt>
      <trkpt lat="46.97698" lon="8.75259">
        <ele>609</ele>
        <time>2021-08-05T11:49:17.791Z</time>
      </trkpt>
      <trkpt lat="46.97697" lon="8.75261">
        <ele>609</ele>
        <time>2021-08-05T11:49:18.791Z</time>
      </trkpt>
      <trkpt lat="46.97697" lon="8.75263">
        <ele>610</ele>
        <time>2021-08-05T11:49:19.790Z</time>
      </trkpt>
      <trkpt lat="46.97696" lon="8.75265">
        <ele>610</ele>
        <time>2021-08-05T11:49:20.790Z</time>
      </trkpt>
      <trkpt lat="46.97696" lon="8.75267">
        <ele>611</ele>
        <time>2021-08-05T11:49:21.790Z</time>
      </trkpt>
      <trkpt lat="46.97695" lon="8.75269">
        <ele>611</ele>
        <time>2021-08-05T11:49:22.790Z</time>
      </trkpt>
      <trkpt lat="46.97695" lon="8.75271">
        <ele>611</ele>
        <time>2021-08-05T11:49:23.790Z</time>
      </trkpt>
      <trkpt lat="46.97695" lon="8.75273">
        <ele>611</ele>
        <time>2021-08-05T11:49:24.791Z</time>
      </trkpt>
      <trkpt lat="46.97694" lon="8.75276">
        <ele>610</ele>
        <time>2021-08-05T11:49:25.790Z</time>
      </trkpt>
      <trkpt lat="46.97694" lon="8.75278">
        <ele>610</ele>
        <time>2021-08-05T11:49:26.791Z</time>
      </trkpt>
      <trkpt lat="46.97694" lon="8.7528">
        <ele>610</ele>
        <time>2021-08-05T11:49:27.791Z</time>
      </trkpt>
      <trkpt lat="46.97694" lon="8.75282">
        <ele>609</ele>
        <time>2021-08-05T11:49:28.790Z</time>
      </trkpt>
      <trkpt lat="46.97693" lon="8.75284">
        <ele>608</ele>
        <time>2021-08-05T11:49:29.791Z</time>
      </trkpt>
      <trkpt lat="46.97693" lon="8.75286">
        <ele>608</ele>
        <time>2021-08-05T11:49:30.791Z</time>
      </trkpt>
      <trkpt lat="46.97693" lon="8.75288">
        <ele>608</ele>
        <time>2021-08-05T11:49:31.791Z</time>
      </trkpt>
      <trkpt lat="46.97692" lon="8.75289">
        <ele>607</ele>
        <time>2021-08-05T11:49:32.791Z</time>
      </trkpt>
      <trkpt lat="46.97692" lon="8.75291">
        <ele>607</ele>
        <time>2021-08-05T11:49:33.791Z</time>
      </trkpt>
      <trkpt lat="46.97692" lon="8.75293">
        <ele>607</ele>
        <time>2021-08-05T11:49:34.790Z</time>
      </trkpt>
      <trkpt lat="46.97691" lon="8.75296">
        <ele>607</ele>
        <time>2021-08-05T11:49:35.790Z</time>
      </trkpt>
      <trkpt lat="46.97691" lon="8.75298">
        <ele>607</ele>
        <time>2021-08-05T11:49:36.790Z</time>
      </trkpt>
      <trkpt lat="46.97691" lon="8.753">
        <ele>607</ele>
        <time>2021-08-05T11:49:37.791Z</time>
      </trkpt>
      <trkpt lat="46.9769" lon="8.75302">
        <ele>607</ele>
        <time>2021-08-05T11:49:38.791Z</time>
      </trkpt>
      <trkpt lat="46.9769" lon="8.75305">
        <ele>607</ele>
        <time>2021-08-05T11:49:39.791Z</time>
      </trkpt>
      <trkpt lat="46.9769" lon="8.75307">
        <ele>607</ele>
        <time>2021-08-05T11:49:40.790Z</time>
      </trkpt>
      <trkpt lat="46.97689" lon="8.75309">
        <ele>607</ele>
        <time>2021-08-05T11:49:41.790Z</time>
      </trkpt>
      <trkpt lat="46.97689" lon="8.75311">
        <ele>607</ele>
        <time>2021-08-05T11:49:42.790Z</time>
      </trkpt>
      <trkpt lat="46.97689" lon="8.75313">
        <ele>606</ele>
        <time>2021-08-05T11:49:43.791Z</time>
      </trkpt>
      <trkpt lat="46.97689" lon="8.75315">
        <ele>606</ele>
        <time>2021-08-05T11:49:44.791Z</time>
      </trkpt>
      <trkpt lat="46.97688" lon="8.75317">
        <ele>605</ele>
        <time>2021-08-05T11:49:45.790Z</time>
      </trkpt>
      <trkpt lat="46.97688" lon="8.75319">
        <ele>605</ele>
        <time>2021-08-05T11:49:46.790Z</time>
      </trkpt>
      <trkpt lat="46.97688" lon="8.75321">
        <ele>604</ele>
        <time>2021-08-05T11:49:47.790Z</time>
      </trkpt>
      <trkpt lat="46.97688" lon="8.75323">
        <ele>604</ele>
        <time>2021-08-05T11:49:48.791Z</time>
      </trkpt>
      <trkpt lat="46.97688" lon="8.75325">
        <ele>603</ele>
        <time>2021-08-05T11:49:49.790Z</time>
      </trkpt>
      <trkpt lat="46.97687" lon="8.75327">
        <ele>603</ele>
        <time>2021-08-05T11:49:50.790Z</time>
      </trkpt>
      <trkpt lat="46.97687" lon="8.75328">
        <ele>603</ele>
        <time>2021-08-05T11:49:51.790Z</time>
      </trkpt>
      <trkpt lat="46.97687" lon="8.7533">
        <ele>603</ele>
        <time>2021-08-05T11:49:52.790Z</time>
      </trkpt>
      <trkpt lat="46.97687" lon="8.75332">
        <ele>603</ele>
        <time>2021-08-05T11:49:53.790Z</time>
      </trkpt>
      <trkpt lat="46.97687" lon="8.75334">
        <ele>603</ele>
        <time>2021-08-05T11:49:54.790Z</time>
      </trkpt>
      <trkpt lat="46.97687" lon="8.75336">
        <ele>602</ele>
        <time>2021-08-05T11:49:55.790Z</time>
      </trkpt>
      <trkpt lat="46.97687" lon="8.75337">
        <ele>602</ele>
        <time>2021-08-05T11:49:56.790Z</time>
      </trkpt>
      <trkpt lat="46.97687" lon="8.7534">
        <ele>602</ele>
        <time>2021-08-05T11:49:57.790Z</time>
      </trkpt>
      <trkpt lat="46.97687" lon="8.75341">
        <ele>602</ele>
        <time>2021-08-05T11:49:58.790Z</time>
      </trkpt>
      <trkpt lat="46.97687" lon="8.75343">
        <ele>602</ele>
        <time>2021-08-05T11:49:59.790Z</time>
      </trkpt>
      <trkpt lat="46.97687" lon="8.75345">
        <ele>602</ele>
        <time>2021-08-05T11:50:00.790Z</time>
      </trkpt>
      <trkpt lat="46.97687" lon="8.75347">
        <ele>602</ele>
        <time>2021-08-05T11:50:01.790Z</time>
      </trkpt>
      <trkpt lat="46.97687" lon="8.75349">
        <ele>602</ele>
        <time>2021-08-05T11:50:02.790Z</time>
      </trkpt>
      <trkpt lat="46.97686" lon="8.75351">
        <ele>603</ele>
        <time>2021-08-05T11:50:03.790Z</time>
      </trkpt>
      <trkpt lat="46.97686" lon="8.75352">
        <ele>603</ele>
        <time>2021-08-05T11:50:04.791Z</time>
      </trkpt>
      <trkpt lat="46.97686" lon="8.75355">
        <ele>603</ele>
        <time>2021-08-05T11:50:05.791Z</time>
      </trkpt>
      <trkpt lat="46.97686" lon="8.75357">
        <ele>603</ele>
        <time>2021-08-05T11:50:06.790Z</time>
      </trkpt>
      <trkpt lat="46.97686" lon="8.75359">
        <ele>603</ele>
        <time>2021-08-05T11:50:07.790Z</time>
      </trkpt>
      <trkpt lat="46.97686" lon="8.75361">
        <ele>602</ele>
        <time>2021-08-05T11:50:08.791Z</time>
      </trkpt>
      <trkpt lat="46.97686" lon="8.75364">
        <ele>603</ele>
        <time>2021-08-05T11:50:09.791Z</time>
      </trkpt>
      <trkpt lat="46.97686" lon="8.75366">
        <ele>603</ele>
        <time>2021-08-05T11:50:10.790Z</time>
      </trkpt>
      <trkpt lat="46.97686" lon="8.75368">
        <ele>603</ele>
        <time>2021-08-05T11:50:11.790Z</time>
      </trkpt>
      <trkpt lat="46.97686" lon="8.7537">
        <ele>604</ele>
        <time>2021-08-05T11:50:12.791Z</time>
      </trkpt>
      <trkpt lat="46.97686" lon="8.75372">
        <ele>604</ele>
        <time>2021-08-05T11:50:13.790Z</time>
      </trkpt>
      <trkpt lat="46.97685" lon="8.75374">
        <ele>604</ele>
        <time>2021-08-05T11:50:14.791Z</time>
      </trkpt>
      <trkpt lat="46.97685" lon="8.75376">
        <ele>605</ele>
        <time>2021-08-05T11:50:15.790Z</time>
      </trkpt>
      <trkpt lat="46.97685" lon="8.75378">
        <ele>605</ele>
        <time>2021-08-05T11:50:16.791Z</time>
      </trkpt>
      <trkpt lat="46.97685" lon="8.7538">
        <ele>605</ele>
        <time>2021-08-05T11:50:17.791Z</time>
      </trkpt>
      <trkpt lat="46.97684" lon="8.75382">
        <ele>606</ele>
        <time>2021-08-05T11:50:18.791Z</time>
      </trkpt>
      <trkpt lat="46.97684" lon="8.75384">
        <ele>606</ele>
        <time>2021-08-05T11:50:19.791Z</time>
      </trkpt>
      <trkpt lat="46.97684" lon="8.75386">
        <ele>606</ele>
        <time>2021-08-05T11:50:20.791Z</time>
      </trkpt>
      <trkpt lat="46.97684" lon="8.75388">
        <ele>607</ele>
        <time>2021-08-05T11:50:21.791Z</time>
      </trkpt>
      <trkpt lat="46.97684" lon="8.7539">
        <ele>608</ele>
        <time>2021-08-05T11:50:22.791Z</time>
      </trkpt>
      <trkpt lat="46.97685" lon="8.75392">
        <ele>608</ele>
        <time>2021-08-05T11:50:23.790Z</time>
      </trkpt>
      <trkpt lat="46.97685" lon="8.75394">
        <ele>609</ele>
        <time>2021-08-05T11:50:24.791Z</time>
      </trkpt>
      <trkpt lat="46.97685" lon="8.75396">
        <ele>610</ele>
        <time>2021-08-05T11:50:25.791Z</time>
      </trkpt>
      <trkpt lat="46.97685" lon="8.75399">
        <ele>610</ele>
        <time>2021-08-05T11:50:26.791Z</time>
      </trkpt>
      <trkpt lat="46.97685" lon="8.754">
        <ele>610</ele>
        <time>2021-08-05T11:50:27.791Z</time>
      </trkpt>
      <trkpt lat="46.97685" lon="8.75402">
        <ele>611</ele>
        <time>2021-08-05T11:50:28.791Z</time>
      </trkpt>
      <trkpt lat="46.97685" lon="8.75404">
        <ele>610</ele>
        <time>2021-08-05T11:50:29.791Z</time>
      </trkpt>
      <trkpt lat="46.97685" lon="8.75406">
        <ele>610</ele>
        <time>2021-08-05T11:50:30.791Z</time>
      </trkpt>
      <trkpt lat="46.97685" lon="8.75407">
        <ele>609</ele>
        <time>2021-08-05T11:50:31.791Z</time>
      </trkpt>
      <trkpt lat="46.97685" lon="8.75409">
        <ele>609</ele>
        <time>2021-08-05T11:50:32.791Z</time>
      </trkpt>
      <trkpt lat="46.97685" lon="8.75411">
        <ele>608</ele>
        <time>2021-08-05T11:50:33.790Z</time>
      </trkpt>
      <trkpt lat="46.97685" lon="8.75413">
        <ele>608</ele>
        <time>2021-08-05T11:50:34.791Z</time>
      </trkpt>
      <trkpt lat="46.97685" lon="8.75416">
        <ele>607</ele>
        <time>2021-08-05T11:50:35.790Z</time>
      </trkpt>
      <trkpt lat="46.97685" lon="8.75418">
        <ele>607</ele>
        <time>2021-08-05T11:50:36.791Z</time>
      </trkpt>
      <trkpt lat="46.97685" lon="8.7542">
        <ele>606</ele>
        <time>2021-08-05T11:50:37.791Z</time>
      </trkpt>
      <trkpt lat="46.97685" lon="8.75421">
        <ele>606</ele>
        <time>2021-08-05T11:50:38.790Z</time>
      </trkpt>
      <trkpt lat="46.97684" lon="8.75424">
        <ele>606</ele>
        <time>2021-08-05T11:50:39.790Z</time>
      </trkpt>
      <trkpt lat="46.97684" lon="8.75425">
        <ele>606</ele>
        <time>2021-08-05T11:50:40.791Z</time>
      </trkpt>
      <trkpt lat="46.97684" lon="8.75427">
        <ele>605</ele>
        <time>2021-08-05T11:50:41.791Z</time>
      </trkpt>
      <trkpt lat="46.97683" lon="8.75429">
        <ele>605</ele>
        <time>2021-08-05T11:50:42.791Z</time>
      </trkpt>
      <trkpt lat="46.97683" lon="8.75431">
        <ele>605</ele>
        <time>2021-08-05T11:50:43.790Z</time>
      </trkpt>
      <trkpt lat="46.97683" lon="8.75433">
        <ele>604</ele>
        <time>2021-08-05T11:50:44.791Z</time>
      </trkpt>
      <trkpt lat="46.97682" lon="8.75435">
        <ele>604</ele>
        <time>2021-08-05T11:50:45.790Z</time>
      </trkpt>
      <trkpt lat="46.97682" lon="8.75437">
        <ele>605</ele>
        <time>2021-08-05T11:50:46.791Z</time>
      </trkpt>
      <trkpt lat="46.97681" lon="8.75439">
        <ele>605</ele>
        <time>2021-08-05T11:50:47.790Z</time>
      </trkpt>
      <trkpt lat="46.97681" lon="8.75441">
        <ele>605</ele>
        <time>2021-08-05T11:50:48.791Z</time>
      </trkpt>
      <trkpt lat="46.9768" lon="8.75443">
        <ele>605</ele>
        <time>2021-08-05T11:50:49.791Z</time>
      </trkpt>
      <trkpt lat="46.9768" lon="8.75445">
        <ele>605</ele>
        <time>2021-08-05T11:50:50.791Z</time>
      </trkpt>
      <trkpt lat="46.9768" lon="8.75447">
        <ele>606</ele>
        <time>2021-08-05T11:50:51.790Z</time>
      </trkpt>
      <trkpt lat="46.97679" lon="8.75449">
        <ele>606</ele>
        <time>2021-08-05T11:50:52.791Z</time>
      </trkpt>
      <trkpt lat="46.97678" lon="8.75452">
        <ele>606</ele>
        <time>2021-08-05T11:50:53.790Z</time>
      </trkpt>
      <trkpt lat="46.97678" lon="8.75454">
        <ele>606</ele>
        <time>2021-08-05T11:50:54.791Z</time>
      </trkpt>
      <trkpt lat="46.97678" lon="8.75456">
        <ele>606</ele>
        <time>2021-08-05T11:50:55.791Z</time>
      </trkpt>
      <trkpt lat="46.97677" lon="8.75458">
        <ele>606</ele>
        <time>2021-08-05T11:50:56.791Z</time>
      </trkpt>
      <trkpt lat="46.97677" lon="8.75459">
        <ele>606</ele>
        <time>2021-08-05T11:50:57.791Z</time>
      </trkpt>
      <trkpt lat="46.97676" lon="8.75461">
        <ele>606</ele>
        <time>2021-08-05T11:50:58.790Z</time>
      </trkpt>
      <trkpt lat="46.97676" lon="8.75463">
        <ele>607</ele>
        <time>2021-08-05T11:50:59.791Z</time>
      </trkpt>
      <trkpt lat="46.97675" lon="8.75464">
        <ele>607</ele>
        <time>2021-08-05T11:51:00.790Z</time>
      </trkpt>
      <trkpt lat="46.97675" lon="8.75466">
        <ele>607</ele>
        <time>2021-08-05T11:51:01.791Z</time>
      </trkpt>
      <trkpt lat="46.97674" lon="8.75468">
        <ele>608</ele>
        <time>2021-08-05T11:51:02.791Z</time>
      </trkpt>
      <trkpt lat="46.97674" lon="8.7547">
        <ele>608</ele>
        <time>2021-08-05T11:51:03.791Z</time>
      </trkpt>
      <trkpt lat="46.97673" lon="8.75471">
        <ele>609</ele>
        <time>2021-08-05T11:51:05.777Z</time>
      </trkpt>
      <trkpt lat="46.97672" lon="8.75473">
        <ele>609</ele>
        <time>2021-08-05T11:51:06.777Z</time>
      </trkpt>
      <trkpt lat="46.97671" lon="8.75475">
        <ele>610</ele>
        <time>2021-08-05T11:51:07.776Z</time>
      </trkpt>
      <trkpt lat="46.97671" lon="8.75477">
        <ele>610</ele>
        <time>2021-08-05T11:51:08.776Z</time>
      </trkpt>
      <trkpt lat="46.9767" lon="8.75478">
        <ele>609</ele>
        <time>2021-08-05T11:51:09.777Z</time>
      </trkpt>
      <trkpt lat="46.9767" lon="8.7548">
        <ele>609</ele>
        <time>2021-08-05T11:51:10.777Z</time>
      </trkpt>
      <trkpt lat="46.97669" lon="8.75482">
        <ele>608</ele>
        <time>2021-08-05T11:51:11.776Z</time>
      </trkpt>
      <trkpt lat="46.97669" lon="8.75484">
        <ele>608</ele>
        <time>2021-08-05T11:51:12.777Z</time>
      </trkpt>
      <trkpt lat="46.97669" lon="8.75486">
        <ele>607</ele>
        <time>2021-08-05T11:51:13.777Z</time>
      </trkpt>
      <trkpt lat="46.97668" lon="8.75488">
        <ele>607</ele>
        <time>2021-08-05T11:51:14.777Z</time>
      </trkpt>
      <trkpt lat="46.97668" lon="8.7549">
        <ele>607</ele>
        <time>2021-08-05T11:51:15.777Z</time>
      </trkpt>
      <trkpt lat="46.97667" lon="8.75491">
        <ele>606</ele>
        <time>2021-08-05T11:51:16.777Z</time>
      </trkpt>
      <trkpt lat="46.97667" lon="8.75493">
        <ele>606</ele>
        <time>2021-08-05T11:51:17.776Z</time>
      </trkpt>
      <trkpt lat="46.97666" lon="8.75494">
        <ele>606</ele>
        <time>2021-08-05T11:51:18.776Z</time>
      </trkpt>
      <trkpt lat="46.97665" lon="8.75497">
        <ele>607</ele>
        <time>2021-08-05T11:51:19.777Z</time>
      </trkpt>
      <trkpt lat="46.97665" lon="8.75498">
        <ele>608</ele>
        <time>2021-08-05T11:51:20.777Z</time>
      </trkpt>
      <trkpt lat="46.97664" lon="8.755">
        <ele>608</ele>
        <time>2021-08-05T11:51:21.776Z</time>
      </trkpt>
      <trkpt lat="46.97663" lon="8.75502">
        <ele>609</ele>
        <time>2021-08-05T11:51:22.777Z</time>
      </trkpt>
      <trkpt lat="46.97663" lon="8.75504">
        <ele>610</ele>
        <time>2021-08-05T11:51:23.777Z</time>
      </trkpt>
      <trkpt lat="46.97662" lon="8.75506">
        <ele>611</ele>
        <time>2021-08-05T11:51:24.776Z</time>
      </trkpt>
      <trkpt lat="46.97662" lon="8.75508">
        <ele>612</ele>
        <time>2021-08-05T11:51:25.777Z</time>
      </trkpt>
      <trkpt lat="46.97661" lon="8.75509">
        <ele>612</ele>
        <time>2021-08-05T11:51:26.777Z</time>
      </trkpt>
      <trkpt lat="46.97661" lon="8.75511">
        <ele>612</ele>
        <time>2021-08-05T11:51:27.777Z</time>
      </trkpt>
      <trkpt lat="46.9766" lon="8.75513">
        <ele>612</ele>
        <time>2021-08-05T11:51:28.776Z</time>
      </trkpt>
      <trkpt lat="46.9766" lon="8.75515">
        <ele>611</ele>
        <time>2021-08-05T11:51:29.777Z</time>
      </trkpt>
      <trkpt lat="46.97659" lon="8.75516">
        <ele>611</ele>
        <time>2021-08-05T11:51:30.777Z</time>
      </trkpt>
      <trkpt lat="46.97658" lon="8.75518">
        <ele>611</ele>
        <time>2021-08-05T11:51:31.777Z</time>
      </trkpt>
      <trkpt lat="46.97658" lon="8.75519">
        <ele>611</ele>
        <time>2021-08-05T11:51:32.776Z</time>
      </trkpt>
      <trkpt lat="46.97657" lon="8.75521">
        <ele>611</ele>
        <time>2021-08-05T11:51:33.777Z</time>
      </trkpt>
      <trkpt lat="46.97656" lon="8.75523">
        <ele>611</ele>
        <time>2021-08-05T11:51:34.776Z</time>
      </trkpt>
      <trkpt lat="46.97656" lon="8.75525">
        <ele>610</ele>
        <time>2021-08-05T11:51:35.777Z</time>
      </trkpt>
      <trkpt lat="46.97655" lon="8.75527">
        <ele>611</ele>
        <time>2021-08-05T11:51:36.776Z</time>
      </trkpt>
      <trkpt lat="46.97654" lon="8.75528">
        <ele>611</ele>
        <time>2021-08-05T11:51:37.777Z</time>
      </trkpt>
      <trkpt lat="46.97654" lon="8.7553">
        <ele>610</ele>
        <time>2021-08-05T11:51:38.777Z</time>
      </trkpt>
      <trkpt lat="46.97653" lon="8.75531">
        <ele>610</ele>
        <time>2021-08-05T11:51:39.777Z</time>
      </trkpt>
      <trkpt lat="46.97653" lon="8.75533">
        <ele>610</ele>
        <time>2021-08-05T11:51:40.776Z</time>
      </trkpt>
      <trkpt lat="46.97652" lon="8.75535">
        <ele>609</ele>
        <time>2021-08-05T11:51:41.777Z</time>
      </trkpt>
      <trkpt lat="46.97651" lon="8.75537">
        <ele>609</ele>
        <time>2021-08-05T11:51:42.776Z</time>
      </trkpt>
      <trkpt lat="46.97651" lon="8.75538">
        <ele>610</ele>
        <time>2021-08-05T11:51:43.776Z</time>
      </trkpt>
      <trkpt lat="46.9765" lon="8.75541">
        <ele>610</ele>
        <time>2021-08-05T11:51:44.777Z</time>
      </trkpt>
      <trkpt lat="46.97649" lon="8.75543">
        <ele>610</ele>
        <time>2021-08-05T11:51:45.777Z</time>
      </trkpt>
      <trkpt lat="46.97648" lon="8.75544">
        <ele>611</ele>
        <time>2021-08-05T11:51:46.776Z</time>
      </trkpt>
      <trkpt lat="46.97647" lon="8.75546">
        <ele>611</ele>
        <time>2021-08-05T11:51:47.776Z</time>
      </trkpt>
      <trkpt lat="46.97646" lon="8.75548">
        <ele>611</ele>
        <time>2021-08-05T11:51:48.777Z</time>
      </trkpt>
      <trkpt lat="46.97646" lon="8.7555">
        <ele>611</ele>
        <time>2021-08-05T11:51:49.776Z</time>
      </trkpt>
      <trkpt lat="46.97646" lon="8.75552">
        <ele>610</ele>
        <time>2021-08-05T11:51:50.777Z</time>
      </trkpt>
      <trkpt lat="46.97645" lon="8.75553">
        <ele>610</ele>
        <time>2021-08-05T11:51:51.777Z</time>
      </trkpt>
      <trkpt lat="46.97645" lon="8.75555">
        <ele>610</ele>
        <time>2021-08-05T11:51:52.776Z</time>
      </trkpt>
      <trkpt lat="46.97644" lon="8.75557">
        <ele>610</ele>
        <time>2021-08-05T11:51:53.777Z</time>
      </trkpt>
      <trkpt lat="46.97644" lon="8.75559">
        <ele>610</ele>
        <time>2021-08-05T11:51:54.777Z</time>
      </trkpt>
      <trkpt lat="46.97643" lon="8.75561">
        <ele>610</ele>
        <time>2021-08-05T11:51:55.777Z</time>
      </trkpt>
      <trkpt lat="46.97642" lon="8.75562">
        <ele>610</ele>
        <time>2021-08-05T11:51:56.777Z</time>
      </trkpt>
      <trkpt lat="46.97641" lon="8.75564">
        <ele>610</ele>
        <time>2021-08-05T11:51:57.776Z</time>
      </trkpt>
      <trkpt lat="46.9764" lon="8.75566">
        <ele>610</ele>
        <time>2021-08-05T11:51:58.777Z</time>
      </trkpt>
      <trkpt lat="46.97639" lon="8.75567">
        <ele>610</ele>
        <time>2021-08-05T11:51:59.777Z</time>
      </trkpt>
      <trkpt lat="46.97639" lon="8.75569">
        <ele>610</ele>
        <time>2021-08-05T11:52:00.777Z</time>
      </trkpt>
      <trkpt lat="46.97638" lon="8.7557">
        <ele>610</ele>
        <time>2021-08-05T11:52:01.776Z</time>
      </trkpt>
      <trkpt lat="46.97637" lon="8.75572">
        <ele>610</ele>
        <time>2021-08-05T11:52:02.776Z</time>
      </trkpt>
      <trkpt lat="46.97637" lon="8.75574">
        <ele>610</ele>
        <time>2021-08-05T11:52:03.777Z</time>
      </trkpt>
      <trkpt lat="46.97636" lon="8.75575">
        <ele>610</ele>
        <time>2021-08-05T11:52:04.777Z</time>
      </trkpt>
      <trkpt lat="46.97635" lon="8.75577">
        <ele>610</ele>
        <time>2021-08-05T11:52:05.777Z</time>
      </trkpt>
      <trkpt lat="46.97634" lon="8.75578">
        <ele>609</ele>
        <time>2021-08-05T11:52:06.777Z</time>
      </trkpt>
      <trkpt lat="46.97633" lon="8.7558">
        <ele>609</ele>
        <time>2021-08-05T11:52:07.777Z</time>
      </trkpt>
      <trkpt lat="46.97632" lon="8.75581">
        <ele>609</ele>
        <time>2021-08-05T11:52:08.777Z</time>
      </trkpt>
      <trkpt lat="46.97631" lon="8.75583">
        <ele>610</ele>
        <time>2021-08-05T11:52:09.777Z</time>
      </trkpt>
      <trkpt lat="46.97631" lon="8.75585">
        <ele>610</ele>
        <time>2021-08-05T11:52:10.777Z</time>
      </trkpt>
      <trkpt lat="46.9763" lon="8.75587">
        <ele>610</ele>
        <time>2021-08-05T11:52:11.776Z</time>
      </trkpt>
      <trkpt lat="46.9763" lon="8.75589">
        <ele>610</ele>
        <time>2021-08-05T11:52:12.776Z</time>
      </trkpt>
      <trkpt lat="46.97629" lon="8.75591">
        <ele>610</ele>
        <time>2021-08-05T11:52:13.777Z</time>
      </trkpt>
      <trkpt lat="46.97629" lon="8.75593">
        <ele>610</ele>
        <time>2021-08-05T11:52:14.777Z</time>
      </trkpt>
      <trkpt lat="46.97628" lon="8.75595">
        <ele>610</ele>
        <time>2021-08-05T11:52:15.776Z</time>
      </trkpt>
      <trkpt lat="46.97628" lon="8.75596">
        <ele>610</ele>
        <time>2021-08-05T11:52:16.776Z</time>
      </trkpt>
      <trkpt lat="46.97627" lon="8.75598">
        <ele>610</ele>
        <time>2021-08-05T11:52:17.776Z</time>
      </trkpt>
      <trkpt lat="46.97627" lon="8.75599">
        <ele>610</ele>
        <time>2021-08-05T11:52:18.777Z</time>
      </trkpt>
      <trkpt lat="46.97626" lon="8.75601">
        <ele>610</ele>
        <time>2021-08-05T11:52:19.777Z</time>
      </trkpt>
      <trkpt lat="46.97625" lon="8.75603">
        <ele>610</ele>
        <time>2021-08-05T11:52:20.777Z</time>
      </trkpt>
      <trkpt lat="46.97625" lon="8.75605">
        <ele>610</ele>
        <time>2021-08-05T11:52:21.776Z</time>
      </trkpt>
      <trkpt lat="46.97624" lon="8.75606">
        <ele>611</ele>
        <time>2021-08-05T11:52:22.776Z</time>
      </trkpt>
      <trkpt lat="46.97623" lon="8.75608">
        <ele>611</ele>
        <time>2021-08-05T11:52:23.777Z</time>
      </trkpt>
      <trkpt lat="46.97623" lon="8.75609">
        <ele>610</ele>
        <time>2021-08-05T11:52:24.776Z</time>
      </trkpt>
      <trkpt lat="46.97622" lon="8.75611">
        <ele>610</ele>
        <time>2021-08-05T11:52:25.776Z</time>
      </trkpt>
      <trkpt lat="46.97621" lon="8.75613">
        <ele>610</ele>
        <time>2021-08-05T11:52:26.776Z</time>
      </trkpt>
      <trkpt lat="46.9762" lon="8.75615">
        <ele>610</ele>
        <time>2021-08-05T11:52:27.776Z</time>
      </trkpt>
      <trkpt lat="46.9762" lon="8.75617">
        <ele>610</ele>
        <time>2021-08-05T11:52:28.776Z</time>
      </trkpt>
      <trkpt lat="46.97619" lon="8.75619">
        <ele>610</ele>
        <time>2021-08-05T11:52:29.777Z</time>
      </trkpt>
      <trkpt lat="46.97619" lon="8.75621">
        <ele>611</ele>
        <time>2021-08-05T11:52:30.776Z</time>
      </trkpt>
      <trkpt lat="46.97618" lon="8.75623">
        <ele>612</ele>
        <time>2021-08-05T11:52:31.776Z</time>
      </trkpt>
      <trkpt lat="46.97617" lon="8.75624">
        <ele>612</ele>
        <time>2021-08-05T11:52:32.777Z</time>
      </trkpt>
      <trkpt lat="46.97616" lon="8.75625">
        <ele>612</ele>
        <time>2021-08-05T11:52:33.776Z</time>
      </trkpt>
      <trkpt lat="46.97616" lon="8.75627">
        <ele>612</ele>
        <time>2021-08-05T11:52:34.777Z</time>
      </trkpt>
      <trkpt lat="46.97616" lon="8.75628">
        <ele>612</ele>
        <time>2021-08-05T11:52:35.777Z</time>
      </trkpt>
      <trkpt lat="46.97615" lon="8.7563">
        <ele>612</ele>
        <time>2021-08-05T11:52:36.777Z</time>
      </trkpt>
      <trkpt lat="46.97614" lon="8.75631">
        <ele>613</ele>
        <time>2021-08-05T11:52:37.776Z</time>
      </trkpt>
      <trkpt lat="46.97614" lon="8.75633">
        <ele>613</ele>
        <time>2021-08-05T11:52:38.777Z</time>
      </trkpt>
      <trkpt lat="46.97613" lon="8.75635">
        <ele>613</ele>
        <time>2021-08-05T11:52:39.777Z</time>
      </trkpt>
      <trkpt lat="46.97612" lon="8.75637">
        <ele>614</ele>
        <time>2021-08-05T11:52:42.901Z</time>
      </trkpt>
      <trkpt lat="46.97611" lon="8.75639">
        <ele>614</ele>
        <time>2021-08-05T11:52:43.901Z</time>
      </trkpt>
      <trkpt lat="46.9761" lon="8.75641">
        <ele>614</ele>
        <time>2021-08-05T11:52:44.901Z</time>
      </trkpt>
      <trkpt lat="46.9761" lon="8.75642">
        <ele>614</ele>
        <time>2021-08-05T11:52:45.901Z</time>
      </trkpt>
      <trkpt lat="46.97609" lon="8.75643">
        <ele>615</ele>
        <time>2021-08-05T11:52:46.901Z</time>
      </trkpt>
      <trkpt lat="46.97609" lon="8.75644">
        <ele>615</ele>
        <time>2021-08-05T11:52:47.901Z</time>
      </trkpt>
      <trkpt lat="46.97608" lon="8.75646">
        <ele>615</ele>
        <time>2021-08-05T11:52:48.902Z</time>
      </trkpt>
      <trkpt lat="46.97608" lon="8.75647">
        <ele>615</ele>
        <time>2021-08-05T11:52:49.901Z</time>
      </trkpt>
      <trkpt lat="46.97608" lon="8.75649">
        <ele>615</ele>
        <time>2021-08-05T11:52:50.902Z</time>
      </trkpt>
      <trkpt lat="46.97607" lon="8.75651">
        <ele>615</ele>
        <time>2021-08-05T11:52:51.902Z</time>
      </trkpt>
      <trkpt lat="46.97607" lon="8.75652">
        <ele>615</ele>
        <time>2021-08-05T11:52:52.902Z</time>
      </trkpt>
      <trkpt lat="46.97605" lon="8.75655">
        <ele>615</ele>
        <time>2021-08-05T11:52:53.901Z</time>
      </trkpt>
      <trkpt lat="46.97604" lon="8.75657">
        <ele>615</ele>
        <time>2021-08-05T11:52:54.901Z</time>
      </trkpt>
      <trkpt lat="46.97603" lon="8.75659">
        <ele>614</ele>
        <time>2021-08-05T11:52:55.902Z</time>
      </trkpt>
      <trkpt lat="46.97603" lon="8.7566">
        <ele>614</ele>
        <time>2021-08-05T11:52:56.901Z</time>
      </trkpt>
      <trkpt lat="46.97602" lon="8.75661">
        <ele>614</ele>
        <time>2021-08-05T11:52:57.902Z</time>
      </trkpt>
      <trkpt lat="46.97602" lon="8.75662">
        <ele>614</ele>
        <time>2021-08-05T11:52:58.901Z</time>
      </trkpt>
      <trkpt lat="46.97601" lon="8.75663">
        <ele>614</ele>
        <time>2021-08-05T11:52:59.902Z</time>
      </trkpt>
      <trkpt lat="46.97599" lon="8.75663">
        <ele>613</ele>
        <time>2021-08-05T11:53:00.902Z</time>
      </trkpt>
      <trkpt lat="46.97598" lon="8.75663">
        <ele>613</ele>
        <time>2021-08-05T11:53:01.902Z</time>
      </trkpt>
      <trkpt lat="46.97597" lon="8.75664">
        <ele>613</ele>
        <time>2021-08-05T11:53:02.902Z</time>
      </trkpt>
      <trkpt lat="46.97596" lon="8.75665">
        <ele>613</ele>
        <time>2021-08-05T11:53:03.902Z</time>
      </trkpt>
      <trkpt lat="46.97596" lon="8.75665">
        <ele>614</ele>
        <time>2021-08-05T11:53:04.901Z</time>
      </trkpt>
      <trkpt lat="46.97595" lon="8.75666">
        <ele>614</ele>
        <time>2021-08-05T11:53:05.902Z</time>
      </trkpt>
      <trkpt lat="46.97594" lon="8.75667">
        <ele>614</ele>
        <time>2021-08-05T11:53:06.902Z</time>
      </trkpt>
      <trkpt lat="46.97594" lon="8.75668">
        <ele>614</ele>
        <time>2021-08-05T11:53:07.902Z</time>
      </trkpt>
      <trkpt lat="46.97593" lon="8.75669">
        <ele>614</ele>
        <time>2021-08-05T11:53:08.902Z</time>
      </trkpt>
      <trkpt lat="46.97592" lon="8.75669">
        <ele>615</ele>
        <time>2021-08-05T11:53:09.901Z</time>
      </trkpt>
      <trkpt lat="46.97591" lon="8.7567">
        <ele>615</ele>
        <time>2021-08-05T11:53:10.902Z</time>
      </trkpt>
      <trkpt lat="46.9759" lon="8.75671">
        <ele>615</ele>
        <time>2021-08-05T11:53:11.901Z</time>
      </trkpt>
      <trkpt lat="46.9759" lon="8.75669">
        <ele>614</ele>
        <time>2021-08-05T11:53:12.902Z</time>
      </trkpt>
      <trkpt lat="46.9759" lon="8.75666">
        <ele>614</ele>
        <time>2021-08-05T11:53:13.902Z</time>
      </trkpt>
      <trkpt lat="46.97588" lon="8.75666">
        <ele>614</ele>
        <time>2021-08-05T11:53:14.903Z</time>
      </trkpt>
      <trkpt lat="46.97588" lon="8.75666">
        <ele>613</ele>
        <time>2021-08-05T11:53:15.903Z</time>
      </trkpt>
      <trkpt lat="46.97588" lon="8.75666">
        <ele>613</ele>
        <time>2021-08-05T11:53:16.902Z</time>
      </trkpt>
      <trkpt lat="46.97589" lon="8.75666">
        <ele>623</ele>
        <time>2021-08-05T11:53:17.903Z</time>
      </trkpt>
      <trkpt lat="46.97589" lon="8.75666">
        <ele>624</ele>
        <time>2021-08-05T11:53:18.903Z</time>
      </trkpt>
      <trkpt lat="46.9759" lon="8.75665">
        <ele>625</ele>
        <time>2021-08-05T11:53:19.902Z</time>
      </trkpt>
      <trkpt lat="46.9759" lon="8.75665">
        <ele>626</ele>
        <time>2021-08-05T11:53:20.903Z</time>
      </trkpt>
      <trkpt lat="46.97589" lon="8.75664">
        <ele>626</ele>
        <time>2021-08-05T11:53:21.902Z</time>
      </trkpt>
      <trkpt lat="46.97589" lon="8.75663">
        <ele>627</ele>
        <time>2021-08-05T11:53:22.902Z</time>
      </trkpt>
      <trkpt lat="46.97589" lon="8.75663">
        <ele>628</ele>
        <time>2021-08-05T11:53:23.903Z</time>
      </trkpt>
      <trkpt lat="46.97589" lon="8.75663">
        <ele>628</ele>
        <time>2021-08-05T11:53:24.903Z</time>
      </trkpt>
      <trkpt lat="46.97589" lon="8.75663">
        <ele>629</ele>
        <time>2021-08-05T11:53:25.903Z</time>
      </trkpt>
      <trkpt lat="46.97591" lon="8.75666">
        <ele>633</ele>
        <time>2021-08-05T11:53:26.903Z</time>
      </trkpt>
      <trkpt lat="46.9759" lon="8.75669">
        <ele>633</ele>
        <time>2021-08-05T11:53:27.903Z</time>
      </trkpt>
      <trkpt lat="46.9759" lon="8.75671">
        <ele>634</ele>
        <time>2021-08-05T11:53:28.902Z</time>
      </trkpt>
      <trkpt lat="46.9759" lon="8.75675">
        <ele>637</ele>
        <time>2021-08-05T11:53:29.903Z</time>
      </trkpt>
      <trkpt lat="46.9759" lon="8.75675">
        <ele>637</ele>
        <time>2021-08-05T11:53:30.902Z</time>
      </trkpt>
      <trkpt lat="46.97591" lon="8.75676">
        <ele>637</ele>
        <time>2021-08-05T11:53:31.903Z</time>
      </trkpt>
      <trkpt lat="46.9759" lon="8.75682">
        <ele>638</ele>
        <time>2021-08-05T11:53:32.903Z</time>
      </trkpt>
      <trkpt lat="46.9759" lon="8.75683">
        <ele>638</ele>
        <time>2021-08-05T11:53:33.903Z</time>
      </trkpt>
      <trkpt lat="46.9759" lon="8.75683">
        <ele>639</ele>
        <time>2021-08-05T11:53:34.902Z</time>
      </trkpt>
      <trkpt lat="46.97591" lon="8.75683">
        <ele>639</ele>
        <time>2021-08-05T11:53:35.902Z</time>
      </trkpt>
      <trkpt lat="46.97592" lon="8.75688">
        <ele>636</ele>
        <time>2021-08-05T11:53:36.903Z</time>
      </trkpt>
      <trkpt lat="46.97592" lon="8.75688">
        <ele>635</ele>
        <time>2021-08-05T11:53:37.904Z</time>
      </trkpt>
      <trkpt lat="46.97592" lon="8.7569">
        <ele>632</ele>
        <time>2021-08-05T11:53:38.905Z</time>
      </trkpt>
      <trkpt lat="46.97592" lon="8.75692">
        <ele>630</ele>
        <time>2021-08-05T11:53:39.906Z</time>
      </trkpt>
      <trkpt lat="46.97592" lon="8.75692">
        <ele>630</ele>
        <time>2021-08-05T11:53:40.906Z</time>
      </trkpt>
      <trkpt lat="46.97592" lon="8.75693">
        <ele>630</ele>
        <time>2021-08-05T11:53:41.905Z</time>
      </trkpt>
      <trkpt lat="46.97591" lon="8.75694">
        <ele>630</ele>
        <time>2021-08-05T11:53:42.905Z</time>
      </trkpt>
      <trkpt lat="46.9759" lon="8.75695">
        <ele>629</ele>
        <time>2021-08-05T11:53:43.906Z</time>
      </trkpt>
      <trkpt lat="46.9759" lon="8.75697">
        <ele>629</ele>
        <time>2021-08-05T11:53:44.906Z</time>
      </trkpt>
      <trkpt lat="46.9759" lon="8.75698">
        <ele>629</ele>
        <time>2021-08-05T11:53:45.906Z</time>
      </trkpt>
      <trkpt lat="46.9759" lon="8.75696">
        <ele>627</ele>
        <time>2021-08-05T11:53:46.905Z</time>
      </trkpt>
      <trkpt lat="46.9759" lon="8.75695">
        <ele>627</ele>
        <time>2021-08-05T11:53:47.906Z</time>
      </trkpt>
      <trkpt lat="46.9759" lon="8.75695">
        <ele>626</ele>
        <time>2021-08-05T11:53:48.905Z</time>
      </trkpt>
      <trkpt lat="46.9759" lon="8.75694">
        <ele>626</ele>
        <time>2021-08-05T11:53:49.905Z</time>
      </trkpt>
      <trkpt lat="46.9759" lon="8.75691">
        <ele>624</ele>
        <time>2021-08-05T11:53:50.906Z</time>
      </trkpt>
      <trkpt lat="46.9759" lon="8.7569">
        <ele>623</ele>
        <time>2021-08-05T11:53:51.907Z</time>
      </trkpt>
      <trkpt lat="46.9759" lon="8.75689">
        <ele>622</ele>
        <time>2021-08-05T11:53:52.906Z</time>
      </trkpt>
      <trkpt lat="46.97591" lon="8.75689">
        <ele>622</ele>
        <time>2021-08-05T11:53:53.906Z</time>
      </trkpt>
      <trkpt lat="46.97591" lon="8.75688">
        <ele>621</ele>
        <time>2021-08-05T11:53:54.906Z</time>
      </trkpt>
      <trkpt lat="46.97591" lon="8.75687">
        <ele>620</ele>
        <time>2021-08-05T11:53:55.906Z</time>
      </trkpt>
      <trkpt lat="46.97591" lon="8.75687">
        <ele>618</ele>
        <time>2021-08-05T11:53:56.907Z</time>
      </trkpt>
      <trkpt lat="46.97592" lon="8.75686">
        <ele>617</ele>
        <time>2021-08-05T11:53:57.907Z</time>
      </trkpt>
      <trkpt lat="46.97592" lon="8.75687">
        <ele>616</ele>
        <time>2021-08-05T11:53:58.906Z</time>
      </trkpt>
      <trkpt lat="46.97592" lon="8.75686">
        <ele>616</ele>
        <time>2021-08-05T11:53:59.907Z</time>
      </trkpt>
      <trkpt lat="46.97593" lon="8.75686">
        <ele>616</ele>
        <time>2021-08-05T11:54:00.906Z</time>
      </trkpt>
      <trkpt lat="46.97594" lon="8.75685">
        <ele>616</ele>
        <time>2021-08-05T11:54:01.907Z</time>
      </trkpt>
      <trkpt lat="46.97595" lon="8.75684">
        <ele>616</ele>
        <time>2021-08-05T11:54:02.907Z</time>
      </trkpt>
      <trkpt lat="46.97595" lon="8.75683">
        <ele>616</ele>
        <time>2021-08-05T11:54:03.906Z</time>
      </trkpt>
      <trkpt lat="46.97595" lon="8.75682">
        <ele>616</ele>
        <time>2021-08-05T11:54:04.907Z</time>
      </trkpt>
      <trkpt lat="46.97595" lon="8.75681">
        <ele>616</ele>
        <time>2021-08-05T11:54:05.906Z</time>
      </trkpt>
      <trkpt lat="46.97595" lon="8.75679">
        <ele>616</ele>
        <time>2021-08-05T11:54:06.907Z</time>
      </trkpt>
      <trkpt lat="46.97596" lon="8.75675">
        <ele>612</ele>
        <time>2021-08-05T11:54:07.908Z</time>
      </trkpt>
      <trkpt lat="46.97596" lon="8.75674">
        <ele>612</ele>
        <time>2021-08-05T11:54:08.908Z</time>
      </trkpt>
      <trkpt lat="46.97596" lon="8.75674">
        <ele>611</ele>
        <time>2021-08-05T11:54:09.907Z</time>
      </trkpt>
      <trkpt lat="46.97596" lon="8.75674">
        <ele>611</ele>
        <time>2021-08-05T11:54:10.907Z</time>
      </trkpt>
      <trkpt lat="46.97596" lon="8.75674">
        <ele>611</ele>
        <time>2021-08-05T11:54:11.908Z</time>
      </trkpt>
      <trkpt lat="46.97597" lon="8.75674">
        <ele>610</ele>
        <time>2021-08-05T11:54:12.907Z</time>
      </trkpt>
      <trkpt lat="46.97598" lon="8.75674">
        <ele>611</ele>
        <time>2021-08-05T11:54:13.907Z</time>
      </trkpt>
      <trkpt lat="46.97599" lon="8.75673">
        <ele>611</ele>
        <time>2021-08-05T11:54:14.907Z</time>
      </trkpt>
      <trkpt lat="46.976" lon="8.75672">
        <ele>611</ele>
        <time>2021-08-05T11:54:15.907Z</time>
      </trkpt>
      <trkpt lat="46.97604" lon="8.75672">
        <ele>612</ele>
        <time>2021-08-05T11:54:16.907Z</time>
      </trkpt>
      <trkpt lat="46.97604" lon="8.75673">
        <ele>612</ele>
        <time>2021-08-05T11:54:17.907Z</time>
      </trkpt>
      <trkpt lat="46.97603" lon="8.75673">
        <ele>613</ele>
        <time>2021-08-05T11:54:18.907Z</time>
      </trkpt>
      <trkpt lat="46.97603" lon="8.75673">
        <ele>613</ele>
        <time>2021-08-05T11:54:19.907Z</time>
      </trkpt>
      <trkpt lat="46.97603" lon="8.75672">
        <ele>614</ele>
        <time>2021-08-05T11:54:20.908Z</time>
      </trkpt>
      <trkpt lat="46.97603" lon="8.75672">
        <ele>614</ele>
        <time>2021-08-05T11:54:21.908Z</time>
      </trkpt>
      <trkpt lat="46.97604" lon="8.75671">
        <ele>614</ele>
        <time>2021-08-05T11:54:25.909Z</time>
      </trkpt>
      <trkpt lat="46.97604" lon="8.75671">
        <ele>614</ele>
        <time>2021-08-05T11:54:26.908Z</time>
      </trkpt>
      <trkpt lat="46.97604" lon="8.7567">
        <ele>614</ele>
        <time>2021-08-05T11:54:27.908Z</time>
      </trkpt>
      <trkpt lat="46.97604" lon="8.75673">
        <ele>614</ele>
        <time>2021-08-05T11:54:28.909Z</time>
      </trkpt>
      <trkpt lat="46.9759" lon="8.75659">
        <ele>613</ele>
        <time>2021-08-05T11:56:07.910Z</time>
      </trkpt>
      <trkpt lat="46.97595" lon="8.75662">
        <ele>613</ele>
        <time>2021-08-05T11:56:08.910Z</time>
      </trkpt>
      <trkpt lat="46.97596" lon="8.75664">
        <ele>612</ele>
        <time>2021-08-05T11:56:09.910Z</time>
      </trkpt>
      <trkpt lat="46.97597" lon="8.75665">
        <ele>612</ele>
        <time>2021-08-05T11:56:10.910Z</time>
      </trkpt>
      <trkpt lat="46.97598" lon="8.75665">
        <ele>611</ele>
        <time>2021-08-05T11:56:11.910Z</time>
      </trkpt>
      <trkpt lat="46.97599" lon="8.75665">
        <ele>611</ele>
        <time>2021-08-05T11:56:12.910Z</time>
      </trkpt>
      <trkpt lat="46.97599" lon="8.75665">
        <ele>611</ele>
        <time>2021-08-05T11:56:13.909Z</time>
      </trkpt>
      <trkpt lat="46.97601" lon="8.75664">
        <ele>611</ele>
        <time>2021-08-05T11:56:14.910Z</time>
      </trkpt>
      <trkpt lat="46.97601" lon="8.75664">
        <ele>611</ele>
        <time>2021-08-05T11:56:15.910Z</time>
      </trkpt>
      <trkpt lat="46.976" lon="8.75665">
        <ele>611</ele>
        <time>2021-08-05T11:56:16.910Z</time>
      </trkpt>
      <trkpt lat="46.97599" lon="8.75666">
        <ele>611</ele>
        <time>2021-08-05T11:56:17.909Z</time>
      </trkpt>
      <trkpt lat="46.97598" lon="8.75666">
        <ele>611</ele>
        <time>2021-08-05T11:56:18.910Z</time>
      </trkpt>
      <trkpt lat="46.97598" lon="8.75665">
        <ele>610</ele>
        <time>2021-08-05T11:56:19.909Z</time>
      </trkpt>
      <trkpt lat="46.97598" lon="8.75664">
        <ele>610</ele>
        <time>2021-08-05T11:56:20.909Z</time>
      </trkpt>
      <trkpt lat="46.97598" lon="8.75662">
        <ele>610</ele>
        <time>2021-08-05T11:56:21.910Z</time>
      </trkpt>
      <trkpt lat="46.97597" lon="8.75662">
        <ele>610</ele>
        <time>2021-08-05T11:56:22.910Z</time>
      </trkpt>
      <trkpt lat="46.97596" lon="8.75662">
        <ele>611</ele>
        <time>2021-08-05T11:56:23.910Z</time>
      </trkpt>
      <trkpt lat="46.97595" lon="8.75662">
        <ele>611</ele>
        <time>2021-08-05T11:56:24.910Z</time>
      </trkpt>
      <trkpt lat="46.97594" lon="8.75661">
        <ele>611</ele>
        <time>2021-08-05T11:56:25.909Z</time>
      </trkpt>
      <trkpt lat="46.97593" lon="8.7566">
        <ele>611</ele>
        <time>2021-08-05T11:56:26.910Z</time>
      </trkpt>
      <trkpt lat="46.97592" lon="8.75658">
        <ele>611</ele>
        <time>2021-08-05T11:56:27.910Z</time>
      </trkpt>
      <trkpt lat="46.97591" lon="8.75655">
        <ele>612</ele>
        <time>2021-08-05T11:56:28.910Z</time>
      </trkpt>
      <trkpt lat="46.97588" lon="8.75657">
        <ele>617</ele>
        <time>2021-08-05T11:56:29.909Z</time>
      </trkpt>
      <trkpt lat="46.97588" lon="8.75657">
        <ele>618</ele>
        <time>2021-08-05T11:56:30.909Z</time>
      </trkpt>
      <trkpt lat="46.97586" lon="8.75657">
        <ele>619</ele>
        <time>2021-08-05T11:56:31.909Z</time>
      </trkpt>
      <trkpt lat="46.97585" lon="8.75657">
        <ele>619</ele>
        <time>2021-08-05T11:56:32.909Z</time>
      </trkpt>
      <trkpt lat="46.97584" lon="8.75656">
        <ele>620</ele>
        <time>2021-08-05T11:56:33.909Z</time>
      </trkpt>
      <trkpt lat="46.97583" lon="8.75656">
        <ele>620</ele>
        <time>2021-08-05T11:56:34.909Z</time>
      </trkpt>
      <trkpt lat="46.97582" lon="8.75656">
        <ele>621</ele>
        <time>2021-08-05T11:56:35.909Z</time>
      </trkpt>
      <trkpt lat="46.97581" lon="8.75656">
        <ele>621</ele>
        <time>2021-08-05T11:56:36.909Z</time>
      </trkpt>
      <trkpt lat="46.9758" lon="8.75656">
        <ele>620</ele>
        <time>2021-08-05T11:56:37.909Z</time>
      </trkpt>
      <trkpt lat="46.9758" lon="8.75656">
        <ele>620</ele>
        <time>2021-08-05T11:56:38.909Z</time>
      </trkpt>
      <trkpt lat="46.97579" lon="8.75656">
        <ele>619</ele>
        <time>2021-08-05T11:56:39.909Z</time>
      </trkpt>
      <trkpt lat="46.97578" lon="8.75656">
        <ele>619</ele>
        <time>2021-08-05T11:56:40.909Z</time>
      </trkpt>
      <trkpt lat="46.97576" lon="8.75656">
        <ele>619</ele>
        <time>2021-08-05T11:56:41.909Z</time>
      </trkpt>
      <trkpt lat="46.97575" lon="8.75656">
        <ele>618</ele>
        <time>2021-08-05T11:56:42.909Z</time>
      </trkpt>
      <trkpt lat="46.97573" lon="8.75655">
        <ele>618</ele>
        <time>2021-08-05T11:56:43.909Z</time>
      </trkpt>
      <trkpt lat="46.97572" lon="8.75655">
        <ele>617</ele>
        <time>2021-08-05T11:56:44.909Z</time>
      </trkpt>
      <trkpt lat="46.97571" lon="8.75655">
        <ele>617</ele>
        <time>2021-08-05T11:56:45.909Z</time>
      </trkpt>
      <trkpt lat="46.9757" lon="8.75654">
        <ele>617</ele>
        <time>2021-08-05T11:56:46.909Z</time>
      </trkpt>
      <trkpt lat="46.97569" lon="8.75653">
        <ele>617</ele>
        <time>2021-08-05T11:56:47.909Z</time>
      </trkpt>
      <trkpt lat="46.97568" lon="8.75654">
        <ele>616</ele>
        <time>2021-08-05T11:56:48.909Z</time>
      </trkpt>
      <trkpt lat="46.97567" lon="8.75655">
        <ele>616</ele>
        <time>2021-08-05T11:56:49.909Z</time>
      </trkpt>
      <trkpt lat="46.97567" lon="8.75655">
        <ele>616</ele>
        <time>2021-08-05T11:56:50.909Z</time>
      </trkpt>
      <trkpt lat="46.97566" lon="8.75656">
        <ele>616</ele>
        <time>2021-08-05T11:56:51.909Z</time>
      </trkpt>
      <trkpt lat="46.97565" lon="8.75657">
        <ele>615</ele>
        <time>2021-08-05T11:56:52.909Z</time>
      </trkpt>
      <trkpt lat="46.97565" lon="8.75658">
        <ele>615</ele>
        <time>2021-08-05T11:56:53.909Z</time>
      </trkpt>
      <trkpt lat="46.97564" lon="8.75659">
        <ele>615</ele>
        <time>2021-08-05T11:56:54.909Z</time>
      </trkpt>
      <trkpt lat="46.97563" lon="8.7566">
        <ele>615</ele>
        <time>2021-08-05T11:56:55.909Z</time>
      </trkpt>
      <trkpt lat="46.97562" lon="8.7566">
        <ele>615</ele>
        <time>2021-08-05T11:56:56.909Z</time>
      </trkpt>
      <trkpt lat="46.97561" lon="8.7566">
        <ele>615</ele>
        <time>2021-08-05T11:56:57.909Z</time>
      </trkpt>
      <trkpt lat="46.9756" lon="8.7566">
        <ele>616</ele>
        <time>2021-08-05T11:56:58.909Z</time>
      </trkpt>
      <trkpt lat="46.97559" lon="8.75659">
        <ele>616</ele>
        <time>2021-08-05T11:56:59.909Z</time>
      </trkpt>
      <trkpt lat="46.97558" lon="8.75659">
        <ele>616</ele>
        <time>2021-08-05T11:57:00.909Z</time>
      </trkpt>
      <trkpt lat="46.97557" lon="8.75659">
        <ele>616</ele>
        <time>2021-08-05T11:57:01.909Z</time>
      </trkpt>
      <trkpt lat="46.97556" lon="8.75659">
        <ele>616</ele>
        <time>2021-08-05T11:57:02.909Z</time>
      </trkpt>
      <trkpt lat="46.97555" lon="8.75659">
        <ele>616</ele>
        <time>2021-08-05T11:57:03.909Z</time>
      </trkpt>
      <trkpt lat="46.97554" lon="8.7566">
        <ele>616</ele>
        <time>2021-08-05T11:57:04.909Z</time>
      </trkpt>
      <trkpt lat="46.97553" lon="8.7566">
        <ele>617</ele>
        <time>2021-08-05T11:57:05.909Z</time>
      </trkpt>
      <trkpt lat="46.97552" lon="8.75661">
        <ele>617</ele>
        <time>2021-08-05T11:57:06.909Z</time>
      </trkpt>
      <trkpt lat="46.97551" lon="8.75662">
        <ele>617</ele>
        <time>2021-08-05T11:57:07.909Z</time>
      </trkpt>
      <trkpt lat="46.9755" lon="8.75662">
        <ele>618</ele>
        <time>2021-08-05T11:57:08.909Z</time>
      </trkpt>
      <trkpt lat="46.97549" lon="8.75662">
        <ele>619</ele>
        <time>2021-08-05T11:57:09.909Z</time>
      </trkpt>
      <trkpt lat="46.97548" lon="8.75663">
        <ele>619</ele>
        <time>2021-08-05T11:57:10.909Z</time>
      </trkpt>
      <trkpt lat="46.97546" lon="8.75665">
        <ele>619</ele>
        <time>2021-08-05T11:57:11.909Z</time>
      </trkpt>
      <trkpt lat="46.97545" lon="8.75665">
        <ele>620</ele>
        <time>2021-08-05T11:57:12.909Z</time>
      </trkpt>
      <trkpt lat="46.97544" lon="8.75666">
        <ele>621</ele>
        <time>2021-08-05T11:57:13.909Z</time>
      </trkpt>
      <trkpt lat="46.97543" lon="8.75666">
        <ele>621</ele>
        <time>2021-08-05T11:57:14.909Z</time>
      </trkpt>
      <trkpt lat="46.97543" lon="8.75665">
        <ele>621</ele>
        <time>2021-08-05T11:57:15.909Z</time>
      </trkpt>
      <trkpt lat="46.97542" lon="8.75665">
        <ele>622</ele>
        <time>2021-08-05T11:57:16.909Z</time>
      </trkpt>
      <trkpt lat="46.97541" lon="8.75665">
        <ele>622</ele>
        <time>2021-08-05T11:57:17.909Z</time>
      </trkpt>
      <trkpt lat="46.9754" lon="8.75666">
        <ele>622</ele>
        <time>2021-08-05T11:57:18.909Z</time>
      </trkpt>
      <trkpt lat="46.97538" lon="8.75667">
        <ele>622</ele>
        <time>2021-08-05T11:57:19.909Z</time>
      </trkpt>
      <trkpt lat="46.97536" lon="8.75667">
        <ele>622</ele>
        <time>2021-08-05T11:57:20.909Z</time>
      </trkpt>
      <trkpt lat="46.97535" lon="8.75668">
        <ele>622</ele>
        <time>2021-08-05T11:57:21.909Z</time>
      </trkpt>
      <trkpt lat="46.97534" lon="8.75669">
        <ele>622</ele>
        <time>2021-08-05T11:57:22.909Z</time>
      </trkpt>
      <trkpt lat="46.97533" lon="8.7567">
        <ele>622</ele>
        <time>2021-08-05T11:57:23.909Z</time>
      </trkpt>
      <trkpt lat="46.97532" lon="8.75671">
        <ele>622</ele>
        <time>2021-08-05T11:57:24.909Z</time>
      </trkpt>
      <trkpt lat="46.97531" lon="8.75671">
        <ele>622</ele>
        <time>2021-08-05T11:57:25.909Z</time>
      </trkpt>
      <trkpt lat="46.9753" lon="8.75672">
        <ele>621</ele>
        <time>2021-08-05T11:57:26.909Z</time>
      </trkpt>
      <trkpt lat="46.97529" lon="8.75672">
        <ele>621</ele>
        <time>2021-08-05T11:57:27.909Z</time>
      </trkpt>
      <trkpt lat="46.97529" lon="8.75672">
        <ele>621</ele>
        <time>2021-08-05T11:57:28.909Z</time>
      </trkpt>
      <trkpt lat="46.97529" lon="8.75672">
        <ele>620</ele>
        <time>2021-08-05T11:57:29.909Z</time>
      </trkpt>
      <trkpt lat="46.97528" lon="8.75673">
        <ele>620</ele>
        <time>2021-08-05T11:57:30.909Z</time>
      </trkpt>
      <trkpt lat="46.9753" lon="8.75676">
        <ele>619</ele>
        <time>2021-08-05T11:57:31.909Z</time>
      </trkpt>
      <trkpt lat="46.97531" lon="8.75677">
        <ele>619</ele>
        <time>2021-08-05T11:57:32.909Z</time>
      </trkpt>
      <trkpt lat="46.97558" lon="8.75684">
        <ele>619</ele>
        <time>2021-08-05T12:10:33.473Z</time>
      </trkpt>
      <trkpt lat="46.97569" lon="8.75679">
        <ele>620</ele>
        <time>2021-08-05T12:10:34.473Z</time>
      </trkpt>
      <trkpt lat="46.97572" lon="8.75677">
        <ele>620</ele>
        <time>2021-08-05T12:10:35.473Z</time>
      </trkpt>
      <trkpt lat="46.9757" lon="8.75678">
        <ele>621</ele>
        <time>2021-08-05T12:10:36.473Z</time>
      </trkpt>
      <trkpt lat="46.97569" lon="8.75678">
        <ele>622</ele>
        <time>2021-08-05T12:10:37.473Z</time>
      </trkpt>
      <trkpt lat="46.97561" lon="8.75681">
        <ele>622</ele>
        <time>2021-08-05T12:10:38.473Z</time>
      </trkpt>
      <trkpt lat="46.97558" lon="8.75681">
        <ele>621</ele>
        <time>2021-08-05T12:10:39.473Z</time>
      </trkpt>
      <trkpt lat="46.97558" lon="8.7568">
        <ele>621</ele>
        <time>2021-08-05T12:10:40.473Z</time>
      </trkpt>
      <trkpt lat="46.97559" lon="8.75679">
        <ele>621</ele>
        <time>2021-08-05T12:10:41.473Z</time>
      </trkpt>
      <trkpt lat="46.97559" lon="8.75679">
        <ele>620</ele>
        <time>2021-08-05T12:10:42.473Z</time>
      </trkpt>
      <trkpt lat="46.97558" lon="8.75676">
        <ele>620</ele>
        <time>2021-08-05T12:10:43.473Z</time>
      </trkpt>
      <trkpt lat="46.97557" lon="8.75674">
        <ele>620</ele>
        <time>2021-08-05T12:10:44.473Z</time>
      </trkpt>
      <trkpt lat="46.97557" lon="8.75674">
        <ele>620</ele>
        <time>2021-08-05T12:10:45.473Z</time>
      </trkpt>
      <trkpt lat="46.97558" lon="8.75672">
        <ele>620</ele>
        <time>2021-08-05T12:10:46.473Z</time>
      </trkpt>
      <trkpt lat="46.97558" lon="8.7567">
        <ele>620</ele>
        <time>2021-08-05T12:10:47.473Z</time>
      </trkpt>
      <trkpt lat="46.97559" lon="8.75668">
        <ele>619</ele>
        <time>2021-08-05T12:10:48.473Z</time>
      </trkpt>
      <trkpt lat="46.97559" lon="8.75666">
        <ele>619</ele>
        <time>2021-08-05T12:10:49.473Z</time>
      </trkpt>
      <trkpt lat="46.9756" lon="8.75665">
        <ele>619</ele>
        <time>2021-08-05T12:10:50.473Z</time>
      </trkpt>
      <trkpt lat="46.9756" lon="8.75664">
        <ele>618</ele>
        <time>2021-08-05T12:10:51.473Z</time>
      </trkpt>
      <trkpt lat="46.97561" lon="8.75662">
        <ele>618</ele>
        <time>2021-08-05T12:10:52.473Z</time>
      </trkpt>
      <trkpt lat="46.97561" lon="8.75663">
        <ele>617</ele>
        <time>2021-08-05T12:10:53.473Z</time>
      </trkpt>
      <trkpt lat="46.97562" lon="8.75664">
        <ele>616</ele>
        <time>2021-08-05T12:10:54.473Z</time>
      </trkpt>
      <trkpt lat="46.97563" lon="8.75663">
        <ele>614</ele>
        <time>2021-08-05T12:10:55.473Z</time>
      </trkpt>
      <trkpt lat="46.97563" lon="8.75663">
        <ele>613</ele>
        <time>2021-08-05T12:10:56.473Z</time>
      </trkpt>
      <trkpt lat="46.97564" lon="8.75663">
        <ele>613</ele>
        <time>2021-08-05T12:10:57.473Z</time>
      </trkpt>
      <trkpt lat="46.97566" lon="8.75662">
        <ele>612</ele>
        <time>2021-08-05T12:10:58.474Z</time>
      </trkpt>
      <trkpt lat="46.97567" lon="8.75662">
        <ele>612</ele>
        <time>2021-08-05T12:10:59.474Z</time>
      </trkpt>
      <trkpt lat="46.97568" lon="8.75661">
        <ele>612</ele>
        <time>2021-08-05T12:11:00.473Z</time>
      </trkpt>
      <trkpt lat="46.97568" lon="8.7566">
        <ele>612</ele>
        <time>2021-08-05T12:11:01.474Z</time>
      </trkpt>
      <trkpt lat="46.97569" lon="8.7566">
        <ele>612</ele>
        <time>2021-08-05T12:11:02.474Z</time>
      </trkpt>
      <trkpt lat="46.9757" lon="8.75659">
        <ele>611</ele>
        <time>2021-08-05T12:11:03.474Z</time>
      </trkpt>
      <trkpt lat="46.97571" lon="8.7566">
        <ele>612</ele>
        <time>2021-08-05T12:11:04.473Z</time>
      </trkpt>
      <trkpt lat="46.97572" lon="8.75659">
        <ele>612</ele>
        <time>2021-08-05T12:11:05.474Z</time>
      </trkpt>
      <trkpt lat="46.97573" lon="8.75658">
        <ele>612</ele>
        <time>2021-08-05T12:11:06.473Z</time>
      </trkpt>
      <trkpt lat="46.97573" lon="8.75659">
        <ele>612</ele>
        <time>2021-08-05T12:11:07.474Z</time>
      </trkpt>
      <trkpt lat="46.97574" lon="8.75661">
        <ele>612</ele>
        <time>2021-08-05T12:11:08.474Z</time>
      </trkpt>
      <trkpt lat="46.97576" lon="8.75662">
        <ele>612</ele>
        <time>2021-08-05T12:11:09.474Z</time>
      </trkpt>
      <trkpt lat="46.97577" lon="8.75663">
        <ele>612</ele>
        <time>2021-08-05T12:11:10.474Z</time>
      </trkpt>
      <trkpt lat="46.97578" lon="8.75662">
        <ele>611</ele>
        <time>2021-08-05T12:11:11.473Z</time>
      </trkpt>
      <trkpt lat="46.97579" lon="8.75662">
        <ele>611</ele>
        <time>2021-08-05T12:11:12.474Z</time>
      </trkpt>
      <trkpt lat="46.9758" lon="8.75661">
        <ele>611</ele>
        <time>2021-08-05T12:11:13.474Z</time>
      </trkpt>
      <trkpt lat="46.97581" lon="8.75661">
        <ele>611</ele>
        <time>2021-08-05T12:11:14.473Z</time>
      </trkpt>
      <trkpt lat="46.97583" lon="8.75661">
        <ele>612</ele>
        <time>2021-08-05T12:11:15.473Z</time>
      </trkpt>
      <trkpt lat="46.97584" lon="8.75661">
        <ele>612</ele>
        <time>2021-08-05T12:11:16.474Z</time>
      </trkpt>
      <trkpt lat="46.97585" lon="8.75662">
        <ele>613</ele>
        <time>2021-08-05T12:11:17.474Z</time>
      </trkpt>
      <trkpt lat="46.97585" lon="8.75663">
        <ele>613</ele>
        <time>2021-08-05T12:11:18.474Z</time>
      </trkpt>
      <trkpt lat="46.97586" lon="8.75664">
        <ele>613</ele>
        <time>2021-08-05T12:11:19.474Z</time>
      </trkpt>
      <trkpt lat="46.97587" lon="8.75665">
        <ele>614</ele>
        <time>2021-08-05T12:11:20.474Z</time>
      </trkpt>
      <trkpt lat="46.97588" lon="8.75667">
        <ele>614</ele>
        <time>2021-08-05T12:11:21.474Z</time>
      </trkpt>
      <trkpt lat="46.97589" lon="8.75668">
        <ele>615</ele>
        <time>2021-08-05T12:11:22.474Z</time>
      </trkpt>
      <trkpt lat="46.9759" lon="8.7567">
        <ele>615</ele>
        <time>2021-08-05T12:11:23.474Z</time>
      </trkpt>
      <trkpt lat="46.9759" lon="8.75671">
        <ele>616</ele>
        <time>2021-08-05T12:11:24.474Z</time>
      </trkpt>
      <trkpt lat="46.9759" lon="8.75673">
        <ele>617</ele>
        <time>2021-08-05T12:11:25.473Z</time>
      </trkpt>
      <trkpt lat="46.9759" lon="8.75675">
        <ele>617</ele>
        <time>2021-08-05T12:11:26.473Z</time>
      </trkpt>
      <trkpt lat="46.9759" lon="8.75676">
        <ele>616</ele>
        <time>2021-08-05T12:11:27.473Z</time>
      </trkpt>
      <trkpt lat="46.9759" lon="8.75676">
        <ele>616</ele>
        <time>2021-08-05T12:11:28.473Z</time>
      </trkpt>
      <trkpt lat="46.97591" lon="8.75676">
        <ele>616</ele>
        <time>2021-08-05T12:11:29.474Z</time>
      </trkpt>
      <trkpt lat="46.9759" lon="8.75675">
        <ele>616</ele>
        <time>2021-08-05T12:11:30.474Z</time>
      </trkpt>
      <trkpt lat="46.97589" lon="8.75677">
        <ele>611</ele>
        <time>2021-08-05T12:11:31.475Z</time>
      </trkpt>
      <trkpt lat="46.97589" lon="8.75679">
        <ele>610</ele>
        <time>2021-08-05T12:11:32.475Z</time>
      </trkpt>
      <trkpt lat="46.9759" lon="8.75681">
        <ele>609</ele>
        <time>2021-08-05T12:11:33.474Z</time>
      </trkpt>
      <trkpt lat="46.9759" lon="8.75683">
        <ele>609</ele>
        <time>2021-08-05T12:11:34.475Z</time>
      </trkpt>
      <trkpt lat="46.9759" lon="8.75685">
        <ele>609</ele>
        <time>2021-08-05T12:11:35.475Z</time>
      </trkpt>
      <trkpt lat="46.9759" lon="8.75687">
        <ele>609</ele>
        <time>2021-08-05T12:11:36.475Z</time>
      </trkpt>
      <trkpt lat="46.9759" lon="8.7569">
        <ele>609</ele>
        <time>2021-08-05T12:11:37.475Z</time>
      </trkpt>
      <trkpt lat="46.9759" lon="8.75691">
        <ele>610</ele>
        <time>2021-08-05T12:11:38.475Z</time>
      </trkpt>
      <trkpt lat="46.9759" lon="8.75694">
        <ele>611</ele>
        <time>2021-08-05T12:11:39.475Z</time>
      </trkpt>
      <trkpt lat="46.9759" lon="8.75695">
        <ele>611</ele>
        <time>2021-08-05T12:11:40.475Z</time>
      </trkpt>
      <trkpt lat="46.9759" lon="8.75698">
        <ele>612</ele>
        <time>2021-08-05T12:11:41.475Z</time>
      </trkpt>
      <trkpt lat="46.9759" lon="8.75699">
        <ele>612</ele>
        <time>2021-08-05T12:11:42.475Z</time>
      </trkpt>
      <trkpt lat="46.9759" lon="8.757">
        <ele>612</ele>
        <time>2021-08-05T12:11:43.475Z</time>
      </trkpt>
      <trkpt lat="46.9759" lon="8.75701">
        <ele>612</ele>
        <time>2021-08-05T12:11:44.475Z</time>
      </trkpt>
      <trkpt lat="46.9759" lon="8.75701">
        <ele>612</ele>
        <time>2021-08-05T12:11:45.475Z</time>
      </trkpt>
      <trkpt lat="46.9759" lon="8.75702">
        <ele>611</ele>
        <time>2021-08-05T12:11:46.474Z</time>
      </trkpt>
      <trkpt lat="46.9759" lon="8.75704">
        <ele>611</ele>
        <time>2021-08-05T12:11:47.475Z</time>
      </trkpt>
      <trkpt lat="46.97589" lon="8.75704">
        <ele>610</ele>
        <time>2021-08-05T12:11:48.475Z</time>
      </trkpt>
      <trkpt lat="46.97589" lon="8.75705">
        <ele>610</ele>
        <time>2021-08-05T12:11:49.474Z</time>
      </trkpt>
      <trkpt lat="46.97588" lon="8.75707">
        <ele>610</ele>
        <time>2021-08-05T12:11:50.475Z</time>
      </trkpt>
      <trkpt lat="46.97588" lon="8.75708">
        <ele>610</ele>
        <time>2021-08-05T12:11:51.474Z</time>
      </trkpt>
      <trkpt lat="46.97587" lon="8.75709">
        <ele>610</ele>
        <time>2021-08-05T12:11:52.475Z</time>
      </trkpt>
      <trkpt lat="46.97587" lon="8.7571">
        <ele>610</ele>
        <time>2021-08-05T12:11:53.475Z</time>
      </trkpt>
      <trkpt lat="46.97586" lon="8.75711">
        <ele>611</ele>
        <time>2021-08-05T12:11:54.475Z</time>
      </trkpt>
      <trkpt lat="46.97586" lon="8.75712">
        <ele>611</ele>
        <time>2021-08-05T12:11:55.475Z</time>
      </trkpt>
      <trkpt lat="46.97585" lon="8.75713">
        <ele>612</ele>
        <time>2021-08-05T12:11:56.474Z</time>
      </trkpt>
      <trkpt lat="46.97584" lon="8.75714">
        <ele>612</ele>
        <time>2021-08-05T12:11:57.475Z</time>
      </trkpt>
      <trkpt lat="46.97584" lon="8.75715">
        <ele>613</ele>
        <time>2021-08-05T12:11:58.474Z</time>
      </trkpt>
      <trkpt lat="46.97583" lon="8.75716">
        <ele>614</ele>
        <time>2021-08-05T12:11:59.474Z</time>
      </trkpt>
      <trkpt lat="46.97583" lon="8.75717">
        <ele>614</ele>
        <time>2021-08-05T12:12:00.474Z</time>
      </trkpt>
      <trkpt lat="46.97582" lon="8.75719">
        <ele>614</ele>
        <time>2021-08-05T12:12:01.475Z</time>
      </trkpt>
      <trkpt lat="46.97582" lon="8.75719">
        <ele>614</ele>
        <time>2021-08-05T12:12:04.554Z</time>
      </trkpt>
      <trkpt lat="46.97581" lon="8.75721">
        <ele>613</ele>
        <time>2021-08-05T12:12:05.555Z</time>
      </trkpt>
      <trkpt lat="46.97581" lon="8.75721">
        <ele>613</ele>
        <time>2021-08-05T12:12:06.554Z</time>
      </trkpt>
      <trkpt lat="46.9758" lon="8.75722">
        <ele>613</ele>
        <time>2021-08-05T12:12:07.554Z</time>
      </trkpt>
      <trkpt lat="46.9758" lon="8.75724">
        <ele>613</ele>
        <time>2021-08-05T12:12:08.554Z</time>
      </trkpt>
      <trkpt lat="46.97579" lon="8.75726">
        <ele>613</ele>
        <time>2021-08-05T12:12:09.555Z</time>
      </trkpt>
      <trkpt lat="46.97579" lon="8.75727">
        <ele>613</ele>
        <time>2021-08-05T12:12:10.555Z</time>
      </trkpt>
      <trkpt lat="46.97578" lon="8.75729">
        <ele>613</ele>
        <time>2021-08-05T12:12:11.555Z</time>
      </trkpt>
      <trkpt lat="46.97578" lon="8.7573">
        <ele>612</ele>
        <time>2021-08-05T12:12:12.555Z</time>
      </trkpt>
      <trkpt lat="46.97578" lon="8.75731">
        <ele>612</ele>
        <time>2021-08-05T12:12:13.555Z</time>
      </trkpt>
      <trkpt lat="46.97578" lon="8.75732">
        <ele>612</ele>
        <time>2021-08-05T12:12:14.554Z</time>
      </trkpt>
      <trkpt lat="46.97578" lon="8.75733">
        <ele>612</ele>
        <time>2021-08-05T12:12:15.554Z</time>
      </trkpt>
      <trkpt lat="46.97578" lon="8.75735">
        <ele>612</ele>
        <time>2021-08-05T12:12:16.554Z</time>
      </trkpt>
      <trkpt lat="46.97577" lon="8.75737">
        <ele>612</ele>
        <time>2021-08-05T12:12:17.554Z</time>
      </trkpt>
      <trkpt lat="46.97577" lon="8.75738">
        <ele>612</ele>
        <time>2021-08-05T12:12:18.555Z</time>
      </trkpt>
      <trkpt lat="46.97577" lon="8.7574">
        <ele>611</ele>
        <time>2021-08-05T12:12:19.555Z</time>
      </trkpt>
      <trkpt lat="46.97577" lon="8.7574">
        <ele>611</ele>
        <time>2021-08-05T12:12:20.555Z</time>
      </trkpt>
      <trkpt lat="46.97577" lon="8.75741">
        <ele>610</ele>
        <time>2021-08-05T12:12:21.554Z</time>
      </trkpt>
      <trkpt lat="46.97577" lon="8.75742">
        <ele>610</ele>
        <time>2021-08-05T12:12:22.555Z</time>
      </trkpt>
      <trkpt lat="46.97576" lon="8.75743">
        <ele>609</ele>
        <time>2021-08-05T12:12:23.555Z</time>
      </trkpt>
      <trkpt lat="46.97576" lon="8.75745">
        <ele>609</ele>
        <time>2021-08-05T12:12:24.554Z</time>
      </trkpt>
      <trkpt lat="46.97576" lon="8.75746">
        <ele>609</ele>
        <time>2021-08-05T12:12:25.554Z</time>
      </trkpt>
      <trkpt lat="46.97576" lon="8.75747">
        <ele>609</ele>
        <time>2021-08-05T12:12:26.555Z</time>
      </trkpt>
      <trkpt lat="46.97575" lon="8.75748">
        <ele>609</ele>
        <time>2021-08-05T12:12:27.555Z</time>
      </trkpt>
      <trkpt lat="46.97575" lon="8.7575">
        <ele>609</ele>
        <time>2021-08-05T12:12:28.555Z</time>
      </trkpt>
      <trkpt lat="46.97574" lon="8.75751">
        <ele>609</ele>
        <time>2021-08-05T12:12:29.554Z</time>
      </trkpt>
      <trkpt lat="46.97574" lon="8.75753">
        <ele>609</ele>
        <time>2021-08-05T12:12:30.554Z</time>
      </trkpt>
      <trkpt lat="46.97573" lon="8.75754">
        <ele>610</ele>
        <time>2021-08-05T12:12:31.554Z</time>
      </trkpt>
      <trkpt lat="46.97573" lon="8.75755">
        <ele>610</ele>
        <time>2021-08-05T12:12:34.677Z</time>
      </trkpt>
      <trkpt lat="46.97573" lon="8.75756">
        <ele>611</ele>
        <time>2021-08-05T12:12:35.678Z</time>
      </trkpt>
      <trkpt lat="46.97572" lon="8.75757">
        <ele>612</ele>
        <time>2021-08-05T12:12:36.678Z</time>
      </trkpt>
      <trkpt lat="46.97572" lon="8.75758">
        <ele>612</ele>
        <time>2021-08-05T12:12:37.678Z</time>
      </trkpt>
      <trkpt lat="46.97572" lon="8.75758">
        <ele>612</ele>
        <time>2021-08-05T12:12:38.678Z</time>
      </trkpt>
      <trkpt lat="46.97572" lon="8.75759">
        <ele>613</ele>
        <time>2021-08-05T12:12:39.677Z</time>
      </trkpt>
      <trkpt lat="46.97572" lon="8.7576">
        <ele>613</ele>
        <time>2021-08-05T12:12:40.677Z</time>
      </trkpt>
      <trkpt lat="46.97572" lon="8.75761">
        <ele>613</ele>
        <time>2021-08-05T12:12:41.678Z</time>
      </trkpt>
      <trkpt lat="46.97572" lon="8.75762">
        <ele>613</ele>
        <time>2021-08-05T12:12:42.677Z</time>
      </trkpt>
      <trkpt lat="46.97572" lon="8.75763">
        <ele>614</ele>
        <time>2021-08-05T12:12:43.677Z</time>
      </trkpt>
      <trkpt lat="46.97572" lon="8.75765">
        <ele>614</ele>
        <time>2021-08-05T12:12:44.678Z</time>
      </trkpt>
      <trkpt lat="46.97571" lon="8.75766">
        <ele>615</ele>
        <time>2021-08-05T12:12:45.678Z</time>
      </trkpt>
      <trkpt lat="46.97571" lon="8.75767">
        <ele>615</ele>
        <time>2021-08-05T12:12:46.677Z</time>
      </trkpt>
      <trkpt lat="46.97571" lon="8.75769">
        <ele>616</ele>
        <time>2021-08-05T12:12:47.677Z</time>
      </trkpt>
      <trkpt lat="46.97571" lon="8.75771">
        <ele>616</ele>
        <time>2021-08-05T12:12:48.678Z</time>
      </trkpt>
      <trkpt lat="46.97572" lon="8.75773">
        <ele>616</ele>
        <time>2021-08-05T12:12:49.677Z</time>
      </trkpt>
      <trkpt lat="46.97572" lon="8.75775">
        <ele>616</ele>
        <time>2021-08-05T12:12:50.678Z</time>
      </trkpt>
      <trkpt lat="46.97572" lon="8.75776">
        <ele>617</ele>
        <time>2021-08-05T12:12:51.677Z</time>
      </trkpt>
      <trkpt lat="46.97571" lon="8.75778">
        <ele>617</ele>
        <time>2021-08-05T12:12:52.677Z</time>
      </trkpt>
      <trkpt lat="46.97571" lon="8.75779">
        <ele>617</ele>
        <time>2021-08-05T12:12:53.678Z</time>
      </trkpt>
      <trkpt lat="46.9757" lon="8.75781">
        <ele>617</ele>
        <time>2021-08-05T12:12:54.677Z</time>
      </trkpt>
      <trkpt lat="46.9757" lon="8.75782">
        <ele>617</ele>
        <time>2021-08-05T12:12:55.678Z</time>
      </trkpt>
      <trkpt lat="46.9757" lon="8.75784">
        <ele>616</ele>
        <time>2021-08-05T12:12:56.677Z</time>
      </trkpt>
      <trkpt lat="46.97569" lon="8.75785">
        <ele>616</ele>
        <time>2021-08-05T12:12:57.678Z</time>
      </trkpt>
      <trkpt lat="46.97568" lon="8.75787">
        <ele>616</ele>
        <time>2021-08-05T12:12:58.677Z</time>
      </trkpt>
      <trkpt lat="46.97568" lon="8.75788">
        <ele>616</ele>
        <time>2021-08-05T12:12:59.677Z</time>
      </trkpt>
      <trkpt lat="46.97568" lon="8.75789">
        <ele>616</ele>
        <time>2021-08-05T12:13:00.677Z</time>
      </trkpt>
      <trkpt lat="46.97568" lon="8.75788">
        <ele>617</ele>
        <time>2021-08-05T12:13:01.678Z</time>
      </trkpt>
      <trkpt lat="46.97567" lon="8.75788">
        <ele>616</ele>
        <time>2021-08-05T12:13:02.678Z</time>
      </trkpt>
      <trkpt lat="46.97567" lon="8.7579">
        <ele>616</ele>
        <time>2021-08-05T12:13:03.677Z</time>
      </trkpt>
      <trkpt lat="46.97566" lon="8.75791">
        <ele>616</ele>
        <time>2021-08-05T12:13:04.677Z</time>
      </trkpt>
      <trkpt lat="46.97566" lon="8.75793">
        <ele>616</ele>
        <time>2021-08-05T12:13:05.677Z</time>
      </trkpt>
      <trkpt lat="46.97566" lon="8.75795">
        <ele>615</ele>
        <time>2021-08-05T12:13:06.678Z</time>
      </trkpt>
      <trkpt lat="46.97565" lon="8.75796">
        <ele>615</ele>
        <time>2021-08-05T12:13:07.678Z</time>
      </trkpt>
      <trkpt lat="46.97565" lon="8.75798">
        <ele>615</ele>
        <time>2021-08-05T12:13:08.678Z</time>
      </trkpt>
      <trkpt lat="46.97564" lon="8.75799">
        <ele>615</ele>
        <time>2021-08-05T12:13:09.677Z</time>
      </trkpt>
      <trkpt lat="46.97564" lon="8.75801">
        <ele>615</ele>
        <time>2021-08-05T12:13:10.678Z</time>
      </trkpt>
      <trkpt lat="46.97564" lon="8.75802">
        <ele>615</ele>
        <time>2021-08-05T12:13:11.677Z</time>
      </trkpt>
      <trkpt lat="46.97564" lon="8.75804">
        <ele>614</ele>
        <time>2021-08-05T12:13:12.677Z</time>
      </trkpt>
      <trkpt lat="46.97563" lon="8.75805">
        <ele>614</ele>
        <time>2021-08-05T12:13:13.678Z</time>
      </trkpt>
      <trkpt lat="46.97563" lon="8.75806">
        <ele>613</ele>
        <time>2021-08-05T12:13:14.677Z</time>
      </trkpt>
      <trkpt lat="46.97563" lon="8.75807">
        <ele>613</ele>
        <time>2021-08-05T12:13:15.677Z</time>
      </trkpt>
      <trkpt lat="46.97562" lon="8.75808">
        <ele>613</ele>
        <time>2021-08-05T12:13:16.678Z</time>
      </trkpt>
      <trkpt lat="46.97562" lon="8.7581">
        <ele>613</ele>
        <time>2021-08-05T12:13:17.678Z</time>
      </trkpt>
      <trkpt lat="46.97562" lon="8.75812">
        <ele>613</ele>
        <time>2021-08-05T12:13:18.678Z</time>
      </trkpt>
      <trkpt lat="46.97561" lon="8.75813">
        <ele>613</ele>
        <time>2021-08-05T12:13:19.677Z</time>
      </trkpt>
      <trkpt lat="46.97561" lon="8.75815">
        <ele>614</ele>
        <time>2021-08-05T12:13:20.678Z</time>
      </trkpt>
      <trkpt lat="46.97561" lon="8.75817">
        <ele>614</ele>
        <time>2021-08-05T12:13:21.678Z</time>
      </trkpt>
      <trkpt lat="46.9756" lon="8.75818">
        <ele>614</ele>
        <time>2021-08-05T12:13:22.678Z</time>
      </trkpt>
      <trkpt lat="46.9756" lon="8.7582">
        <ele>614</ele>
        <time>2021-08-05T12:13:23.677Z</time>
      </trkpt>
      <trkpt lat="46.9756" lon="8.75821">
        <ele>615</ele>
        <time>2021-08-05T12:13:24.677Z</time>
      </trkpt>
      <trkpt lat="46.9756" lon="8.75822">
        <ele>615</ele>
        <time>2021-08-05T12:13:25.678Z</time>
      </trkpt>
      <trkpt lat="46.97559" lon="8.75824">
        <ele>615</ele>
        <time>2021-08-05T12:13:26.678Z</time>
      </trkpt>
      <trkpt lat="46.97559" lon="8.75826">
        <ele>614</ele>
        <time>2021-08-05T12:13:27.677Z</time>
      </trkpt>
      <trkpt lat="46.97559" lon="8.75828">
        <ele>614</ele>
        <time>2021-08-05T12:13:28.678Z</time>
      </trkpt>
      <trkpt lat="46.97559" lon="8.75829">
        <ele>613</ele>
        <time>2021-08-05T12:13:29.677Z</time>
      </trkpt>
      <trkpt lat="46.97559" lon="8.75831">
        <ele>613</ele>
        <time>2021-08-05T12:13:30.678Z</time>
      </trkpt>
      <trkpt lat="46.97558" lon="8.75832">
        <ele>614</ele>
        <time>2021-08-05T12:13:31.677Z</time>
      </trkpt>
      <trkpt lat="46.97557" lon="8.75834">
        <ele>614</ele>
        <time>2021-08-05T12:13:32.678Z</time>
      </trkpt>
      <trkpt lat="46.97557" lon="8.75836">
        <ele>614</ele>
        <time>2021-08-05T12:13:33.678Z</time>
      </trkpt>
      <trkpt lat="46.97557" lon="8.75838">
        <ele>614</ele>
        <time>2021-08-05T12:13:34.678Z</time>
      </trkpt>
      <trkpt lat="46.97557" lon="8.75839">
        <ele>613</ele>
        <time>2021-08-05T12:13:35.678Z</time>
      </trkpt>
      <trkpt lat="46.97557" lon="8.75841">
        <ele>613</ele>
        <time>2021-08-05T12:13:36.678Z</time>
      </trkpt>
      <trkpt lat="46.97556" lon="8.75842">
        <ele>612</ele>
        <time>2021-08-05T12:13:37.677Z</time>
      </trkpt>
      <trkpt lat="46.97556" lon="8.75843">
        <ele>612</ele>
        <time>2021-08-05T12:13:38.678Z</time>
      </trkpt>
      <trkpt lat="46.97557" lon="8.75844">
        <ele>612</ele>
        <time>2021-08-05T12:13:39.678Z</time>
      </trkpt>
      <trkpt lat="46.97557" lon="8.75845">
        <ele>612</ele>
        <time>2021-08-05T12:13:40.677Z</time>
      </trkpt>
      <trkpt lat="46.97557" lon="8.75846">
        <ele>612</ele>
        <time>2021-08-05T12:13:41.678Z</time>
      </trkpt>
      <trkpt lat="46.97556" lon="8.75848">
        <ele>612</ele>
        <time>2021-08-05T12:13:42.677Z</time>
      </trkpt>
      <trkpt lat="46.97556" lon="8.75849">
        <ele>613</ele>
        <time>2021-08-05T12:13:43.677Z</time>
      </trkpt>
      <trkpt lat="46.97556" lon="8.7585">
        <ele>613</ele>
        <time>2021-08-05T12:13:44.678Z</time>
      </trkpt>
      <trkpt lat="46.97556" lon="8.75851">
        <ele>613</ele>
        <time>2021-08-05T12:13:45.677Z</time>
      </trkpt>
      <trkpt lat="46.97556" lon="8.75851">
        <ele>613</ele>
        <time>2021-08-05T12:13:46.678Z</time>
      </trkpt>
      <trkpt lat="46.97556" lon="8.75852">
        <ele>613</ele>
        <time>2021-08-05T12:13:47.678Z</time>
      </trkpt>
      <trkpt lat="46.97555" lon="8.75854">
        <ele>613</ele>
        <time>2021-08-05T12:13:48.677Z</time>
      </trkpt>
      <trkpt lat="46.97554" lon="8.75856">
        <ele>613</ele>
        <time>2021-08-05T12:13:49.678Z</time>
      </trkpt>
      <trkpt lat="46.97554" lon="8.75858">
        <ele>613</ele>
        <time>2021-08-05T12:13:50.677Z</time>
      </trkpt>
      <trkpt lat="46.97554" lon="8.75859">
        <ele>613</ele>
        <time>2021-08-05T12:13:51.677Z</time>
      </trkpt>
      <trkpt lat="46.97553" lon="8.7586">
        <ele>613</ele>
        <time>2021-08-05T12:13:52.678Z</time>
      </trkpt>
      <trkpt lat="46.97552" lon="8.75861">
        <ele>614</ele>
        <time>2021-08-05T12:13:53.678Z</time>
      </trkpt>
      <trkpt lat="46.97551" lon="8.75861">
        <ele>614</ele>
        <time>2021-08-05T12:13:54.677Z</time>
      </trkpt>
      <trkpt lat="46.97551" lon="8.75861">
        <ele>615</ele>
        <time>2021-08-05T12:13:55.677Z</time>
      </trkpt>
      <trkpt lat="46.9755" lon="8.75862">
        <ele>615</ele>
        <time>2021-08-05T12:13:56.678Z</time>
      </trkpt>
      <trkpt lat="46.9755" lon="8.75862">
        <ele>615</ele>
        <time>2021-08-05T12:13:57.678Z</time>
      </trkpt>
      <trkpt lat="46.97551" lon="8.75863">
        <ele>614</ele>
        <time>2021-08-05T12:13:58.679Z</time>
      </trkpt>
      <trkpt lat="46.9755" lon="8.75864">
        <ele>613</ele>
        <time>2021-08-05T12:13:59.678Z</time>
      </trkpt>
      <trkpt lat="46.9755" lon="8.75865">
        <ele>613</ele>
        <time>2021-08-05T12:14:00.678Z</time>
      </trkpt>
      <trkpt lat="46.9755" lon="8.75867">
        <ele>613</ele>
        <time>2021-08-05T12:14:06.792Z</time>
      </trkpt>
      <trkpt lat="46.9755" lon="8.75868">
        <ele>612</ele>
        <time>2021-08-05T12:14:07.792Z</time>
      </trkpt>
      <trkpt lat="46.9755" lon="8.7587">
        <ele>612</ele>
        <time>2021-08-05T12:14:08.791Z</time>
      </trkpt>
      <trkpt lat="46.9755" lon="8.75871">
        <ele>612</ele>
        <time>2021-08-05T12:14:09.791Z</time>
      </trkpt>
      <trkpt lat="46.9755" lon="8.75873">
        <ele>612</ele>
        <time>2021-08-05T12:14:10.792Z</time>
      </trkpt>
      <trkpt lat="46.97549" lon="8.75874">
        <ele>612</ele>
        <time>2021-08-05T12:14:11.792Z</time>
      </trkpt>
      <trkpt lat="46.97549" lon="8.75875">
        <ele>612</ele>
        <time>2021-08-05T12:14:12.792Z</time>
      </trkpt>
      <trkpt lat="46.97549" lon="8.75876">
        <ele>612</ele>
        <time>2021-08-05T12:14:13.791Z</time>
      </trkpt>
      <trkpt lat="46.97549" lon="8.75878">
        <ele>611</ele>
        <time>2021-08-05T12:14:14.792Z</time>
      </trkpt>
      <trkpt lat="46.97548" lon="8.75879">
        <ele>611</ele>
        <time>2021-08-05T12:14:15.791Z</time>
      </trkpt>
      <trkpt lat="46.97548" lon="8.7588">
        <ele>611</ele>
        <time>2021-08-05T12:14:16.792Z</time>
      </trkpt>
      <trkpt lat="46.97548" lon="8.75882">
        <ele>610</ele>
        <time>2021-08-05T12:14:17.791Z</time>
      </trkpt>
      <trkpt lat="46.97549" lon="8.75883">
        <ele>610</ele>
        <time>2021-08-05T12:14:18.791Z</time>
      </trkpt>
      <trkpt lat="46.97548" lon="8.75884">
        <ele>609</ele>
        <time>2021-08-05T12:14:40.943Z</time>
      </trkpt>
      <trkpt lat="46.97548" lon="8.75886">
        <ele>609</ele>
        <time>2021-08-05T12:14:41.942Z</time>
      </trkpt>
      <trkpt lat="46.97548" lon="8.75888">
        <ele>608</ele>
        <time>2021-08-05T12:14:42.943Z</time>
      </trkpt>
      <trkpt lat="46.97547" lon="8.75891">
        <ele>608</ele>
        <time>2021-08-05T12:14:43.942Z</time>
      </trkpt>
      <trkpt lat="46.97547" lon="8.75892">
        <ele>608</ele>
        <time>2021-08-05T12:14:44.943Z</time>
      </trkpt>
      <trkpt lat="46.97547" lon="8.75894">
        <ele>608</ele>
        <time>2021-08-05T12:14:45.943Z</time>
      </trkpt>
      <trkpt lat="46.97546" lon="8.75896">
        <ele>608</ele>
        <time>2021-08-05T12:14:46.942Z</time>
      </trkpt>
      <trkpt lat="46.97545" lon="8.75899">
        <ele>608</ele>
        <time>2021-08-05T12:14:47.943Z</time>
      </trkpt>
      <trkpt lat="46.97544" lon="8.75903">
        <ele>608</ele>
        <time>2021-08-05T12:14:48.943Z</time>
      </trkpt>
      <trkpt lat="46.97543" lon="8.75904">
        <ele>608</ele>
        <time>2021-08-05T12:14:49.942Z</time>
      </trkpt>
      <trkpt lat="46.97543" lon="8.75906">
        <ele>609</ele>
        <time>2021-08-05T12:14:50.943Z</time>
      </trkpt>
      <trkpt lat="46.97543" lon="8.75908">
        <ele>609</ele>
        <time>2021-08-05T12:14:51.942Z</time>
      </trkpt>
      <trkpt lat="46.97542" lon="8.75909">
        <ele>609</ele>
        <time>2021-08-05T12:14:52.942Z</time>
      </trkpt>
      <trkpt lat="46.97542" lon="8.7591">
        <ele>609</ele>
        <time>2021-08-05T12:14:53.942Z</time>
      </trkpt>
      <trkpt lat="46.97542" lon="8.75912">
        <ele>608</ele>
        <time>2021-08-05T12:14:54.943Z</time>
      </trkpt>
      <trkpt lat="46.97542" lon="8.75913">
        <ele>608</ele>
        <time>2021-08-05T12:14:55.942Z</time>
      </trkpt>
      <trkpt lat="46.97541" lon="8.75915">
        <ele>609</ele>
        <time>2021-08-05T12:14:56.942Z</time>
      </trkpt>
      <trkpt lat="46.97541" lon="8.75917">
        <ele>609</ele>
        <time>2021-08-05T12:14:57.942Z</time>
      </trkpt>
      <trkpt lat="46.9754" lon="8.75918">
        <ele>610</ele>
        <time>2021-08-05T12:14:58.943Z</time>
      </trkpt>
      <trkpt lat="46.97539" lon="8.7592">
        <ele>610</ele>
        <time>2021-08-05T12:14:59.942Z</time>
      </trkpt>
      <trkpt lat="46.97538" lon="8.75922">
        <ele>610</ele>
        <time>2021-08-05T12:15:00.943Z</time>
      </trkpt>
      <trkpt lat="46.97538" lon="8.75923">
        <ele>610</ele>
        <time>2021-08-05T12:15:01.943Z</time>
      </trkpt>
      <trkpt lat="46.97538" lon="8.75924">
        <ele>611</ele>
        <time>2021-08-05T12:15:02.942Z</time>
      </trkpt>
      <trkpt lat="46.97537" lon="8.75926">
        <ele>611</ele>
        <time>2021-08-05T12:15:03.943Z</time>
      </trkpt>
      <trkpt lat="46.97537" lon="8.75928">
        <ele>612</ele>
        <time>2021-08-05T12:15:04.943Z</time>
      </trkpt>
      <trkpt lat="46.97536" lon="8.7593">
        <ele>612</ele>
        <time>2021-08-05T12:15:05.942Z</time>
      </trkpt>
      <trkpt lat="46.97536" lon="8.75931">
        <ele>612</ele>
        <time>2021-08-05T12:15:06.942Z</time>
      </trkpt>
      <trkpt lat="46.97535" lon="8.75934">
        <ele>611</ele>
        <time>2021-08-05T12:15:07.943Z</time>
      </trkpt>
      <trkpt lat="46.97535" lon="8.75935">
        <ele>611</ele>
        <time>2021-08-05T12:15:08.943Z</time>
      </trkpt>
      <trkpt lat="46.97535" lon="8.75937">
        <ele>612</ele>
        <time>2021-08-05T12:15:09.942Z</time>
      </trkpt>
      <trkpt lat="46.97535" lon="8.75938">
        <ele>612</ele>
        <time>2021-08-05T12:15:10.943Z</time>
      </trkpt>
      <trkpt lat="46.97535" lon="8.75939">
        <ele>612</ele>
        <time>2021-08-05T12:15:11.943Z</time>
      </trkpt>
      <trkpt lat="46.97535" lon="8.7594">
        <ele>612</ele>
        <time>2021-08-05T12:15:12.943Z</time>
      </trkpt>
      <trkpt lat="46.97534" lon="8.75941">
        <ele>611</ele>
        <time>2021-08-05T12:15:13.943Z</time>
      </trkpt>
      <trkpt lat="46.97533" lon="8.75943">
        <ele>611</ele>
        <time>2021-08-05T12:15:14.943Z</time>
      </trkpt>
      <trkpt lat="46.97532" lon="8.75944">
        <ele>611</ele>
        <time>2021-08-05T12:15:15.943Z</time>
      </trkpt>
      <trkpt lat="46.97532" lon="8.75946">
        <ele>610</ele>
        <time>2021-08-05T12:15:16.942Z</time>
      </trkpt>
      <trkpt lat="46.97532" lon="8.75947">
        <ele>610</ele>
        <time>2021-08-05T12:15:17.942Z</time>
      </trkpt>
      <trkpt lat="46.97532" lon="8.75948">
        <ele>609</ele>
        <time>2021-08-05T12:15:18.943Z</time>
      </trkpt>
      <trkpt lat="46.97533" lon="8.75949">
        <ele>609</ele>
        <time>2021-08-05T12:15:19.943Z</time>
      </trkpt>
      <trkpt lat="46.97534" lon="8.75949">
        <ele>609</ele>
        <time>2021-08-05T12:15:20.943Z</time>
      </trkpt>
      <trkpt lat="46.97534" lon="8.7595">
        <ele>609</ele>
        <time>2021-08-05T12:15:21.943Z</time>
      </trkpt>
      <trkpt lat="46.97534" lon="8.75951">
        <ele>608</ele>
        <time>2021-08-05T12:15:22.942Z</time>
      </trkpt>
      <trkpt lat="46.97534" lon="8.75953">
        <ele>608</ele>
        <time>2021-08-05T12:15:23.943Z</time>
      </trkpt>
      <trkpt lat="46.97534" lon="8.75955">
        <ele>608</ele>
        <time>2021-08-05T12:15:24.943Z</time>
      </trkpt>
      <trkpt lat="46.97535" lon="8.75956">
        <ele>608</ele>
        <time>2021-08-05T12:15:25.943Z</time>
      </trkpt>
      <trkpt lat="46.97534" lon="8.75958">
        <ele>608</ele>
        <time>2021-08-05T12:15:26.943Z</time>
      </trkpt>
      <trkpt lat="46.97534" lon="8.75959">
        <ele>608</ele>
        <time>2021-08-05T12:15:27.943Z</time>
      </trkpt>
      <trkpt lat="46.97535" lon="8.7596">
        <ele>608</ele>
        <time>2021-08-05T12:15:28.943Z</time>
      </trkpt>
      <trkpt lat="46.97535" lon="8.7596">
        <ele>611</ele>
        <time>2021-08-05T12:15:29.943Z</time>
      </trkpt>
      <trkpt lat="46.97536" lon="8.7596">
        <ele>611</ele>
        <time>2021-08-05T12:15:30.942Z</time>
      </trkpt>
      <trkpt lat="46.97536" lon="8.75963">
        <ele>613</ele>
        <time>2021-08-05T12:15:31.943Z</time>
      </trkpt>
      <trkpt lat="46.97536" lon="8.75963">
        <ele>613</ele>
        <time>2021-08-05T12:15:32.942Z</time>
      </trkpt>
      <trkpt lat="46.97535" lon="8.75964">
        <ele>613</ele>
        <time>2021-08-05T12:15:33.943Z</time>
      </trkpt>
      <trkpt lat="46.97535" lon="8.75966">
        <ele>613</ele>
        <time>2021-08-05T12:15:34.942Z</time>
      </trkpt>
      <trkpt lat="46.97535" lon="8.75968">
        <ele>613</ele>
        <time>2021-08-05T12:15:35.942Z</time>
      </trkpt>
      <trkpt lat="46.97534" lon="8.7597">
        <ele>613</ele>
        <time>2021-08-05T12:15:36.942Z</time>
      </trkpt>
      <trkpt lat="46.97534" lon="8.75972">
        <ele>613</ele>
        <time>2021-08-05T12:15:37.942Z</time>
      </trkpt>
      <trkpt lat="46.97534" lon="8.75973">
        <ele>613</ele>
        <time>2021-08-05T12:15:38.942Z</time>
      </trkpt>
      <trkpt lat="46.97533" lon="8.75975">
        <ele>612</ele>
        <time>2021-08-05T12:15:39.942Z</time>
      </trkpt>
      <trkpt lat="46.97533" lon="8.75976">
        <ele>612</ele>
        <time>2021-08-05T12:15:40.942Z</time>
      </trkpt>
      <trkpt lat="46.97533" lon="8.75977">
        <ele>612</ele>
        <time>2021-08-05T12:15:41.942Z</time>
      </trkpt>
      <trkpt lat="46.97533" lon="8.75978">
        <ele>612</ele>
        <time>2021-08-05T12:15:42.943Z</time>
      </trkpt>
      <trkpt lat="46.97533" lon="8.75979">
        <ele>611</ele>
        <time>2021-08-05T12:15:43.943Z</time>
      </trkpt>
      <trkpt lat="46.97533" lon="8.7598">
        <ele>611</ele>
        <time>2021-08-05T12:15:44.942Z</time>
      </trkpt>
      <trkpt lat="46.97532" lon="8.75981">
        <ele>611</ele>
        <time>2021-08-05T12:15:45.943Z</time>
      </trkpt>
      <trkpt lat="46.97532" lon="8.75983">
        <ele>611</ele>
        <time>2021-08-05T12:15:46.942Z</time>
      </trkpt>
      <trkpt lat="46.9753" lon="8.75985">
        <ele>611</ele>
        <time>2021-08-05T12:15:47.942Z</time>
      </trkpt>
      <trkpt lat="46.97529" lon="8.75988">
        <ele>610</ele>
        <time>2021-08-05T12:15:48.942Z</time>
      </trkpt>
      <trkpt lat="46.97528" lon="8.7599">
        <ele>610</ele>
        <time>2021-08-05T12:15:49.942Z</time>
      </trkpt>
      <trkpt lat="46.97527" lon="8.75991">
        <ele>610</ele>
        <time>2021-08-05T12:15:50.942Z</time>
      </trkpt>
      <trkpt lat="46.97526" lon="8.75993">
        <ele>610</ele>
        <time>2021-08-05T12:15:51.942Z</time>
      </trkpt>
      <trkpt lat="46.97526" lon="8.75995">
        <ele>610</ele>
        <time>2021-08-05T12:15:52.942Z</time>
      </trkpt>
      <trkpt lat="46.97525" lon="8.75997">
        <ele>611</ele>
        <time>2021-08-05T12:15:53.943Z</time>
      </trkpt>
      <trkpt lat="46.97526" lon="8.75998">
        <ele>611</ele>
        <time>2021-08-05T12:15:54.942Z</time>
      </trkpt>
      <trkpt lat="46.97525" lon="8.76">
        <ele>612</ele>
        <time>2021-08-05T12:15:55.942Z</time>
      </trkpt>
      <trkpt lat="46.97524" lon="8.76003">
        <ele>612</ele>
        <time>2021-08-05T12:15:56.942Z</time>
      </trkpt>
      <trkpt lat="46.97523" lon="8.76006">
        <ele>612</ele>
        <time>2021-08-05T12:15:57.942Z</time>
      </trkpt>
      <trkpt lat="46.97522" lon="8.76007">
        <ele>612</ele>
        <time>2021-08-05T12:15:58.942Z</time>
      </trkpt>
      <trkpt lat="46.97522" lon="8.76008">
        <ele>613</ele>
        <time>2021-08-05T12:15:59.942Z</time>
      </trkpt>
      <trkpt lat="46.97522" lon="8.7601">
        <ele>613</ele>
        <time>2021-08-05T12:16:00.942Z</time>
      </trkpt>
      <trkpt lat="46.97521" lon="8.76012">
        <ele>613</ele>
        <time>2021-08-05T12:16:01.942Z</time>
      </trkpt>
      <trkpt lat="46.97521" lon="8.76014">
        <ele>613</ele>
        <time>2021-08-05T12:16:02.942Z</time>
      </trkpt>
      <trkpt lat="46.97521" lon="8.76016">
        <ele>613</ele>
        <time>2021-08-05T12:16:03.942Z</time>
      </trkpt>
      <trkpt lat="46.9752" lon="8.76018">
        <ele>614</ele>
        <time>2021-08-05T12:16:04.942Z</time>
      </trkpt>
      <trkpt lat="46.9752" lon="8.76019">
        <ele>614</ele>
        <time>2021-08-05T12:16:09.056Z</time>
      </trkpt>
      <trkpt lat="46.9752" lon="8.76022">
        <ele>614</ele>
        <time>2021-08-05T12:16:10.057Z</time>
      </trkpt>
      <trkpt lat="46.9752" lon="8.76024">
        <ele>614</ele>
        <time>2021-08-05T12:16:11.056Z</time>
      </trkpt>
      <trkpt lat="46.9752" lon="8.76026">
        <ele>614</ele>
        <time>2021-08-05T12:16:12.056Z</time>
      </trkpt>
      <trkpt lat="46.97518" lon="8.76028">
        <ele>614</ele>
        <time>2021-08-05T12:16:13.056Z</time>
      </trkpt>
      <trkpt lat="46.97516" lon="8.76031">
        <ele>614</ele>
        <time>2021-08-05T12:16:14.056Z</time>
      </trkpt>
      <trkpt lat="46.97516" lon="8.76033">
        <ele>614</ele>
        <time>2021-08-05T12:16:15.056Z</time>
      </trkpt>
      <trkpt lat="46.97515" lon="8.76034">
        <ele>613</ele>
        <time>2021-08-05T12:16:16.056Z</time>
      </trkpt>
      <trkpt lat="46.97516" lon="8.76036">
        <ele>613</ele>
        <time>2021-08-05T12:16:17.056Z</time>
      </trkpt>
      <trkpt lat="46.97516" lon="8.76038">
        <ele>613</ele>
        <time>2021-08-05T12:16:18.057Z</time>
      </trkpt>
      <trkpt lat="46.97517" lon="8.7604">
        <ele>613</ele>
        <time>2021-08-05T12:16:19.057Z</time>
      </trkpt>
      <trkpt lat="46.97517" lon="8.76041">
        <ele>613</ele>
        <time>2021-08-05T12:16:39.219Z</time>
      </trkpt>
      <trkpt lat="46.97517" lon="8.76043">
        <ele>613</ele>
        <time>2021-08-05T12:16:40.219Z</time>
      </trkpt>
      <trkpt lat="46.97517" lon="8.76044">
        <ele>613</ele>
        <time>2021-08-05T12:16:41.219Z</time>
      </trkpt>
      <trkpt lat="46.97517" lon="8.76046">
        <ele>613</ele>
        <time>2021-08-05T12:16:42.220Z</time>
      </trkpt>
      <trkpt lat="46.97516" lon="8.76048">
        <ele>613</ele>
        <time>2021-08-05T12:16:43.219Z</time>
      </trkpt>
      <trkpt lat="46.97516" lon="8.76049">
        <ele>612</ele>
        <time>2021-08-05T12:16:44.219Z</time>
      </trkpt>
      <trkpt lat="46.97516" lon="8.7605">
        <ele>612</ele>
        <time>2021-08-05T12:16:45.220Z</time>
      </trkpt>
      <trkpt lat="46.97516" lon="8.76051">
        <ele>612</ele>
        <time>2021-08-05T12:16:46.219Z</time>
      </trkpt>
      <trkpt lat="46.97515" lon="8.76053">
        <ele>612</ele>
        <time>2021-08-05T12:16:47.219Z</time>
      </trkpt>
      <trkpt lat="46.97515" lon="8.76055">
        <ele>612</ele>
        <time>2021-08-05T12:16:48.219Z</time>
      </trkpt>
      <trkpt lat="46.97514" lon="8.76057">
        <ele>612</ele>
        <time>2021-08-05T12:16:49.219Z</time>
      </trkpt>
      <trkpt lat="46.97514" lon="8.76058">
        <ele>612</ele>
        <time>2021-08-05T12:16:50.220Z</time>
      </trkpt>
      <trkpt lat="46.97514" lon="8.7606">
        <ele>612</ele>
        <time>2021-08-05T12:16:51.219Z</time>
      </trkpt>
      <trkpt lat="46.97513" lon="8.76062">
        <ele>611</ele>
        <time>2021-08-05T12:16:52.219Z</time>
      </trkpt>
      <trkpt lat="46.97512" lon="8.76064">
        <ele>611</ele>
        <time>2021-08-05T12:16:53.219Z</time>
      </trkpt>
      <trkpt lat="46.97512" lon="8.76066">
        <ele>611</ele>
        <time>2021-08-05T12:16:54.219Z</time>
      </trkpt>
      <trkpt lat="46.97512" lon="8.76067">
        <ele>611</ele>
        <time>2021-08-05T12:16:55.219Z</time>
      </trkpt>
      <trkpt lat="46.97511" lon="8.76069">
        <ele>611</ele>
        <time>2021-08-05T12:16:56.219Z</time>
      </trkpt>
      <trkpt lat="46.9751" lon="8.7607">
        <ele>611</ele>
        <time>2021-08-05T12:16:57.219Z</time>
      </trkpt>
      <trkpt lat="46.9751" lon="8.76071">
        <ele>610</ele>
        <time>2021-08-05T12:16:58.220Z</time>
      </trkpt>
      <trkpt lat="46.97509" lon="8.76073">
        <ele>610</ele>
        <time>2021-08-05T12:16:59.219Z</time>
      </trkpt>
      <trkpt lat="46.97509" lon="8.76075">
        <ele>610</ele>
        <time>2021-08-05T12:17:01.324Z</time>
      </trkpt>
      <trkpt lat="46.97508" lon="8.76077">
        <ele>611</ele>
        <time>2021-08-05T12:17:02.323Z</time>
      </trkpt>
      <trkpt lat="46.97507" lon="8.76079">
        <ele>610</ele>
        <time>2021-08-05T12:17:03.323Z</time>
      </trkpt>
      <trkpt lat="46.97505" lon="8.76082">
        <ele>610</ele>
        <time>2021-08-05T12:17:04.323Z</time>
      </trkpt>
      <trkpt lat="46.97504" lon="8.76084">
        <ele>610</ele>
        <time>2021-08-05T12:17:05.323Z</time>
      </trkpt>
      <trkpt lat="46.97504" lon="8.76086">
        <ele>610</ele>
        <time>2021-08-05T12:17:06.323Z</time>
      </trkpt>
      <trkpt lat="46.97504" lon="8.76087">
        <ele>610</ele>
        <time>2021-08-05T12:17:07.323Z</time>
      </trkpt>
      <trkpt lat="46.97504" lon="8.76089">
        <ele>610</ele>
        <time>2021-08-05T12:17:24.443Z</time>
      </trkpt>
      <trkpt lat="46.97504" lon="8.7609">
        <ele>611</ele>
        <time>2021-08-05T12:17:25.443Z</time>
      </trkpt>
      <trkpt lat="46.97504" lon="8.76092">
        <ele>611</ele>
        <time>2021-08-05T12:17:26.443Z</time>
      </trkpt>
      <trkpt lat="46.97504" lon="8.76094">
        <ele>611</ele>
        <time>2021-08-05T12:17:27.443Z</time>
      </trkpt>
      <trkpt lat="46.97504" lon="8.76095">
        <ele>611</ele>
        <time>2021-08-05T12:17:28.443Z</time>
      </trkpt>
      <trkpt lat="46.97504" lon="8.76097">
        <ele>611</ele>
        <time>2021-08-05T12:17:39.593Z</time>
      </trkpt>
      <trkpt lat="46.97504" lon="8.76098">
        <ele>612</ele>
        <time>2021-08-05T12:17:51.416Z</time>
      </trkpt>
      <trkpt lat="46.97503" lon="8.76099">
        <ele>612</ele>
        <time>2021-08-05T12:17:52.416Z</time>
      </trkpt>
      <trkpt lat="46.97503" lon="8.76101">
        <ele>612</ele>
        <time>2021-08-05T12:17:53.416Z</time>
      </trkpt>
      <trkpt lat="46.97502" lon="8.76102">
        <ele>612</ele>
        <time>2021-08-05T12:18:05.529Z</time>
      </trkpt>
      <trkpt lat="46.97502" lon="8.76104">
        <ele>613</ele>
        <time>2021-08-05T12:18:08.413Z</time>
      </trkpt>
      <trkpt lat="46.97502" lon="8.76106">
        <ele>613</ele>
        <time>2021-08-05T12:18:09.413Z</time>
      </trkpt>
      <trkpt lat="46.97502" lon="8.76107">
        <ele>614</ele>
        <time>2021-08-05T12:18:10.413Z</time>
      </trkpt>
      <trkpt lat="46.97502" lon="8.76109">
        <ele>614</ele>
        <time>2021-08-05T12:18:15.292Z</time>
      </trkpt>
      <trkpt lat="46.97501" lon="8.76111">
        <ele>614</ele>
        <time>2021-08-05T12:18:16.292Z</time>
      </trkpt>
      <trkpt lat="46.97501" lon="8.76113">
        <ele>613</ele>
        <time>2021-08-05T12:18:17.292Z</time>
      </trkpt>
      <trkpt lat="46.97501" lon="8.76115">
        <ele>613</ele>
        <time>2021-08-05T12:18:18.292Z</time>
      </trkpt>
      <trkpt lat="46.97501" lon="8.76116">
        <ele>613</ele>
        <time>2021-08-05T12:18:19.292Z</time>
      </trkpt>
      <trkpt lat="46.975" lon="8.76118">
        <ele>613</ele>
        <time>2021-08-05T12:18:20.292Z</time>
      </trkpt>
      <trkpt lat="46.97501" lon="8.7612">
        <ele>613</ele>
        <time>2021-08-05T12:18:41.440Z</time>
      </trkpt>
      <trkpt lat="46.97501" lon="8.76122">
        <ele>613</ele>
        <time>2021-08-05T12:18:42.440Z</time>
      </trkpt>
      <trkpt lat="46.97501" lon="8.76124">
        <ele>613</ele>
        <time>2021-08-05T12:19:21.148Z</time>
      </trkpt>
      <trkpt lat="46.97502" lon="8.76125">
        <ele>613</ele>
        <time>2021-08-05T12:19:22.149Z</time>
      </trkpt>
      <trkpt lat="46.97501" lon="8.76127">
        <ele>613</ele>
        <time>2021-08-05T12:19:23.148Z</time>
      </trkpt>
      <trkpt lat="46.97501" lon="8.76129">
        <ele>613</ele>
        <time>2021-08-05T12:19:24.148Z</time>
      </trkpt>
      <trkpt lat="46.97501" lon="8.76131">
        <ele>613</ele>
        <time>2021-08-05T12:19:25.148Z</time>
      </trkpt>
      <trkpt lat="46.975" lon="8.76133">
        <ele>613</ele>
        <time>2021-08-05T12:19:26.148Z</time>
      </trkpt>
      <trkpt lat="46.975" lon="8.76134">
        <ele>613</ele>
        <time>2021-08-05T12:19:27.148Z</time>
      </trkpt>
      <trkpt lat="46.975" lon="8.76135">
        <ele>613</ele>
        <time>2021-08-05T12:19:28.148Z</time>
      </trkpt>
      <trkpt lat="46.97499" lon="8.76137">
        <ele>613</ele>
        <time>2021-08-05T12:19:29.148Z</time>
      </trkpt>
      <trkpt lat="46.97498" lon="8.76139">
        <ele>613</ele>
        <time>2021-08-05T12:19:30.148Z</time>
      </trkpt>
      <trkpt lat="46.97498" lon="8.7614">
        <ele>612</ele>
        <time>2021-08-05T12:19:34.193Z</time>
      </trkpt>
      <trkpt lat="46.97497" lon="8.76142">
        <ele>612</ele>
        <time>2021-08-05T12:19:35.193Z</time>
      </trkpt>
      <trkpt lat="46.97497" lon="8.76143">
        <ele>612</ele>
        <time>2021-08-05T12:19:36.193Z</time>
      </trkpt>
      <trkpt lat="46.97497" lon="8.76144">
        <ele>612</ele>
        <time>2021-08-05T12:19:37.194Z</time>
      </trkpt>
      <trkpt lat="46.97496" lon="8.76145">
        <ele>611</ele>
        <time>2021-08-05T12:19:38.193Z</time>
      </trkpt>
      <trkpt lat="46.97496" lon="8.76146">
        <ele>611</ele>
        <time>2021-08-05T12:19:39.193Z</time>
      </trkpt>
      <trkpt lat="46.97496" lon="8.76148">
        <ele>611</ele>
        <time>2021-08-05T12:19:40.193Z</time>
      </trkpt>
      <trkpt lat="46.97495" lon="8.7615">
        <ele>612</ele>
        <time>2021-08-05T12:19:41.193Z</time>
      </trkpt>
      <trkpt lat="46.97495" lon="8.76151">
        <ele>612</ele>
        <time>2021-08-05T12:19:42.194Z</time>
      </trkpt>
      <trkpt lat="46.97495" lon="8.76153">
        <ele>612</ele>
        <time>2021-08-05T12:19:43.193Z</time>
      </trkpt>
      <trkpt lat="46.97494" lon="8.76155">
        <ele>612</ele>
        <time>2021-08-05T12:19:44.193Z</time>
      </trkpt>
      <trkpt lat="46.97494" lon="8.76157">
        <ele>612</ele>
        <time>2021-08-05T12:19:45.193Z</time>
      </trkpt>
      <trkpt lat="46.97494" lon="8.76159">
        <ele>612</ele>
        <time>2021-08-05T12:19:46.193Z</time>
      </trkpt>
      <trkpt lat="46.97494" lon="8.76161">
        <ele>612</ele>
        <time>2021-08-05T12:19:47.193Z</time>
      </trkpt>
      <trkpt lat="46.97494" lon="8.76162">
        <ele>612</ele>
        <time>2021-08-05T12:19:48.193Z</time>
      </trkpt>
      <trkpt lat="46.97494" lon="8.76164">
        <ele>612</ele>
        <time>2021-08-05T12:19:49.193Z</time>
      </trkpt>
      <trkpt lat="46.97494" lon="8.76165">
        <ele>612</ele>
        <time>2021-08-05T12:19:50.193Z</time>
      </trkpt>
      <trkpt lat="46.97494" lon="8.76166">
        <ele>613</ele>
        <time>2021-08-05T12:19:51.194Z</time>
      </trkpt>
      <trkpt lat="46.97494" lon="8.76167">
        <ele>612</ele>
        <time>2021-08-05T12:19:52.193Z</time>
      </trkpt>
      <trkpt lat="46.97493" lon="8.76168">
        <ele>612</ele>
        <time>2021-08-05T12:19:53.193Z</time>
      </trkpt>
      <trkpt lat="46.97493" lon="8.76169">
        <ele>612</ele>
        <time>2021-08-05T12:19:54.193Z</time>
      </trkpt>
      <trkpt lat="46.97492" lon="8.76171">
        <ele>612</ele>
        <time>2021-08-05T12:19:55.193Z</time>
      </trkpt>
      <trkpt lat="46.97492" lon="8.76172">
        <ele>612</ele>
        <time>2021-08-05T12:19:56.193Z</time>
      </trkpt>
      <trkpt lat="46.97492" lon="8.76173">
        <ele>612</ele>
        <time>2021-08-05T12:19:57.193Z</time>
      </trkpt>
      <trkpt lat="46.97492" lon="8.76174">
        <ele>612</ele>
        <time>2021-08-05T12:19:58.193Z</time>
      </trkpt>
      <trkpt lat="46.97492" lon="8.76175">
        <ele>612</ele>
        <time>2021-08-05T12:19:59.193Z</time>
      </trkpt>
      <trkpt lat="46.97491" lon="8.76176">
        <ele>612</ele>
        <time>2021-08-05T12:20:00.193Z</time>
      </trkpt>
      <trkpt lat="46.97491" lon="8.76177">
        <ele>612</ele>
        <time>2021-08-05T12:20:01.193Z</time>
      </trkpt>
      <trkpt lat="46.97491" lon="8.76179">
        <ele>613</ele>
        <time>2021-08-05T12:20:02.193Z</time>
      </trkpt>
      <trkpt lat="46.97491" lon="8.7618">
        <ele>613</ele>
        <time>2021-08-05T12:20:03.193Z</time>
      </trkpt>
      <trkpt lat="46.97491" lon="8.76182">
        <ele>613</ele>
        <time>2021-08-05T12:20:04.193Z</time>
      </trkpt>
      <trkpt lat="46.97489" lon="8.76185">
        <ele>613</ele>
        <time>2021-08-05T12:20:05.193Z</time>
      </trkpt>
      <trkpt lat="46.97489" lon="8.76187">
        <ele>612</ele>
        <time>2021-08-05T12:20:06.193Z</time>
      </trkpt>
      <trkpt lat="46.97488" lon="8.76188">
        <ele>612</ele>
        <time>2021-08-05T12:20:07.193Z</time>
      </trkpt>
      <trkpt lat="46.97487" lon="8.76189">
        <ele>612</ele>
        <time>2021-08-05T12:20:08.193Z</time>
      </trkpt>
      <trkpt lat="46.97487" lon="8.7619">
        <ele>612</ele>
        <time>2021-08-05T12:20:09.194Z</time>
      </trkpt>
      <trkpt lat="46.97488" lon="8.76191">
        <ele>612</ele>
        <time>2021-08-05T12:20:10.193Z</time>
      </trkpt>
      <trkpt lat="46.97488" lon="8.76193">
        <ele>612</ele>
        <time>2021-08-05T12:20:11.193Z</time>
      </trkpt>
      <trkpt lat="46.97488" lon="8.76195">
        <ele>612</ele>
        <time>2021-08-05T12:20:12.193Z</time>
      </trkpt>
      <trkpt lat="46.97488" lon="8.76196">
        <ele>612</ele>
        <time>2021-08-05T12:20:15.277Z</time>
      </trkpt>
      <trkpt lat="46.97488" lon="8.76196">
        <ele>612</ele>
        <time>2021-08-05T12:20:16.277Z</time>
      </trkpt>
      <trkpt lat="46.97488" lon="8.76197">
        <ele>613</ele>
        <time>2021-08-05T12:20:17.277Z</time>
      </trkpt>
      <trkpt lat="46.97488" lon="8.76199">
        <ele>613</ele>
        <time>2021-08-05T12:20:18.277Z</time>
      </trkpt>
      <trkpt lat="46.97488" lon="8.762">
        <ele>614</ele>
        <time>2021-08-05T12:20:19.277Z</time>
      </trkpt>
      <trkpt lat="46.97487" lon="8.76201">
        <ele>615</ele>
        <time>2021-08-05T12:20:20.278Z</time>
      </trkpt>
      <trkpt lat="46.97485" lon="8.76204">
        <ele>615</ele>
        <time>2021-08-05T12:20:21.277Z</time>
      </trkpt>
      <trkpt lat="46.97484" lon="8.76205">
        <ele>615</ele>
        <time>2021-08-05T12:20:22.277Z</time>
      </trkpt>
      <trkpt lat="46.97484" lon="8.76206">
        <ele>615</ele>
        <time>2021-08-05T12:20:23.277Z</time>
      </trkpt>
      <trkpt lat="46.97483" lon="8.76207">
        <ele>615</ele>
        <time>2021-08-05T12:20:24.277Z</time>
      </trkpt>
      <trkpt lat="46.97483" lon="8.76209">
        <ele>614</ele>
        <time>2021-08-05T12:20:25.277Z</time>
      </trkpt>
      <trkpt lat="46.97483" lon="8.7621">
        <ele>614</ele>
        <time>2021-08-05T12:20:26.277Z</time>
      </trkpt>
      <trkpt lat="46.97482" lon="8.76212">
        <ele>614</ele>
        <time>2021-08-05T12:20:27.277Z</time>
      </trkpt>
      <trkpt lat="46.97482" lon="8.76214">
        <ele>614</ele>
        <time>2021-08-05T12:20:28.277Z</time>
      </trkpt>
      <trkpt lat="46.97481" lon="8.76215">
        <ele>613</ele>
        <time>2021-08-05T12:20:29.278Z</time>
      </trkpt>
      <trkpt lat="46.97481" lon="8.76217">
        <ele>613</ele>
        <time>2021-08-05T12:20:30.277Z</time>
      </trkpt>
      <trkpt lat="46.97481" lon="8.76219">
        <ele>613</ele>
        <time>2021-08-05T12:20:31.277Z</time>
      </trkpt>
      <trkpt lat="46.97481" lon="8.7622">
        <ele>613</ele>
        <time>2021-08-05T12:20:32.278Z</time>
      </trkpt>
      <trkpt lat="46.97481" lon="8.76221">
        <ele>613</ele>
        <time>2021-08-05T12:20:33.278Z</time>
      </trkpt>
      <trkpt lat="46.97481" lon="8.76221">
        <ele>613</ele>
        <time>2021-08-05T12:20:34.278Z</time>
      </trkpt>
      <trkpt lat="46.97481" lon="8.76222">
        <ele>613</ele>
        <time>2021-08-05T12:20:35.278Z</time>
      </trkpt>
      <trkpt lat="46.97481" lon="8.76224">
        <ele>613</ele>
        <time>2021-08-05T12:20:36.278Z</time>
      </trkpt>
      <trkpt lat="46.9748" lon="8.76226">
        <ele>613</ele>
        <time>2021-08-05T12:20:37.278Z</time>
      </trkpt>
      <trkpt lat="46.9748" lon="8.76227">
        <ele>613</ele>
        <time>2021-08-05T12:20:38.277Z</time>
      </trkpt>
      <trkpt lat="46.9748" lon="8.76229">
        <ele>613</ele>
        <time>2021-08-05T12:20:39.277Z</time>
      </trkpt>
      <trkpt lat="46.9748" lon="8.7623">
        <ele>612</ele>
        <time>2021-08-05T12:20:40.278Z</time>
      </trkpt>
      <trkpt lat="46.9748" lon="8.76231">
        <ele>612</ele>
        <time>2021-08-05T12:20:41.278Z</time>
      </trkpt>
      <trkpt lat="46.9748" lon="8.76232">
        <ele>612</ele>
        <time>2021-08-05T12:21:05.288Z</time>
      </trkpt>
      <trkpt lat="46.97479" lon="8.76233">
        <ele>611</ele>
        <time>2021-08-05T12:21:06.288Z</time>
      </trkpt>
      <trkpt lat="46.97479" lon="8.76235">
        <ele>611</ele>
        <time>2021-08-05T12:21:21.173Z</time>
      </trkpt>
      <trkpt lat="46.97479" lon="8.76237">
        <ele>611</ele>
        <time>2021-08-05T12:21:22.173Z</time>
      </trkpt>
      <trkpt lat="46.97478" lon="8.76238">
        <ele>611</ele>
        <time>2021-08-05T12:21:23.173Z</time>
      </trkpt>
      <trkpt lat="46.97478" lon="8.7624">
        <ele>611</ele>
        <time>2021-08-05T12:21:24.173Z</time>
      </trkpt>
      <trkpt lat="46.97478" lon="8.76241">
        <ele>611</ele>
        <time>2021-08-05T12:21:25.173Z</time>
      </trkpt>
      <trkpt lat="46.97478" lon="8.76242">
        <ele>611</ele>
        <time>2021-08-05T12:21:26.173Z</time>
      </trkpt>
      <trkpt lat="46.97477" lon="8.76243">
        <ele>611</ele>
        <time>2021-08-05T12:21:27.173Z</time>
      </trkpt>
      <trkpt lat="46.97477" lon="8.76245">
        <ele>611</ele>
        <time>2021-08-05T12:21:28.174Z</time>
      </trkpt>
      <trkpt lat="46.97477" lon="8.76247">
        <ele>611</ele>
        <time>2021-08-05T12:21:29.173Z</time>
      </trkpt>
      <trkpt lat="46.97477" lon="8.76248">
        <ele>611</ele>
        <time>2021-08-05T12:21:30.173Z</time>
      </trkpt>
      <trkpt lat="46.97477" lon="8.7625">
        <ele>612</ele>
        <time>2021-08-05T12:21:31.173Z</time>
      </trkpt>
      <trkpt lat="46.97477" lon="8.76251">
        <ele>612</ele>
        <time>2021-08-05T12:21:32.173Z</time>
      </trkpt>
      <trkpt lat="46.97478" lon="8.76252">
        <ele>612</ele>
        <time>2021-08-05T12:21:33.174Z</time>
      </trkpt>
      <trkpt lat="46.97478" lon="8.76253">
        <ele>613</ele>
        <time>2021-08-05T12:21:34.173Z</time>
      </trkpt>
      <trkpt lat="46.97477" lon="8.76254">
        <ele>613</ele>
        <time>2021-08-05T12:21:35.173Z</time>
      </trkpt>
      <trkpt lat="46.97477" lon="8.76256">
        <ele>613</ele>
        <time>2021-08-05T12:21:36.173Z</time>
      </trkpt>
      <trkpt lat="46.97476" lon="8.76258">
        <ele>614</ele>
        <time>2021-08-05T12:21:37.173Z</time>
      </trkpt>
      <trkpt lat="46.97475" lon="8.76259">
        <ele>614</ele>
        <time>2021-08-05T12:21:38.174Z</time>
      </trkpt>
      <trkpt lat="46.97474" lon="8.76261">
        <ele>614</ele>
        <time>2021-08-05T12:21:39.174Z</time>
      </trkpt>
      <trkpt lat="46.97474" lon="8.76263">
        <ele>614</ele>
        <time>2021-08-05T12:21:40.173Z</time>
      </trkpt>
      <trkpt lat="46.97474" lon="8.76263">
        <ele>614</ele>
        <time>2021-08-05T12:21:41.174Z</time>
      </trkpt>
      <trkpt lat="46.97475" lon="8.76264">
        <ele>614</ele>
        <time>2021-08-05T12:21:42.174Z</time>
      </trkpt>
      <trkpt lat="46.97475" lon="8.76264">
        <ele>614</ele>
        <time>2021-08-05T12:21:43.173Z</time>
      </trkpt>
      <trkpt lat="46.97475" lon="8.76265">
        <ele>614</ele>
        <time>2021-08-05T12:21:44.174Z</time>
      </trkpt>
      <trkpt lat="46.97475" lon="8.76266">
        <ele>615</ele>
        <time>2021-08-05T12:21:45.173Z</time>
      </trkpt>
      <trkpt lat="46.97475" lon="8.76267">
        <ele>615</ele>
        <time>2021-08-05T12:21:46.173Z</time>
      </trkpt>
      <trkpt lat="46.97474" lon="8.76268">
        <ele>616</ele>
        <time>2021-08-05T12:21:47.174Z</time>
      </trkpt>
      <trkpt lat="46.97474" lon="8.76271">
        <ele>616</ele>
        <time>2021-08-05T12:21:48.173Z</time>
      </trkpt>
      <trkpt lat="46.97473" lon="8.76271">
        <ele>616</ele>
        <time>2021-08-05T12:21:49.173Z</time>
      </trkpt>
      <trkpt lat="46.97471" lon="8.76271">
        <ele>617</ele>
        <time>2021-08-05T12:21:50.173Z</time>
      </trkpt>
      <trkpt lat="46.97471" lon="8.76271">
        <ele>617</ele>
        <time>2021-08-05T12:21:51.174Z</time>
      </trkpt>
      <trkpt lat="46.9747" lon="8.76271">
        <ele>616</ele>
        <time>2021-08-05T12:21:52.174Z</time>
      </trkpt>
      <trkpt lat="46.9747" lon="8.76272">
        <ele>616</ele>
        <time>2021-08-05T12:21:53.173Z</time>
      </trkpt>
      <trkpt lat="46.97469" lon="8.76273">
        <ele>616</ele>
        <time>2021-08-05T12:21:54.173Z</time>
      </trkpt>
      <trkpt lat="46.97469" lon="8.76275">
        <ele>617</ele>
        <time>2021-08-05T12:21:55.174Z</time>
      </trkpt>
      <trkpt lat="46.97469" lon="8.76276">
        <ele>617</ele>
        <time>2021-08-05T12:21:56.173Z</time>
      </trkpt>
      <trkpt lat="46.9747" lon="8.76277">
        <ele>617</ele>
        <time>2021-08-05T12:21:57.173Z</time>
      </trkpt>
      <trkpt lat="46.9747" lon="8.76278">
        <ele>617</ele>
        <time>2021-08-05T12:21:58.173Z</time>
      </trkpt>
      <trkpt lat="46.9747" lon="8.76279">
        <ele>617</ele>
        <time>2021-08-05T12:21:59.174Z</time>
      </trkpt>
      <trkpt lat="46.9747" lon="8.7628">
        <ele>617</ele>
        <time>2021-08-05T12:22:00.174Z</time>
      </trkpt>
      <trkpt lat="46.97471" lon="8.7628">
        <ele>617</ele>
        <time>2021-08-05T12:22:01.174Z</time>
      </trkpt>
      <trkpt lat="46.97472" lon="8.7628">
        <ele>617</ele>
        <time>2021-08-05T12:22:02.173Z</time>
      </trkpt>
      <trkpt lat="46.97473" lon="8.7628">
        <ele>617</ele>
        <time>2021-08-05T12:22:03.173Z</time>
      </trkpt>
      <trkpt lat="46.97474" lon="8.7628">
        <ele>617</ele>
        <time>2021-08-05T12:22:04.174Z</time>
      </trkpt>
      <trkpt lat="46.97476" lon="8.7628">
        <ele>617</ele>
        <time>2021-08-05T12:22:05.174Z</time>
      </trkpt>
      <trkpt lat="46.97476" lon="8.76281">
        <ele>617</ele>
        <time>2021-08-05T12:22:06.174Z</time>
      </trkpt>
      <trkpt lat="46.97476" lon="8.76281">
        <ele>617</ele>
        <time>2021-08-05T12:22:07.173Z</time>
      </trkpt>
      <trkpt lat="46.97475" lon="8.76283">
        <ele>617</ele>
        <time>2021-08-05T12:22:08.173Z</time>
      </trkpt>
      <trkpt lat="46.97474" lon="8.76283">
        <ele>617</ele>
        <time>2021-08-05T12:22:09.174Z</time>
      </trkpt>
      <trkpt lat="46.97474" lon="8.76282">
        <ele>618</ele>
        <time>2021-08-05T12:22:10.173Z</time>
      </trkpt>
      <trkpt lat="46.97475" lon="8.76282">
        <ele>618</ele>
        <time>2021-08-05T12:22:11.173Z</time>
      </trkpt>
      <trkpt lat="46.97475" lon="8.76282">
        <ele>618</ele>
        <time>2021-08-05T12:22:12.174Z</time>
      </trkpt>
      <trkpt lat="46.97476" lon="8.76281">
        <ele>618</ele>
        <time>2021-08-05T12:22:13.174Z</time>
      </trkpt>
      <trkpt lat="46.97476" lon="8.76281">
        <ele>618</ele>
        <time>2021-08-05T12:22:14.174Z</time>
      </trkpt>
      <trkpt lat="46.97477" lon="8.76281">
        <ele>618</ele>
        <time>2021-08-05T12:22:15.173Z</time>
      </trkpt>
      <trkpt lat="46.97477" lon="8.76281">
        <ele>619</ele>
        <time>2021-08-05T12:22:16.174Z</time>
      </trkpt>
      <trkpt lat="46.97478" lon="8.76281">
        <ele>620</ele>
        <time>2021-08-05T12:22:17.176Z</time>
      </trkpt>
      <trkpt lat="46.97478" lon="8.76281">
        <ele>620</ele>
        <time>2021-08-05T12:22:18.176Z</time>
      </trkpt>
      <trkpt lat="46.97478" lon="8.76281">
        <ele>620</ele>
        <time>2021-08-05T12:22:19.176Z</time>
      </trkpt>
      <trkpt lat="46.97478" lon="8.76281">
        <ele>620</ele>
        <time>2021-08-05T12:22:20.176Z</time>
      </trkpt>
      <trkpt lat="46.97479" lon="8.76281">
        <ele>621</ele>
        <time>2021-08-05T12:22:21.175Z</time>
      </trkpt>
      <trkpt lat="46.97478" lon="8.76282">
        <ele>621</ele>
        <time>2021-08-05T12:22:22.177Z</time>
      </trkpt>
      <trkpt lat="46.97478" lon="8.76283">
        <ele>621</ele>
        <time>2021-08-05T12:22:23.178Z</time>
      </trkpt>
      <trkpt lat="46.97477" lon="8.76283">
        <ele>622</ele>
        <time>2021-08-05T12:22:24.178Z</time>
      </trkpt>
      <trkpt lat="46.97487" lon="8.76285">
        <ele>628</ele>
        <time>2021-08-05T12:22:25.179Z</time>
      </trkpt>
      <trkpt lat="46.97487" lon="8.76286">
        <ele>627</ele>
        <time>2021-08-05T12:22:26.179Z</time>
      </trkpt>
      <trkpt lat="46.97485" lon="8.76286">
        <ele>626</ele>
        <time>2021-08-05T12:22:27.180Z</time>
      </trkpt>
      <trkpt lat="46.97483" lon="8.76287">
        <ele>626</ele>
        <time>2021-08-05T12:22:28.179Z</time>
      </trkpt>
      <trkpt lat="46.97485" lon="8.76286">
        <ele>615</ele>
        <time>2021-08-05T12:22:29.182Z</time>
      </trkpt>
      <trkpt lat="46.97485" lon="8.76286">
        <ele>615</ele>
        <time>2021-08-05T12:22:30.182Z</time>
      </trkpt>
      <trkpt lat="46.97486" lon="8.76285">
        <ele>614</ele>
        <time>2021-08-05T12:22:31.182Z</time>
      </trkpt>
      <trkpt lat="46.97486" lon="8.76285">
        <ele>614</ele>
        <time>2021-08-05T12:22:32.181Z</time>
      </trkpt>
      <trkpt lat="46.97486" lon="8.76285">
        <ele>613</ele>
        <time>2021-08-05T12:22:33.182Z</time>
      </trkpt>
      <trkpt lat="46.97485" lon="8.76285">
        <ele>611</ele>
        <time>2021-08-05T12:22:34.183Z</time>
      </trkpt>
      <trkpt lat="46.97485" lon="8.76284">
        <ele>610</ele>
        <time>2021-08-05T12:22:35.183Z</time>
      </trkpt>
      <trkpt lat="46.9748" lon="8.76284">
        <ele>606</ele>
        <time>2021-08-05T12:22:36.184Z</time>
      </trkpt>
      <trkpt lat="46.97478" lon="8.76285">
        <ele>606</ele>
        <time>2021-08-05T12:22:37.184Z</time>
      </trkpt>
      <trkpt lat="46.97473" lon="8.76286">
        <ele>603</ele>
        <time>2021-08-05T12:22:38.185Z</time>
      </trkpt>
      <trkpt lat="46.97472" lon="8.76287">
        <ele>603</ele>
        <time>2021-08-05T12:22:39.185Z</time>
      </trkpt>
      <trkpt lat="46.97471" lon="8.76289">
        <ele>603</ele>
        <time>2021-08-05T12:22:40.184Z</time>
      </trkpt>
      <trkpt lat="46.97469" lon="8.7629">
        <ele>602</ele>
        <time>2021-08-05T12:22:41.185Z</time>
      </trkpt>
      <trkpt lat="46.97468" lon="8.76291">
        <ele>602</ele>
        <time>2021-08-05T12:22:42.185Z</time>
      </trkpt>
      <trkpt lat="46.97466" lon="8.76292">
        <ele>601</ele>
        <time>2021-08-05T12:22:43.184Z</time>
      </trkpt>
      <trkpt lat="46.97465" lon="8.76293">
        <ele>601</ele>
        <time>2021-08-05T12:22:44.185Z</time>
      </trkpt>
      <trkpt lat="46.97464" lon="8.76295">
        <ele>601</ele>
        <time>2021-08-05T12:22:45.185Z</time>
      </trkpt>
      <trkpt lat="46.97464" lon="8.76296">
        <ele>600</ele>
        <time>2021-08-05T12:22:46.184Z</time>
      </trkpt>
      <trkpt lat="46.97464" lon="8.76297">
        <ele>600</ele>
        <time>2021-08-05T12:22:47.185Z</time>
      </trkpt>
      <trkpt lat="46.97464" lon="8.76298">
        <ele>601</ele>
        <time>2021-08-05T12:22:48.185Z</time>
      </trkpt>
      <trkpt lat="46.97464" lon="8.76299">
        <ele>601</ele>
        <time>2021-08-05T12:22:49.184Z</time>
      </trkpt>
      <trkpt lat="46.97465" lon="8.763">
        <ele>601</ele>
        <time>2021-08-05T12:22:50.185Z</time>
      </trkpt>
      <trkpt lat="46.97465" lon="8.76301">
        <ele>601</ele>
        <time>2021-08-05T12:22:51.184Z</time>
      </trkpt>
      <trkpt lat="46.97465" lon="8.76302">
        <ele>600</ele>
        <time>2021-08-05T12:22:52.185Z</time>
      </trkpt>
      <trkpt lat="46.97464" lon="8.76304">
        <ele>600</ele>
        <time>2021-08-05T12:22:53.185Z</time>
      </trkpt>
      <trkpt lat="46.97464" lon="8.76306">
        <ele>600</ele>
        <time>2021-08-05T12:22:54.185Z</time>
      </trkpt>
      <trkpt lat="46.97464" lon="8.76308">
        <ele>600</ele>
        <time>2021-08-05T12:22:55.184Z</time>
      </trkpt>
      <trkpt lat="46.97463" lon="8.76311">
        <ele>600</ele>
        <time>2021-08-05T12:22:56.185Z</time>
      </trkpt>
      <trkpt lat="46.97464" lon="8.76313">
        <ele>602</ele>
        <time>2021-08-05T12:22:57.184Z</time>
      </trkpt>
      <trkpt lat="46.97464" lon="8.76314">
        <ele>603</ele>
        <time>2021-08-05T12:22:58.184Z</time>
      </trkpt>
      <trkpt lat="46.97465" lon="8.76315">
        <ele>604</ele>
        <time>2021-08-05T12:22:59.185Z</time>
      </trkpt>
      <trkpt lat="46.97466" lon="8.76316">
        <ele>605</ele>
        <time>2021-08-05T12:23:00.184Z</time>
      </trkpt>
      <trkpt lat="46.97465" lon="8.76317">
        <ele>606</ele>
        <time>2021-08-05T12:23:01.184Z</time>
      </trkpt>
      <trkpt lat="46.97465" lon="8.76318">
        <ele>607</ele>
        <time>2021-08-05T12:23:02.184Z</time>
      </trkpt>
      <trkpt lat="46.97465" lon="8.76319">
        <ele>608</ele>
        <time>2021-08-05T12:23:03.184Z</time>
      </trkpt>
      <trkpt lat="46.97464" lon="8.7632">
        <ele>608</ele>
        <time>2021-08-05T12:23:04.184Z</time>
      </trkpt>
      <trkpt lat="46.97463" lon="8.76321">
        <ele>609</ele>
        <time>2021-08-05T12:23:05.184Z</time>
      </trkpt>
      <trkpt lat="46.97463" lon="8.76322">
        <ele>609</ele>
        <time>2021-08-05T12:23:06.184Z</time>
      </trkpt>
      <trkpt lat="46.97462" lon="8.76324">
        <ele>610</ele>
        <time>2021-08-05T12:23:07.184Z</time>
      </trkpt>
      <trkpt lat="46.97461" lon="8.76326">
        <ele>610</ele>
        <time>2021-08-05T12:23:08.184Z</time>
      </trkpt>
      <trkpt lat="46.9746" lon="8.76328">
        <ele>610</ele>
        <time>2021-08-05T12:23:09.184Z</time>
      </trkpt>
      <trkpt lat="46.97459" lon="8.76329">
        <ele>611</ele>
        <time>2021-08-05T12:23:10.184Z</time>
      </trkpt>
      <trkpt lat="46.97458" lon="8.76331">
        <ele>611</ele>
        <time>2021-08-05T12:23:11.184Z</time>
      </trkpt>
      <trkpt lat="46.97458" lon="8.76333">
        <ele>612</ele>
        <time>2021-08-05T12:23:12.185Z</time>
      </trkpt>
      <trkpt lat="46.97457" lon="8.76335">
        <ele>612</ele>
        <time>2021-08-05T12:23:13.185Z</time>
      </trkpt>
      <trkpt lat="46.97456" lon="8.76337">
        <ele>613</ele>
        <time>2021-08-05T12:23:14.185Z</time>
      </trkpt>
      <trkpt lat="46.97456" lon="8.76338">
        <ele>613</ele>
        <time>2021-08-05T12:23:15.185Z</time>
      </trkpt>
      <trkpt lat="46.97455" lon="8.76339">
        <ele>613</ele>
        <time>2021-08-05T12:23:16.185Z</time>
      </trkpt>
      <trkpt lat="46.97455" lon="8.7634">
        <ele>613</ele>
        <time>2021-08-05T12:23:17.185Z</time>
      </trkpt>
      <trkpt lat="46.97454" lon="8.76341">
        <ele>613</ele>
        <time>2021-08-05T12:23:18.184Z</time>
      </trkpt>
      <trkpt lat="46.97453" lon="8.76343">
        <ele>613</ele>
        <time>2021-08-05T12:23:19.184Z</time>
      </trkpt>
      <trkpt lat="46.97453" lon="8.76346">
        <ele>614</ele>
        <time>2021-08-05T12:23:20.185Z</time>
      </trkpt>
      <trkpt lat="46.97452" lon="8.76348">
        <ele>614</ele>
        <time>2021-08-05T12:23:21.184Z</time>
      </trkpt>
      <trkpt lat="46.97451" lon="8.7635">
        <ele>614</ele>
        <time>2021-08-05T12:23:22.185Z</time>
      </trkpt>
      <trkpt lat="46.97451" lon="8.76351">
        <ele>614</ele>
        <time>2021-08-05T12:23:23.185Z</time>
      </trkpt>
      <trkpt lat="46.97451" lon="8.76352">
        <ele>615</ele>
        <time>2021-08-05T12:23:24.185Z</time>
      </trkpt>
      <trkpt lat="46.97451" lon="8.76353">
        <ele>615</ele>
        <time>2021-08-05T12:23:25.185Z</time>
      </trkpt>
      <trkpt lat="46.97451" lon="8.76354">
        <ele>616</ele>
        <time>2021-08-05T12:23:26.185Z</time>
      </trkpt>
      <trkpt lat="46.97452" lon="8.76355">
        <ele>617</ele>
        <time>2021-08-05T12:23:27.185Z</time>
      </trkpt>
      <trkpt lat="46.97452" lon="8.76357">
        <ele>617</ele>
        <time>2021-08-05T12:23:28.185Z</time>
      </trkpt>
      <trkpt lat="46.97453" lon="8.76358">
        <ele>618</ele>
        <time>2021-08-05T12:23:29.184Z</time>
      </trkpt>
      <trkpt lat="46.97453" lon="8.76359">
        <ele>619</ele>
        <time>2021-08-05T12:23:30.185Z</time>
      </trkpt>
      <trkpt lat="46.97452" lon="8.76361">
        <ele>620</ele>
        <time>2021-08-05T12:23:31.185Z</time>
      </trkpt>
      <trkpt lat="46.97452" lon="8.76362">
        <ele>620</ele>
        <time>2021-08-05T12:23:32.185Z</time>
      </trkpt>
      <trkpt lat="46.97452" lon="8.76363">
        <ele>620</ele>
        <time>2021-08-05T12:23:33.184Z</time>
      </trkpt>
      <trkpt lat="46.97452" lon="8.76365">
        <ele>621</ele>
        <time>2021-08-05T12:23:34.185Z</time>
      </trkpt>
      <trkpt lat="46.97452" lon="8.76366">
        <ele>621</ele>
        <time>2021-08-05T12:23:35.185Z</time>
      </trkpt>
      <trkpt lat="46.97452" lon="8.76367">
        <ele>621</ele>
        <time>2021-08-05T12:23:36.185Z</time>
      </trkpt>
      <trkpt lat="46.97452" lon="8.76368">
        <ele>621</ele>
        <time>2021-08-05T12:23:37.184Z</time>
      </trkpt>
      <trkpt lat="46.97452" lon="8.76369">
        <ele>621</ele>
        <time>2021-08-05T12:23:38.185Z</time>
      </trkpt>
      <trkpt lat="46.97452" lon="8.76371">
        <ele>621</ele>
        <time>2021-08-05T12:23:39.184Z</time>
      </trkpt>
      <trkpt lat="46.97452" lon="8.76372">
        <ele>621</ele>
        <time>2021-08-05T12:23:40.184Z</time>
      </trkpt>
      <trkpt lat="46.97451" lon="8.76374">
        <ele>621</ele>
        <time>2021-08-05T12:23:41.184Z</time>
      </trkpt>
      <trkpt lat="46.97451" lon="8.76376">
        <ele>621</ele>
        <time>2021-08-05T12:23:42.185Z</time>
      </trkpt>
      <trkpt lat="46.97451" lon="8.76377">
        <ele>620</ele>
        <time>2021-08-05T12:23:43.184Z</time>
      </trkpt>
      <trkpt lat="46.97452" lon="8.76378">
        <ele>620</ele>
        <time>2021-08-05T12:23:44.184Z</time>
      </trkpt>
      <trkpt lat="46.97451" lon="8.76379">
        <ele>621</ele>
        <time>2021-08-05T12:23:45.184Z</time>
      </trkpt>
      <trkpt lat="46.97451" lon="8.76381">
        <ele>621</ele>
        <time>2021-08-05T12:23:49.203Z</time>
      </trkpt>
      <trkpt lat="46.97451" lon="8.76382">
        <ele>621</ele>
        <time>2021-08-05T12:23:50.203Z</time>
      </trkpt>
      <trkpt lat="46.97451" lon="8.76384">
        <ele>621</ele>
        <time>2021-08-05T12:23:51.203Z</time>
      </trkpt>
      <trkpt lat="46.9745" lon="8.76386">
        <ele>622</ele>
        <time>2021-08-05T12:23:52.203Z</time>
      </trkpt>
      <trkpt lat="46.97449" lon="8.76388">
        <ele>621</ele>
        <time>2021-08-05T12:23:53.203Z</time>
      </trkpt>
      <trkpt lat="46.97448" lon="8.7639">
        <ele>621</ele>
        <time>2021-08-05T12:23:54.203Z</time>
      </trkpt>
      <trkpt lat="46.97448" lon="8.76392">
        <ele>621</ele>
        <time>2021-08-05T12:23:55.204Z</time>
      </trkpt>
      <trkpt lat="46.97447" lon="8.76394">
        <ele>621</ele>
        <time>2021-08-05T12:23:56.204Z</time>
      </trkpt>
      <trkpt lat="46.97448" lon="8.76396">
        <ele>621</ele>
        <time>2021-08-05T12:23:57.204Z</time>
      </trkpt>
      <trkpt lat="46.97447" lon="8.76399">
        <ele>621</ele>
        <time>2021-08-05T12:23:58.204Z</time>
      </trkpt>
      <trkpt lat="46.97447" lon="8.764">
        <ele>621</ele>
        <time>2021-08-05T12:23:59.203Z</time>
      </trkpt>
      <trkpt lat="46.97447" lon="8.76402">
        <ele>621</ele>
        <time>2021-08-05T12:24:00.204Z</time>
      </trkpt>
      <trkpt lat="46.97446" lon="8.76404">
        <ele>621</ele>
        <time>2021-08-05T12:24:01.204Z</time>
      </trkpt>
      <trkpt lat="46.97446" lon="8.76406">
        <ele>620</ele>
        <time>2021-08-05T12:24:02.204Z</time>
      </trkpt>
      <trkpt lat="46.97446" lon="8.76407">
        <ele>620</ele>
        <time>2021-08-05T12:24:03.203Z</time>
      </trkpt>
      <trkpt lat="46.97446" lon="8.76408">
        <ele>620</ele>
        <time>2021-08-05T12:24:04.204Z</time>
      </trkpt>
      <trkpt lat="46.97445" lon="8.7641">
        <ele>620</ele>
        <time>2021-08-05T12:24:05.204Z</time>
      </trkpt>
      <trkpt lat="46.97445" lon="8.76411">
        <ele>621</ele>
        <time>2021-08-05T12:24:06.203Z</time>
      </trkpt>
      <trkpt lat="46.97444" lon="8.76413">
        <ele>620</ele>
        <time>2021-08-05T12:24:07.204Z</time>
      </trkpt>
      <trkpt lat="46.97443" lon="8.76415">
        <ele>620</ele>
        <time>2021-08-05T12:24:08.204Z</time>
      </trkpt>
      <trkpt lat="46.97443" lon="8.76417">
        <ele>620</ele>
        <time>2021-08-05T12:24:09.204Z</time>
      </trkpt>
      <trkpt lat="46.97442" lon="8.76419">
        <ele>620</ele>
        <time>2021-08-05T12:24:10.204Z</time>
      </trkpt>
      <trkpt lat="46.97442" lon="8.7642">
        <ele>620</ele>
        <time>2021-08-05T12:24:11.204Z</time>
      </trkpt>
      <trkpt lat="46.97442" lon="8.76421">
        <ele>620</ele>
        <time>2021-08-05T12:24:12.204Z</time>
      </trkpt>
      <trkpt lat="46.97442" lon="8.76422">
        <ele>621</ele>
        <time>2021-08-05T12:24:13.204Z</time>
      </trkpt>
      <trkpt lat="46.97442" lon="8.76424">
        <ele>621</ele>
        <time>2021-08-05T12:24:14.204Z</time>
      </trkpt>
      <trkpt lat="46.97442" lon="8.76426">
        <ele>621</ele>
        <time>2021-08-05T12:24:15.203Z</time>
      </trkpt>
      <trkpt lat="46.9744" lon="8.76428">
        <ele>621</ele>
        <time>2021-08-05T12:24:16.204Z</time>
      </trkpt>
      <trkpt lat="46.9744" lon="8.76429">
        <ele>621</ele>
        <time>2021-08-05T12:24:17.203Z</time>
      </trkpt>
      <trkpt lat="46.9744" lon="8.7643">
        <ele>621</ele>
        <time>2021-08-05T12:24:18.204Z</time>
      </trkpt>
      <trkpt lat="46.97439" lon="8.76432">
        <ele>620</ele>
        <time>2021-08-05T12:24:19.203Z</time>
      </trkpt>
      <trkpt lat="46.9744" lon="8.76433">
        <ele>620</ele>
        <time>2021-08-05T12:24:20.204Z</time>
      </trkpt>
      <trkpt lat="46.9744" lon="8.76435">
        <ele>620</ele>
        <time>2021-08-05T12:24:21.204Z</time>
      </trkpt>
      <trkpt lat="46.9744" lon="8.76436">
        <ele>620</ele>
        <time>2021-08-05T12:24:22.204Z</time>
      </trkpt>
      <trkpt lat="46.9744" lon="8.76438">
        <ele>620</ele>
        <time>2021-08-05T12:24:23.204Z</time>
      </trkpt>
      <trkpt lat="46.97439" lon="8.7644">
        <ele>621</ele>
        <time>2021-08-05T12:24:24.204Z</time>
      </trkpt>
      <trkpt lat="46.97439" lon="8.76442">
        <ele>621</ele>
        <time>2021-08-05T12:24:25.204Z</time>
      </trkpt>
      <trkpt lat="46.97438" lon="8.76443">
        <ele>620</ele>
        <time>2021-08-05T12:24:26.203Z</time>
      </trkpt>
      <trkpt lat="46.97438" lon="8.76445">
        <ele>620</ele>
        <time>2021-08-05T12:24:27.204Z</time>
      </trkpt>
      <trkpt lat="46.97437" lon="8.76446">
        <ele>619</ele>
        <time>2021-08-05T12:24:28.204Z</time>
      </trkpt>
      <trkpt lat="46.97437" lon="8.76448">
        <ele>618</ele>
        <time>2021-08-05T12:24:29.204Z</time>
      </trkpt>
      <trkpt lat="46.97437" lon="8.76449">
        <ele>617</ele>
        <time>2021-08-05T12:24:30.204Z</time>
      </trkpt>
      <trkpt lat="46.97436" lon="8.76451">
        <ele>616</ele>
        <time>2021-08-05T12:24:31.203Z</time>
      </trkpt>
      <trkpt lat="46.97435" lon="8.76453">
        <ele>616</ele>
        <time>2021-08-05T12:24:32.203Z</time>
      </trkpt>
      <trkpt lat="46.97435" lon="8.76454">
        <ele>615</ele>
        <time>2021-08-05T12:24:33.204Z</time>
      </trkpt>
      <trkpt lat="46.97434" lon="8.76457">
        <ele>615</ele>
        <time>2021-08-05T12:24:34.203Z</time>
      </trkpt>
      <trkpt lat="46.97434" lon="8.76459">
        <ele>614</ele>
        <time>2021-08-05T12:24:35.203Z</time>
      </trkpt>
      <trkpt lat="46.97434" lon="8.76461">
        <ele>614</ele>
        <time>2021-08-05T12:24:36.204Z</time>
      </trkpt>
      <trkpt lat="46.97433" lon="8.76463">
        <ele>614</ele>
        <time>2021-08-05T12:24:37.204Z</time>
      </trkpt>
      <trkpt lat="46.97432" lon="8.76465">
        <ele>614</ele>
        <time>2021-08-05T12:24:38.203Z</time>
      </trkpt>
      <trkpt lat="46.97431" lon="8.76467">
        <ele>614</ele>
        <time>2021-08-05T12:24:39.204Z</time>
      </trkpt>
      <trkpt lat="46.97431" lon="8.76468">
        <ele>614</ele>
        <time>2021-08-05T12:24:40.204Z</time>
      </trkpt>
      <trkpt lat="46.9743" lon="8.7647">
        <ele>614</ele>
        <time>2021-08-05T12:24:41.204Z</time>
      </trkpt>
      <trkpt lat="46.97429" lon="8.76472">
        <ele>614</ele>
        <time>2021-08-05T12:24:42.204Z</time>
      </trkpt>
      <trkpt lat="46.97429" lon="8.76473">
        <ele>614</ele>
        <time>2021-08-05T12:24:43.204Z</time>
      </trkpt>
      <trkpt lat="46.97429" lon="8.76475">
        <ele>614</ele>
        <time>2021-08-05T12:24:44.204Z</time>
      </trkpt>
      <trkpt lat="46.97429" lon="8.76477">
        <ele>614</ele>
        <time>2021-08-05T12:24:45.204Z</time>
      </trkpt>
      <trkpt lat="46.97428" lon="8.76479">
        <ele>615</ele>
        <time>2021-08-05T12:24:46.203Z</time>
      </trkpt>
      <trkpt lat="46.97428" lon="8.7648">
        <ele>615</ele>
        <time>2021-08-05T12:24:47.204Z</time>
      </trkpt>
      <trkpt lat="46.97427" lon="8.76483">
        <ele>615</ele>
        <time>2021-08-05T12:24:48.203Z</time>
      </trkpt>
      <trkpt lat="46.97427" lon="8.76484">
        <ele>616</ele>
        <time>2021-08-05T12:24:49.204Z</time>
      </trkpt>
      <trkpt lat="46.97427" lon="8.76486">
        <ele>616</ele>
        <time>2021-08-05T12:24:50.204Z</time>
      </trkpt>
      <trkpt lat="46.97427" lon="8.76489">
        <ele>616</ele>
        <time>2021-08-05T12:24:51.203Z</time>
      </trkpt>
      <trkpt lat="46.97426" lon="8.76491">
        <ele>617</ele>
        <time>2021-08-05T12:24:52.203Z</time>
      </trkpt>
      <trkpt lat="46.97426" lon="8.76494">
        <ele>617</ele>
        <time>2021-08-05T12:24:53.203Z</time>
      </trkpt>
      <trkpt lat="46.97425" lon="8.76496">
        <ele>617</ele>
        <time>2021-08-05T12:24:54.203Z</time>
      </trkpt>
      <trkpt lat="46.97425" lon="8.76498">
        <ele>617</ele>
        <time>2021-08-05T12:24:55.203Z</time>
      </trkpt>
      <trkpt lat="46.97423" lon="8.765">
        <ele>617</ele>
        <time>2021-08-05T12:24:56.203Z</time>
      </trkpt>
      <trkpt lat="46.97422" lon="8.76502">
        <ele>617</ele>
        <time>2021-08-05T12:24:57.204Z</time>
      </trkpt>
      <trkpt lat="46.97422" lon="8.76504">
        <ele>617</ele>
        <time>2021-08-05T12:24:58.203Z</time>
      </trkpt>
      <trkpt lat="46.97421" lon="8.76506">
        <ele>616</ele>
        <time>2021-08-05T12:24:59.204Z</time>
      </trkpt>
      <trkpt lat="46.97421" lon="8.76508">
        <ele>616</ele>
        <time>2021-08-05T12:25:00.204Z</time>
      </trkpt>
      <trkpt lat="46.97421" lon="8.76511">
        <ele>616</ele>
        <time>2021-08-05T12:25:01.203Z</time>
      </trkpt>
      <trkpt lat="46.97421" lon="8.76513">
        <ele>616</ele>
        <time>2021-08-05T12:25:02.203Z</time>
      </trkpt>
      <trkpt lat="46.97421" lon="8.76515">
        <ele>617</ele>
        <time>2021-08-05T12:25:03.203Z</time>
      </trkpt>
      <trkpt lat="46.9742" lon="8.76517">
        <ele>617</ele>
        <time>2021-08-05T12:25:04.203Z</time>
      </trkpt>
      <trkpt lat="46.9742" lon="8.76519">
        <ele>618</ele>
        <time>2021-08-05T12:25:05.204Z</time>
      </trkpt>
      <trkpt lat="46.9742" lon="8.76521">
        <ele>618</ele>
        <time>2021-08-05T12:25:06.203Z</time>
      </trkpt>
      <trkpt lat="46.97419" lon="8.76522">
        <ele>618</ele>
        <time>2021-08-05T12:25:07.204Z</time>
      </trkpt>
      <trkpt lat="46.97419" lon="8.76524">
        <ele>618</ele>
        <time>2021-08-05T12:25:08.204Z</time>
      </trkpt>
      <trkpt lat="46.97418" lon="8.76526">
        <ele>618</ele>
        <time>2021-08-05T12:25:09.204Z</time>
      </trkpt>
      <trkpt lat="46.97418" lon="8.76527">
        <ele>617</ele>
        <time>2021-08-05T12:25:10.203Z</time>
      </trkpt>
      <trkpt lat="46.97418" lon="8.76528">
        <ele>617</ele>
        <time>2021-08-05T12:25:11.204Z</time>
      </trkpt>
      <trkpt lat="46.97419" lon="8.76531">
        <ele>617</ele>
        <time>2021-08-05T12:25:12.203Z</time>
      </trkpt>
      <trkpt lat="46.97419" lon="8.76532">
        <ele>617</ele>
        <time>2021-08-05T12:25:13.204Z</time>
      </trkpt>
      <trkpt lat="46.97418" lon="8.76533">
        <ele>617</ele>
        <time>2021-08-05T12:25:14.204Z</time>
      </trkpt>
      <trkpt lat="46.97418" lon="8.76534">
        <ele>617</ele>
        <time>2021-08-05T12:25:15.204Z</time>
      </trkpt>
      <trkpt lat="46.97418" lon="8.76535">
        <ele>617</ele>
        <time>2021-08-05T12:25:16.204Z</time>
      </trkpt>
      <trkpt lat="46.97418" lon="8.76535">
        <ele>618</ele>
        <time>2021-08-05T12:25:17.204Z</time>
      </trkpt>
      <trkpt lat="46.97418" lon="8.76535">
        <ele>618</ele>
        <time>2021-08-05T12:25:18.204Z</time>
      </trkpt>
      <trkpt lat="46.97417" lon="8.76535">
        <ele>618</ele>
        <time>2021-08-05T12:25:19.204Z</time>
      </trkpt>
      <trkpt lat="46.97416" lon="8.76535">
        <ele>619</ele>
        <time>2021-08-05T12:25:20.204Z</time>
      </trkpt>
      <trkpt lat="46.97415" lon="8.76534">
        <ele>619</ele>
        <time>2021-08-05T12:25:21.204Z</time>
      </trkpt>
      <trkpt lat="46.97414" lon="8.76534">
        <ele>619</ele>
        <time>2021-08-05T12:25:22.204Z</time>
      </trkpt>
      <trkpt lat="46.97414" lon="8.76534">
        <ele>620</ele>
        <time>2021-08-05T12:25:23.204Z</time>
      </trkpt>
      <trkpt lat="46.97415" lon="8.76535">
        <ele>620</ele>
        <time>2021-08-05T12:25:24.204Z</time>
      </trkpt>
      <trkpt lat="46.97416" lon="8.76536">
        <ele>620</ele>
        <time>2021-08-05T12:25:25.204Z</time>
      </trkpt>
      <trkpt lat="46.97417" lon="8.76537">
        <ele>620</ele>
        <time>2021-08-05T12:25:26.203Z</time>
      </trkpt>
      <trkpt lat="46.97418" lon="8.76537">
        <ele>620</ele>
        <time>2021-08-05T12:25:27.203Z</time>
      </trkpt>
      <trkpt lat="46.97419" lon="8.76536">
        <ele>620</ele>
        <time>2021-08-05T12:25:28.204Z</time>
      </trkpt>
      <trkpt lat="46.97419" lon="8.76535">
        <ele>620</ele>
        <time>2021-08-05T12:25:29.204Z</time>
      </trkpt>
      <trkpt lat="46.97418" lon="8.76534">
        <ele>620</ele>
        <time>2021-08-05T12:25:30.204Z</time>
      </trkpt>
      <trkpt lat="46.97417" lon="8.76532">
        <ele>621</ele>
        <time>2021-08-05T12:25:31.204Z</time>
      </trkpt>
      <trkpt lat="46.97416" lon="8.76531">
        <ele>621</ele>
        <time>2021-08-05T12:25:32.204Z</time>
      </trkpt>
      <trkpt lat="46.97415" lon="8.7653">
        <ele>621</ele>
        <time>2021-08-05T12:25:33.203Z</time>
      </trkpt>
      <trkpt lat="46.97414" lon="8.76529">
        <ele>621</ele>
        <time>2021-08-05T12:25:34.204Z</time>
      </trkpt>
      <trkpt lat="46.97413" lon="8.76527">
        <ele>621</ele>
        <time>2021-08-05T12:25:35.203Z</time>
      </trkpt>
      <trkpt lat="46.97412" lon="8.76525">
        <ele>621</ele>
        <time>2021-08-05T12:25:36.203Z</time>
      </trkpt>
      <trkpt lat="46.97411" lon="8.76524">
        <ele>621</ele>
        <time>2021-08-05T12:25:37.203Z</time>
      </trkpt>
      <trkpt lat="46.9741" lon="8.76522">
        <ele>621</ele>
        <time>2021-08-05T12:25:38.203Z</time>
      </trkpt>
      <trkpt lat="46.97409" lon="8.76521">
        <ele>621</ele>
        <time>2021-08-05T12:25:39.203Z</time>
      </trkpt>
      <trkpt lat="46.97409" lon="8.76518">
        <ele>621</ele>
        <time>2021-08-05T12:25:40.204Z</time>
      </trkpt>
      <trkpt lat="46.97408" lon="8.76514">
        <ele>621</ele>
        <time>2021-08-05T12:25:41.204Z</time>
      </trkpt>
      <trkpt lat="46.97407" lon="8.76513">
        <ele>621</ele>
        <time>2021-08-05T12:25:42.203Z</time>
      </trkpt>
      <trkpt lat="46.97392" lon="8.76544">
        <ele>620</ele>
        <time>2021-08-05T12:26:52.204Z</time>
      </trkpt>
      <trkpt lat="46.97395" lon="8.76526">
        <ele>619</ele>
        <time>2021-08-05T12:26:53.204Z</time>
      </trkpt>
      <trkpt lat="46.97391" lon="8.76519">
        <ele>618</ele>
        <time>2021-08-05T12:26:54.204Z</time>
      </trkpt>
      <trkpt lat="46.97385" lon="8.7652">
        <ele>617</ele>
        <time>2021-08-05T12:26:55.204Z</time>
      </trkpt>
      <trkpt lat="46.97383" lon="8.76519">
        <ele>617</ele>
        <time>2021-08-05T12:26:56.203Z</time>
      </trkpt>
      <trkpt lat="46.9738" lon="8.76517">
        <ele>616</ele>
        <time>2021-08-05T12:26:57.204Z</time>
      </trkpt>
      <trkpt lat="46.97381" lon="8.76508">
        <ele>614</ele>
        <time>2021-08-05T12:27:01.196Z</time>
      </trkpt>
      <trkpt lat="46.97382" lon="8.76506">
        <ele>613</ele>
        <time>2021-08-05T12:27:04.035Z</time>
      </trkpt>
      <trkpt lat="46.97383" lon="8.76506">
        <ele>613</ele>
        <time>2021-08-05T12:27:05.036Z</time>
      </trkpt>
      <trkpt lat="46.97385" lon="8.76506">
        <ele>611</ele>
        <time>2021-08-05T12:27:06.036Z</time>
      </trkpt>
      <trkpt lat="46.97384" lon="8.76507">
        <ele>612</ele>
        <time>2021-08-05T12:27:07.036Z</time>
      </trkpt>
      <trkpt lat="46.97384" lon="8.76508">
        <ele>612</ele>
        <time>2021-08-05T12:27:08.035Z</time>
      </trkpt>
      <trkpt lat="46.97384" lon="8.76508">
        <ele>612</ele>
        <time>2021-08-05T12:27:09.036Z</time>
      </trkpt>
      <trkpt lat="46.97383" lon="8.76507">
        <ele>612</ele>
        <time>2021-08-05T12:27:10.036Z</time>
      </trkpt>
      <trkpt lat="46.97384" lon="8.76507">
        <ele>612</ele>
        <time>2021-08-05T12:27:11.036Z</time>
      </trkpt>
      <trkpt lat="46.97385" lon="8.76506">
        <ele>612</ele>
        <time>2021-08-05T12:27:12.035Z</time>
      </trkpt>
      <trkpt lat="46.97386" lon="8.76506">
        <ele>612</ele>
        <time>2021-08-05T12:27:13.036Z</time>
      </trkpt>
      <trkpt lat="46.97386" lon="8.76506">
        <ele>612</ele>
        <time>2021-08-05T12:27:14.036Z</time>
      </trkpt>
      <trkpt lat="46.97385" lon="8.76506">
        <ele>612</ele>
        <time>2021-08-05T12:27:15.036Z</time>
      </trkpt>
      <trkpt lat="46.97384" lon="8.76507">
        <ele>613</ele>
        <time>2021-08-05T12:27:16.037Z</time>
      </trkpt>
      <trkpt lat="46.97385" lon="8.76507">
        <ele>612</ele>
        <time>2021-08-05T12:27:17.036Z</time>
      </trkpt>
      <trkpt lat="46.97386" lon="8.76507">
        <ele>612</ele>
        <time>2021-08-05T12:27:18.036Z</time>
      </trkpt>
      <trkpt lat="46.97386" lon="8.76507">
        <ele>612</ele>
        <time>2021-08-05T12:27:19.037Z</time>
      </trkpt>
      <trkpt lat="46.97387" lon="8.76507">
        <ele>612</ele>
        <time>2021-08-05T12:27:20.036Z</time>
      </trkpt>
      <trkpt lat="46.97388" lon="8.76507">
        <ele>612</ele>
        <time>2021-08-05T12:27:21.037Z</time>
      </trkpt>
      <trkpt lat="46.97388" lon="8.76507">
        <ele>612</ele>
        <time>2021-08-05T12:27:22.037Z</time>
      </trkpt>
      <trkpt lat="46.97388" lon="8.76506">
        <ele>612</ele>
        <time>2021-08-05T12:27:23.037Z</time>
      </trkpt>
      <trkpt lat="46.97388" lon="8.76506">
        <ele>612</ele>
        <time>2021-08-05T12:27:24.036Z</time>
      </trkpt>
      <trkpt lat="46.97388" lon="8.76507">
        <ele>611</ele>
        <time>2021-08-05T12:27:25.037Z</time>
      </trkpt>
      <trkpt lat="46.97389" lon="8.76508">
        <ele>611</ele>
        <time>2021-08-05T12:27:26.037Z</time>
      </trkpt>
      <trkpt lat="46.97389" lon="8.76509">
        <ele>611</ele>
        <time>2021-08-05T12:27:27.037Z</time>
      </trkpt>
      <trkpt lat="46.9739" lon="8.76509">
        <ele>610</ele>
        <time>2021-08-05T12:27:28.037Z</time>
      </trkpt>
      <trkpt lat="46.97391" lon="8.7651">
        <ele>610</ele>
        <time>2021-08-05T12:27:29.036Z</time>
      </trkpt>
      <trkpt lat="46.97391" lon="8.76511">
        <ele>610</ele>
        <time>2021-08-05T12:27:30.037Z</time>
      </trkpt>
      <trkpt lat="46.97391" lon="8.76511">
        <ele>610</ele>
        <time>2021-08-05T12:27:31.036Z</time>
      </trkpt>
      <trkpt lat="46.97391" lon="8.76512">
        <ele>610</ele>
        <time>2021-08-05T12:27:32.037Z</time>
      </trkpt>
      <trkpt lat="46.97392" lon="8.76513">
        <ele>610</ele>
        <time>2021-08-05T12:27:33.036Z</time>
      </trkpt>
      <trkpt lat="46.97392" lon="8.76513">
        <ele>609</ele>
        <time>2021-08-05T12:27:34.036Z</time>
      </trkpt>
      <trkpt lat="46.97393" lon="8.76513">
        <ele>609</ele>
        <time>2021-08-05T12:27:35.036Z</time>
      </trkpt>
      <trkpt lat="46.97393" lon="8.76514">
        <ele>609</ele>
        <time>2021-08-05T12:27:36.037Z</time>
      </trkpt>
      <trkpt lat="46.97393" lon="8.76515">
        <ele>609</ele>
        <time>2021-08-05T12:27:37.037Z</time>
      </trkpt>
      <trkpt lat="46.97394" lon="8.76516">
        <ele>609</ele>
        <time>2021-08-05T12:27:38.036Z</time>
      </trkpt>
      <trkpt lat="46.97393" lon="8.76517">
        <ele>609</ele>
        <time>2021-08-05T12:27:39.036Z</time>
      </trkpt>
      <trkpt lat="46.97393" lon="8.76518">
        <ele>610</ele>
        <time>2021-08-05T12:27:40.036Z</time>
      </trkpt>
      <trkpt lat="46.97393" lon="8.76519">
        <ele>610</ele>
        <time>2021-08-05T12:27:41.037Z</time>
      </trkpt>
      <trkpt lat="46.97393" lon="8.7652">
        <ele>610</ele>
        <time>2021-08-05T12:27:42.036Z</time>
      </trkpt>
      <trkpt lat="46.97394" lon="8.7652">
        <ele>610</ele>
        <time>2021-08-05T12:27:43.036Z</time>
      </trkpt>
      <trkpt lat="46.97394" lon="8.7652">
        <ele>611</ele>
        <time>2021-08-05T12:27:44.036Z</time>
      </trkpt>
      <trkpt lat="46.97395" lon="8.7652">
        <ele>611</ele>
        <time>2021-08-05T12:27:45.036Z</time>
      </trkpt>
      <trkpt lat="46.97396" lon="8.7652">
        <ele>611</ele>
        <time>2021-08-05T12:27:46.037Z</time>
      </trkpt>
      <trkpt lat="46.97396" lon="8.76521">
        <ele>611</ele>
        <time>2021-08-05T12:27:47.036Z</time>
      </trkpt>
      <trkpt lat="46.97396" lon="8.76521">
        <ele>611</ele>
        <time>2021-08-05T12:27:48.036Z</time>
      </trkpt>
      <trkpt lat="46.97396" lon="8.76522">
        <ele>611</ele>
        <time>2021-08-05T12:27:49.036Z</time>
      </trkpt>
      <trkpt lat="46.97395" lon="8.76523">
        <ele>611</ele>
        <time>2021-08-05T12:27:50.036Z</time>
      </trkpt>
      <trkpt lat="46.97394" lon="8.76524">
        <ele>611</ele>
        <time>2021-08-05T12:27:51.036Z</time>
      </trkpt>
      <trkpt lat="46.97394" lon="8.76525">
        <ele>611</ele>
        <time>2021-08-05T12:27:52.036Z</time>
      </trkpt>
      <trkpt lat="46.97394" lon="8.76525">
        <ele>611</ele>
        <time>2021-08-05T12:27:53.036Z</time>
      </trkpt>
      <trkpt lat="46.97394" lon="8.76525">
        <ele>611</ele>
        <time>2021-08-05T12:27:55.036Z</time>
      </trkpt>
      <trkpt lat="46.974" lon="8.76525">
        <ele>610</ele>
        <time>2021-08-05T12:27:56.037Z</time>
      </trkpt>
      <trkpt lat="46.974" lon="8.76526">
        <ele>610</ele>
        <time>2021-08-05T12:28:00.063Z</time>
      </trkpt>
      <trkpt lat="46.97401" lon="8.76527">
        <ele>610</ele>
        <time>2021-08-05T12:28:01.062Z</time>
      </trkpt>
      <trkpt lat="46.97402" lon="8.76527">
        <ele>610</ele>
        <time>2021-08-05T12:28:02.062Z</time>
      </trkpt>
      <trkpt lat="46.97403" lon="8.76528">
        <ele>610</ele>
        <time>2021-08-05T12:28:03.063Z</time>
      </trkpt>
      <trkpt lat="46.97402" lon="8.76528">
        <ele>610</ele>
        <time>2021-08-05T12:28:04.063Z</time>
      </trkpt>
      <trkpt lat="46.97401" lon="8.76527">
        <ele>610</ele>
        <time>2021-08-05T12:28:05.062Z</time>
      </trkpt>
      <trkpt lat="46.974" lon="8.76527">
        <ele>610</ele>
        <time>2021-08-05T12:28:06.062Z</time>
      </trkpt>
      <trkpt lat="46.97399" lon="8.76526">
        <ele>610</ele>
        <time>2021-08-05T12:28:07.063Z</time>
      </trkpt>
      <trkpt lat="46.97398" lon="8.76525">
        <ele>610</ele>
        <time>2021-08-05T12:28:08.063Z</time>
      </trkpt>
      <trkpt lat="46.97398" lon="8.76525">
        <ele>610</ele>
        <time>2021-08-05T12:28:09.062Z</time>
      </trkpt>
      <trkpt lat="46.97398" lon="8.76525">
        <ele>611</ele>
        <time>2021-08-05T12:28:10.062Z</time>
      </trkpt>
      <trkpt lat="46.97399" lon="8.76524">
        <ele>611</ele>
        <time>2021-08-05T12:28:11.063Z</time>
      </trkpt>
      <trkpt lat="46.97401" lon="8.76524">
        <ele>612</ele>
        <time>2021-08-05T12:28:12.063Z</time>
      </trkpt>
      <trkpt lat="46.97401" lon="8.76524">
        <ele>612</ele>
        <time>2021-08-05T12:28:13.063Z</time>
      </trkpt>
      <trkpt lat="46.97401" lon="8.76524">
        <ele>612</ele>
        <time>2021-08-05T12:28:14.062Z</time>
      </trkpt>
      <trkpt lat="46.97401" lon="8.76523">
        <ele>612</ele>
        <time>2021-08-05T12:28:15.064Z</time>
      </trkpt>
      <trkpt lat="46.97402" lon="8.76523">
        <ele>612</ele>
        <time>2021-08-05T12:28:16.063Z</time>
      </trkpt>
      <trkpt lat="46.97403" lon="8.76522">
        <ele>612</ele>
        <time>2021-08-05T12:28:17.063Z</time>
      </trkpt>
      <trkpt lat="46.97404" lon="8.76522">
        <ele>612</ele>
        <time>2021-08-05T12:28:18.063Z</time>
      </trkpt>
      <trkpt lat="46.97405" lon="8.76521">
        <ele>612</ele>
        <time>2021-08-05T12:28:19.064Z</time>
      </trkpt>
      <trkpt lat="46.97406" lon="8.76522">
        <ele>613</ele>
        <time>2021-08-05T12:28:20.064Z</time>
      </trkpt>
      <trkpt lat="46.97406" lon="8.76522">
        <ele>613</ele>
        <time>2021-08-05T12:28:21.063Z</time>
      </trkpt>
      <trkpt lat="46.97405" lon="8.76523">
        <ele>613</ele>
        <time>2021-08-05T12:28:22.064Z</time>
      </trkpt>
      <trkpt lat="46.97404" lon="8.76523">
        <ele>613</ele>
        <time>2021-08-05T12:28:23.064Z</time>
      </trkpt>
      <trkpt lat="46.97402" lon="8.76524">
        <ele>616</ele>
        <time>2021-08-05T12:28:24.064Z</time>
      </trkpt>
      <trkpt lat="46.97401" lon="8.76524">
        <ele>616</ele>
        <time>2021-08-05T12:28:25.064Z</time>
      </trkpt>
      <trkpt lat="46.974" lon="8.76525">
        <ele>617</ele>
        <time>2021-08-05T12:28:26.063Z</time>
      </trkpt>
      <trkpt lat="46.97399" lon="8.76526">
        <ele>617</ele>
        <time>2021-08-05T12:28:27.064Z</time>
      </trkpt>
      <trkpt lat="46.97395" lon="8.76528">
        <ele>618</ele>
        <time>2021-08-05T12:28:28.064Z</time>
      </trkpt>
      <trkpt lat="46.97391" lon="8.76529">
        <ele>618</ele>
        <time>2021-08-05T12:28:29.064Z</time>
      </trkpt>
      <trkpt lat="46.97388" lon="8.7653">
        <ele>618</ele>
        <time>2021-08-05T12:28:30.063Z</time>
      </trkpt>
      <trkpt lat="46.97386" lon="8.7653">
        <ele>619</ele>
        <time>2021-08-05T12:28:31.063Z</time>
      </trkpt>
      <trkpt lat="46.97385" lon="8.76531">
        <ele>619</ele>
        <time>2021-08-05T12:28:32.063Z</time>
      </trkpt>
      <trkpt lat="46.97383" lon="8.7653">
        <ele>620</ele>
        <time>2021-08-05T12:28:34.064Z</time>
      </trkpt>
      <trkpt lat="46.97382" lon="8.76529">
        <ele>620</ele>
        <time>2021-08-05T12:28:35.064Z</time>
      </trkpt>
      <trkpt lat="46.97381" lon="8.76528">
        <ele>620</ele>
        <time>2021-08-05T12:28:36.063Z</time>
      </trkpt>
      <trkpt lat="46.9738" lon="8.76528">
        <ele>620</ele>
        <time>2021-08-05T12:28:37.064Z</time>
      </trkpt>
      <trkpt lat="46.97379" lon="8.76528">
        <ele>620</ele>
        <time>2021-08-05T12:28:38.064Z</time>
      </trkpt>
      <trkpt lat="46.97381" lon="8.76527">
        <ele>620</ele>
        <time>2021-08-05T12:28:39.064Z</time>
      </trkpt>
      <trkpt lat="46.97384" lon="8.76528">
        <ele>620</ele>
        <time>2021-08-05T12:28:40.064Z</time>
      </trkpt>
      <trkpt lat="46.97386" lon="8.76528">
        <ele>619</ele>
        <time>2021-08-05T12:28:41.064Z</time>
      </trkpt>
      <trkpt lat="46.97388" lon="8.76528">
        <ele>619</ele>
        <time>2021-08-05T12:28:42.064Z</time>
      </trkpt>
      <trkpt lat="46.97391" lon="8.76527">
        <ele>617</ele>
        <time>2021-08-05T12:28:43.064Z</time>
      </trkpt>
      <trkpt lat="46.97391" lon="8.76527">
        <ele>617</ele>
        <time>2021-08-05T12:28:44.064Z</time>
      </trkpt>
      <trkpt lat="46.97391" lon="8.76527">
        <ele>616</ele>
        <time>2021-08-05T12:28:45.063Z</time>
      </trkpt>
      <trkpt lat="46.97391" lon="8.76528">
        <ele>616</ele>
        <time>2021-08-05T12:28:46.063Z</time>
      </trkpt>
      <trkpt lat="46.9739" lon="8.76528">
        <ele>615</ele>
        <time>2021-08-05T12:28:47.063Z</time>
      </trkpt>
      <trkpt lat="46.9739" lon="8.76527">
        <ele>615</ele>
        <time>2021-08-05T12:28:48.063Z</time>
      </trkpt>
      <trkpt lat="46.9739" lon="8.76526">
        <ele>614</ele>
        <time>2021-08-05T12:28:49.064Z</time>
      </trkpt>
      <trkpt lat="46.9739" lon="8.76525">
        <ele>614</ele>
        <time>2021-08-05T12:28:50.064Z</time>
      </trkpt>
      <trkpt lat="46.9739" lon="8.76525">
        <ele>614</ele>
        <time>2021-08-05T12:28:51.064Z</time>
      </trkpt>
      <trkpt lat="46.9739" lon="8.76524">
        <ele>614</ele>
        <time>2021-08-05T12:28:52.065Z</time>
      </trkpt>
      <trkpt lat="46.97391" lon="8.76523">
        <ele>614</ele>
        <time>2021-08-05T12:28:53.065Z</time>
      </trkpt>
      <trkpt lat="46.97391" lon="8.76523">
        <ele>614</ele>
        <time>2021-08-05T12:28:54.065Z</time>
      </trkpt>
      <trkpt lat="46.9739" lon="8.76523">
        <ele>614</ele>
        <time>2021-08-05T12:28:55.064Z</time>
      </trkpt>
      <trkpt lat="46.97389" lon="8.76524">
        <ele>615</ele>
        <time>2021-08-05T12:28:56.065Z</time>
      </trkpt>
      <trkpt lat="46.97388" lon="8.76525">
        <ele>615</ele>
        <time>2021-08-05T12:28:57.065Z</time>
      </trkpt>
      <trkpt lat="46.97387" lon="8.76526">
        <ele>615</ele>
        <time>2021-08-05T12:28:58.064Z</time>
      </trkpt>
      <trkpt lat="46.97385" lon="8.76527">
        <ele>615</ele>
        <time>2021-08-05T12:28:59.065Z</time>
      </trkpt>
      <trkpt lat="46.97383" lon="8.76528">
        <ele>615</ele>
        <time>2021-08-05T12:29:00.065Z</time>
      </trkpt>
      <trkpt lat="46.97382" lon="8.76528">
        <ele>616</ele>
        <time>2021-08-05T12:29:01.065Z</time>
      </trkpt>
      <trkpt lat="46.97382" lon="8.76528">
        <ele>616</ele>
        <time>2021-08-05T12:29:02.065Z</time>
      </trkpt>
      <trkpt lat="46.97382" lon="8.76527">
        <ele>616</ele>
        <time>2021-08-05T12:29:03.065Z</time>
      </trkpt>
      <trkpt lat="46.97382" lon="8.76527">
        <ele>617</ele>
        <time>2021-08-05T12:29:04.065Z</time>
      </trkpt>
      <trkpt lat="46.97383" lon="8.76528">
        <ele>617</ele>
        <time>2021-08-05T12:29:05.065Z</time>
      </trkpt>
      <trkpt lat="46.97385" lon="8.76528">
        <ele>618</ele>
        <time>2021-08-05T12:29:06.065Z</time>
      </trkpt>
      <trkpt lat="46.97386" lon="8.76528">
        <ele>618</ele>
        <time>2021-08-05T12:29:07.065Z</time>
      </trkpt>
      <trkpt lat="46.97387" lon="8.76528">
        <ele>619</ele>
        <time>2021-08-05T12:29:08.065Z</time>
      </trkpt>
      <trkpt lat="46.97388" lon="8.76528">
        <ele>619</ele>
        <time>2021-08-05T12:29:09.065Z</time>
      </trkpt>
      <trkpt lat="46.97389" lon="8.76528">
        <ele>620</ele>
        <time>2021-08-05T12:29:10.064Z</time>
      </trkpt>
      <trkpt lat="46.97395" lon="8.76525">
        <ele>622</ele>
        <time>2021-08-05T12:29:11.065Z</time>
      </trkpt>
      <trkpt lat="46.97396" lon="8.76524">
        <ele>622</ele>
        <time>2021-08-05T12:29:12.065Z</time>
      </trkpt>
      <trkpt lat="46.97397" lon="8.76522">
        <ele>622</ele>
        <time>2021-08-05T12:29:13.065Z</time>
      </trkpt>
      <trkpt lat="46.97397" lon="8.7652">
        <ele>623</ele>
        <time>2021-08-05T12:29:14.065Z</time>
      </trkpt>
      <trkpt lat="46.97397" lon="8.76518">
        <ele>623</ele>
        <time>2021-08-05T12:29:15.066Z</time>
      </trkpt>
      <trkpt lat="46.97397" lon="8.76516">
        <ele>623</ele>
        <time>2021-08-05T12:29:16.066Z</time>
      </trkpt>
      <trkpt lat="46.97397" lon="8.76515">
        <ele>623</ele>
        <time>2021-08-05T12:29:17.065Z</time>
      </trkpt>
      <trkpt lat="46.97397" lon="8.76514">
        <ele>623</ele>
        <time>2021-08-05T12:29:18.065Z</time>
      </trkpt>
      <trkpt lat="46.97397" lon="8.76514">
        <ele>623</ele>
        <time>2021-08-05T12:29:19.065Z</time>
      </trkpt>
      <trkpt lat="46.97398" lon="8.76514">
        <ele>623</ele>
        <time>2021-08-05T12:29:20.067Z</time>
      </trkpt>
      <trkpt lat="46.97399" lon="8.76514">
        <ele>623</ele>
        <time>2021-08-05T12:29:21.066Z</time>
      </trkpt>
      <trkpt lat="46.974" lon="8.76514">
        <ele>623</ele>
        <time>2021-08-05T12:29:22.067Z</time>
      </trkpt>
      <trkpt lat="46.974" lon="8.76513">
        <ele>622</ele>
        <time>2021-08-05T12:29:23.066Z</time>
      </trkpt>
      <trkpt lat="46.97401" lon="8.76513">
        <ele>623</ele>
        <time>2021-08-05T12:29:24.067Z</time>
      </trkpt>
      <trkpt lat="46.97401" lon="8.76512">
        <ele>623</ele>
        <time>2021-08-05T12:29:25.066Z</time>
      </trkpt>
      <trkpt lat="46.97401" lon="8.76512">
        <ele>623</ele>
        <time>2021-08-05T12:29:26.066Z</time>
      </trkpt>
      <trkpt lat="46.974" lon="8.76512">
        <ele>623</ele>
        <time>2021-08-05T12:29:27.067Z</time>
      </trkpt>
      <trkpt lat="46.974" lon="8.76512">
        <ele>623</ele>
        <time>2021-08-05T12:29:28.067Z</time>
      </trkpt>
      <trkpt lat="46.97399" lon="8.76511">
        <ele>623</ele>
        <time>2021-08-05T12:29:29.067Z</time>
      </trkpt>
      <trkpt lat="46.97398" lon="8.76511">
        <ele>623</ele>
        <time>2021-08-05T12:29:30.067Z</time>
      </trkpt>
      <trkpt lat="46.97397" lon="8.76511">
        <ele>622</ele>
        <time>2021-08-05T12:29:31.066Z</time>
      </trkpt>
      <trkpt lat="46.97398" lon="8.76511">
        <ele>622</ele>
        <time>2021-08-05T12:29:32.067Z</time>
      </trkpt>
      <trkpt lat="46.97398" lon="8.76512">
        <ele>622</ele>
        <time>2021-08-05T12:29:33.067Z</time>
      </trkpt>
      <trkpt lat="46.97399" lon="8.76512">
        <ele>622</ele>
        <time>2021-08-05T12:29:34.066Z</time>
      </trkpt>
      <trkpt lat="46.97399" lon="8.76512">
        <ele>622</ele>
        <time>2021-08-05T12:29:35.066Z</time>
      </trkpt>
      <trkpt lat="46.97398" lon="8.76513">
        <ele>621</ele>
        <time>2021-08-05T12:29:36.066Z</time>
      </trkpt>
      <trkpt lat="46.97398" lon="8.76513">
        <ele>621</ele>
        <time>2021-08-05T12:29:37.067Z</time>
      </trkpt>
      <trkpt lat="46.97401" lon="8.76515">
        <ele>620</ele>
        <time>2021-08-05T12:29:38.067Z</time>
      </trkpt>
      <trkpt lat="46.97402" lon="8.76516">
        <ele>620</ele>
        <time>2021-08-05T12:29:39.067Z</time>
      </trkpt>
      <trkpt lat="46.97403" lon="8.76516">
        <ele>620</ele>
        <time>2021-08-05T12:29:40.066Z</time>
      </trkpt>
      <trkpt lat="46.97403" lon="8.76516">
        <ele>620</ele>
        <time>2021-08-05T12:29:41.067Z</time>
      </trkpt>
      <trkpt lat="46.97404" lon="8.76517">
        <ele>619</ele>
        <time>2021-08-05T12:29:42.067Z</time>
      </trkpt>
      <trkpt lat="46.97404" lon="8.76517">
        <ele>619</ele>
        <time>2021-08-05T12:29:43.067Z</time>
      </trkpt>
      <trkpt lat="46.97405" lon="8.76517">
        <ele>619</ele>
        <time>2021-08-05T12:29:44.067Z</time>
      </trkpt>
      <trkpt lat="46.97406" lon="8.76517">
        <ele>619</ele>
        <time>2021-08-05T12:29:45.066Z</time>
      </trkpt>
      <trkpt lat="46.97407" lon="8.76517">
        <ele>619</ele>
        <time>2021-08-05T12:29:46.066Z</time>
      </trkpt>
      <trkpt lat="46.97407" lon="8.76517">
        <ele>619</ele>
        <time>2021-08-05T12:29:47.066Z</time>
      </trkpt>
      <trkpt lat="46.97407" lon="8.76516">
        <ele>619</ele>
        <time>2021-08-05T12:29:48.066Z</time>
      </trkpt>
      <trkpt lat="46.97408" lon="8.76516">
        <ele>619</ele>
        <time>2021-08-05T12:29:49.066Z</time>
      </trkpt>
      <trkpt lat="46.97408" lon="8.76516">
        <ele>619</ele>
        <time>2021-08-05T12:29:50.066Z</time>
      </trkpt>
      <trkpt lat="46.97408" lon="8.76517">
        <ele>620</ele>
        <time>2021-08-05T12:29:51.066Z</time>
      </trkpt>
      <trkpt lat="46.97408" lon="8.76518">
        <ele>620</ele>
        <time>2021-08-05T12:29:52.066Z</time>
      </trkpt>
      <trkpt lat="46.97408" lon="8.76519">
        <ele>621</ele>
        <time>2021-08-05T12:29:53.066Z</time>
      </trkpt>
      <trkpt lat="46.97409" lon="8.7652">
        <ele>621</ele>
        <time>2021-08-05T12:29:54.066Z</time>
      </trkpt>
      <trkpt lat="46.97409" lon="8.7652">
        <ele>622</ele>
        <time>2021-08-05T12:29:55.066Z</time>
      </trkpt>
      <trkpt lat="46.9741" lon="8.76519">
        <ele>622</ele>
        <time>2021-08-05T12:29:56.066Z</time>
      </trkpt>
      <trkpt lat="46.97411" lon="8.76519">
        <ele>623</ele>
        <time>2021-08-05T12:29:57.067Z</time>
      </trkpt>
      <trkpt lat="46.97409" lon="8.76516">
        <ele>624</ele>
        <time>2021-08-05T12:29:58.066Z</time>
      </trkpt>
      <trkpt lat="46.97409" lon="8.76516">
        <ele>625</ele>
        <time>2021-08-05T12:29:59.067Z</time>
      </trkpt>
      <trkpt lat="46.97409" lon="8.76515">
        <ele>625</ele>
        <time>2021-08-05T12:30:00.067Z</time>
      </trkpt>
      <trkpt lat="46.9741" lon="8.76514">
        <ele>625</ele>
        <time>2021-08-05T12:30:01.066Z</time>
      </trkpt>
      <trkpt lat="46.9741" lon="8.76514">
        <ele>625</ele>
        <time>2021-08-05T12:30:02.066Z</time>
      </trkpt>
      <trkpt lat="46.9741" lon="8.76517">
        <ele>626</ele>
        <time>2021-08-05T12:30:03.066Z</time>
      </trkpt>
      <trkpt lat="46.97409" lon="8.76519">
        <ele>626</ele>
        <time>2021-08-05T12:30:04.066Z</time>
      </trkpt>
      <trkpt lat="46.97409" lon="8.76521">
        <ele>626</ele>
        <time>2021-08-05T12:30:05.066Z</time>
      </trkpt>
      <trkpt lat="46.97409" lon="8.76522">
        <ele>626</ele>
        <time>2021-08-05T12:30:06.066Z</time>
      </trkpt>
      <trkpt lat="46.97409" lon="8.76524">
        <ele>626</ele>
        <time>2021-08-05T12:30:07.066Z</time>
      </trkpt>
      <trkpt lat="46.9741" lon="8.76524">
        <ele>626</ele>
        <time>2021-08-05T12:30:08.066Z</time>
      </trkpt>
      <trkpt lat="46.97411" lon="8.76525">
        <ele>626</ele>
        <time>2021-08-05T12:30:09.066Z</time>
      </trkpt>
      <trkpt lat="46.97412" lon="8.76524">
        <ele>627</ele>
        <time>2021-08-05T12:30:10.066Z</time>
      </trkpt>
      <trkpt lat="46.97412" lon="8.76524">
        <ele>627</ele>
        <time>2021-08-05T12:30:11.067Z</time>
      </trkpt>
      <trkpt lat="46.97411" lon="8.76524">
        <ele>627</ele>
        <time>2021-08-05T12:30:12.067Z</time>
      </trkpt>
      <trkpt lat="46.97411" lon="8.76524">
        <ele>627</ele>
        <time>2021-08-05T12:30:13.066Z</time>
      </trkpt>
      <trkpt lat="46.97411" lon="8.76525">
        <ele>628</ele>
        <time>2021-08-05T12:30:14.066Z</time>
      </trkpt>
      <trkpt lat="46.97411" lon="8.76525">
        <ele>628</ele>
        <time>2021-08-05T12:30:15.066Z</time>
      </trkpt>
      <trkpt lat="46.97412" lon="8.76525">
        <ele>629</ele>
        <time>2021-08-05T12:30:16.066Z</time>
      </trkpt>
      <trkpt lat="46.97411" lon="8.76526">
        <ele>629</ele>
        <time>2021-08-05T12:30:17.066Z</time>
      </trkpt>
      <trkpt lat="46.97409" lon="8.76528">
        <ele>629</ele>
        <time>2021-08-05T12:30:18.067Z</time>
      </trkpt>
      <trkpt lat="46.97407" lon="8.76529">
        <ele>629</ele>
        <time>2021-08-05T12:30:19.067Z</time>
      </trkpt>
      <trkpt lat="46.97406" lon="8.76531">
        <ele>629</ele>
        <time>2021-08-05T12:30:20.066Z</time>
      </trkpt>
      <trkpt lat="46.97406" lon="8.76531">
        <ele>630</ele>
        <time>2021-08-05T12:30:21.066Z</time>
      </trkpt>
      <trkpt lat="46.97406" lon="8.76532">
        <ele>630</ele>
        <time>2021-08-05T12:30:22.067Z</time>
      </trkpt>
      <trkpt lat="46.97406" lon="8.76532">
        <ele>631</ele>
        <time>2021-08-05T12:30:23.066Z</time>
      </trkpt>
      <trkpt lat="46.97407" lon="8.76533">
        <ele>631</ele>
        <time>2021-08-05T12:30:24.066Z</time>
      </trkpt>
      <trkpt lat="46.97407" lon="8.76534">
        <ele>631</ele>
        <time>2021-08-05T12:30:25.066Z</time>
      </trkpt>
      <trkpt lat="46.97407" lon="8.76535">
        <ele>631</ele>
        <time>2021-08-05T12:30:26.066Z</time>
      </trkpt>
      <trkpt lat="46.97407" lon="8.76536">
        <ele>631</ele>
        <time>2021-08-05T12:30:27.066Z</time>
      </trkpt>
      <trkpt lat="46.97407" lon="8.76538">
        <ele>631</ele>
        <time>2021-08-05T12:30:28.066Z</time>
      </trkpt>
      <trkpt lat="46.97406" lon="8.76539">
        <ele>631</ele>
        <time>2021-08-05T12:30:29.067Z</time>
      </trkpt>
      <trkpt lat="46.97406" lon="8.76541">
        <ele>631</ele>
        <time>2021-08-05T12:30:30.067Z</time>
      </trkpt>
      <trkpt lat="46.97406" lon="8.76542">
        <ele>631</ele>
        <time>2021-08-05T12:30:31.067Z</time>
      </trkpt>
      <trkpt lat="46.97405" lon="8.76543">
        <ele>631</ele>
        <time>2021-08-05T12:30:32.067Z</time>
      </trkpt>
      <trkpt lat="46.97405" lon="8.76544">
        <ele>631</ele>
        <time>2021-08-05T12:30:33.067Z</time>
      </trkpt>
      <trkpt lat="46.97404" lon="8.76545">
        <ele>631</ele>
        <time>2021-08-05T12:30:34.066Z</time>
      </trkpt>
      <trkpt lat="46.97404" lon="8.76545">
        <ele>631</ele>
        <time>2021-08-05T12:30:35.067Z</time>
      </trkpt>
      <trkpt lat="46.97405" lon="8.76546">
        <ele>631</ele>
        <time>2021-08-05T12:30:36.066Z</time>
      </trkpt>
      <trkpt lat="46.97405" lon="8.76547">
        <ele>631</ele>
        <time>2021-08-05T12:30:37.067Z</time>
      </trkpt>
      <trkpt lat="46.97404" lon="8.76548">
        <ele>631</ele>
        <time>2021-08-05T12:30:38.067Z</time>
      </trkpt>
      <trkpt lat="46.97403" lon="8.7655">
        <ele>631</ele>
        <time>2021-08-05T12:30:39.066Z</time>
      </trkpt>
      <trkpt lat="46.97402" lon="8.7655">
        <ele>631</ele>
        <time>2021-08-05T12:30:40.067Z</time>
      </trkpt>
      <trkpt lat="46.97404" lon="8.76548">
        <ele>631</ele>
        <time>2021-08-05T12:30:41.067Z</time>
      </trkpt>
      <trkpt lat="46.97405" lon="8.76545">
        <ele>631</ele>
        <time>2021-08-05T12:30:42.067Z</time>
      </trkpt>
      <trkpt lat="46.97405" lon="8.76544">
        <ele>631</ele>
        <time>2021-08-05T12:30:43.067Z</time>
      </trkpt>
      <trkpt lat="46.97406" lon="8.76543">
        <ele>631</ele>
        <time>2021-08-05T12:30:44.066Z</time>
      </trkpt>
      <trkpt lat="46.97406" lon="8.76542">
        <ele>632</ele>
        <time>2021-08-05T12:30:45.066Z</time>
      </trkpt>
      <trkpt lat="46.97407" lon="8.76541">
        <ele>632</ele>
        <time>2021-08-05T12:30:46.066Z</time>
      </trkpt>
      <trkpt lat="46.97409" lon="8.7654">
        <ele>632</ele>
        <time>2021-08-05T12:30:47.067Z</time>
      </trkpt>
      <trkpt lat="46.97411" lon="8.76539">
        <ele>633</ele>
        <time>2021-08-05T12:30:48.067Z</time>
      </trkpt>
      <trkpt lat="46.97412" lon="8.76538">
        <ele>633</ele>
        <time>2021-08-05T12:30:49.066Z</time>
      </trkpt>
      <trkpt lat="46.97413" lon="8.76538">
        <ele>634</ele>
        <time>2021-08-05T12:30:50.067Z</time>
      </trkpt>
      <trkpt lat="46.97412" lon="8.76538">
        <ele>634</ele>
        <time>2021-08-05T12:30:51.067Z</time>
      </trkpt>
      <trkpt lat="46.97412" lon="8.76538">
        <ele>634</ele>
        <time>2021-08-05T12:30:52.066Z</time>
      </trkpt>
      <trkpt lat="46.97411" lon="8.76538">
        <ele>635</ele>
        <time>2021-08-05T12:30:53.067Z</time>
      </trkpt>
      <trkpt lat="46.97411" lon="8.76538">
        <ele>635</ele>
        <time>2021-08-05T12:30:54.067Z</time>
      </trkpt>
      <trkpt lat="46.97411" lon="8.76537">
        <ele>635</ele>
        <time>2021-08-05T12:30:55.066Z</time>
      </trkpt>
      <trkpt lat="46.97411" lon="8.76536">
        <ele>635</ele>
        <time>2021-08-05T12:30:56.066Z</time>
      </trkpt>
      <trkpt lat="46.97412" lon="8.76535">
        <ele>636</ele>
        <time>2021-08-05T12:30:57.067Z</time>
      </trkpt>
      <trkpt lat="46.97412" lon="8.76535">
        <ele>636</ele>
        <time>2021-08-05T12:30:58.066Z</time>
      </trkpt>
      <trkpt lat="46.97412" lon="8.76535">
        <ele>636</ele>
        <time>2021-08-05T12:30:59.066Z</time>
      </trkpt>
      <trkpt lat="46.97414" lon="8.76534">
        <ele>637</ele>
        <time>2021-08-05T12:31:00.066Z</time>
      </trkpt>
      <trkpt lat="46.97415" lon="8.76534">
        <ele>637</ele>
        <time>2021-08-05T12:31:01.067Z</time>
      </trkpt>
      <trkpt lat="46.97415" lon="8.76533">
        <ele>638</ele>
        <time>2021-08-05T12:31:02.067Z</time>
      </trkpt>
      <trkpt lat="46.97415" lon="8.76532">
        <ele>638</ele>
        <time>2021-08-05T12:31:03.067Z</time>
      </trkpt>
      <trkpt lat="46.97415" lon="8.76532">
        <ele>638</ele>
        <time>2021-08-05T12:31:04.067Z</time>
      </trkpt>
      <trkpt lat="46.97415" lon="8.76532">
        <ele>638</ele>
        <time>2021-08-05T12:31:05.067Z</time>
      </trkpt>
      <trkpt lat="46.97414" lon="8.76532">
        <ele>639</ele>
        <time>2021-08-05T12:31:07.066Z</time>
      </trkpt>
      <trkpt lat="46.97414" lon="8.76533">
        <ele>639</ele>
        <time>2021-08-05T12:31:08.066Z</time>
      </trkpt>
      <trkpt lat="46.97414" lon="8.76533">
        <ele>639</ele>
        <time>2021-08-05T12:31:09.066Z</time>
      </trkpt>
      <trkpt lat="46.97412" lon="8.76533">
        <ele>639</ele>
        <time>2021-08-05T12:31:10.067Z</time>
      </trkpt>
      <trkpt lat="46.97412" lon="8.76534">
        <ele>639</ele>
        <time>2021-08-05T12:31:11.067Z</time>
      </trkpt>
      <trkpt lat="46.97411" lon="8.76533">
        <ele>639</ele>
        <time>2021-08-05T12:31:12.067Z</time>
      </trkpt>
      <trkpt lat="46.97411" lon="8.76533">
        <ele>639</ele>
        <time>2021-08-05T12:31:13.067Z</time>
      </trkpt>
      <trkpt lat="46.9741" lon="8.76532">
        <ele>639</ele>
        <time>2021-08-05T12:31:14.067Z</time>
      </trkpt>
      <trkpt lat="46.97411" lon="8.76531">
        <ele>640</ele>
        <time>2021-08-05T12:31:15.068Z</time>
      </trkpt>
      <trkpt lat="46.97411" lon="8.76531">
        <ele>640</ele>
        <time>2021-08-05T12:31:16.067Z</time>
      </trkpt>
      <trkpt lat="46.9741" lon="8.76531">
        <ele>640</ele>
        <time>2021-08-05T12:31:17.067Z</time>
      </trkpt>
      <trkpt lat="46.97409" lon="8.76531">
        <ele>640</ele>
        <time>2021-08-05T12:31:18.067Z</time>
      </trkpt>
      <trkpt lat="46.97408" lon="8.76532">
        <ele>640</ele>
        <time>2021-08-05T12:31:19.068Z</time>
      </trkpt>
      <trkpt lat="46.97407" lon="8.76532">
        <ele>639</ele>
        <time>2021-08-05T12:31:20.068Z</time>
      </trkpt>
      <trkpt lat="46.97407" lon="8.76532">
        <ele>639</ele>
        <time>2021-08-05T12:31:21.067Z</time>
      </trkpt>
      <trkpt lat="46.97407" lon="8.76531">
        <ele>639</ele>
        <time>2021-08-05T12:31:22.067Z</time>
      </trkpt>
      <trkpt lat="46.97406" lon="8.76532">
        <ele>639</ele>
        <time>2021-08-05T12:31:23.068Z</time>
      </trkpt>
      <trkpt lat="46.97406" lon="8.76531">
        <ele>639</ele>
        <time>2021-08-05T12:31:24.067Z</time>
      </trkpt>
      <trkpt lat="46.97406" lon="8.76531">
        <ele>639</ele>
        <time>2021-08-05T12:31:25.068Z</time>
      </trkpt>
      <trkpt lat="46.97405" lon="8.76531">
        <ele>639</ele>
        <time>2021-08-05T12:31:26.068Z</time>
      </trkpt>
      <trkpt lat="46.97405" lon="8.76531">
        <ele>638</ele>
        <time>2021-08-05T12:31:27.068Z</time>
      </trkpt>
      <trkpt lat="46.97404" lon="8.76531">
        <ele>638</ele>
        <time>2021-08-05T12:31:28.068Z</time>
      </trkpt>
      <trkpt lat="46.97395" lon="8.76534">
        <ele>635</ele>
        <time>2021-08-05T12:31:29.068Z</time>
      </trkpt>
      <trkpt lat="46.97394" lon="8.76534">
        <ele>634</ele>
        <time>2021-08-05T12:31:30.068Z</time>
      </trkpt>
      <trkpt lat="46.97395" lon="8.76532">
        <ele>634</ele>
        <time>2021-08-05T12:31:31.067Z</time>
      </trkpt>
      <trkpt lat="46.97395" lon="8.76531">
        <ele>633</ele>
        <time>2021-08-05T12:31:32.068Z</time>
      </trkpt>
      <trkpt lat="46.97395" lon="8.7653">
        <ele>632</ele>
        <time>2021-08-05T12:31:33.067Z</time>
      </trkpt>
      <trkpt lat="46.97395" lon="8.76528">
        <ele>627</ele>
        <time>2021-08-05T12:31:34.069Z</time>
      </trkpt>
      <trkpt lat="46.97396" lon="8.76528">
        <ele>627</ele>
        <time>2021-08-05T12:31:35.068Z</time>
      </trkpt>
      <trkpt lat="46.97396" lon="8.76527">
        <ele>627</ele>
        <time>2021-08-05T12:31:36.068Z</time>
      </trkpt>
      <trkpt lat="46.97396" lon="8.76527">
        <ele>626</ele>
        <time>2021-08-05T12:31:37.068Z</time>
      </trkpt>
      <trkpt lat="46.97394" lon="8.76526">
        <ele>625</ele>
        <time>2021-08-05T12:31:38.068Z</time>
      </trkpt>
      <trkpt lat="46.97395" lon="8.76527">
        <ele>625</ele>
        <time>2021-08-05T12:31:39.069Z</time>
      </trkpt>
      <trkpt lat="46.97397" lon="8.7652">
        <ele>624</ele>
        <time>2021-08-05T12:32:49.069Z</time>
      </trkpt>
      <trkpt lat="46.974" lon="8.76517">
        <ele>623</ele>
        <time>2021-08-05T12:32:50.069Z</time>
      </trkpt>
      <trkpt lat="46.974" lon="8.76515">
        <ele>622</ele>
        <time>2021-08-05T12:32:51.069Z</time>
      </trkpt>
      <trkpt lat="46.97398" lon="8.76518">
        <ele>622</ele>
        <time>2021-08-05T12:32:52.068Z</time>
      </trkpt>
      <trkpt lat="46.97391" lon="8.7651">
        <ele>618</ele>
        <time>2021-08-05T12:32:53.068Z</time>
      </trkpt>
      <trkpt lat="46.97392" lon="8.76509">
        <ele>618</ele>
        <time>2021-08-05T12:32:54.069Z</time>
      </trkpt>
      <trkpt lat="46.97393" lon="8.76507">
        <ele>617</ele>
        <time>2021-08-05T12:32:55.068Z</time>
      </trkpt>
      <trkpt lat="46.97393" lon="8.76505">
        <ele>617</ele>
        <time>2021-08-05T12:32:56.069Z</time>
      </trkpt>
      <trkpt lat="46.97394" lon="8.76504">
        <ele>616</ele>
        <time>2021-08-05T12:32:57.069Z</time>
      </trkpt>
      <trkpt lat="46.97393" lon="8.76503">
        <ele>616</ele>
        <time>2021-08-05T12:32:58.068Z</time>
      </trkpt>
      <trkpt lat="46.97393" lon="8.76503">
        <ele>616</ele>
        <time>2021-08-05T12:32:59.069Z</time>
      </trkpt>
      <trkpt lat="46.97392" lon="8.76503">
        <ele>616</ele>
        <time>2021-08-05T12:33:00.068Z</time>
      </trkpt>
      <trkpt lat="46.97392" lon="8.76504">
        <ele>615</ele>
        <time>2021-08-05T12:33:01.068Z</time>
      </trkpt>
      <trkpt lat="46.97392" lon="8.76506">
        <ele>615</ele>
        <time>2021-08-05T12:33:02.068Z</time>
      </trkpt>
      <trkpt lat="46.97391" lon="8.76507">
        <ele>615</ele>
        <time>2021-08-05T12:33:03.069Z</time>
      </trkpt>
      <trkpt lat="46.97391" lon="8.76507">
        <ele>615</ele>
        <time>2021-08-05T12:33:04.069Z</time>
      </trkpt>
      <trkpt lat="46.97391" lon="8.76508">
        <ele>614</ele>
        <time>2021-08-05T12:33:05.069Z</time>
      </trkpt>
      <trkpt lat="46.97391" lon="8.76508">
        <ele>614</ele>
        <time>2021-08-05T12:33:06.068Z</time>
      </trkpt>
      <trkpt lat="46.9739" lon="8.76509">
        <ele>614</ele>
        <time>2021-08-05T12:33:07.069Z</time>
      </trkpt>
      <trkpt lat="46.97389" lon="8.7651">
        <ele>614</ele>
        <time>2021-08-05T12:33:08.070Z</time>
      </trkpt>
      <trkpt lat="46.97389" lon="8.76511">
        <ele>614</ele>
        <time>2021-08-05T12:33:09.070Z</time>
      </trkpt>
      <trkpt lat="46.97389" lon="8.76512">
        <ele>614</ele>
        <time>2021-08-05T12:33:10.070Z</time>
      </trkpt>
      <trkpt lat="46.97389" lon="8.76512">
        <ele>614</ele>
        <time>2021-08-05T12:33:11.070Z</time>
      </trkpt>
      <trkpt lat="46.97388" lon="8.76512">
        <ele>615</ele>
        <time>2021-08-05T12:33:12.070Z</time>
      </trkpt>
      <trkpt lat="46.97388" lon="8.76513">
        <ele>615</ele>
        <time>2021-08-05T12:33:13.070Z</time>
      </trkpt>
      <trkpt lat="46.97388" lon="8.76513">
        <ele>615</ele>
        <time>2021-08-05T12:33:14.070Z</time>
      </trkpt>
      <trkpt lat="46.97388" lon="8.76512">
        <ele>615</ele>
        <time>2021-08-05T12:33:15.070Z</time>
      </trkpt>
      <trkpt lat="46.97388" lon="8.76511">
        <ele>615</ele>
        <time>2021-08-05T12:33:16.069Z</time>
      </trkpt>
      <trkpt lat="46.97387" lon="8.7651">
        <ele>615</ele>
        <time>2021-08-05T12:33:17.070Z</time>
      </trkpt>
      <trkpt lat="46.97387" lon="8.76509">
        <ele>615</ele>
        <time>2021-08-05T12:33:18.070Z</time>
      </trkpt>
      <trkpt lat="46.97388" lon="8.76505">
        <ele>615</ele>
        <time>2021-08-05T12:33:19.070Z</time>
      </trkpt>
      <trkpt lat="46.97387" lon="8.76501">
        <ele>615</ele>
        <time>2021-08-05T12:33:20.069Z</time>
      </trkpt>
      <trkpt lat="46.97386" lon="8.76498">
        <ele>615</ele>
        <time>2021-08-05T12:33:21.070Z</time>
      </trkpt>
      <trkpt lat="46.97384" lon="8.76496">
        <ele>614</ele>
        <time>2021-08-05T12:33:22.070Z</time>
      </trkpt>
      <trkpt lat="46.97384" lon="8.76496">
        <ele>614</ele>
        <time>2021-08-05T12:33:23.069Z</time>
      </trkpt>
      <trkpt lat="46.97383" lon="8.76495">
        <ele>614</ele>
        <time>2021-08-05T12:33:24.070Z</time>
      </trkpt>
      <trkpt lat="46.97383" lon="8.76495">
        <ele>613</ele>
        <time>2021-08-05T12:33:25.070Z</time>
      </trkpt>
      <trkpt lat="46.97384" lon="8.76494">
        <ele>613</ele>
        <time>2021-08-05T12:33:26.070Z</time>
      </trkpt>
      <trkpt lat="46.97385" lon="8.76493">
        <ele>613</ele>
        <time>2021-08-05T12:33:27.069Z</time>
      </trkpt>
      <trkpt lat="46.97385" lon="8.76493">
        <ele>613</ele>
        <time>2021-08-05T12:33:28.070Z</time>
      </trkpt>
      <trkpt lat="46.97413" lon="8.76528">
        <ele>613</ele>
        <time>2021-08-05T12:35:10.339Z</time>
      </trkpt>
      <trkpt lat="46.97411" lon="8.7653">
        <ele>614</ele>
        <time>2021-08-05T12:35:11.338Z</time>
      </trkpt>
      <trkpt lat="46.97413" lon="8.76531">
        <ele>615</ele>
        <time>2021-08-05T12:35:12.339Z</time>
      </trkpt>
      <trkpt lat="46.97414" lon="8.76531">
        <ele>616</ele>
        <time>2021-08-05T12:35:13.339Z</time>
      </trkpt>
      <trkpt lat="46.9741" lon="8.76531">
        <ele>617</ele>
        <time>2021-08-05T12:35:14.338Z</time>
      </trkpt>
      <trkpt lat="46.97406" lon="8.7653">
        <ele>617</ele>
        <time>2021-08-05T12:35:15.338Z</time>
      </trkpt>
      <trkpt lat="46.9741" lon="8.76531">
        <ele>619</ele>
        <time>2021-08-05T12:35:16.339Z</time>
      </trkpt>
      <trkpt lat="46.97412" lon="8.76531">
        <ele>620</ele>
        <time>2021-08-05T12:35:17.339Z</time>
      </trkpt>
      <trkpt lat="46.97414" lon="8.76529">
        <ele>622</ele>
        <time>2021-08-05T12:35:18.338Z</time>
      </trkpt>
      <trkpt lat="46.97412" lon="8.7653">
        <ele>623</ele>
        <time>2021-08-05T12:35:19.339Z</time>
      </trkpt>
      <trkpt lat="46.97412" lon="8.76532">
        <ele>624</ele>
        <time>2021-08-05T12:35:20.338Z</time>
      </trkpt>
      <trkpt lat="46.97409" lon="8.76534">
        <ele>626</ele>
        <time>2021-08-05T12:35:21.338Z</time>
      </trkpt>
      <trkpt lat="46.97409" lon="8.76537">
        <ele>627</ele>
        <time>2021-08-05T12:35:22.339Z</time>
      </trkpt>
      <trkpt lat="46.97407" lon="8.76538">
        <ele>627</ele>
        <time>2021-08-05T12:35:23.338Z</time>
      </trkpt>
      <trkpt lat="46.97404" lon="8.76536">
        <ele>628</ele>
        <time>2021-08-05T12:35:26.339Z</time>
      </trkpt>
      <trkpt lat="46.97407" lon="8.76538">
        <ele>632</ele>
        <time>2021-08-05T12:35:27.340Z</time>
      </trkpt>
      <trkpt lat="46.97408" lon="8.76539">
        <ele>633</ele>
        <time>2021-08-05T12:35:28.340Z</time>
      </trkpt>
      <trkpt lat="46.97409" lon="8.7654">
        <ele>634</ele>
        <time>2021-08-05T12:35:29.339Z</time>
      </trkpt>
      <trkpt lat="46.97409" lon="8.7654">
        <ele>635</ele>
        <time>2021-08-05T12:35:30.339Z</time>
      </trkpt>
      <trkpt lat="46.97409" lon="8.7654">
        <ele>637</ele>
        <time>2021-08-05T12:35:31.339Z</time>
      </trkpt>
      <trkpt lat="46.97409" lon="8.76539">
        <ele>638</ele>
        <time>2021-08-05T12:35:32.339Z</time>
      </trkpt>
      <trkpt lat="46.9741" lon="8.76538">
        <ele>639</ele>
        <time>2021-08-05T12:35:33.340Z</time>
      </trkpt>
      <trkpt lat="46.97411" lon="8.76538">
        <ele>640</ele>
        <time>2021-08-05T12:35:34.339Z</time>
      </trkpt>
      <trkpt lat="46.97411" lon="8.76537">
        <ele>641</ele>
        <time>2021-08-05T12:35:35.339Z</time>
      </trkpt>
      <trkpt lat="46.97413" lon="8.76538">
        <ele>642</ele>
        <time>2021-08-05T12:35:36.339Z</time>
      </trkpt>
      <trkpt lat="46.97415" lon="8.76538">
        <ele>643</ele>
        <time>2021-08-05T12:35:37.340Z</time>
      </trkpt>
      <trkpt lat="46.97416" lon="8.76538">
        <ele>645</ele>
        <time>2021-08-05T12:35:38.339Z</time>
      </trkpt>
      <trkpt lat="46.97418" lon="8.76539">
        <ele>646</ele>
        <time>2021-08-05T12:35:39.339Z</time>
      </trkpt>
      <trkpt lat="46.97419" lon="8.7654">
        <ele>647</ele>
        <time>2021-08-05T12:35:40.340Z</time>
      </trkpt>
      <trkpt lat="46.9742" lon="8.7654">
        <ele>648</ele>
        <time>2021-08-05T12:35:41.339Z</time>
      </trkpt>
      <trkpt lat="46.97422" lon="8.76542">
        <ele>650</ele>
        <time>2021-08-05T12:35:42.339Z</time>
      </trkpt>
      <trkpt lat="46.97423" lon="8.76542">
        <ele>651</ele>
        <time>2021-08-05T12:35:43.339Z</time>
      </trkpt>
      <trkpt lat="46.97424" lon="8.76543">
        <ele>652</ele>
        <time>2021-08-05T12:35:44.339Z</time>
      </trkpt>
      <trkpt lat="46.97424" lon="8.76543">
        <ele>653</ele>
        <time>2021-08-05T12:35:45.339Z</time>
      </trkpt>
      <trkpt lat="46.97424" lon="8.76542">
        <ele>654</ele>
        <time>2021-08-05T12:35:46.339Z</time>
      </trkpt>
      <trkpt lat="46.97424" lon="8.76542">
        <ele>655</ele>
        <time>2021-08-05T12:35:47.339Z</time>
      </trkpt>
      <trkpt lat="46.97424" lon="8.76542">
        <ele>656</ele>
        <time>2021-08-05T12:35:48.340Z</time>
      </trkpt>
      <trkpt lat="46.97425" lon="8.76542">
        <ele>657</ele>
        <time>2021-08-05T12:35:49.339Z</time>
      </trkpt>
      <trkpt lat="46.97426" lon="8.76542">
        <ele>658</ele>
        <time>2021-08-05T12:35:50.339Z</time>
      </trkpt>
      <trkpt lat="46.97426" lon="8.76541">
        <ele>659</ele>
        <time>2021-08-05T12:35:51.339Z</time>
      </trkpt>
      <trkpt lat="46.97427" lon="8.7654">
        <ele>660</ele>
        <time>2021-08-05T12:35:52.339Z</time>
      </trkpt>
      <trkpt lat="46.97427" lon="8.7654">
        <ele>660</ele>
        <time>2021-08-05T12:35:53.339Z</time>
      </trkpt>
      <trkpt lat="46.97427" lon="8.76539">
        <ele>661</ele>
        <time>2021-08-05T12:35:54.339Z</time>
      </trkpt>
      <trkpt lat="46.97427" lon="8.76539">
        <ele>662</ele>
        <time>2021-08-05T12:35:55.339Z</time>
      </trkpt>
      <trkpt lat="46.97427" lon="8.76538">
        <ele>663</ele>
        <time>2021-08-05T12:35:56.340Z</time>
      </trkpt>
      <trkpt lat="46.97427" lon="8.76537">
        <ele>664</ele>
        <time>2021-08-05T12:35:57.339Z</time>
      </trkpt>
      <trkpt lat="46.97427" lon="8.76536">
        <ele>665</ele>
        <time>2021-08-05T12:35:58.339Z</time>
      </trkpt>
      <trkpt lat="46.97427" lon="8.76536">
        <ele>666</ele>
        <time>2021-08-05T12:35:59.340Z</time>
      </trkpt>
      <trkpt lat="46.97427" lon="8.76536">
        <ele>666</ele>
        <time>2021-08-05T12:36:00.340Z</time>
      </trkpt>
      <trkpt lat="46.97427" lon="8.76535">
        <ele>667</ele>
        <time>2021-08-05T12:36:01.339Z</time>
      </trkpt>
      <trkpt lat="46.97427" lon="8.76537">
        <ele>671</ele>
        <time>2021-08-05T12:36:02.339Z</time>
      </trkpt>
      <trkpt lat="46.97426" lon="8.76536">
        <ele>670</ele>
        <time>2021-08-05T12:36:03.339Z</time>
      </trkpt>
      <trkpt lat="46.97425" lon="8.76536">
        <ele>670</ele>
        <time>2021-08-05T12:36:04.339Z</time>
      </trkpt>
      <trkpt lat="46.97425" lon="8.76536">
        <ele>670</ele>
        <time>2021-08-05T12:36:05.339Z</time>
      </trkpt>
      <trkpt lat="46.97425" lon="8.76537">
        <ele>670</ele>
        <time>2021-08-05T12:36:06.340Z</time>
      </trkpt>
      <trkpt lat="46.97425" lon="8.76536">
        <ele>670</ele>
        <time>2021-08-05T12:36:07.340Z</time>
      </trkpt>
      <trkpt lat="46.97425" lon="8.76535">
        <ele>670</ele>
        <time>2021-08-05T12:36:08.340Z</time>
      </trkpt>
      <trkpt lat="46.97425" lon="8.76535">
        <ele>670</ele>
        <time>2021-08-05T12:36:09.340Z</time>
      </trkpt>
      <trkpt lat="46.97425" lon="8.76535">
        <ele>670</ele>
        <time>2021-08-05T12:36:10.341Z</time>
      </trkpt>
      <trkpt lat="46.97424" lon="8.76535">
        <ele>670</ele>
        <time>2021-08-05T12:36:11.340Z</time>
      </trkpt>
      <trkpt lat="46.97423" lon="8.76535">
        <ele>669</ele>
        <time>2021-08-05T12:36:12.341Z</time>
      </trkpt>
      <trkpt lat="46.97422" lon="8.76535">
        <ele>669</ele>
        <time>2021-08-05T12:36:13.340Z</time>
      </trkpt>
      <trkpt lat="46.9742" lon="8.76534">
        <ele>669</ele>
        <time>2021-08-05T12:36:14.340Z</time>
      </trkpt>
      <trkpt lat="46.97419" lon="8.76534">
        <ele>669</ele>
        <time>2021-08-05T12:36:15.340Z</time>
      </trkpt>
      <trkpt lat="46.97419" lon="8.76533">
        <ele>669</ele>
        <time>2021-08-05T12:36:16.341Z</time>
      </trkpt>
      <trkpt lat="46.97418" lon="8.76532">
        <ele>669</ele>
        <time>2021-08-05T12:36:17.341Z</time>
      </trkpt>
      <trkpt lat="46.97418" lon="8.76532">
        <ele>668</ele>
        <time>2021-08-05T12:36:18.341Z</time>
      </trkpt>
      <trkpt lat="46.97418" lon="8.76531">
        <ele>668</ele>
        <time>2021-08-05T12:36:19.341Z</time>
      </trkpt>
      <trkpt lat="46.97418" lon="8.76531">
        <ele>668</ele>
        <time>2021-08-05T12:36:20.340Z</time>
      </trkpt>
      <trkpt lat="46.97417" lon="8.76532">
        <ele>668</ele>
        <time>2021-08-05T12:36:21.343Z</time>
      </trkpt>
      <trkpt lat="46.97416" lon="8.76533">
        <ele>668</ele>
        <time>2021-08-05T12:36:22.343Z</time>
      </trkpt>
      <trkpt lat="46.97416" lon="8.76534">
        <ele>667</ele>
        <time>2021-08-05T12:36:23.342Z</time>
      </trkpt>
      <trkpt lat="46.97415" lon="8.76534">
        <ele>667</ele>
        <time>2021-08-05T12:36:24.343Z</time>
      </trkpt>
      <trkpt lat="46.97414" lon="8.76535">
        <ele>667</ele>
        <time>2021-08-05T12:36:25.343Z</time>
      </trkpt>
      <trkpt lat="46.97414" lon="8.76535">
        <ele>667</ele>
        <time>2021-08-05T12:36:26.343Z</time>
      </trkpt>
      <trkpt lat="46.97414" lon="8.76535">
        <ele>666</ele>
        <time>2021-08-05T12:36:27.343Z</time>
      </trkpt>
      <trkpt lat="46.97414" lon="8.76534">
        <ele>666</ele>
        <time>2021-08-05T12:36:28.343Z</time>
      </trkpt>
      <trkpt lat="46.97414" lon="8.76534">
        <ele>666</ele>
        <time>2021-08-05T12:36:29.343Z</time>
      </trkpt>
      <trkpt lat="46.97414" lon="8.76536">
        <ele>665</ele>
        <time>2021-08-05T12:36:30.342Z</time>
      </trkpt>
      <trkpt lat="46.97414" lon="8.76536">
        <ele>665</ele>
        <time>2021-08-05T12:36:31.342Z</time>
      </trkpt>
      <trkpt lat="46.97404" lon="8.76549">
        <ele>664</ele>
        <time>2021-08-05T12:37:05.343Z</time>
      </trkpt>
      <trkpt lat="46.97405" lon="8.76556">
        <ele>664</ele>
        <time>2021-08-05T12:37:07.342Z</time>
      </trkpt>
      <trkpt lat="46.97406" lon="8.76558">
        <ele>664</ele>
        <time>2021-08-05T12:37:08.342Z</time>
      </trkpt>
      <trkpt lat="46.97407" lon="8.76559">
        <ele>664</ele>
        <time>2021-08-05T12:37:11.446Z</time>
      </trkpt>
      <trkpt lat="46.97408" lon="8.7656">
        <ele>664</ele>
        <time>2021-08-05T12:37:12.446Z</time>
      </trkpt>
      <trkpt lat="46.97408" lon="8.76559">
        <ele>664</ele>
        <time>2021-08-05T12:37:13.445Z</time>
      </trkpt>
      <trkpt lat="46.97407" lon="8.76558">
        <ele>663</ele>
        <time>2021-08-05T12:37:14.445Z</time>
      </trkpt>
      <trkpt lat="46.97406" lon="8.76558">
        <ele>663</ele>
        <time>2021-08-05T12:37:15.446Z</time>
      </trkpt>
      <trkpt lat="46.97405" lon="8.76559">
        <ele>662</ele>
        <time>2021-08-05T12:37:16.445Z</time>
      </trkpt>
      <trkpt lat="46.97404" lon="8.7656">
        <ele>661</ele>
        <time>2021-08-05T12:37:17.446Z</time>
      </trkpt>
      <trkpt lat="46.97402" lon="8.76561">
        <ele>660</ele>
        <time>2021-08-05T12:37:18.446Z</time>
      </trkpt>
      <trkpt lat="46.97401" lon="8.76561">
        <ele>659</ele>
        <time>2021-08-05T12:37:19.445Z</time>
      </trkpt>
      <trkpt lat="46.974" lon="8.7656">
        <ele>658</ele>
        <time>2021-08-05T12:37:20.446Z</time>
      </trkpt>
      <trkpt lat="46.974" lon="8.76559">
        <ele>657</ele>
        <time>2021-08-05T12:37:21.446Z</time>
      </trkpt>
      <trkpt lat="46.97401" lon="8.76559">
        <ele>656</ele>
        <time>2021-08-05T12:37:22.445Z</time>
      </trkpt>
      <trkpt lat="46.97403" lon="8.76558">
        <ele>655</ele>
        <time>2021-08-05T12:37:23.446Z</time>
      </trkpt>
      <trkpt lat="46.97403" lon="8.76557">
        <ele>655</ele>
        <time>2021-08-05T12:37:24.447Z</time>
      </trkpt>
      <trkpt lat="46.97403" lon="8.76556">
        <ele>655</ele>
        <time>2021-08-05T12:37:25.446Z</time>
      </trkpt>
      <trkpt lat="46.97402" lon="8.76551">
        <ele>653</ele>
        <time>2021-08-05T12:37:26.448Z</time>
      </trkpt>
      <trkpt lat="46.97402" lon="8.76549">
        <ele>652</ele>
        <time>2021-08-05T12:37:27.448Z</time>
      </trkpt>
      <trkpt lat="46.97403" lon="8.76548">
        <ele>652</ele>
        <time>2021-08-05T12:37:28.448Z</time>
      </trkpt>
      <trkpt lat="46.97403" lon="8.76547">
        <ele>651</ele>
        <time>2021-08-05T12:37:29.448Z</time>
      </trkpt>
      <trkpt lat="46.97402" lon="8.76537">
        <ele>649</ele>
        <time>2021-08-05T12:37:41.567Z</time>
      </trkpt>
      <trkpt lat="46.97401" lon="8.76538">
        <ele>648</ele>
        <time>2021-08-05T12:37:52.566Z</time>
      </trkpt>
      <trkpt lat="46.97401" lon="8.76538">
        <ele>648</ele>
        <time>2021-08-05T12:37:53.567Z</time>
      </trkpt>
      <trkpt lat="46.97401" lon="8.76539">
        <ele>648</ele>
        <time>2021-08-05T12:37:54.566Z</time>
      </trkpt>
      <trkpt lat="46.974" lon="8.76538">
        <ele>648</ele>
        <time>2021-08-05T12:37:55.567Z</time>
      </trkpt>
      <trkpt lat="46.974" lon="8.76539">
        <ele>648</ele>
        <time>2021-08-05T12:37:56.567Z</time>
      </trkpt>
      <trkpt lat="46.97399" lon="8.76538">
        <ele>648</ele>
        <time>2021-08-05T12:37:57.566Z</time>
      </trkpt>
      <trkpt lat="46.97399" lon="8.76538">
        <ele>648</ele>
        <time>2021-08-05T12:37:58.567Z</time>
      </trkpt>
      <trkpt lat="46.97399" lon="8.76538">
        <ele>648</ele>
        <time>2021-08-05T12:37:59.566Z</time>
      </trkpt>
      <trkpt lat="46.97399" lon="8.76537">
        <ele>648</ele>
        <time>2021-08-05T12:38:00.567Z</time>
      </trkpt>
      <trkpt lat="46.97399" lon="8.76536">
        <ele>648</ele>
        <time>2021-08-05T12:38:01.566Z</time>
      </trkpt>
      <trkpt lat="46.97399" lon="8.76534">
        <ele>648</ele>
        <time>2021-08-05T12:38:02.567Z</time>
      </trkpt>
      <trkpt lat="46.97399" lon="8.76532">
        <ele>647</ele>
        <time>2021-08-05T12:38:03.566Z</time>
      </trkpt>
      <trkpt lat="46.97399" lon="8.7653">
        <ele>647</ele>
        <time>2021-08-05T12:38:04.567Z</time>
      </trkpt>
      <trkpt lat="46.97398" lon="8.76529">
        <ele>647</ele>
        <time>2021-08-05T12:38:05.567Z</time>
      </trkpt>
      <trkpt lat="46.97397" lon="8.76529">
        <ele>647</ele>
        <time>2021-08-05T12:38:06.567Z</time>
      </trkpt>
      <trkpt lat="46.97396" lon="8.7653">
        <ele>647</ele>
        <time>2021-08-05T12:38:07.567Z</time>
      </trkpt>
      <trkpt lat="46.97393" lon="8.76531">
        <ele>646</ele>
        <time>2021-08-05T12:38:08.567Z</time>
      </trkpt>
      <trkpt lat="46.97392" lon="8.76531">
        <ele>646</ele>
        <time>2021-08-05T12:38:09.567Z</time>
      </trkpt>
      <trkpt lat="46.97391" lon="8.76529">
        <ele>645</ele>
        <time>2021-08-05T12:38:10.567Z</time>
      </trkpt>
      <trkpt lat="46.97391" lon="8.76528">
        <ele>645</ele>
        <time>2021-08-05T12:38:11.566Z</time>
      </trkpt>
      <trkpt lat="46.97391" lon="8.76526">
        <ele>644</ele>
        <time>2021-08-05T12:38:12.566Z</time>
      </trkpt>
      <trkpt lat="46.97392" lon="8.76524">
        <ele>644</ele>
        <time>2021-08-05T12:38:13.567Z</time>
      </trkpt>
      <trkpt lat="46.97392" lon="8.76522">
        <ele>644</ele>
        <time>2021-08-05T12:38:14.566Z</time>
      </trkpt>
      <trkpt lat="46.97393" lon="8.7652">
        <ele>643</ele>
        <time>2021-08-05T12:38:15.567Z</time>
      </trkpt>
      <trkpt lat="46.97394" lon="8.76519">
        <ele>643</ele>
        <time>2021-08-05T12:38:16.567Z</time>
      </trkpt>
      <trkpt lat="46.97394" lon="8.76518">
        <ele>642</ele>
        <time>2021-08-05T12:38:17.566Z</time>
      </trkpt>
      <trkpt lat="46.97404" lon="8.76522">
        <ele>641</ele>
        <time>2021-08-05T12:38:52.566Z</time>
      </trkpt>
      <trkpt lat="46.97402" lon="8.76524">
        <ele>641</ele>
        <time>2021-08-05T12:38:53.566Z</time>
      </trkpt>
      <trkpt lat="46.97396" lon="8.76521">
        <ele>640</ele>
        <time>2021-08-05T12:38:54.566Z</time>
      </trkpt>
      <trkpt lat="46.97394" lon="8.76517">
        <ele>640</ele>
        <time>2021-08-05T12:38:55.567Z</time>
      </trkpt>
      <trkpt lat="46.97397" lon="8.76512">
        <ele>638</ele>
        <time>2021-08-05T12:38:58.567Z</time>
      </trkpt>
      <trkpt lat="46.97399" lon="8.76507">
        <ele>638</ele>
        <time>2021-08-05T12:38:59.567Z</time>
      </trkpt>
      <trkpt lat="46.97401" lon="8.76506">
        <ele>637</ele>
        <time>2021-08-05T12:39:00.566Z</time>
      </trkpt>
      <trkpt lat="46.97402" lon="8.76506">
        <ele>637</ele>
        <time>2021-08-05T12:39:04.688Z</time>
      </trkpt>
      <trkpt lat="46.97401" lon="8.76506">
        <ele>636</ele>
        <time>2021-08-05T12:39:05.688Z</time>
      </trkpt>
      <trkpt lat="46.974" lon="8.76506">
        <ele>636</ele>
        <time>2021-08-05T12:39:07.688Z</time>
      </trkpt>
      <trkpt lat="46.974" lon="8.76507">
        <ele>636</ele>
        <time>2021-08-05T12:39:08.688Z</time>
      </trkpt>
      <trkpt lat="46.97399" lon="8.76508">
        <ele>635</ele>
        <time>2021-08-05T12:39:09.687Z</time>
      </trkpt>
      <trkpt lat="46.97398" lon="8.76511">
        <ele>635</ele>
        <time>2021-08-05T12:39:15.672Z</time>
      </trkpt>
      <trkpt lat="46.97398" lon="8.76514">
        <ele>634</ele>
        <time>2021-08-05T12:39:16.673Z</time>
      </trkpt>
      <trkpt lat="46.97398" lon="8.76515">
        <ele>634</ele>
        <time>2021-08-05T12:39:17.673Z</time>
      </trkpt>
      <trkpt lat="46.97397" lon="8.76515">
        <ele>633</ele>
        <time>2021-08-05T12:39:18.672Z</time>
      </trkpt>
      <trkpt lat="46.97397" lon="8.76515">
        <ele>633</ele>
        <time>2021-08-05T12:39:22.671Z</time>
      </trkpt>
      <trkpt lat="46.97396" lon="8.76516">
        <ele>632</ele>
        <time>2021-08-05T12:39:24.671Z</time>
      </trkpt>
      <trkpt lat="46.97396" lon="8.76515">
        <ele>632</ele>
        <time>2021-08-05T12:39:25.670Z</time>
      </trkpt>
      <trkpt lat="46.97395" lon="8.76517">
        <ele>631</ele>
        <time>2021-08-05T12:39:27.671Z</time>
      </trkpt>
      <trkpt lat="46.97395" lon="8.76516">
        <ele>631</ele>
        <time>2021-08-05T12:39:30.670Z</time>
      </trkpt>
      <trkpt lat="46.97396" lon="8.76516">
        <ele>630</ele>
        <time>2021-08-05T12:39:31.670Z</time>
      </trkpt>
      <trkpt lat="46.97396" lon="8.76516">
        <ele>630</ele>
        <time>2021-08-05T12:39:38.805Z</time>
      </trkpt>
      <trkpt lat="46.97396" lon="8.76515">
        <ele>630</ele>
        <time>2021-08-05T12:39:43.698Z</time>
      </trkpt>
      <trkpt lat="46.97396" lon="8.76516">
        <ele>629</ele>
        <time>2021-08-05T12:39:44.697Z</time>
      </trkpt>
      <trkpt lat="46.97396" lon="8.76515">
        <ele>629</ele>
        <time>2021-08-05T12:39:45.697Z</time>
      </trkpt>
      <trkpt lat="46.97395" lon="8.76516">
        <ele>628</ele>
        <time>2021-08-05T12:39:52.545Z</time>
      </trkpt>
      <trkpt lat="46.97394" lon="8.76521">
        <ele>627</ele>
        <time>2021-08-05T12:39:54.546Z</time>
      </trkpt>
      <trkpt lat="46.97394" lon="8.76523">
        <ele>627</ele>
        <time>2021-08-05T12:39:55.545Z</time>
      </trkpt>
      <trkpt lat="46.97393" lon="8.76523">
        <ele>626</ele>
        <time>2021-08-05T12:39:59.687Z</time>
      </trkpt>
      <trkpt lat="46.97392" lon="8.76523">
        <ele>626</ele>
        <time>2021-08-05T12:40:00.687Z</time>
      </trkpt>
      <trkpt lat="46.97391" lon="8.76523">
        <ele>626</ele>
        <time>2021-08-05T12:40:01.687Z</time>
      </trkpt>
      <trkpt lat="46.9739" lon="8.76522">
        <ele>625</ele>
        <time>2021-08-05T12:40:02.687Z</time>
      </trkpt>
      <trkpt lat="46.9739" lon="8.7652">
        <ele>625</ele>
        <time>2021-08-05T12:40:03.687Z</time>
      </trkpt>
      <trkpt lat="46.97392" lon="8.76516">
        <ele>624</ele>
        <time>2021-08-05T12:40:04.687Z</time>
      </trkpt>
      <trkpt lat="46.97392" lon="8.76516">
        <ele>624</ele>
        <time>2021-08-05T12:40:05.687Z</time>
      </trkpt>
      <trkpt lat="46.97392" lon="8.76516">
        <ele>624</ele>
        <time>2021-08-05T12:40:06.686Z</time>
      </trkpt>
      <trkpt lat="46.97392" lon="8.76515">
        <ele>623</ele>
        <time>2021-08-05T12:40:07.687Z</time>
      </trkpt>
      <trkpt lat="46.97392" lon="8.76516">
        <ele>623</ele>
        <time>2021-08-05T12:40:08.687Z</time>
      </trkpt>
      <trkpt lat="46.97391" lon="8.76517">
        <ele>622</ele>
        <time>2021-08-05T12:40:09.686Z</time>
      </trkpt>
      <trkpt lat="46.97391" lon="8.76518">
        <ele>622</ele>
        <time>2021-08-05T12:40:10.687Z</time>
      </trkpt>
      <trkpt lat="46.9739" lon="8.76518">
        <ele>621</ele>
        <time>2021-08-05T12:40:11.687Z</time>
      </trkpt>
      <trkpt lat="46.97389" lon="8.76518">
        <ele>621</ele>
        <time>2021-08-05T12:40:12.687Z</time>
      </trkpt>
      <trkpt lat="46.97389" lon="8.76517">
        <ele>620</ele>
        <time>2021-08-05T12:40:13.687Z</time>
      </trkpt>
      <trkpt lat="46.97388" lon="8.76515">
        <ele>620</ele>
        <time>2021-08-05T12:40:14.687Z</time>
      </trkpt>
      <trkpt lat="46.97389" lon="8.76513">
        <ele>619</ele>
        <time>2021-08-05T12:40:15.687Z</time>
      </trkpt>
      <trkpt lat="46.9739" lon="8.76508">
        <ele>619</ele>
        <time>2021-08-05T12:40:16.687Z</time>
      </trkpt>
      <trkpt lat="46.97391" lon="8.76502">
        <ele>618</ele>
        <time>2021-08-05T12:40:17.686Z</time>
      </trkpt>
      <trkpt lat="46.97391" lon="8.76493">
        <ele>618</ele>
        <time>2021-08-05T12:40:18.687Z</time>
      </trkpt>
      <trkpt lat="46.97391" lon="8.76488">
        <ele>617</ele>
        <time>2021-08-05T12:40:19.687Z</time>
      </trkpt>
      <trkpt lat="46.97391" lon="8.76486">
        <ele>617</ele>
        <time>2021-08-05T12:40:20.687Z</time>
      </trkpt>
      <trkpt lat="46.9739" lon="8.76485">
        <ele>616</ele>
        <time>2021-08-05T12:40:22.811Z</time>
      </trkpt>
      <trkpt lat="46.9739" lon="8.76485">
        <ele>616</ele>
        <time>2021-08-05T12:40:23.812Z</time>
      </trkpt>
      <trkpt lat="46.9739" lon="8.76485">
        <ele>615</ele>
        <time>2021-08-05T12:40:24.812Z</time>
      </trkpt>
      <trkpt lat="46.9739" lon="8.76485">
        <ele>615</ele>
        <time>2021-08-05T12:40:25.811Z</time>
      </trkpt>
      <trkpt lat="46.9739" lon="8.76486">
        <ele>614</ele>
        <time>2021-08-05T12:40:31.936Z</time>
      </trkpt>
      <trkpt lat="46.97389" lon="8.76486">
        <ele>613</ele>
        <time>2021-08-05T12:40:32.936Z</time>
      </trkpt>
      <trkpt lat="46.97389" lon="8.76484">
        <ele>612</ele>
        <time>2021-08-05T12:40:33.936Z</time>
      </trkpt>
      <trkpt lat="46.9739" lon="8.76482">
        <ele>611</ele>
        <time>2021-08-05T12:40:37.050Z</time>
      </trkpt>
      <trkpt lat="46.97391" lon="8.76481">
        <ele>611</ele>
        <time>2021-08-05T12:40:38.049Z</time>
      </trkpt>
      <trkpt lat="46.97391" lon="8.76481">
        <ele>610</ele>
        <time>2021-08-05T12:40:39.050Z</time>
      </trkpt>
      <trkpt lat="46.97392" lon="8.76482">
        <ele>610</ele>
        <time>2021-08-05T12:40:40.049Z</time>
      </trkpt>
      <trkpt lat="46.97392" lon="8.76484">
        <ele>610</ele>
        <time>2021-08-05T12:40:41.050Z</time>
      </trkpt>
      <trkpt lat="46.97392" lon="8.76487">
        <ele>609</ele>
        <time>2021-08-05T12:40:42.049Z</time>
      </trkpt>
      <trkpt lat="46.97392" lon="8.76488">
        <ele>609</ele>
        <time>2021-08-05T12:40:44.179Z</time>
      </trkpt>
      <trkpt lat="46.97391" lon="8.76489">
        <ele>609</ele>
        <time>2021-08-05T12:40:45.179Z</time>
      </trkpt>
      <trkpt lat="46.97391" lon="8.7649">
        <ele>609</ele>
        <time>2021-08-05T12:40:46.179Z</time>
      </trkpt>
      <trkpt lat="46.97391" lon="8.7649">
        <ele>608</ele>
        <time>2021-08-05T12:40:47.179Z</time>
      </trkpt>
      <trkpt lat="46.97391" lon="8.76491">
        <ele>608</ele>
        <time>2021-08-05T12:40:53.198Z</time>
      </trkpt>
      <trkpt lat="46.97392" lon="8.76491">
        <ele>608</ele>
        <time>2021-08-05T12:40:54.199Z</time>
      </trkpt>
      <trkpt lat="46.97392" lon="8.76491">
        <ele>608</ele>
        <time>2021-08-05T12:40:55.198Z</time>
      </trkpt>
      <trkpt lat="46.97392" lon="8.76492">
        <ele>608</ele>
        <time>2021-08-05T12:41:27.319Z</time>
      </trkpt>
      <trkpt lat="46.97392" lon="8.76493">
        <ele>608</ele>
        <time>2021-08-05T12:41:28.319Z</time>
      </trkpt>
      <trkpt lat="46.97392" lon="8.76496">
        <ele>608</ele>
        <time>2021-08-05T12:41:37.476Z</time>
      </trkpt>
      <trkpt lat="46.97391" lon="8.76498">
        <ele>608</ele>
        <time>2021-08-05T12:41:38.476Z</time>
      </trkpt>
      <trkpt lat="46.97391" lon="8.76499">
        <ele>608</ele>
        <time>2021-08-05T12:41:39.476Z</time>
      </trkpt>
      <trkpt lat="46.9739" lon="8.76506">
        <ele>608</ele>
        <time>2021-08-05T12:41:40.475Z</time>
      </trkpt>
      <trkpt lat="46.9739" lon="8.76506">
        <ele>608</ele>
        <time>2021-08-05T12:41:41.476Z</time>
      </trkpt>
      <trkpt lat="46.97389" lon="8.76508">
        <ele>608</ele>
        <time>2021-08-05T12:42:07.593Z</time>
      </trkpt>
      <trkpt lat="46.97388" lon="8.76509">
        <ele>608</ele>
        <time>2021-08-05T12:42:08.593Z</time>
      </trkpt>
      <trkpt lat="46.97387" lon="8.7651">
        <ele>608</ele>
        <time>2021-08-05T12:42:09.594Z</time>
      </trkpt>
      <trkpt lat="46.97385" lon="8.76511">
        <ele>607</ele>
        <time>2021-08-05T12:42:10.593Z</time>
      </trkpt>
      <trkpt lat="46.97383" lon="8.76514">
        <ele>607</ele>
        <time>2021-08-05T12:42:21.672Z</time>
      </trkpt>
      <trkpt lat="46.9738" lon="8.76515">
        <ele>607</ele>
        <time>2021-08-05T12:42:22.671Z</time>
      </trkpt>
      <trkpt lat="46.9738" lon="8.76516">
        <ele>607</ele>
        <time>2021-08-05T12:42:28.556Z</time>
      </trkpt>
      <trkpt lat="46.97381" lon="8.76518">
        <ele>607</ele>
        <time>2021-08-05T12:42:29.555Z</time>
      </trkpt>
      <trkpt lat="46.97381" lon="8.76519">
        <ele>607</ele>
        <time>2021-08-05T12:42:52.475Z</time>
      </trkpt>
      <trkpt lat="46.97381" lon="8.7652">
        <ele>608</ele>
        <time>2021-08-05T12:42:53.475Z</time>
      </trkpt>
      <trkpt lat="46.9738" lon="8.7652">
        <ele>608</ele>
        <time>2021-08-05T12:42:54.475Z</time>
      </trkpt>
      <trkpt lat="46.97379" lon="8.7652">
        <ele>608</ele>
        <time>2021-08-05T12:43:00.544Z</time>
      </trkpt>
      <trkpt lat="46.97379" lon="8.7652">
        <ele>609</ele>
        <time>2021-08-05T12:43:01.545Z</time>
      </trkpt>
      <trkpt lat="46.97379" lon="8.7652">
        <ele>609</ele>
        <time>2021-08-05T12:43:02.544Z</time>
      </trkpt>
      <trkpt lat="46.97379" lon="8.76521">
        <ele>609</ele>
        <time>2021-08-05T12:43:03.544Z</time>
      </trkpt>
      <trkpt lat="46.97378" lon="8.76521">
        <ele>610</ele>
        <time>2021-08-05T12:43:16.572Z</time>
      </trkpt>
      <trkpt lat="46.97378" lon="8.76523">
        <ele>610</ele>
        <time>2021-08-05T12:43:17.572Z</time>
      </trkpt>
      <trkpt lat="46.97378" lon="8.76524">
        <ele>611</ele>
        <time>2021-08-05T12:43:18.572Z</time>
      </trkpt>
      <trkpt lat="46.97378" lon="8.76525">
        <ele>612</ele>
        <time>2021-08-05T12:43:19.572Z</time>
      </trkpt>
      <trkpt lat="46.97378" lon="8.76525">
        <ele>612</ele>
        <time>2021-08-05T12:43:32.699Z</time>
      </trkpt>
      <trkpt lat="46.97378" lon="8.76524">
        <ele>613</ele>
        <time>2021-08-05T12:43:33.700Z</time>
      </trkpt>
      <trkpt lat="46.97379" lon="8.76524">
        <ele>614</ele>
        <time>2021-08-05T12:43:39.548Z</time>
      </trkpt>
      <trkpt lat="46.9738" lon="8.76523">
        <ele>615</ele>
        <time>2021-08-05T12:43:40.547Z</time>
      </trkpt>
      <trkpt lat="46.9738" lon="8.76523">
        <ele>615</ele>
        <time>2021-08-05T12:43:41.547Z</time>
      </trkpt>
      <trkpt lat="46.97381" lon="8.76523">
        <ele>616</ele>
        <time>2021-08-05T12:43:42.547Z</time>
      </trkpt>
      <trkpt lat="46.97381" lon="8.76524">
        <ele>617</ele>
        <time>2021-08-05T12:43:43.547Z</time>
      </trkpt>
      <trkpt lat="46.97382" lon="8.76524">
        <ele>617</ele>
        <time>2021-08-05T12:43:44.548Z</time>
      </trkpt>
      <trkpt lat="46.97383" lon="8.76524">
        <ele>618</ele>
        <time>2021-08-05T12:43:45.547Z</time>
      </trkpt>
      <trkpt lat="46.97384" lon="8.76524">
        <ele>618</ele>
        <time>2021-08-05T12:43:53.663Z</time>
      </trkpt>
      <trkpt lat="46.97385" lon="8.76523">
        <ele>619</ele>
        <time>2021-08-05T12:43:54.662Z</time>
      </trkpt>
      <trkpt lat="46.97386" lon="8.76521">
        <ele>620</ele>
        <time>2021-08-05T12:43:55.662Z</time>
      </trkpt>
      <trkpt lat="46.97387" lon="8.76521">
        <ele>620</ele>
        <time>2021-08-05T12:44:16.681Z</time>
      </trkpt>
      <trkpt lat="46.97388" lon="8.76522">
        <ele>620</ele>
        <time>2021-08-05T12:44:27.589Z</time>
      </trkpt>
      <trkpt lat="46.9739" lon="8.76522">
        <ele>621</ele>
        <time>2021-08-05T12:44:28.589Z</time>
      </trkpt>
      <trkpt lat="46.97394" lon="8.76518">
        <ele>621</ele>
        <time>2021-08-05T12:44:29.590Z</time>
      </trkpt>
      <trkpt lat="46.97396" lon="8.76516">
        <ele>622</ele>
        <time>2021-08-05T12:44:30.589Z</time>
      </trkpt>
      <trkpt lat="46.97395" lon="8.76513">
        <ele>622</ele>
        <time>2021-08-05T12:44:31.589Z</time>
      </trkpt>
      <trkpt lat="46.97396" lon="8.76512">
        <ele>622</ele>
        <time>2021-08-05T12:44:42.680Z</time>
      </trkpt>
      <trkpt lat="46.97397" lon="8.76512">
        <ele>623</ele>
        <time>2021-08-05T12:44:43.679Z</time>
      </trkpt>
      <trkpt lat="46.97398" lon="8.7651">
        <ele>623</ele>
        <time>2021-08-05T12:44:54.548Z</time>
      </trkpt>
      <trkpt lat="46.97399" lon="8.76508">
        <ele>624</ele>
        <time>2021-08-05T12:44:55.548Z</time>
      </trkpt>
      <trkpt lat="46.974" lon="8.76506">
        <ele>624</ele>
        <time>2021-08-05T12:45:04.452Z</time>
      </trkpt>
      <trkpt lat="46.974" lon="8.76505">
        <ele>625</ele>
        <time>2021-08-05T12:45:05.451Z</time>
      </trkpt>
      <trkpt lat="46.974" lon="8.76505">
        <ele>625</ele>
        <time>2021-08-05T12:45:06.451Z</time>
      </trkpt>
      <trkpt lat="46.97401" lon="8.76507">
        <ele>626</ele>
        <time>2021-08-05T12:45:07.453Z</time>
      </trkpt>
      <trkpt lat="46.97401" lon="8.76507">
        <ele>626</ele>
        <time>2021-08-05T12:45:09.556Z</time>
      </trkpt>
      <trkpt lat="46.97399" lon="8.76507">
        <ele>627</ele>
        <time>2021-08-05T12:45:10.556Z</time>
      </trkpt>
      <trkpt lat="46.97398" lon="8.76507">
        <ele>627</ele>
        <time>2021-08-05T12:45:11.556Z</time>
      </trkpt>
      <trkpt lat="46.97397" lon="8.76507">
        <ele>627</ele>
        <time>2021-08-05T12:45:23.657Z</time>
      </trkpt>
      <trkpt lat="46.97397" lon="8.76506">
        <ele>628</ele>
        <time>2021-08-05T12:45:24.657Z</time>
      </trkpt>
      <trkpt lat="46.97394" lon="8.76504">
        <ele>628</ele>
        <time>2021-08-05T12:45:36.452Z</time>
      </trkpt>
      <trkpt lat="46.97391" lon="8.76502">
        <ele>629</ele>
        <time>2021-08-05T12:45:37.453Z</time>
      </trkpt>
      <trkpt lat="46.97389" lon="8.76501">
        <ele>629</ele>
        <time>2021-08-05T12:45:38.452Z</time>
      </trkpt>
      <trkpt lat="46.97387" lon="8.76504">
        <ele>629</ele>
        <time>2021-08-05T12:46:32.658Z</time>
      </trkpt>
      <trkpt lat="46.97385" lon="8.76507">
        <ele>629</ele>
        <time>2021-08-05T13:23:01.494Z</time>
      </trkpt>
      <trkpt lat="46.97388" lon="8.76514">
        <ele>630</ele>
        <time>2021-08-05T13:23:07.493Z</time>
      </trkpt>
      <trkpt lat="46.97386" lon="8.76517">
        <ele>630</ele>
        <time>2021-08-05T13:23:08.494Z</time>
      </trkpt>
      <trkpt lat="46.97386" lon="8.76521">
        <ele>630</ele>
        <time>2021-08-05T13:23:09.494Z</time>
      </trkpt>
      <trkpt lat="46.97391" lon="8.76528">
        <ele>630</ele>
        <time>2021-08-05T13:23:15.493Z</time>
      </trkpt>
      <trkpt lat="46.97392" lon="8.76528">
        <ele>630</ele>
        <time>2021-08-05T13:23:17.494Z</time>
      </trkpt>
      <trkpt lat="46.97391" lon="8.76527">
        <ele>630</ele>
        <time>2021-08-05T13:23:18.494Z</time>
      </trkpt>
      <trkpt lat="46.9739" lon="8.76526">
        <ele>630</ele>
        <time>2021-08-05T13:23:19.493Z</time>
      </trkpt>
      <trkpt lat="46.97392" lon="8.76525">
        <ele>630</ele>
        <time>2021-08-05T13:23:25.494Z</time>
      </trkpt>
      <trkpt lat="46.97392" lon="8.76527">
        <ele>630</ele>
        <time>2021-08-05T13:23:26.494Z</time>
      </trkpt>
      <trkpt lat="46.97389" lon="8.76546">
        <ele>630</ele>
        <time>2021-08-05T13:23:33.494Z</time>
      </trkpt>
      <trkpt lat="46.97389" lon="8.76545">
        <ele>630</ele>
        <time>2021-08-05T13:23:34.494Z</time>
      </trkpt>
      <trkpt lat="46.97388" lon="8.76545">
        <ele>630</ele>
        <time>2021-08-05T13:23:35.494Z</time>
      </trkpt>
      <trkpt lat="46.97387" lon="8.76545">
        <ele>630</ele>
        <time>2021-08-05T13:23:36.494Z</time>
      </trkpt>
      <trkpt lat="46.97385" lon="8.76545">
        <ele>630</ele>
        <time>2021-08-05T13:23:37.494Z</time>
      </trkpt>
      <trkpt lat="46.97385" lon="8.76545">
        <ele>629</ele>
        <time>2021-08-05T13:23:38.493Z</time>
      </trkpt>
      <trkpt lat="46.97382" lon="8.76544">
        <ele>629</ele>
        <time>2021-08-05T13:23:39.494Z</time>
      </trkpt>
      <trkpt lat="46.97384" lon="8.76542">
        <ele>629</ele>
        <time>2021-08-05T13:23:40.493Z</time>
      </trkpt>
      <trkpt lat="46.97386" lon="8.76541">
        <ele>628</ele>
        <time>2021-08-05T13:23:41.494Z</time>
      </trkpt>
      <trkpt lat="46.97395" lon="8.76541">
        <ele>626</ele>
        <time>2021-08-05T13:23:44.493Z</time>
      </trkpt>
      <trkpt lat="46.97396" lon="8.76541">
        <ele>625</ele>
        <time>2021-08-05T13:23:45.493Z</time>
      </trkpt>
      <trkpt lat="46.97399" lon="8.7654">
        <ele>624</ele>
        <time>2021-08-05T13:23:48.493Z</time>
      </trkpt>
      <trkpt lat="46.97397" lon="8.76538">
        <ele>624</ele>
        <time>2021-08-05T13:23:49.494Z</time>
      </trkpt>
      <trkpt lat="46.97396" lon="8.76537">
        <ele>624</ele>
        <time>2021-08-05T13:23:59.571Z</time>
      </trkpt>
      <trkpt lat="46.97394" lon="8.76535">
        <ele>625</ele>
        <time>2021-08-05T13:24:00.570Z</time>
      </trkpt>
      <trkpt lat="46.97395" lon="8.76535">
        <ele>625</ele>
        <time>2021-08-05T13:24:01.571Z</time>
      </trkpt>
      <trkpt lat="46.97397" lon="8.76535">
        <ele>625</ele>
        <time>2021-08-05T13:24:02.570Z</time>
      </trkpt>
      <trkpt lat="46.974" lon="8.76536">
        <ele>626</ele>
        <time>2021-08-05T13:24:03.570Z</time>
      </trkpt>
      <trkpt lat="46.97402" lon="8.76537">
        <ele>627</ele>
        <time>2021-08-05T13:24:04.570Z</time>
      </trkpt>
      <trkpt lat="46.97405" lon="8.76538">
        <ele>627</ele>
        <time>2021-08-05T13:24:05.570Z</time>
      </trkpt>
      <trkpt lat="46.97407" lon="8.76538">
        <ele>628</ele>
        <time>2021-08-05T13:24:06.570Z</time>
      </trkpt>
      <trkpt lat="46.9741" lon="8.76542">
        <ele>629</ele>
        <time>2021-08-05T13:24:07.570Z</time>
      </trkpt>
      <trkpt lat="46.97408" lon="8.76542">
        <ele>630</ele>
        <time>2021-08-05T13:24:08.570Z</time>
      </trkpt>
      <trkpt lat="46.97358" lon="8.76513">
        <ele>634</ele>
        <time>2021-08-05T13:27:17.532Z</time>
      </trkpt>
      <trkpt lat="46.97362" lon="8.7654">
        <ele>636</ele>
        <time>2021-08-05T13:27:18.532Z</time>
      </trkpt>
      <trkpt lat="46.97369" lon="8.76513">
        <ele>638</ele>
        <time>2021-08-05T13:27:19.531Z</time>
      </trkpt>
      <trkpt lat="46.97373" lon="8.76502">
        <ele>639</ele>
        <time>2021-08-05T13:27:20.532Z</time>
      </trkpt>
      <trkpt lat="46.97377" lon="8.76494">
        <ele>640</ele>
        <time>2021-08-05T13:27:21.531Z</time>
      </trkpt>
      <trkpt lat="46.97375" lon="8.76488">
        <ele>642</ele>
        <time>2021-08-05T13:27:22.532Z</time>
      </trkpt>
      <trkpt lat="46.97376" lon="8.76489">
        <ele>642</ele>
        <time>2021-08-05T13:27:23.531Z</time>
      </trkpt>
      <trkpt lat="46.97381" lon="8.76493">
        <ele>643</ele>
        <time>2021-08-05T13:27:24.531Z</time>
      </trkpt>
      <trkpt lat="46.97386" lon="8.76496">
        <ele>644</ele>
        <time>2021-08-05T13:27:25.531Z</time>
      </trkpt>
      <trkpt lat="46.97381" lon="8.76511">
        <ele>644</ele>
        <time>2021-08-05T13:27:26.532Z</time>
      </trkpt>
      <trkpt lat="46.97383" lon="8.76518">
        <ele>644</ele>
        <time>2021-08-05T13:27:27.531Z</time>
      </trkpt>
      <trkpt lat="46.97384" lon="8.76523">
        <ele>643</ele>
        <time>2021-08-05T13:27:28.531Z</time>
      </trkpt>
      <trkpt lat="46.97385" lon="8.76526">
        <ele>642</ele>
        <time>2021-08-05T13:27:29.531Z</time>
      </trkpt>
      <trkpt lat="46.97385" lon="8.76526">
        <ele>641</ele>
        <time>2021-08-05T13:27:30.531Z</time>
      </trkpt>
      <trkpt lat="46.97386" lon="8.76523">
        <ele>640</ele>
        <time>2021-08-05T13:27:31.531Z</time>
      </trkpt>
      <trkpt lat="46.97388" lon="8.76515">
        <ele>639</ele>
        <time>2021-08-05T13:27:32.531Z</time>
      </trkpt>
      <trkpt lat="46.97391" lon="8.765">
        <ele>637</ele>
        <time>2021-08-05T13:27:34.532Z</time>
      </trkpt>
      <trkpt lat="46.97392" lon="8.76495">
        <ele>637</ele>
        <time>2021-08-05T13:27:35.531Z</time>
      </trkpt>
      <trkpt lat="46.97396" lon="8.76482">
        <ele>636</ele>
        <time>2021-08-05T13:27:36.531Z</time>
      </trkpt>
      <trkpt lat="46.97397" lon="8.76479">
        <ele>636</ele>
        <time>2021-08-05T13:27:37.531Z</time>
      </trkpt>
      <trkpt lat="46.974" lon="8.76474">
        <ele>635</ele>
        <time>2021-08-05T13:27:38.531Z</time>
      </trkpt>
      <trkpt lat="46.97402" lon="8.76473">
        <ele>634</ele>
        <time>2021-08-05T13:27:39.531Z</time>
      </trkpt>
      <trkpt lat="46.97401" lon="8.76471">
        <ele>634</ele>
        <time>2021-08-05T13:27:40.531Z</time>
      </trkpt>
      <trkpt lat="46.97402" lon="8.76468">
        <ele>633</ele>
        <time>2021-08-05T13:27:41.531Z</time>
      </trkpt>
      <trkpt lat="46.97403" lon="8.76465">
        <ele>633</ele>
        <time>2021-08-05T13:27:42.531Z</time>
      </trkpt>
      <trkpt lat="46.97403" lon="8.76462">
        <ele>632</ele>
        <time>2021-08-05T13:27:43.531Z</time>
      </trkpt>
      <trkpt lat="46.97402" lon="8.76462">
        <ele>632</ele>
        <time>2021-08-05T13:27:44.531Z</time>
      </trkpt>
      <trkpt lat="46.97401" lon="8.76462">
        <ele>632</ele>
        <time>2021-08-05T13:27:45.531Z</time>
      </trkpt>
      <trkpt lat="46.97401" lon="8.76462">
        <ele>632</ele>
        <time>2021-08-05T13:27:46.532Z</time>
      </trkpt>
      <trkpt lat="46.974" lon="8.76461">
        <ele>632</ele>
        <time>2021-08-05T13:27:47.531Z</time>
      </trkpt>
      <trkpt lat="46.974" lon="8.76459">
        <ele>633</ele>
        <time>2021-08-05T13:27:48.531Z</time>
      </trkpt>
      <trkpt lat="46.97399" lon="8.76462">
        <ele>633</ele>
        <time>2021-08-05T13:27:49.532Z</time>
      </trkpt>
      <trkpt lat="46.97397" lon="8.76467">
        <ele>633</ele>
        <time>2021-08-05T13:27:50.532Z</time>
      </trkpt>
      <trkpt lat="46.97395" lon="8.7647">
        <ele>634</ele>
        <time>2021-08-05T13:27:51.532Z</time>
      </trkpt>
      <trkpt lat="46.97393" lon="8.76473">
        <ele>634</ele>
        <time>2021-08-05T13:27:52.531Z</time>
      </trkpt>
      <trkpt lat="46.97391" lon="8.76475">
        <ele>635</ele>
        <time>2021-08-05T13:27:53.532Z</time>
      </trkpt>
      <trkpt lat="46.97391" lon="8.76475">
        <ele>635</ele>
        <time>2021-08-05T13:27:54.532Z</time>
      </trkpt>
      <trkpt lat="46.97389" lon="8.76475">
        <ele>636</ele>
        <time>2021-08-05T13:27:55.532Z</time>
      </trkpt>
      <trkpt lat="46.97387" lon="8.76479">
        <ele>637</ele>
        <time>2021-08-05T13:27:56.532Z</time>
      </trkpt>
      <trkpt lat="46.97386" lon="8.7648">
        <ele>637</ele>
        <time>2021-08-05T13:27:57.531Z</time>
      </trkpt>
      <trkpt lat="46.97385" lon="8.76481">
        <ele>638</ele>
        <time>2021-08-05T13:27:58.532Z</time>
      </trkpt>
      <trkpt lat="46.97384" lon="8.76483">
        <ele>639</ele>
        <time>2021-08-05T13:27:59.531Z</time>
      </trkpt>
      <trkpt lat="46.97383" lon="8.76484">
        <ele>640</ele>
        <time>2021-08-05T13:28:00.532Z</time>
      </trkpt>
      <trkpt lat="46.97384" lon="8.76484">
        <ele>641</ele>
        <time>2021-08-05T13:28:01.531Z</time>
      </trkpt>
      <trkpt lat="46.97384" lon="8.76482">
        <ele>642</ele>
        <time>2021-08-05T13:28:02.532Z</time>
      </trkpt>
      <trkpt lat="46.97384" lon="8.76481">
        <ele>642</ele>
        <time>2021-08-05T13:28:03.532Z</time>
      </trkpt>
      <trkpt lat="46.97383" lon="8.76482">
        <ele>643</ele>
        <time>2021-08-05T13:28:04.532Z</time>
      </trkpt>
      <trkpt lat="46.97384" lon="8.76481">
        <ele>644</ele>
        <time>2021-08-05T13:28:05.532Z</time>
      </trkpt>
      <trkpt lat="46.97385" lon="8.7648">
        <ele>645</ele>
        <time>2021-08-05T13:28:06.532Z</time>
      </trkpt>
      <trkpt lat="46.97386" lon="8.76479">
        <ele>646</ele>
        <time>2021-08-05T13:28:07.532Z</time>
      </trkpt>
      <trkpt lat="46.97386" lon="8.76478">
        <ele>646</ele>
        <time>2021-08-05T13:28:08.532Z</time>
      </trkpt>
      <trkpt lat="46.97387" lon="8.76478">
        <ele>646</ele>
        <time>2021-08-05T13:28:09.532Z</time>
      </trkpt>
      <trkpt lat="46.97385" lon="8.76479">
        <ele>647</ele>
        <time>2021-08-05T13:28:10.532Z</time>
      </trkpt>
      <trkpt lat="46.97385" lon="8.76479">
        <ele>647</ele>
        <time>2021-08-05T13:28:11.531Z</time>
      </trkpt>
      <trkpt lat="46.97384" lon="8.7648">
        <ele>647</ele>
        <time>2021-08-05T13:28:12.532Z</time>
      </trkpt>
      <trkpt lat="46.97382" lon="8.76484">
        <ele>648</ele>
        <time>2021-08-05T13:28:13.532Z</time>
      </trkpt>
      <trkpt lat="46.97381" lon="8.76488">
        <ele>648</ele>
        <time>2021-08-05T13:28:14.532Z</time>
      </trkpt>
      <trkpt lat="46.9738" lon="8.76491">
        <ele>649</ele>
        <time>2021-08-05T13:28:15.531Z</time>
      </trkpt>
      <trkpt lat="46.97379" lon="8.76495">
        <ele>649</ele>
        <time>2021-08-05T13:28:16.532Z</time>
      </trkpt>
      <trkpt lat="46.97379" lon="8.76498">
        <ele>649</ele>
        <time>2021-08-05T13:28:17.531Z</time>
      </trkpt>
      <trkpt lat="46.97377" lon="8.76502">
        <ele>650</ele>
        <time>2021-08-05T13:28:18.532Z</time>
      </trkpt>
      <trkpt lat="46.97376" lon="8.76505">
        <ele>650</ele>
        <time>2021-08-05T13:28:19.531Z</time>
      </trkpt>
      <trkpt lat="46.97376" lon="8.76507">
        <ele>651</ele>
        <time>2021-08-05T13:28:20.531Z</time>
      </trkpt>
      <trkpt lat="46.97377" lon="8.76509">
        <ele>652</ele>
        <time>2021-08-05T13:28:21.531Z</time>
      </trkpt>
      <trkpt lat="46.97377" lon="8.7651">
        <ele>652</ele>
        <time>2021-08-05T13:28:22.532Z</time>
      </trkpt>
      <trkpt lat="46.97376" lon="8.7651">
        <ele>653</ele>
        <time>2021-08-05T13:28:23.532Z</time>
      </trkpt>
      <trkpt lat="46.97376" lon="8.7651">
        <ele>654</ele>
        <time>2021-08-05T13:28:24.532Z</time>
      </trkpt>
      <trkpt lat="46.97376" lon="8.76511">
        <ele>654</ele>
        <time>2021-08-05T13:28:25.531Z</time>
      </trkpt>
      <trkpt lat="46.97376" lon="8.76512">
        <ele>655</ele>
        <time>2021-08-05T13:28:26.531Z</time>
      </trkpt>
      <trkpt lat="46.97375" lon="8.76511">
        <ele>655</ele>
        <time>2021-08-05T13:28:27.532Z</time>
      </trkpt>
      <trkpt lat="46.97373" lon="8.76513">
        <ele>657</ele>
        <time>2021-08-05T13:28:28.532Z</time>
      </trkpt>
      <trkpt lat="46.97373" lon="8.76512">
        <ele>657</ele>
        <time>2021-08-05T13:28:29.533Z</time>
      </trkpt>
      <trkpt lat="46.97373" lon="8.76511">
        <ele>657</ele>
        <time>2021-08-05T13:28:30.532Z</time>
      </trkpt>
      <trkpt lat="46.97373" lon="8.76509">
        <ele>658</ele>
        <time>2021-08-05T13:28:31.533Z</time>
      </trkpt>
      <trkpt lat="46.97373" lon="8.76508">
        <ele>658</ele>
        <time>2021-08-05T13:28:32.532Z</time>
      </trkpt>
      <trkpt lat="46.97373" lon="8.76508">
        <ele>659</ele>
        <time>2021-08-05T13:28:33.532Z</time>
      </trkpt>
      <trkpt lat="46.97373" lon="8.76507">
        <ele>659</ele>
        <time>2021-08-05T13:28:34.532Z</time>
      </trkpt>
      <trkpt lat="46.97372" lon="8.76507">
        <ele>660</ele>
        <time>2021-08-05T13:28:35.532Z</time>
      </trkpt>
      <trkpt lat="46.97372" lon="8.76507">
        <ele>660</ele>
        <time>2021-08-05T13:28:36.533Z</time>
      </trkpt>
      <trkpt lat="46.97372" lon="8.76507">
        <ele>661</ele>
        <time>2021-08-05T13:28:37.533Z</time>
      </trkpt>
      <trkpt lat="46.97371" lon="8.76507">
        <ele>661</ele>
        <time>2021-08-05T13:28:38.533Z</time>
      </trkpt>
      <trkpt lat="46.97371" lon="8.76507">
        <ele>661</ele>
        <time>2021-08-05T13:28:39.533Z</time>
      </trkpt>
      <trkpt lat="46.97371" lon="8.76507">
        <ele>662</ele>
        <time>2021-08-05T13:28:40.533Z</time>
      </trkpt>
      <trkpt lat="46.97371" lon="8.76505">
        <ele>662</ele>
        <time>2021-08-05T13:28:41.533Z</time>
      </trkpt>
      <trkpt lat="46.97372" lon="8.76502">
        <ele>663</ele>
        <time>2021-08-05T13:28:42.532Z</time>
      </trkpt>
      <trkpt lat="46.97373" lon="8.765">
        <ele>663</ele>
        <time>2021-08-05T13:28:43.533Z</time>
      </trkpt>
      <trkpt lat="46.9738" lon="8.76493">
        <ele>667</ele>
        <time>2021-08-05T13:28:44.533Z</time>
      </trkpt>
      <trkpt lat="46.9738" lon="8.76493">
        <ele>667</ele>
        <time>2021-08-05T13:28:45.533Z</time>
      </trkpt>
      <trkpt lat="46.9738" lon="8.76494">
        <ele>666</ele>
        <time>2021-08-05T13:28:46.532Z</time>
      </trkpt>
      <trkpt lat="46.97379" lon="8.76494">
        <ele>666</ele>
        <time>2021-08-05T13:28:47.533Z</time>
      </trkpt>
      <trkpt lat="46.97379" lon="8.76495">
        <ele>666</ele>
        <time>2021-08-05T13:28:48.532Z</time>
      </trkpt>
      <trkpt lat="46.9738" lon="8.76494">
        <ele>665</ele>
        <time>2021-08-05T13:28:49.532Z</time>
      </trkpt>
      <trkpt lat="46.9738" lon="8.76493">
        <ele>665</ele>
        <time>2021-08-05T13:28:50.533Z</time>
      </trkpt>
      <trkpt lat="46.97379" lon="8.76494">
        <ele>664</ele>
        <time>2021-08-05T13:28:51.533Z</time>
      </trkpt>
      <trkpt lat="46.97379" lon="8.76494">
        <ele>664</ele>
        <time>2021-08-05T13:28:52.532Z</time>
      </trkpt>
      <trkpt lat="46.97379" lon="8.76495">
        <ele>664</ele>
        <time>2021-08-05T13:28:53.532Z</time>
      </trkpt>
      <trkpt lat="46.97379" lon="8.76496">
        <ele>663</ele>
        <time>2021-08-05T13:28:54.533Z</time>
      </trkpt>
      <trkpt lat="46.97379" lon="8.76497">
        <ele>663</ele>
        <time>2021-08-05T13:28:55.532Z</time>
      </trkpt>
      <trkpt lat="46.97379" lon="8.76498">
        <ele>662</ele>
        <time>2021-08-05T13:28:56.532Z</time>
      </trkpt>
      <trkpt lat="46.9738" lon="8.76498">
        <ele>662</ele>
        <time>2021-08-05T13:28:57.532Z</time>
      </trkpt>
      <trkpt lat="46.9738" lon="8.76497">
        <ele>661</ele>
        <time>2021-08-05T13:28:58.532Z</time>
      </trkpt>
      <trkpt lat="46.97381" lon="8.76497">
        <ele>661</ele>
        <time>2021-08-05T13:28:59.532Z</time>
      </trkpt>
      <trkpt lat="46.97382" lon="8.76496">
        <ele>660</ele>
        <time>2021-08-05T13:29:00.532Z</time>
      </trkpt>
      <trkpt lat="46.97383" lon="8.76496">
        <ele>660</ele>
        <time>2021-08-05T13:29:01.532Z</time>
      </trkpt>
      <trkpt lat="46.97382" lon="8.76498">
        <ele>659</ele>
        <time>2021-08-05T13:29:02.532Z</time>
      </trkpt>
      <trkpt lat="46.97382" lon="8.765">
        <ele>659</ele>
        <time>2021-08-05T13:29:03.532Z</time>
      </trkpt>
      <trkpt lat="46.97382" lon="8.76501">
        <ele>659</ele>
        <time>2021-08-05T13:29:04.532Z</time>
      </trkpt>
      <trkpt lat="46.97381" lon="8.76502">
        <ele>658</ele>
        <time>2021-08-05T13:29:05.532Z</time>
      </trkpt>
      <trkpt lat="46.97381" lon="8.76503">
        <ele>658</ele>
        <time>2021-08-05T13:29:06.532Z</time>
      </trkpt>
      <trkpt lat="46.9738" lon="8.76505">
        <ele>657</ele>
        <time>2021-08-05T13:29:07.532Z</time>
      </trkpt>
      <trkpt lat="46.9738" lon="8.76506">
        <ele>657</ele>
        <time>2021-08-05T13:29:08.532Z</time>
      </trkpt>
      <trkpt lat="46.97381" lon="8.76505">
        <ele>657</ele>
        <time>2021-08-05T13:29:09.532Z</time>
      </trkpt>
      <trkpt lat="46.97381" lon="8.76505">
        <ele>656</ele>
        <time>2021-08-05T13:29:10.533Z</time>
      </trkpt>
      <trkpt lat="46.97381" lon="8.76505">
        <ele>656</ele>
        <time>2021-08-05T13:29:11.532Z</time>
      </trkpt>
      <trkpt lat="46.97381" lon="8.76507">
        <ele>655</ele>
        <time>2021-08-05T13:29:12.534Z</time>
      </trkpt>
      <trkpt lat="46.97381" lon="8.76508">
        <ele>655</ele>
        <time>2021-08-05T13:29:13.534Z</time>
      </trkpt>
      <trkpt lat="46.97381" lon="8.76509">
        <ele>654</ele>
        <time>2021-08-05T13:29:14.534Z</time>
      </trkpt>
      <trkpt lat="46.97381" lon="8.76509">
        <ele>654</ele>
        <time>2021-08-05T13:29:15.533Z</time>
      </trkpt>
      <trkpt lat="46.97381" lon="8.76509">
        <ele>654</ele>
        <time>2021-08-05T13:29:16.533Z</time>
      </trkpt>
      <trkpt lat="46.9738" lon="8.76509">
        <ele>654</ele>
        <time>2021-08-05T13:29:17.534Z</time>
      </trkpt>
      <trkpt lat="46.9738" lon="8.76508">
        <ele>654</ele>
        <time>2021-08-05T13:29:18.533Z</time>
      </trkpt>
      <trkpt lat="46.9738" lon="8.76508">
        <ele>653</ele>
        <time>2021-08-05T13:29:19.534Z</time>
      </trkpt>
      <trkpt lat="46.97379" lon="8.76509">
        <ele>653</ele>
        <time>2021-08-05T13:29:20.533Z</time>
      </trkpt>
      <trkpt lat="46.97378" lon="8.7651">
        <ele>653</ele>
        <time>2021-08-05T13:29:21.533Z</time>
      </trkpt>
      <trkpt lat="46.97376" lon="8.76511">
        <ele>653</ele>
        <time>2021-08-05T13:29:22.533Z</time>
      </trkpt>
      <trkpt lat="46.97375" lon="8.7651">
        <ele>653</ele>
        <time>2021-08-05T13:29:23.534Z</time>
      </trkpt>
      <trkpt lat="46.97375" lon="8.76508">
        <ele>653</ele>
        <time>2021-08-05T13:29:24.533Z</time>
      </trkpt>
      <trkpt lat="46.97375" lon="8.76507">
        <ele>653</ele>
        <time>2021-08-05T13:29:25.534Z</time>
      </trkpt>
      <trkpt lat="46.97376" lon="8.76506">
        <ele>653</ele>
        <time>2021-08-05T13:29:26.534Z</time>
      </trkpt>
      <trkpt lat="46.97378" lon="8.76504">
        <ele>653</ele>
        <time>2021-08-05T13:29:27.534Z</time>
      </trkpt>
      <trkpt lat="46.97379" lon="8.76503">
        <ele>653</ele>
        <time>2021-08-05T13:29:28.533Z</time>
      </trkpt>
      <trkpt lat="46.97379" lon="8.76503">
        <ele>653</ele>
        <time>2021-08-05T13:29:29.534Z</time>
      </trkpt>
      <trkpt lat="46.97379" lon="8.76504">
        <ele>652</ele>
        <time>2021-08-05T13:29:30.534Z</time>
      </trkpt>
      <trkpt lat="46.9738" lon="8.76505">
        <ele>652</ele>
        <time>2021-08-05T13:29:31.534Z</time>
      </trkpt>
      <trkpt lat="46.9738" lon="8.76505">
        <ele>652</ele>
        <time>2021-08-05T13:29:32.534Z</time>
      </trkpt>
      <trkpt lat="46.9738" lon="8.76505">
        <ele>651</ele>
        <time>2021-08-05T13:29:33.534Z</time>
      </trkpt>
      <trkpt lat="46.97377" lon="8.76511">
        <ele>650</ele>
        <time>2021-08-05T13:29:34.534Z</time>
      </trkpt>
      <trkpt lat="46.97377" lon="8.76511">
        <ele>650</ele>
        <time>2021-08-05T13:29:35.533Z</time>
      </trkpt>
      <trkpt lat="46.97376" lon="8.76512">
        <ele>650</ele>
        <time>2021-08-05T13:29:36.534Z</time>
      </trkpt>
      <trkpt lat="46.97376" lon="8.76512">
        <ele>650</ele>
        <time>2021-08-05T13:29:37.533Z</time>
      </trkpt>
      <trkpt lat="46.97376" lon="8.76512">
        <ele>650</ele>
        <time>2021-08-05T13:29:38.534Z</time>
      </trkpt>
      <trkpt lat="46.97376" lon="8.76512">
        <ele>650</ele>
        <time>2021-08-05T13:29:39.534Z</time>
      </trkpt>
      <trkpt lat="46.97376" lon="8.76512">
        <ele>650</ele>
        <time>2021-08-05T13:29:40.533Z</time>
      </trkpt>
      <trkpt lat="46.97377" lon="8.76512">
        <ele>650</ele>
        <time>2021-08-05T13:29:41.534Z</time>
      </trkpt>
      <trkpt lat="46.97378" lon="8.76511">
        <ele>650</ele>
        <time>2021-08-05T13:29:42.533Z</time>
      </trkpt>
      <trkpt lat="46.9738" lon="8.76511">
        <ele>650</ele>
        <time>2021-08-05T13:29:43.533Z</time>
      </trkpt>
      <trkpt lat="46.97381" lon="8.76511">
        <ele>649</ele>
        <time>2021-08-05T13:29:44.534Z</time>
      </trkpt>
      <trkpt lat="46.97381" lon="8.76511">
        <ele>649</ele>
        <time>2021-08-05T13:29:45.533Z</time>
      </trkpt>
      <trkpt lat="46.97381" lon="8.76512">
        <ele>649</ele>
        <time>2021-08-05T13:29:46.534Z</time>
      </trkpt>
      <trkpt lat="46.97382" lon="8.76512">
        <ele>649</ele>
        <time>2021-08-05T13:29:47.534Z</time>
      </trkpt>
      <trkpt lat="46.97382" lon="8.76512">
        <ele>649</ele>
        <time>2021-08-05T13:29:48.534Z</time>
      </trkpt>
      <trkpt lat="46.97383" lon="8.76513">
        <ele>648</ele>
        <time>2021-08-05T13:29:49.534Z</time>
      </trkpt>
      <trkpt lat="46.97383" lon="8.76513">
        <ele>648</ele>
        <time>2021-08-05T13:29:50.533Z</time>
      </trkpt>
      <trkpt lat="46.97384" lon="8.76512">
        <ele>648</ele>
        <time>2021-08-05T13:29:51.534Z</time>
      </trkpt>
      <trkpt lat="46.97385" lon="8.76511">
        <ele>648</ele>
        <time>2021-08-05T13:29:52.533Z</time>
      </trkpt>
      <trkpt lat="46.97386" lon="8.76509">
        <ele>647</ele>
        <time>2021-08-05T13:29:53.533Z</time>
      </trkpt>
      <trkpt lat="46.97387" lon="8.76507">
        <ele>647</ele>
        <time>2021-08-05T13:29:54.534Z</time>
      </trkpt>
      <trkpt lat="46.97387" lon="8.76505">
        <ele>647</ele>
        <time>2021-08-05T13:29:55.533Z</time>
      </trkpt>
      <trkpt lat="46.97388" lon="8.76503">
        <ele>647</ele>
        <time>2021-08-05T13:29:56.533Z</time>
      </trkpt>
      <trkpt lat="46.97388" lon="8.76501">
        <ele>646</ele>
        <time>2021-08-05T13:29:57.534Z</time>
      </trkpt>
      <trkpt lat="46.97387" lon="8.765">
        <ele>646</ele>
        <time>2021-08-05T13:29:58.534Z</time>
      </trkpt>
      <trkpt lat="46.97388" lon="8.76498">
        <ele>646</ele>
        <time>2021-08-05T13:29:59.533Z</time>
      </trkpt>
      <trkpt lat="46.97389" lon="8.76496">
        <ele>646</ele>
        <time>2021-08-05T13:30:00.534Z</time>
      </trkpt>
      <trkpt lat="46.97391" lon="8.76493">
        <ele>645</ele>
        <time>2021-08-05T13:30:01.534Z</time>
      </trkpt>
      <trkpt lat="46.97392" lon="8.76491">
        <ele>645</ele>
        <time>2021-08-05T13:30:02.534Z</time>
      </trkpt>
      <trkpt lat="46.97393" lon="8.7649">
        <ele>645</ele>
        <time>2021-08-05T13:30:03.533Z</time>
      </trkpt>
      <trkpt lat="46.97393" lon="8.76488">
        <ele>644</ele>
        <time>2021-08-05T13:30:04.534Z</time>
      </trkpt>
      <trkpt lat="46.97393" lon="8.76487">
        <ele>644</ele>
        <time>2021-08-05T13:30:05.533Z</time>
      </trkpt>
      <trkpt lat="46.97393" lon="8.76486">
        <ele>644</ele>
        <time>2021-08-05T13:30:06.534Z</time>
      </trkpt>
      <trkpt lat="46.97394" lon="8.76484">
        <ele>644</ele>
        <time>2021-08-05T13:30:07.534Z</time>
      </trkpt>
      <trkpt lat="46.97393" lon="8.76482">
        <ele>643</ele>
        <time>2021-08-05T13:30:08.534Z</time>
      </trkpt>
      <trkpt lat="46.97393" lon="8.76482">
        <ele>643</ele>
        <time>2021-08-05T13:30:09.533Z</time>
      </trkpt>
      <trkpt lat="46.97392" lon="8.76482">
        <ele>642</ele>
        <time>2021-08-05T13:30:10.534Z</time>
      </trkpt>
      <trkpt lat="46.97392" lon="8.76482">
        <ele>642</ele>
        <time>2021-08-05T13:30:11.534Z</time>
      </trkpt>
      <trkpt lat="46.97391" lon="8.76483">
        <ele>642</ele>
        <time>2021-08-05T13:30:12.533Z</time>
      </trkpt>
      <trkpt lat="46.97391" lon="8.76483">
        <ele>641</ele>
        <time>2021-08-05T13:30:13.533Z</time>
      </trkpt>
      <trkpt lat="46.97391" lon="8.76484">
        <ele>641</ele>
        <time>2021-08-05T13:30:14.534Z</time>
      </trkpt>
      <trkpt lat="46.97392" lon="8.76486">
        <ele>641</ele>
        <time>2021-08-05T13:30:15.534Z</time>
      </trkpt>
      <trkpt lat="46.97391" lon="8.76487">
        <ele>641</ele>
        <time>2021-08-05T13:30:16.533Z</time>
      </trkpt>
      <trkpt lat="46.97391" lon="8.76489">
        <ele>641</ele>
        <time>2021-08-05T13:30:17.534Z</time>
      </trkpt>
      <trkpt lat="46.9739" lon="8.76491">
        <ele>641</ele>
        <time>2021-08-05T13:30:18.533Z</time>
      </trkpt>
      <trkpt lat="46.9739" lon="8.76494">
        <ele>640</ele>
        <time>2021-08-05T13:30:19.534Z</time>
      </trkpt>
      <trkpt lat="46.97389" lon="8.76496">
        <ele>640</ele>
        <time>2021-08-05T13:30:20.534Z</time>
      </trkpt>
      <trkpt lat="46.97389" lon="8.76497">
        <ele>640</ele>
        <time>2021-08-05T13:30:21.534Z</time>
      </trkpt>
      <trkpt lat="46.97389" lon="8.76498">
        <ele>640</ele>
        <time>2021-08-05T13:30:22.533Z</time>
      </trkpt>
      <trkpt lat="46.9739" lon="8.76496">
        <ele>640</ele>
        <time>2021-08-05T13:30:23.534Z</time>
      </trkpt>
      <trkpt lat="46.9739" lon="8.76496">
        <ele>640</ele>
        <time>2021-08-05T13:30:24.534Z</time>
      </trkpt>
      <trkpt lat="46.97389" lon="8.76496">
        <ele>640</ele>
        <time>2021-08-05T13:30:25.534Z</time>
      </trkpt>
      <trkpt lat="46.97389" lon="8.76496">
        <ele>640</ele>
        <time>2021-08-05T13:30:26.534Z</time>
      </trkpt>
      <trkpt lat="46.97389" lon="8.76496">
        <ele>640</ele>
        <time>2021-08-05T13:30:27.533Z</time>
      </trkpt>
      <trkpt lat="46.97391" lon="8.76495">
        <ele>639</ele>
        <time>2021-08-05T13:30:28.534Z</time>
      </trkpt>
      <trkpt lat="46.97392" lon="8.76495">
        <ele>639</ele>
        <time>2021-08-05T13:30:29.533Z</time>
      </trkpt>
      <trkpt lat="46.97394" lon="8.76494">
        <ele>639</ele>
        <time>2021-08-05T13:30:30.534Z</time>
      </trkpt>
      <trkpt lat="46.97396" lon="8.76493">
        <ele>639</ele>
        <time>2021-08-05T13:30:31.534Z</time>
      </trkpt>
      <trkpt lat="46.97397" lon="8.76491">
        <ele>639</ele>
        <time>2021-08-05T13:30:32.533Z</time>
      </trkpt>
      <trkpt lat="46.97399" lon="8.7649">
        <ele>639</ele>
        <time>2021-08-05T13:30:33.534Z</time>
      </trkpt>
      <trkpt lat="46.974" lon="8.76488">
        <ele>639</ele>
        <time>2021-08-05T13:30:34.534Z</time>
      </trkpt>
      <trkpt lat="46.97401" lon="8.76487">
        <ele>639</ele>
        <time>2021-08-05T13:30:35.533Z</time>
      </trkpt>
      <trkpt lat="46.97402" lon="8.76486">
        <ele>639</ele>
        <time>2021-08-05T13:30:36.533Z</time>
      </trkpt>
      <trkpt lat="46.97403" lon="8.76485">
        <ele>639</ele>
        <time>2021-08-05T13:30:37.533Z</time>
      </trkpt>
      <trkpt lat="46.97403" lon="8.76486">
        <ele>638</ele>
        <time>2021-08-05T13:30:42.580Z</time>
      </trkpt>
      <trkpt lat="46.97402" lon="8.76486">
        <ele>638</ele>
        <time>2021-08-05T13:30:43.581Z</time>
      </trkpt>
      <trkpt lat="46.97402" lon="8.76487">
        <ele>638</ele>
        <time>2021-08-05T13:30:44.580Z</time>
      </trkpt>
      <trkpt lat="46.97403" lon="8.76486">
        <ele>638</ele>
        <time>2021-08-05T13:30:45.581Z</time>
      </trkpt>
      <trkpt lat="46.97403" lon="8.76487">
        <ele>638</ele>
        <time>2021-08-05T13:30:46.581Z</time>
      </trkpt>
      <trkpt lat="46.97404" lon="8.76486">
        <ele>638</ele>
        <time>2021-08-05T13:30:47.580Z</time>
      </trkpt>
      <trkpt lat="46.97404" lon="8.76486">
        <ele>638</ele>
        <time>2021-08-05T13:30:48.581Z</time>
      </trkpt>
      <trkpt lat="46.97404" lon="8.76487">
        <ele>638</ele>
        <time>2021-08-05T13:31:01.712Z</time>
      </trkpt>
      <trkpt lat="46.97404" lon="8.76488">
        <ele>638</ele>
        <time>2021-08-05T13:31:02.711Z</time>
      </trkpt>
      <trkpt lat="46.97403" lon="8.76488">
        <ele>638</ele>
        <time>2021-08-05T13:31:03.712Z</time>
      </trkpt>
      <trkpt lat="46.97403" lon="8.76489">
        <ele>638</ele>
        <time>2021-08-05T13:31:04.712Z</time>
      </trkpt>
      <trkpt lat="46.97403" lon="8.76489">
        <ele>638</ele>
        <time>2021-08-05T13:31:05.712Z</time>
      </trkpt>
      <trkpt lat="46.97403" lon="8.76489">
        <ele>638</ele>
        <time>2021-08-05T13:31:06.711Z</time>
      </trkpt>
      <trkpt lat="46.97402" lon="8.76489">
        <ele>637</ele>
        <time>2021-08-05T13:31:07.712Z</time>
      </trkpt>
      <trkpt lat="46.97402" lon="8.76489">
        <ele>637</ele>
        <time>2021-08-05T13:31:08.713Z</time>
      </trkpt>
      <trkpt lat="46.97402" lon="8.7649">
        <ele>637</ele>
        <time>2021-08-05T13:31:09.712Z</time>
      </trkpt>
      <trkpt lat="46.97402" lon="8.7649">
        <ele>637</ele>
        <time>2021-08-05T13:31:10.712Z</time>
      </trkpt>
      <trkpt lat="46.97402" lon="8.76491">
        <ele>637</ele>
        <time>2021-08-05T13:31:11.712Z</time>
      </trkpt>
      <trkpt lat="46.97401" lon="8.76493">
        <ele>637</ele>
        <time>2021-08-05T13:31:12.712Z</time>
      </trkpt>
      <trkpt lat="46.974" lon="8.76496">
        <ele>636</ele>
        <time>2021-08-05T13:31:17.829Z</time>
      </trkpt>
      <trkpt lat="46.97399" lon="8.76497">
        <ele>636</ele>
        <time>2021-08-05T13:31:18.829Z</time>
      </trkpt>
      <trkpt lat="46.97397" lon="8.76498">
        <ele>636</ele>
        <time>2021-08-05T13:31:19.829Z</time>
      </trkpt>
      <trkpt lat="46.97395" lon="8.765">
        <ele>636</ele>
        <time>2021-08-05T13:31:20.829Z</time>
      </trkpt>
      <trkpt lat="46.97394" lon="8.76502">
        <ele>636</ele>
        <time>2021-08-05T13:31:24.958Z</time>
      </trkpt>
      <trkpt lat="46.97393" lon="8.76504">
        <ele>636</ele>
        <time>2021-08-05T13:31:25.958Z</time>
      </trkpt>
      <trkpt lat="46.97392" lon="8.76506">
        <ele>636</ele>
        <time>2021-08-05T13:31:26.958Z</time>
      </trkpt>
      <trkpt lat="46.97392" lon="8.76507">
        <ele>636</ele>
        <time>2021-08-05T13:31:27.959Z</time>
      </trkpt>
      <trkpt lat="46.97391" lon="8.76508">
        <ele>636</ele>
        <time>2021-08-05T13:31:31.070Z</time>
      </trkpt>
      <trkpt lat="46.97391" lon="8.76508">
        <ele>636</ele>
        <time>2021-08-05T13:31:32.070Z</time>
      </trkpt>
      <trkpt lat="46.9739" lon="8.76508">
        <ele>636</ele>
        <time>2021-08-05T13:31:33.069Z</time>
      </trkpt>
      <trkpt lat="46.97386" lon="8.76509">
        <ele>637</ele>
        <time>2021-08-05T13:31:34.070Z</time>
      </trkpt>
      <trkpt lat="46.97386" lon="8.76509">
        <ele>637</ele>
        <time>2021-08-05T13:31:35.069Z</time>
      </trkpt>
      <trkpt lat="46.97386" lon="8.76508">
        <ele>637</ele>
        <time>2021-08-05T13:31:36.069Z</time>
      </trkpt>
      <trkpt lat="46.97385" lon="8.76508">
        <ele>638</ele>
        <time>2021-08-05T13:31:37.069Z</time>
      </trkpt>
      <trkpt lat="46.97385" lon="8.76509">
        <ele>640</ele>
        <time>2021-08-05T13:31:38.070Z</time>
      </trkpt>
      <trkpt lat="46.97386" lon="8.76509">
        <ele>645</ele>
        <time>2021-08-05T13:31:39.070Z</time>
      </trkpt>
      <trkpt lat="46.97386" lon="8.76509">
        <ele>645</ele>
        <time>2021-08-05T13:31:40.070Z</time>
      </trkpt>
      <trkpt lat="46.97386" lon="8.76509">
        <ele>645</ele>
        <time>2021-08-05T13:31:41.069Z</time>
      </trkpt>
      <trkpt lat="46.97386" lon="8.7651">
        <ele>645</ele>
        <time>2021-08-05T13:31:42.070Z</time>
      </trkpt>
      <trkpt lat="46.9739" lon="8.76516">
        <ele>644</ele>
        <time>2021-08-05T13:31:43.069Z</time>
      </trkpt>
      <trkpt lat="46.97389" lon="8.76518">
        <ele>644</ele>
        <time>2021-08-05T13:31:44.070Z</time>
      </trkpt>
      <trkpt lat="46.97388" lon="8.76519">
        <ele>644</ele>
        <time>2021-08-05T13:31:45.070Z</time>
      </trkpt>
      <trkpt lat="46.97386" lon="8.76515">
        <ele>646</ele>
        <time>2021-08-05T13:31:46.069Z</time>
      </trkpt>
      <trkpt lat="46.97387" lon="8.76513">
        <ele>646</ele>
        <time>2021-08-05T13:31:47.069Z</time>
      </trkpt>
      <trkpt lat="46.97387" lon="8.76513">
        <ele>646</ele>
        <time>2021-08-05T13:31:48.069Z</time>
      </trkpt>
      <trkpt lat="46.97388" lon="8.76512">
        <ele>646</ele>
        <time>2021-08-05T13:31:49.069Z</time>
      </trkpt>
      <trkpt lat="46.97387" lon="8.76512">
        <ele>646</ele>
        <time>2021-08-05T13:31:50.069Z</time>
      </trkpt>
      <trkpt lat="46.9739" lon="8.7651">
        <ele>646</ele>
        <time>2021-08-05T13:31:51.069Z</time>
      </trkpt>
      <trkpt lat="46.97391" lon="8.76507">
        <ele>646</ele>
        <time>2021-08-05T13:31:52.070Z</time>
      </trkpt>
      <trkpt lat="46.9739" lon="8.76507">
        <ele>646</ele>
        <time>2021-08-05T13:31:53.069Z</time>
      </trkpt>
      <trkpt lat="46.9739" lon="8.76508">
        <ele>646</ele>
        <time>2021-08-05T13:31:54.070Z</time>
      </trkpt>
      <trkpt lat="46.9739" lon="8.76506">
        <ele>646</ele>
        <time>2021-08-05T13:31:55.069Z</time>
      </trkpt>
      <trkpt lat="46.97391" lon="8.76504">
        <ele>646</ele>
        <time>2021-08-05T13:31:56.070Z</time>
      </trkpt>
      <trkpt lat="46.97393" lon="8.76504">
        <ele>647</ele>
        <time>2021-08-05T13:31:57.069Z</time>
      </trkpt>
      <trkpt lat="46.97395" lon="8.76502">
        <ele>647</ele>
        <time>2021-08-05T13:31:58.069Z</time>
      </trkpt>
      <trkpt lat="46.97397" lon="8.76498">
        <ele>647</ele>
        <time>2021-08-05T13:31:59.069Z</time>
      </trkpt>
      <trkpt lat="46.97396" lon="8.76497">
        <ele>647</ele>
        <time>2021-08-05T13:32:00.069Z</time>
      </trkpt>
      <trkpt lat="46.97395" lon="8.76496">
        <ele>647</ele>
        <time>2021-08-05T13:32:01.069Z</time>
      </trkpt>
      <trkpt lat="46.97393" lon="8.76495">
        <ele>648</ele>
        <time>2021-08-05T13:32:02.069Z</time>
      </trkpt>
      <trkpt lat="46.97392" lon="8.76495">
        <ele>648</ele>
        <time>2021-08-05T13:32:03.069Z</time>
      </trkpt>
      <trkpt lat="46.97391" lon="8.76495">
        <ele>648</ele>
        <time>2021-08-05T13:32:04.070Z</time>
      </trkpt>
      <trkpt lat="46.97391" lon="8.76495">
        <ele>648</ele>
        <time>2021-08-05T13:32:05.070Z</time>
      </trkpt>
      <trkpt lat="46.97391" lon="8.76495">
        <ele>648</ele>
        <time>2021-08-05T13:32:06.069Z</time>
      </trkpt>
      <trkpt lat="46.97389" lon="8.76495">
        <ele>648</ele>
        <time>2021-08-05T13:32:07.069Z</time>
      </trkpt>
      <trkpt lat="46.97389" lon="8.76495">
        <ele>648</ele>
        <time>2021-08-05T13:32:07.947Z</time>
      </trkpt>
      <trkpt lat="46.97389" lon="8.76497">
        <ele>648</ele>
        <time>2021-08-05T13:32:08.947Z</time>
      </trkpt>
      <trkpt lat="46.97389" lon="8.76499">
        <ele>648</ele>
        <time>2021-08-05T13:32:09.947Z</time>
      </trkpt>
      <trkpt lat="46.97388" lon="8.76501">
        <ele>648</ele>
        <time>2021-08-05T13:32:10.947Z</time>
      </trkpt>
      <trkpt lat="46.97388" lon="8.76501">
        <ele>648</ele>
        <time>2021-08-05T13:32:11.947Z</time>
      </trkpt>
      <trkpt lat="46.97387" lon="8.76501">
        <ele>648</ele>
        <time>2021-08-05T13:32:12.947Z</time>
      </trkpt>
      <trkpt lat="46.97387" lon="8.765">
        <ele>648</ele>
        <time>2021-08-05T13:32:13.947Z</time>
      </trkpt>
      <trkpt lat="46.97385" lon="8.76502">
        <ele>648</ele>
        <time>2021-08-05T13:32:14.947Z</time>
      </trkpt>
      <trkpt lat="46.97384" lon="8.76504">
        <ele>648</ele>
        <time>2021-08-05T13:32:15.947Z</time>
      </trkpt>
      <trkpt lat="46.97384" lon="8.76505">
        <ele>648</ele>
        <time>2021-08-05T13:32:16.947Z</time>
      </trkpt>
      <trkpt lat="46.97383" lon="8.7651">
        <ele>647</ele>
        <time>2021-08-05T13:32:18.072Z</time>
      </trkpt>
      <trkpt lat="46.97382" lon="8.76511">
        <ele>647</ele>
        <time>2021-08-05T13:32:18.947Z</time>
      </trkpt>
      <trkpt lat="46.9738" lon="8.76513">
        <ele>646</ele>
        <time>2021-08-05T13:32:19.947Z</time>
      </trkpt>
      <trkpt lat="46.9738" lon="8.76513">
        <ele>646</ele>
        <time>2021-08-05T13:32:20.947Z</time>
      </trkpt>
      <trkpt lat="46.97379" lon="8.76514">
        <ele>646</ele>
        <time>2021-08-05T13:32:22.072Z</time>
      </trkpt>
      <trkpt lat="46.9738" lon="8.76513">
        <ele>646</ele>
        <time>2021-08-05T13:32:22.947Z</time>
      </trkpt>
      <trkpt lat="46.97381" lon="8.76513">
        <ele>645</ele>
        <time>2021-08-05T13:32:23.947Z</time>
      </trkpt>
      <trkpt lat="46.97381" lon="8.76511">
        <ele>645</ele>
        <time>2021-08-05T13:32:24.947Z</time>
      </trkpt>
      <trkpt lat="46.97382" lon="8.7651">
        <ele>645</ele>
        <time>2021-08-05T13:32:25.947Z</time>
      </trkpt>
      <trkpt lat="46.97383" lon="8.76509">
        <ele>645</ele>
        <time>2021-08-05T13:32:26.947Z</time>
      </trkpt>
      <trkpt lat="46.97384" lon="8.76507">
        <ele>644</ele>
        <time>2021-08-05T13:32:27.947Z</time>
      </trkpt>
      <trkpt lat="46.97384" lon="8.76507">
        <ele>644</ele>
        <time>2021-08-05T13:32:29.071Z</time>
      </trkpt>
      <trkpt lat="46.97383" lon="8.76507">
        <ele>644</ele>
        <time>2021-08-05T13:32:29.947Z</time>
      </trkpt>
      <trkpt lat="46.97383" lon="8.76508">
        <ele>643</ele>
        <time>2021-08-05T13:32:31.071Z</time>
      </trkpt>
      <trkpt lat="46.97383" lon="8.7651">
        <ele>643</ele>
        <time>2021-08-05T13:32:31.947Z</time>
      </trkpt>
      <trkpt lat="46.97383" lon="8.76511">
        <ele>643</ele>
        <time>2021-08-05T13:32:32.947Z</time>
      </trkpt>
      <trkpt lat="46.97383" lon="8.76512">
        <ele>643</ele>
        <time>2021-08-05T13:32:33.947Z</time>
      </trkpt>
      <trkpt lat="46.97384" lon="8.76512">
        <ele>642</ele>
        <time>2021-08-05T13:32:35.071Z</time>
      </trkpt>
      <trkpt lat="46.97384" lon="8.76513">
        <ele>642</ele>
        <time>2021-08-05T13:32:36.071Z</time>
      </trkpt>
      <trkpt lat="46.97384" lon="8.76514">
        <ele>642</ele>
        <time>2021-08-05T13:32:37.071Z</time>
      </trkpt>
      <trkpt lat="46.97385" lon="8.76515">
        <ele>642</ele>
        <time>2021-08-05T13:32:38.072Z</time>
      </trkpt>
      <trkpt lat="46.97385" lon="8.76515">
        <ele>642</ele>
        <time>2021-08-05T13:32:39.072Z</time>
      </trkpt>
      <trkpt lat="46.97384" lon="8.76517">
        <ele>641</ele>
        <time>2021-08-05T13:32:39.947Z</time>
      </trkpt>
      <trkpt lat="46.97383" lon="8.76518">
        <ele>641</ele>
        <time>2021-08-05T13:32:41.071Z</time>
      </trkpt>
      <trkpt lat="46.97383" lon="8.76519">
        <ele>641</ele>
        <time>2021-08-05T13:32:42.072Z</time>
      </trkpt>
      <trkpt lat="46.97382" lon="8.76519">
        <ele>641</ele>
        <time>2021-08-05T13:32:43.071Z</time>
      </trkpt>
      <trkpt lat="46.97383" lon="8.76519">
        <ele>640</ele>
        <time>2021-08-05T13:32:44.071Z</time>
      </trkpt>
      <trkpt lat="46.97385" lon="8.76518">
        <ele>640</ele>
        <time>2021-08-05T13:32:44.947Z</time>
      </trkpt>
      <trkpt lat="46.97387" lon="8.76517">
        <ele>640</ele>
        <time>2021-08-05T13:32:47.072Z</time>
      </trkpt>
      <trkpt lat="46.97388" lon="8.76515">
        <ele>640</ele>
        <time>2021-08-05T13:32:49.072Z</time>
      </trkpt>
      <trkpt lat="46.97388" lon="8.76519">
        <ele>639</ele>
        <time>2021-08-05T13:32:53.071Z</time>
      </trkpt>
      <trkpt lat="46.97426" lon="8.76475">
        <ele>638</ele>
        <time>2021-08-05T13:32:53.948Z</time>
      </trkpt>
      <trkpt lat="46.97429" lon="8.76469">
        <ele>638</ele>
        <time>2021-08-05T13:32:54.948Z</time>
      </trkpt>
      <trkpt lat="46.9743" lon="8.76467">
        <ele>637</ele>
        <time>2021-08-05T13:32:55.948Z</time>
      </trkpt>
      <trkpt lat="46.9743" lon="8.76467">
        <ele>637</ele>
        <time>2021-08-05T13:32:56.947Z</time>
      </trkpt>
      <trkpt lat="46.97429" lon="8.76468">
        <ele>637</ele>
        <time>2021-08-05T13:32:57.947Z</time>
      </trkpt>
      <trkpt lat="46.97426" lon="8.76474">
        <ele>637</ele>
        <time>2021-08-05T13:32:58.948Z</time>
      </trkpt>
      <trkpt lat="46.97422" lon="8.76481">
        <ele>636</ele>
        <time>2021-08-05T13:32:59.947Z</time>
      </trkpt>
      <trkpt lat="46.97419" lon="8.76489">
        <ele>636</ele>
        <time>2021-08-05T13:33:00.947Z</time>
      </trkpt>
      <trkpt lat="46.97416" lon="8.76493">
        <ele>636</ele>
        <time>2021-08-05T13:33:01.948Z</time>
      </trkpt>
      <trkpt lat="46.97413" lon="8.76496">
        <ele>636</ele>
        <time>2021-08-05T13:33:02.948Z</time>
      </trkpt>
      <trkpt lat="46.97411" lon="8.76498">
        <ele>636</ele>
        <time>2021-08-05T13:33:03.947Z</time>
      </trkpt>
      <trkpt lat="46.97408" lon="8.76499">
        <ele>636</ele>
        <time>2021-08-05T13:33:04.947Z</time>
      </trkpt>
      <trkpt lat="46.97406" lon="8.765">
        <ele>636</ele>
        <time>2021-08-05T13:33:05.947Z</time>
      </trkpt>
      <trkpt lat="46.97403" lon="8.76504">
        <ele>636</ele>
        <time>2021-08-05T13:33:06.947Z</time>
      </trkpt>
      <trkpt lat="46.97402" lon="8.76506">
        <ele>635</ele>
        <time>2021-08-05T13:33:07.948Z</time>
      </trkpt>
      <trkpt lat="46.97402" lon="8.76505">
        <ele>635</ele>
        <time>2021-08-05T13:33:08.947Z</time>
      </trkpt>
      <trkpt lat="46.97402" lon="8.76505">
        <ele>634</ele>
        <time>2021-08-05T13:33:09.948Z</time>
      </trkpt>
      <trkpt lat="46.97403" lon="8.76505">
        <ele>634</ele>
        <time>2021-08-05T13:33:10.948Z</time>
      </trkpt>
      <trkpt lat="46.97403" lon="8.76505">
        <ele>634</ele>
        <time>2021-08-05T13:33:11.948Z</time>
      </trkpt>
      <trkpt lat="46.97403" lon="8.76506">
        <ele>634</ele>
        <time>2021-08-05T13:33:12.948Z</time>
      </trkpt>
      <trkpt lat="46.97403" lon="8.76506">
        <ele>634</ele>
        <time>2021-08-05T13:33:13.948Z</time>
      </trkpt>
      <trkpt lat="46.97403" lon="8.76505">
        <ele>633</ele>
        <time>2021-08-05T13:33:14.948Z</time>
      </trkpt>
      <trkpt lat="46.97403" lon="8.76505">
        <ele>633</ele>
        <time>2021-08-05T13:33:15.948Z</time>
      </trkpt>
      <trkpt lat="46.97403" lon="8.76505">
        <ele>633</ele>
        <time>2021-08-05T13:33:16.947Z</time>
      </trkpt>
      <trkpt lat="46.97403" lon="8.76506">
        <ele>633</ele>
        <time>2021-08-05T13:33:17.948Z</time>
      </trkpt>
      <trkpt lat="46.97403" lon="8.76506">
        <ele>632</ele>
        <time>2021-08-05T13:33:18.948Z</time>
      </trkpt>
      <trkpt lat="46.97403" lon="8.76506">
        <ele>632</ele>
        <time>2021-08-05T13:33:19.948Z</time>
      </trkpt>
      <trkpt lat="46.97403" lon="8.76506">
        <ele>632</ele>
        <time>2021-08-05T13:33:20.947Z</time>
      </trkpt>
      <trkpt lat="46.97402" lon="8.76505">
        <ele>632</ele>
        <time>2021-08-05T13:33:21.948Z</time>
      </trkpt>
      <trkpt lat="46.97403" lon="8.76505">
        <ele>632</ele>
        <time>2021-08-05T13:33:22.948Z</time>
      </trkpt>
      <trkpt lat="46.97403" lon="8.76504">
        <ele>631</ele>
        <time>2021-08-05T13:33:23.948Z</time>
      </trkpt>
      <trkpt lat="46.97403" lon="8.76504">
        <ele>631</ele>
        <time>2021-08-05T13:33:24.947Z</time>
      </trkpt>
      <trkpt lat="46.97404" lon="8.76504">
        <ele>631</ele>
        <time>2021-08-05T13:33:25.948Z</time>
      </trkpt>
      <trkpt lat="46.97405" lon="8.76502">
        <ele>630</ele>
        <time>2021-08-05T13:33:26.947Z</time>
      </trkpt>
      <trkpt lat="46.97405" lon="8.76503">
        <ele>630</ele>
        <time>2021-08-05T13:33:27.947Z</time>
      </trkpt>
      <trkpt lat="46.97405" lon="8.76502">
        <ele>630</ele>
        <time>2021-08-05T13:33:28.948Z</time>
      </trkpt>
      <trkpt lat="46.97405" lon="8.76502">
        <ele>630</ele>
        <time>2021-08-05T13:33:29.947Z</time>
      </trkpt>
      <trkpt lat="46.97404" lon="8.76502">
        <ele>630</ele>
        <time>2021-08-05T13:33:30.947Z</time>
      </trkpt>
      <trkpt lat="46.97403" lon="8.76501">
        <ele>630</ele>
        <time>2021-08-05T13:33:31.948Z</time>
      </trkpt>
      <trkpt lat="46.97404" lon="8.765">
        <ele>630</ele>
        <time>2021-08-05T13:33:32.947Z</time>
      </trkpt>
      <trkpt lat="46.97404" lon="8.765">
        <ele>630</ele>
        <time>2021-08-05T13:33:33.947Z</time>
      </trkpt>
      <trkpt lat="46.97406" lon="8.76499">
        <ele>629</ele>
        <time>2021-08-05T13:33:34.947Z</time>
      </trkpt>
      <trkpt lat="46.97407" lon="8.76499">
        <ele>629</ele>
        <time>2021-08-05T13:33:35.947Z</time>
      </trkpt>
      <trkpt lat="46.97408" lon="8.76497">
        <ele>629</ele>
        <time>2021-08-05T13:33:36.947Z</time>
      </trkpt>
      <trkpt lat="46.97409" lon="8.76496">
        <ele>629</ele>
        <time>2021-08-05T13:33:37.947Z</time>
      </trkpt>
      <trkpt lat="46.97411" lon="8.76493">
        <ele>629</ele>
        <time>2021-08-05T13:33:38.947Z</time>
      </trkpt>
      <trkpt lat="46.97414" lon="8.76489">
        <ele>629</ele>
        <time>2021-08-05T13:33:39.947Z</time>
      </trkpt>
      <trkpt lat="46.97418" lon="8.76482">
        <ele>629</ele>
        <time>2021-08-05T13:33:40.947Z</time>
      </trkpt>
      <trkpt lat="46.9742" lon="8.76479">
        <ele>628</ele>
        <time>2021-08-05T13:33:41.947Z</time>
      </trkpt>
      <trkpt lat="46.97421" lon="8.76484">
        <ele>627</ele>
        <time>2021-08-05T13:33:48.947Z</time>
      </trkpt>
      <trkpt lat="46.97421" lon="8.76485">
        <ele>627</ele>
        <time>2021-08-05T13:33:49.947Z</time>
      </trkpt>
      <trkpt lat="46.97421" lon="8.76485">
        <ele>627</ele>
        <time>2021-08-05T13:33:50.947Z</time>
      </trkpt>
      <trkpt lat="46.97421" lon="8.76485">
        <ele>627</ele>
        <time>2021-08-05T13:33:51.947Z</time>
      </trkpt>
      <trkpt lat="46.97421" lon="8.76486">
        <ele>627</ele>
        <time>2021-08-05T13:33:52.947Z</time>
      </trkpt>
      <trkpt lat="46.97421" lon="8.76487">
        <ele>627</ele>
        <time>2021-08-05T13:33:53.947Z</time>
      </trkpt>
      <trkpt lat="46.9742" lon="8.76489">
        <ele>627</ele>
        <time>2021-08-05T13:33:54.947Z</time>
      </trkpt>
      <trkpt lat="46.9742" lon="8.76491">
        <ele>627</ele>
        <time>2021-08-05T13:33:55.947Z</time>
      </trkpt>
      <trkpt lat="46.9742" lon="8.76492">
        <ele>627</ele>
        <time>2021-08-05T13:33:56.947Z</time>
      </trkpt>
      <trkpt lat="46.97419" lon="8.76493">
        <ele>627</ele>
        <time>2021-08-05T13:33:57.947Z</time>
      </trkpt>
      <trkpt lat="46.97419" lon="8.76495">
        <ele>627</ele>
        <time>2021-08-05T13:33:58.947Z</time>
      </trkpt>
      <trkpt lat="46.97419" lon="8.76496">
        <ele>627</ele>
        <time>2021-08-05T13:33:59.947Z</time>
      </trkpt>
      <trkpt lat="46.97419" lon="8.76497">
        <ele>627</ele>
        <time>2021-08-05T13:34:00.947Z</time>
      </trkpt>
      <trkpt lat="46.97419" lon="8.76498">
        <ele>627</ele>
        <time>2021-08-05T13:34:01.947Z</time>
      </trkpt>
      <trkpt lat="46.97419" lon="8.76498">
        <ele>627</ele>
        <time>2021-08-05T13:34:02.947Z</time>
      </trkpt>
      <trkpt lat="46.97418" lon="8.76499">
        <ele>627</ele>
        <time>2021-08-05T13:34:03.947Z</time>
      </trkpt>
      <trkpt lat="46.97417" lon="8.765">
        <ele>627</ele>
        <time>2021-08-05T13:34:04.948Z</time>
      </trkpt>
      <trkpt lat="46.97415" lon="8.76501">
        <ele>627</ele>
        <time>2021-08-05T13:34:05.947Z</time>
      </trkpt>
      <trkpt lat="46.97414" lon="8.76503">
        <ele>627</ele>
        <time>2021-08-05T13:34:06.947Z</time>
      </trkpt>
      <trkpt lat="46.97413" lon="8.76508">
        <ele>627</ele>
        <time>2021-08-05T13:34:07.947Z</time>
      </trkpt>
      <trkpt lat="46.97412" lon="8.76509">
        <ele>627</ele>
        <time>2021-08-05T13:34:08.947Z</time>
      </trkpt>
      <trkpt lat="46.97411" lon="8.76512">
        <ele>627</ele>
        <time>2021-08-05T13:34:09.947Z</time>
      </trkpt>
      <trkpt lat="46.9741" lon="8.76512">
        <ele>627</ele>
        <time>2021-08-05T13:34:10.948Z</time>
      </trkpt>
      <trkpt lat="46.97408" lon="8.7651">
        <ele>627</ele>
        <time>2021-08-05T13:34:11.948Z</time>
      </trkpt>
      <trkpt lat="46.97407" lon="8.76508">
        <ele>626</ele>
        <time>2021-08-05T13:34:12.948Z</time>
      </trkpt>
      <trkpt lat="46.97406" lon="8.76507">
        <ele>626</ele>
        <time>2021-08-05T13:34:13.947Z</time>
      </trkpt>
      <trkpt lat="46.97406" lon="8.76506">
        <ele>626</ele>
        <time>2021-08-05T13:34:14.947Z</time>
      </trkpt>
      <trkpt lat="46.97406" lon="8.76506">
        <ele>626</ele>
        <time>2021-08-05T13:34:15.948Z</time>
      </trkpt>
      <trkpt lat="46.97406" lon="8.76507">
        <ele>626</ele>
        <time>2021-08-05T13:34:16.948Z</time>
      </trkpt>
      <trkpt lat="46.97406" lon="8.76507">
        <ele>626</ele>
        <time>2021-08-05T13:34:17.947Z</time>
      </trkpt>
      <trkpt lat="46.97406" lon="8.76508">
        <ele>625</ele>
        <time>2021-08-05T13:34:18.948Z</time>
      </trkpt>
      <trkpt lat="46.97404" lon="8.76507">
        <ele>624</ele>
        <time>2021-08-05T13:34:19.948Z</time>
      </trkpt>
      <trkpt lat="46.97403" lon="8.76507">
        <ele>624</ele>
        <time>2021-08-05T13:34:20.948Z</time>
      </trkpt>
      <trkpt lat="46.97403" lon="8.76506">
        <ele>624</ele>
        <time>2021-08-05T13:34:21.947Z</time>
      </trkpt>
      <trkpt lat="46.97402" lon="8.76506">
        <ele>624</ele>
        <time>2021-08-05T13:34:22.948Z</time>
      </trkpt>
      <trkpt lat="46.97402" lon="8.76506">
        <ele>623</ele>
        <time>2021-08-05T13:34:23.948Z</time>
      </trkpt>
      <trkpt lat="46.97402" lon="8.76507">
        <ele>623</ele>
        <time>2021-08-05T13:34:24.948Z</time>
      </trkpt>
      <trkpt lat="46.97401" lon="8.76508">
        <ele>623</ele>
        <time>2021-08-05T13:34:25.948Z</time>
      </trkpt>
      <trkpt lat="46.97401" lon="8.76509">
        <ele>623</ele>
        <time>2021-08-05T13:34:26.948Z</time>
      </trkpt>
      <trkpt lat="46.974" lon="8.7651">
        <ele>623</ele>
        <time>2021-08-05T13:34:27.948Z</time>
      </trkpt>
      <trkpt lat="46.974" lon="8.76511">
        <ele>623</ele>
        <time>2021-08-05T13:34:28.947Z</time>
      </trkpt>
      <trkpt lat="46.974" lon="8.76511">
        <ele>623</ele>
        <time>2021-08-05T13:34:29.948Z</time>
      </trkpt>
      <trkpt lat="46.974" lon="8.76512">
        <ele>623</ele>
        <time>2021-08-05T13:34:30.948Z</time>
      </trkpt>
      <trkpt lat="46.974" lon="8.76512">
        <ele>624</ele>
        <time>2021-08-05T13:34:31.947Z</time>
      </trkpt>
      <trkpt lat="46.97399" lon="8.76512">
        <ele>624</ele>
        <time>2021-08-05T13:34:32.947Z</time>
      </trkpt>
      <trkpt lat="46.97399" lon="8.76513">
        <ele>624</ele>
        <time>2021-08-05T13:34:33.948Z</time>
      </trkpt>
      <trkpt lat="46.97399" lon="8.76512">
        <ele>624</ele>
        <time>2021-08-05T13:34:34.947Z</time>
      </trkpt>
      <trkpt lat="46.97399" lon="8.76512">
        <ele>624</ele>
        <time>2021-08-05T13:34:35.947Z</time>
      </trkpt>
      <trkpt lat="46.974" lon="8.76511">
        <ele>624</ele>
        <time>2021-08-05T13:34:36.948Z</time>
      </trkpt>
      <trkpt lat="46.97399" lon="8.76511">
        <ele>624</ele>
        <time>2021-08-05T13:34:37.948Z</time>
      </trkpt>
      <trkpt lat="46.97401" lon="8.76511">
        <ele>624</ele>
        <time>2021-08-05T13:34:38.948Z</time>
      </trkpt>
      <trkpt lat="46.97402" lon="8.76511">
        <ele>624</ele>
        <time>2021-08-05T13:34:39.948Z</time>
      </trkpt>
      <trkpt lat="46.97403" lon="8.76521">
        <ele>624</ele>
        <time>2021-08-05T13:34:40.948Z</time>
      </trkpt>
      <trkpt lat="46.97399" lon="8.76522">
        <ele>624</ele>
        <time>2021-08-05T13:34:41.948Z</time>
      </trkpt>
      <trkpt lat="46.97396" lon="8.7652">
        <ele>625</ele>
        <time>2021-08-05T13:34:42.948Z</time>
      </trkpt>
      <trkpt lat="46.97395" lon="8.7652">
        <ele>625</ele>
        <time>2021-08-05T13:34:43.948Z</time>
      </trkpt>
      <trkpt lat="46.97395" lon="8.7652">
        <ele>625</ele>
        <time>2021-08-05T13:34:44.948Z</time>
      </trkpt>
      <trkpt lat="46.97395" lon="8.76521">
        <ele>625</ele>
        <time>2021-08-05T13:34:45.948Z</time>
      </trkpt>
      <trkpt lat="46.97393" lon="8.76521">
        <ele>625</ele>
        <time>2021-08-05T13:34:46.947Z</time>
      </trkpt>
      <trkpt lat="46.97392" lon="8.76522">
        <ele>625</ele>
        <time>2021-08-05T13:34:47.948Z</time>
      </trkpt>
      <trkpt lat="46.97391" lon="8.76523">
        <ele>625</ele>
        <time>2021-08-05T13:34:48.947Z</time>
      </trkpt>
      <trkpt lat="46.9739" lon="8.76522">
        <ele>625</ele>
        <time>2021-08-05T13:34:49.948Z</time>
      </trkpt>
      <trkpt lat="46.9739" lon="8.76522">
        <ele>625</ele>
        <time>2021-08-05T13:34:50.948Z</time>
      </trkpt>
      <trkpt lat="46.9739" lon="8.76522">
        <ele>625</ele>
        <time>2021-08-05T13:34:51.948Z</time>
      </trkpt>
      <trkpt lat="46.97391" lon="8.76522">
        <ele>626</ele>
        <time>2021-08-05T13:34:52.948Z</time>
      </trkpt>
      <trkpt lat="46.9739" lon="8.76523">
        <ele>626</ele>
        <time>2021-08-05T13:34:53.948Z</time>
      </trkpt>
      <trkpt lat="46.9739" lon="8.76524">
        <ele>626</ele>
        <time>2021-08-05T13:34:54.947Z</time>
      </trkpt>
      <trkpt lat="46.97391" lon="8.76525">
        <ele>626</ele>
        <time>2021-08-05T13:34:55.948Z</time>
      </trkpt>
      <trkpt lat="46.97391" lon="8.76525">
        <ele>626</ele>
        <time>2021-08-05T13:34:56.948Z</time>
      </trkpt>
      <trkpt lat="46.97391" lon="8.76525">
        <ele>626</ele>
        <time>2021-08-05T13:34:57.948Z</time>
      </trkpt>
      <trkpt lat="46.97391" lon="8.76524">
        <ele>626</ele>
        <time>2021-08-05T13:34:58.947Z</time>
      </trkpt>
      <trkpt lat="46.9739" lon="8.76524">
        <ele>626</ele>
        <time>2021-08-05T13:34:59.948Z</time>
      </trkpt>
      <trkpt lat="46.9739" lon="8.76523">
        <ele>627</ele>
        <time>2021-08-05T13:35:00.948Z</time>
      </trkpt>
      <trkpt lat="46.97389" lon="8.76523">
        <ele>627</ele>
        <time>2021-08-05T13:35:01.947Z</time>
      </trkpt>
      <trkpt lat="46.97389" lon="8.76524">
        <ele>628</ele>
        <time>2021-08-05T13:35:02.947Z</time>
      </trkpt>
      <trkpt lat="46.97388" lon="8.76524">
        <ele>628</ele>
        <time>2021-08-05T13:35:03.948Z</time>
      </trkpt>
      <trkpt lat="46.97387" lon="8.76525">
        <ele>629</ele>
        <time>2021-08-05T13:35:04.947Z</time>
      </trkpt>
      <trkpt lat="46.97387" lon="8.76526">
        <ele>635</ele>
        <time>2021-08-05T13:35:05.949Z</time>
      </trkpt>
      <trkpt lat="46.97385" lon="8.76527">
        <ele>637</ele>
        <time>2021-08-05T13:35:06.950Z</time>
      </trkpt>
      <trkpt lat="46.97386" lon="8.76525">
        <ele>637</ele>
        <time>2021-08-05T13:35:07.949Z</time>
      </trkpt>
      <trkpt lat="46.97386" lon="8.76523">
        <ele>638</ele>
        <time>2021-08-05T13:35:08.950Z</time>
      </trkpt>
      <trkpt lat="46.97387" lon="8.76522">
        <ele>638</ele>
        <time>2021-08-05T13:35:09.950Z</time>
      </trkpt>
      <trkpt lat="46.97387" lon="8.76523">
        <ele>638</ele>
        <time>2021-08-05T13:35:10.950Z</time>
      </trkpt>
      <trkpt lat="46.97387" lon="8.76523">
        <ele>638</ele>
        <time>2021-08-05T13:35:11.949Z</time>
      </trkpt>
      <trkpt lat="46.97389" lon="8.76516">
        <ele>640</ele>
        <time>2021-08-05T13:35:12.950Z</time>
      </trkpt>
      <trkpt lat="46.9739" lon="8.76513">
        <ele>640</ele>
        <time>2021-08-05T13:35:13.950Z</time>
      </trkpt>
      <trkpt lat="46.9739" lon="8.76511">
        <ele>640</ele>
        <time>2021-08-05T13:35:14.949Z</time>
      </trkpt>
      <trkpt lat="46.9739" lon="8.7651">
        <ele>640</ele>
        <time>2021-08-05T13:35:15.949Z</time>
      </trkpt>
      <trkpt lat="46.97389" lon="8.76511">
        <ele>640</ele>
        <time>2021-08-05T13:35:16.950Z</time>
      </trkpt>
      <trkpt lat="46.9739" lon="8.7651">
        <ele>640</ele>
        <time>2021-08-05T13:35:17.950Z</time>
      </trkpt>
      <trkpt lat="46.9739" lon="8.76509">
        <ele>640</ele>
        <time>2021-08-05T13:35:18.950Z</time>
      </trkpt>
      <trkpt lat="46.97391" lon="8.76506">
        <ele>640</ele>
        <time>2021-08-05T13:35:19.949Z</time>
      </trkpt>
      <trkpt lat="46.97391" lon="8.76507">
        <ele>639</ele>
        <time>2021-08-05T13:35:20.949Z</time>
      </trkpt>
      <trkpt lat="46.9739" lon="8.76508">
        <ele>639</ele>
        <time>2021-08-05T13:35:21.950Z</time>
      </trkpt>
      <trkpt lat="46.97391" lon="8.76509">
        <ele>638</ele>
        <time>2021-08-05T13:35:22.950Z</time>
      </trkpt>
      <trkpt lat="46.97392" lon="8.76512">
        <ele>636</ele>
        <time>2021-08-05T13:35:23.950Z</time>
      </trkpt>
      <trkpt lat="46.97392" lon="8.76512">
        <ele>636</ele>
        <time>2021-08-05T13:35:24.950Z</time>
      </trkpt>
      <trkpt lat="46.97391" lon="8.76511">
        <ele>636</ele>
        <time>2021-08-05T13:35:25.950Z</time>
      </trkpt>
      <trkpt lat="46.97391" lon="8.7651">
        <ele>635</ele>
        <time>2021-08-05T13:35:26.950Z</time>
      </trkpt>
      <trkpt lat="46.9739" lon="8.76508">
        <ele>635</ele>
        <time>2021-08-05T13:35:27.950Z</time>
      </trkpt>
      <trkpt lat="46.97389" lon="8.76507">
        <ele>635</ele>
        <time>2021-08-05T13:35:28.950Z</time>
      </trkpt>
      <trkpt lat="46.97388" lon="8.76505">
        <ele>634</ele>
        <time>2021-08-05T13:35:29.950Z</time>
      </trkpt>
      <trkpt lat="46.97387" lon="8.76504">
        <ele>634</ele>
        <time>2021-08-05T13:35:30.950Z</time>
      </trkpt>
      <trkpt lat="46.97385" lon="8.76502">
        <ele>634</ele>
        <time>2021-08-05T13:35:33.950Z</time>
      </trkpt>
      <trkpt lat="46.97385" lon="8.76502">
        <ele>633</ele>
        <time>2021-08-05T13:35:34.950Z</time>
      </trkpt>
      <trkpt lat="46.97385" lon="8.76502">
        <ele>633</ele>
        <time>2021-08-05T13:35:35.950Z</time>
      </trkpt>
      <trkpt lat="46.97387" lon="8.76504">
        <ele>631</ele>
        <time>2021-08-05T13:35:36.951Z</time>
      </trkpt>
      <trkpt lat="46.97387" lon="8.76504">
        <ele>631</ele>
        <time>2021-08-05T13:35:37.951Z</time>
      </trkpt>
      <trkpt lat="46.97387" lon="8.76503">
        <ele>631</ele>
        <time>2021-08-05T13:35:38.951Z</time>
      </trkpt>
      <trkpt lat="46.97386" lon="8.76504">
        <ele>631</ele>
        <time>2021-08-05T13:35:39.951Z</time>
      </trkpt>
      <trkpt lat="46.97386" lon="8.76507">
        <ele>631</ele>
        <time>2021-08-05T13:35:40.951Z</time>
      </trkpt>
      <trkpt lat="46.97386" lon="8.76509">
        <ele>632</ele>
        <time>2021-08-05T13:35:41.950Z</time>
      </trkpt>
      <trkpt lat="46.97386" lon="8.76511">
        <ele>632</ele>
        <time>2021-08-05T13:35:42.951Z</time>
      </trkpt>
      <trkpt lat="46.97386" lon="8.76511">
        <ele>632</ele>
        <time>2021-08-05T13:35:43.951Z</time>
      </trkpt>
      <trkpt lat="46.97386" lon="8.76511">
        <ele>632</ele>
        <time>2021-08-05T13:35:44.950Z</time>
      </trkpt>
      <trkpt lat="46.97386" lon="8.76512">
        <ele>633</ele>
        <time>2021-08-05T13:35:45.951Z</time>
      </trkpt>
      <trkpt lat="46.97385" lon="8.76512">
        <ele>633</ele>
        <time>2021-08-05T13:35:46.950Z</time>
      </trkpt>
      <trkpt lat="46.97385" lon="8.76513">
        <ele>633</ele>
        <time>2021-08-05T13:35:47.951Z</time>
      </trkpt>
      <trkpt lat="46.97385" lon="8.76514">
        <ele>633</ele>
        <time>2021-08-05T13:35:48.950Z</time>
      </trkpt>
      <trkpt lat="46.97385" lon="8.76514">
        <ele>633</ele>
        <time>2021-08-05T13:35:49.951Z</time>
      </trkpt>
      <trkpt lat="46.97385" lon="8.76513">
        <ele>633</ele>
        <time>2021-08-05T13:35:50.950Z</time>
      </trkpt>
      <trkpt lat="46.97385" lon="8.76512">
        <ele>633</ele>
        <time>2021-08-05T13:35:51.950Z</time>
      </trkpt>
      <trkpt lat="46.97384" lon="8.76512">
        <ele>633</ele>
        <time>2021-08-05T13:35:52.951Z</time>
      </trkpt>
      <trkpt lat="46.97385" lon="8.76513">
        <ele>632</ele>
        <time>2021-08-05T13:35:53.951Z</time>
      </trkpt>
      <trkpt lat="46.97386" lon="8.76512">
        <ele>632</ele>
        <time>2021-08-05T13:35:54.950Z</time>
      </trkpt>
      <trkpt lat="46.97387" lon="8.76512">
        <ele>632</ele>
        <time>2021-08-05T13:35:55.950Z</time>
      </trkpt>
      <trkpt lat="46.97388" lon="8.76513">
        <ele>632</ele>
        <time>2021-08-05T13:35:56.951Z</time>
      </trkpt>
      <trkpt lat="46.97388" lon="8.76513">
        <ele>631</ele>
        <time>2021-08-05T13:35:57.951Z</time>
      </trkpt>
      <trkpt lat="46.97388" lon="8.76513">
        <ele>631</ele>
        <time>2021-08-05T13:35:58.950Z</time>
      </trkpt>
      <trkpt lat="46.97388" lon="8.76515">
        <ele>631</ele>
        <time>2021-08-05T13:35:59.950Z</time>
      </trkpt>
      <trkpt lat="46.97388" lon="8.76515">
        <ele>631</ele>
        <time>2021-08-05T13:36:00.950Z</time>
      </trkpt>
      <trkpt lat="46.97387" lon="8.76515">
        <ele>630</ele>
        <time>2021-08-05T13:36:01.950Z</time>
      </trkpt>
      <trkpt lat="46.97386" lon="8.76514">
        <ele>630</ele>
        <time>2021-08-05T13:36:02.950Z</time>
      </trkpt>
      <trkpt lat="46.97384" lon="8.76513">
        <ele>630</ele>
        <time>2021-08-05T13:36:03.950Z</time>
      </trkpt>
      <trkpt lat="46.97385" lon="8.76512">
        <ele>629</ele>
        <time>2021-08-05T13:36:04.950Z</time>
      </trkpt>
      <trkpt lat="46.97385" lon="8.76511">
        <ele>629</ele>
        <time>2021-08-05T13:36:05.950Z</time>
      </trkpt>
      <trkpt lat="46.97386" lon="8.76513">
        <ele>628</ele>
        <time>2021-08-05T13:36:06.950Z</time>
      </trkpt>
      <trkpt lat="46.97386" lon="8.76514">
        <ele>628</ele>
        <time>2021-08-05T13:36:07.950Z</time>
      </trkpt>
      <trkpt lat="46.97387" lon="8.76516">
        <ele>628</ele>
        <time>2021-08-05T13:36:08.950Z</time>
      </trkpt>
      <trkpt lat="46.97387" lon="8.76517">
        <ele>627</ele>
        <time>2021-08-05T13:36:09.950Z</time>
      </trkpt>
      <trkpt lat="46.97388" lon="8.76517">
        <ele>627</ele>
        <time>2021-08-05T13:36:15.079Z</time>
      </trkpt>
      <trkpt lat="46.97389" lon="8.76517">
        <ele>627</ele>
        <time>2021-08-05T13:36:16.080Z</time>
      </trkpt>
      <trkpt lat="46.97389" lon="8.76516">
        <ele>626</ele>
        <time>2021-08-05T13:36:17.079Z</time>
      </trkpt>
      <trkpt lat="46.9739" lon="8.76517">
        <ele>626</ele>
        <time>2021-08-05T13:36:18.079Z</time>
      </trkpt>
      <trkpt lat="46.97389" lon="8.76517">
        <ele>626</ele>
        <time>2021-08-05T13:36:19.079Z</time>
      </trkpt>
      <trkpt lat="46.97389" lon="8.76516">
        <ele>626</ele>
        <time>2021-08-05T13:36:20.080Z</time>
      </trkpt>
      <trkpt lat="46.97388" lon="8.76515">
        <ele>625</ele>
        <time>2021-08-05T13:36:21.079Z</time>
      </trkpt>
      <trkpt lat="46.97388" lon="8.76514">
        <ele>625</ele>
        <time>2021-08-05T13:36:22.080Z</time>
      </trkpt>
      <trkpt lat="46.97388" lon="8.76514">
        <ele>624</ele>
        <time>2021-08-05T13:36:23.081Z</time>
      </trkpt>
      <trkpt lat="46.97388" lon="8.76514">
        <ele>624</ele>
        <time>2021-08-05T13:36:24.080Z</time>
      </trkpt>
      <trkpt lat="46.9739" lon="8.76513">
        <ele>623</ele>
        <time>2021-08-05T13:36:25.080Z</time>
      </trkpt>
      <trkpt lat="46.97391" lon="8.76512">
        <ele>622</ele>
        <time>2021-08-05T13:36:26.080Z</time>
      </trkpt>
      <trkpt lat="46.97392" lon="8.7651">
        <ele>622</ele>
        <time>2021-08-05T13:36:27.080Z</time>
      </trkpt>
      <trkpt lat="46.97393" lon="8.76509">
        <ele>621</ele>
        <time>2021-08-05T13:36:28.081Z</time>
      </trkpt>
      <trkpt lat="46.97393" lon="8.76508">
        <ele>620</ele>
        <time>2021-08-05T13:36:29.080Z</time>
      </trkpt>
      <trkpt lat="46.97392" lon="8.76508">
        <ele>620</ele>
        <time>2021-08-05T13:36:30.081Z</time>
      </trkpt>
      <trkpt lat="46.97391" lon="8.76503">
        <ele>617</ele>
        <time>2021-08-05T13:36:31.081Z</time>
      </trkpt>
      <trkpt lat="46.97392" lon="8.76501">
        <ele>617</ele>
        <time>2021-08-05T13:36:32.083Z</time>
      </trkpt>
      <trkpt lat="46.97391" lon="8.76498">
        <ele>616</ele>
        <time>2021-08-05T13:36:33.083Z</time>
      </trkpt>
      <trkpt lat="46.97392" lon="8.76496">
        <ele>616</ele>
        <time>2021-08-05T13:36:34.082Z</time>
      </trkpt>
      <trkpt lat="46.97392" lon="8.76496">
        <ele>616</ele>
        <time>2021-08-05T13:36:35.083Z</time>
      </trkpt>
      <trkpt lat="46.97393" lon="8.76497">
        <ele>616</ele>
        <time>2021-08-05T13:36:36.083Z</time>
      </trkpt>
      <trkpt lat="46.97393" lon="8.76498">
        <ele>615</ele>
        <time>2021-08-05T13:36:37.083Z</time>
      </trkpt>
      <trkpt lat="46.97396" lon="8.76499">
        <ele>613</ele>
        <time>2021-08-05T13:36:38.083Z</time>
      </trkpt>
      <trkpt lat="46.97396" lon="8.76497">
        <ele>613</ele>
        <time>2021-08-05T13:36:39.083Z</time>
      </trkpt>
      <trkpt lat="46.97396" lon="8.76497">
        <ele>612</ele>
        <time>2021-08-05T13:36:40.082Z</time>
      </trkpt>
      <trkpt lat="46.97396" lon="8.76496">
        <ele>611</ele>
        <time>2021-08-05T13:36:41.082Z</time>
      </trkpt>
      <trkpt lat="46.97396" lon="8.76497">
        <ele>611</ele>
        <time>2021-08-05T13:36:42.082Z</time>
      </trkpt>
      <trkpt lat="46.97395" lon="8.76498">
        <ele>610</ele>
        <time>2021-08-05T13:36:43.082Z</time>
      </trkpt>
      <trkpt lat="46.97392" lon="8.76497">
        <ele>609</ele>
        <time>2021-08-05T13:36:44.084Z</time>
      </trkpt>
      <trkpt lat="46.97391" lon="8.76498">
        <ele>609</ele>
        <time>2021-08-05T13:36:45.084Z</time>
      </trkpt>
      <trkpt lat="46.97391" lon="8.76499">
        <ele>608</ele>
        <time>2021-08-05T13:36:46.083Z</time>
      </trkpt>
      <trkpt lat="46.97391" lon="8.76501">
        <ele>608</ele>
        <time>2021-08-05T13:36:47.083Z</time>
      </trkpt>
      <trkpt lat="46.97391" lon="8.76503">
        <ele>607</ele>
        <time>2021-08-05T13:36:48.083Z</time>
      </trkpt>
      <trkpt lat="46.97391" lon="8.76504">
        <ele>607</ele>
        <time>2021-08-05T13:36:49.083Z</time>
      </trkpt>
      <trkpt lat="46.9739" lon="8.76504">
        <ele>606</ele>
        <time>2021-08-05T13:36:50.084Z</time>
      </trkpt>
      <trkpt lat="46.97389" lon="8.76504">
        <ele>606</ele>
        <time>2021-08-05T13:36:51.084Z</time>
      </trkpt>
      <trkpt lat="46.97388" lon="8.76503">
        <ele>606</ele>
        <time>2021-08-05T13:36:52.084Z</time>
      </trkpt>
      <trkpt lat="46.9739" lon="8.76502">
        <ele>606</ele>
        <time>2021-08-05T13:36:53.084Z</time>
      </trkpt>
      <trkpt lat="46.97391" lon="8.76502">
        <ele>605</ele>
        <time>2021-08-05T13:36:54.085Z</time>
      </trkpt>
      <trkpt lat="46.97392" lon="8.76502">
        <ele>605</ele>
        <time>2021-08-05T13:36:55.084Z</time>
      </trkpt>
      <trkpt lat="46.97392" lon="8.76501">
        <ele>605</ele>
        <time>2021-08-05T13:36:56.084Z</time>
      </trkpt>
      <trkpt lat="46.97393" lon="8.76501">
        <ele>605</ele>
        <time>2021-08-05T13:36:57.085Z</time>
      </trkpt>
      <trkpt lat="46.97393" lon="8.76501">
        <ele>604</ele>
        <time>2021-08-05T13:36:58.085Z</time>
      </trkpt>
      <trkpt lat="46.97394" lon="8.76501">
        <ele>604</ele>
        <time>2021-08-05T13:36:59.085Z</time>
      </trkpt>
      <trkpt lat="46.97395" lon="8.76501">
        <ele>604</ele>
        <time>2021-08-05T13:37:00.085Z</time>
      </trkpt>
      <trkpt lat="46.97396" lon="8.76501">
        <ele>604</ele>
        <time>2021-08-05T13:37:01.085Z</time>
      </trkpt>
      <trkpt lat="46.97397" lon="8.76502">
        <ele>604</ele>
        <time>2021-08-05T13:37:02.085Z</time>
      </trkpt>
      <trkpt lat="46.97397" lon="8.76502">
        <ele>604</ele>
        <time>2021-08-05T13:37:03.085Z</time>
      </trkpt>
      <trkpt lat="46.97398" lon="8.76503">
        <ele>604</ele>
        <time>2021-08-05T13:37:04.084Z</time>
      </trkpt>
      <trkpt lat="46.97398" lon="8.76504">
        <ele>604</ele>
        <time>2021-08-05T13:37:05.084Z</time>
      </trkpt>
      <trkpt lat="46.97398" lon="8.76504">
        <ele>604</ele>
        <time>2021-08-05T13:37:06.084Z</time>
      </trkpt>
      <trkpt lat="46.97398" lon="8.76504">
        <ele>604</ele>
        <time>2021-08-05T13:37:07.084Z</time>
      </trkpt>
      <trkpt lat="46.97399" lon="8.76505">
        <ele>604</ele>
        <time>2021-08-05T13:37:08.085Z</time>
      </trkpt>
      <trkpt lat="46.97398" lon="8.76505">
        <ele>604</ele>
        <time>2021-08-05T13:37:09.085Z</time>
      </trkpt>
      <trkpt lat="46.97398" lon="8.76507">
        <ele>604</ele>
        <time>2021-08-05T13:37:10.085Z</time>
      </trkpt>
      <trkpt lat="46.97397" lon="8.76505">
        <ele>605</ele>
        <time>2021-08-05T13:37:11.085Z</time>
      </trkpt>
      <trkpt lat="46.97396" lon="8.76503">
        <ele>605</ele>
        <time>2021-08-05T13:37:12.085Z</time>
      </trkpt>
      <trkpt lat="46.97395" lon="8.76503">
        <ele>605</ele>
        <time>2021-08-05T13:37:13.085Z</time>
      </trkpt>
      <trkpt lat="46.97396" lon="8.76505">
        <ele>606</ele>
        <time>2021-08-05T13:37:14.084Z</time>
      </trkpt>
      <trkpt lat="46.97398" lon="8.76508">
        <ele>606</ele>
        <time>2021-08-05T13:37:15.085Z</time>
      </trkpt>
      <trkpt lat="46.97402" lon="8.76511">
        <ele>606</ele>
        <time>2021-08-05T13:37:16.085Z</time>
      </trkpt>
      <trkpt lat="46.97404" lon="8.76512">
        <ele>606</ele>
        <time>2021-08-05T13:37:17.085Z</time>
      </trkpt>
      <trkpt lat="46.97406" lon="8.76514">
        <ele>607</ele>
        <time>2021-08-05T13:37:18.085Z</time>
      </trkpt>
      <trkpt lat="46.97408" lon="8.76515">
        <ele>607</ele>
        <time>2021-08-05T13:37:19.085Z</time>
      </trkpt>
      <trkpt lat="46.97408" lon="8.76519">
        <ele>607</ele>
        <time>2021-08-05T13:37:20.084Z</time>
      </trkpt>
      <trkpt lat="46.97406" lon="8.76517">
        <ele>608</ele>
        <time>2021-08-05T13:37:21.084Z</time>
      </trkpt>
      <trkpt lat="46.97407" lon="8.76515">
        <ele>608</ele>
        <time>2021-08-05T13:37:22.085Z</time>
      </trkpt>
      <trkpt lat="46.97407" lon="8.76515">
        <ele>608</ele>
        <time>2021-08-05T13:37:23.085Z</time>
      </trkpt>
      <trkpt lat="46.97407" lon="8.76515">
        <ele>608</ele>
        <time>2021-08-05T13:37:24.084Z</time>
      </trkpt>
      <trkpt lat="46.97408" lon="8.76515">
        <ele>609</ele>
        <time>2021-08-05T13:37:25.085Z</time>
      </trkpt>
      <trkpt lat="46.97409" lon="8.76518">
        <ele>609</ele>
        <time>2021-08-05T13:37:26.084Z</time>
      </trkpt>
      <trkpt lat="46.97409" lon="8.76519">
        <ele>609</ele>
        <time>2021-08-05T13:37:27.085Z</time>
      </trkpt>
      <trkpt lat="46.97409" lon="8.76522">
        <ele>609</ele>
        <time>2021-08-05T13:37:28.084Z</time>
      </trkpt>
      <trkpt lat="46.9741" lon="8.76526">
        <ele>610</ele>
        <time>2021-08-05T13:37:29.084Z</time>
      </trkpt>
      <trkpt lat="46.9741" lon="8.76528">
        <ele>610</ele>
        <time>2021-08-05T13:37:30.085Z</time>
      </trkpt>
      <trkpt lat="46.9741" lon="8.76529">
        <ele>611</ele>
        <time>2021-08-05T13:37:31.085Z</time>
      </trkpt>
      <trkpt lat="46.9741" lon="8.76531">
        <ele>611</ele>
        <time>2021-08-05T13:37:32.084Z</time>
      </trkpt>
      <trkpt lat="46.97409" lon="8.76532">
        <ele>612</ele>
        <time>2021-08-05T13:37:33.084Z</time>
      </trkpt>
      <trkpt lat="46.97407" lon="8.76532">
        <ele>612</ele>
        <time>2021-08-05T13:37:34.084Z</time>
      </trkpt>
      <trkpt lat="46.97407" lon="8.76533">
        <ele>612</ele>
        <time>2021-08-05T13:37:35.085Z</time>
      </trkpt>
      <trkpt lat="46.97407" lon="8.76533">
        <ele>613</ele>
        <time>2021-08-05T13:37:36.085Z</time>
      </trkpt>
      <trkpt lat="46.97407" lon="8.76533">
        <ele>613</ele>
        <time>2021-08-05T13:37:37.085Z</time>
      </trkpt>
      <trkpt lat="46.97408" lon="8.76533">
        <ele>613</ele>
        <time>2021-08-05T13:37:38.085Z</time>
      </trkpt>
      <trkpt lat="46.97408" lon="8.76532">
        <ele>614</ele>
        <time>2021-08-05T13:37:39.085Z</time>
      </trkpt>
      <trkpt lat="46.97408" lon="8.76532">
        <ele>614</ele>
        <time>2021-08-05T13:37:40.084Z</time>
      </trkpt>
      <trkpt lat="46.97409" lon="8.76532">
        <ele>614</ele>
        <time>2021-08-05T13:37:41.085Z</time>
      </trkpt>
      <trkpt lat="46.97409" lon="8.76532">
        <ele>615</ele>
        <time>2021-08-05T13:37:42.084Z</time>
      </trkpt>
      <trkpt lat="46.97409" lon="8.76531">
        <ele>615</ele>
        <time>2021-08-05T13:37:43.084Z</time>
      </trkpt>
      <trkpt lat="46.97408" lon="8.7653">
        <ele>615</ele>
        <time>2021-08-05T13:37:44.085Z</time>
      </trkpt>
      <trkpt lat="46.97407" lon="8.76529">
        <ele>616</ele>
        <time>2021-08-05T13:37:45.084Z</time>
      </trkpt>
      <trkpt lat="46.97406" lon="8.76528">
        <ele>616</ele>
        <time>2021-08-05T13:37:46.085Z</time>
      </trkpt>
      <trkpt lat="46.97405" lon="8.76527">
        <ele>616</ele>
        <time>2021-08-05T13:37:47.085Z</time>
      </trkpt>
      <trkpt lat="46.97405" lon="8.76526">
        <ele>616</ele>
        <time>2021-08-05T13:37:48.085Z</time>
      </trkpt>
      <trkpt lat="46.97404" lon="8.76526">
        <ele>617</ele>
        <time>2021-08-05T13:37:49.084Z</time>
      </trkpt>
      <trkpt lat="46.97404" lon="8.76527">
        <ele>617</ele>
        <time>2021-08-05T13:37:50.084Z</time>
      </trkpt>
      <trkpt lat="46.97404" lon="8.76527">
        <ele>617</ele>
        <time>2021-08-05T13:37:51.085Z</time>
      </trkpt>
      <trkpt lat="46.97404" lon="8.76527">
        <ele>617</ele>
        <time>2021-08-05T13:37:52.085Z</time>
      </trkpt>
      <trkpt lat="46.97404" lon="8.76526">
        <ele>617</ele>
        <time>2021-08-05T13:37:53.084Z</time>
      </trkpt>
      <trkpt lat="46.97404" lon="8.76524">
        <ele>617</ele>
        <time>2021-08-05T13:37:54.085Z</time>
      </trkpt>
      <trkpt lat="46.97403" lon="8.76523">
        <ele>617</ele>
        <time>2021-08-05T13:37:55.085Z</time>
      </trkpt>
      <trkpt lat="46.97403" lon="8.76522">
        <ele>617</ele>
        <time>2021-08-05T13:37:56.084Z</time>
      </trkpt>
      <trkpt lat="46.97404" lon="8.76521">
        <ele>617</ele>
        <time>2021-08-05T13:37:57.084Z</time>
      </trkpt>
      <trkpt lat="46.97406" lon="8.76522">
        <ele>616</ele>
        <time>2021-08-05T13:37:58.084Z</time>
      </trkpt>
      <trkpt lat="46.97407" lon="8.76523">
        <ele>616</ele>
        <time>2021-08-05T13:37:59.084Z</time>
      </trkpt>
      <trkpt lat="46.97409" lon="8.76525">
        <ele>616</ele>
        <time>2021-08-05T13:38:00.085Z</time>
      </trkpt>
      <trkpt lat="46.9741" lon="8.76526">
        <ele>616</ele>
        <time>2021-08-05T13:38:01.085Z</time>
      </trkpt>
      <trkpt lat="46.97409" lon="8.76526">
        <ele>615</ele>
        <time>2021-08-05T13:38:02.084Z</time>
      </trkpt>
      <trkpt lat="46.97409" lon="8.76527">
        <ele>615</ele>
        <time>2021-08-05T13:38:03.085Z</time>
      </trkpt>
      <trkpt lat="46.97409" lon="8.76529">
        <ele>615</ele>
        <time>2021-08-05T13:38:04.084Z</time>
      </trkpt>
      <trkpt lat="46.97409" lon="8.7653">
        <ele>615</ele>
        <time>2021-08-05T13:38:05.085Z</time>
      </trkpt>
      <trkpt lat="46.97409" lon="8.7653">
        <ele>615</ele>
        <time>2021-08-05T13:38:06.085Z</time>
      </trkpt>
      <trkpt lat="46.97409" lon="8.76529">
        <ele>615</ele>
        <time>2021-08-05T13:38:07.084Z</time>
      </trkpt>
      <trkpt lat="46.97409" lon="8.76528">
        <ele>615</ele>
        <time>2021-08-05T13:38:08.085Z</time>
      </trkpt>
      <trkpt lat="46.97408" lon="8.76528">
        <ele>615</ele>
        <time>2021-08-05T13:38:09.084Z</time>
      </trkpt>
      <trkpt lat="46.97408" lon="8.76527">
        <ele>615</ele>
        <time>2021-08-05T13:38:10.085Z</time>
      </trkpt>
      <trkpt lat="46.97408" lon="8.76526">
        <ele>615</ele>
        <time>2021-08-05T13:38:11.084Z</time>
      </trkpt>
      <trkpt lat="46.97407" lon="8.76525">
        <ele>615</ele>
        <time>2021-08-05T13:38:12.085Z</time>
      </trkpt>
      <trkpt lat="46.97406" lon="8.76524">
        <ele>614</ele>
        <time>2021-08-05T13:38:13.085Z</time>
      </trkpt>
      <trkpt lat="46.97405" lon="8.76523">
        <ele>614</ele>
        <time>2021-08-05T13:38:14.084Z</time>
      </trkpt>
      <trkpt lat="46.97404" lon="8.76522">
        <ele>614</ele>
        <time>2021-08-05T13:38:15.085Z</time>
      </trkpt>
      <trkpt lat="46.97403" lon="8.76522">
        <ele>613</ele>
        <time>2021-08-05T13:38:16.085Z</time>
      </trkpt>
      <trkpt lat="46.97402" lon="8.76521">
        <ele>613</ele>
        <time>2021-08-05T13:38:17.084Z</time>
      </trkpt>
      <trkpt lat="46.97401" lon="8.7652">
        <ele>612</ele>
        <time>2021-08-05T13:38:18.084Z</time>
      </trkpt>
      <trkpt lat="46.97401" lon="8.76519">
        <ele>612</ele>
        <time>2021-08-05T13:38:19.084Z</time>
      </trkpt>
      <trkpt lat="46.97401" lon="8.76518">
        <ele>611</ele>
        <time>2021-08-05T13:38:20.085Z</time>
      </trkpt>
      <trkpt lat="46.97401" lon="8.76519">
        <ele>610</ele>
        <time>2021-08-05T13:38:21.084Z</time>
      </trkpt>
      <trkpt lat="46.97401" lon="8.7652">
        <ele>609</ele>
        <time>2021-08-05T13:38:22.085Z</time>
      </trkpt>
      <trkpt lat="46.97399" lon="8.76518">
        <ele>608</ele>
        <time>2021-08-05T13:38:23.084Z</time>
      </trkpt>
      <trkpt lat="46.97399" lon="8.76516">
        <ele>609</ele>
        <time>2021-08-05T13:38:24.085Z</time>
      </trkpt>
      <trkpt lat="46.97399" lon="8.76514">
        <ele>610</ele>
        <time>2021-08-05T13:38:25.085Z</time>
      </trkpt>
      <trkpt lat="46.97399" lon="8.76513">
        <ele>611</ele>
        <time>2021-08-05T13:38:26.085Z</time>
      </trkpt>
      <trkpt lat="46.97399" lon="8.76514">
        <ele>612</ele>
        <time>2021-08-05T13:38:27.084Z</time>
      </trkpt>
      <trkpt lat="46.974" lon="8.76514">
        <ele>613</ele>
        <time>2021-08-05T13:38:28.084Z</time>
      </trkpt>
      <trkpt lat="46.974" lon="8.76513">
        <ele>614</ele>
        <time>2021-08-05T13:38:29.084Z</time>
      </trkpt>
      <trkpt lat="46.974" lon="8.76513">
        <ele>615</ele>
        <time>2021-08-05T13:38:30.085Z</time>
      </trkpt>
      <trkpt lat="46.97401" lon="8.76514">
        <ele>616</ele>
        <time>2021-08-05T13:38:31.084Z</time>
      </trkpt>
      <trkpt lat="46.97402" lon="8.76514">
        <ele>617</ele>
        <time>2021-08-05T13:38:32.085Z</time>
      </trkpt>
      <trkpt lat="46.97403" lon="8.76514">
        <ele>617</ele>
        <time>2021-08-05T13:38:33.085Z</time>
      </trkpt>
      <trkpt lat="46.97403" lon="8.76513">
        <ele>618</ele>
        <time>2021-08-05T13:38:34.085Z</time>
      </trkpt>
      <trkpt lat="46.97403" lon="8.76514">
        <ele>618</ele>
        <time>2021-08-05T13:38:35.084Z</time>
      </trkpt>
      <trkpt lat="46.97402" lon="8.76515">
        <ele>619</ele>
        <time>2021-08-05T13:38:36.085Z</time>
      </trkpt>
      <trkpt lat="46.97402" lon="8.76516">
        <ele>619</ele>
        <time>2021-08-05T13:38:37.085Z</time>
      </trkpt>
      <trkpt lat="46.97403" lon="8.76512">
        <ele>620</ele>
        <time>2021-08-05T13:38:38.086Z</time>
      </trkpt>
      <trkpt lat="46.97403" lon="8.76511">
        <ele>621</ele>
        <time>2021-08-05T13:38:39.086Z</time>
      </trkpt>
      <trkpt lat="46.97403" lon="8.76511">
        <ele>621</ele>
        <time>2021-08-05T13:38:40.085Z</time>
      </trkpt>
      <trkpt lat="46.97402" lon="8.76512">
        <ele>622</ele>
        <time>2021-08-05T13:38:41.086Z</time>
      </trkpt>
      <trkpt lat="46.97403" lon="8.76512">
        <ele>623</ele>
        <time>2021-08-05T13:38:42.087Z</time>
      </trkpt>
      <trkpt lat="46.97403" lon="8.76512">
        <ele>623</ele>
        <time>2021-08-05T13:38:43.086Z</time>
      </trkpt>
      <trkpt lat="46.97402" lon="8.76513">
        <ele>623</ele>
        <time>2021-08-05T13:38:44.086Z</time>
      </trkpt>
      <trkpt lat="46.974" lon="8.76517">
        <ele>623</ele>
        <time>2021-08-05T13:38:45.088Z</time>
      </trkpt>
      <trkpt lat="46.97399" lon="8.76518">
        <ele>623</ele>
        <time>2021-08-05T13:38:46.088Z</time>
      </trkpt>
      <trkpt lat="46.97399" lon="8.76518">
        <ele>622</ele>
        <time>2021-08-05T13:38:47.088Z</time>
      </trkpt>
      <trkpt lat="46.97398" lon="8.76519">
        <ele>622</ele>
        <time>2021-08-05T13:38:48.088Z</time>
      </trkpt>
      <trkpt lat="46.97399" lon="8.76521">
        <ele>622</ele>
        <time>2021-08-05T13:38:49.088Z</time>
      </trkpt>
      <trkpt lat="46.97399" lon="8.76524">
        <ele>622</ele>
        <time>2021-08-05T13:38:50.087Z</time>
      </trkpt>
      <trkpt lat="46.974" lon="8.76526">
        <ele>622</ele>
        <time>2021-08-05T13:38:51.088Z</time>
      </trkpt>
      <trkpt lat="46.97401" lon="8.76528">
        <ele>622</ele>
        <time>2021-08-05T13:38:52.088Z</time>
      </trkpt>
      <trkpt lat="46.97401" lon="8.76529">
        <ele>622</ele>
        <time>2021-08-05T13:38:53.088Z</time>
      </trkpt>
      <trkpt lat="46.97399" lon="8.76529">
        <ele>622</ele>
        <time>2021-08-05T13:38:54.088Z</time>
      </trkpt>
      <trkpt lat="46.97398" lon="8.76529">
        <ele>621</ele>
        <time>2021-08-05T13:38:55.088Z</time>
      </trkpt>
      <trkpt lat="46.97396" lon="8.76528">
        <ele>621</ele>
        <time>2021-08-05T13:38:56.088Z</time>
      </trkpt>
      <trkpt lat="46.97394" lon="8.76528">
        <ele>621</ele>
        <time>2021-08-05T13:38:57.088Z</time>
      </trkpt>
      <trkpt lat="46.97391" lon="8.76527">
        <ele>621</ele>
        <time>2021-08-05T13:38:58.088Z</time>
      </trkpt>
      <trkpt lat="46.9739" lon="8.76526">
        <ele>621</ele>
        <time>2021-08-05T13:38:59.088Z</time>
      </trkpt>
      <trkpt lat="46.97389" lon="8.76525">
        <ele>621</ele>
        <time>2021-08-05T13:39:00.088Z</time>
      </trkpt>
      <trkpt lat="46.97389" lon="8.76523">
        <ele>620</ele>
        <time>2021-08-05T13:39:01.088Z</time>
      </trkpt>
      <trkpt lat="46.97388" lon="8.76522">
        <ele>620</ele>
        <time>2021-08-05T13:39:02.088Z</time>
      </trkpt>
      <trkpt lat="46.97388" lon="8.7652">
        <ele>620</ele>
        <time>2021-08-05T13:39:03.088Z</time>
      </trkpt>
      <trkpt lat="46.97387" lon="8.76519">
        <ele>619</ele>
        <time>2021-08-05T13:39:04.087Z</time>
      </trkpt>
      <trkpt lat="46.97388" lon="8.76518">
        <ele>619</ele>
        <time>2021-08-05T13:39:05.088Z</time>
      </trkpt>
      <trkpt lat="46.97388" lon="8.76518">
        <ele>619</ele>
        <time>2021-08-05T13:39:06.088Z</time>
      </trkpt>
      <trkpt lat="46.97388" lon="8.76518">
        <ele>618</ele>
        <time>2021-08-05T13:39:07.088Z</time>
      </trkpt>
      <trkpt lat="46.97389" lon="8.76519">
        <ele>618</ele>
        <time>2021-08-05T13:39:08.088Z</time>
      </trkpt>
      <trkpt lat="46.9739" lon="8.76519">
        <ele>618</ele>
        <time>2021-08-05T13:39:09.088Z</time>
      </trkpt>
      <trkpt lat="46.97391" lon="8.76519">
        <ele>617</ele>
        <time>2021-08-05T13:39:10.088Z</time>
      </trkpt>
      <trkpt lat="46.97391" lon="8.76519">
        <ele>617</ele>
        <time>2021-08-05T13:39:11.087Z</time>
      </trkpt>
      <trkpt lat="46.97392" lon="8.7652">
        <ele>616</ele>
        <time>2021-08-05T13:39:12.088Z</time>
      </trkpt>
      <trkpt lat="46.97393" lon="8.76522">
        <ele>616</ele>
        <time>2021-08-05T13:39:13.087Z</time>
      </trkpt>
      <trkpt lat="46.97393" lon="8.76523">
        <ele>615</ele>
        <time>2021-08-05T13:39:14.088Z</time>
      </trkpt>
      <trkpt lat="46.97394" lon="8.76524">
        <ele>615</ele>
        <time>2021-08-05T13:39:15.088Z</time>
      </trkpt>
      <trkpt lat="46.97395" lon="8.76525">
        <ele>615</ele>
        <time>2021-08-05T13:39:16.087Z</time>
      </trkpt>
      <trkpt lat="46.97396" lon="8.76527">
        <ele>614</ele>
        <time>2021-08-05T13:39:17.088Z</time>
      </trkpt>
      <trkpt lat="46.97398" lon="8.7653">
        <ele>614</ele>
        <time>2021-08-05T13:39:18.087Z</time>
      </trkpt>
      <trkpt lat="46.97402" lon="8.76533">
        <ele>614</ele>
        <time>2021-08-05T13:39:19.088Z</time>
      </trkpt>
      <trkpt lat="46.97403" lon="8.76534">
        <ele>613</ele>
        <time>2021-08-05T13:39:20.088Z</time>
      </trkpt>
      <trkpt lat="46.97403" lon="8.76533">
        <ele>613</ele>
        <time>2021-08-05T13:39:21.088Z</time>
      </trkpt>
      <trkpt lat="46.97403" lon="8.76533">
        <ele>613</ele>
        <time>2021-08-05T13:39:22.087Z</time>
      </trkpt>
      <trkpt lat="46.97402" lon="8.76533">
        <ele>613</ele>
        <time>2021-08-05T13:39:23.087Z</time>
      </trkpt>
      <trkpt lat="46.97402" lon="8.76532">
        <ele>612</ele>
        <time>2021-08-05T13:39:24.088Z</time>
      </trkpt>
      <trkpt lat="46.97402" lon="8.76532">
        <ele>612</ele>
        <time>2021-08-05T13:39:25.089Z</time>
      </trkpt>
      <trkpt lat="46.97403" lon="8.76531">
        <ele>612</ele>
        <time>2021-08-05T13:39:26.089Z</time>
      </trkpt>
      <trkpt lat="46.97403" lon="8.7653">
        <ele>612</ele>
        <time>2021-08-05T13:39:27.088Z</time>
      </trkpt>
      <trkpt lat="46.97403" lon="8.7653">
        <ele>611</ele>
        <time>2021-08-05T13:39:28.089Z</time>
      </trkpt>
      <trkpt lat="46.97403" lon="8.76529">
        <ele>611</ele>
        <time>2021-08-05T13:39:29.088Z</time>
      </trkpt>
      <trkpt lat="46.97403" lon="8.76529">
        <ele>610</ele>
        <time>2021-08-05T13:39:30.089Z</time>
      </trkpt>
      <trkpt lat="46.97402" lon="8.76528">
        <ele>610</ele>
        <time>2021-08-05T13:39:31.089Z</time>
      </trkpt>
      <trkpt lat="46.97402" lon="8.76528">
        <ele>609</ele>
        <time>2021-08-05T13:39:32.088Z</time>
      </trkpt>
      <trkpt lat="46.97399" lon="8.76524">
        <ele>608</ele>
        <time>2021-08-05T13:39:33.089Z</time>
      </trkpt>
      <trkpt lat="46.97398" lon="8.76524">
        <ele>607</ele>
        <time>2021-08-05T13:39:34.088Z</time>
      </trkpt>
      <trkpt lat="46.97396" lon="8.76524">
        <ele>608</ele>
        <time>2021-08-05T13:39:35.089Z</time>
      </trkpt>
      <trkpt lat="46.97397" lon="8.76524">
        <ele>608</ele>
        <time>2021-08-05T13:39:36.089Z</time>
      </trkpt>
      <trkpt lat="46.97399" lon="8.76527">
        <ele>608</ele>
        <time>2021-08-05T13:39:37.089Z</time>
      </trkpt>
      <trkpt lat="46.974" lon="8.76528">
        <ele>608</ele>
        <time>2021-08-05T13:39:38.090Z</time>
      </trkpt>
      <trkpt lat="46.974" lon="8.76529">
        <ele>608</ele>
        <time>2021-08-05T13:39:39.089Z</time>
      </trkpt>
      <trkpt lat="46.974" lon="8.76528">
        <ele>608</ele>
        <time>2021-08-05T13:39:40.089Z</time>
      </trkpt>
      <trkpt lat="46.974" lon="8.76528">
        <ele>608</ele>
        <time>2021-08-05T13:39:41.089Z</time>
      </trkpt>
      <trkpt lat="46.97401" lon="8.76528">
        <ele>607</ele>
        <time>2021-08-05T13:39:42.090Z</time>
      </trkpt>
      <trkpt lat="46.97402" lon="8.76527">
        <ele>607</ele>
        <time>2021-08-05T13:39:43.090Z</time>
      </trkpt>
      <trkpt lat="46.97402" lon="8.76528">
        <ele>607</ele>
        <time>2021-08-05T13:39:44.090Z</time>
      </trkpt>
      <trkpt lat="46.97403" lon="8.76528">
        <ele>608</ele>
        <time>2021-08-05T13:39:45.091Z</time>
      </trkpt>
      <trkpt lat="46.97403" lon="8.76528">
        <ele>609</ele>
        <time>2021-08-05T13:39:46.091Z</time>
      </trkpt>
      <trkpt lat="46.97404" lon="8.76529">
        <ele>610</ele>
        <time>2021-08-05T13:39:47.091Z</time>
      </trkpt>
      <trkpt lat="46.97404" lon="8.76529">
        <ele>610</ele>
        <time>2021-08-05T13:39:48.091Z</time>
      </trkpt>
      <trkpt lat="46.97404" lon="8.76529">
        <ele>611</ele>
        <time>2021-08-05T13:39:49.091Z</time>
      </trkpt>
      <trkpt lat="46.97404" lon="8.76529">
        <ele>616</ele>
        <time>2021-08-05T13:39:50.093Z</time>
      </trkpt>
      <trkpt lat="46.97405" lon="8.76529">
        <ele>617</ele>
        <time>2021-08-05T13:39:51.093Z</time>
      </trkpt>
      <trkpt lat="46.97405" lon="8.7653">
        <ele>618</ele>
        <time>2021-08-05T13:39:52.092Z</time>
      </trkpt>
      <trkpt lat="46.97405" lon="8.7653">
        <ele>620</ele>
        <time>2021-08-05T13:39:53.092Z</time>
      </trkpt>
      <trkpt lat="46.97405" lon="8.7653">
        <ele>620</ele>
        <time>2021-08-05T13:39:54.092Z</time>
      </trkpt>
      <trkpt lat="46.97406" lon="8.7653">
        <ele>621</ele>
        <time>2021-08-05T13:39:55.092Z</time>
      </trkpt>
      <trkpt lat="46.97406" lon="8.76531">
        <ele>622</ele>
        <time>2021-08-05T13:39:56.093Z</time>
      </trkpt>
      <trkpt lat="46.97406" lon="8.76532">
        <ele>622</ele>
        <time>2021-08-05T13:39:57.092Z</time>
      </trkpt>
      <trkpt lat="46.97406" lon="8.76531">
        <ele>623</ele>
        <time>2021-08-05T13:39:58.093Z</time>
      </trkpt>
      <trkpt lat="46.97407" lon="8.76531">
        <ele>623</ele>
        <time>2021-08-05T13:39:59.093Z</time>
      </trkpt>
      <trkpt lat="46.97407" lon="8.76531">
        <ele>624</ele>
        <time>2021-08-05T13:40:00.093Z</time>
      </trkpt>
      <trkpt lat="46.97407" lon="8.7653">
        <ele>624</ele>
        <time>2021-08-05T13:40:01.093Z</time>
      </trkpt>
      <trkpt lat="46.97407" lon="8.7653">
        <ele>624</ele>
        <time>2021-08-05T13:40:02.093Z</time>
      </trkpt>
      <trkpt lat="46.97407" lon="8.7653">
        <ele>624</ele>
        <time>2021-08-05T13:40:03.093Z</time>
      </trkpt>
      <trkpt lat="46.97406" lon="8.76527">
        <ele>625</ele>
        <time>2021-08-05T13:40:04.094Z</time>
      </trkpt>
      <trkpt lat="46.97405" lon="8.76525">
        <ele>626</ele>
        <time>2021-08-05T13:40:05.094Z</time>
      </trkpt>
      <trkpt lat="46.97405" lon="8.76525">
        <ele>626</ele>
        <time>2021-08-05T13:40:06.093Z</time>
      </trkpt>
      <trkpt lat="46.97404" lon="8.76523">
        <ele>626</ele>
        <time>2021-08-05T13:40:07.093Z</time>
      </trkpt>
      <trkpt lat="46.97404" lon="8.76523">
        <ele>626</ele>
        <time>2021-08-05T13:40:08.094Z</time>
      </trkpt>
      <trkpt lat="46.97404" lon="8.76523">
        <ele>627</ele>
        <time>2021-08-05T13:40:09.094Z</time>
      </trkpt>
      <trkpt lat="46.97404" lon="8.76523">
        <ele>627</ele>
        <time>2021-08-05T13:40:10.093Z</time>
      </trkpt>
      <trkpt lat="46.97405" lon="8.76523">
        <ele>628</ele>
        <time>2021-08-05T13:40:11.093Z</time>
      </trkpt>
      <trkpt lat="46.97406" lon="8.76523">
        <ele>628</ele>
        <time>2021-08-05T13:40:12.093Z</time>
      </trkpt>
      <trkpt lat="46.97407" lon="8.76525">
        <ele>628</ele>
        <time>2021-08-05T13:40:13.094Z</time>
      </trkpt>
      <trkpt lat="46.97407" lon="8.76525">
        <ele>628</ele>
        <time>2021-08-05T13:40:14.094Z</time>
      </trkpt>
      <trkpt lat="46.97407" lon="8.76525">
        <ele>629</ele>
        <time>2021-08-05T13:40:15.096Z</time>
      </trkpt>
      <trkpt lat="46.97407" lon="8.76525">
        <ele>629</ele>
        <time>2021-08-05T13:40:16.096Z</time>
      </trkpt>
      <trkpt lat="46.97407" lon="8.76525">
        <ele>629</ele>
        <time>2021-08-05T13:40:17.095Z</time>
      </trkpt>
      <trkpt lat="46.97408" lon="8.76525">
        <ele>627</ele>
        <time>2021-08-05T13:40:18.096Z</time>
      </trkpt>
      <trkpt lat="46.97409" lon="8.76525">
        <ele>627</ele>
        <time>2021-08-05T13:40:19.097Z</time>
      </trkpt>
      <trkpt lat="46.97409" lon="8.76526">
        <ele>627</ele>
        <time>2021-08-05T13:40:20.096Z</time>
      </trkpt>
      <trkpt lat="46.9741" lon="8.76526">
        <ele>626</ele>
        <time>2021-08-05T13:40:21.097Z</time>
      </trkpt>
      <trkpt lat="46.9741" lon="8.76526">
        <ele>626</ele>
        <time>2021-08-05T13:40:22.096Z</time>
      </trkpt>
      <trkpt lat="46.9741" lon="8.76525">
        <ele>626</ele>
        <time>2021-08-05T13:40:23.097Z</time>
      </trkpt>
      <trkpt lat="46.9741" lon="8.76524">
        <ele>626</ele>
        <time>2021-08-05T13:40:24.097Z</time>
      </trkpt>
      <trkpt lat="46.9741" lon="8.76523">
        <ele>626</ele>
        <time>2021-08-05T13:40:25.096Z</time>
      </trkpt>
      <trkpt lat="46.97409" lon="8.76528">
        <ele>624</ele>
        <time>2021-08-05T13:40:26.098Z</time>
      </trkpt>
      <trkpt lat="46.97408" lon="8.76527">
        <ele>624</ele>
        <time>2021-08-05T13:40:27.098Z</time>
      </trkpt>
      <trkpt lat="46.97408" lon="8.76526">
        <ele>625</ele>
        <time>2021-08-05T13:40:28.097Z</time>
      </trkpt>
      <trkpt lat="46.9741" lon="8.76528">
        <ele>624</ele>
        <time>2021-08-05T13:40:29.099Z</time>
      </trkpt>
      <trkpt lat="46.97411" lon="8.76529">
        <ele>624</ele>
        <time>2021-08-05T13:40:30.100Z</time>
      </trkpt>
      <trkpt lat="46.97412" lon="8.76529">
        <ele>624</ele>
        <time>2021-08-05T13:40:31.099Z</time>
      </trkpt>
      <trkpt lat="46.97413" lon="8.7653">
        <ele>624</ele>
        <time>2021-08-05T13:40:32.099Z</time>
      </trkpt>
      <trkpt lat="46.97414" lon="8.76531">
        <ele>623</ele>
        <time>2021-08-05T13:40:33.100Z</time>
      </trkpt>
      <trkpt lat="46.97414" lon="8.76532">
        <ele>623</ele>
        <time>2021-08-05T13:40:34.100Z</time>
      </trkpt>
      <trkpt lat="46.97415" lon="8.76532">
        <ele>623</ele>
        <time>2021-08-05T13:40:35.100Z</time>
      </trkpt>
      <trkpt lat="46.97415" lon="8.76533">
        <ele>622</ele>
        <time>2021-08-05T13:40:36.100Z</time>
      </trkpt>
      <trkpt lat="46.97416" lon="8.76534">
        <ele>622</ele>
        <time>2021-08-05T13:40:37.099Z</time>
      </trkpt>
      <trkpt lat="46.97416" lon="8.76535">
        <ele>622</ele>
        <time>2021-08-05T13:40:38.100Z</time>
      </trkpt>
      <trkpt lat="46.97416" lon="8.76536">
        <ele>622</ele>
        <time>2021-08-05T13:40:39.100Z</time>
      </trkpt>
      <trkpt lat="46.97416" lon="8.76536">
        <ele>622</ele>
        <time>2021-08-05T13:40:40.100Z</time>
      </trkpt>
      <trkpt lat="46.97415" lon="8.76537">
        <ele>622</ele>
        <time>2021-08-05T13:40:41.100Z</time>
      </trkpt>
      <trkpt lat="46.97415" lon="8.76537">
        <ele>622</ele>
        <time>2021-08-05T13:40:42.099Z</time>
      </trkpt>
      <trkpt lat="46.97414" lon="8.76537">
        <ele>622</ele>
        <time>2021-08-05T13:40:43.100Z</time>
      </trkpt>
      <trkpt lat="46.97414" lon="8.76538">
        <ele>622</ele>
        <time>2021-08-05T13:40:44.100Z</time>
      </trkpt>
      <trkpt lat="46.97413" lon="8.76538">
        <ele>622</ele>
        <time>2021-08-05T13:40:45.099Z</time>
      </trkpt>
      <trkpt lat="46.97413" lon="8.76539">
        <ele>622</ele>
        <time>2021-08-05T13:40:46.100Z</time>
      </trkpt>
      <trkpt lat="46.97413" lon="8.76539">
        <ele>622</ele>
        <time>2021-08-05T13:40:47.100Z</time>
      </trkpt>
      <trkpt lat="46.97413" lon="8.7654">
        <ele>623</ele>
        <time>2021-08-05T13:40:48.099Z</time>
      </trkpt>
      <trkpt lat="46.97412" lon="8.76541">
        <ele>623</ele>
        <time>2021-08-05T13:40:49.100Z</time>
      </trkpt>
      <trkpt lat="46.97412" lon="8.76542">
        <ele>624</ele>
        <time>2021-08-05T13:40:50.100Z</time>
      </trkpt>
      <trkpt lat="46.97412" lon="8.76543">
        <ele>624</ele>
        <time>2021-08-05T13:40:51.100Z</time>
      </trkpt>
      <trkpt lat="46.97412" lon="8.76544">
        <ele>625</ele>
        <time>2021-08-05T13:40:52.100Z</time>
      </trkpt>
      <trkpt lat="46.97411" lon="8.76546">
        <ele>625</ele>
        <time>2021-08-05T13:40:53.100Z</time>
      </trkpt>
      <trkpt lat="46.97411" lon="8.76547">
        <ele>625</ele>
        <time>2021-08-05T13:40:54.100Z</time>
      </trkpt>
      <trkpt lat="46.97411" lon="8.76549">
        <ele>626</ele>
        <time>2021-08-05T13:40:55.100Z</time>
      </trkpt>
      <trkpt lat="46.97411" lon="8.7655">
        <ele>626</ele>
        <time>2021-08-05T13:40:56.100Z</time>
      </trkpt>
      <trkpt lat="46.9741" lon="8.76551">
        <ele>626</ele>
        <time>2021-08-05T13:40:57.100Z</time>
      </trkpt>
      <trkpt lat="46.9741" lon="8.76551">
        <ele>627</ele>
        <time>2021-08-05T13:40:58.100Z</time>
      </trkpt>
      <trkpt lat="46.9741" lon="8.76552">
        <ele>627</ele>
        <time>2021-08-05T13:40:59.099Z</time>
      </trkpt>
      <trkpt lat="46.97411" lon="8.76557">
        <ele>624</ele>
        <time>2021-08-05T13:41:00.099Z</time>
      </trkpt>
      <trkpt lat="46.97411" lon="8.76559">
        <ele>623</ele>
        <time>2021-08-05T13:41:01.099Z</time>
      </trkpt>
      <trkpt lat="46.97411" lon="8.7656">
        <ele>623</ele>
        <time>2021-08-05T13:41:02.099Z</time>
      </trkpt>
      <trkpt lat="46.97411" lon="8.76562">
        <ele>623</ele>
        <time>2021-08-05T13:41:03.099Z</time>
      </trkpt>
      <trkpt lat="46.97411" lon="8.76564">
        <ele>623</ele>
        <time>2021-08-05T13:41:04.099Z</time>
      </trkpt>
      <trkpt lat="46.97411" lon="8.76565">
        <ele>623</ele>
        <time>2021-08-05T13:41:05.099Z</time>
      </trkpt>
      <trkpt lat="46.97411" lon="8.76566">
        <ele>623</ele>
        <time>2021-08-05T13:41:06.100Z</time>
      </trkpt>
      <trkpt lat="46.97411" lon="8.76568">
        <ele>622</ele>
        <time>2021-08-05T13:41:07.099Z</time>
      </trkpt>
      <trkpt lat="46.97411" lon="8.76568">
        <ele>622</ele>
        <time>2021-08-05T13:41:08.100Z</time>
      </trkpt>
      <trkpt lat="46.97411" lon="8.7657">
        <ele>622</ele>
        <time>2021-08-05T13:41:09.099Z</time>
      </trkpt>
      <trkpt lat="46.97411" lon="8.76571">
        <ele>622</ele>
        <time>2021-08-05T13:41:10.099Z</time>
      </trkpt>
      <trkpt lat="46.9741" lon="8.76572">
        <ele>622</ele>
        <time>2021-08-05T13:41:11.099Z</time>
      </trkpt>
      <trkpt lat="46.9741" lon="8.76573">
        <ele>622</ele>
        <time>2021-08-05T13:41:12.099Z</time>
      </trkpt>
      <trkpt lat="46.97409" lon="8.76575">
        <ele>622</ele>
        <time>2021-08-05T13:41:13.099Z</time>
      </trkpt>
      <trkpt lat="46.97409" lon="8.76576">
        <ele>623</ele>
        <time>2021-08-05T13:41:14.099Z</time>
      </trkpt>
      <trkpt lat="46.97408" lon="8.76577">
        <ele>623</ele>
        <time>2021-08-05T13:41:15.099Z</time>
      </trkpt>
      <trkpt lat="46.97408" lon="8.76578">
        <ele>624</ele>
        <time>2021-08-05T13:41:16.100Z</time>
      </trkpt>
      <trkpt lat="46.97408" lon="8.76579">
        <ele>624</ele>
        <time>2021-08-05T13:41:17.100Z</time>
      </trkpt>
      <trkpt lat="46.97407" lon="8.7658">
        <ele>625</ele>
        <time>2021-08-05T13:41:18.100Z</time>
      </trkpt>
      <trkpt lat="46.97407" lon="8.76581">
        <ele>625</ele>
        <time>2021-08-05T13:41:19.100Z</time>
      </trkpt>
      <trkpt lat="46.97407" lon="8.76582">
        <ele>626</ele>
        <time>2021-08-05T13:41:20.099Z</time>
      </trkpt>
      <trkpt lat="46.97407" lon="8.76583">
        <ele>626</ele>
        <time>2021-08-05T13:41:21.099Z</time>
      </trkpt>
      <trkpt lat="46.97406" lon="8.76584">
        <ele>626</ele>
        <time>2021-08-05T13:41:22.099Z</time>
      </trkpt>
      <trkpt lat="46.97406" lon="8.76585">
        <ele>626</ele>
        <time>2021-08-05T13:41:23.099Z</time>
      </trkpt>
      <trkpt lat="46.97405" lon="8.76586">
        <ele>626</ele>
        <time>2021-08-05T13:41:24.099Z</time>
      </trkpt>
      <trkpt lat="46.97405" lon="8.76587">
        <ele>626</ele>
        <time>2021-08-05T13:41:25.099Z</time>
      </trkpt>
      <trkpt lat="46.97405" lon="8.76589">
        <ele>625</ele>
        <time>2021-08-05T13:41:26.099Z</time>
      </trkpt>
      <trkpt lat="46.97404" lon="8.76591">
        <ele>625</ele>
        <time>2021-08-05T13:41:27.099Z</time>
      </trkpt>
      <trkpt lat="46.97403" lon="8.76592">
        <ele>625</ele>
        <time>2021-08-05T13:41:28.099Z</time>
      </trkpt>
      <trkpt lat="46.97403" lon="8.76594">
        <ele>625</ele>
        <time>2021-08-05T13:41:29.099Z</time>
      </trkpt>
      <trkpt lat="46.97403" lon="8.76596">
        <ele>625</ele>
        <time>2021-08-05T13:41:30.099Z</time>
      </trkpt>
      <trkpt lat="46.97403" lon="8.76597">
        <ele>625</ele>
        <time>2021-08-05T13:41:31.100Z</time>
      </trkpt>
      <trkpt lat="46.97402" lon="8.76599">
        <ele>626</ele>
        <time>2021-08-05T13:41:32.099Z</time>
      </trkpt>
      <trkpt lat="46.97401" lon="8.766">
        <ele>625</ele>
        <time>2021-08-05T13:41:33.099Z</time>
      </trkpt>
      <trkpt lat="46.974" lon="8.76601">
        <ele>625</ele>
        <time>2021-08-05T13:41:34.099Z</time>
      </trkpt>
      <trkpt lat="46.974" lon="8.76601">
        <ele>625</ele>
        <time>2021-08-05T13:41:35.099Z</time>
      </trkpt>
      <trkpt lat="46.974" lon="8.76603">
        <ele>625</ele>
        <time>2021-08-05T13:41:36.099Z</time>
      </trkpt>
      <trkpt lat="46.97399" lon="8.76605">
        <ele>626</ele>
        <time>2021-08-05T13:41:37.099Z</time>
      </trkpt>
      <trkpt lat="46.97399" lon="8.76606">
        <ele>626</ele>
        <time>2021-08-05T13:41:38.099Z</time>
      </trkpt>
      <trkpt lat="46.97399" lon="8.76607">
        <ele>626</ele>
        <time>2021-08-05T13:41:39.099Z</time>
      </trkpt>
      <trkpt lat="46.97398" lon="8.76609">
        <ele>626</ele>
        <time>2021-08-05T13:41:40.099Z</time>
      </trkpt>
      <trkpt lat="46.97398" lon="8.7661">
        <ele>627</ele>
        <time>2021-08-05T13:41:41.100Z</time>
      </trkpt>
      <trkpt lat="46.97397" lon="8.76611">
        <ele>627</ele>
        <time>2021-08-05T13:41:42.100Z</time>
      </trkpt>
      <trkpt lat="46.97397" lon="8.76612">
        <ele>628</ele>
        <time>2021-08-05T13:41:43.100Z</time>
      </trkpt>
      <trkpt lat="46.97397" lon="8.76614">
        <ele>628</ele>
        <time>2021-08-05T13:41:44.100Z</time>
      </trkpt>
      <trkpt lat="46.97397" lon="8.76615">
        <ele>628</ele>
        <time>2021-08-05T13:41:45.100Z</time>
      </trkpt>
      <trkpt lat="46.97398" lon="8.76616">
        <ele>628</ele>
        <time>2021-08-05T13:41:46.100Z</time>
      </trkpt>
      <trkpt lat="46.97397" lon="8.76617">
        <ele>629</ele>
        <time>2021-08-05T13:41:47.100Z</time>
      </trkpt>
      <trkpt lat="46.97397" lon="8.76618">
        <ele>628</ele>
        <time>2021-08-05T13:41:48.099Z</time>
      </trkpt>
      <trkpt lat="46.97397" lon="8.7662">
        <ele>628</ele>
        <time>2021-08-05T13:41:49.099Z</time>
      </trkpt>
      <trkpt lat="46.97397" lon="8.76622">
        <ele>627</ele>
        <time>2021-08-05T13:41:50.099Z</time>
      </trkpt>
      <trkpt lat="46.97396" lon="8.76624">
        <ele>627</ele>
        <time>2021-08-05T13:41:51.100Z</time>
      </trkpt>
      <trkpt lat="46.97396" lon="8.76625">
        <ele>627</ele>
        <time>2021-08-05T13:41:52.099Z</time>
      </trkpt>
      <trkpt lat="46.97395" lon="8.76626">
        <ele>627</ele>
        <time>2021-08-05T13:41:53.100Z</time>
      </trkpt>
      <trkpt lat="46.97395" lon="8.76627">
        <ele>628</ele>
        <time>2021-08-05T13:41:54.100Z</time>
      </trkpt>
      <trkpt lat="46.97395" lon="8.76627">
        <ele>628</ele>
        <time>2021-08-05T13:41:55.099Z</time>
      </trkpt>
      <trkpt lat="46.97394" lon="8.76629">
        <ele>628</ele>
        <time>2021-08-05T13:41:56.099Z</time>
      </trkpt>
      <trkpt lat="46.97394" lon="8.7663">
        <ele>627</ele>
        <time>2021-08-05T13:41:57.099Z</time>
      </trkpt>
      <trkpt lat="46.97394" lon="8.76632">
        <ele>627</ele>
        <time>2021-08-05T13:41:58.100Z</time>
      </trkpt>
      <trkpt lat="46.97393" lon="8.76633">
        <ele>627</ele>
        <time>2021-08-05T13:41:59.099Z</time>
      </trkpt>
      <trkpt lat="46.97393" lon="8.76635">
        <ele>627</ele>
        <time>2021-08-05T13:42:00.099Z</time>
      </trkpt>
      <trkpt lat="46.97393" lon="8.76636">
        <ele>628</ele>
        <time>2021-08-05T13:42:01.100Z</time>
      </trkpt>
      <trkpt lat="46.97393" lon="8.76636">
        <ele>628</ele>
        <time>2021-08-05T13:42:02.099Z</time>
      </trkpt>
      <trkpt lat="46.97392" lon="8.76637">
        <ele>628</ele>
        <time>2021-08-05T13:42:03.099Z</time>
      </trkpt>
      <trkpt lat="46.97392" lon="8.76638">
        <ele>628</ele>
        <time>2021-08-05T13:42:04.099Z</time>
      </trkpt>
      <trkpt lat="46.97391" lon="8.7664">
        <ele>629</ele>
        <time>2021-08-05T13:42:05.099Z</time>
      </trkpt>
      <trkpt lat="46.97391" lon="8.76641">
        <ele>629</ele>
        <time>2021-08-05T13:42:06.099Z</time>
      </trkpt>
      <trkpt lat="46.97391" lon="8.76642">
        <ele>629</ele>
        <time>2021-08-05T13:42:07.100Z</time>
      </trkpt>
      <trkpt lat="46.9739" lon="8.76644">
        <ele>629</ele>
        <time>2021-08-05T13:42:08.099Z</time>
      </trkpt>
      <trkpt lat="46.97389" lon="8.76646">
        <ele>629</ele>
        <time>2021-08-05T13:42:09.100Z</time>
      </trkpt>
      <trkpt lat="46.97389" lon="8.76647">
        <ele>629</ele>
        <time>2021-08-05T13:42:10.099Z</time>
      </trkpt>
      <trkpt lat="46.97388" lon="8.76648">
        <ele>629</ele>
        <time>2021-08-05T13:42:11.099Z</time>
      </trkpt>
      <trkpt lat="46.97388" lon="8.76649">
        <ele>628</ele>
        <time>2021-08-05T13:42:12.099Z</time>
      </trkpt>
      <trkpt lat="46.97387" lon="8.76651">
        <ele>628</ele>
        <time>2021-08-05T13:42:13.100Z</time>
      </trkpt>
      <trkpt lat="46.97387" lon="8.76652">
        <ele>628</ele>
        <time>2021-08-05T13:42:14.099Z</time>
      </trkpt>
      <trkpt lat="46.97386" lon="8.76653">
        <ele>627</ele>
        <time>2021-08-05T13:42:15.099Z</time>
      </trkpt>
      <trkpt lat="46.97386" lon="8.76655">
        <ele>627</ele>
        <time>2021-08-05T13:42:16.099Z</time>
      </trkpt>
      <trkpt lat="46.97386" lon="8.76656">
        <ele>627</ele>
        <time>2021-08-05T13:42:17.099Z</time>
      </trkpt>
      <trkpt lat="46.97385" lon="8.76657">
        <ele>626</ele>
        <time>2021-08-05T13:42:18.100Z</time>
      </trkpt>
      <trkpt lat="46.97384" lon="8.76659">
        <ele>626</ele>
        <time>2021-08-05T13:42:19.099Z</time>
      </trkpt>
      <trkpt lat="46.97383" lon="8.7666">
        <ele>627</ele>
        <time>2021-08-05T13:42:20.099Z</time>
      </trkpt>
      <trkpt lat="46.97383" lon="8.76661">
        <ele>627</ele>
        <time>2021-08-05T13:42:21.100Z</time>
      </trkpt>
      <trkpt lat="46.97382" lon="8.76663">
        <ele>627</ele>
        <time>2021-08-05T13:42:22.100Z</time>
      </trkpt>
      <trkpt lat="46.97381" lon="8.76664">
        <ele>627</ele>
        <time>2021-08-05T13:42:23.100Z</time>
      </trkpt>
      <trkpt lat="46.97381" lon="8.76665">
        <ele>627</ele>
        <time>2021-08-05T13:42:24.099Z</time>
      </trkpt>
      <trkpt lat="46.97381" lon="8.76667">
        <ele>628</ele>
        <time>2021-08-05T13:42:25.099Z</time>
      </trkpt>
      <trkpt lat="46.9738" lon="8.76668">
        <ele>628</ele>
        <time>2021-08-05T13:42:26.099Z</time>
      </trkpt>
      <trkpt lat="46.9738" lon="8.7667">
        <ele>628</ele>
        <time>2021-08-05T13:42:27.100Z</time>
      </trkpt>
      <trkpt lat="46.97379" lon="8.76671">
        <ele>628</ele>
        <time>2021-08-05T13:42:28.100Z</time>
      </trkpt>
      <trkpt lat="46.97379" lon="8.76672">
        <ele>628</ele>
        <time>2021-08-05T13:42:29.100Z</time>
      </trkpt>
      <trkpt lat="46.97378" lon="8.76674">
        <ele>627</ele>
        <time>2021-08-05T13:42:30.099Z</time>
      </trkpt>
      <trkpt lat="46.97377" lon="8.76675">
        <ele>627</ele>
        <time>2021-08-05T13:42:31.099Z</time>
      </trkpt>
      <trkpt lat="46.97377" lon="8.76677">
        <ele>628</ele>
        <time>2021-08-05T13:42:32.100Z</time>
      </trkpt>
      <trkpt lat="46.97377" lon="8.76679">
        <ele>628</ele>
        <time>2021-08-05T13:42:33.099Z</time>
      </trkpt>
      <trkpt lat="46.97376" lon="8.7668">
        <ele>628</ele>
        <time>2021-08-05T13:42:34.099Z</time>
      </trkpt>
      <trkpt lat="46.97376" lon="8.76681">
        <ele>628</ele>
        <time>2021-08-05T13:42:35.099Z</time>
      </trkpt>
      <trkpt lat="46.97376" lon="8.76683">
        <ele>628</ele>
        <time>2021-08-05T13:42:36.100Z</time>
      </trkpt>
      <trkpt lat="46.97375" lon="8.76684">
        <ele>628</ele>
        <time>2021-08-05T13:42:37.099Z</time>
      </trkpt>
      <trkpt lat="46.97375" lon="8.76685">
        <ele>627</ele>
        <time>2021-08-05T13:42:38.100Z</time>
      </trkpt>
      <trkpt lat="46.97374" lon="8.76687">
        <ele>627</ele>
        <time>2021-08-05T13:42:39.099Z</time>
      </trkpt>
      <trkpt lat="46.97374" lon="8.76688">
        <ele>626</ele>
        <time>2021-08-05T13:42:40.100Z</time>
      </trkpt>
      <trkpt lat="46.97373" lon="8.76689">
        <ele>626</ele>
        <time>2021-08-05T13:42:41.100Z</time>
      </trkpt>
      <trkpt lat="46.97372" lon="8.7669">
        <ele>626</ele>
        <time>2021-08-05T13:42:42.100Z</time>
      </trkpt>
      <trkpt lat="46.97371" lon="8.76691">
        <ele>626</ele>
        <time>2021-08-05T13:42:43.099Z</time>
      </trkpt>
      <trkpt lat="46.97371" lon="8.76692">
        <ele>626</ele>
        <time>2021-08-05T13:42:44.099Z</time>
      </trkpt>
      <trkpt lat="46.9737" lon="8.76693">
        <ele>627</ele>
        <time>2021-08-05T13:42:45.099Z</time>
      </trkpt>
      <trkpt lat="46.9737" lon="8.76695">
        <ele>627</ele>
        <time>2021-08-05T13:42:46.099Z</time>
      </trkpt>
      <trkpt lat="46.97369" lon="8.76697">
        <ele>627</ele>
        <time>2021-08-05T13:42:47.099Z</time>
      </trkpt>
      <trkpt lat="46.97369" lon="8.76698">
        <ele>627</ele>
        <time>2021-08-05T13:42:48.100Z</time>
      </trkpt>
      <trkpt lat="46.97369" lon="8.767">
        <ele>627</ele>
        <time>2021-08-05T13:42:49.099Z</time>
      </trkpt>
      <trkpt lat="46.97369" lon="8.76702">
        <ele>627</ele>
        <time>2021-08-05T13:42:50.099Z</time>
      </trkpt>
      <trkpt lat="46.97368" lon="8.76703">
        <ele>627</ele>
        <time>2021-08-05T13:42:51.099Z</time>
      </trkpt>
      <trkpt lat="46.97367" lon="8.76704">
        <ele>628</ele>
        <time>2021-08-05T13:42:52.100Z</time>
      </trkpt>
      <trkpt lat="46.97366" lon="8.76705">
        <ele>628</ele>
        <time>2021-08-05T13:42:53.099Z</time>
      </trkpt>
      <trkpt lat="46.97366" lon="8.76706">
        <ele>628</ele>
        <time>2021-08-05T13:42:54.099Z</time>
      </trkpt>
      <trkpt lat="46.97366" lon="8.76708">
        <ele>628</ele>
        <time>2021-08-05T13:42:55.099Z</time>
      </trkpt>
      <trkpt lat="46.97366" lon="8.76709">
        <ele>628</ele>
        <time>2021-08-05T13:42:56.100Z</time>
      </trkpt>
      <trkpt lat="46.97366" lon="8.7671">
        <ele>628</ele>
        <time>2021-08-05T13:42:57.099Z</time>
      </trkpt>
      <trkpt lat="46.97366" lon="8.76712">
        <ele>627</ele>
        <time>2021-08-05T13:42:58.099Z</time>
      </trkpt>
      <trkpt lat="46.97365" lon="8.76713">
        <ele>627</ele>
        <time>2021-08-05T13:42:59.100Z</time>
      </trkpt>
      <trkpt lat="46.97365" lon="8.76715">
        <ele>626</ele>
        <time>2021-08-05T13:43:00.100Z</time>
      </trkpt>
      <trkpt lat="46.97365" lon="8.76716">
        <ele>626</ele>
        <time>2021-08-05T13:43:01.100Z</time>
      </trkpt>
      <trkpt lat="46.97364" lon="8.76717">
        <ele>626</ele>
        <time>2021-08-05T13:43:02.099Z</time>
      </trkpt>
      <trkpt lat="46.97363" lon="8.76719">
        <ele>627</ele>
        <time>2021-08-05T13:43:03.100Z</time>
      </trkpt>
      <trkpt lat="46.97363" lon="8.7672">
        <ele>627</ele>
        <time>2021-08-05T13:43:04.100Z</time>
      </trkpt>
      <trkpt lat="46.97362" lon="8.76721">
        <ele>628</ele>
        <time>2021-08-05T13:43:05.099Z</time>
      </trkpt>
      <trkpt lat="46.97362" lon="8.76722">
        <ele>628</ele>
        <time>2021-08-05T13:43:06.099Z</time>
      </trkpt>
      <trkpt lat="46.97362" lon="8.76724">
        <ele>629</ele>
        <time>2021-08-05T13:43:07.099Z</time>
      </trkpt>
      <trkpt lat="46.97361" lon="8.76724">
        <ele>629</ele>
        <time>2021-08-05T13:43:08.099Z</time>
      </trkpt>
      <trkpt lat="46.9736" lon="8.76726">
        <ele>630</ele>
        <time>2021-08-05T13:43:09.099Z</time>
      </trkpt>
      <trkpt lat="46.9736" lon="8.76727">
        <ele>630</ele>
        <time>2021-08-05T13:43:10.099Z</time>
      </trkpt>
      <trkpt lat="46.97359" lon="8.76728">
        <ele>631</ele>
        <time>2021-08-05T13:43:11.099Z</time>
      </trkpt>
      <trkpt lat="46.97358" lon="8.76729">
        <ele>631</ele>
        <time>2021-08-05T13:43:12.100Z</time>
      </trkpt>
      <trkpt lat="46.97358" lon="8.7673">
        <ele>631</ele>
        <time>2021-08-05T13:43:13.100Z</time>
      </trkpt>
      <trkpt lat="46.97357" lon="8.76732">
        <ele>631</ele>
        <time>2021-08-05T13:43:14.099Z</time>
      </trkpt>
      <trkpt lat="46.97357" lon="8.76733">
        <ele>631</ele>
        <time>2021-08-05T13:43:15.100Z</time>
      </trkpt>
      <trkpt lat="46.97356" lon="8.76735">
        <ele>631</ele>
        <time>2021-08-05T13:43:16.099Z</time>
      </trkpt>
      <trkpt lat="46.97356" lon="8.76736">
        <ele>631</ele>
        <time>2021-08-05T13:43:17.099Z</time>
      </trkpt>
      <trkpt lat="46.97355" lon="8.76738">
        <ele>630</ele>
        <time>2021-08-05T13:43:18.099Z</time>
      </trkpt>
      <trkpt lat="46.97355" lon="8.76739">
        <ele>629</ele>
        <time>2021-08-05T13:43:19.099Z</time>
      </trkpt>
      <trkpt lat="46.97354" lon="8.7674">
        <ele>629</ele>
        <time>2021-08-05T13:43:20.099Z</time>
      </trkpt>
      <trkpt lat="46.97354" lon="8.76741">
        <ele>628</ele>
        <time>2021-08-05T13:43:21.099Z</time>
      </trkpt>
      <trkpt lat="46.97354" lon="8.76743">
        <ele>628</ele>
        <time>2021-08-05T13:43:22.099Z</time>
      </trkpt>
      <trkpt lat="46.97354" lon="8.76745">
        <ele>627</ele>
        <time>2021-08-05T13:43:23.100Z</time>
      </trkpt>
      <trkpt lat="46.97354" lon="8.76747">
        <ele>627</ele>
        <time>2021-08-05T13:43:24.100Z</time>
      </trkpt>
      <trkpt lat="46.97353" lon="8.76748">
        <ele>626</ele>
        <time>2021-08-05T13:43:25.099Z</time>
      </trkpt>
      <trkpt lat="46.97352" lon="8.76749">
        <ele>626</ele>
        <time>2021-08-05T13:43:26.099Z</time>
      </trkpt>
      <trkpt lat="46.97352" lon="8.7675">
        <ele>626</ele>
        <time>2021-08-05T13:43:27.100Z</time>
      </trkpt>
      <trkpt lat="46.97351" lon="8.76751">
        <ele>626</ele>
        <time>2021-08-05T13:43:28.099Z</time>
      </trkpt>
      <trkpt lat="46.9735" lon="8.76753">
        <ele>626</ele>
        <time>2021-08-05T13:43:29.099Z</time>
      </trkpt>
      <trkpt lat="46.97349" lon="8.76755">
        <ele>627</ele>
        <time>2021-08-05T13:43:30.099Z</time>
      </trkpt>
      <trkpt lat="46.97349" lon="8.76757">
        <ele>627</ele>
        <time>2021-08-05T13:43:31.099Z</time>
      </trkpt>
      <trkpt lat="46.97349" lon="8.76759">
        <ele>627</ele>
        <time>2021-08-05T13:43:32.100Z</time>
      </trkpt>
      <trkpt lat="46.97349" lon="8.7676">
        <ele>627</ele>
        <time>2021-08-05T13:43:33.099Z</time>
      </trkpt>
      <trkpt lat="46.97348" lon="8.76762">
        <ele>627</ele>
        <time>2021-08-05T13:43:34.099Z</time>
      </trkpt>
      <trkpt lat="46.97347" lon="8.76763">
        <ele>626</ele>
        <time>2021-08-05T13:43:35.099Z</time>
      </trkpt>
      <trkpt lat="46.97347" lon="8.76764">
        <ele>626</ele>
        <time>2021-08-05T13:43:36.099Z</time>
      </trkpt>
      <trkpt lat="46.97346" lon="8.76765">
        <ele>626</ele>
        <time>2021-08-05T13:43:37.099Z</time>
      </trkpt>
      <trkpt lat="46.97345" lon="8.76766">
        <ele>626</ele>
        <time>2021-08-05T13:43:38.100Z</time>
      </trkpt>
      <trkpt lat="46.97345" lon="8.76768">
        <ele>626</ele>
        <time>2021-08-05T13:43:39.099Z</time>
      </trkpt>
      <trkpt lat="46.97344" lon="8.76769">
        <ele>626</ele>
        <time>2021-08-05T13:43:40.099Z</time>
      </trkpt>
      <trkpt lat="46.97343" lon="8.76771">
        <ele>626</ele>
        <time>2021-08-05T13:43:41.100Z</time>
      </trkpt>
      <trkpt lat="46.97342" lon="8.76772">
        <ele>626</ele>
        <time>2021-08-05T13:43:42.099Z</time>
      </trkpt>
      <trkpt lat="46.97342" lon="8.76774">
        <ele>626</ele>
        <time>2021-08-05T13:43:43.099Z</time>
      </trkpt>
      <trkpt lat="46.97341" lon="8.76775">
        <ele>626</ele>
        <time>2021-08-05T13:43:44.099Z</time>
      </trkpt>
      <trkpt lat="46.9734" lon="8.76776">
        <ele>626</ele>
        <time>2021-08-05T13:43:45.099Z</time>
      </trkpt>
      <trkpt lat="46.97339" lon="8.76777">
        <ele>627</ele>
        <time>2021-08-05T13:43:46.099Z</time>
      </trkpt>
      <trkpt lat="46.97339" lon="8.76779">
        <ele>627</ele>
        <time>2021-08-05T13:43:47.099Z</time>
      </trkpt>
      <trkpt lat="46.97338" lon="8.7678">
        <ele>628</ele>
        <time>2021-08-05T13:43:48.099Z</time>
      </trkpt>
      <trkpt lat="46.97338" lon="8.76781">
        <ele>628</ele>
        <time>2021-08-05T13:43:49.100Z</time>
      </trkpt>
      <trkpt lat="46.97337" lon="8.76783">
        <ele>628</ele>
        <time>2021-08-05T13:43:50.099Z</time>
      </trkpt>
      <trkpt lat="46.97336" lon="8.76784">
        <ele>628</ele>
        <time>2021-08-05T13:43:51.099Z</time>
      </trkpt>
      <trkpt lat="46.97336" lon="8.76784">
        <ele>628</ele>
        <time>2021-08-05T13:43:52.099Z</time>
      </trkpt>
      <trkpt lat="46.97335" lon="8.76786">
        <ele>628</ele>
        <time>2021-08-05T13:43:53.100Z</time>
      </trkpt>
      <trkpt lat="46.97335" lon="8.76787">
        <ele>628</ele>
        <time>2021-08-05T13:43:54.099Z</time>
      </trkpt>
      <trkpt lat="46.97335" lon="8.76789">
        <ele>629</ele>
        <time>2021-08-05T13:43:55.100Z</time>
      </trkpt>
      <trkpt lat="46.97335" lon="8.76791">
        <ele>629</ele>
        <time>2021-08-05T13:43:56.099Z</time>
      </trkpt>
      <trkpt lat="46.97334" lon="8.76792">
        <ele>629</ele>
        <time>2021-08-05T13:43:57.100Z</time>
      </trkpt>
      <trkpt lat="46.97334" lon="8.76794">
        <ele>628</ele>
        <time>2021-08-05T13:43:58.100Z</time>
      </trkpt>
      <trkpt lat="46.97334" lon="8.76796">
        <ele>628</ele>
        <time>2021-08-05T13:43:59.099Z</time>
      </trkpt>
      <trkpt lat="46.97333" lon="8.76797">
        <ele>629</ele>
        <time>2021-08-05T13:44:00.099Z</time>
      </trkpt>
      <trkpt lat="46.97332" lon="8.76798">
        <ele>629</ele>
        <time>2021-08-05T13:44:01.099Z</time>
      </trkpt>
      <trkpt lat="46.97331" lon="8.76799">
        <ele>628</ele>
        <time>2021-08-05T13:44:02.099Z</time>
      </trkpt>
      <trkpt lat="46.9733" lon="8.76801">
        <ele>629</ele>
        <time>2021-08-05T13:44:03.100Z</time>
      </trkpt>
      <trkpt lat="46.97329" lon="8.76803">
        <ele>629</ele>
        <time>2021-08-05T13:44:04.099Z</time>
      </trkpt>
      <trkpt lat="46.97328" lon="8.76804">
        <ele>629</ele>
        <time>2021-08-05T13:44:05.099Z</time>
      </trkpt>
      <trkpt lat="46.97328" lon="8.76806">
        <ele>628</ele>
        <time>2021-08-05T13:44:06.100Z</time>
      </trkpt>
      <trkpt lat="46.97327" lon="8.76807">
        <ele>628</ele>
        <time>2021-08-05T13:44:07.099Z</time>
      </trkpt>
      <trkpt lat="46.97326" lon="8.76807">
        <ele>628</ele>
        <time>2021-08-05T13:44:08.100Z</time>
      </trkpt>
      <trkpt lat="46.97325" lon="8.76809">
        <ele>628</ele>
        <time>2021-08-05T13:44:09.099Z</time>
      </trkpt>
      <trkpt lat="46.97324" lon="8.7681">
        <ele>628</ele>
        <time>2021-08-05T13:44:10.099Z</time>
      </trkpt>
      <trkpt lat="46.97324" lon="8.76812">
        <ele>628</ele>
        <time>2021-08-05T13:44:11.100Z</time>
      </trkpt>
      <trkpt lat="46.97323" lon="8.76813">
        <ele>628</ele>
        <time>2021-08-05T13:44:12.100Z</time>
      </trkpt>
      <trkpt lat="46.97322" lon="8.76815">
        <ele>629</ele>
        <time>2021-08-05T13:44:13.099Z</time>
      </trkpt>
      <trkpt lat="46.97322" lon="8.76816">
        <ele>629</ele>
        <time>2021-08-05T13:44:14.100Z</time>
      </trkpt>
      <trkpt lat="46.97321" lon="8.76818">
        <ele>630</ele>
        <time>2021-08-05T13:44:15.100Z</time>
      </trkpt>
      <trkpt lat="46.9732" lon="8.76819">
        <ele>630</ele>
        <time>2021-08-05T13:44:16.099Z</time>
      </trkpt>
      <trkpt lat="46.9732" lon="8.7682">
        <ele>631</ele>
        <time>2021-08-05T13:44:17.099Z</time>
      </trkpt>
      <trkpt lat="46.97319" lon="8.76822">
        <ele>631</ele>
        <time>2021-08-05T13:44:18.099Z</time>
      </trkpt>
      <trkpt lat="46.97319" lon="8.76823">
        <ele>631</ele>
        <time>2021-08-05T13:44:19.099Z</time>
      </trkpt>
      <trkpt lat="46.97318" lon="8.76825">
        <ele>632</ele>
        <time>2021-08-05T13:44:20.099Z</time>
      </trkpt>
      <trkpt lat="46.97317" lon="8.76826">
        <ele>632</ele>
        <time>2021-08-05T13:44:25.107Z</time>
      </trkpt>
      <trkpt lat="46.97317" lon="8.76827">
        <ele>632</ele>
        <time>2021-08-05T13:44:26.107Z</time>
      </trkpt>
      <trkpt lat="46.97316" lon="8.76828">
        <ele>632</ele>
        <time>2021-08-05T13:44:27.108Z</time>
      </trkpt>
      <trkpt lat="46.97315" lon="8.76829">
        <ele>632</ele>
        <time>2021-08-05T13:44:28.108Z</time>
      </trkpt>
      <trkpt lat="46.97315" lon="8.7683">
        <ele>632</ele>
        <time>2021-08-05T13:44:29.108Z</time>
      </trkpt>
      <trkpt lat="46.97314" lon="8.76831">
        <ele>632</ele>
        <time>2021-08-05T13:44:30.108Z</time>
      </trkpt>
      <trkpt lat="46.97313" lon="8.76833">
        <ele>632</ele>
        <time>2021-08-05T13:44:31.107Z</time>
      </trkpt>
      <trkpt lat="46.97312" lon="8.76834">
        <ele>632</ele>
        <time>2021-08-05T13:44:32.107Z</time>
      </trkpt>
      <trkpt lat="46.97311" lon="8.76835">
        <ele>633</ele>
        <time>2021-08-05T13:44:33.107Z</time>
      </trkpt>
      <trkpt lat="46.97311" lon="8.76836">
        <ele>633</ele>
        <time>2021-08-05T13:44:34.107Z</time>
      </trkpt>
      <trkpt lat="46.9731" lon="8.76838">
        <ele>634</ele>
        <time>2021-08-05T13:44:35.107Z</time>
      </trkpt>
      <trkpt lat="46.9731" lon="8.76839">
        <ele>634</ele>
        <time>2021-08-05T13:44:36.108Z</time>
      </trkpt>
      <trkpt lat="46.97309" lon="8.7684">
        <ele>634</ele>
        <time>2021-08-05T13:44:37.107Z</time>
      </trkpt>
      <trkpt lat="46.97309" lon="8.7684">
        <ele>634</ele>
        <time>2021-08-05T13:44:38.108Z</time>
      </trkpt>
      <trkpt lat="46.97308" lon="8.76841">
        <ele>634</ele>
        <time>2021-08-05T13:44:39.108Z</time>
      </trkpt>
      <trkpt lat="46.97308" lon="8.76842">
        <ele>634</ele>
        <time>2021-08-05T13:44:40.108Z</time>
      </trkpt>
      <trkpt lat="46.97308" lon="8.76845">
        <ele>633</ele>
        <time>2021-08-05T13:44:41.108Z</time>
      </trkpt>
      <trkpt lat="46.97308" lon="8.76849">
        <ele>632</ele>
        <time>2021-08-05T13:44:42.108Z</time>
      </trkpt>
      <trkpt lat="46.97307" lon="8.7685">
        <ele>631</ele>
        <time>2021-08-05T13:44:43.107Z</time>
      </trkpt>
      <trkpt lat="46.97307" lon="8.7685">
        <ele>631</ele>
        <time>2021-08-05T13:44:44.107Z</time>
      </trkpt>
      <trkpt lat="46.97307" lon="8.76851">
        <ele>630</ele>
        <time>2021-08-05T13:44:45.107Z</time>
      </trkpt>
      <trkpt lat="46.97307" lon="8.76857">
        <ele>625</ele>
        <time>2021-08-05T13:44:46.107Z</time>
      </trkpt>
      <trkpt lat="46.97307" lon="8.76859">
        <ele>624</ele>
        <time>2021-08-05T13:44:47.108Z</time>
      </trkpt>
      <trkpt lat="46.97308" lon="8.7686">
        <ele>623</ele>
        <time>2021-08-05T13:44:48.108Z</time>
      </trkpt>
      <trkpt lat="46.97308" lon="8.76861">
        <ele>622</ele>
        <time>2021-08-05T13:44:49.108Z</time>
      </trkpt>
      <trkpt lat="46.97308" lon="8.76862">
        <ele>621</ele>
        <time>2021-08-05T13:44:50.107Z</time>
      </trkpt>
      <trkpt lat="46.97308" lon="8.76863">
        <ele>620</ele>
        <time>2021-08-05T13:44:51.107Z</time>
      </trkpt>
      <trkpt lat="46.97308" lon="8.76863">
        <ele>620</ele>
        <time>2021-08-05T13:44:52.108Z</time>
      </trkpt>
      <trkpt lat="46.97308" lon="8.76863">
        <ele>619</ele>
        <time>2021-08-05T13:44:53.108Z</time>
      </trkpt>
      <trkpt lat="46.97308" lon="8.76863">
        <ele>618</ele>
        <time>2021-08-05T13:44:54.108Z</time>
      </trkpt>
      <trkpt lat="46.97309" lon="8.76864">
        <ele>617</ele>
        <time>2021-08-05T13:44:55.107Z</time>
      </trkpt>
      <trkpt lat="46.9731" lon="8.76864">
        <ele>617</ele>
        <time>2021-08-05T13:44:56.107Z</time>
      </trkpt>
      <trkpt lat="46.9731" lon="8.76864">
        <ele>617</ele>
        <time>2021-08-05T13:44:57.107Z</time>
      </trkpt>
      <trkpt lat="46.97311" lon="8.76864">
        <ele>618</ele>
        <time>2021-08-05T13:44:58.108Z</time>
      </trkpt>
      <trkpt lat="46.97311" lon="8.76864">
        <ele>618</ele>
        <time>2021-08-05T13:44:59.108Z</time>
      </trkpt>
      <trkpt lat="46.97312" lon="8.76864">
        <ele>619</ele>
        <time>2021-08-05T13:45:00.108Z</time>
      </trkpt>
      <trkpt lat="46.97314" lon="8.76864">
        <ele>619</ele>
        <time>2021-08-05T13:45:01.108Z</time>
      </trkpt>
      <trkpt lat="46.97315" lon="8.76865">
        <ele>620</ele>
        <time>2021-08-05T13:45:02.108Z</time>
      </trkpt>
      <trkpt lat="46.97316" lon="8.76866">
        <ele>621</ele>
        <time>2021-08-05T13:45:03.107Z</time>
      </trkpt>
      <trkpt lat="46.97316" lon="8.76865">
        <ele>622</ele>
        <time>2021-08-05T13:45:04.108Z</time>
      </trkpt>
      <trkpt lat="46.97317" lon="8.76865">
        <ele>623</ele>
        <time>2021-08-05T13:45:05.107Z</time>
      </trkpt>
      <trkpt lat="46.97319" lon="8.76866">
        <ele>623</ele>
        <time>2021-08-05T13:45:06.107Z</time>
      </trkpt>
      <trkpt lat="46.9732" lon="8.76866">
        <ele>624</ele>
        <time>2021-08-05T13:45:07.107Z</time>
      </trkpt>
      <trkpt lat="46.9732" lon="8.76866">
        <ele>624</ele>
        <time>2021-08-05T13:45:08.107Z</time>
      </trkpt>
      <trkpt lat="46.9732" lon="8.76866">
        <ele>625</ele>
        <time>2021-08-05T13:45:09.108Z</time>
      </trkpt>
      <trkpt lat="46.97321" lon="8.76865">
        <ele>625</ele>
        <time>2021-08-05T13:45:10.108Z</time>
      </trkpt>
      <trkpt lat="46.97321" lon="8.76866">
        <ele>625</ele>
        <time>2021-08-05T13:45:11.108Z</time>
      </trkpt>
      <trkpt lat="46.97322" lon="8.76866">
        <ele>625</ele>
        <time>2021-08-05T13:45:12.107Z</time>
      </trkpt>
      <trkpt lat="46.97323" lon="8.76867">
        <ele>625</ele>
        <time>2021-08-05T13:45:13.108Z</time>
      </trkpt>
      <trkpt lat="46.97324" lon="8.76867">
        <ele>625</ele>
        <time>2021-08-05T13:45:14.108Z</time>
      </trkpt>
      <trkpt lat="46.97325" lon="8.76868">
        <ele>625</ele>
        <time>2021-08-05T13:45:15.108Z</time>
      </trkpt>
      <trkpt lat="46.97325" lon="8.76868">
        <ele>624</ele>
        <time>2021-08-05T13:45:16.107Z</time>
      </trkpt>
      <trkpt lat="46.97326" lon="8.76869">
        <ele>624</ele>
        <time>2021-08-05T13:45:17.108Z</time>
      </trkpt>
      <trkpt lat="46.97326" lon="8.76869">
        <ele>624</ele>
        <time>2021-08-05T13:45:18.108Z</time>
      </trkpt>
      <trkpt lat="46.97327" lon="8.7687">
        <ele>624</ele>
        <time>2021-08-05T13:45:19.107Z</time>
      </trkpt>
      <trkpt lat="46.97328" lon="8.76872">
        <ele>624</ele>
        <time>2021-08-05T13:45:20.108Z</time>
      </trkpt>
      <trkpt lat="46.97328" lon="8.76872">
        <ele>623</ele>
        <time>2021-08-05T13:45:21.108Z</time>
      </trkpt>
      <trkpt lat="46.97328" lon="8.76872">
        <ele>623</ele>
        <time>2021-08-05T13:45:22.107Z</time>
      </trkpt>
      <trkpt lat="46.97329" lon="8.76873">
        <ele>624</ele>
        <time>2021-08-05T13:45:23.108Z</time>
      </trkpt>
      <trkpt lat="46.97329" lon="8.76873">
        <ele>624</ele>
        <time>2021-08-05T13:45:24.107Z</time>
      </trkpt>
      <trkpt lat="46.97328" lon="8.76874">
        <ele>624</ele>
        <time>2021-08-05T13:45:25.108Z</time>
      </trkpt>
      <trkpt lat="46.97328" lon="8.76874">
        <ele>624</ele>
        <time>2021-08-05T13:45:26.107Z</time>
      </trkpt>
      <trkpt lat="46.97327" lon="8.76876">
        <ele>624</ele>
        <time>2021-08-05T13:45:27.107Z</time>
      </trkpt>
      <trkpt lat="46.97327" lon="8.76878">
        <ele>624</ele>
        <time>2021-08-05T13:45:28.107Z</time>
      </trkpt>
      <trkpt lat="46.97327" lon="8.7688">
        <ele>624</ele>
        <time>2021-08-05T13:45:29.108Z</time>
      </trkpt>
      <trkpt lat="46.97326" lon="8.76881">
        <ele>623</ele>
        <time>2021-08-05T13:45:30.107Z</time>
      </trkpt>
      <trkpt lat="46.97326" lon="8.76883">
        <ele>623</ele>
        <time>2021-08-05T13:45:31.108Z</time>
      </trkpt>
      <trkpt lat="46.97325" lon="8.76883">
        <ele>622</ele>
        <time>2021-08-05T13:45:32.108Z</time>
      </trkpt>
      <trkpt lat="46.97325" lon="8.76884">
        <ele>622</ele>
        <time>2021-08-05T13:45:33.107Z</time>
      </trkpt>
      <trkpt lat="46.97325" lon="8.76885">
        <ele>622</ele>
        <time>2021-08-05T13:45:34.108Z</time>
      </trkpt>
      <trkpt lat="46.97325" lon="8.76884">
        <ele>622</ele>
        <time>2021-08-05T13:45:35.108Z</time>
      </trkpt>
      <trkpt lat="46.97324" lon="8.76885">
        <ele>622</ele>
        <time>2021-08-05T13:45:36.108Z</time>
      </trkpt>
      <trkpt lat="46.97324" lon="8.76885">
        <ele>622</ele>
        <time>2021-08-05T13:45:37.107Z</time>
      </trkpt>
      <trkpt lat="46.97323" lon="8.76886">
        <ele>621</ele>
        <time>2021-08-05T13:45:38.108Z</time>
      </trkpt>
      <trkpt lat="46.97323" lon="8.76887">
        <ele>621</ele>
        <time>2021-08-05T13:45:39.108Z</time>
      </trkpt>
      <trkpt lat="46.97322" lon="8.76889">
        <ele>621</ele>
        <time>2021-08-05T13:45:40.108Z</time>
      </trkpt>
      <trkpt lat="46.97321" lon="8.7689">
        <ele>621</ele>
        <time>2021-08-05T13:45:41.108Z</time>
      </trkpt>
      <trkpt lat="46.9732" lon="8.76891">
        <ele>621</ele>
        <time>2021-08-05T13:45:42.108Z</time>
      </trkpt>
      <trkpt lat="46.9732" lon="8.76893">
        <ele>621</ele>
        <time>2021-08-05T13:45:43.108Z</time>
      </trkpt>
      <trkpt lat="46.97319" lon="8.76894">
        <ele>621</ele>
        <time>2021-08-05T13:45:44.108Z</time>
      </trkpt>
      <trkpt lat="46.97319" lon="8.76896">
        <ele>621</ele>
        <time>2021-08-05T13:45:45.107Z</time>
      </trkpt>
      <trkpt lat="46.97319" lon="8.76897">
        <ele>621</ele>
        <time>2021-08-05T13:45:46.108Z</time>
      </trkpt>
      <trkpt lat="46.97318" lon="8.76899">
        <ele>620</ele>
        <time>2021-08-05T13:45:47.108Z</time>
      </trkpt>
      <trkpt lat="46.97318" lon="8.76901">
        <ele>620</ele>
        <time>2021-08-05T13:45:48.108Z</time>
      </trkpt>
      <trkpt lat="46.97317" lon="8.76902">
        <ele>620</ele>
        <time>2021-08-05T13:45:49.108Z</time>
      </trkpt>
      <trkpt lat="46.97317" lon="8.76904">
        <ele>620</ele>
        <time>2021-08-05T13:45:50.108Z</time>
      </trkpt>
      <trkpt lat="46.97316" lon="8.76906">
        <ele>620</ele>
        <time>2021-08-05T13:45:51.108Z</time>
      </trkpt>
      <trkpt lat="46.97316" lon="8.76908">
        <ele>620</ele>
        <time>2021-08-05T13:45:52.108Z</time>
      </trkpt>
      <trkpt lat="46.97315" lon="8.7691">
        <ele>620</ele>
        <time>2021-08-05T13:45:53.108Z</time>
      </trkpt>
      <trkpt lat="46.97315" lon="8.76911">
        <ele>620</ele>
        <time>2021-08-05T13:45:54.108Z</time>
      </trkpt>
      <trkpt lat="46.97315" lon="8.76913">
        <ele>620</ele>
        <time>2021-08-05T13:45:55.108Z</time>
      </trkpt>
      <trkpt lat="46.97314" lon="8.76914">
        <ele>620</ele>
        <time>2021-08-05T13:45:56.108Z</time>
      </trkpt>
      <trkpt lat="46.97313" lon="8.76916">
        <ele>620</ele>
        <time>2021-08-05T13:45:57.107Z</time>
      </trkpt>
      <trkpt lat="46.97313" lon="8.76917">
        <ele>620</ele>
        <time>2021-08-05T13:45:58.107Z</time>
      </trkpt>
      <trkpt lat="46.97312" lon="8.76919">
        <ele>620</ele>
        <time>2021-08-05T13:45:59.108Z</time>
      </trkpt>
      <trkpt lat="46.97311" lon="8.7692">
        <ele>620</ele>
        <time>2021-08-05T13:46:00.107Z</time>
      </trkpt>
      <trkpt lat="46.97311" lon="8.76922">
        <ele>620</ele>
        <time>2021-08-05T13:46:01.108Z</time>
      </trkpt>
      <trkpt lat="46.9731" lon="8.76923">
        <ele>620</ele>
        <time>2021-08-05T13:46:02.108Z</time>
      </trkpt>
      <trkpt lat="46.9731" lon="8.76924">
        <ele>620</ele>
        <time>2021-08-05T13:46:03.108Z</time>
      </trkpt>
      <trkpt lat="46.97309" lon="8.76925">
        <ele>621</ele>
        <time>2021-08-05T13:46:04.107Z</time>
      </trkpt>
      <trkpt lat="46.97308" lon="8.76926">
        <ele>621</ele>
        <time>2021-08-05T13:46:05.107Z</time>
      </trkpt>
      <trkpt lat="46.97308" lon="8.76928">
        <ele>622</ele>
        <time>2021-08-05T13:46:06.108Z</time>
      </trkpt>
      <trkpt lat="46.97307" lon="8.7693">
        <ele>623</ele>
        <time>2021-08-05T13:46:07.108Z</time>
      </trkpt>
      <trkpt lat="46.97307" lon="8.76931">
        <ele>624</ele>
        <time>2021-08-05T13:46:08.108Z</time>
      </trkpt>
      <trkpt lat="46.97306" lon="8.76933">
        <ele>625</ele>
        <time>2021-08-05T13:46:09.107Z</time>
      </trkpt>
      <trkpt lat="46.97305" lon="8.76934">
        <ele>626</ele>
        <time>2021-08-05T13:46:10.107Z</time>
      </trkpt>
      <trkpt lat="46.97305" lon="8.76936">
        <ele>626</ele>
        <time>2021-08-05T13:46:11.107Z</time>
      </trkpt>
      <trkpt lat="46.97305" lon="8.76937">
        <ele>627</ele>
        <time>2021-08-05T13:46:12.107Z</time>
      </trkpt>
      <trkpt lat="46.97304" lon="8.76938">
        <ele>627</ele>
        <time>2021-08-05T13:46:13.108Z</time>
      </trkpt>
      <trkpt lat="46.97304" lon="8.76939">
        <ele>628</ele>
        <time>2021-08-05T13:46:14.108Z</time>
      </trkpt>
      <trkpt lat="46.97304" lon="8.7694">
        <ele>628</ele>
        <time>2021-08-05T13:46:15.108Z</time>
      </trkpt>
      <trkpt lat="46.97304" lon="8.76941">
        <ele>628</ele>
        <time>2021-08-05T13:46:16.107Z</time>
      </trkpt>
      <trkpt lat="46.97304" lon="8.76942">
        <ele>628</ele>
        <time>2021-08-05T13:46:17.108Z</time>
      </trkpt>
      <trkpt lat="46.97303" lon="8.76944">
        <ele>628</ele>
        <time>2021-08-05T13:46:18.107Z</time>
      </trkpt>
      <trkpt lat="46.97303" lon="8.76945">
        <ele>628</ele>
        <time>2021-08-05T13:46:19.107Z</time>
      </trkpt>
      <trkpt lat="46.97303" lon="8.76946">
        <ele>628</ele>
        <time>2021-08-05T13:46:20.108Z</time>
      </trkpt>
      <trkpt lat="46.97302" lon="8.76948">
        <ele>628</ele>
        <time>2021-08-05T13:46:21.108Z</time>
      </trkpt>
      <trkpt lat="46.97302" lon="8.76949">
        <ele>629</ele>
        <time>2021-08-05T13:46:22.108Z</time>
      </trkpt>
      <trkpt lat="46.97301" lon="8.7695">
        <ele>629</ele>
        <time>2021-08-05T13:46:23.108Z</time>
      </trkpt>
      <trkpt lat="46.97301" lon="8.76952">
        <ele>629</ele>
        <time>2021-08-05T13:46:24.108Z</time>
      </trkpt>
      <trkpt lat="46.97301" lon="8.76954">
        <ele>629</ele>
        <time>2021-08-05T13:46:25.108Z</time>
      </trkpt>
      <trkpt lat="46.973" lon="8.76955">
        <ele>629</ele>
        <time>2021-08-05T13:46:26.107Z</time>
      </trkpt>
      <trkpt lat="46.973" lon="8.76957">
        <ele>630</ele>
        <time>2021-08-05T13:46:27.107Z</time>
      </trkpt>
      <trkpt lat="46.973" lon="8.76958">
        <ele>630</ele>
        <time>2021-08-05T13:46:28.107Z</time>
      </trkpt>
      <trkpt lat="46.97299" lon="8.7696">
        <ele>630</ele>
        <time>2021-08-05T13:46:29.108Z</time>
      </trkpt>
      <trkpt lat="46.97299" lon="8.76962">
        <ele>629</ele>
        <time>2021-08-05T13:46:30.108Z</time>
      </trkpt>
      <trkpt lat="46.97299" lon="8.76963">
        <ele>629</ele>
        <time>2021-08-05T13:46:31.108Z</time>
      </trkpt>
      <trkpt lat="46.97299" lon="8.76965">
        <ele>629</ele>
        <time>2021-08-05T13:46:32.108Z</time>
      </trkpt>
      <trkpt lat="46.97298" lon="8.76967">
        <ele>629</ele>
        <time>2021-08-05T13:46:33.107Z</time>
      </trkpt>
      <trkpt lat="46.97298" lon="8.76968">
        <ele>629</ele>
        <time>2021-08-05T13:46:34.107Z</time>
      </trkpt>
      <trkpt lat="46.97297" lon="8.7697">
        <ele>629</ele>
        <time>2021-08-05T13:46:35.107Z</time>
      </trkpt>
      <trkpt lat="46.97297" lon="8.76971">
        <ele>630</ele>
        <time>2021-08-05T13:46:36.108Z</time>
      </trkpt>
      <trkpt lat="46.97296" lon="8.76973">
        <ele>630</ele>
        <time>2021-08-05T13:46:37.107Z</time>
      </trkpt>
      <trkpt lat="46.97296" lon="8.76974">
        <ele>630</ele>
        <time>2021-08-05T13:46:38.107Z</time>
      </trkpt>
      <trkpt lat="46.97295" lon="8.76976">
        <ele>630</ele>
        <time>2021-08-05T13:46:39.107Z</time>
      </trkpt>
      <trkpt lat="46.97295" lon="8.76977">
        <ele>630</ele>
        <time>2021-08-05T13:46:40.107Z</time>
      </trkpt>
      <trkpt lat="46.97295" lon="8.76978">
        <ele>630</ele>
        <time>2021-08-05T13:46:41.108Z</time>
      </trkpt>
      <trkpt lat="46.97295" lon="8.76979">
        <ele>630</ele>
        <time>2021-08-05T13:46:42.108Z</time>
      </trkpt>
      <trkpt lat="46.97295" lon="8.7698">
        <ele>631</ele>
        <time>2021-08-05T13:46:43.108Z</time>
      </trkpt>
      <trkpt lat="46.97295" lon="8.76982">
        <ele>630</ele>
        <time>2021-08-05T13:46:44.108Z</time>
      </trkpt>
      <trkpt lat="46.97295" lon="8.76983">
        <ele>631</ele>
        <time>2021-08-05T13:46:45.107Z</time>
      </trkpt>
      <trkpt lat="46.97294" lon="8.76985">
        <ele>631</ele>
        <time>2021-08-05T13:46:46.108Z</time>
      </trkpt>
      <trkpt lat="46.97294" lon="8.76986">
        <ele>631</ele>
        <time>2021-08-05T13:46:47.107Z</time>
      </trkpt>
      <trkpt lat="46.97294" lon="8.76988">
        <ele>631</ele>
        <time>2021-08-05T13:46:48.108Z</time>
      </trkpt>
      <trkpt lat="46.97293" lon="8.76989">
        <ele>631</ele>
        <time>2021-08-05T13:46:49.107Z</time>
      </trkpt>
      <trkpt lat="46.97292" lon="8.76992">
        <ele>631</ele>
        <time>2021-08-05T13:46:50.108Z</time>
      </trkpt>
      <trkpt lat="46.97292" lon="8.76994">
        <ele>631</ele>
        <time>2021-08-05T13:46:51.108Z</time>
      </trkpt>
      <trkpt lat="46.97291" lon="8.76995">
        <ele>632</ele>
        <time>2021-08-05T13:46:52.108Z</time>
      </trkpt>
      <trkpt lat="46.9729" lon="8.76997">
        <ele>632</ele>
        <time>2021-08-05T13:46:53.107Z</time>
      </trkpt>
      <trkpt lat="46.9729" lon="8.76998">
        <ele>632</ele>
        <time>2021-08-05T13:46:54.108Z</time>
      </trkpt>
      <trkpt lat="46.9729" lon="8.77">
        <ele>632</ele>
        <time>2021-08-05T13:46:55.108Z</time>
      </trkpt>
      <trkpt lat="46.97289" lon="8.77002">
        <ele>632</ele>
        <time>2021-08-05T13:46:56.108Z</time>
      </trkpt>
      <trkpt lat="46.97289" lon="8.77003">
        <ele>632</ele>
        <time>2021-08-05T13:46:57.108Z</time>
      </trkpt>
      <trkpt lat="46.97289" lon="8.77005">
        <ele>633</ele>
        <time>2021-08-05T13:46:58.108Z</time>
      </trkpt>
      <trkpt lat="46.97289" lon="8.77006">
        <ele>633</ele>
        <time>2021-08-05T13:46:59.108Z</time>
      </trkpt>
      <trkpt lat="46.97288" lon="8.77008">
        <ele>634</ele>
        <time>2021-08-05T13:47:00.108Z</time>
      </trkpt>
      <trkpt lat="46.97288" lon="8.77009">
        <ele>634</ele>
        <time>2021-08-05T13:47:01.107Z</time>
      </trkpt>
      <trkpt lat="46.97288" lon="8.77011">
        <ele>634</ele>
        <time>2021-08-05T13:47:02.108Z</time>
      </trkpt>
      <trkpt lat="46.97288" lon="8.77012">
        <ele>634</ele>
        <time>2021-08-05T13:47:03.108Z</time>
      </trkpt>
      <trkpt lat="46.97287" lon="8.77014">
        <ele>634</ele>
        <time>2021-08-05T13:47:04.107Z</time>
      </trkpt>
      <trkpt lat="46.97287" lon="8.77016">
        <ele>634</ele>
        <time>2021-08-05T13:47:05.107Z</time>
      </trkpt>
      <trkpt lat="46.97286" lon="8.77018">
        <ele>634</ele>
        <time>2021-08-05T13:47:06.107Z</time>
      </trkpt>
      <trkpt lat="46.97286" lon="8.77019">
        <ele>634</ele>
        <time>2021-08-05T13:47:07.107Z</time>
      </trkpt>
      <trkpt lat="46.97286" lon="8.77021">
        <ele>635</ele>
        <time>2021-08-05T13:47:08.107Z</time>
      </trkpt>
      <trkpt lat="46.97286" lon="8.77023">
        <ele>635</ele>
        <time>2021-08-05T13:47:09.108Z</time>
      </trkpt>
      <trkpt lat="46.97285" lon="8.77025">
        <ele>635</ele>
        <time>2021-08-05T13:47:10.107Z</time>
      </trkpt>
      <trkpt lat="46.97285" lon="8.77027">
        <ele>635</ele>
        <time>2021-08-05T13:47:12.067Z</time>
      </trkpt>
      <trkpt lat="46.97285" lon="8.77028">
        <ele>635</ele>
        <time>2021-08-05T13:47:13.067Z</time>
      </trkpt>
      <trkpt lat="46.97284" lon="8.77029">
        <ele>635</ele>
        <time>2021-08-05T13:47:14.067Z</time>
      </trkpt>
      <trkpt lat="46.97284" lon="8.7703">
        <ele>636</ele>
        <time>2021-08-05T13:47:15.067Z</time>
      </trkpt>
      <trkpt lat="46.97284" lon="8.77031">
        <ele>636</ele>
        <time>2021-08-05T13:47:16.066Z</time>
      </trkpt>
      <trkpt lat="46.97284" lon="8.77033">
        <ele>636</ele>
        <time>2021-08-05T13:47:17.066Z</time>
      </trkpt>
      <trkpt lat="46.97283" lon="8.77034">
        <ele>636</ele>
        <time>2021-08-05T13:47:18.067Z</time>
      </trkpt>
      <trkpt lat="46.97283" lon="8.77036">
        <ele>636</ele>
        <time>2021-08-05T13:47:19.066Z</time>
      </trkpt>
      <trkpt lat="46.97283" lon="8.77038">
        <ele>636</ele>
        <time>2021-08-05T13:47:20.066Z</time>
      </trkpt>
      <trkpt lat="46.97283" lon="8.7704">
        <ele>637</ele>
        <time>2021-08-05T13:47:21.067Z</time>
      </trkpt>
      <trkpt lat="46.97283" lon="8.77041">
        <ele>637</ele>
        <time>2021-08-05T13:47:22.066Z</time>
      </trkpt>
      <trkpt lat="46.97283" lon="8.77042">
        <ele>637</ele>
        <time>2021-08-05T13:47:23.067Z</time>
      </trkpt>
      <trkpt lat="46.97283" lon="8.77044">
        <ele>638</ele>
        <time>2021-08-05T13:47:24.067Z</time>
      </trkpt>
      <trkpt lat="46.97283" lon="8.77046">
        <ele>638</ele>
        <time>2021-08-05T13:47:25.066Z</time>
      </trkpt>
      <trkpt lat="46.97283" lon="8.77049">
        <ele>638</ele>
        <time>2021-08-05T13:47:26.066Z</time>
      </trkpt>
      <trkpt lat="46.97283" lon="8.7705">
        <ele>638</ele>
        <time>2021-08-05T13:47:27.067Z</time>
      </trkpt>
      <trkpt lat="46.97282" lon="8.77051">
        <ele>638</ele>
        <time>2021-08-05T13:47:28.067Z</time>
      </trkpt>
      <trkpt lat="46.97282" lon="8.77052">
        <ele>638</ele>
        <time>2021-08-05T13:47:29.067Z</time>
      </trkpt>
      <trkpt lat="46.97281" lon="8.77053">
        <ele>638</ele>
        <time>2021-08-05T13:47:30.067Z</time>
      </trkpt>
      <trkpt lat="46.9728" lon="8.77055">
        <ele>638</ele>
        <time>2021-08-05T13:47:31.066Z</time>
      </trkpt>
      <trkpt lat="46.9728" lon="8.77057">
        <ele>638</ele>
        <time>2021-08-05T13:47:32.066Z</time>
      </trkpt>
      <trkpt lat="46.9728" lon="8.77059">
        <ele>639</ele>
        <time>2021-08-05T13:47:33.066Z</time>
      </trkpt>
      <trkpt lat="46.9728" lon="8.7706">
        <ele>639</ele>
        <time>2021-08-05T13:47:34.067Z</time>
      </trkpt>
      <trkpt lat="46.97279" lon="8.77061">
        <ele>639</ele>
        <time>2021-08-05T13:47:35.067Z</time>
      </trkpt>
      <trkpt lat="46.97279" lon="8.77063">
        <ele>639</ele>
        <time>2021-08-05T13:47:36.067Z</time>
      </trkpt>
      <trkpt lat="46.97278" lon="8.77064">
        <ele>639</ele>
        <time>2021-08-05T13:47:37.067Z</time>
      </trkpt>
      <trkpt lat="46.97278" lon="8.77066">
        <ele>639</ele>
        <time>2021-08-05T13:47:38.067Z</time>
      </trkpt>
      <trkpt lat="46.97279" lon="8.77068">
        <ele>639</ele>
        <time>2021-08-05T13:47:39.067Z</time>
      </trkpt>
      <trkpt lat="46.97279" lon="8.7707">
        <ele>637</ele>
        <time>2021-08-05T13:47:40.066Z</time>
      </trkpt>
      <trkpt lat="46.97279" lon="8.77071">
        <ele>637</ele>
        <time>2021-08-05T13:47:41.066Z</time>
      </trkpt>
      <trkpt lat="46.97279" lon="8.77073">
        <ele>636</ele>
        <time>2021-08-05T13:47:42.066Z</time>
      </trkpt>
      <trkpt lat="46.9728" lon="8.77074">
        <ele>635</ele>
        <time>2021-08-05T13:47:43.066Z</time>
      </trkpt>
      <trkpt lat="46.9728" lon="8.77076">
        <ele>634</ele>
        <time>2021-08-05T13:47:44.066Z</time>
      </trkpt>
      <trkpt lat="46.9728" lon="8.77077">
        <ele>633</ele>
        <time>2021-08-05T13:47:45.067Z</time>
      </trkpt>
      <trkpt lat="46.9728" lon="8.77079">
        <ele>632</ele>
        <time>2021-08-05T13:47:46.067Z</time>
      </trkpt>
      <trkpt lat="46.9728" lon="8.77081">
        <ele>632</ele>
        <time>2021-08-05T13:47:47.066Z</time>
      </trkpt>
      <trkpt lat="46.9728" lon="8.77083">
        <ele>631</ele>
        <time>2021-08-05T13:47:48.066Z</time>
      </trkpt>
      <trkpt lat="46.9728" lon="8.77084">
        <ele>631</ele>
        <time>2021-08-05T13:47:49.067Z</time>
      </trkpt>
      <trkpt lat="46.9728" lon="8.77086">
        <ele>631</ele>
        <time>2021-08-05T13:47:50.066Z</time>
      </trkpt>
      <trkpt lat="46.9728" lon="8.77089">
        <ele>631</ele>
        <time>2021-08-05T13:47:51.067Z</time>
      </trkpt>
      <trkpt lat="46.97279" lon="8.77091">
        <ele>631</ele>
        <time>2021-08-05T13:47:52.066Z</time>
      </trkpt>
      <trkpt lat="46.97279" lon="8.77093">
        <ele>632</ele>
        <time>2021-08-05T13:47:53.067Z</time>
      </trkpt>
      <trkpt lat="46.97279" lon="8.77095">
        <ele>632</ele>
        <time>2021-08-05T13:47:54.066Z</time>
      </trkpt>
      <trkpt lat="46.97278" lon="8.77096">
        <ele>632</ele>
        <time>2021-08-05T13:47:55.067Z</time>
      </trkpt>
      <trkpt lat="46.97278" lon="8.77098">
        <ele>633</ele>
        <time>2021-08-05T13:47:56.067Z</time>
      </trkpt>
      <trkpt lat="46.97278" lon="8.77099">
        <ele>633</ele>
        <time>2021-08-05T13:47:57.066Z</time>
      </trkpt>
      <trkpt lat="46.97278" lon="8.77101">
        <ele>633</ele>
        <time>2021-08-05T13:47:58.067Z</time>
      </trkpt>
      <trkpt lat="46.97278" lon="8.77103">
        <ele>634</ele>
        <time>2021-08-05T13:47:59.066Z</time>
      </trkpt>
      <trkpt lat="46.97279" lon="8.77104">
        <ele>634</ele>
        <time>2021-08-05T13:48:00.067Z</time>
      </trkpt>
      <trkpt lat="46.97279" lon="8.77106">
        <ele>635</ele>
        <time>2021-08-05T13:48:01.066Z</time>
      </trkpt>
      <trkpt lat="46.97279" lon="8.77108">
        <ele>635</ele>
        <time>2021-08-05T13:48:02.067Z</time>
      </trkpt>
      <trkpt lat="46.97279" lon="8.7711">
        <ele>635</ele>
        <time>2021-08-05T13:48:03.067Z</time>
      </trkpt>
      <trkpt lat="46.97279" lon="8.77111">
        <ele>635</ele>
        <time>2021-08-05T13:48:04.067Z</time>
      </trkpt>
      <trkpt lat="46.97279" lon="8.77113">
        <ele>635</ele>
        <time>2021-08-05T13:48:05.067Z</time>
      </trkpt>
      <trkpt lat="46.97279" lon="8.77115">
        <ele>636</ele>
        <time>2021-08-05T13:48:06.067Z</time>
      </trkpt>
      <trkpt lat="46.97279" lon="8.77116">
        <ele>636</ele>
        <time>2021-08-05T13:48:07.067Z</time>
      </trkpt>
      <trkpt lat="46.97279" lon="8.77117">
        <ele>636</ele>
        <time>2021-08-05T13:48:08.067Z</time>
      </trkpt>
      <trkpt lat="46.9728" lon="8.77118">
        <ele>636</ele>
        <time>2021-08-05T13:48:09.067Z</time>
      </trkpt>
      <trkpt lat="46.9728" lon="8.7712">
        <ele>636</ele>
        <time>2021-08-05T13:48:10.066Z</time>
      </trkpt>
      <trkpt lat="46.9728" lon="8.77121">
        <ele>636</ele>
        <time>2021-08-05T13:48:11.066Z</time>
      </trkpt>
      <trkpt lat="46.9728" lon="8.77122">
        <ele>636</ele>
        <time>2021-08-05T13:48:12.067Z</time>
      </trkpt>
      <trkpt lat="46.9728" lon="8.77124">
        <ele>635</ele>
        <time>2021-08-05T13:48:13.067Z</time>
      </trkpt>
      <trkpt lat="46.97281" lon="8.77126">
        <ele>635</ele>
        <time>2021-08-05T13:48:14.067Z</time>
      </trkpt>
      <trkpt lat="46.97281" lon="8.77126">
        <ele>635</ele>
        <time>2021-08-05T13:48:15.066Z</time>
      </trkpt>
      <trkpt lat="46.97281" lon="8.77127">
        <ele>635</ele>
        <time>2021-08-05T13:48:16.067Z</time>
      </trkpt>
      <trkpt lat="46.97281" lon="8.77129">
        <ele>635</ele>
        <time>2021-08-05T13:48:17.067Z</time>
      </trkpt>
      <trkpt lat="46.97282" lon="8.77131">
        <ele>634</ele>
        <time>2021-08-05T13:48:18.067Z</time>
      </trkpt>
      <trkpt lat="46.97282" lon="8.77133">
        <ele>634</ele>
        <time>2021-08-05T13:48:19.067Z</time>
      </trkpt>
      <trkpt lat="46.97282" lon="8.77135">
        <ele>634</ele>
        <time>2021-08-05T13:48:20.066Z</time>
      </trkpt>
      <trkpt lat="46.97282" lon="8.77136">
        <ele>634</ele>
        <time>2021-08-05T13:48:21.067Z</time>
      </trkpt>
      <trkpt lat="46.97282" lon="8.77138">
        <ele>635</ele>
        <time>2021-08-05T13:48:22.066Z</time>
      </trkpt>
      <trkpt lat="46.97282" lon="8.77139">
        <ele>636</ele>
        <time>2021-08-05T13:48:23.067Z</time>
      </trkpt>
      <trkpt lat="46.97282" lon="8.77141">
        <ele>636</ele>
        <time>2021-08-05T13:48:24.066Z</time>
      </trkpt>
      <trkpt lat="46.97282" lon="8.77142">
        <ele>637</ele>
        <time>2021-08-05T13:48:25.067Z</time>
      </trkpt>
      <trkpt lat="46.97282" lon="8.77144">
        <ele>637</ele>
        <time>2021-08-05T13:48:26.067Z</time>
      </trkpt>
      <trkpt lat="46.97283" lon="8.77146">
        <ele>636</ele>
        <time>2021-08-05T13:48:27.066Z</time>
      </trkpt>
      <trkpt lat="46.97283" lon="8.77148">
        <ele>636</ele>
        <time>2021-08-05T13:48:28.066Z</time>
      </trkpt>
      <trkpt lat="46.97283" lon="8.7715">
        <ele>635</ele>
        <time>2021-08-05T13:48:29.066Z</time>
      </trkpt>
      <trkpt lat="46.97283" lon="8.77152">
        <ele>635</ele>
        <time>2021-08-05T13:48:30.066Z</time>
      </trkpt>
      <trkpt lat="46.97283" lon="8.77153">
        <ele>635</ele>
        <time>2021-08-05T13:48:31.066Z</time>
      </trkpt>
      <trkpt lat="46.97283" lon="8.77154">
        <ele>635</ele>
        <time>2021-08-05T13:48:32.067Z</time>
      </trkpt>
      <trkpt lat="46.97283" lon="8.77156">
        <ele>635</ele>
        <time>2021-08-05T13:48:33.067Z</time>
      </trkpt>
      <trkpt lat="46.97283" lon="8.77157">
        <ele>635</ele>
        <time>2021-08-05T13:48:34.067Z</time>
      </trkpt>
      <trkpt lat="46.97283" lon="8.77159">
        <ele>635</ele>
        <time>2021-08-05T13:48:35.067Z</time>
      </trkpt>
      <trkpt lat="46.97283" lon="8.77161">
        <ele>635</ele>
        <time>2021-08-05T13:48:36.066Z</time>
      </trkpt>
      <trkpt lat="46.97283" lon="8.77163">
        <ele>635</ele>
        <time>2021-08-05T13:48:37.066Z</time>
      </trkpt>
      <trkpt lat="46.97283" lon="8.77164">
        <ele>635</ele>
        <time>2021-08-05T13:48:38.066Z</time>
      </trkpt>
      <trkpt lat="46.97284" lon="8.77166">
        <ele>635</ele>
        <time>2021-08-05T13:48:39.066Z</time>
      </trkpt>
      <trkpt lat="46.97284" lon="8.77167">
        <ele>635</ele>
        <time>2021-08-05T13:48:40.066Z</time>
      </trkpt>
      <trkpt lat="46.97284" lon="8.77169">
        <ele>635</ele>
        <time>2021-08-05T13:48:41.067Z</time>
      </trkpt>
      <trkpt lat="46.97284" lon="8.7717">
        <ele>635</ele>
        <time>2021-08-05T13:48:42.067Z</time>
      </trkpt>
      <trkpt lat="46.97284" lon="8.77171">
        <ele>634</ele>
        <time>2021-08-05T13:48:43.067Z</time>
      </trkpt>
      <trkpt lat="46.97285" lon="8.77173">
        <ele>634</ele>
        <time>2021-08-05T13:48:44.066Z</time>
      </trkpt>
      <trkpt lat="46.97285" lon="8.77174">
        <ele>633</ele>
        <time>2021-08-05T13:48:45.066Z</time>
      </trkpt>
      <trkpt lat="46.97285" lon="8.77175">
        <ele>633</ele>
        <time>2021-08-05T13:48:46.066Z</time>
      </trkpt>
      <trkpt lat="46.97286" lon="8.77176">
        <ele>632</ele>
        <time>2021-08-05T13:48:47.067Z</time>
      </trkpt>
      <trkpt lat="46.97287" lon="8.77178">
        <ele>632</ele>
        <time>2021-08-05T13:48:48.066Z</time>
      </trkpt>
      <trkpt lat="46.97288" lon="8.77179">
        <ele>632</ele>
        <time>2021-08-05T13:48:49.066Z</time>
      </trkpt>
      <trkpt lat="46.97288" lon="8.7718">
        <ele>632</ele>
        <time>2021-08-05T13:48:50.066Z</time>
      </trkpt>
      <trkpt lat="46.97288" lon="8.77182">
        <ele>632</ele>
        <time>2021-08-05T13:48:51.066Z</time>
      </trkpt>
      <trkpt lat="46.97289" lon="8.77185">
        <ele>632</ele>
        <time>2021-08-05T13:48:52.066Z</time>
      </trkpt>
      <trkpt lat="46.97289" lon="8.77186">
        <ele>632</ele>
        <time>2021-08-05T13:48:53.067Z</time>
      </trkpt>
      <trkpt lat="46.97289" lon="8.77188">
        <ele>633</ele>
        <time>2021-08-05T13:48:54.067Z</time>
      </trkpt>
      <trkpt lat="46.9729" lon="8.7719">
        <ele>633</ele>
        <time>2021-08-05T13:48:55.067Z</time>
      </trkpt>
      <trkpt lat="46.97289" lon="8.77191">
        <ele>634</ele>
        <time>2021-08-05T13:48:56.066Z</time>
      </trkpt>
      <trkpt lat="46.9729" lon="8.77193">
        <ele>634</ele>
        <time>2021-08-05T13:48:57.066Z</time>
      </trkpt>
      <trkpt lat="46.9729" lon="8.77195">
        <ele>634</ele>
        <time>2021-08-05T13:48:58.066Z</time>
      </trkpt>
      <trkpt lat="46.9729" lon="8.77197">
        <ele>635</ele>
        <time>2021-08-05T13:48:59.066Z</time>
      </trkpt>
      <trkpt lat="46.9729" lon="8.77199">
        <ele>635</ele>
        <time>2021-08-05T13:49:00.066Z</time>
      </trkpt>
      <trkpt lat="46.97291" lon="8.77201">
        <ele>635</ele>
        <time>2021-08-05T13:49:01.067Z</time>
      </trkpt>
      <trkpt lat="46.97291" lon="8.77202">
        <ele>635</ele>
        <time>2021-08-05T13:49:02.067Z</time>
      </trkpt>
      <trkpt lat="46.97291" lon="8.77203">
        <ele>636</ele>
        <time>2021-08-05T13:49:03.066Z</time>
      </trkpt>
      <trkpt lat="46.97292" lon="8.77205">
        <ele>636</ele>
        <time>2021-08-05T13:49:04.066Z</time>
      </trkpt>
      <trkpt lat="46.97292" lon="8.77207">
        <ele>636</ele>
        <time>2021-08-05T13:49:05.066Z</time>
      </trkpt>
      <trkpt lat="46.97293" lon="8.77208">
        <ele>637</ele>
        <time>2021-08-05T13:49:06.066Z</time>
      </trkpt>
      <trkpt lat="46.97293" lon="8.7721">
        <ele>637</ele>
        <time>2021-08-05T13:49:07.066Z</time>
      </trkpt>
      <trkpt lat="46.97294" lon="8.77211">
        <ele>637</ele>
        <time>2021-08-05T13:49:08.066Z</time>
      </trkpt>
      <trkpt lat="46.97294" lon="8.77212">
        <ele>637</ele>
        <time>2021-08-05T13:49:09.066Z</time>
      </trkpt>
      <trkpt lat="46.97294" lon="8.77213">
        <ele>636</ele>
        <time>2021-08-05T13:49:10.066Z</time>
      </trkpt>
      <trkpt lat="46.97295" lon="8.77214">
        <ele>636</ele>
        <time>2021-08-05T13:49:11.066Z</time>
      </trkpt>
      <trkpt lat="46.97295" lon="8.77215">
        <ele>635</ele>
        <time>2021-08-05T13:49:12.066Z</time>
      </trkpt>
      <trkpt lat="46.97296" lon="8.77216">
        <ele>635</ele>
        <time>2021-08-05T13:49:13.067Z</time>
      </trkpt>
      <trkpt lat="46.97295" lon="8.77216">
        <ele>635</ele>
        <time>2021-08-05T13:49:14.067Z</time>
      </trkpt>
      <trkpt lat="46.97296" lon="8.77216">
        <ele>635</ele>
        <time>2021-08-05T13:49:15.066Z</time>
      </trkpt>
      <trkpt lat="46.97298" lon="8.77218">
        <ele>634</ele>
        <time>2021-08-05T13:49:16.068Z</time>
      </trkpt>
      <trkpt lat="46.97299" lon="8.77219">
        <ele>634</ele>
        <time>2021-08-05T13:49:17.067Z</time>
      </trkpt>
      <trkpt lat="46.97299" lon="8.7722">
        <ele>634</ele>
        <time>2021-08-05T13:49:18.067Z</time>
      </trkpt>
      <trkpt lat="46.97299" lon="8.77221">
        <ele>634</ele>
        <time>2021-08-05T13:49:19.068Z</time>
      </trkpt>
      <trkpt lat="46.97299" lon="8.77223">
        <ele>635</ele>
        <time>2021-08-05T13:49:20.068Z</time>
      </trkpt>
      <trkpt lat="46.97299" lon="8.77224">
        <ele>635</ele>
        <time>2021-08-05T13:49:21.067Z</time>
      </trkpt>
      <trkpt lat="46.97299" lon="8.77226">
        <ele>635</ele>
        <time>2021-08-05T13:49:22.067Z</time>
      </trkpt>
      <trkpt lat="46.97299" lon="8.77228">
        <ele>635</ele>
        <time>2021-08-05T13:49:23.068Z</time>
      </trkpt>
      <trkpt lat="46.97299" lon="8.77229">
        <ele>636</ele>
        <time>2021-08-05T13:49:24.067Z</time>
      </trkpt>
      <trkpt lat="46.973" lon="8.77231">
        <ele>636</ele>
        <time>2021-08-05T13:49:25.068Z</time>
      </trkpt>
      <trkpt lat="46.973" lon="8.77232">
        <ele>636</ele>
        <time>2021-08-05T13:49:26.068Z</time>
      </trkpt>
      <trkpt lat="46.97301" lon="8.77232">
        <ele>636</ele>
        <time>2021-08-05T13:49:27.068Z</time>
      </trkpt>
      <trkpt lat="46.97301" lon="8.77234">
        <ele>636</ele>
        <time>2021-08-05T13:49:28.067Z</time>
      </trkpt>
      <trkpt lat="46.97302" lon="8.77235">
        <ele>636</ele>
        <time>2021-08-05T13:49:29.067Z</time>
      </trkpt>
      <trkpt lat="46.97302" lon="8.77236">
        <ele>635</ele>
        <time>2021-08-05T13:49:30.068Z</time>
      </trkpt>
      <trkpt lat="46.97302" lon="8.77238">
        <ele>635</ele>
        <time>2021-08-05T13:49:31.068Z</time>
      </trkpt>
      <trkpt lat="46.97303" lon="8.77239">
        <ele>634</ele>
        <time>2021-08-05T13:49:32.067Z</time>
      </trkpt>
      <trkpt lat="46.97303" lon="8.7724">
        <ele>634</ele>
        <time>2021-08-05T13:49:33.068Z</time>
      </trkpt>
      <trkpt lat="46.97304" lon="8.77241">
        <ele>634</ele>
        <time>2021-08-05T13:49:34.068Z</time>
      </trkpt>
      <trkpt lat="46.97304" lon="8.77242">
        <ele>634</ele>
        <time>2021-08-05T13:49:35.067Z</time>
      </trkpt>
      <trkpt lat="46.97305" lon="8.77244">
        <ele>635</ele>
        <time>2021-08-05T13:49:36.067Z</time>
      </trkpt>
      <trkpt lat="46.97305" lon="8.77246">
        <ele>635</ele>
        <time>2021-08-05T13:49:37.068Z</time>
      </trkpt>
      <trkpt lat="46.97306" lon="8.77247">
        <ele>636</ele>
        <time>2021-08-05T13:49:38.068Z</time>
      </trkpt>
      <trkpt lat="46.97306" lon="8.77249">
        <ele>637</ele>
        <time>2021-08-05T13:49:39.068Z</time>
      </trkpt>
      <trkpt lat="46.97306" lon="8.7725">
        <ele>637</ele>
        <time>2021-08-05T13:49:40.067Z</time>
      </trkpt>
      <trkpt lat="46.97306" lon="8.77252">
        <ele>638</ele>
        <time>2021-08-05T13:49:41.068Z</time>
      </trkpt>
      <trkpt lat="46.97307" lon="8.77254">
        <ele>638</ele>
        <time>2021-08-05T13:49:42.068Z</time>
      </trkpt>
      <trkpt lat="46.97307" lon="8.77255">
        <ele>639</ele>
        <time>2021-08-05T13:49:43.067Z</time>
      </trkpt>
      <trkpt lat="46.97307" lon="8.77257">
        <ele>639</ele>
        <time>2021-08-05T13:49:44.067Z</time>
      </trkpt>
      <trkpt lat="46.97307" lon="8.77258">
        <ele>640</ele>
        <time>2021-08-05T13:49:45.068Z</time>
      </trkpt>
      <trkpt lat="46.97308" lon="8.7726">
        <ele>641</ele>
        <time>2021-08-05T13:49:46.067Z</time>
      </trkpt>
      <trkpt lat="46.97308" lon="8.77261">
        <ele>641</ele>
        <time>2021-08-05T13:49:47.068Z</time>
      </trkpt>
      <trkpt lat="46.97308" lon="8.77263">
        <ele>642</ele>
        <time>2021-08-05T13:49:48.067Z</time>
      </trkpt>
      <trkpt lat="46.97309" lon="8.77265">
        <ele>642</ele>
        <time>2021-08-05T13:49:49.067Z</time>
      </trkpt>
      <trkpt lat="46.97308" lon="8.77267">
        <ele>643</ele>
        <time>2021-08-05T13:49:50.067Z</time>
      </trkpt>
      <trkpt lat="46.97308" lon="8.77268">
        <ele>643</ele>
        <time>2021-08-05T13:49:51.067Z</time>
      </trkpt>
      <trkpt lat="46.97308" lon="8.7727">
        <ele>643</ele>
        <time>2021-08-05T13:49:52.068Z</time>
      </trkpt>
      <trkpt lat="46.97309" lon="8.77271">
        <ele>643</ele>
        <time>2021-08-05T13:49:53.067Z</time>
      </trkpt>
      <trkpt lat="46.97309" lon="8.77272">
        <ele>643</ele>
        <time>2021-08-05T13:49:54.068Z</time>
      </trkpt>
      <trkpt lat="46.97309" lon="8.77274">
        <ele>643</ele>
        <time>2021-08-05T13:49:55.068Z</time>
      </trkpt>
      <trkpt lat="46.9731" lon="8.77277">
        <ele>644</ele>
        <time>2021-08-05T13:49:56.068Z</time>
      </trkpt>
      <trkpt lat="46.97309" lon="8.77279">
        <ele>644</ele>
        <time>2021-08-05T13:49:57.068Z</time>
      </trkpt>
      <trkpt lat="46.97309" lon="8.7728">
        <ele>644</ele>
        <time>2021-08-05T13:49:58.067Z</time>
      </trkpt>
      <trkpt lat="46.9731" lon="8.77282">
        <ele>644</ele>
        <time>2021-08-05T13:49:59.068Z</time>
      </trkpt>
      <trkpt lat="46.97311" lon="8.77284">
        <ele>644</ele>
        <time>2021-08-05T13:50:00.068Z</time>
      </trkpt>
      <trkpt lat="46.97311" lon="8.77285">
        <ele>644</ele>
        <time>2021-08-05T13:50:01.068Z</time>
      </trkpt>
      <trkpt lat="46.97312" lon="8.77286">
        <ele>644</ele>
        <time>2021-08-05T13:50:02.068Z</time>
      </trkpt>
      <trkpt lat="46.97314" lon="8.77287">
        <ele>644</ele>
        <time>2021-08-05T13:50:03.068Z</time>
      </trkpt>
      <trkpt lat="46.97316" lon="8.77289">
        <ele>643</ele>
        <time>2021-08-05T13:50:04.068Z</time>
      </trkpt>
      <trkpt lat="46.97318" lon="8.77289">
        <ele>643</ele>
        <time>2021-08-05T13:50:05.068Z</time>
      </trkpt>
      <trkpt lat="46.97319" lon="8.77291">
        <ele>642</ele>
        <time>2021-08-05T13:50:06.068Z</time>
      </trkpt>
      <trkpt lat="46.9732" lon="8.77293">
        <ele>641</ele>
        <time>2021-08-05T13:50:07.068Z</time>
      </trkpt>
      <trkpt lat="46.97321" lon="8.77294">
        <ele>640</ele>
        <time>2021-08-05T13:50:08.067Z</time>
      </trkpt>
      <trkpt lat="46.97321" lon="8.77295">
        <ele>640</ele>
        <time>2021-08-05T13:50:09.067Z</time>
      </trkpt>
      <trkpt lat="46.97321" lon="8.77297">
        <ele>640</ele>
        <time>2021-08-05T13:50:10.068Z</time>
      </trkpt>
      <trkpt lat="46.97322" lon="8.77299">
        <ele>640</ele>
        <time>2021-08-05T13:50:11.068Z</time>
      </trkpt>
      <trkpt lat="46.97322" lon="8.773">
        <ele>640</ele>
        <time>2021-08-05T13:50:12.068Z</time>
      </trkpt>
      <trkpt lat="46.97323" lon="8.77301">
        <ele>640</ele>
        <time>2021-08-05T13:50:13.067Z</time>
      </trkpt>
      <trkpt lat="46.97324" lon="8.77301">
        <ele>640</ele>
        <time>2021-08-05T13:50:14.068Z</time>
      </trkpt>
      <trkpt lat="46.97324" lon="8.77301">
        <ele>639</ele>
        <time>2021-08-05T13:50:15.068Z</time>
      </trkpt>
      <trkpt lat="46.97325" lon="8.77302">
        <ele>639</ele>
        <time>2021-08-05T13:50:16.068Z</time>
      </trkpt>
      <trkpt lat="46.97326" lon="8.77304">
        <ele>639</ele>
        <time>2021-08-05T13:50:17.067Z</time>
      </trkpt>
      <trkpt lat="46.97327" lon="8.77305">
        <ele>639</ele>
        <time>2021-08-05T13:50:18.068Z</time>
      </trkpt>
      <trkpt lat="46.97327" lon="8.77306">
        <ele>638</ele>
        <time>2021-08-05T13:50:25.075Z</time>
      </trkpt>
      <trkpt lat="46.97327" lon="8.77307">
        <ele>638</ele>
        <time>2021-08-05T13:50:35.862Z</time>
      </trkpt>
      <trkpt lat="46.97327" lon="8.77308">
        <ele>638</ele>
        <time>2021-08-05T13:50:36.862Z</time>
      </trkpt>
      <trkpt lat="46.97328" lon="8.77309">
        <ele>638</ele>
        <time>2021-08-05T13:50:49.569Z</time>
      </trkpt>
      <trkpt lat="46.9733" lon="8.7731">
        <ele>638</ele>
        <time>2021-08-05T13:50:50.569Z</time>
      </trkpt>
      <trkpt lat="46.97332" lon="8.77312">
        <ele>638</ele>
        <time>2021-08-05T13:50:51.570Z</time>
      </trkpt>
      <trkpt lat="46.97334" lon="8.77314">
        <ele>638</ele>
        <time>2021-08-05T13:50:52.570Z</time>
      </trkpt>
      <trkpt lat="46.97336" lon="8.77315">
        <ele>638</ele>
        <time>2021-08-05T13:50:53.569Z</time>
      </trkpt>
      <trkpt lat="46.97336" lon="8.77317">
        <ele>637</ele>
        <time>2021-08-05T13:50:54.570Z</time>
      </trkpt>
      <trkpt lat="46.97336" lon="8.77319">
        <ele>637</ele>
        <time>2021-08-05T13:50:55.570Z</time>
      </trkpt>
      <trkpt lat="46.97336" lon="8.77321">
        <ele>637</ele>
        <time>2021-08-05T13:50:56.569Z</time>
      </trkpt>
      <trkpt lat="46.97336" lon="8.77322">
        <ele>637</ele>
        <time>2021-08-05T13:50:57.570Z</time>
      </trkpt>
      <trkpt lat="46.97335" lon="8.77323">
        <ele>637</ele>
        <time>2021-08-05T13:50:58.570Z</time>
      </trkpt>
      <trkpt lat="46.97333" lon="8.77323">
        <ele>637</ele>
        <time>2021-08-05T13:51:07.568Z</time>
      </trkpt>
      <trkpt lat="46.97333" lon="8.77323">
        <ele>637</ele>
        <time>2021-08-05T13:51:08.569Z</time>
      </trkpt>
      <trkpt lat="46.97332" lon="8.77325">
        <ele>637</ele>
        <time>2021-08-05T13:51:09.569Z</time>
      </trkpt>
      <trkpt lat="46.97331" lon="8.77326">
        <ele>637</ele>
        <time>2021-08-05T13:51:32.380Z</time>
      </trkpt>
      <trkpt lat="46.9733" lon="8.77327">
        <ele>637</ele>
        <time>2021-08-05T13:51:33.381Z</time>
      </trkpt>
      <trkpt lat="46.97329" lon="8.77327">
        <ele>637</ele>
        <time>2021-08-05T13:51:37.223Z</time>
      </trkpt>
      <trkpt lat="46.97328" lon="8.77328">
        <ele>636</ele>
        <time>2021-08-05T13:51:38.223Z</time>
      </trkpt>
      <trkpt lat="46.97327" lon="8.77329">
        <ele>636</ele>
        <time>2021-08-05T13:51:39.224Z</time>
      </trkpt>
      <trkpt lat="46.97326" lon="8.7733">
        <ele>635</ele>
        <time>2021-08-05T13:51:40.223Z</time>
      </trkpt>
      <trkpt lat="46.97325" lon="8.77331">
        <ele>635</ele>
        <time>2021-08-05T13:51:41.224Z</time>
      </trkpt>
      <trkpt lat="46.97325" lon="8.77334">
        <ele>635</ele>
        <time>2021-08-05T13:51:42.223Z</time>
      </trkpt>
      <trkpt lat="46.97324" lon="8.77335">
        <ele>635</ele>
        <time>2021-08-05T13:51:43.223Z</time>
      </trkpt>
      <trkpt lat="46.97323" lon="8.77335">
        <ele>635</ele>
        <time>2021-08-05T13:51:44.224Z</time>
      </trkpt>
      <trkpt lat="46.97322" lon="8.77336">
        <ele>634</ele>
        <time>2021-08-05T13:51:45.223Z</time>
      </trkpt>
      <trkpt lat="46.97321" lon="8.77338">
        <ele>634</ele>
        <time>2021-08-05T13:51:46.224Z</time>
      </trkpt>
      <trkpt lat="46.9732" lon="8.77339">
        <ele>633</ele>
        <time>2021-08-05T13:51:47.224Z</time>
      </trkpt>
      <trkpt lat="46.97319" lon="8.77339">
        <ele>632</ele>
        <time>2021-08-05T13:51:48.223Z</time>
      </trkpt>
      <trkpt lat="46.97318" lon="8.7734">
        <ele>632</ele>
        <time>2021-08-05T13:51:49.224Z</time>
      </trkpt>
      <trkpt lat="46.97318" lon="8.77341">
        <ele>632</ele>
        <time>2021-08-05T13:51:50.224Z</time>
      </trkpt>
      <trkpt lat="46.97316" lon="8.77341">
        <ele>631</ele>
        <time>2021-08-05T13:51:51.224Z</time>
      </trkpt>
      <trkpt lat="46.97315" lon="8.77342">
        <ele>631</ele>
        <time>2021-08-05T13:51:52.224Z</time>
      </trkpt>
      <trkpt lat="46.97314" lon="8.77343">
        <ele>630</ele>
        <time>2021-08-05T13:51:53.224Z</time>
      </trkpt>
      <trkpt lat="46.97313" lon="8.77344">
        <ele>631</ele>
        <time>2021-08-05T13:51:54.224Z</time>
      </trkpt>
      <trkpt lat="46.97312" lon="8.77345">
        <ele>631</ele>
        <time>2021-08-05T13:51:55.224Z</time>
      </trkpt>
      <trkpt lat="46.97311" lon="8.77346">
        <ele>632</ele>
        <time>2021-08-05T13:51:56.224Z</time>
      </trkpt>
      <trkpt lat="46.97311" lon="8.77348">
        <ele>633</ele>
        <time>2021-08-05T13:51:57.224Z</time>
      </trkpt>
      <trkpt lat="46.9731" lon="8.77349">
        <ele>633</ele>
        <time>2021-08-05T13:51:58.224Z</time>
      </trkpt>
      <trkpt lat="46.9731" lon="8.7735">
        <ele>634</ele>
        <time>2021-08-05T13:51:59.224Z</time>
      </trkpt>
      <trkpt lat="46.97309" lon="8.77351">
        <ele>634</ele>
        <time>2021-08-05T13:52:00.224Z</time>
      </trkpt>
      <trkpt lat="46.97309" lon="8.77352">
        <ele>635</ele>
        <time>2021-08-05T13:52:01.224Z</time>
      </trkpt>
      <trkpt lat="46.97309" lon="8.77353">
        <ele>635</ele>
        <time>2021-08-05T13:52:02.223Z</time>
      </trkpt>
      <trkpt lat="46.97309" lon="8.77355">
        <ele>636</ele>
        <time>2021-08-05T13:52:03.224Z</time>
      </trkpt>
      <trkpt lat="46.97309" lon="8.77357">
        <ele>636</ele>
        <time>2021-08-05T13:52:04.224Z</time>
      </trkpt>
      <trkpt lat="46.97309" lon="8.77359">
        <ele>636</ele>
        <time>2021-08-05T13:52:05.223Z</time>
      </trkpt>
      <trkpt lat="46.97309" lon="8.7736">
        <ele>637</ele>
        <time>2021-08-05T13:52:06.223Z</time>
      </trkpt>
      <trkpt lat="46.9731" lon="8.77362">
        <ele>637</ele>
        <time>2021-08-05T13:52:07.224Z</time>
      </trkpt>
      <trkpt lat="46.9731" lon="8.77364">
        <ele>638</ele>
        <time>2021-08-05T13:52:08.224Z</time>
      </trkpt>
      <trkpt lat="46.9731" lon="8.77365">
        <ele>638</ele>
        <time>2021-08-05T13:52:11.215Z</time>
      </trkpt>
      <trkpt lat="46.9731" lon="8.77367">
        <ele>638</ele>
        <time>2021-08-05T13:52:12.215Z</time>
      </trkpt>
      <trkpt lat="46.9731" lon="8.77368">
        <ele>638</ele>
        <time>2021-08-05T13:52:13.215Z</time>
      </trkpt>
      <trkpt lat="46.9731" lon="8.7737">
        <ele>638</ele>
        <time>2021-08-05T13:52:14.214Z</time>
      </trkpt>
      <trkpt lat="46.97309" lon="8.77371">
        <ele>638</ele>
        <time>2021-08-05T13:52:15.215Z</time>
      </trkpt>
      <trkpt lat="46.97309" lon="8.77373">
        <ele>638</ele>
        <time>2021-08-05T13:52:16.215Z</time>
      </trkpt>
      <trkpt lat="46.97308" lon="8.77375">
        <ele>638</ele>
        <time>2021-08-05T13:52:17.215Z</time>
      </trkpt>
      <trkpt lat="46.97308" lon="8.77376">
        <ele>638</ele>
        <time>2021-08-05T13:52:18.214Z</time>
      </trkpt>
      <trkpt lat="46.97307" lon="8.77377">
        <ele>638</ele>
        <time>2021-08-05T13:52:19.214Z</time>
      </trkpt>
      <trkpt lat="46.97307" lon="8.77378">
        <ele>638</ele>
        <time>2021-08-05T13:52:20.215Z</time>
      </trkpt>
      <trkpt lat="46.97306" lon="8.77379">
        <ele>638</ele>
        <time>2021-08-05T13:52:21.214Z</time>
      </trkpt>
      <trkpt lat="46.97306" lon="8.77381">
        <ele>638</ele>
        <time>2021-08-05T13:52:22.215Z</time>
      </trkpt>
      <trkpt lat="46.97305" lon="8.77382">
        <ele>638</ele>
        <time>2021-08-05T13:52:23.215Z</time>
      </trkpt>
      <trkpt lat="46.97304" lon="8.77383">
        <ele>638</ele>
        <time>2021-08-05T13:52:24.214Z</time>
      </trkpt>
      <trkpt lat="46.97304" lon="8.77384">
        <ele>638</ele>
        <time>2021-08-05T13:52:25.214Z</time>
      </trkpt>
      <trkpt lat="46.97303" lon="8.77385">
        <ele>638</ele>
        <time>2021-08-05T13:52:26.214Z</time>
      </trkpt>
      <trkpt lat="46.97302" lon="8.77386">
        <ele>638</ele>
        <time>2021-08-05T13:52:27.215Z</time>
      </trkpt>
      <trkpt lat="46.97301" lon="8.77386">
        <ele>638</ele>
        <time>2021-08-05T13:52:28.215Z</time>
      </trkpt>
      <trkpt lat="46.973" lon="8.77386">
        <ele>638</ele>
        <time>2021-08-05T13:52:29.214Z</time>
      </trkpt>
      <trkpt lat="46.97299" lon="8.77387">
        <ele>637</ele>
        <time>2021-08-05T13:52:30.215Z</time>
      </trkpt>
      <trkpt lat="46.97297" lon="8.77387">
        <ele>637</ele>
        <time>2021-08-05T13:52:31.215Z</time>
      </trkpt>
      <trkpt lat="46.97295" lon="8.77386">
        <ele>638</ele>
        <time>2021-08-05T13:52:32.214Z</time>
      </trkpt>
      <trkpt lat="46.97294" lon="8.77385">
        <ele>638</ele>
        <time>2021-08-05T13:52:33.215Z</time>
      </trkpt>
      <trkpt lat="46.97292" lon="8.77384">
        <ele>638</ele>
        <time>2021-08-05T13:52:34.214Z</time>
      </trkpt>
      <trkpt lat="46.97291" lon="8.77385">
        <ele>639</ele>
        <time>2021-08-05T13:52:35.215Z</time>
      </trkpt>
      <trkpt lat="46.9729" lon="8.77387">
        <ele>639</ele>
        <time>2021-08-05T13:52:36.214Z</time>
      </trkpt>
      <trkpt lat="46.9729" lon="8.77388">
        <ele>638</ele>
        <time>2021-08-05T13:52:37.214Z</time>
      </trkpt>
      <trkpt lat="46.97289" lon="8.77388">
        <ele>638</ele>
        <time>2021-08-05T13:52:38.215Z</time>
      </trkpt>
      <trkpt lat="46.97287" lon="8.7739">
        <ele>638</ele>
        <time>2021-08-05T13:52:39.214Z</time>
      </trkpt>
      <trkpt lat="46.97286" lon="8.77391">
        <ele>639</ele>
        <time>2021-08-05T13:52:40.214Z</time>
      </trkpt>
      <trkpt lat="46.97285" lon="8.77392">
        <ele>638</ele>
        <time>2021-08-05T13:52:41.215Z</time>
      </trkpt>
      <trkpt lat="46.97285" lon="8.77394">
        <ele>637</ele>
        <time>2021-08-05T13:52:42.215Z</time>
      </trkpt>
      <trkpt lat="46.97284" lon="8.77395">
        <ele>636</ele>
        <time>2021-08-05T13:52:43.215Z</time>
      </trkpt>
      <trkpt lat="46.97283" lon="8.77397">
        <ele>636</ele>
        <time>2021-08-05T13:52:44.215Z</time>
      </trkpt>
      <trkpt lat="46.97282" lon="8.77398">
        <ele>635</ele>
        <time>2021-08-05T13:52:45.214Z</time>
      </trkpt>
      <trkpt lat="46.97282" lon="8.77399">
        <ele>634</ele>
        <time>2021-08-05T13:52:46.215Z</time>
      </trkpt>
      <trkpt lat="46.97281" lon="8.774">
        <ele>634</ele>
        <time>2021-08-05T13:52:47.215Z</time>
      </trkpt>
      <trkpt lat="46.97281" lon="8.77402">
        <ele>633</ele>
        <time>2021-08-05T13:52:48.215Z</time>
      </trkpt>
      <trkpt lat="46.97281" lon="8.77404">
        <ele>633</ele>
        <time>2021-08-05T13:52:49.215Z</time>
      </trkpt>
      <trkpt lat="46.97281" lon="8.77404">
        <ele>632</ele>
        <time>2021-08-05T13:52:50.215Z</time>
      </trkpt>
      <trkpt lat="46.97281" lon="8.77405">
        <ele>632</ele>
        <time>2021-08-05T13:52:51.215Z</time>
      </trkpt>
      <trkpt lat="46.97284" lon="8.77407">
        <ele>637</ele>
        <time>2021-08-05T13:52:52.215Z</time>
      </trkpt>
      <trkpt lat="46.97284" lon="8.77407">
        <ele>637</ele>
        <time>2021-08-05T13:52:53.215Z</time>
      </trkpt>
      <trkpt lat="46.97285" lon="8.77406">
        <ele>638</ele>
        <time>2021-08-05T13:52:54.214Z</time>
      </trkpt>
      <trkpt lat="46.97289" lon="8.77407">
        <ele>641</ele>
        <time>2021-08-05T13:52:55.214Z</time>
      </trkpt>
      <trkpt lat="46.97289" lon="8.77406">
        <ele>641</ele>
        <time>2021-08-05T13:52:56.215Z</time>
      </trkpt>
      <trkpt lat="46.97291" lon="8.77404">
        <ele>641</ele>
        <time>2021-08-05T13:52:57.214Z</time>
      </trkpt>
      <trkpt lat="46.97292" lon="8.77403">
        <ele>640</ele>
        <time>2021-08-05T13:52:58.215Z</time>
      </trkpt>
      <trkpt lat="46.97293" lon="8.77402">
        <ele>640</ele>
        <time>2021-08-05T13:52:59.215Z</time>
      </trkpt>
      <trkpt lat="46.97294" lon="8.77401">
        <ele>639</ele>
        <time>2021-08-05T13:53:00.214Z</time>
      </trkpt>
      <trkpt lat="46.97294" lon="8.77399">
        <ele>638</ele>
        <time>2021-08-05T13:53:01.215Z</time>
      </trkpt>
      <trkpt lat="46.97294" lon="8.77398">
        <ele>638</ele>
        <time>2021-08-05T13:53:02.214Z</time>
      </trkpt>
      <trkpt lat="46.97294" lon="8.77397">
        <ele>637</ele>
        <time>2021-08-05T13:53:03.215Z</time>
      </trkpt>
      <trkpt lat="46.97294" lon="8.77395">
        <ele>637</ele>
        <time>2021-08-05T13:53:04.215Z</time>
      </trkpt>
      <trkpt lat="46.97294" lon="8.77395">
        <ele>636</ele>
        <time>2021-08-05T13:53:05.215Z</time>
      </trkpt>
      <trkpt lat="46.97294" lon="8.77394">
        <ele>636</ele>
        <time>2021-08-05T13:53:06.215Z</time>
      </trkpt>
      <trkpt lat="46.97295" lon="8.77394">
        <ele>636</ele>
        <time>2021-08-05T13:53:07.214Z</time>
      </trkpt>
      <trkpt lat="46.97296" lon="8.77393">
        <ele>635</ele>
        <time>2021-08-05T13:53:08.214Z</time>
      </trkpt>
      <trkpt lat="46.97297" lon="8.77394">
        <ele>635</ele>
        <time>2021-08-05T13:53:09.214Z</time>
      </trkpt>
      <trkpt lat="46.97298" lon="8.77393">
        <ele>635</ele>
        <time>2021-08-05T13:53:10.214Z</time>
      </trkpt>
      <trkpt lat="46.97299" lon="8.77392">
        <ele>635</ele>
        <time>2021-08-05T13:53:11.215Z</time>
      </trkpt>
      <trkpt lat="46.97299" lon="8.77391">
        <ele>634</ele>
        <time>2021-08-05T13:53:12.215Z</time>
      </trkpt>
      <trkpt lat="46.973" lon="8.77391">
        <ele>634</ele>
        <time>2021-08-05T13:53:13.214Z</time>
      </trkpt>
      <trkpt lat="46.97301" lon="8.77391">
        <ele>634</ele>
        <time>2021-08-05T13:53:14.215Z</time>
      </trkpt>
      <trkpt lat="46.97303" lon="8.77392">
        <ele>634</ele>
        <time>2021-08-05T13:53:15.214Z</time>
      </trkpt>
      <trkpt lat="46.97305" lon="8.77393">
        <ele>634</ele>
        <time>2021-08-05T13:53:16.215Z</time>
      </trkpt>
      <trkpt lat="46.97306" lon="8.77395">
        <ele>633</ele>
        <time>2021-08-05T13:53:17.214Z</time>
      </trkpt>
      <trkpt lat="46.97308" lon="8.77396">
        <ele>633</ele>
        <time>2021-08-05T13:53:18.215Z</time>
      </trkpt>
      <trkpt lat="46.97309" lon="8.77398">
        <ele>632</ele>
        <time>2021-08-05T13:53:19.215Z</time>
      </trkpt>
      <trkpt lat="46.97309" lon="8.77399">
        <ele>632</ele>
        <time>2021-08-05T13:53:20.214Z</time>
      </trkpt>
      <trkpt lat="46.97309" lon="8.774">
        <ele>632</ele>
        <time>2021-08-05T13:53:21.214Z</time>
      </trkpt>
      <trkpt lat="46.9731" lon="8.77401">
        <ele>631</ele>
        <time>2021-08-05T13:53:22.215Z</time>
      </trkpt>
      <trkpt lat="46.9731" lon="8.77401">
        <ele>631</ele>
        <time>2021-08-05T13:53:23.215Z</time>
      </trkpt>
      <trkpt lat="46.9731" lon="8.77402">
        <ele>631</ele>
        <time>2021-08-05T13:53:24.215Z</time>
      </trkpt>
      <trkpt lat="46.9731" lon="8.77403">
        <ele>630</ele>
        <time>2021-08-05T13:53:25.214Z</time>
      </trkpt>
      <trkpt lat="46.9731" lon="8.77405">
        <ele>630</ele>
        <time>2021-08-05T13:53:26.214Z</time>
      </trkpt>
      <trkpt lat="46.9731" lon="8.77406">
        <ele>630</ele>
        <time>2021-08-05T13:53:27.215Z</time>
      </trkpt>
      <trkpt lat="46.97311" lon="8.77406">
        <ele>630</ele>
        <time>2021-08-05T13:53:28.214Z</time>
      </trkpt>
      <trkpt lat="46.97312" lon="8.77408">
        <ele>630</ele>
        <time>2021-08-05T13:53:29.215Z</time>
      </trkpt>
      <trkpt lat="46.97312" lon="8.7741">
        <ele>630</ele>
        <time>2021-08-05T13:53:30.215Z</time>
      </trkpt>
      <trkpt lat="46.97312" lon="8.77412">
        <ele>630</ele>
        <time>2021-08-05T13:53:31.215Z</time>
      </trkpt>
      <trkpt lat="46.97312" lon="8.77413">
        <ele>630</ele>
        <time>2021-08-05T13:53:32.214Z</time>
      </trkpt>
      <trkpt lat="46.97313" lon="8.77414">
        <ele>630</ele>
        <time>2021-08-05T13:53:33.214Z</time>
      </trkpt>
      <trkpt lat="46.97313" lon="8.77414">
        <ele>630</ele>
        <time>2021-08-05T13:53:34.214Z</time>
      </trkpt>
      <trkpt lat="46.97314" lon="8.77415">
        <ele>631</ele>
        <time>2021-08-05T13:53:35.215Z</time>
      </trkpt>
      <trkpt lat="46.97316" lon="8.77417">
        <ele>631</ele>
        <time>2021-08-05T13:53:36.214Z</time>
      </trkpt>
      <trkpt lat="46.97317" lon="8.77418">
        <ele>631</ele>
        <time>2021-08-05T13:53:37.215Z</time>
      </trkpt>
      <trkpt lat="46.97317" lon="8.7742">
        <ele>631</ele>
        <time>2021-08-05T13:53:38.215Z</time>
      </trkpt>
      <trkpt lat="46.97317" lon="8.77421">
        <ele>632</ele>
        <time>2021-08-05T13:53:39.215Z</time>
      </trkpt>
      <trkpt lat="46.97316" lon="8.77422">
        <ele>632</ele>
        <time>2021-08-05T13:53:40.214Z</time>
      </trkpt>
      <trkpt lat="46.97316" lon="8.77422">
        <ele>632</ele>
        <time>2021-08-05T13:53:41.215Z</time>
      </trkpt>
      <trkpt lat="46.97316" lon="8.77422">
        <ele>633</ele>
        <time>2021-08-05T13:53:42.214Z</time>
      </trkpt>
      <trkpt lat="46.97317" lon="8.77423">
        <ele>633</ele>
        <time>2021-08-05T13:53:43.215Z</time>
      </trkpt>
      <trkpt lat="46.9732" lon="8.77423">
        <ele>635</ele>
        <time>2021-08-05T13:53:44.216Z</time>
      </trkpt>
      <trkpt lat="46.97319" lon="8.77423">
        <ele>635</ele>
        <time>2021-08-05T13:53:45.216Z</time>
      </trkpt>
      <trkpt lat="46.97319" lon="8.77423">
        <ele>634</ele>
        <time>2021-08-05T13:53:46.215Z</time>
      </trkpt>
      <trkpt lat="46.97321" lon="8.77423">
        <ele>634</ele>
        <time>2021-08-05T13:53:47.216Z</time>
      </trkpt>
      <trkpt lat="46.97322" lon="8.77423">
        <ele>634</ele>
        <time>2021-08-05T13:53:48.216Z</time>
      </trkpt>
      <trkpt lat="46.97322" lon="8.77424">
        <ele>634</ele>
        <time>2021-08-05T13:53:49.215Z</time>
      </trkpt>
      <trkpt lat="46.97322" lon="8.77424">
        <ele>633</ele>
        <time>2021-08-05T13:53:50.216Z</time>
      </trkpt>
      <trkpt lat="46.97322" lon="8.77424">
        <ele>633</ele>
        <time>2021-08-05T13:53:51.216Z</time>
      </trkpt>
      <trkpt lat="46.97322" lon="8.77425">
        <ele>633</ele>
        <time>2021-08-05T13:53:52.215Z</time>
      </trkpt>
      <trkpt lat="46.97322" lon="8.77426">
        <ele>632</ele>
        <time>2021-08-05T13:53:53.215Z</time>
      </trkpt>
      <trkpt lat="46.97322" lon="8.77426">
        <ele>632</ele>
        <time>2021-08-05T13:53:54.216Z</time>
      </trkpt>
      <trkpt lat="46.97322" lon="8.77427">
        <ele>632</ele>
        <time>2021-08-05T13:53:55.216Z</time>
      </trkpt>
      <trkpt lat="46.97321" lon="8.77428">
        <ele>631</ele>
        <time>2021-08-05T13:53:56.216Z</time>
      </trkpt>
      <trkpt lat="46.97321" lon="8.77429">
        <ele>631</ele>
        <time>2021-08-05T13:53:57.216Z</time>
      </trkpt>
      <trkpt lat="46.97322" lon="8.7743">
        <ele>630</ele>
        <time>2021-08-05T13:53:58.216Z</time>
      </trkpt>
      <trkpt lat="46.97322" lon="8.77431">
        <ele>629</ele>
        <time>2021-08-05T13:53:59.216Z</time>
      </trkpt>
      <trkpt lat="46.97323" lon="8.77432">
        <ele>629</ele>
        <time>2021-08-05T13:54:00.216Z</time>
      </trkpt>
      <trkpt lat="46.97324" lon="8.77433">
        <ele>629</ele>
        <time>2021-08-05T13:54:01.215Z</time>
      </trkpt>
      <trkpt lat="46.97325" lon="8.77434">
        <ele>628</ele>
        <time>2021-08-05T13:54:02.216Z</time>
      </trkpt>
      <trkpt lat="46.97325" lon="8.77434">
        <ele>628</ele>
        <time>2021-08-05T13:54:03.216Z</time>
      </trkpt>
      <trkpt lat="46.97326" lon="8.77434">
        <ele>628</ele>
        <time>2021-08-05T13:54:04.215Z</time>
      </trkpt>
      <trkpt lat="46.97327" lon="8.77435">
        <ele>628</ele>
        <time>2021-08-05T13:54:05.216Z</time>
      </trkpt>
      <trkpt lat="46.97328" lon="8.77435">
        <ele>628</ele>
        <time>2021-08-05T13:54:06.215Z</time>
      </trkpt>
      <trkpt lat="46.97329" lon="8.77435">
        <ele>628</ele>
        <time>2021-08-05T13:54:07.216Z</time>
      </trkpt>
      <trkpt lat="46.9733" lon="8.77435">
        <ele>628</ele>
        <time>2021-08-05T13:54:08.216Z</time>
      </trkpt>
      <trkpt lat="46.97331" lon="8.77435">
        <ele>628</ele>
        <time>2021-08-05T13:54:09.216Z</time>
      </trkpt>
      <trkpt lat="46.97331" lon="8.77435">
        <ele>628</ele>
        <time>2021-08-05T13:54:10.216Z</time>
      </trkpt>
      <trkpt lat="46.97332" lon="8.77435">
        <ele>628</ele>
        <time>2021-08-05T13:54:11.216Z</time>
      </trkpt>
      <trkpt lat="46.97334" lon="8.77435">
        <ele>628</ele>
        <time>2021-08-05T13:54:12.215Z</time>
      </trkpt>
      <trkpt lat="46.97335" lon="8.77435">
        <ele>628</ele>
        <time>2021-08-05T13:54:13.216Z</time>
      </trkpt>
      <trkpt lat="46.97336" lon="8.77435">
        <ele>628</ele>
        <time>2021-08-05T13:54:14.216Z</time>
      </trkpt>
      <trkpt lat="46.97336" lon="8.77434">
        <ele>628</ele>
        <time>2021-08-05T13:54:15.215Z</time>
      </trkpt>
      <trkpt lat="46.97337" lon="8.77434">
        <ele>628</ele>
        <time>2021-08-05T13:54:16.216Z</time>
      </trkpt>
      <trkpt lat="46.97338" lon="8.77435">
        <ele>628</ele>
        <time>2021-08-05T13:54:17.216Z</time>
      </trkpt>
      <trkpt lat="46.97339" lon="8.77435">
        <ele>628</ele>
        <time>2021-08-05T13:54:18.216Z</time>
      </trkpt>
      <trkpt lat="46.97339" lon="8.77437">
        <ele>628</ele>
        <time>2021-08-05T13:54:19.216Z</time>
      </trkpt>
      <trkpt lat="46.97339" lon="8.77438">
        <ele>628</ele>
        <time>2021-08-05T13:54:20.215Z</time>
      </trkpt>
      <trkpt lat="46.97338" lon="8.77439">
        <ele>627</ele>
        <time>2021-08-05T13:54:21.216Z</time>
      </trkpt>
      <trkpt lat="46.97338" lon="8.7744">
        <ele>627</ele>
        <time>2021-08-05T13:54:22.215Z</time>
      </trkpt>
      <trkpt lat="46.97338" lon="8.77441">
        <ele>626</ele>
        <time>2021-08-05T13:54:23.215Z</time>
      </trkpt>
      <trkpt lat="46.97338" lon="8.77443">
        <ele>626</ele>
        <time>2021-08-05T13:54:24.216Z</time>
      </trkpt>
      <trkpt lat="46.97339" lon="8.77444">
        <ele>625</ele>
        <time>2021-08-05T13:54:25.216Z</time>
      </trkpt>
      <trkpt lat="46.97339" lon="8.77446">
        <ele>625</ele>
        <time>2021-08-05T13:54:26.215Z</time>
      </trkpt>
      <trkpt lat="46.97339" lon="8.77448">
        <ele>625</ele>
        <time>2021-08-05T13:54:27.216Z</time>
      </trkpt>
      <trkpt lat="46.97339" lon="8.77449">
        <ele>625</ele>
        <time>2021-08-05T13:54:28.216Z</time>
      </trkpt>
      <trkpt lat="46.9734" lon="8.77451">
        <ele>625</ele>
        <time>2021-08-05T13:54:29.216Z</time>
      </trkpt>
      <trkpt lat="46.9734" lon="8.77453">
        <ele>626</ele>
        <time>2021-08-05T13:54:30.216Z</time>
      </trkpt>
      <trkpt lat="46.97341" lon="8.77455">
        <ele>626</ele>
        <time>2021-08-05T13:54:31.216Z</time>
      </trkpt>
      <trkpt lat="46.97341" lon="8.77456">
        <ele>626</ele>
        <time>2021-08-05T13:54:32.216Z</time>
      </trkpt>
      <trkpt lat="46.97342" lon="8.77458">
        <ele>626</ele>
        <time>2021-08-05T13:54:33.216Z</time>
      </trkpt>
      <trkpt lat="46.97342" lon="8.7746">
        <ele>627</ele>
        <time>2021-08-05T13:54:34.216Z</time>
      </trkpt>
      <trkpt lat="46.97342" lon="8.77461">
        <ele>627</ele>
        <time>2021-08-05T13:54:35.215Z</time>
      </trkpt>
      <trkpt lat="46.97343" lon="8.77463">
        <ele>627</ele>
        <time>2021-08-05T13:54:36.216Z</time>
      </trkpt>
      <trkpt lat="46.97343" lon="8.77464">
        <ele>627</ele>
        <time>2021-08-05T13:54:37.216Z</time>
      </trkpt>
      <trkpt lat="46.97344" lon="8.77465">
        <ele>626</ele>
        <time>2021-08-05T13:54:38.216Z</time>
      </trkpt>
      <trkpt lat="46.97344" lon="8.77467">
        <ele>626</ele>
        <time>2021-08-05T13:54:39.216Z</time>
      </trkpt>
      <trkpt lat="46.97344" lon="8.77468">
        <ele>626</ele>
        <time>2021-08-05T13:54:40.216Z</time>
      </trkpt>
      <trkpt lat="46.97344" lon="8.7747">
        <ele>626</ele>
        <time>2021-08-05T13:54:41.216Z</time>
      </trkpt>
      <trkpt lat="46.97345" lon="8.77471">
        <ele>626</ele>
        <time>2021-08-05T13:54:42.216Z</time>
      </trkpt>
      <trkpt lat="46.97345" lon="8.77473">
        <ele>626</ele>
        <time>2021-08-05T13:54:43.215Z</time>
      </trkpt>
      <trkpt lat="46.97345" lon="8.77475">
        <ele>626</ele>
        <time>2021-08-05T13:54:44.215Z</time>
      </trkpt>
      <trkpt lat="46.97345" lon="8.77477">
        <ele>627</ele>
        <time>2021-08-05T13:54:45.216Z</time>
      </trkpt>
      <trkpt lat="46.97346" lon="8.77478">
        <ele>626</ele>
        <time>2021-08-05T13:54:46.216Z</time>
      </trkpt>
      <trkpt lat="46.97346" lon="8.7748">
        <ele>626</ele>
        <time>2021-08-05T13:54:47.215Z</time>
      </trkpt>
      <trkpt lat="46.97346" lon="8.77482">
        <ele>626</ele>
        <time>2021-08-05T13:54:48.215Z</time>
      </trkpt>
      <trkpt lat="46.97347" lon="8.77484">
        <ele>626</ele>
        <time>2021-08-05T13:54:49.216Z</time>
      </trkpt>
      <trkpt lat="46.97347" lon="8.77485">
        <ele>626</ele>
        <time>2021-08-05T13:54:50.215Z</time>
      </trkpt>
      <trkpt lat="46.97347" lon="8.77487">
        <ele>626</ele>
        <time>2021-08-05T13:54:51.216Z</time>
      </trkpt>
      <trkpt lat="46.97347" lon="8.77489">
        <ele>625</ele>
        <time>2021-08-05T13:54:52.216Z</time>
      </trkpt>
      <trkpt lat="46.97348" lon="8.7749">
        <ele>625</ele>
        <time>2021-08-05T13:54:53.216Z</time>
      </trkpt>
      <trkpt lat="46.97348" lon="8.77492">
        <ele>625</ele>
        <time>2021-08-05T13:54:54.216Z</time>
      </trkpt>
      <trkpt lat="46.97349" lon="8.77494">
        <ele>626</ele>
        <time>2021-08-05T13:54:55.215Z</time>
      </trkpt>
      <trkpt lat="46.97349" lon="8.77496">
        <ele>625</ele>
        <time>2021-08-05T13:54:56.216Z</time>
      </trkpt>
      <trkpt lat="46.97349" lon="8.77497">
        <ele>625</ele>
        <time>2021-08-05T13:54:57.215Z</time>
      </trkpt>
      <trkpt lat="46.97349" lon="8.77499">
        <ele>625</ele>
        <time>2021-08-05T13:54:58.216Z</time>
      </trkpt>
      <trkpt lat="46.97349" lon="8.775">
        <ele>625</ele>
        <time>2021-08-05T13:54:59.216Z</time>
      </trkpt>
      <trkpt lat="46.9735" lon="8.77502">
        <ele>625</ele>
        <time>2021-08-05T13:55:00.216Z</time>
      </trkpt>
      <trkpt lat="46.9735" lon="8.77503">
        <ele>625</ele>
        <time>2021-08-05T13:55:01.215Z</time>
      </trkpt>
      <trkpt lat="46.9735" lon="8.77505">
        <ele>624</ele>
        <time>2021-08-05T13:55:02.216Z</time>
      </trkpt>
      <trkpt lat="46.97351" lon="8.77506">
        <ele>624</ele>
        <time>2021-08-05T13:55:03.216Z</time>
      </trkpt>
      <trkpt lat="46.97351" lon="8.77508">
        <ele>624</ele>
        <time>2021-08-05T13:55:04.215Z</time>
      </trkpt>
      <trkpt lat="46.97351" lon="8.7751">
        <ele>624</ele>
        <time>2021-08-05T13:55:05.216Z</time>
      </trkpt>
      <trkpt lat="46.97352" lon="8.77511">
        <ele>624</ele>
        <time>2021-08-05T13:55:06.215Z</time>
      </trkpt>
      <trkpt lat="46.97352" lon="8.77513">
        <ele>624</ele>
        <time>2021-08-05T13:55:07.216Z</time>
      </trkpt>
      <trkpt lat="46.97352" lon="8.77514">
        <ele>624</ele>
        <time>2021-08-05T13:55:08.216Z</time>
      </trkpt>
      <trkpt lat="46.97352" lon="8.77515">
        <ele>624</ele>
        <time>2021-08-05T13:55:09.216Z</time>
      </trkpt>
      <trkpt lat="46.97352" lon="8.77517">
        <ele>624</ele>
        <time>2021-08-05T13:55:10.215Z</time>
      </trkpt>
      <trkpt lat="46.97352" lon="8.77519">
        <ele>624</ele>
        <time>2021-08-05T13:55:11.215Z</time>
      </trkpt>
      <trkpt lat="46.97353" lon="8.77521">
        <ele>624</ele>
        <time>2021-08-05T13:55:12.216Z</time>
      </trkpt>
      <trkpt lat="46.97353" lon="8.77522">
        <ele>624</ele>
        <time>2021-08-05T13:55:13.216Z</time>
      </trkpt>
      <trkpt lat="46.97354" lon="8.77524">
        <ele>624</ele>
        <time>2021-08-05T13:55:14.216Z</time>
      </trkpt>
      <trkpt lat="46.97354" lon="8.77527">
        <ele>625</ele>
        <time>2021-08-05T13:55:15.216Z</time>
      </trkpt>
      <trkpt lat="46.97354" lon="8.77528">
        <ele>625</ele>
        <time>2021-08-05T13:55:16.216Z</time>
      </trkpt>
      <trkpt lat="46.97354" lon="8.77532">
        <ele>625</ele>
        <time>2021-08-05T13:55:17.216Z</time>
      </trkpt>
      <trkpt lat="46.97354" lon="8.77535">
        <ele>625</ele>
        <time>2021-08-05T13:55:18.216Z</time>
      </trkpt>
      <trkpt lat="46.97353" lon="8.77538">
        <ele>626</ele>
        <time>2021-08-05T13:55:19.216Z</time>
      </trkpt>
      <trkpt lat="46.97354" lon="8.7754">
        <ele>626</ele>
        <time>2021-08-05T13:55:20.215Z</time>
      </trkpt>
      <trkpt lat="46.97354" lon="8.77542">
        <ele>626</ele>
        <time>2021-08-05T13:55:21.215Z</time>
      </trkpt>
      <trkpt lat="46.97354" lon="8.77544">
        <ele>627</ele>
        <time>2021-08-05T13:55:22.216Z</time>
      </trkpt>
      <trkpt lat="46.97355" lon="8.77546">
        <ele>627</ele>
        <time>2021-08-05T13:55:23.216Z</time>
      </trkpt>
      <trkpt lat="46.97355" lon="8.77547">
        <ele>627</ele>
        <time>2021-08-05T13:55:24.216Z</time>
      </trkpt>
      <trkpt lat="46.97355" lon="8.77549">
        <ele>626</ele>
        <time>2021-08-05T13:55:25.216Z</time>
      </trkpt>
      <trkpt lat="46.97355" lon="8.7755">
        <ele>626</ele>
        <time>2021-08-05T13:55:26.215Z</time>
      </trkpt>
      <trkpt lat="46.97355" lon="8.77552">
        <ele>626</ele>
        <time>2021-08-05T13:55:27.216Z</time>
      </trkpt>
      <trkpt lat="46.97356" lon="8.77554">
        <ele>626</ele>
        <time>2021-08-05T13:55:28.216Z</time>
      </trkpt>
      <trkpt lat="46.97356" lon="8.77555">
        <ele>626</ele>
        <time>2021-08-05T13:55:29.216Z</time>
      </trkpt>
      <trkpt lat="46.97356" lon="8.77556">
        <ele>625</ele>
        <time>2021-08-05T13:55:30.215Z</time>
      </trkpt>
      <trkpt lat="46.97357" lon="8.77557">
        <ele>625</ele>
        <time>2021-08-05T13:55:31.216Z</time>
      </trkpt>
      <trkpt lat="46.97357" lon="8.77559">
        <ele>625</ele>
        <time>2021-08-05T13:55:32.215Z</time>
      </trkpt>
      <trkpt lat="46.97358" lon="8.77561">
        <ele>624</ele>
        <time>2021-08-05T13:55:33.216Z</time>
      </trkpt>
      <trkpt lat="46.97358" lon="8.77562">
        <ele>625</ele>
        <time>2021-08-05T13:55:34.216Z</time>
      </trkpt>
      <trkpt lat="46.97359" lon="8.77564">
        <ele>625</ele>
        <time>2021-08-05T13:55:35.215Z</time>
      </trkpt>
      <trkpt lat="46.97359" lon="8.77565">
        <ele>625</ele>
        <time>2021-08-05T13:55:36.216Z</time>
      </trkpt>
      <trkpt lat="46.9736" lon="8.77567">
        <ele>626</ele>
        <time>2021-08-05T13:55:37.216Z</time>
      </trkpt>
      <trkpt lat="46.97361" lon="8.77568">
        <ele>626</ele>
        <time>2021-08-05T13:55:38.216Z</time>
      </trkpt>
      <trkpt lat="46.97361" lon="8.77569">
        <ele>626</ele>
        <time>2021-08-05T13:55:39.215Z</time>
      </trkpt>
      <trkpt lat="46.97362" lon="8.77571">
        <ele>626</ele>
        <time>2021-08-05T13:55:40.216Z</time>
      </trkpt>
      <trkpt lat="46.97363" lon="8.77573">
        <ele>626</ele>
        <time>2021-08-05T13:55:41.216Z</time>
      </trkpt>
      <trkpt lat="46.97364" lon="8.77575">
        <ele>626</ele>
        <time>2021-08-05T13:55:42.216Z</time>
      </trkpt>
      <trkpt lat="46.97364" lon="8.77576">
        <ele>626</ele>
        <time>2021-08-05T13:55:43.215Z</time>
      </trkpt>
      <trkpt lat="46.97365" lon="8.77577">
        <ele>626</ele>
        <time>2021-08-05T13:55:44.215Z</time>
      </trkpt>
      <trkpt lat="46.97364" lon="8.77579">
        <ele>626</ele>
        <time>2021-08-05T13:55:45.216Z</time>
      </trkpt>
      <trkpt lat="46.97365" lon="8.77581">
        <ele>626</ele>
        <time>2021-08-05T13:55:46.215Z</time>
      </trkpt>
      <trkpt lat="46.97365" lon="8.77583">
        <ele>626</ele>
        <time>2021-08-05T13:55:47.216Z</time>
      </trkpt>
      <trkpt lat="46.97365" lon="8.77585">
        <ele>625</ele>
        <time>2021-08-05T13:55:48.216Z</time>
      </trkpt>
      <trkpt lat="46.97365" lon="8.77586">
        <ele>625</ele>
        <time>2021-08-05T13:55:49.215Z</time>
      </trkpt>
      <trkpt lat="46.97365" lon="8.77588">
        <ele>625</ele>
        <time>2021-08-05T13:55:50.215Z</time>
      </trkpt>
      <trkpt lat="46.97366" lon="8.7759">
        <ele>625</ele>
        <time>2021-08-05T13:55:51.215Z</time>
      </trkpt>
      <trkpt lat="46.97365" lon="8.77593">
        <ele>625</ele>
        <time>2021-08-05T13:55:52.215Z</time>
      </trkpt>
      <trkpt lat="46.97365" lon="8.77595">
        <ele>625</ele>
        <time>2021-08-05T13:55:53.215Z</time>
      </trkpt>
      <trkpt lat="46.97364" lon="8.77597">
        <ele>625</ele>
        <time>2021-08-05T13:55:54.215Z</time>
      </trkpt>
      <trkpt lat="46.97364" lon="8.77599">
        <ele>625</ele>
        <time>2021-08-05T13:55:55.215Z</time>
      </trkpt>
      <trkpt lat="46.97363" lon="8.77601">
        <ele>625</ele>
        <time>2021-08-05T13:55:56.215Z</time>
      </trkpt>
      <trkpt lat="46.97363" lon="8.77602">
        <ele>625</ele>
        <time>2021-08-05T13:55:57.215Z</time>
      </trkpt>
      <trkpt lat="46.97363" lon="8.77603">
        <ele>624</ele>
        <time>2021-08-05T13:55:58.215Z</time>
      </trkpt>
      <trkpt lat="46.97363" lon="8.77605">
        <ele>624</ele>
        <time>2021-08-05T13:55:59.216Z</time>
      </trkpt>
      <trkpt lat="46.97363" lon="8.77606">
        <ele>624</ele>
        <time>2021-08-05T13:56:00.216Z</time>
      </trkpt>
      <trkpt lat="46.97364" lon="8.77608">
        <ele>624</ele>
        <time>2021-08-05T13:56:01.216Z</time>
      </trkpt>
      <trkpt lat="46.97364" lon="8.77609">
        <ele>624</ele>
        <time>2021-08-05T13:56:02.216Z</time>
      </trkpt>
      <trkpt lat="46.97364" lon="8.77612">
        <ele>624</ele>
        <time>2021-08-05T13:56:03.216Z</time>
      </trkpt>
      <trkpt lat="46.97364" lon="8.77614">
        <ele>624</ele>
        <time>2021-08-05T13:56:04.216Z</time>
      </trkpt>
      <trkpt lat="46.97364" lon="8.77616">
        <ele>623</ele>
        <time>2021-08-05T13:56:05.215Z</time>
      </trkpt>
      <trkpt lat="46.97363" lon="8.77618">
        <ele>623</ele>
        <time>2021-08-05T13:56:06.216Z</time>
      </trkpt>
      <trkpt lat="46.97363" lon="8.77619">
        <ele>623</ele>
        <time>2021-08-05T13:56:07.216Z</time>
      </trkpt>
      <trkpt lat="46.97364" lon="8.77621">
        <ele>623</ele>
        <time>2021-08-05T13:56:08.216Z</time>
      </trkpt>
      <trkpt lat="46.97364" lon="8.77622">
        <ele>623</ele>
        <time>2021-08-05T13:56:09.216Z</time>
      </trkpt>
      <trkpt lat="46.97364" lon="8.77624">
        <ele>623</ele>
        <time>2021-08-05T13:56:10.216Z</time>
      </trkpt>
      <trkpt lat="46.97364" lon="8.77625">
        <ele>624</ele>
        <time>2021-08-05T13:56:11.215Z</time>
      </trkpt>
      <trkpt lat="46.97364" lon="8.77627">
        <ele>624</ele>
        <time>2021-08-05T13:56:12.216Z</time>
      </trkpt>
      <trkpt lat="46.97364" lon="8.77627">
        <ele>624</ele>
        <time>2021-08-05T13:56:13.216Z</time>
      </trkpt>
      <trkpt lat="46.97364" lon="8.77629">
        <ele>624</ele>
        <time>2021-08-05T13:56:14.216Z</time>
      </trkpt>
      <trkpt lat="46.97364" lon="8.7763">
        <ele>624</ele>
        <time>2021-08-05T13:56:15.215Z</time>
      </trkpt>
      <trkpt lat="46.97364" lon="8.77632">
        <ele>623</ele>
        <time>2021-08-05T13:56:16.215Z</time>
      </trkpt>
      <trkpt lat="46.97364" lon="8.77634">
        <ele>623</ele>
        <time>2021-08-05T13:56:17.216Z</time>
      </trkpt>
      <trkpt lat="46.97363" lon="8.77635">
        <ele>622</ele>
        <time>2021-08-05T13:56:18.215Z</time>
      </trkpt>
      <trkpt lat="46.97364" lon="8.77637">
        <ele>622</ele>
        <time>2021-08-05T13:56:19.216Z</time>
      </trkpt>
      <trkpt lat="46.97364" lon="8.77638">
        <ele>621</ele>
        <time>2021-08-05T13:56:20.216Z</time>
      </trkpt>
      <trkpt lat="46.97364" lon="8.77639">
        <ele>621</ele>
        <time>2021-08-05T13:56:21.215Z</time>
      </trkpt>
      <trkpt lat="46.97363" lon="8.77641">
        <ele>621</ele>
        <time>2021-08-05T13:56:22.215Z</time>
      </trkpt>
      <trkpt lat="46.97363" lon="8.77643">
        <ele>620</ele>
        <time>2021-08-05T13:56:23.216Z</time>
      </trkpt>
      <trkpt lat="46.97363" lon="8.77644">
        <ele>620</ele>
        <time>2021-08-05T13:56:24.216Z</time>
      </trkpt>
      <trkpt lat="46.97363" lon="8.77646">
        <ele>620</ele>
        <time>2021-08-05T13:56:25.215Z</time>
      </trkpt>
      <trkpt lat="46.97363" lon="8.77647">
        <ele>621</ele>
        <time>2021-08-05T13:56:26.215Z</time>
      </trkpt>
      <trkpt lat="46.97362" lon="8.7765">
        <ele>621</ele>
        <time>2021-08-05T13:56:27.216Z</time>
      </trkpt>
      <trkpt lat="46.97362" lon="8.77651">
        <ele>621</ele>
        <time>2021-08-05T13:56:28.216Z</time>
      </trkpt>
      <trkpt lat="46.97362" lon="8.77653">
        <ele>621</ele>
        <time>2021-08-05T13:56:29.215Z</time>
      </trkpt>
      <trkpt lat="46.97362" lon="8.77654">
        <ele>622</ele>
        <time>2021-08-05T13:56:30.216Z</time>
      </trkpt>
      <trkpt lat="46.97362" lon="8.77656">
        <ele>622</ele>
        <time>2021-08-05T13:56:31.216Z</time>
      </trkpt>
      <trkpt lat="46.97362" lon="8.77658">
        <ele>622</ele>
        <time>2021-08-05T13:56:32.216Z</time>
      </trkpt>
      <trkpt lat="46.97361" lon="8.77661">
        <ele>623</ele>
        <time>2021-08-05T13:56:33.216Z</time>
      </trkpt>
      <trkpt lat="46.97361" lon="8.77662">
        <ele>623</ele>
        <time>2021-08-05T13:56:34.216Z</time>
      </trkpt>
      <trkpt lat="46.97361" lon="8.77664">
        <ele>623</ele>
        <time>2021-08-05T13:56:35.216Z</time>
      </trkpt>
      <trkpt lat="46.9736" lon="8.77665">
        <ele>623</ele>
        <time>2021-08-05T13:56:36.215Z</time>
      </trkpt>
      <trkpt lat="46.97359" lon="8.77666">
        <ele>624</ele>
        <time>2021-08-05T13:56:37.216Z</time>
      </trkpt>
      <trkpt lat="46.97358" lon="8.77668">
        <ele>624</ele>
        <time>2021-08-05T13:56:38.216Z</time>
      </trkpt>
      <trkpt lat="46.97359" lon="8.7767">
        <ele>624</ele>
        <time>2021-08-05T13:56:39.216Z</time>
      </trkpt>
      <trkpt lat="46.97358" lon="8.77672">
        <ele>625</ele>
        <time>2021-08-05T13:56:40.216Z</time>
      </trkpt>
      <trkpt lat="46.97357" lon="8.77674">
        <ele>625</ele>
        <time>2021-08-05T13:56:41.216Z</time>
      </trkpt>
      <trkpt lat="46.97357" lon="8.77676">
        <ele>624</ele>
        <time>2021-08-05T13:56:42.216Z</time>
      </trkpt>
      <trkpt lat="46.97357" lon="8.77678">
        <ele>624</ele>
        <time>2021-08-05T13:56:43.215Z</time>
      </trkpt>
      <trkpt lat="46.97356" lon="8.7768">
        <ele>624</ele>
        <time>2021-08-05T13:56:54.212Z</time>
      </trkpt>
      <trkpt lat="46.97356" lon="8.77682">
        <ele>625</ele>
        <time>2021-08-05T13:56:58.094Z</time>
      </trkpt>
      <trkpt lat="46.97356" lon="8.77683">
        <ele>625</ele>
        <time>2021-08-05T13:56:59.094Z</time>
      </trkpt>
      <trkpt lat="46.97355" lon="8.77685">
        <ele>625</ele>
        <time>2021-08-05T13:57:00.093Z</time>
      </trkpt>
      <trkpt lat="46.97355" lon="8.77686">
        <ele>626</ele>
        <time>2021-08-05T13:57:01.093Z</time>
      </trkpt>
      <trkpt lat="46.97354" lon="8.77688">
        <ele>626</ele>
        <time>2021-08-05T13:57:02.093Z</time>
      </trkpt>
      <trkpt lat="46.97354" lon="8.7769">
        <ele>626</ele>
        <time>2021-08-05T13:57:03.093Z</time>
      </trkpt>
      <trkpt lat="46.97354" lon="8.77692">
        <ele>626</ele>
        <time>2021-08-05T13:57:04.094Z</time>
      </trkpt>
      <trkpt lat="46.97353" lon="8.77693">
        <ele>626</ele>
        <time>2021-08-05T13:57:05.093Z</time>
      </trkpt>
      <trkpt lat="46.97353" lon="8.77695">
        <ele>626</ele>
        <time>2021-08-05T13:57:06.093Z</time>
      </trkpt>
      <trkpt lat="46.97353" lon="8.77697">
        <ele>626</ele>
        <time>2021-08-05T13:57:07.093Z</time>
      </trkpt>
      <trkpt lat="46.97353" lon="8.77699">
        <ele>625</ele>
        <time>2021-08-05T13:57:08.093Z</time>
      </trkpt>
      <trkpt lat="46.97352" lon="8.777">
        <ele>624</ele>
        <time>2021-08-05T13:57:09.094Z</time>
      </trkpt>
      <trkpt lat="46.97352" lon="8.77702">
        <ele>624</ele>
        <time>2021-08-05T13:57:10.093Z</time>
      </trkpt>
      <trkpt lat="46.97352" lon="8.77703">
        <ele>624</ele>
        <time>2021-08-05T13:57:11.093Z</time>
      </trkpt>
      <trkpt lat="46.97351" lon="8.77705">
        <ele>624</ele>
        <time>2021-08-05T13:57:12.093Z</time>
      </trkpt>
      <trkpt lat="46.97351" lon="8.77706">
        <ele>624</ele>
        <time>2021-08-05T13:57:13.093Z</time>
      </trkpt>
      <trkpt lat="46.97351" lon="8.77708">
        <ele>624</ele>
        <time>2021-08-05T13:57:14.093Z</time>
      </trkpt>
      <trkpt lat="46.97351" lon="8.77709">
        <ele>624</ele>
        <time>2021-08-05T13:57:15.093Z</time>
      </trkpt>
      <trkpt lat="46.9735" lon="8.77711">
        <ele>624</ele>
        <time>2021-08-05T13:57:16.093Z</time>
      </trkpt>
      <trkpt lat="46.97349" lon="8.77712">
        <ele>625</ele>
        <time>2021-08-05T13:57:17.093Z</time>
      </trkpt>
      <trkpt lat="46.97349" lon="8.77714">
        <ele>625</ele>
        <time>2021-08-05T13:57:18.093Z</time>
      </trkpt>
      <trkpt lat="46.97349" lon="8.77715">
        <ele>626</ele>
        <time>2021-08-05T13:57:19.093Z</time>
      </trkpt>
      <trkpt lat="46.97348" lon="8.77717">
        <ele>627</ele>
        <time>2021-08-05T13:57:26.210Z</time>
      </trkpt>
      <trkpt lat="46.97348" lon="8.77719">
        <ele>628</ele>
        <time>2021-08-05T13:57:40.117Z</time>
      </trkpt>
      <trkpt lat="46.97348" lon="8.7772">
        <ele>628</ele>
        <time>2021-08-05T13:57:41.965Z</time>
      </trkpt>
      <trkpt lat="46.97348" lon="8.77721">
        <ele>629</ele>
        <time>2021-08-05T13:57:42.965Z</time>
      </trkpt>
      <trkpt lat="46.97348" lon="8.77722">
        <ele>629</ele>
        <time>2021-08-05T13:57:43.966Z</time>
      </trkpt>
      <trkpt lat="46.97348" lon="8.77723">
        <ele>629</ele>
        <time>2021-08-05T13:57:44.965Z</time>
      </trkpt>
      <trkpt lat="46.97347" lon="8.77725">
        <ele>630</ele>
        <time>2021-08-05T13:57:45.965Z</time>
      </trkpt>
      <trkpt lat="46.97347" lon="8.77727">
        <ele>630</ele>
        <time>2021-08-05T13:57:46.965Z</time>
      </trkpt>
      <trkpt lat="46.97347" lon="8.77728">
        <ele>630</ele>
        <time>2021-08-05T13:57:47.966Z</time>
      </trkpt>
      <trkpt lat="46.97347" lon="8.77729">
        <ele>630</ele>
        <time>2021-08-05T13:57:48.966Z</time>
      </trkpt>
      <trkpt lat="46.97346" lon="8.77731">
        <ele>631</ele>
        <time>2021-08-05T13:57:49.966Z</time>
      </trkpt>
      <trkpt lat="46.97346" lon="8.77732">
        <ele>631</ele>
        <time>2021-08-05T13:57:50.965Z</time>
      </trkpt>
      <trkpt lat="46.97345" lon="8.77733">
        <ele>631</ele>
        <time>2021-08-05T13:57:51.965Z</time>
      </trkpt>
      <trkpt lat="46.97345" lon="8.77735">
        <ele>631</ele>
        <time>2021-08-05T13:57:52.965Z</time>
      </trkpt>
      <trkpt lat="46.97345" lon="8.77736">
        <ele>631</ele>
        <time>2021-08-05T13:57:53.965Z</time>
      </trkpt>
      <trkpt lat="46.97345" lon="8.77737">
        <ele>632</ele>
        <time>2021-08-05T13:57:54.966Z</time>
      </trkpt>
      <trkpt lat="46.97346" lon="8.7774">
        <ele>632</ele>
        <time>2021-08-05T13:57:55.966Z</time>
      </trkpt>
      <trkpt lat="46.97347" lon="8.77742">
        <ele>632</ele>
        <time>2021-08-05T13:57:56.966Z</time>
      </trkpt>
      <trkpt lat="46.97347" lon="8.77743">
        <ele>632</ele>
        <time>2021-08-05T13:57:57.966Z</time>
      </trkpt>
      <trkpt lat="46.97347" lon="8.77745">
        <ele>632</ele>
        <time>2021-08-05T13:57:58.965Z</time>
      </trkpt>
      <trkpt lat="46.97348" lon="8.77746">
        <ele>632</ele>
        <time>2021-08-05T13:57:59.965Z</time>
      </trkpt>
      <trkpt lat="46.97348" lon="8.77748">
        <ele>632</ele>
        <time>2021-08-05T13:58:00.966Z</time>
      </trkpt>
      <trkpt lat="46.97347" lon="8.77751">
        <ele>632</ele>
        <time>2021-08-05T13:58:01.965Z</time>
      </trkpt>
      <trkpt lat="46.97347" lon="8.77753">
        <ele>632</ele>
        <time>2021-08-05T13:58:02.966Z</time>
      </trkpt>
      <trkpt lat="46.97347" lon="8.77754">
        <ele>632</ele>
        <time>2021-08-05T13:58:03.966Z</time>
      </trkpt>
      <trkpt lat="46.97347" lon="8.77756">
        <ele>632</ele>
        <time>2021-08-05T13:58:04.965Z</time>
      </trkpt>
      <trkpt lat="46.97346" lon="8.77758">
        <ele>632</ele>
        <time>2021-08-05T13:58:05.966Z</time>
      </trkpt>
      <trkpt lat="46.97345" lon="8.77759">
        <ele>632</ele>
        <time>2021-08-05T13:58:06.966Z</time>
      </trkpt>
      <trkpt lat="46.97344" lon="8.77761">
        <ele>631</ele>
        <time>2021-08-05T13:58:07.966Z</time>
      </trkpt>
      <trkpt lat="46.97344" lon="8.77763">
        <ele>631</ele>
        <time>2021-08-05T13:58:08.966Z</time>
      </trkpt>
      <trkpt lat="46.97342" lon="8.77764">
        <ele>631</ele>
        <time>2021-08-05T13:58:09.966Z</time>
      </trkpt>
      <trkpt lat="46.97341" lon="8.77766">
        <ele>630</ele>
        <time>2021-08-05T13:58:10.966Z</time>
      </trkpt>
      <trkpt lat="46.97341" lon="8.77767">
        <ele>630</ele>
        <time>2021-08-05T13:58:11.966Z</time>
      </trkpt>
      <trkpt lat="46.97341" lon="8.77768">
        <ele>630</ele>
        <time>2021-08-05T13:58:12.966Z</time>
      </trkpt>
      <trkpt lat="46.97341" lon="8.77769">
        <ele>630</ele>
        <time>2021-08-05T13:58:13.966Z</time>
      </trkpt>
      <trkpt lat="46.9734" lon="8.77771">
        <ele>630</ele>
        <time>2021-08-05T13:58:14.966Z</time>
      </trkpt>
      <trkpt lat="46.97339" lon="8.77772">
        <ele>629</ele>
        <time>2021-08-05T13:58:15.965Z</time>
      </trkpt>
      <trkpt lat="46.97338" lon="8.77772">
        <ele>629</ele>
        <time>2021-08-05T13:58:16.966Z</time>
      </trkpt>
      <trkpt lat="46.97338" lon="8.77773">
        <ele>629</ele>
        <time>2021-08-05T13:58:17.965Z</time>
      </trkpt>
      <trkpt lat="46.97338" lon="8.77774">
        <ele>629</ele>
        <time>2021-08-05T13:58:18.965Z</time>
      </trkpt>
      <trkpt lat="46.97337" lon="8.77773">
        <ele>629</ele>
        <time>2021-08-05T13:58:19.965Z</time>
      </trkpt>
      <trkpt lat="46.97336" lon="8.77774">
        <ele>629</ele>
        <time>2021-08-05T13:58:20.966Z</time>
      </trkpt>
      <trkpt lat="46.97336" lon="8.77776">
        <ele>629</ele>
        <time>2021-08-05T13:58:21.966Z</time>
      </trkpt>
      <trkpt lat="46.97335" lon="8.77778">
        <ele>630</ele>
        <time>2021-08-05T13:58:22.966Z</time>
      </trkpt>
      <trkpt lat="46.97334" lon="8.77779">
        <ele>630</ele>
        <time>2021-08-05T13:58:23.966Z</time>
      </trkpt>
      <trkpt lat="46.97332" lon="8.7778">
        <ele>630</ele>
        <time>2021-08-05T13:58:24.965Z</time>
      </trkpt>
      <trkpt lat="46.9733" lon="8.77781">
        <ele>631</ele>
        <time>2021-08-05T13:58:25.966Z</time>
      </trkpt>
      <trkpt lat="46.97329" lon="8.77781">
        <ele>631</ele>
        <time>2021-08-05T13:58:26.966Z</time>
      </trkpt>
      <trkpt lat="46.97329" lon="8.77782">
        <ele>631</ele>
        <time>2021-08-05T13:58:27.966Z</time>
      </trkpt>
      <trkpt lat="46.97328" lon="8.77783">
        <ele>631</ele>
        <time>2021-08-05T13:58:28.966Z</time>
      </trkpt>
      <trkpt lat="46.97328" lon="8.77785">
        <ele>632</ele>
        <time>2021-08-05T13:58:29.966Z</time>
      </trkpt>
      <trkpt lat="46.97329" lon="8.77787">
        <ele>632</ele>
        <time>2021-08-05T13:58:30.966Z</time>
      </trkpt>
      <trkpt lat="46.9733" lon="8.77789">
        <ele>633</ele>
        <time>2021-08-05T13:58:31.965Z</time>
      </trkpt>
      <trkpt lat="46.9733" lon="8.77791">
        <ele>633</ele>
        <time>2021-08-05T13:58:32.965Z</time>
      </trkpt>
      <trkpt lat="46.97331" lon="8.77793">
        <ele>634</ele>
        <time>2021-08-05T13:58:33.965Z</time>
      </trkpt>
      <trkpt lat="46.97332" lon="8.77796">
        <ele>635</ele>
        <time>2021-08-05T13:58:34.966Z</time>
      </trkpt>
      <trkpt lat="46.97334" lon="8.77798">
        <ele>635</ele>
        <time>2021-08-05T13:58:35.966Z</time>
      </trkpt>
      <trkpt lat="46.97335" lon="8.778">
        <ele>636</ele>
        <time>2021-08-05T13:58:36.966Z</time>
      </trkpt>
      <trkpt lat="46.97335" lon="8.77801">
        <ele>636</ele>
        <time>2021-08-05T13:58:37.966Z</time>
      </trkpt>
      <trkpt lat="46.97335" lon="8.77802">
        <ele>637</ele>
        <time>2021-08-05T13:58:38.966Z</time>
      </trkpt>
      <trkpt lat="46.97334" lon="8.77804">
        <ele>637</ele>
        <time>2021-08-05T13:58:39.966Z</time>
      </trkpt>
      <trkpt lat="46.97334" lon="8.77805">
        <ele>638</ele>
        <time>2021-08-05T13:58:40.966Z</time>
      </trkpt>
      <trkpt lat="46.97333" lon="8.77806">
        <ele>638</ele>
        <time>2021-08-05T13:58:41.966Z</time>
      </trkpt>
      <trkpt lat="46.97333" lon="8.77806">
        <ele>639</ele>
        <time>2021-08-05T13:58:42.966Z</time>
      </trkpt>
      <trkpt lat="46.97333" lon="8.77808">
        <ele>639</ele>
        <time>2021-08-05T13:58:43.966Z</time>
      </trkpt>
      <trkpt lat="46.97334" lon="8.7781">
        <ele>639</ele>
        <time>2021-08-05T13:58:44.966Z</time>
      </trkpt>
      <trkpt lat="46.97335" lon="8.77812">
        <ele>639</ele>
        <time>2021-08-05T13:58:45.966Z</time>
      </trkpt>
      <trkpt lat="46.97336" lon="8.77813">
        <ele>639</ele>
        <time>2021-08-05T13:58:46.966Z</time>
      </trkpt>
      <trkpt lat="46.97335" lon="8.77815">
        <ele>640</ele>
        <time>2021-08-05T13:58:47.966Z</time>
      </trkpt>
      <trkpt lat="46.97335" lon="8.77816">
        <ele>639</ele>
        <time>2021-08-05T13:58:48.966Z</time>
      </trkpt>
      <trkpt lat="46.97334" lon="8.77817">
        <ele>639</ele>
        <time>2021-08-05T13:58:49.966Z</time>
      </trkpt>
      <trkpt lat="46.97333" lon="8.77818">
        <ele>640</ele>
        <time>2021-08-05T13:58:50.965Z</time>
      </trkpt>
      <trkpt lat="46.97332" lon="8.77819">
        <ele>640</ele>
        <time>2021-08-05T13:58:51.965Z</time>
      </trkpt>
      <trkpt lat="46.97331" lon="8.77821">
        <ele>640</ele>
        <time>2021-08-05T13:58:52.965Z</time>
      </trkpt>
      <trkpt lat="46.97332" lon="8.77823">
        <ele>640</ele>
        <time>2021-08-05T13:58:53.965Z</time>
      </trkpt>
      <trkpt lat="46.97332" lon="8.77825">
        <ele>640</ele>
        <time>2021-08-05T13:58:54.965Z</time>
      </trkpt>
      <trkpt lat="46.97332" lon="8.77826">
        <ele>641</ele>
        <time>2021-08-05T13:58:55.966Z</time>
      </trkpt>
      <trkpt lat="46.9733" lon="8.77828">
        <ele>641</ele>
        <time>2021-08-05T13:58:56.966Z</time>
      </trkpt>
      <trkpt lat="46.97329" lon="8.77829">
        <ele>641</ele>
        <time>2021-08-05T13:58:57.966Z</time>
      </trkpt>
      <trkpt lat="46.97327" lon="8.7783">
        <ele>642</ele>
        <time>2021-08-05T13:58:58.966Z</time>
      </trkpt>
      <trkpt lat="46.97326" lon="8.7783">
        <ele>642</ele>
        <time>2021-08-05T13:58:59.965Z</time>
      </trkpt>
      <trkpt lat="46.97325" lon="8.77831">
        <ele>642</ele>
        <time>2021-08-05T13:59:00.965Z</time>
      </trkpt>
      <trkpt lat="46.97324" lon="8.77832">
        <ele>643</ele>
        <time>2021-08-05T13:59:01.965Z</time>
      </trkpt>
      <trkpt lat="46.97323" lon="8.77833">
        <ele>643</ele>
        <time>2021-08-05T13:59:02.966Z</time>
      </trkpt>
      <trkpt lat="46.97322" lon="8.77834">
        <ele>644</ele>
        <time>2021-08-05T13:59:03.966Z</time>
      </trkpt>
      <trkpt lat="46.9732" lon="8.77835">
        <ele>644</ele>
        <time>2021-08-05T13:59:04.965Z</time>
      </trkpt>
      <trkpt lat="46.9732" lon="8.77837">
        <ele>645</ele>
        <time>2021-08-05T13:59:05.966Z</time>
      </trkpt>
      <trkpt lat="46.97321" lon="8.77838">
        <ele>645</ele>
        <time>2021-08-05T13:59:06.965Z</time>
      </trkpt>
      <trkpt lat="46.97321" lon="8.7784">
        <ele>646</ele>
        <time>2021-08-05T13:59:07.966Z</time>
      </trkpt>
      <trkpt lat="46.97321" lon="8.77841">
        <ele>646</ele>
        <time>2021-08-05T13:59:08.966Z</time>
      </trkpt>
      <trkpt lat="46.9732" lon="8.77842">
        <ele>647</ele>
        <time>2021-08-05T13:59:09.965Z</time>
      </trkpt>
      <trkpt lat="46.97319" lon="8.77843">
        <ele>647</ele>
        <time>2021-08-05T13:59:10.965Z</time>
      </trkpt>
      <trkpt lat="46.9732" lon="8.77845">
        <ele>647</ele>
        <time>2021-08-05T13:59:11.966Z</time>
      </trkpt>
      <trkpt lat="46.9732" lon="8.77846">
        <ele>647</ele>
        <time>2021-08-05T13:59:12.966Z</time>
      </trkpt>
      <trkpt lat="46.9732" lon="8.77848">
        <ele>648</ele>
        <time>2021-08-05T13:59:13.966Z</time>
      </trkpt>
      <trkpt lat="46.9732" lon="8.77849">
        <ele>648</ele>
        <time>2021-08-05T13:59:14.965Z</time>
      </trkpt>
      <trkpt lat="46.9732" lon="8.77851">
        <ele>648</ele>
        <time>2021-08-05T13:59:15.966Z</time>
      </trkpt>
      <trkpt lat="46.97321" lon="8.77853">
        <ele>648</ele>
        <time>2021-08-05T13:59:16.966Z</time>
      </trkpt>
      <trkpt lat="46.9732" lon="8.77854">
        <ele>647</ele>
        <time>2021-08-05T13:59:17.965Z</time>
      </trkpt>
      <trkpt lat="46.97321" lon="8.77856">
        <ele>647</ele>
        <time>2021-08-05T13:59:18.965Z</time>
      </trkpt>
      <trkpt lat="46.97322" lon="8.77857">
        <ele>647</ele>
        <time>2021-08-05T13:59:19.966Z</time>
      </trkpt>
      <trkpt lat="46.97323" lon="8.77858">
        <ele>647</ele>
        <time>2021-08-05T13:59:20.966Z</time>
      </trkpt>
      <trkpt lat="46.97323" lon="8.77859">
        <ele>646</ele>
        <time>2021-08-05T13:59:21.965Z</time>
      </trkpt>
      <trkpt lat="46.97323" lon="8.7786">
        <ele>646</ele>
        <time>2021-08-05T13:59:22.965Z</time>
      </trkpt>
      <trkpt lat="46.97323" lon="8.77862">
        <ele>645</ele>
        <time>2021-08-05T13:59:23.966Z</time>
      </trkpt>
      <trkpt lat="46.97322" lon="8.77863">
        <ele>645</ele>
        <time>2021-08-05T13:59:24.966Z</time>
      </trkpt>
      <trkpt lat="46.97321" lon="8.77864">
        <ele>644</ele>
        <time>2021-08-05T13:59:25.965Z</time>
      </trkpt>
      <trkpt lat="46.97321" lon="8.77865">
        <ele>643</ele>
        <time>2021-08-05T13:59:26.966Z</time>
      </trkpt>
      <trkpt lat="46.97321" lon="8.77866">
        <ele>642</ele>
        <time>2021-08-05T13:59:27.966Z</time>
      </trkpt>
      <trkpt lat="46.9732" lon="8.77868">
        <ele>642</ele>
        <time>2021-08-05T13:59:28.966Z</time>
      </trkpt>
      <trkpt lat="46.97319" lon="8.77869">
        <ele>641</ele>
        <time>2021-08-05T13:59:29.965Z</time>
      </trkpt>
      <trkpt lat="46.97319" lon="8.7787">
        <ele>641</ele>
        <time>2021-08-05T13:59:30.966Z</time>
      </trkpt>
      <trkpt lat="46.97319" lon="8.7787">
        <ele>640</ele>
        <time>2021-08-05T13:59:31.965Z</time>
      </trkpt>
      <trkpt lat="46.97319" lon="8.77871">
        <ele>640</ele>
        <time>2021-08-05T13:59:32.966Z</time>
      </trkpt>
      <trkpt lat="46.97319" lon="8.77872">
        <ele>640</ele>
        <time>2021-08-05T13:59:33.965Z</time>
      </trkpt>
      <trkpt lat="46.9732" lon="8.77873">
        <ele>640</ele>
        <time>2021-08-05T13:59:34.965Z</time>
      </trkpt>
      <trkpt lat="46.97319" lon="8.77874">
        <ele>639</ele>
        <time>2021-08-05T13:59:35.965Z</time>
      </trkpt>
      <trkpt lat="46.97316" lon="8.77874">
        <ele>642</ele>
        <time>2021-08-05T13:59:36.965Z</time>
      </trkpt>
      <trkpt lat="46.97315" lon="8.77875">
        <ele>642</ele>
        <time>2021-08-05T13:59:37.965Z</time>
      </trkpt>
      <trkpt lat="46.97315" lon="8.77875">
        <ele>643</ele>
        <time>2021-08-05T13:59:38.965Z</time>
      </trkpt>
      <trkpt lat="46.97315" lon="8.77875">
        <ele>643</ele>
        <time>2021-08-05T13:59:39.966Z</time>
      </trkpt>
      <trkpt lat="46.97315" lon="8.77877">
        <ele>643</ele>
        <time>2021-08-05T13:59:40.966Z</time>
      </trkpt>
      <trkpt lat="46.97315" lon="8.77877">
        <ele>643</ele>
        <time>2021-08-05T13:59:41.966Z</time>
      </trkpt>
      <trkpt lat="46.97314" lon="8.77877">
        <ele>643</ele>
        <time>2021-08-05T13:59:42.966Z</time>
      </trkpt>
      <trkpt lat="46.97313" lon="8.77877">
        <ele>643</ele>
        <time>2021-08-05T13:59:43.966Z</time>
      </trkpt>
      <trkpt lat="46.97313" lon="8.77877">
        <ele>643</ele>
        <time>2021-08-05T13:59:44.965Z</time>
      </trkpt>
      <trkpt lat="46.97313" lon="8.77877">
        <ele>644</ele>
        <time>2021-08-05T13:59:45.965Z</time>
      </trkpt>
      <trkpt lat="46.97313" lon="8.77877">
        <ele>644</ele>
        <time>2021-08-05T13:59:46.966Z</time>
      </trkpt>
      <trkpt lat="46.97313" lon="8.77877">
        <ele>644</ele>
        <time>2021-08-05T13:59:47.966Z</time>
      </trkpt>
      <trkpt lat="46.97313" lon="8.77877">
        <ele>645</ele>
        <time>2021-08-05T13:59:48.966Z</time>
      </trkpt>
      <trkpt lat="46.97313" lon="8.77877">
        <ele>645</ele>
        <time>2021-08-05T13:59:49.966Z</time>
      </trkpt>
      <trkpt lat="46.97313" lon="8.77876">
        <ele>645</ele>
        <time>2021-08-05T13:59:50.966Z</time>
      </trkpt>
      <trkpt lat="46.97312" lon="8.77876">
        <ele>646</ele>
        <time>2021-08-05T13:59:51.965Z</time>
      </trkpt>
      <trkpt lat="46.97311" lon="8.77876">
        <ele>646</ele>
        <time>2021-08-05T13:59:52.966Z</time>
      </trkpt>
      <trkpt lat="46.9731" lon="8.77877">
        <ele>646</ele>
        <time>2021-08-05T13:59:53.965Z</time>
      </trkpt>
      <trkpt lat="46.9731" lon="8.77877">
        <ele>646</ele>
        <time>2021-08-05T13:59:54.966Z</time>
      </trkpt>
      <trkpt lat="46.97309" lon="8.77878">
        <ele>646</ele>
        <time>2021-08-05T13:59:55.966Z</time>
      </trkpt>
      <trkpt lat="46.97309" lon="8.77878">
        <ele>646</ele>
        <time>2021-08-05T13:59:56.965Z</time>
      </trkpt>
      <trkpt lat="46.97309" lon="8.77879">
        <ele>646</ele>
        <time>2021-08-05T13:59:57.966Z</time>
      </trkpt>
      <trkpt lat="46.9731" lon="8.77881">
        <ele>646</ele>
        <time>2021-08-05T13:59:58.966Z</time>
      </trkpt>
      <trkpt lat="46.97311" lon="8.77883">
        <ele>645</ele>
        <time>2021-08-05T13:59:59.966Z</time>
      </trkpt>
      <trkpt lat="46.97312" lon="8.77884">
        <ele>645</ele>
        <time>2021-08-05T14:00:00.966Z</time>
      </trkpt>
      <trkpt lat="46.97312" lon="8.77886">
        <ele>645</ele>
        <time>2021-08-05T14:00:01.965Z</time>
      </trkpt>
      <trkpt lat="46.97313" lon="8.77887">
        <ele>645</ele>
        <time>2021-08-05T14:00:02.965Z</time>
      </trkpt>
      <trkpt lat="46.97313" lon="8.77889">
        <ele>644</ele>
        <time>2021-08-05T14:00:03.966Z</time>
      </trkpt>
      <trkpt lat="46.97313" lon="8.77889">
        <ele>644</ele>
        <time>2021-08-05T14:00:04.965Z</time>
      </trkpt>
      <trkpt lat="46.97312" lon="8.7789">
        <ele>644</ele>
        <time>2021-08-05T14:00:05.965Z</time>
      </trkpt>
      <trkpt lat="46.97312" lon="8.77891">
        <ele>644</ele>
        <time>2021-08-05T14:00:06.965Z</time>
      </trkpt>
      <trkpt lat="46.97312" lon="8.77891">
        <ele>643</ele>
        <time>2021-08-05T14:00:07.965Z</time>
      </trkpt>
      <trkpt lat="46.97311" lon="8.77891">
        <ele>643</ele>
        <time>2021-08-05T14:00:08.965Z</time>
      </trkpt>
      <trkpt lat="46.97311" lon="8.77891">
        <ele>643</ele>
        <time>2021-08-05T14:00:09.965Z</time>
      </trkpt>
      <trkpt lat="46.9731" lon="8.77892">
        <ele>643</ele>
        <time>2021-08-05T14:00:10.965Z</time>
      </trkpt>
      <trkpt lat="46.9731" lon="8.77892">
        <ele>643</ele>
        <time>2021-08-05T14:00:11.965Z</time>
      </trkpt>
      <trkpt lat="46.9731" lon="8.77892">
        <ele>643</ele>
        <time>2021-08-05T14:00:12.965Z</time>
      </trkpt>
      <trkpt lat="46.9731" lon="8.77893">
        <ele>643</ele>
        <time>2021-08-05T14:00:13.965Z</time>
      </trkpt>
      <trkpt lat="46.9731" lon="8.77893">
        <ele>642</ele>
        <time>2021-08-05T14:00:14.965Z</time>
      </trkpt>
      <trkpt lat="46.97309" lon="8.77894">
        <ele>642</ele>
        <time>2021-08-05T14:00:15.965Z</time>
      </trkpt>
      <trkpt lat="46.97307" lon="8.77894">
        <ele>642</ele>
        <time>2021-08-05T14:00:16.965Z</time>
      </trkpt>
      <trkpt lat="46.97307" lon="8.77896">
        <ele>642</ele>
        <time>2021-08-05T14:00:17.965Z</time>
      </trkpt>
      <trkpt lat="46.97307" lon="8.77897">
        <ele>642</ele>
        <time>2021-08-05T14:00:18.965Z</time>
      </trkpt>
      <trkpt lat="46.97306" lon="8.77899">
        <ele>642</ele>
        <time>2021-08-05T14:00:19.965Z</time>
      </trkpt>
      <trkpt lat="46.97306" lon="8.779">
        <ele>641</ele>
        <time>2021-08-05T14:00:20.966Z</time>
      </trkpt>
      <trkpt lat="46.97305" lon="8.77901">
        <ele>641</ele>
        <time>2021-08-05T14:00:21.966Z</time>
      </trkpt>
      <trkpt lat="46.97305" lon="8.77901">
        <ele>640</ele>
        <time>2021-08-05T14:00:22.965Z</time>
      </trkpt>
      <trkpt lat="46.97304" lon="8.77902">
        <ele>640</ele>
        <time>2021-08-05T14:00:23.965Z</time>
      </trkpt>
      <trkpt lat="46.97303" lon="8.77903">
        <ele>639</ele>
        <time>2021-08-05T14:00:24.965Z</time>
      </trkpt>
      <trkpt lat="46.97303" lon="8.77905">
        <ele>639</ele>
        <time>2021-08-05T14:00:25.965Z</time>
      </trkpt>
      <trkpt lat="46.97302" lon="8.77907">
        <ele>638</ele>
        <time>2021-08-05T14:00:26.965Z</time>
      </trkpt>
      <trkpt lat="46.97302" lon="8.77908">
        <ele>638</ele>
        <time>2021-08-05T14:00:27.965Z</time>
      </trkpt>
      <trkpt lat="46.97302" lon="8.7791">
        <ele>638</ele>
        <time>2021-08-05T14:00:28.965Z</time>
      </trkpt>
      <trkpt lat="46.97303" lon="8.77912">
        <ele>637</ele>
        <time>2021-08-05T14:00:29.965Z</time>
      </trkpt>
      <trkpt lat="46.97303" lon="8.77915">
        <ele>637</ele>
        <time>2021-08-05T14:00:30.965Z</time>
      </trkpt>
      <trkpt lat="46.97303" lon="8.77916">
        <ele>637</ele>
        <time>2021-08-05T14:00:31.965Z</time>
      </trkpt>
      <trkpt lat="46.97302" lon="8.77917">
        <ele>637</ele>
        <time>2021-08-05T14:00:32.965Z</time>
      </trkpt>
      <trkpt lat="46.97301" lon="8.77918">
        <ele>637</ele>
        <time>2021-08-05T14:00:33.966Z</time>
      </trkpt>
      <trkpt lat="46.973" lon="8.77919">
        <ele>637</ele>
        <time>2021-08-05T14:00:34.966Z</time>
      </trkpt>
      <trkpt lat="46.97299" lon="8.77919">
        <ele>638</ele>
        <time>2021-08-05T14:00:35.966Z</time>
      </trkpt>
      <trkpt lat="46.97298" lon="8.7792">
        <ele>638</ele>
        <time>2021-08-05T14:00:36.966Z</time>
      </trkpt>
      <trkpt lat="46.97298" lon="8.77922">
        <ele>638</ele>
        <time>2021-08-05T14:00:37.966Z</time>
      </trkpt>
      <trkpt lat="46.97298" lon="8.77924">
        <ele>638</ele>
        <time>2021-08-05T14:00:38.965Z</time>
      </trkpt>
      <trkpt lat="46.97297" lon="8.77924">
        <ele>638</ele>
        <time>2021-08-05T14:00:39.966Z</time>
      </trkpt>
      <trkpt lat="46.97296" lon="8.77924">
        <ele>638</ele>
        <time>2021-08-05T14:00:40.966Z</time>
      </trkpt>
      <trkpt lat="46.97295" lon="8.77925">
        <ele>639</ele>
        <time>2021-08-05T14:00:41.965Z</time>
      </trkpt>
      <trkpt lat="46.97294" lon="8.77925">
        <ele>639</ele>
        <time>2021-08-05T14:00:42.966Z</time>
      </trkpt>
      <trkpt lat="46.97294" lon="8.77926">
        <ele>640</ele>
        <time>2021-08-05T14:00:43.965Z</time>
      </trkpt>
      <trkpt lat="46.97293" lon="8.77927">
        <ele>640</ele>
        <time>2021-08-05T14:00:44.966Z</time>
      </trkpt>
      <trkpt lat="46.97293" lon="8.77928">
        <ele>641</ele>
        <time>2021-08-05T14:00:45.965Z</time>
      </trkpt>
      <trkpt lat="46.97293" lon="8.7793">
        <ele>641</ele>
        <time>2021-08-05T14:00:46.966Z</time>
      </trkpt>
      <trkpt lat="46.97292" lon="8.7793">
        <ele>642</ele>
        <time>2021-08-05T14:00:47.965Z</time>
      </trkpt>
      <trkpt lat="46.97292" lon="8.77931">
        <ele>642</ele>
        <time>2021-08-05T14:00:48.966Z</time>
      </trkpt>
      <trkpt lat="46.97292" lon="8.77933">
        <ele>642</ele>
        <time>2021-08-05T14:00:49.966Z</time>
      </trkpt>
      <trkpt lat="46.97292" lon="8.77934">
        <ele>643</ele>
        <time>2021-08-05T14:00:50.966Z</time>
      </trkpt>
      <trkpt lat="46.97292" lon="8.77935">
        <ele>643</ele>
        <time>2021-08-05T14:00:51.966Z</time>
      </trkpt>
      <trkpt lat="46.97292" lon="8.77937">
        <ele>643</ele>
        <time>2021-08-05T14:00:52.966Z</time>
      </trkpt>
      <trkpt lat="46.97292" lon="8.77938">
        <ele>643</ele>
        <time>2021-08-05T14:00:53.966Z</time>
      </trkpt>
      <trkpt lat="46.97291" lon="8.77939">
        <ele>643</ele>
        <time>2021-08-05T14:00:54.966Z</time>
      </trkpt>
      <trkpt lat="46.97291" lon="8.7794">
        <ele>644</ele>
        <time>2021-08-05T14:00:55.965Z</time>
      </trkpt>
      <trkpt lat="46.97291" lon="8.77941">
        <ele>644</ele>
        <time>2021-08-05T14:00:56.966Z</time>
      </trkpt>
      <trkpt lat="46.97291" lon="8.77942">
        <ele>644</ele>
        <time>2021-08-05T14:00:57.965Z</time>
      </trkpt>
      <trkpt lat="46.97291" lon="8.77943">
        <ele>644</ele>
        <time>2021-08-05T14:00:58.966Z</time>
      </trkpt>
      <trkpt lat="46.97291" lon="8.77942">
        <ele>644</ele>
        <time>2021-08-05T14:00:59.966Z</time>
      </trkpt>
      <trkpt lat="46.97291" lon="8.77942">
        <ele>644</ele>
        <time>2021-08-05T14:01:00.966Z</time>
      </trkpt>
      <trkpt lat="46.97291" lon="8.77943">
        <ele>644</ele>
        <time>2021-08-05T14:01:01.965Z</time>
      </trkpt>
      <trkpt lat="46.97291" lon="8.77944">
        <ele>644</ele>
        <time>2021-08-05T14:01:02.966Z</time>
      </trkpt>
      <trkpt lat="46.9729" lon="8.77945">
        <ele>644</ele>
        <time>2021-08-05T14:01:03.966Z</time>
      </trkpt>
      <trkpt lat="46.9729" lon="8.77946">
        <ele>644</ele>
        <time>2021-08-05T14:01:04.966Z</time>
      </trkpt>
      <trkpt lat="46.97289" lon="8.77947">
        <ele>644</ele>
        <time>2021-08-05T14:01:05.966Z</time>
      </trkpt>
      <trkpt lat="46.97289" lon="8.77948">
        <ele>644</ele>
        <time>2021-08-05T14:01:06.966Z</time>
      </trkpt>
      <trkpt lat="46.97288" lon="8.77949">
        <ele>645</ele>
        <time>2021-08-05T14:01:07.965Z</time>
      </trkpt>
      <trkpt lat="46.97288" lon="8.77949">
        <ele>645</ele>
        <time>2021-08-05T14:01:08.966Z</time>
      </trkpt>
      <trkpt lat="46.97287" lon="8.77951">
        <ele>645</ele>
        <time>2021-08-05T14:01:09.966Z</time>
      </trkpt>
      <trkpt lat="46.97286" lon="8.77951">
        <ele>646</ele>
        <time>2021-08-05T14:01:10.965Z</time>
      </trkpt>
      <trkpt lat="46.97285" lon="8.77951">
        <ele>646</ele>
        <time>2021-08-05T14:01:11.966Z</time>
      </trkpt>
      <trkpt lat="46.97283" lon="8.77951">
        <ele>647</ele>
        <time>2021-08-05T14:01:12.966Z</time>
      </trkpt>
      <trkpt lat="46.97282" lon="8.77952">
        <ele>647</ele>
        <time>2021-08-05T14:01:13.966Z</time>
      </trkpt>
      <trkpt lat="46.97282" lon="8.77953">
        <ele>648</ele>
        <time>2021-08-05T14:01:14.966Z</time>
      </trkpt>
      <trkpt lat="46.97281" lon="8.77956">
        <ele>648</ele>
        <time>2021-08-05T14:01:15.966Z</time>
      </trkpt>
      <trkpt lat="46.9728" lon="8.77958">
        <ele>649</ele>
        <time>2021-08-05T14:01:16.965Z</time>
      </trkpt>
      <trkpt lat="46.97281" lon="8.77962">
        <ele>649</ele>
        <time>2021-08-05T14:01:17.965Z</time>
      </trkpt>
      <trkpt lat="46.97281" lon="8.77966">
        <ele>649</ele>
        <time>2021-08-05T14:01:18.966Z</time>
      </trkpt>
      <trkpt lat="46.97281" lon="8.77968">
        <ele>649</ele>
        <time>2021-08-05T14:01:19.966Z</time>
      </trkpt>
      <trkpt lat="46.97281" lon="8.77969">
        <ele>649</ele>
        <time>2021-08-05T14:01:20.966Z</time>
      </trkpt>
      <trkpt lat="46.9728" lon="8.7797">
        <ele>650</ele>
        <time>2021-08-05T14:01:21.966Z</time>
      </trkpt>
      <trkpt lat="46.9728" lon="8.7797">
        <ele>650</ele>
        <time>2021-08-05T14:01:22.966Z</time>
      </trkpt>
      <trkpt lat="46.97279" lon="8.77971">
        <ele>650</ele>
        <time>2021-08-05T14:01:23.966Z</time>
      </trkpt>
      <trkpt lat="46.97278" lon="8.77971">
        <ele>650</ele>
        <time>2021-08-05T14:01:24.966Z</time>
      </trkpt>
      <trkpt lat="46.97277" lon="8.77971">
        <ele>651</ele>
        <time>2021-08-05T14:01:25.966Z</time>
      </trkpt>
      <trkpt lat="46.97276" lon="8.77972">
        <ele>651</ele>
        <time>2021-08-05T14:01:26.965Z</time>
      </trkpt>
      <trkpt lat="46.97276" lon="8.77973">
        <ele>651</ele>
        <time>2021-08-05T14:01:27.966Z</time>
      </trkpt>
      <trkpt lat="46.97276" lon="8.77975">
        <ele>652</ele>
        <time>2021-08-05T14:01:28.965Z</time>
      </trkpt>
      <trkpt lat="46.97275" lon="8.77976">
        <ele>652</ele>
        <time>2021-08-05T14:01:29.966Z</time>
      </trkpt>
      <trkpt lat="46.97275" lon="8.77977">
        <ele>653</ele>
        <time>2021-08-05T14:01:30.966Z</time>
      </trkpt>
      <trkpt lat="46.97274" lon="8.77977">
        <ele>653</ele>
        <time>2021-08-05T14:01:31.965Z</time>
      </trkpt>
      <trkpt lat="46.97273" lon="8.77978">
        <ele>654</ele>
        <time>2021-08-05T14:01:32.965Z</time>
      </trkpt>
      <trkpt lat="46.97274" lon="8.77979">
        <ele>654</ele>
        <time>2021-08-05T14:01:33.965Z</time>
      </trkpt>
      <trkpt lat="46.97274" lon="8.7798">
        <ele>655</ele>
        <time>2021-08-05T14:01:34.966Z</time>
      </trkpt>
      <trkpt lat="46.97273" lon="8.77981">
        <ele>655</ele>
        <time>2021-08-05T14:01:35.965Z</time>
      </trkpt>
      <trkpt lat="46.97273" lon="8.77981">
        <ele>655</ele>
        <time>2021-08-05T14:01:36.966Z</time>
      </trkpt>
      <trkpt lat="46.97272" lon="8.77982">
        <ele>656</ele>
        <time>2021-08-05T14:01:37.966Z</time>
      </trkpt>
      <trkpt lat="46.97272" lon="8.77984">
        <ele>656</ele>
        <time>2021-08-05T14:01:38.965Z</time>
      </trkpt>
      <trkpt lat="46.97271" lon="8.77985">
        <ele>656</ele>
        <time>2021-08-05T14:01:39.966Z</time>
      </trkpt>
      <trkpt lat="46.97271" lon="8.77987">
        <ele>656</ele>
        <time>2021-08-05T14:01:40.965Z</time>
      </trkpt>
      <trkpt lat="46.97271" lon="8.7799">
        <ele>657</ele>
        <time>2021-08-05T14:01:41.966Z</time>
      </trkpt>
      <trkpt lat="46.97271" lon="8.77992">
        <ele>657</ele>
        <time>2021-08-05T14:01:42.965Z</time>
      </trkpt>
      <trkpt lat="46.97271" lon="8.77993">
        <ele>657</ele>
        <time>2021-08-05T14:01:43.965Z</time>
      </trkpt>
      <trkpt lat="46.9727" lon="8.77994">
        <ele>657</ele>
        <time>2021-08-05T14:01:44.966Z</time>
      </trkpt>
      <trkpt lat="46.97269" lon="8.77993">
        <ele>657</ele>
        <time>2021-08-05T14:01:45.966Z</time>
      </trkpt>
      <trkpt lat="46.97268" lon="8.77994">
        <ele>657</ele>
        <time>2021-08-05T14:01:46.966Z</time>
      </trkpt>
      <trkpt lat="46.97268" lon="8.77993">
        <ele>657</ele>
        <time>2021-08-05T14:01:47.966Z</time>
      </trkpt>
      <trkpt lat="46.97268" lon="8.77994">
        <ele>657</ele>
        <time>2021-08-05T14:01:48.966Z</time>
      </trkpt>
      <trkpt lat="46.97267" lon="8.77994">
        <ele>657</ele>
        <time>2021-08-05T14:01:49.966Z</time>
      </trkpt>
      <trkpt lat="46.97268" lon="8.77996">
        <ele>656</ele>
        <time>2021-08-05T14:01:50.966Z</time>
      </trkpt>
      <trkpt lat="46.97268" lon="8.77998">
        <ele>656</ele>
        <time>2021-08-05T14:01:51.966Z</time>
      </trkpt>
      <trkpt lat="46.97268" lon="8.78001">
        <ele>656</ele>
        <time>2021-08-05T14:01:52.966Z</time>
      </trkpt>
      <trkpt lat="46.97268" lon="8.78001">
        <ele>656</ele>
        <time>2021-08-05T14:01:53.965Z</time>
      </trkpt>
      <trkpt lat="46.97267" lon="8.78">
        <ele>655</ele>
        <time>2021-08-05T14:01:54.965Z</time>
      </trkpt>
      <trkpt lat="46.97267" lon="8.78">
        <ele>655</ele>
        <time>2021-08-05T14:01:55.965Z</time>
      </trkpt>
      <trkpt lat="46.97267" lon="8.78001">
        <ele>655</ele>
        <time>2021-08-05T14:01:56.965Z</time>
      </trkpt>
      <trkpt lat="46.97267" lon="8.78002">
        <ele>655</ele>
        <time>2021-08-05T14:01:57.966Z</time>
      </trkpt>
      <trkpt lat="46.97267" lon="8.78003">
        <ele>655</ele>
        <time>2021-08-05T14:01:58.966Z</time>
      </trkpt>
      <trkpt lat="46.97267" lon="8.78005">
        <ele>655</ele>
        <time>2021-08-05T14:01:59.965Z</time>
      </trkpt>
      <trkpt lat="46.97267" lon="8.78007">
        <ele>655</ele>
        <time>2021-08-05T14:02:00.965Z</time>
      </trkpt>
      <trkpt lat="46.97267" lon="8.78009">
        <ele>655</ele>
        <time>2021-08-05T14:02:01.965Z</time>
      </trkpt>
      <trkpt lat="46.97267" lon="8.78011">
        <ele>655</ele>
        <time>2021-08-05T14:02:02.965Z</time>
      </trkpt>
      <trkpt lat="46.97267" lon="8.78013">
        <ele>655</ele>
        <time>2021-08-05T14:02:03.966Z</time>
      </trkpt>
      <trkpt lat="46.97267" lon="8.78015">
        <ele>655</ele>
        <time>2021-08-05T14:02:04.966Z</time>
      </trkpt>
      <trkpt lat="46.97267" lon="8.78017">
        <ele>656</ele>
        <time>2021-08-05T14:02:05.966Z</time>
      </trkpt>
      <trkpt lat="46.97268" lon="8.7802">
        <ele>655</ele>
        <time>2021-08-05T14:02:06.966Z</time>
      </trkpt>
      <trkpt lat="46.97268" lon="8.78022">
        <ele>655</ele>
        <time>2021-08-05T14:02:07.966Z</time>
      </trkpt>
      <trkpt lat="46.97268" lon="8.78024">
        <ele>655</ele>
        <time>2021-08-05T14:02:08.966Z</time>
      </trkpt>
      <trkpt lat="46.97267" lon="8.78027">
        <ele>655</ele>
        <time>2021-08-05T14:02:09.966Z</time>
      </trkpt>
      <trkpt lat="46.97267" lon="8.78029">
        <ele>654</ele>
        <time>2021-08-05T14:02:10.965Z</time>
      </trkpt>
      <trkpt lat="46.97267" lon="8.78031">
        <ele>654</ele>
        <time>2021-08-05T14:02:11.966Z</time>
      </trkpt>
      <trkpt lat="46.97267" lon="8.78034">
        <ele>654</ele>
        <time>2021-08-05T14:02:12.966Z</time>
      </trkpt>
      <trkpt lat="46.97266" lon="8.78036">
        <ele>654</ele>
        <time>2021-08-05T14:02:13.966Z</time>
      </trkpt>
      <trkpt lat="46.97265" lon="8.78039">
        <ele>653</ele>
        <time>2021-08-05T14:02:14.966Z</time>
      </trkpt>
      <trkpt lat="46.97265" lon="8.78042">
        <ele>653</ele>
        <time>2021-08-05T14:02:15.965Z</time>
      </trkpt>
      <trkpt lat="46.97265" lon="8.78044">
        <ele>653</ele>
        <time>2021-08-05T14:02:16.966Z</time>
      </trkpt>
      <trkpt lat="46.97266" lon="8.78045">
        <ele>653</ele>
        <time>2021-08-05T14:02:17.965Z</time>
      </trkpt>
      <trkpt lat="46.97265" lon="8.78046">
        <ele>653</ele>
        <time>2021-08-05T14:02:18.966Z</time>
      </trkpt>
      <trkpt lat="46.97265" lon="8.78047">
        <ele>653</ele>
        <time>2021-08-05T14:02:19.966Z</time>
      </trkpt>
      <trkpt lat="46.97265" lon="8.78049">
        <ele>652</ele>
        <time>2021-08-05T14:02:20.966Z</time>
      </trkpt>
      <trkpt lat="46.97265" lon="8.7805">
        <ele>652</ele>
        <time>2021-08-05T14:02:21.965Z</time>
      </trkpt>
      <trkpt lat="46.97264" lon="8.78052">
        <ele>652</ele>
        <time>2021-08-05T14:02:22.966Z</time>
      </trkpt>
      <trkpt lat="46.97264" lon="8.78053">
        <ele>652</ele>
        <time>2021-08-05T14:02:23.965Z</time>
      </trkpt>
      <trkpt lat="46.97264" lon="8.78055">
        <ele>652</ele>
        <time>2021-08-05T14:02:24.965Z</time>
      </trkpt>
      <trkpt lat="46.97263" lon="8.78056">
        <ele>652</ele>
        <time>2021-08-05T14:02:25.966Z</time>
      </trkpt>
      <trkpt lat="46.97263" lon="8.78058">
        <ele>653</ele>
        <time>2021-08-05T14:02:26.966Z</time>
      </trkpt>
      <trkpt lat="46.97262" lon="8.7806">
        <ele>653</ele>
        <time>2021-08-05T14:02:27.966Z</time>
      </trkpt>
      <trkpt lat="46.97262" lon="8.78061">
        <ele>654</ele>
        <time>2021-08-05T14:02:28.966Z</time>
      </trkpt>
      <trkpt lat="46.97262" lon="8.78063">
        <ele>654</ele>
        <time>2021-08-05T14:02:29.966Z</time>
      </trkpt>
      <trkpt lat="46.97261" lon="8.78065">
        <ele>655</ele>
        <time>2021-08-05T14:02:30.966Z</time>
      </trkpt>
      <trkpt lat="46.97261" lon="8.78066">
        <ele>655</ele>
        <time>2021-08-05T14:02:31.965Z</time>
      </trkpt>
      <trkpt lat="46.9726" lon="8.78067">
        <ele>656</ele>
        <time>2021-08-05T14:02:32.966Z</time>
      </trkpt>
      <trkpt lat="46.9726" lon="8.78068">
        <ele>656</ele>
        <time>2021-08-05T14:02:33.965Z</time>
      </trkpt>
      <trkpt lat="46.97261" lon="8.7807">
        <ele>656</ele>
        <time>2021-08-05T14:02:34.966Z</time>
      </trkpt>
      <trkpt lat="46.97261" lon="8.78072">
        <ele>656</ele>
        <time>2021-08-05T14:02:35.965Z</time>
      </trkpt>
      <trkpt lat="46.97261" lon="8.78073">
        <ele>656</ele>
        <time>2021-08-05T14:02:36.966Z</time>
      </trkpt>
      <trkpt lat="46.97261" lon="8.78075">
        <ele>656</ele>
        <time>2021-08-05T14:02:37.966Z</time>
      </trkpt>
      <trkpt lat="46.9726" lon="8.78075">
        <ele>656</ele>
        <time>2021-08-05T14:02:38.966Z</time>
      </trkpt>
      <trkpt lat="46.97259" lon="8.78077">
        <ele>656</ele>
        <time>2021-08-05T14:02:39.966Z</time>
      </trkpt>
      <trkpt lat="46.97259" lon="8.78078">
        <ele>656</ele>
        <time>2021-08-05T14:02:40.966Z</time>
      </trkpt>
      <trkpt lat="46.97259" lon="8.78079">
        <ele>656</ele>
        <time>2021-08-05T14:02:41.965Z</time>
      </trkpt>
      <trkpt lat="46.9726" lon="8.78081">
        <ele>655</ele>
        <time>2021-08-05T14:02:42.966Z</time>
      </trkpt>
      <trkpt lat="46.9726" lon="8.78082">
        <ele>655</ele>
        <time>2021-08-05T14:02:43.966Z</time>
      </trkpt>
      <trkpt lat="46.9726" lon="8.78083">
        <ele>655</ele>
        <time>2021-08-05T14:02:44.965Z</time>
      </trkpt>
      <trkpt lat="46.9726" lon="8.78085">
        <ele>655</ele>
        <time>2021-08-05T14:02:45.966Z</time>
      </trkpt>
      <trkpt lat="46.9726" lon="8.78086">
        <ele>655</ele>
        <time>2021-08-05T14:02:46.965Z</time>
      </trkpt>
      <trkpt lat="46.97259" lon="8.78088">
        <ele>655</ele>
        <time>2021-08-05T14:02:47.966Z</time>
      </trkpt>
      <trkpt lat="46.97259" lon="8.78089">
        <ele>655</ele>
        <time>2021-08-05T14:02:48.966Z</time>
      </trkpt>
      <trkpt lat="46.97259" lon="8.78091">
        <ele>655</ele>
        <time>2021-08-05T14:02:49.966Z</time>
      </trkpt>
      <trkpt lat="46.97259" lon="8.78092">
        <ele>654</ele>
        <time>2021-08-05T14:02:50.965Z</time>
      </trkpt>
      <trkpt lat="46.97259" lon="8.78093">
        <ele>654</ele>
        <time>2021-08-05T14:02:51.966Z</time>
      </trkpt>
      <trkpt lat="46.97259" lon="8.78095">
        <ele>653</ele>
        <time>2021-08-05T14:02:52.965Z</time>
      </trkpt>
      <trkpt lat="46.97258" lon="8.78096">
        <ele>653</ele>
        <time>2021-08-05T14:02:53.965Z</time>
      </trkpt>
      <trkpt lat="46.97258" lon="8.78097">
        <ele>652</ele>
        <time>2021-08-05T14:02:54.965Z</time>
      </trkpt>
      <trkpt lat="46.97257" lon="8.78098">
        <ele>652</ele>
        <time>2021-08-05T14:02:55.965Z</time>
      </trkpt>
      <trkpt lat="46.97256" lon="8.78099">
        <ele>652</ele>
        <time>2021-08-05T14:03:01.111Z</time>
      </trkpt>
      <trkpt lat="46.97255" lon="8.781">
        <ele>651</ele>
        <time>2021-08-05T14:03:02.111Z</time>
      </trkpt>
      <trkpt lat="46.97255" lon="8.78101">
        <ele>651</ele>
        <time>2021-08-05T14:03:03.110Z</time>
      </trkpt>
      <trkpt lat="46.97254" lon="8.78102">
        <ele>651</ele>
        <time>2021-08-05T14:03:04.110Z</time>
      </trkpt>
      <trkpt lat="46.97253" lon="8.78103">
        <ele>650</ele>
        <time>2021-08-05T14:03:05.110Z</time>
      </trkpt>
      <trkpt lat="46.97253" lon="8.78104">
        <ele>650</ele>
        <time>2021-08-05T14:03:06.110Z</time>
      </trkpt>
      <trkpt lat="46.97252" lon="8.78105">
        <ele>650</ele>
        <time>2021-08-05T14:03:07.110Z</time>
      </trkpt>
      <trkpt lat="46.97252" lon="8.78107">
        <ele>650</ele>
        <time>2021-08-05T14:03:08.111Z</time>
      </trkpt>
      <trkpt lat="46.97252" lon="8.78109">
        <ele>649</ele>
        <time>2021-08-05T14:03:09.110Z</time>
      </trkpt>
      <trkpt lat="46.97252" lon="8.7811">
        <ele>649</ele>
        <time>2021-08-05T14:03:10.110Z</time>
      </trkpt>
      <trkpt lat="46.97253" lon="8.78111">
        <ele>648</ele>
        <time>2021-08-05T14:03:11.111Z</time>
      </trkpt>
      <trkpt lat="46.97253" lon="8.78111">
        <ele>648</ele>
        <time>2021-08-05T14:03:12.110Z</time>
      </trkpt>
      <trkpt lat="46.97253" lon="8.78112">
        <ele>648</ele>
        <time>2021-08-05T14:03:13.111Z</time>
      </trkpt>
      <trkpt lat="46.97253" lon="8.78113">
        <ele>647</ele>
        <time>2021-08-05T14:03:14.111Z</time>
      </trkpt>
      <trkpt lat="46.97253" lon="8.78113">
        <ele>647</ele>
        <time>2021-08-05T14:03:15.111Z</time>
      </trkpt>
      <trkpt lat="46.97254" lon="8.78113">
        <ele>646</ele>
        <time>2021-08-05T14:03:16.110Z</time>
      </trkpt>
      <trkpt lat="46.97254" lon="8.78115">
        <ele>646</ele>
        <time>2021-08-05T14:03:17.110Z</time>
      </trkpt>
      <trkpt lat="46.97255" lon="8.78117">
        <ele>646</ele>
        <time>2021-08-05T14:03:18.111Z</time>
      </trkpt>
      <trkpt lat="46.97255" lon="8.78118">
        <ele>646</ele>
        <time>2021-08-05T14:03:19.111Z</time>
      </trkpt>
      <trkpt lat="46.97256" lon="8.78119">
        <ele>646</ele>
        <time>2021-08-05T14:03:20.111Z</time>
      </trkpt>
      <trkpt lat="46.97256" lon="8.78121">
        <ele>646</ele>
        <time>2021-08-05T14:03:21.111Z</time>
      </trkpt>
      <trkpt lat="46.97256" lon="8.78122">
        <ele>645</ele>
        <time>2021-08-05T14:03:22.110Z</time>
      </trkpt>
      <trkpt lat="46.97256" lon="8.78123">
        <ele>645</ele>
        <time>2021-08-05T14:03:23.110Z</time>
      </trkpt>
      <trkpt lat="46.97256" lon="8.78124">
        <ele>644</ele>
        <time>2021-08-05T14:03:24.111Z</time>
      </trkpt>
      <trkpt lat="46.97255" lon="8.78125">
        <ele>644</ele>
        <time>2021-08-05T14:03:25.111Z</time>
      </trkpt>
      <trkpt lat="46.97255" lon="8.78126">
        <ele>643</ele>
        <time>2021-08-05T14:03:26.110Z</time>
      </trkpt>
      <trkpt lat="46.97254" lon="8.78127">
        <ele>642</ele>
        <time>2021-08-05T14:03:27.110Z</time>
      </trkpt>
      <trkpt lat="46.97253" lon="8.78127">
        <ele>642</ele>
        <time>2021-08-05T14:03:28.111Z</time>
      </trkpt>
      <trkpt lat="46.97253" lon="8.78128">
        <ele>642</ele>
        <time>2021-08-05T14:03:29.111Z</time>
      </trkpt>
      <trkpt lat="46.97253" lon="8.7813">
        <ele>641</ele>
        <time>2021-08-05T14:03:30.110Z</time>
      </trkpt>
      <trkpt lat="46.97252" lon="8.78132">
        <ele>641</ele>
        <time>2021-08-05T14:03:31.111Z</time>
      </trkpt>
      <trkpt lat="46.97252" lon="8.78133">
        <ele>641</ele>
        <time>2021-08-05T14:03:32.110Z</time>
      </trkpt>
      <trkpt lat="46.97251" lon="8.78134">
        <ele>641</ele>
        <time>2021-08-05T14:03:33.111Z</time>
      </trkpt>
      <trkpt lat="46.97251" lon="8.78135">
        <ele>642</ele>
        <time>2021-08-05T14:03:34.111Z</time>
      </trkpt>
      <trkpt lat="46.97251" lon="8.78137">
        <ele>642</ele>
        <time>2021-08-05T14:03:35.111Z</time>
      </trkpt>
      <trkpt lat="46.9725" lon="8.78139">
        <ele>642</ele>
        <time>2021-08-05T14:03:36.111Z</time>
      </trkpt>
      <trkpt lat="46.9725" lon="8.78141">
        <ele>642</ele>
        <time>2021-08-05T14:03:37.110Z</time>
      </trkpt>
      <trkpt lat="46.9725" lon="8.78142">
        <ele>642</ele>
        <time>2021-08-05T14:03:38.110Z</time>
      </trkpt>
      <trkpt lat="46.9725" lon="8.78144">
        <ele>641</ele>
        <time>2021-08-05T14:03:39.110Z</time>
      </trkpt>
      <trkpt lat="46.9725" lon="8.78145">
        <ele>641</ele>
        <time>2021-08-05T14:03:40.111Z</time>
      </trkpt>
      <trkpt lat="46.9725" lon="8.78147">
        <ele>641</ele>
        <time>2021-08-05T14:03:41.110Z</time>
      </trkpt>
      <trkpt lat="46.9725" lon="8.78148">
        <ele>641</ele>
        <time>2021-08-05T14:03:42.111Z</time>
      </trkpt>
      <trkpt lat="46.9725" lon="8.7815">
        <ele>641</ele>
        <time>2021-08-05T14:03:43.110Z</time>
      </trkpt>
      <trkpt lat="46.97249" lon="8.78151">
        <ele>641</ele>
        <time>2021-08-05T14:03:44.111Z</time>
      </trkpt>
      <trkpt lat="46.97249" lon="8.78152">
        <ele>641</ele>
        <time>2021-08-05T14:03:45.111Z</time>
      </trkpt>
      <trkpt lat="46.97248" lon="8.78153">
        <ele>641</ele>
        <time>2021-08-05T14:03:46.110Z</time>
      </trkpt>
      <trkpt lat="46.97248" lon="8.78155">
        <ele>641</ele>
        <time>2021-08-05T14:03:47.110Z</time>
      </trkpt>
      <trkpt lat="46.97248" lon="8.78156">
        <ele>641</ele>
        <time>2021-08-05T14:03:48.110Z</time>
      </trkpt>
      <trkpt lat="46.97248" lon="8.78157">
        <ele>641</ele>
        <time>2021-08-05T14:03:49.110Z</time>
      </trkpt>
      <trkpt lat="46.97247" lon="8.78159">
        <ele>642</ele>
        <time>2021-08-05T14:03:50.110Z</time>
      </trkpt>
      <trkpt lat="46.97247" lon="8.7816">
        <ele>642</ele>
        <time>2021-08-05T14:03:51.110Z</time>
      </trkpt>
      <trkpt lat="46.97246" lon="8.78162">
        <ele>643</ele>
        <time>2021-08-05T14:03:52.110Z</time>
      </trkpt>
      <trkpt lat="46.97246" lon="8.78164">
        <ele>643</ele>
        <time>2021-08-05T14:03:53.110Z</time>
      </trkpt>
      <trkpt lat="46.97245" lon="8.78165">
        <ele>642</ele>
        <time>2021-08-05T14:03:54.110Z</time>
      </trkpt>
      <trkpt lat="46.97244" lon="8.78167">
        <ele>642</ele>
        <time>2021-08-05T14:03:55.110Z</time>
      </trkpt>
      <trkpt lat="46.97244" lon="8.78168">
        <ele>641</ele>
        <time>2021-08-05T14:03:56.110Z</time>
      </trkpt>
      <trkpt lat="46.97243" lon="8.78169">
        <ele>641</ele>
        <time>2021-08-05T14:03:57.110Z</time>
      </trkpt>
      <trkpt lat="46.97243" lon="8.78171">
        <ele>641</ele>
        <time>2021-08-05T14:03:58.110Z</time>
      </trkpt>
      <trkpt lat="46.97242" lon="8.78173">
        <ele>640</ele>
        <time>2021-08-05T14:03:59.111Z</time>
      </trkpt>
      <trkpt lat="46.97242" lon="8.78175">
        <ele>640</ele>
        <time>2021-08-05T14:04:00.110Z</time>
      </trkpt>
      <trkpt lat="46.97241" lon="8.78177">
        <ele>640</ele>
        <time>2021-08-05T14:04:01.111Z</time>
      </trkpt>
      <trkpt lat="46.97241" lon="8.78179">
        <ele>640</ele>
        <time>2021-08-05T14:04:02.111Z</time>
      </trkpt>
      <trkpt lat="46.97239" lon="8.7818">
        <ele>641</ele>
        <time>2021-08-05T14:04:03.110Z</time>
      </trkpt>
      <trkpt lat="46.97238" lon="8.78181">
        <ele>641</ele>
        <time>2021-08-05T14:04:04.110Z</time>
      </trkpt>
      <trkpt lat="46.97238" lon="8.78183">
        <ele>641</ele>
        <time>2021-08-05T14:04:05.111Z</time>
      </trkpt>
      <trkpt lat="46.97239" lon="8.78186">
        <ele>641</ele>
        <time>2021-08-05T14:04:06.110Z</time>
      </trkpt>
      <trkpt lat="46.97238" lon="8.78187">
        <ele>642</ele>
        <time>2021-08-05T14:04:07.111Z</time>
      </trkpt>
      <trkpt lat="46.97238" lon="8.78189">
        <ele>642</ele>
        <time>2021-08-05T14:04:08.110Z</time>
      </trkpt>
      <trkpt lat="46.97238" lon="8.78191">
        <ele>643</ele>
        <time>2021-08-05T14:04:09.111Z</time>
      </trkpt>
      <trkpt lat="46.97237" lon="8.78192">
        <ele>643</ele>
        <time>2021-08-05T14:04:10.110Z</time>
      </trkpt>
      <trkpt lat="46.97237" lon="8.78194">
        <ele>643</ele>
        <time>2021-08-05T14:04:11.110Z</time>
      </trkpt>
      <trkpt lat="46.97237" lon="8.78196">
        <ele>643</ele>
        <time>2021-08-05T14:04:12.110Z</time>
      </trkpt>
      <trkpt lat="46.97237" lon="8.78198">
        <ele>644</ele>
        <time>2021-08-05T14:04:13.110Z</time>
      </trkpt>
      <trkpt lat="46.97237" lon="8.782">
        <ele>644</ele>
        <time>2021-08-05T14:04:14.110Z</time>
      </trkpt>
      <trkpt lat="46.97237" lon="8.78203">
        <ele>644</ele>
        <time>2021-08-05T14:04:15.110Z</time>
      </trkpt>
      <trkpt lat="46.97236" lon="8.78205">
        <ele>644</ele>
        <time>2021-08-05T14:04:16.110Z</time>
      </trkpt>
      <trkpt lat="46.97236" lon="8.78206">
        <ele>644</ele>
        <time>2021-08-05T14:04:17.110Z</time>
      </trkpt>
      <trkpt lat="46.97236" lon="8.78208">
        <ele>644</ele>
        <time>2021-08-05T14:04:18.110Z</time>
      </trkpt>
      <trkpt lat="46.97236" lon="8.7821">
        <ele>644</ele>
        <time>2021-08-05T14:04:19.110Z</time>
      </trkpt>
      <trkpt lat="46.97235" lon="8.78211">
        <ele>644</ele>
        <time>2021-08-05T14:04:20.110Z</time>
      </trkpt>
      <trkpt lat="46.97235" lon="8.78213">
        <ele>645</ele>
        <time>2021-08-05T14:04:21.110Z</time>
      </trkpt>
      <trkpt lat="46.97234" lon="8.78214">
        <ele>645</ele>
        <time>2021-08-05T14:04:22.110Z</time>
      </trkpt>
      <trkpt lat="46.97234" lon="8.78215">
        <ele>645</ele>
        <time>2021-08-05T14:04:23.110Z</time>
      </trkpt>
      <trkpt lat="46.97233" lon="8.78215">
        <ele>646</ele>
        <time>2021-08-05T14:04:24.111Z</time>
      </trkpt>
      <trkpt lat="46.97233" lon="8.78216">
        <ele>646</ele>
        <time>2021-08-05T14:04:25.110Z</time>
      </trkpt>
      <trkpt lat="46.97233" lon="8.78217">
        <ele>646</ele>
        <time>2021-08-05T14:04:26.110Z</time>
      </trkpt>
      <trkpt lat="46.97233" lon="8.78219">
        <ele>645</ele>
        <time>2021-08-05T14:04:27.110Z</time>
      </trkpt>
      <trkpt lat="46.97233" lon="8.78221">
        <ele>645</ele>
        <time>2021-08-05T14:04:28.110Z</time>
      </trkpt>
      <trkpt lat="46.97232" lon="8.78222">
        <ele>644</ele>
        <time>2021-08-05T14:04:29.110Z</time>
      </trkpt>
      <trkpt lat="46.97231" lon="8.78225">
        <ele>644</ele>
        <time>2021-08-05T14:04:30.110Z</time>
      </trkpt>
      <trkpt lat="46.9723" lon="8.78228">
        <ele>643</ele>
        <time>2021-08-05T14:04:31.110Z</time>
      </trkpt>
      <trkpt lat="46.9723" lon="8.7823">
        <ele>642</ele>
        <time>2021-08-05T14:04:32.111Z</time>
      </trkpt>
      <trkpt lat="46.97229" lon="8.78232">
        <ele>642</ele>
        <time>2021-08-05T14:04:33.111Z</time>
      </trkpt>
      <trkpt lat="46.97229" lon="8.78233">
        <ele>641</ele>
        <time>2021-08-05T14:04:34.110Z</time>
      </trkpt>
      <trkpt lat="46.97229" lon="8.78235">
        <ele>641</ele>
        <time>2021-08-05T14:04:35.110Z</time>
      </trkpt>
      <trkpt lat="46.97229" lon="8.78237">
        <ele>640</ele>
        <time>2021-08-05T14:04:36.110Z</time>
      </trkpt>
      <trkpt lat="46.97228" lon="8.78238">
        <ele>640</ele>
        <time>2021-08-05T14:04:37.111Z</time>
      </trkpt>
      <trkpt lat="46.97228" lon="8.78239">
        <ele>640</ele>
        <time>2021-08-05T14:04:38.111Z</time>
      </trkpt>
      <trkpt lat="46.97228" lon="8.78241">
        <ele>640</ele>
        <time>2021-08-05T14:04:39.111Z</time>
      </trkpt>
      <trkpt lat="46.97228" lon="8.78242">
        <ele>640</ele>
        <time>2021-08-05T14:04:40.111Z</time>
      </trkpt>
      <trkpt lat="46.97228" lon="8.78243">
        <ele>640</ele>
        <time>2021-08-05T14:04:41.111Z</time>
      </trkpt>
      <trkpt lat="46.97227" lon="8.78245">
        <ele>641</ele>
        <time>2021-08-05T14:04:42.110Z</time>
      </trkpt>
      <trkpt lat="46.97227" lon="8.78246">
        <ele>641</ele>
        <time>2021-08-05T14:04:43.111Z</time>
      </trkpt>
      <trkpt lat="46.97227" lon="8.78248">
        <ele>641</ele>
        <time>2021-08-05T14:04:44.111Z</time>
      </trkpt>
      <trkpt lat="46.97227" lon="8.7825">
        <ele>641</ele>
        <time>2021-08-05T14:04:45.111Z</time>
      </trkpt>
      <trkpt lat="46.97227" lon="8.78251">
        <ele>642</ele>
        <time>2021-08-05T14:04:46.111Z</time>
      </trkpt>
      <trkpt lat="46.97226" lon="8.78253">
        <ele>642</ele>
        <time>2021-08-05T14:04:47.110Z</time>
      </trkpt>
      <trkpt lat="46.97226" lon="8.78255">
        <ele>642</ele>
        <time>2021-08-05T14:04:48.110Z</time>
      </trkpt>
      <trkpt lat="46.97226" lon="8.78257">
        <ele>642</ele>
        <time>2021-08-05T14:04:49.111Z</time>
      </trkpt>
      <trkpt lat="46.97225" lon="8.78259">
        <ele>641</ele>
        <time>2021-08-05T14:04:50.110Z</time>
      </trkpt>
      <trkpt lat="46.97225" lon="8.7826">
        <ele>641</ele>
        <time>2021-08-05T14:04:51.111Z</time>
      </trkpt>
      <trkpt lat="46.97224" lon="8.78262">
        <ele>641</ele>
        <time>2021-08-05T14:04:52.110Z</time>
      </trkpt>
      <trkpt lat="46.97223" lon="8.78264">
        <ele>641</ele>
        <time>2021-08-05T14:04:53.111Z</time>
      </trkpt>
      <trkpt lat="46.97223" lon="8.78266">
        <ele>641</ele>
        <time>2021-08-05T14:04:54.111Z</time>
      </trkpt>
      <trkpt lat="46.97222" lon="8.78267">
        <ele>641</ele>
        <time>2021-08-05T14:04:55.111Z</time>
      </trkpt>
      <trkpt lat="46.97222" lon="8.78269">
        <ele>640</ele>
        <time>2021-08-05T14:04:56.110Z</time>
      </trkpt>
      <trkpt lat="46.97222" lon="8.78271">
        <ele>640</ele>
        <time>2021-08-05T14:04:57.110Z</time>
      </trkpt>
      <trkpt lat="46.97222" lon="8.78273">
        <ele>640</ele>
        <time>2021-08-05T14:04:58.110Z</time>
      </trkpt>
      <trkpt lat="46.97221" lon="8.78274">
        <ele>640</ele>
        <time>2021-08-05T14:04:59.111Z</time>
      </trkpt>
      <trkpt lat="46.97222" lon="8.78277">
        <ele>640</ele>
        <time>2021-08-05T14:05:00.110Z</time>
      </trkpt>
      <trkpt lat="46.97222" lon="8.78279">
        <ele>640</ele>
        <time>2021-08-05T14:05:01.111Z</time>
      </trkpt>
      <trkpt lat="46.97222" lon="8.78281">
        <ele>640</ele>
        <time>2021-08-05T14:05:02.111Z</time>
      </trkpt>
      <trkpt lat="46.97221" lon="8.78282">
        <ele>640</ele>
        <time>2021-08-05T14:05:03.111Z</time>
      </trkpt>
      <trkpt lat="46.97221" lon="8.78283">
        <ele>640</ele>
        <time>2021-08-05T14:05:04.110Z</time>
      </trkpt>
      <trkpt lat="46.9722" lon="8.78285">
        <ele>640</ele>
        <time>2021-08-05T14:05:05.111Z</time>
      </trkpt>
      <trkpt lat="46.9722" lon="8.78286">
        <ele>640</ele>
        <time>2021-08-05T14:05:06.111Z</time>
      </trkpt>
      <trkpt lat="46.97219" lon="8.78288">
        <ele>640</ele>
        <time>2021-08-05T14:05:07.111Z</time>
      </trkpt>
      <trkpt lat="46.97219" lon="8.78289">
        <ele>640</ele>
        <time>2021-08-05T14:05:08.110Z</time>
      </trkpt>
      <trkpt lat="46.97219" lon="8.78291">
        <ele>640</ele>
        <time>2021-08-05T14:05:09.111Z</time>
      </trkpt>
      <trkpt lat="46.97218" lon="8.78292">
        <ele>640</ele>
        <time>2021-08-05T14:05:10.110Z</time>
      </trkpt>
      <trkpt lat="46.97218" lon="8.78294">
        <ele>639</ele>
        <time>2021-08-05T14:05:11.110Z</time>
      </trkpt>
      <trkpt lat="46.97217" lon="8.78296">
        <ele>639</ele>
        <time>2021-08-05T14:05:12.110Z</time>
      </trkpt>
      <trkpt lat="46.97216" lon="8.78297">
        <ele>640</ele>
        <time>2021-08-05T14:05:13.110Z</time>
      </trkpt>
      <trkpt lat="46.97216" lon="8.78298">
        <ele>640</ele>
        <time>2021-08-05T14:05:14.111Z</time>
      </trkpt>
      <trkpt lat="46.97215" lon="8.78299">
        <ele>640</ele>
        <time>2021-08-05T14:05:15.111Z</time>
      </trkpt>
      <trkpt lat="46.97215" lon="8.78301">
        <ele>641</ele>
        <time>2021-08-05T14:05:16.111Z</time>
      </trkpt>
      <trkpt lat="46.97215" lon="8.78302">
        <ele>641</ele>
        <time>2021-08-05T14:05:17.111Z</time>
      </trkpt>
      <trkpt lat="46.97214" lon="8.78304">
        <ele>641</ele>
        <time>2021-08-05T14:05:18.111Z</time>
      </trkpt>
      <trkpt lat="46.97214" lon="8.78306">
        <ele>641</ele>
        <time>2021-08-05T14:05:19.111Z</time>
      </trkpt>
      <trkpt lat="46.97213" lon="8.78308">
        <ele>641</ele>
        <time>2021-08-05T14:05:20.111Z</time>
      </trkpt>
      <trkpt lat="46.97212" lon="8.7831">
        <ele>641</ele>
        <time>2021-08-05T14:05:21.110Z</time>
      </trkpt>
      <trkpt lat="46.97211" lon="8.78312">
        <ele>641</ele>
        <time>2021-08-05T14:05:22.110Z</time>
      </trkpt>
      <trkpt lat="46.97211" lon="8.78314">
        <ele>641</ele>
        <time>2021-08-05T14:05:23.111Z</time>
      </trkpt>
      <trkpt lat="46.97211" lon="8.78315">
        <ele>641</ele>
        <time>2021-08-05T14:05:24.111Z</time>
      </trkpt>
      <trkpt lat="46.97211" lon="8.78317">
        <ele>641</ele>
        <time>2021-08-05T14:05:25.110Z</time>
      </trkpt>
      <trkpt lat="46.9721" lon="8.78319">
        <ele>641</ele>
        <time>2021-08-05T14:05:26.110Z</time>
      </trkpt>
      <trkpt lat="46.9721" lon="8.7832">
        <ele>641</ele>
        <time>2021-08-05T14:05:27.110Z</time>
      </trkpt>
      <trkpt lat="46.9721" lon="8.78321">
        <ele>641</ele>
        <time>2021-08-05T14:05:28.111Z</time>
      </trkpt>
      <trkpt lat="46.97209" lon="8.78323">
        <ele>642</ele>
        <time>2021-08-05T14:05:29.110Z</time>
      </trkpt>
      <trkpt lat="46.97209" lon="8.78325">
        <ele>642</ele>
        <time>2021-08-05T14:05:30.110Z</time>
      </trkpt>
      <trkpt lat="46.97209" lon="8.78326">
        <ele>642</ele>
        <time>2021-08-05T14:05:31.111Z</time>
      </trkpt>
      <trkpt lat="46.97208" lon="8.78328">
        <ele>642</ele>
        <time>2021-08-05T14:05:32.111Z</time>
      </trkpt>
      <trkpt lat="46.97208" lon="8.78329">
        <ele>642</ele>
        <time>2021-08-05T14:05:33.111Z</time>
      </trkpt>
      <trkpt lat="46.97208" lon="8.78331">
        <ele>641</ele>
        <time>2021-08-05T14:05:34.110Z</time>
      </trkpt>
      <trkpt lat="46.97207" lon="8.78333">
        <ele>641</ele>
        <time>2021-08-05T14:05:35.110Z</time>
      </trkpt>
      <trkpt lat="46.97207" lon="8.78334">
        <ele>641</ele>
        <time>2021-08-05T14:05:36.111Z</time>
      </trkpt>
      <trkpt lat="46.97207" lon="8.78336">
        <ele>641</ele>
        <time>2021-08-05T14:05:37.110Z</time>
      </trkpt>
      <trkpt lat="46.97206" lon="8.78337">
        <ele>641</ele>
        <time>2021-08-05T14:05:38.111Z</time>
      </trkpt>
      <trkpt lat="46.97206" lon="8.78339">
        <ele>641</ele>
        <time>2021-08-05T14:05:39.111Z</time>
      </trkpt>
      <trkpt lat="46.97205" lon="8.7834">
        <ele>641</ele>
        <time>2021-08-05T14:05:40.110Z</time>
      </trkpt>
      <trkpt lat="46.97205" lon="8.78342">
        <ele>641</ele>
        <time>2021-08-05T14:05:41.111Z</time>
      </trkpt>
      <trkpt lat="46.97204" lon="8.78344">
        <ele>641</ele>
        <time>2021-08-05T14:05:42.110Z</time>
      </trkpt>
      <trkpt lat="46.97204" lon="8.78346">
        <ele>641</ele>
        <time>2021-08-05T14:05:43.111Z</time>
      </trkpt>
      <trkpt lat="46.97202" lon="8.78347">
        <ele>641</ele>
        <time>2021-08-05T14:05:44.111Z</time>
      </trkpt>
      <trkpt lat="46.97202" lon="8.78348">
        <ele>641</ele>
        <time>2021-08-05T14:05:45.111Z</time>
      </trkpt>
      <trkpt lat="46.97201" lon="8.7835">
        <ele>641</ele>
        <time>2021-08-05T14:05:46.110Z</time>
      </trkpt>
      <trkpt lat="46.97201" lon="8.78352">
        <ele>641</ele>
        <time>2021-08-05T14:05:47.111Z</time>
      </trkpt>
      <trkpt lat="46.97201" lon="8.78353">
        <ele>641</ele>
        <time>2021-08-05T14:05:48.110Z</time>
      </trkpt>
      <trkpt lat="46.97201" lon="8.78355">
        <ele>640</ele>
        <time>2021-08-05T14:05:49.111Z</time>
      </trkpt>
      <trkpt lat="46.97201" lon="8.78356">
        <ele>640</ele>
        <time>2021-08-05T14:05:50.111Z</time>
      </trkpt>
      <trkpt lat="46.97201" lon="8.78358">
        <ele>640</ele>
        <time>2021-08-05T14:05:51.110Z</time>
      </trkpt>
      <trkpt lat="46.97201" lon="8.78359">
        <ele>640</ele>
        <time>2021-08-05T14:05:52.110Z</time>
      </trkpt>
      <trkpt lat="46.97201" lon="8.78361">
        <ele>641</ele>
        <time>2021-08-05T14:05:53.111Z</time>
      </trkpt>
      <trkpt lat="46.972" lon="8.78363">
        <ele>641</ele>
        <time>2021-08-05T14:05:54.111Z</time>
      </trkpt>
      <trkpt lat="46.972" lon="8.78365">
        <ele>641</ele>
        <time>2021-08-05T14:05:55.110Z</time>
      </trkpt>
      <trkpt lat="46.972" lon="8.78366">
        <ele>641</ele>
        <time>2021-08-05T14:05:56.111Z</time>
      </trkpt>
      <trkpt lat="46.97199" lon="8.78368">
        <ele>641</ele>
        <time>2021-08-05T14:05:57.111Z</time>
      </trkpt>
      <trkpt lat="46.97199" lon="8.78369">
        <ele>642</ele>
        <time>2021-08-05T14:05:58.110Z</time>
      </trkpt>
      <trkpt lat="46.97198" lon="8.78371">
        <ele>642</ele>
        <time>2021-08-05T14:05:59.111Z</time>
      </trkpt>
      <trkpt lat="46.97198" lon="8.78372">
        <ele>642</ele>
        <time>2021-08-05T14:06:00.110Z</time>
      </trkpt>
      <trkpt lat="46.97197" lon="8.78374">
        <ele>643</ele>
        <time>2021-08-05T14:06:01.110Z</time>
      </trkpt>
      <trkpt lat="46.97196" lon="8.78376">
        <ele>644</ele>
        <time>2021-08-05T14:06:02.110Z</time>
      </trkpt>
      <trkpt lat="46.97196" lon="8.78378">
        <ele>644</ele>
        <time>2021-08-05T14:06:03.110Z</time>
      </trkpt>
      <trkpt lat="46.97195" lon="8.7838">
        <ele>645</ele>
        <time>2021-08-05T14:06:04.111Z</time>
      </trkpt>
      <trkpt lat="46.97195" lon="8.78383">
        <ele>646</ele>
        <time>2021-08-05T14:06:05.111Z</time>
      </trkpt>
      <trkpt lat="46.97194" lon="8.78385">
        <ele>646</ele>
        <time>2021-08-05T14:06:06.111Z</time>
      </trkpt>
      <trkpt lat="46.97194" lon="8.78387">
        <ele>647</ele>
        <time>2021-08-05T14:06:07.111Z</time>
      </trkpt>
      <trkpt lat="46.97194" lon="8.78388">
        <ele>647</ele>
        <time>2021-08-05T14:06:08.111Z</time>
      </trkpt>
      <trkpt lat="46.97194" lon="8.7839">
        <ele>647</ele>
        <time>2021-08-05T14:06:09.111Z</time>
      </trkpt>
      <trkpt lat="46.97193" lon="8.78391">
        <ele>647</ele>
        <time>2021-08-05T14:06:10.111Z</time>
      </trkpt>
      <trkpt lat="46.97192" lon="8.78393">
        <ele>648</ele>
        <time>2021-08-05T14:06:11.110Z</time>
      </trkpt>
      <trkpt lat="46.97191" lon="8.78394">
        <ele>648</ele>
        <time>2021-08-05T14:06:12.110Z</time>
      </trkpt>
      <trkpt lat="46.97191" lon="8.78396">
        <ele>648</ele>
        <time>2021-08-05T14:06:13.110Z</time>
      </trkpt>
      <trkpt lat="46.9719" lon="8.78398">
        <ele>648</ele>
        <time>2021-08-05T14:06:14.111Z</time>
      </trkpt>
      <trkpt lat="46.9719" lon="8.784">
        <ele>648</ele>
        <time>2021-08-05T14:06:15.111Z</time>
      </trkpt>
      <trkpt lat="46.97191" lon="8.78403">
        <ele>647</ele>
        <time>2021-08-05T14:06:16.110Z</time>
      </trkpt>
      <trkpt lat="46.97191" lon="8.78404">
        <ele>647</ele>
        <time>2021-08-05T14:06:17.111Z</time>
      </trkpt>
      <trkpt lat="46.97191" lon="8.78406">
        <ele>646</ele>
        <time>2021-08-05T14:06:18.111Z</time>
      </trkpt>
      <trkpt lat="46.9719" lon="8.78407">
        <ele>646</ele>
        <time>2021-08-05T14:06:19.111Z</time>
      </trkpt>
      <trkpt lat="46.9719" lon="8.78409">
        <ele>646</ele>
        <time>2021-08-05T14:06:20.111Z</time>
      </trkpt>
      <trkpt lat="46.97189" lon="8.78411">
        <ele>646</ele>
        <time>2021-08-05T14:06:21.111Z</time>
      </trkpt>
      <trkpt lat="46.97189" lon="8.78412">
        <ele>645</ele>
        <time>2021-08-05T14:06:22.111Z</time>
      </trkpt>
      <trkpt lat="46.97189" lon="8.78415">
        <ele>645</ele>
        <time>2021-08-05T14:06:23.110Z</time>
      </trkpt>
      <trkpt lat="46.97189" lon="8.78417">
        <ele>645</ele>
        <time>2021-08-05T14:06:24.111Z</time>
      </trkpt>
      <trkpt lat="46.97189" lon="8.78418">
        <ele>644</ele>
        <time>2021-08-05T14:06:25.111Z</time>
      </trkpt>
      <trkpt lat="46.97188" lon="8.7842">
        <ele>644</ele>
        <time>2021-08-05T14:06:26.111Z</time>
      </trkpt>
      <trkpt lat="46.97188" lon="8.78421">
        <ele>644</ele>
        <time>2021-08-05T14:06:27.111Z</time>
      </trkpt>
      <trkpt lat="46.97187" lon="8.78423">
        <ele>644</ele>
        <time>2021-08-05T14:06:28.110Z</time>
      </trkpt>
      <trkpt lat="46.97187" lon="8.78424">
        <ele>644</ele>
        <time>2021-08-05T14:06:29.111Z</time>
      </trkpt>
      <trkpt lat="46.97187" lon="8.78425">
        <ele>644</ele>
        <time>2021-08-05T14:06:30.111Z</time>
      </trkpt>
      <trkpt lat="46.97186" lon="8.78426">
        <ele>644</ele>
        <time>2021-08-05T14:06:31.111Z</time>
      </trkpt>
      <trkpt lat="46.97186" lon="8.78428">
        <ele>644</ele>
        <time>2021-08-05T14:06:32.111Z</time>
      </trkpt>
      <trkpt lat="46.97185" lon="8.78429">
        <ele>644</ele>
        <time>2021-08-05T14:06:33.110Z</time>
      </trkpt>
      <trkpt lat="46.97185" lon="8.7843">
        <ele>644</ele>
        <time>2021-08-05T14:06:34.111Z</time>
      </trkpt>
      <trkpt lat="46.97185" lon="8.78432">
        <ele>644</ele>
        <time>2021-08-05T14:06:35.111Z</time>
      </trkpt>
      <trkpt lat="46.97185" lon="8.78433">
        <ele>645</ele>
        <time>2021-08-05T14:06:36.111Z</time>
      </trkpt>
      <trkpt lat="46.97184" lon="8.78435">
        <ele>645</ele>
        <time>2021-08-05T14:06:37.111Z</time>
      </trkpt>
      <trkpt lat="46.97184" lon="8.78436">
        <ele>646</ele>
        <time>2021-08-05T14:06:38.110Z</time>
      </trkpt>
      <trkpt lat="46.97183" lon="8.78437">
        <ele>646</ele>
        <time>2021-08-05T14:06:39.110Z</time>
      </trkpt>
      <trkpt lat="46.97183" lon="8.78439">
        <ele>647</ele>
        <time>2021-08-05T14:06:40.110Z</time>
      </trkpt>
      <trkpt lat="46.97183" lon="8.7844">
        <ele>647</ele>
        <time>2021-08-05T14:06:41.111Z</time>
      </trkpt>
      <trkpt lat="46.97182" lon="8.78441">
        <ele>647</ele>
        <time>2021-08-05T14:06:42.111Z</time>
      </trkpt>
      <trkpt lat="46.97182" lon="8.78443">
        <ele>647</ele>
        <time>2021-08-05T14:06:43.111Z</time>
      </trkpt>
      <trkpt lat="46.97181" lon="8.78445">
        <ele>647</ele>
        <time>2021-08-05T14:06:44.111Z</time>
      </trkpt>
      <trkpt lat="46.97181" lon="8.78446">
        <ele>647</ele>
        <time>2021-08-05T14:06:45.110Z</time>
      </trkpt>
      <trkpt lat="46.97181" lon="8.78449">
        <ele>647</ele>
        <time>2021-08-05T14:06:46.111Z</time>
      </trkpt>
      <trkpt lat="46.9718" lon="8.7845">
        <ele>647</ele>
        <time>2021-08-05T14:06:47.110Z</time>
      </trkpt>
      <trkpt lat="46.9718" lon="8.78452">
        <ele>647</ele>
        <time>2021-08-05T14:06:48.110Z</time>
      </trkpt>
      <trkpt lat="46.9718" lon="8.78453">
        <ele>648</ele>
        <time>2021-08-05T14:06:49.111Z</time>
      </trkpt>
      <trkpt lat="46.9718" lon="8.78454">
        <ele>648</ele>
        <time>2021-08-05T14:06:50.111Z</time>
      </trkpt>
      <trkpt lat="46.97179" lon="8.78456">
        <ele>648</ele>
        <time>2021-08-05T14:06:51.110Z</time>
      </trkpt>
      <trkpt lat="46.97179" lon="8.78458">
        <ele>648</ele>
        <time>2021-08-05T14:06:52.110Z</time>
      </trkpt>
      <trkpt lat="46.97178" lon="8.78459">
        <ele>648</ele>
        <time>2021-08-05T14:06:53.111Z</time>
      </trkpt>
      <trkpt lat="46.97178" lon="8.78461">
        <ele>648</ele>
        <time>2021-08-05T14:06:54.110Z</time>
      </trkpt>
      <trkpt lat="46.97177" lon="8.78464">
        <ele>648</ele>
        <time>2021-08-05T14:06:55.111Z</time>
      </trkpt>
      <trkpt lat="46.97177" lon="8.78466">
        <ele>648</ele>
        <time>2021-08-05T14:06:56.110Z</time>
      </trkpt>
      <trkpt lat="46.97177" lon="8.78467">
        <ele>647</ele>
        <time>2021-08-05T14:06:57.111Z</time>
      </trkpt>
      <trkpt lat="46.97177" lon="8.78468">
        <ele>647</ele>
        <time>2021-08-05T14:06:58.110Z</time>
      </trkpt>
      <trkpt lat="46.97176" lon="8.78469">
        <ele>648</ele>
        <time>2021-08-05T14:06:59.111Z</time>
      </trkpt>
      <trkpt lat="46.97176" lon="8.78471">
        <ele>648</ele>
        <time>2021-08-05T14:07:00.111Z</time>
      </trkpt>
      <trkpt lat="46.97176" lon="8.78473">
        <ele>648</ele>
        <time>2021-08-05T14:07:01.111Z</time>
      </trkpt>
      <trkpt lat="46.97176" lon="8.78474">
        <ele>648</ele>
        <time>2021-08-05T14:07:02.110Z</time>
      </trkpt>
      <trkpt lat="46.97176" lon="8.78475">
        <ele>648</ele>
        <time>2021-08-05T14:07:03.111Z</time>
      </trkpt>
      <trkpt lat="46.97175" lon="8.78477">
        <ele>648</ele>
        <time>2021-08-05T14:07:04.110Z</time>
      </trkpt>
      <trkpt lat="46.97174" lon="8.78479">
        <ele>649</ele>
        <time>2021-08-05T14:07:05.111Z</time>
      </trkpt>
      <trkpt lat="46.97174" lon="8.78481">
        <ele>649</ele>
        <time>2021-08-05T14:07:06.111Z</time>
      </trkpt>
      <trkpt lat="46.97173" lon="8.78482">
        <ele>649</ele>
        <time>2021-08-05T14:07:07.111Z</time>
      </trkpt>
      <trkpt lat="46.97172" lon="8.78484">
        <ele>649</ele>
        <time>2021-08-05T14:07:08.111Z</time>
      </trkpt>
      <trkpt lat="46.97172" lon="8.78486">
        <ele>649</ele>
        <time>2021-08-05T14:07:09.111Z</time>
      </trkpt>
      <trkpt lat="46.97172" lon="8.78488">
        <ele>649</ele>
        <time>2021-08-05T14:07:10.111Z</time>
      </trkpt>
      <trkpt lat="46.97172" lon="8.7849">
        <ele>649</ele>
        <time>2021-08-05T14:07:11.111Z</time>
      </trkpt>
      <trkpt lat="46.97172" lon="8.78492">
        <ele>650</ele>
        <time>2021-08-05T14:07:12.111Z</time>
      </trkpt>
      <trkpt lat="46.9717" lon="8.78493">
        <ele>650</ele>
        <time>2021-08-05T14:07:13.111Z</time>
      </trkpt>
      <trkpt lat="46.9717" lon="8.78495">
        <ele>651</ele>
        <time>2021-08-05T14:07:14.110Z</time>
      </trkpt>
      <trkpt lat="46.97169" lon="8.78496">
        <ele>651</ele>
        <time>2021-08-05T14:07:15.110Z</time>
      </trkpt>
      <trkpt lat="46.97169" lon="8.78498">
        <ele>652</ele>
        <time>2021-08-05T14:07:16.110Z</time>
      </trkpt>
      <trkpt lat="46.97167" lon="8.785">
        <ele>652</ele>
        <time>2021-08-05T14:07:17.111Z</time>
      </trkpt>
      <trkpt lat="46.97166" lon="8.78502">
        <ele>652</ele>
        <time>2021-08-05T14:07:18.111Z</time>
      </trkpt>
      <trkpt lat="46.97166" lon="8.78504">
        <ele>653</ele>
        <time>2021-08-05T14:07:19.110Z</time>
      </trkpt>
      <trkpt lat="46.97165" lon="8.78506">
        <ele>653</ele>
        <time>2021-08-05T14:07:20.110Z</time>
      </trkpt>
      <trkpt lat="46.97165" lon="8.78508">
        <ele>653</ele>
        <time>2021-08-05T14:07:21.110Z</time>
      </trkpt>
      <trkpt lat="46.97165" lon="8.7851">
        <ele>654</ele>
        <time>2021-08-05T14:07:22.110Z</time>
      </trkpt>
      <trkpt lat="46.97164" lon="8.78511">
        <ele>654</ele>
        <time>2021-08-05T14:07:23.110Z</time>
      </trkpt>
      <trkpt lat="46.97164" lon="8.78512">
        <ele>654</ele>
        <time>2021-08-05T14:07:24.110Z</time>
      </trkpt>
      <trkpt lat="46.97164" lon="8.78513">
        <ele>654</ele>
        <time>2021-08-05T14:07:25.111Z</time>
      </trkpt>
      <trkpt lat="46.97164" lon="8.78514">
        <ele>655</ele>
        <time>2021-08-05T14:07:26.111Z</time>
      </trkpt>
      <trkpt lat="46.97163" lon="8.78516">
        <ele>655</ele>
        <time>2021-08-05T14:07:27.110Z</time>
      </trkpt>
      <trkpt lat="46.97163" lon="8.78518">
        <ele>655</ele>
        <time>2021-08-05T14:07:28.110Z</time>
      </trkpt>
      <trkpt lat="46.97163" lon="8.78519">
        <ele>655</ele>
        <time>2021-08-05T14:07:29.110Z</time>
      </trkpt>
      <trkpt lat="46.97163" lon="8.7852">
        <ele>655</ele>
        <time>2021-08-05T14:07:30.110Z</time>
      </trkpt>
      <trkpt lat="46.97163" lon="8.78521">
        <ele>656</ele>
        <time>2021-08-05T14:07:31.110Z</time>
      </trkpt>
      <trkpt lat="46.97163" lon="8.78523">
        <ele>656</ele>
        <time>2021-08-05T14:07:32.110Z</time>
      </trkpt>
      <trkpt lat="46.97163" lon="8.78524">
        <ele>656</ele>
        <time>2021-08-05T14:07:33.111Z</time>
      </trkpt>
      <trkpt lat="46.97163" lon="8.78525">
        <ele>656</ele>
        <time>2021-08-05T14:07:34.110Z</time>
      </trkpt>
      <trkpt lat="46.97162" lon="8.78525">
        <ele>655</ele>
        <time>2021-08-05T14:07:35.110Z</time>
      </trkpt>
      <trkpt lat="46.97161" lon="8.78526">
        <ele>655</ele>
        <time>2021-08-05T14:07:36.111Z</time>
      </trkpt>
      <trkpt lat="46.97161" lon="8.78527">
        <ele>654</ele>
        <time>2021-08-05T14:07:37.111Z</time>
      </trkpt>
      <trkpt lat="46.9716" lon="8.78527">
        <ele>654</ele>
        <time>2021-08-05T14:07:38.110Z</time>
      </trkpt>
      <trkpt lat="46.9716" lon="8.78528">
        <ele>654</ele>
        <time>2021-08-05T14:07:39.110Z</time>
      </trkpt>
      <trkpt lat="46.97159" lon="8.7853">
        <ele>653</ele>
        <time>2021-08-05T14:07:40.110Z</time>
      </trkpt>
      <trkpt lat="46.97159" lon="8.78531">
        <ele>653</ele>
        <time>2021-08-05T14:07:41.110Z</time>
      </trkpt>
      <trkpt lat="46.97158" lon="8.78533">
        <ele>653</ele>
        <time>2021-08-05T14:07:42.110Z</time>
      </trkpt>
      <trkpt lat="46.97158" lon="8.78535">
        <ele>653</ele>
        <time>2021-08-05T14:07:43.111Z</time>
      </trkpt>
      <trkpt lat="46.97157" lon="8.78537">
        <ele>654</ele>
        <time>2021-08-05T14:07:44.111Z</time>
      </trkpt>
      <trkpt lat="46.97157" lon="8.78539">
        <ele>654</ele>
        <time>2021-08-05T14:07:45.110Z</time>
      </trkpt>
      <trkpt lat="46.97156" lon="8.78541">
        <ele>655</ele>
        <time>2021-08-05T14:07:46.110Z</time>
      </trkpt>
      <trkpt lat="46.97156" lon="8.78545">
        <ele>656</ele>
        <time>2021-08-05T14:07:47.111Z</time>
      </trkpt>
      <trkpt lat="46.97156" lon="8.78547">
        <ele>656</ele>
        <time>2021-08-05T14:07:48.110Z</time>
      </trkpt>
      <trkpt lat="46.97156" lon="8.78549">
        <ele>657</ele>
        <time>2021-08-05T14:07:49.110Z</time>
      </trkpt>
      <trkpt lat="46.97155" lon="8.7855">
        <ele>658</ele>
        <time>2021-08-05T14:07:50.110Z</time>
      </trkpt>
      <trkpt lat="46.97155" lon="8.78551">
        <ele>658</ele>
        <time>2021-08-05T14:07:51.111Z</time>
      </trkpt>
      <trkpt lat="46.97155" lon="8.78552">
        <ele>659</ele>
        <time>2021-08-05T14:07:52.110Z</time>
      </trkpt>
      <trkpt lat="46.97155" lon="8.78555">
        <ele>659</ele>
        <time>2021-08-05T14:07:53.111Z</time>
      </trkpt>
      <trkpt lat="46.97154" lon="8.78557">
        <ele>660</ele>
        <time>2021-08-05T14:07:54.110Z</time>
      </trkpt>
      <trkpt lat="46.97154" lon="8.78559">
        <ele>660</ele>
        <time>2021-08-05T14:07:55.111Z</time>
      </trkpt>
      <trkpt lat="46.97153" lon="8.78561">
        <ele>661</ele>
        <time>2021-08-05T14:07:56.111Z</time>
      </trkpt>
      <trkpt lat="46.97154" lon="8.78562">
        <ele>661</ele>
        <time>2021-08-05T14:07:57.110Z</time>
      </trkpt>
      <trkpt lat="46.97153" lon="8.78564">
        <ele>661</ele>
        <time>2021-08-05T14:07:58.110Z</time>
      </trkpt>
      <trkpt lat="46.97152" lon="8.78565">
        <ele>661</ele>
        <time>2021-08-05T14:07:59.110Z</time>
      </trkpt>
      <trkpt lat="46.97152" lon="8.78566">
        <ele>661</ele>
        <time>2021-08-05T14:08:00.110Z</time>
      </trkpt>
      <trkpt lat="46.97151" lon="8.78567">
        <ele>660</ele>
        <time>2021-08-05T14:08:01.110Z</time>
      </trkpt>
      <trkpt lat="46.9715" lon="8.78569">
        <ele>660</ele>
        <time>2021-08-05T14:08:02.111Z</time>
      </trkpt>
      <trkpt lat="46.9715" lon="8.78569">
        <ele>660</ele>
        <time>2021-08-05T14:08:03.110Z</time>
      </trkpt>
      <trkpt lat="46.9715" lon="8.7857">
        <ele>659</ele>
        <time>2021-08-05T14:08:04.110Z</time>
      </trkpt>
      <trkpt lat="46.97149" lon="8.78572">
        <ele>658</ele>
        <time>2021-08-05T14:08:05.111Z</time>
      </trkpt>
      <trkpt lat="46.97148" lon="8.78574">
        <ele>658</ele>
        <time>2021-08-05T14:08:06.110Z</time>
      </trkpt>
      <trkpt lat="46.97147" lon="8.78576">
        <ele>658</ele>
        <time>2021-08-05T14:08:07.111Z</time>
      </trkpt>
      <trkpt lat="46.97147" lon="8.78578">
        <ele>658</ele>
        <time>2021-08-05T14:08:08.111Z</time>
      </trkpt>
      <trkpt lat="46.97147" lon="8.7858">
        <ele>657</ele>
        <time>2021-08-05T14:08:09.111Z</time>
      </trkpt>
      <trkpt lat="46.97146" lon="8.78581">
        <ele>657</ele>
        <time>2021-08-05T14:08:10.110Z</time>
      </trkpt>
      <trkpt lat="46.97146" lon="8.78582">
        <ele>657</ele>
        <time>2021-08-05T14:08:11.111Z</time>
      </trkpt>
      <trkpt lat="46.97145" lon="8.78584">
        <ele>657</ele>
        <time>2021-08-05T14:08:12.110Z</time>
      </trkpt>
      <trkpt lat="46.97145" lon="8.78586">
        <ele>657</ele>
        <time>2021-08-05T14:08:13.111Z</time>
      </trkpt>
      <trkpt lat="46.97145" lon="8.78587">
        <ele>657</ele>
        <time>2021-08-05T14:08:14.111Z</time>
      </trkpt>
      <trkpt lat="46.97144" lon="8.78589">
        <ele>657</ele>
        <time>2021-08-05T14:08:15.110Z</time>
      </trkpt>
      <trkpt lat="46.97144" lon="8.78591">
        <ele>657</ele>
        <time>2021-08-05T14:08:16.110Z</time>
      </trkpt>
      <trkpt lat="46.97144" lon="8.78593">
        <ele>656</ele>
        <time>2021-08-05T14:08:17.110Z</time>
      </trkpt>
      <trkpt lat="46.97144" lon="8.78595">
        <ele>656</ele>
        <time>2021-08-05T14:08:18.110Z</time>
      </trkpt>
      <trkpt lat="46.97143" lon="8.78596">
        <ele>655</ele>
        <time>2021-08-05T14:08:19.110Z</time>
      </trkpt>
      <trkpt lat="46.97143" lon="8.78598">
        <ele>655</ele>
        <time>2021-08-05T14:08:20.110Z</time>
      </trkpt>
      <trkpt lat="46.97142" lon="8.786">
        <ele>654</ele>
        <time>2021-08-05T14:08:21.110Z</time>
      </trkpt>
      <trkpt lat="46.97142" lon="8.78602">
        <ele>654</ele>
        <time>2021-08-05T14:08:22.111Z</time>
      </trkpt>
      <trkpt lat="46.97142" lon="8.78603">
        <ele>654</ele>
        <time>2021-08-05T14:08:23.110Z</time>
      </trkpt>
      <trkpt lat="46.97141" lon="8.78604">
        <ele>654</ele>
        <time>2021-08-05T14:08:24.110Z</time>
      </trkpt>
      <trkpt lat="46.97141" lon="8.78606">
        <ele>654</ele>
        <time>2021-08-05T14:08:25.111Z</time>
      </trkpt>
      <trkpt lat="46.97141" lon="8.78607">
        <ele>654</ele>
        <time>2021-08-05T14:08:26.110Z</time>
      </trkpt>
      <trkpt lat="46.9714" lon="8.78609">
        <ele>654</ele>
        <time>2021-08-05T14:08:27.110Z</time>
      </trkpt>
      <trkpt lat="46.9714" lon="8.78611">
        <ele>654</ele>
        <time>2021-08-05T14:08:28.110Z</time>
      </trkpt>
      <trkpt lat="46.97139" lon="8.78612">
        <ele>653</ele>
        <time>2021-08-05T14:08:29.111Z</time>
      </trkpt>
      <trkpt lat="46.97139" lon="8.78614">
        <ele>653</ele>
        <time>2021-08-05T14:08:30.111Z</time>
      </trkpt>
      <trkpt lat="46.97139" lon="8.78616">
        <ele>653</ele>
        <time>2021-08-05T14:08:31.111Z</time>
      </trkpt>
      <trkpt lat="46.97138" lon="8.78618">
        <ele>652</ele>
        <time>2021-08-05T14:08:32.111Z</time>
      </trkpt>
      <trkpt lat="46.97138" lon="8.7862">
        <ele>652</ele>
        <time>2021-08-05T14:08:33.110Z</time>
      </trkpt>
      <trkpt lat="46.97138" lon="8.78621">
        <ele>653</ele>
        <time>2021-08-05T14:08:34.110Z</time>
      </trkpt>
      <trkpt lat="46.97137" lon="8.78623">
        <ele>653</ele>
        <time>2021-08-05T14:08:35.111Z</time>
      </trkpt>
      <trkpt lat="46.97137" lon="8.78624">
        <ele>653</ele>
        <time>2021-08-05T14:08:36.110Z</time>
      </trkpt>
      <trkpt lat="46.97137" lon="8.78625">
        <ele>653</ele>
        <time>2021-08-05T14:08:37.111Z</time>
      </trkpt>
      <trkpt lat="46.97137" lon="8.78627">
        <ele>653</ele>
        <time>2021-08-05T14:08:38.111Z</time>
      </trkpt>
      <trkpt lat="46.97136" lon="8.78629">
        <ele>653</ele>
        <time>2021-08-05T14:08:39.111Z</time>
      </trkpt>
      <trkpt lat="46.97136" lon="8.7863">
        <ele>653</ele>
        <time>2021-08-05T14:08:40.111Z</time>
      </trkpt>
      <trkpt lat="46.97136" lon="8.78632">
        <ele>652</ele>
        <time>2021-08-05T14:08:41.111Z</time>
      </trkpt>
      <trkpt lat="46.97136" lon="8.78634">
        <ele>652</ele>
        <time>2021-08-05T14:08:42.111Z</time>
      </trkpt>
      <trkpt lat="46.97136" lon="8.78636">
        <ele>651</ele>
        <time>2021-08-05T14:08:43.111Z</time>
      </trkpt>
      <trkpt lat="46.97135" lon="8.78637">
        <ele>651</ele>
        <time>2021-08-05T14:08:44.111Z</time>
      </trkpt>
      <trkpt lat="46.97134" lon="8.78639">
        <ele>651</ele>
        <time>2021-08-05T14:08:45.111Z</time>
      </trkpt>
      <trkpt lat="46.97134" lon="8.78641">
        <ele>651</ele>
        <time>2021-08-05T14:08:46.111Z</time>
      </trkpt>
      <trkpt lat="46.97134" lon="8.78643">
        <ele>651</ele>
        <time>2021-08-05T14:08:47.110Z</time>
      </trkpt>
      <trkpt lat="46.97133" lon="8.78644">
        <ele>651</ele>
        <time>2021-08-05T14:08:48.111Z</time>
      </trkpt>
      <trkpt lat="46.97132" lon="8.78646">
        <ele>651</ele>
        <time>2021-08-05T14:08:49.111Z</time>
      </trkpt>
      <trkpt lat="46.9713" lon="8.78647">
        <ele>651</ele>
        <time>2021-08-05T14:08:50.111Z</time>
      </trkpt>
      <trkpt lat="46.97129" lon="8.78648">
        <ele>651</ele>
        <time>2021-08-05T14:08:51.111Z</time>
      </trkpt>
      <trkpt lat="46.97129" lon="8.78649">
        <ele>651</ele>
        <time>2021-08-05T14:08:52.111Z</time>
      </trkpt>
      <trkpt lat="46.97128" lon="8.7865">
        <ele>651</ele>
        <time>2021-08-05T14:08:53.111Z</time>
      </trkpt>
      <trkpt lat="46.97128" lon="8.7865">
        <ele>650</ele>
        <time>2021-08-05T14:08:54.111Z</time>
      </trkpt>
      <trkpt lat="46.97127" lon="8.78651">
        <ele>649</ele>
        <time>2021-08-05T14:08:55.110Z</time>
      </trkpt>
      <trkpt lat="46.97126" lon="8.78652">
        <ele>648</ele>
        <time>2021-08-05T14:08:56.110Z</time>
      </trkpt>
      <trkpt lat="46.97125" lon="8.78653">
        <ele>648</ele>
        <time>2021-08-05T14:08:57.111Z</time>
      </trkpt>
      <trkpt lat="46.97124" lon="8.78654">
        <ele>647</ele>
        <time>2021-08-05T14:08:58.111Z</time>
      </trkpt>
      <trkpt lat="46.97123" lon="8.78655">
        <ele>647</ele>
        <time>2021-08-05T14:08:59.111Z</time>
      </trkpt>
      <trkpt lat="46.97122" lon="8.78656">
        <ele>647</ele>
        <time>2021-08-05T14:09:00.110Z</time>
      </trkpt>
      <trkpt lat="46.97121" lon="8.78657">
        <ele>646</ele>
        <time>2021-08-05T14:09:01.110Z</time>
      </trkpt>
      <trkpt lat="46.9712" lon="8.78657">
        <ele>645</ele>
        <time>2021-08-05T14:09:02.111Z</time>
      </trkpt>
      <trkpt lat="46.97119" lon="8.78657">
        <ele>645</ele>
        <time>2021-08-05T14:09:03.111Z</time>
      </trkpt>
      <trkpt lat="46.97118" lon="8.78658">
        <ele>644</ele>
        <time>2021-08-05T14:09:04.110Z</time>
      </trkpt>
      <trkpt lat="46.97117" lon="8.78658">
        <ele>644</ele>
        <time>2021-08-05T14:09:05.111Z</time>
      </trkpt>
      <trkpt lat="46.97117" lon="8.78659">
        <ele>644</ele>
        <time>2021-08-05T14:09:06.110Z</time>
      </trkpt>
      <trkpt lat="46.97116" lon="8.78659">
        <ele>643</ele>
        <time>2021-08-05T14:09:07.111Z</time>
      </trkpt>
      <trkpt lat="46.97116" lon="8.78659">
        <ele>643</ele>
        <time>2021-08-05T14:09:08.111Z</time>
      </trkpt>
      <trkpt lat="46.97115" lon="8.78659">
        <ele>643</ele>
        <time>2021-08-05T14:09:09.110Z</time>
      </trkpt>
      <trkpt lat="46.97116" lon="8.78659">
        <ele>642</ele>
        <time>2021-08-05T14:09:10.111Z</time>
      </trkpt>
      <trkpt lat="46.97141" lon="8.7867">
        <ele>641</ele>
        <time>2021-08-05T14:10:53.111Z</time>
      </trkpt>
      <trkpt lat="46.9714" lon="8.78674">
        <ele>639</ele>
        <time>2021-08-05T14:10:54.110Z</time>
      </trkpt>
      <trkpt lat="46.97149" lon="8.78678">
        <ele>639</ele>
        <time>2021-08-05T14:10:55.111Z</time>
      </trkpt>
      <trkpt lat="46.97144" lon="8.78676">
        <ele>638</ele>
        <time>2021-08-05T14:10:56.110Z</time>
      </trkpt>
      <trkpt lat="46.97142" lon="8.78677">
        <ele>637</ele>
        <time>2021-08-05T14:10:57.111Z</time>
      </trkpt>
      <trkpt lat="46.97135" lon="8.78676">
        <ele>637</ele>
        <time>2021-08-05T14:10:58.110Z</time>
      </trkpt>
      <trkpt lat="46.97134" lon="8.78677">
        <ele>637</ele>
        <time>2021-08-05T14:10:59.111Z</time>
      </trkpt>
      <trkpt lat="46.97134" lon="8.78679">
        <ele>637</ele>
        <time>2021-08-05T14:11:00.111Z</time>
      </trkpt>
      <trkpt lat="46.97129" lon="8.78678">
        <ele>638</ele>
        <time>2021-08-05T14:11:01.111Z</time>
      </trkpt>
      <trkpt lat="46.97125" lon="8.78677">
        <ele>640</ele>
        <time>2021-08-05T14:11:02.111Z</time>
      </trkpt>
      <trkpt lat="46.97122" lon="8.78678">
        <ele>641</ele>
        <time>2021-08-05T14:11:03.111Z</time>
      </trkpt>
      <trkpt lat="46.97122" lon="8.7868">
        <ele>642</ele>
        <time>2021-08-05T14:11:04.111Z</time>
      </trkpt>
      <trkpt lat="46.97122" lon="8.78683">
        <ele>644</ele>
        <time>2021-08-05T14:11:05.111Z</time>
      </trkpt>
      <trkpt lat="46.97121" lon="8.78685">
        <ele>645</ele>
        <time>2021-08-05T14:11:06.111Z</time>
      </trkpt>
      <trkpt lat="46.97121" lon="8.78687">
        <ele>646</ele>
        <time>2021-08-05T14:11:07.110Z</time>
      </trkpt>
      <trkpt lat="46.97121" lon="8.78688">
        <ele>646</ele>
        <time>2021-08-05T14:11:08.111Z</time>
      </trkpt>
      <trkpt lat="46.9712" lon="8.7869">
        <ele>647</ele>
        <time>2021-08-05T14:11:09.111Z</time>
      </trkpt>
      <trkpt lat="46.97119" lon="8.78692">
        <ele>647</ele>
        <time>2021-08-05T14:11:10.111Z</time>
      </trkpt>
      <trkpt lat="46.97119" lon="8.78694">
        <ele>647</ele>
        <time>2021-08-05T14:11:11.111Z</time>
      </trkpt>
      <trkpt lat="46.97119" lon="8.78696">
        <ele>646</ele>
        <time>2021-08-05T14:11:12.111Z</time>
      </trkpt>
      <trkpt lat="46.97119" lon="8.78697">
        <ele>646</ele>
        <time>2021-08-05T14:11:13.110Z</time>
      </trkpt>
      <trkpt lat="46.97118" lon="8.78699">
        <ele>646</ele>
        <time>2021-08-05T14:11:14.111Z</time>
      </trkpt>
      <trkpt lat="46.97118" lon="8.78701">
        <ele>646</ele>
        <time>2021-08-05T14:11:15.111Z</time>
      </trkpt>
      <trkpt lat="46.97117" lon="8.78702">
        <ele>646</ele>
        <time>2021-08-05T14:11:16.110Z</time>
      </trkpt>
      <trkpt lat="46.97117" lon="8.78704">
        <ele>646</ele>
        <time>2021-08-05T14:11:17.111Z</time>
      </trkpt>
      <trkpt lat="46.97116" lon="8.78706">
        <ele>646</ele>
        <time>2021-08-05T14:11:18.110Z</time>
      </trkpt>
      <trkpt lat="46.97115" lon="8.78707">
        <ele>647</ele>
        <time>2021-08-05T14:11:19.111Z</time>
      </trkpt>
      <trkpt lat="46.97115" lon="8.7871">
        <ele>647</ele>
        <time>2021-08-05T14:11:20.111Z</time>
      </trkpt>
      <trkpt lat="46.97115" lon="8.78711">
        <ele>646</ele>
        <time>2021-08-05T14:11:21.111Z</time>
      </trkpt>
      <trkpt lat="46.97115" lon="8.78712">
        <ele>646</ele>
        <time>2021-08-05T14:11:22.110Z</time>
      </trkpt>
      <trkpt lat="46.97114" lon="8.78714">
        <ele>646</ele>
        <time>2021-08-05T14:11:23.110Z</time>
      </trkpt>
      <trkpt lat="46.97113" lon="8.78715">
        <ele>646</ele>
        <time>2021-08-05T14:11:24.111Z</time>
      </trkpt>
      <trkpt lat="46.97113" lon="8.78717">
        <ele>647</ele>
        <time>2021-08-05T14:11:25.111Z</time>
      </trkpt>
      <trkpt lat="46.97113" lon="8.78718">
        <ele>648</ele>
        <time>2021-08-05T14:11:26.111Z</time>
      </trkpt>
      <trkpt lat="46.97112" lon="8.7872">
        <ele>648</ele>
        <time>2021-08-05T14:11:27.110Z</time>
      </trkpt>
      <trkpt lat="46.97112" lon="8.78722">
        <ele>649</ele>
        <time>2021-08-05T14:11:28.110Z</time>
      </trkpt>
      <trkpt lat="46.97111" lon="8.78723">
        <ele>649</ele>
        <time>2021-08-05T14:11:29.110Z</time>
      </trkpt>
      <trkpt lat="46.97111" lon="8.78725">
        <ele>650</ele>
        <time>2021-08-05T14:11:30.110Z</time>
      </trkpt>
      <trkpt lat="46.9711" lon="8.78726">
        <ele>650</ele>
        <time>2021-08-05T14:11:32.205Z</time>
      </trkpt>
      <trkpt lat="46.97109" lon="8.78727">
        <ele>650</ele>
        <time>2021-08-05T14:11:33.205Z</time>
      </trkpt>
      <trkpt lat="46.97109" lon="8.78729">
        <ele>650</ele>
        <time>2021-08-05T14:11:34.204Z</time>
      </trkpt>
      <trkpt lat="46.97108" lon="8.78731">
        <ele>650</ele>
        <time>2021-08-05T14:11:35.204Z</time>
      </trkpt>
      <trkpt lat="46.97108" lon="8.78733">
        <ele>651</ele>
        <time>2021-08-05T14:11:36.205Z</time>
      </trkpt>
      <trkpt lat="46.97108" lon="8.78734">
        <ele>651</ele>
        <time>2021-08-05T14:11:47.348Z</time>
      </trkpt>
      <trkpt lat="46.97108" lon="8.78736">
        <ele>652</ele>
        <time>2021-08-05T14:11:48.348Z</time>
      </trkpt>
      <trkpt lat="46.97107" lon="8.78737">
        <ele>652</ele>
        <time>2021-08-05T14:11:49.348Z</time>
      </trkpt>
      <trkpt lat="46.97107" lon="8.78739">
        <ele>652</ele>
        <time>2021-08-05T14:11:50.347Z</time>
      </trkpt>
      <trkpt lat="46.97106" lon="8.78741">
        <ele>652</ele>
        <time>2021-08-05T14:11:51.348Z</time>
      </trkpt>
      <trkpt lat="46.97106" lon="8.78743">
        <ele>652</ele>
        <time>2021-08-05T14:11:52.347Z</time>
      </trkpt>
      <trkpt lat="46.97106" lon="8.78745">
        <ele>652</ele>
        <time>2021-08-05T14:11:53.347Z</time>
      </trkpt>
      <trkpt lat="46.97106" lon="8.78747">
        <ele>652</ele>
        <time>2021-08-05T14:11:54.348Z</time>
      </trkpt>
      <trkpt lat="46.97105" lon="8.78748">
        <ele>652</ele>
        <time>2021-08-05T14:11:55.347Z</time>
      </trkpt>
      <trkpt lat="46.97105" lon="8.7875">
        <ele>653</ele>
        <time>2021-08-05T14:11:56.347Z</time>
      </trkpt>
      <trkpt lat="46.97104" lon="8.78751">
        <ele>653</ele>
        <time>2021-08-05T14:11:57.347Z</time>
      </trkpt>
      <trkpt lat="46.97104" lon="8.78752">
        <ele>653</ele>
        <time>2021-08-05T14:11:58.348Z</time>
      </trkpt>
      <trkpt lat="46.97103" lon="8.78754">
        <ele>654</ele>
        <time>2021-08-05T14:11:59.348Z</time>
      </trkpt>
      <trkpt lat="46.97103" lon="8.78755">
        <ele>654</ele>
        <time>2021-08-05T14:12:00.347Z</time>
      </trkpt>
      <trkpt lat="46.97102" lon="8.78756">
        <ele>654</ele>
        <time>2021-08-05T14:12:01.348Z</time>
      </trkpt>
      <trkpt lat="46.97102" lon="8.78758">
        <ele>654</ele>
        <time>2021-08-05T14:12:02.348Z</time>
      </trkpt>
      <trkpt lat="46.97101" lon="8.78759">
        <ele>654</ele>
        <time>2021-08-05T14:12:03.347Z</time>
      </trkpt>
      <trkpt lat="46.97101" lon="8.7876">
        <ele>654</ele>
        <time>2021-08-05T14:12:04.348Z</time>
      </trkpt>
      <trkpt lat="46.97101" lon="8.78762">
        <ele>654</ele>
        <time>2021-08-05T14:12:05.347Z</time>
      </trkpt>
      <trkpt lat="46.97101" lon="8.78763">
        <ele>654</ele>
        <time>2021-08-05T14:12:06.348Z</time>
      </trkpt>
      <trkpt lat="46.97101" lon="8.78764">
        <ele>655</ele>
        <time>2021-08-05T14:12:07.347Z</time>
      </trkpt>
      <trkpt lat="46.97101" lon="8.78765">
        <ele>655</ele>
        <time>2021-08-05T14:12:08.348Z</time>
      </trkpt>
      <trkpt lat="46.971" lon="8.78765">
        <ele>655</ele>
        <time>2021-08-05T14:12:09.348Z</time>
      </trkpt>
      <trkpt lat="46.97101" lon="8.78765">
        <ele>655</ele>
        <time>2021-08-05T14:12:10.348Z</time>
      </trkpt>
      <trkpt lat="46.97101" lon="8.78765">
        <ele>654</ele>
        <time>2021-08-05T14:12:11.348Z</time>
      </trkpt>
      <trkpt lat="46.97102" lon="8.78765">
        <ele>653</ele>
        <time>2021-08-05T14:12:12.349Z</time>
      </trkpt>
      <trkpt lat="46.97104" lon="8.78767">
        <ele>648</ele>
        <time>2021-08-05T14:12:13.348Z</time>
      </trkpt>
      <trkpt lat="46.97105" lon="8.78768">
        <ele>648</ele>
        <time>2021-08-05T14:12:14.348Z</time>
      </trkpt>
      <trkpt lat="46.97107" lon="8.7877">
        <ele>647</ele>
        <time>2021-08-05T14:12:17.470Z</time>
      </trkpt>
      <trkpt lat="46.97108" lon="8.78766">
        <ele>644</ele>
        <time>2021-08-05T14:12:18.472Z</time>
      </trkpt>
      <trkpt lat="46.97108" lon="8.78766">
        <ele>645</ele>
        <time>2021-08-05T14:12:19.471Z</time>
      </trkpt>
      <trkpt lat="46.97108" lon="8.78765">
        <ele>645</ele>
        <time>2021-08-05T14:12:20.471Z</time>
      </trkpt>
      <trkpt lat="46.9711" lon="8.78769">
        <ele>650</ele>
        <time>2021-08-05T14:12:21.472Z</time>
      </trkpt>
      <trkpt lat="46.97109" lon="8.78768">
        <ele>649</ele>
        <time>2021-08-05T14:12:22.473Z</time>
      </trkpt>
      <trkpt lat="46.97109" lon="8.78767">
        <ele>649</ele>
        <time>2021-08-05T14:12:23.472Z</time>
      </trkpt>
      <trkpt lat="46.97106" lon="8.78765">
        <ele>655</ele>
        <time>2021-08-05T14:12:24.473Z</time>
      </trkpt>
      <trkpt lat="46.97102" lon="8.78765">
        <ele>649</ele>
        <time>2021-08-05T14:12:25.473Z</time>
      </trkpt>
      <trkpt lat="46.97101" lon="8.78763">
        <ele>651</ele>
        <time>2021-08-05T14:12:26.474Z</time>
      </trkpt>
      <trkpt lat="46.971" lon="8.78763">
        <ele>651</ele>
        <time>2021-08-05T14:12:27.475Z</time>
      </trkpt>
      <trkpt lat="46.97099" lon="8.78763">
        <ele>652</ele>
        <time>2021-08-05T14:12:28.474Z</time>
      </trkpt>
      <trkpt lat="46.97098" lon="8.78763">
        <ele>652</ele>
        <time>2021-08-05T14:12:29.474Z</time>
      </trkpt>
      <trkpt lat="46.97097" lon="8.78763">
        <ele>651</ele>
        <time>2021-08-05T14:12:30.474Z</time>
      </trkpt>
      <trkpt lat="46.97096" lon="8.78763">
        <ele>651</ele>
        <time>2021-08-05T14:12:31.475Z</time>
      </trkpt>
      <trkpt lat="46.97095" lon="8.78763">
        <ele>650</ele>
        <time>2021-08-05T14:12:32.475Z</time>
      </trkpt>
      <trkpt lat="46.97095" lon="8.78763">
        <ele>649</ele>
        <time>2021-08-05T14:12:33.474Z</time>
      </trkpt>
      <trkpt lat="46.97095" lon="8.78764">
        <ele>649</ele>
        <time>2021-08-05T14:12:34.474Z</time>
      </trkpt>
      <trkpt lat="46.97095" lon="8.78764">
        <ele>648</ele>
        <time>2021-08-05T14:12:35.474Z</time>
      </trkpt>
      <trkpt lat="46.97095" lon="8.78766">
        <ele>650</ele>
        <time>2021-08-05T14:12:36.475Z</time>
      </trkpt>
      <trkpt lat="46.97095" lon="8.78765">
        <ele>651</ele>
        <time>2021-08-05T14:12:37.475Z</time>
      </trkpt>
      <trkpt lat="46.97093" lon="8.78759">
        <ele>657</ele>
        <time>2021-08-05T14:12:38.476Z</time>
      </trkpt>
      <trkpt lat="46.97093" lon="8.78759">
        <ele>656</ele>
        <time>2021-08-05T14:12:39.476Z</time>
      </trkpt>
      <trkpt lat="46.97095" lon="8.78758">
        <ele>658</ele>
        <time>2021-08-05T14:12:40.476Z</time>
      </trkpt>
      <trkpt lat="46.97095" lon="8.7876">
        <ele>659</ele>
        <time>2021-08-05T14:12:41.476Z</time>
      </trkpt>
      <trkpt lat="46.97095" lon="8.78761">
        <ele>659</ele>
        <time>2021-08-05T14:12:42.476Z</time>
      </trkpt>
      <trkpt lat="46.97092" lon="8.78763">
        <ele>655</ele>
        <time>2021-08-05T14:12:43.477Z</time>
      </trkpt>
      <trkpt lat="46.97092" lon="8.78763">
        <ele>655</ele>
        <time>2021-08-05T14:12:44.477Z</time>
      </trkpt>
      <trkpt lat="46.97092" lon="8.78763">
        <ele>654</ele>
        <time>2021-08-05T14:12:45.476Z</time>
      </trkpt>
      <trkpt lat="46.97092" lon="8.78764">
        <ele>653</ele>
        <time>2021-08-05T14:12:46.477Z</time>
      </trkpt>
      <trkpt lat="46.97092" lon="8.78764">
        <ele>652</ele>
        <time>2021-08-05T14:12:47.477Z</time>
      </trkpt>
      <trkpt lat="46.97092" lon="8.78765">
        <ele>650</ele>
        <time>2021-08-05T14:12:48.477Z</time>
      </trkpt>
      <trkpt lat="46.97091" lon="8.78765">
        <ele>650</ele>
        <time>2021-08-05T14:12:49.477Z</time>
      </trkpt>
      <trkpt lat="46.9709" lon="8.78766">
        <ele>649</ele>
        <time>2021-08-05T14:12:50.476Z</time>
      </trkpt>
      <trkpt lat="46.9709" lon="8.78766">
        <ele>649</ele>
        <time>2021-08-05T14:12:51.476Z</time>
      </trkpt>
      <trkpt lat="46.9709" lon="8.78766">
        <ele>648</ele>
        <time>2021-08-05T14:12:52.476Z</time>
      </trkpt>
      <trkpt lat="46.97091" lon="8.78764">
        <ele>658</ele>
        <time>2021-08-05T14:12:53.477Z</time>
      </trkpt>
      <trkpt lat="46.9709" lon="8.78765">
        <ele>658</ele>
        <time>2021-08-05T14:12:54.477Z</time>
      </trkpt>
      <trkpt lat="46.97089" lon="8.78767">
        <ele>658</ele>
        <time>2021-08-05T14:12:55.477Z</time>
      </trkpt>
      <trkpt lat="46.97088" lon="8.78768">
        <ele>657</ele>
        <time>2021-08-05T14:12:56.478Z</time>
      </trkpt>
      <trkpt lat="46.97087" lon="8.7877">
        <ele>656</ele>
        <time>2021-08-05T14:12:57.477Z</time>
      </trkpt>
      <trkpt lat="46.97086" lon="8.7877">
        <ele>656</ele>
        <time>2021-08-05T14:12:58.478Z</time>
      </trkpt>
      <trkpt lat="46.97086" lon="8.78771">
        <ele>655</ele>
        <time>2021-08-05T14:12:59.477Z</time>
      </trkpt>
      <trkpt lat="46.97085" lon="8.78772">
        <ele>654</ele>
        <time>2021-08-05T14:13:00.478Z</time>
      </trkpt>
      <trkpt lat="46.97085" lon="8.78772">
        <ele>654</ele>
        <time>2021-08-05T14:13:01.477Z</time>
      </trkpt>
      <trkpt lat="46.97084" lon="8.78772">
        <ele>653</ele>
        <time>2021-08-05T14:13:02.478Z</time>
      </trkpt>
      <trkpt lat="46.97083" lon="8.78772">
        <ele>652</ele>
        <time>2021-08-05T14:13:03.478Z</time>
      </trkpt>
      <trkpt lat="46.97083" lon="8.78771">
        <ele>651</ele>
        <time>2021-08-05T14:13:04.478Z</time>
      </trkpt>
      <trkpt lat="46.97082" lon="8.78771">
        <ele>650</ele>
        <time>2021-08-05T14:13:05.478Z</time>
      </trkpt>
      <trkpt lat="46.97082" lon="8.78771">
        <ele>650</ele>
        <time>2021-08-05T14:13:06.478Z</time>
      </trkpt>
      <trkpt lat="46.97083" lon="8.78773">
        <ele>649</ele>
        <time>2021-08-05T14:13:07.477Z</time>
      </trkpt>
      <trkpt lat="46.97083" lon="8.78774">
        <ele>649</ele>
        <time>2021-08-05T14:13:08.478Z</time>
      </trkpt>
      <trkpt lat="46.97082" lon="8.78775">
        <ele>649</ele>
        <time>2021-08-05T14:13:09.478Z</time>
      </trkpt>
      <trkpt lat="46.97082" lon="8.78776">
        <ele>649</ele>
        <time>2021-08-05T14:13:10.478Z</time>
      </trkpt>
      <trkpt lat="46.97081" lon="8.78775">
        <ele>649</ele>
        <time>2021-08-05T14:13:11.478Z</time>
      </trkpt>
      <trkpt lat="46.97083" lon="8.78777">
        <ele>649</ele>
        <time>2021-08-05T14:13:12.478Z</time>
      </trkpt>
      <trkpt lat="46.97083" lon="8.78778">
        <ele>649</ele>
        <time>2021-08-05T14:13:13.478Z</time>
      </trkpt>
      <trkpt lat="46.97083" lon="8.78778">
        <ele>650</ele>
        <time>2021-08-05T14:13:14.478Z</time>
      </trkpt>
      <trkpt lat="46.97083" lon="8.78779">
        <ele>651</ele>
        <time>2021-08-05T14:13:15.479Z</time>
      </trkpt>
      <trkpt lat="46.97083" lon="8.78781">
        <ele>653</ele>
        <time>2021-08-05T14:13:16.479Z</time>
      </trkpt>
      <trkpt lat="46.97083" lon="8.78782">
        <ele>653</ele>
        <time>2021-08-05T14:13:17.480Z</time>
      </trkpt>
      <trkpt lat="46.97083" lon="8.78783">
        <ele>653</ele>
        <time>2021-08-05T14:13:18.479Z</time>
      </trkpt>
      <trkpt lat="46.97082" lon="8.78785">
        <ele>653</ele>
        <time>2021-08-05T14:13:19.479Z</time>
      </trkpt>
      <trkpt lat="46.97082" lon="8.78786">
        <ele>653</ele>
        <time>2021-08-05T14:13:20.479Z</time>
      </trkpt>
      <trkpt lat="46.97082" lon="8.78788">
        <ele>653</ele>
        <time>2021-08-05T14:13:21.480Z</time>
      </trkpt>
      <trkpt lat="46.97082" lon="8.7879">
        <ele>652</ele>
        <time>2021-08-05T14:13:22.480Z</time>
      </trkpt>
      <trkpt lat="46.97081" lon="8.78791">
        <ele>652</ele>
        <time>2021-08-05T14:13:23.480Z</time>
      </trkpt>
      <trkpt lat="46.97081" lon="8.78792">
        <ele>652</ele>
        <time>2021-08-05T14:13:24.480Z</time>
      </trkpt>
      <trkpt lat="46.97081" lon="8.78793">
        <ele>652</ele>
        <time>2021-08-05T14:13:25.480Z</time>
      </trkpt>
      <trkpt lat="46.97081" lon="8.78794">
        <ele>652</ele>
        <time>2021-08-05T14:13:26.479Z</time>
      </trkpt>
      <trkpt lat="46.9708" lon="8.78795">
        <ele>651</ele>
        <time>2021-08-05T14:13:27.480Z</time>
      </trkpt>
      <trkpt lat="46.97079" lon="8.78796">
        <ele>651</ele>
        <time>2021-08-05T14:13:28.479Z</time>
      </trkpt>
      <trkpt lat="46.97079" lon="8.78798">
        <ele>650</ele>
        <time>2021-08-05T14:13:29.480Z</time>
      </trkpt>
      <trkpt lat="46.97078" lon="8.78799">
        <ele>650</ele>
        <time>2021-08-05T14:13:30.480Z</time>
      </trkpt>
      <trkpt lat="46.97077" lon="8.78799">
        <ele>651</ele>
        <time>2021-08-05T14:13:31.480Z</time>
      </trkpt>
      <trkpt lat="46.97077" lon="8.788">
        <ele>651</ele>
        <time>2021-08-05T14:13:32.480Z</time>
      </trkpt>
      <trkpt lat="46.97076" lon="8.788">
        <ele>652</ele>
        <time>2021-08-05T14:13:33.480Z</time>
      </trkpt>
      <trkpt lat="46.97075" lon="8.788">
        <ele>652</ele>
        <time>2021-08-05T14:13:34.480Z</time>
      </trkpt>
      <trkpt lat="46.97073" lon="8.788">
        <ele>652</ele>
        <time>2021-08-05T14:13:35.480Z</time>
      </trkpt>
      <trkpt lat="46.97072" lon="8.788">
        <ele>652</ele>
        <time>2021-08-05T14:13:36.480Z</time>
      </trkpt>
      <trkpt lat="46.97072" lon="8.78801">
        <ele>652</ele>
        <time>2021-08-05T14:13:37.480Z</time>
      </trkpt>
      <trkpt lat="46.97071" lon="8.78802">
        <ele>652</ele>
        <time>2021-08-05T14:13:38.480Z</time>
      </trkpt>
      <trkpt lat="46.9707" lon="8.78802">
        <ele>651</ele>
        <time>2021-08-05T14:13:39.479Z</time>
      </trkpt>
      <trkpt lat="46.97069" lon="8.78803">
        <ele>651</ele>
        <time>2021-08-05T14:13:40.480Z</time>
      </trkpt>
      <trkpt lat="46.97069" lon="8.78805">
        <ele>651</ele>
        <time>2021-08-05T14:13:41.479Z</time>
      </trkpt>
      <trkpt lat="46.97069" lon="8.78806">
        <ele>651</ele>
        <time>2021-08-05T14:13:42.480Z</time>
      </trkpt>
      <trkpt lat="46.97069" lon="8.78808">
        <ele>650</ele>
        <time>2021-08-05T14:13:43.480Z</time>
      </trkpt>
      <trkpt lat="46.97069" lon="8.78809">
        <ele>650</ele>
        <time>2021-08-05T14:13:44.479Z</time>
      </trkpt>
      <trkpt lat="46.97069" lon="8.78811">
        <ele>650</ele>
        <time>2021-08-05T14:13:45.480Z</time>
      </trkpt>
      <trkpt lat="46.97069" lon="8.78812">
        <ele>651</ele>
        <time>2021-08-05T14:13:46.479Z</time>
      </trkpt>
      <trkpt lat="46.97069" lon="8.78813">
        <ele>652</ele>
        <time>2021-08-05T14:13:47.479Z</time>
      </trkpt>
      <trkpt lat="46.97069" lon="8.78815">
        <ele>653</ele>
        <time>2021-08-05T14:13:48.479Z</time>
      </trkpt>
      <trkpt lat="46.97069" lon="8.78817">
        <ele>654</ele>
        <time>2021-08-05T14:13:49.479Z</time>
      </trkpt>
      <trkpt lat="46.97069" lon="8.78818">
        <ele>655</ele>
        <time>2021-08-05T14:13:50.479Z</time>
      </trkpt>
      <trkpt lat="46.97069" lon="8.78819">
        <ele>655</ele>
        <time>2021-08-05T14:13:51.480Z</time>
      </trkpt>
      <trkpt lat="46.97069" lon="8.7882">
        <ele>656</ele>
        <time>2021-08-05T14:13:52.480Z</time>
      </trkpt>
      <trkpt lat="46.97068" lon="8.78822">
        <ele>657</ele>
        <time>2021-08-05T14:13:53.479Z</time>
      </trkpt>
      <trkpt lat="46.97068" lon="8.78823">
        <ele>657</ele>
        <time>2021-08-05T14:13:54.480Z</time>
      </trkpt>
      <trkpt lat="46.97068" lon="8.78825">
        <ele>658</ele>
        <time>2021-08-05T14:13:55.479Z</time>
      </trkpt>
      <trkpt lat="46.97068" lon="8.78827">
        <ele>658</ele>
        <time>2021-08-05T14:13:56.480Z</time>
      </trkpt>
      <trkpt lat="46.97066" lon="8.78829">
        <ele>658</ele>
        <time>2021-08-05T14:13:57.480Z</time>
      </trkpt>
      <trkpt lat="46.97065" lon="8.7883">
        <ele>658</ele>
        <time>2021-08-05T14:13:58.480Z</time>
      </trkpt>
      <trkpt lat="46.97064" lon="8.78831">
        <ele>658</ele>
        <time>2021-08-05T14:13:59.480Z</time>
      </trkpt>
      <trkpt lat="46.97063" lon="8.78831">
        <ele>659</ele>
        <time>2021-08-05T14:14:00.480Z</time>
      </trkpt>
      <trkpt lat="46.97063" lon="8.78832">
        <ele>659</ele>
        <time>2021-08-05T14:14:01.479Z</time>
      </trkpt>
      <trkpt lat="46.97062" lon="8.78832">
        <ele>660</ele>
        <time>2021-08-05T14:14:02.479Z</time>
      </trkpt>
      <trkpt lat="46.97061" lon="8.78833">
        <ele>660</ele>
        <time>2021-08-05T14:14:03.479Z</time>
      </trkpt>
      <trkpt lat="46.97061" lon="8.78834">
        <ele>660</ele>
        <time>2021-08-05T14:14:04.479Z</time>
      </trkpt>
      <trkpt lat="46.9706" lon="8.78835">
        <ele>660</ele>
        <time>2021-08-05T14:14:05.480Z</time>
      </trkpt>
      <trkpt lat="46.9706" lon="8.78836">
        <ele>660</ele>
        <time>2021-08-05T14:14:06.479Z</time>
      </trkpt>
      <trkpt lat="46.9706" lon="8.78836">
        <ele>660</ele>
        <time>2021-08-05T14:14:07.479Z</time>
      </trkpt>
      <trkpt lat="46.9706" lon="8.78836">
        <ele>660</ele>
        <time>2021-08-05T14:14:08.480Z</time>
      </trkpt>
      <trkpt lat="46.97059" lon="8.78836">
        <ele>661</ele>
        <time>2021-08-05T14:14:09.482Z</time>
      </trkpt>
      <trkpt lat="46.9706" lon="8.78835">
        <ele>662</ele>
        <time>2021-08-05T14:14:10.482Z</time>
      </trkpt>
      <trkpt lat="46.9706" lon="8.78835">
        <ele>662</ele>
        <time>2021-08-05T14:14:11.481Z</time>
      </trkpt>
      <trkpt lat="46.97059" lon="8.78834">
        <ele>663</ele>
        <time>2021-08-05T14:14:12.482Z</time>
      </trkpt>
      <trkpt lat="46.97059" lon="8.78833">
        <ele>664</ele>
        <time>2021-08-05T14:14:13.482Z</time>
      </trkpt>
      <trkpt lat="46.97059" lon="8.78833">
        <ele>664</ele>
        <time>2021-08-05T14:14:14.482Z</time>
      </trkpt>
      <trkpt lat="46.97058" lon="8.78833">
        <ele>664</ele>
        <time>2021-08-05T14:14:15.482Z</time>
      </trkpt>
      <trkpt lat="46.97057" lon="8.78832">
        <ele>665</ele>
        <time>2021-08-05T14:14:16.481Z</time>
      </trkpt>
      <trkpt lat="46.97056" lon="8.78831">
        <ele>665</ele>
        <time>2021-08-05T14:14:17.482Z</time>
      </trkpt>
      <trkpt lat="46.97055" lon="8.78831">
        <ele>665</ele>
        <time>2021-08-05T14:14:18.482Z</time>
      </trkpt>
      <trkpt lat="46.97054" lon="8.78832">
        <ele>666</ele>
        <time>2021-08-05T14:14:19.482Z</time>
      </trkpt>
      <trkpt lat="46.97106" lon="8.78913">
        <ele>665</ele>
        <time>2021-08-05T14:14:56.482Z</time>
      </trkpt>
      <trkpt lat="46.97114" lon="8.78899">
        <ele>663</ele>
        <time>2021-08-05T14:14:57.482Z</time>
      </trkpt>
      <trkpt lat="46.97111" lon="8.78883">
        <ele>660</ele>
        <time>2021-08-05T14:14:58.481Z</time>
      </trkpt>
      <trkpt lat="46.97106" lon="8.78872">
        <ele>658</ele>
        <time>2021-08-05T14:14:59.482Z</time>
      </trkpt>
      <trkpt lat="46.971" lon="8.78864">
        <ele>656</ele>
        <time>2021-08-05T14:15:00.482Z</time>
      </trkpt>
      <trkpt lat="46.97095" lon="8.78852">
        <ele>655</ele>
        <time>2021-08-05T14:15:01.482Z</time>
      </trkpt>
      <trkpt lat="46.97092" lon="8.78846">
        <ele>654</ele>
        <time>2021-08-05T14:15:02.482Z</time>
      </trkpt>
      <trkpt lat="46.9709" lon="8.78841">
        <ele>654</ele>
        <time>2021-08-05T14:15:03.481Z</time>
      </trkpt>
      <trkpt lat="46.97089" lon="8.78836">
        <ele>653</ele>
        <time>2021-08-05T14:15:04.482Z</time>
      </trkpt>
      <trkpt lat="46.97088" lon="8.78832">
        <ele>653</ele>
        <time>2021-08-05T14:15:05.482Z</time>
      </trkpt>
      <trkpt lat="46.97086" lon="8.78828">
        <ele>653</ele>
        <time>2021-08-05T14:15:06.482Z</time>
      </trkpt>
      <trkpt lat="46.97084" lon="8.78824">
        <ele>652</ele>
        <time>2021-08-05T14:15:07.481Z</time>
      </trkpt>
      <trkpt lat="46.97082" lon="8.78822">
        <ele>652</ele>
        <time>2021-08-05T14:15:08.481Z</time>
      </trkpt>
      <trkpt lat="46.97081" lon="8.78821">
        <ele>652</ele>
        <time>2021-08-05T14:15:09.482Z</time>
      </trkpt>
      <trkpt lat="46.97081" lon="8.7882">
        <ele>652</ele>
        <time>2021-08-05T14:15:10.482Z</time>
      </trkpt>
      <trkpt lat="46.97081" lon="8.7882">
        <ele>652</ele>
        <time>2021-08-05T14:15:11.482Z</time>
      </trkpt>
      <trkpt lat="46.97082" lon="8.78819">
        <ele>652</ele>
        <time>2021-08-05T14:15:12.481Z</time>
      </trkpt>
      <trkpt lat="46.9708" lon="8.78815">
        <ele>652</ele>
        <time>2021-08-05T14:15:13.483Z</time>
      </trkpt>
      <trkpt lat="46.97079" lon="8.78814">
        <ele>652</ele>
        <time>2021-08-05T14:15:14.483Z</time>
      </trkpt>
      <trkpt lat="46.9708" lon="8.78813">
        <ele>652</ele>
        <time>2021-08-05T14:15:15.483Z</time>
      </trkpt>
      <trkpt lat="46.9708" lon="8.78812">
        <ele>652</ele>
        <time>2021-08-05T14:15:16.482Z</time>
      </trkpt>
      <trkpt lat="46.97081" lon="8.78811">
        <ele>653</ele>
        <time>2021-08-05T14:15:17.482Z</time>
      </trkpt>
      <trkpt lat="46.97081" lon="8.7881">
        <ele>653</ele>
        <time>2021-08-05T14:15:18.482Z</time>
      </trkpt>
      <trkpt lat="46.97081" lon="8.78809">
        <ele>654</ele>
        <time>2021-08-05T14:15:19.483Z</time>
      </trkpt>
      <trkpt lat="46.97081" lon="8.78808">
        <ele>654</ele>
        <time>2021-08-05T14:15:20.483Z</time>
      </trkpt>
      <trkpt lat="46.97081" lon="8.78808">
        <ele>654</ele>
        <time>2021-08-05T14:15:21.483Z</time>
      </trkpt>
      <trkpt lat="46.97082" lon="8.78808">
        <ele>654</ele>
        <time>2021-08-05T14:15:22.482Z</time>
      </trkpt>
      <trkpt lat="46.97084" lon="8.78807">
        <ele>654</ele>
        <time>2021-08-05T14:15:23.482Z</time>
      </trkpt>
      <trkpt lat="46.97085" lon="8.78806">
        <ele>654</ele>
        <time>2021-08-05T14:15:24.483Z</time>
      </trkpt>
      <trkpt lat="46.97086" lon="8.78804">
        <ele>654</ele>
        <time>2021-08-05T14:15:25.482Z</time>
      </trkpt>
      <trkpt lat="46.97086" lon="8.78803">
        <ele>654</ele>
        <time>2021-08-05T14:15:26.483Z</time>
      </trkpt>
      <trkpt lat="46.97087" lon="8.78802">
        <ele>654</ele>
        <time>2021-08-05T14:15:27.482Z</time>
      </trkpt>
      <trkpt lat="46.97088" lon="8.78801">
        <ele>653</ele>
        <time>2021-08-05T14:15:28.483Z</time>
      </trkpt>
      <trkpt lat="46.97089" lon="8.788">
        <ele>653</ele>
        <time>2021-08-05T14:15:29.483Z</time>
      </trkpt>
      <trkpt lat="46.97089" lon="8.78798">
        <ele>653</ele>
        <time>2021-08-05T14:15:30.483Z</time>
      </trkpt>
      <trkpt lat="46.9709" lon="8.78796">
        <ele>653</ele>
        <time>2021-08-05T14:15:31.483Z</time>
      </trkpt>
      <trkpt lat="46.97089" lon="8.78793">
        <ele>653</ele>
        <time>2021-08-05T14:15:32.482Z</time>
      </trkpt>
      <trkpt lat="46.97089" lon="8.78792">
        <ele>654</ele>
        <time>2021-08-05T14:15:33.483Z</time>
      </trkpt>
      <trkpt lat="46.97089" lon="8.78792">
        <ele>654</ele>
        <time>2021-08-05T14:15:34.483Z</time>
      </trkpt>
      <trkpt lat="46.97088" lon="8.78788">
        <ele>658</ele>
        <time>2021-08-05T14:15:35.483Z</time>
      </trkpt>
      <trkpt lat="46.97088" lon="8.78787">
        <ele>657</ele>
        <time>2021-08-05T14:15:36.483Z</time>
      </trkpt>
      <trkpt lat="46.97088" lon="8.78785">
        <ele>657</ele>
        <time>2021-08-05T14:15:37.483Z</time>
      </trkpt>
      <trkpt lat="46.97088" lon="8.78784">
        <ele>657</ele>
        <time>2021-08-05T14:15:38.483Z</time>
      </trkpt>
      <trkpt lat="46.97089" lon="8.78782">
        <ele>657</ele>
        <time>2021-08-05T14:15:39.483Z</time>
      </trkpt>
      <trkpt lat="46.97089" lon="8.78781">
        <ele>656</ele>
        <time>2021-08-05T14:15:40.483Z</time>
      </trkpt>
      <trkpt lat="46.97089" lon="8.7878">
        <ele>656</ele>
        <time>2021-08-05T14:15:41.483Z</time>
      </trkpt>
      <trkpt lat="46.97089" lon="8.7878">
        <ele>656</ele>
        <time>2021-08-05T14:15:42.483Z</time>
      </trkpt>
      <trkpt lat="46.97089" lon="8.78779">
        <ele>655</ele>
        <time>2021-08-05T14:15:43.483Z</time>
      </trkpt>
      <trkpt lat="46.97089" lon="8.78779">
        <ele>655</ele>
        <time>2021-08-05T14:15:44.483Z</time>
      </trkpt>
      <trkpt lat="46.97089" lon="8.78779">
        <ele>655</ele>
        <time>2021-08-05T14:15:45.483Z</time>
      </trkpt>
      <trkpt lat="46.9709" lon="8.78779">
        <ele>655</ele>
        <time>2021-08-05T14:15:46.483Z</time>
      </trkpt>
      <trkpt lat="46.97091" lon="8.78779">
        <ele>655</ele>
        <time>2021-08-05T14:15:47.483Z</time>
      </trkpt>
      <trkpt lat="46.97091" lon="8.78779">
        <ele>654</ele>
        <time>2021-08-05T14:15:48.483Z</time>
      </trkpt>
      <trkpt lat="46.97091" lon="8.7878">
        <ele>654</ele>
        <time>2021-08-05T14:15:49.483Z</time>
      </trkpt>
      <trkpt lat="46.9709" lon="8.7878">
        <ele>653</ele>
        <time>2021-08-05T14:15:50.483Z</time>
      </trkpt>
      <trkpt lat="46.97091" lon="8.7878">
        <ele>652</ele>
        <time>2021-08-05T14:15:51.483Z</time>
      </trkpt>
      <trkpt lat="46.97089" lon="8.78779">
        <ele>652</ele>
        <time>2021-08-05T14:15:52.484Z</time>
      </trkpt>
      <trkpt lat="46.9709" lon="8.78781">
        <ele>652</ele>
        <time>2021-08-05T14:15:53.484Z</time>
      </trkpt>
      <trkpt lat="46.9709" lon="8.78781">
        <ele>652</ele>
        <time>2021-08-05T14:15:54.483Z</time>
      </trkpt>
      <trkpt lat="46.9709" lon="8.78779">
        <ele>652</ele>
        <time>2021-08-05T14:15:55.483Z</time>
      </trkpt>
      <trkpt lat="46.97088" lon="8.78778">
        <ele>652</ele>
        <time>2021-08-05T14:15:56.484Z</time>
      </trkpt>
      <trkpt lat="46.97087" lon="8.78778">
        <ele>652</ele>
        <time>2021-08-05T14:15:57.484Z</time>
      </trkpt>
      <trkpt lat="46.97086" lon="8.78778">
        <ele>653</ele>
        <time>2021-08-05T14:15:58.483Z</time>
      </trkpt>
      <trkpt lat="46.97087" lon="8.78779">
        <ele>653</ele>
        <time>2021-08-05T14:15:59.484Z</time>
      </trkpt>
      <trkpt lat="46.97089" lon="8.78781">
        <ele>657</ele>
        <time>2021-08-05T14:16:00.485Z</time>
      </trkpt>
      <trkpt lat="46.9709" lon="8.78782">
        <ele>657</ele>
        <time>2021-08-05T14:16:01.485Z</time>
      </trkpt>
      <trkpt lat="46.9709" lon="8.78782">
        <ele>657</ele>
        <time>2021-08-05T14:16:02.484Z</time>
      </trkpt>
      <trkpt lat="46.97089" lon="8.78781">
        <ele>657</ele>
        <time>2021-08-05T14:16:03.485Z</time>
      </trkpt>
      <trkpt lat="46.97089" lon="8.7878">
        <ele>657</ele>
        <time>2021-08-05T14:16:04.485Z</time>
      </trkpt>
      <trkpt lat="46.97087" lon="8.78784">
        <ele>661</ele>
        <time>2021-08-05T14:16:05.485Z</time>
      </trkpt>
      <trkpt lat="46.97087" lon="8.78784">
        <ele>662</ele>
        <time>2021-08-05T14:16:06.485Z</time>
      </trkpt>
      <trkpt lat="46.97087" lon="8.78784">
        <ele>660</ele>
        <time>2021-08-05T14:16:07.486Z</time>
      </trkpt>
      <trkpt lat="46.97087" lon="8.78784">
        <ele>659</ele>
        <time>2021-08-05T14:16:08.486Z</time>
      </trkpt>
      <trkpt lat="46.97087" lon="8.78785">
        <ele>659</ele>
        <time>2021-08-05T14:16:09.485Z</time>
      </trkpt>
      <trkpt lat="46.97088" lon="8.78785">
        <ele>659</ele>
        <time>2021-08-05T14:16:10.488Z</time>
      </trkpt>
      <trkpt lat="46.97088" lon="8.78784">
        <ele>659</ele>
        <time>2021-08-05T14:16:11.488Z</time>
      </trkpt>
      <trkpt lat="46.97088" lon="8.78784">
        <ele>654</ele>
        <time>2021-08-05T14:16:12.488Z</time>
      </trkpt>
      <trkpt lat="46.97088" lon="8.78783">
        <ele>654</ele>
        <time>2021-08-05T14:16:13.488Z</time>
      </trkpt>
      <trkpt lat="46.97088" lon="8.78782">
        <ele>654</ele>
        <time>2021-08-05T14:16:14.488Z</time>
      </trkpt>
      <trkpt lat="46.97088" lon="8.78782">
        <ele>654</ele>
        <time>2021-08-05T14:16:15.488Z</time>
      </trkpt>
      <trkpt lat="46.9709" lon="8.78781">
        <ele>654</ele>
        <time>2021-08-05T14:16:16.489Z</time>
      </trkpt>
      <trkpt lat="46.97091" lon="8.7878">
        <ele>655</ele>
        <time>2021-08-05T14:16:17.488Z</time>
      </trkpt>
      <trkpt lat="46.97093" lon="8.78779">
        <ele>655</ele>
        <time>2021-08-05T14:16:18.488Z</time>
      </trkpt>
      <trkpt lat="46.97094" lon="8.78777">
        <ele>656</ele>
        <time>2021-08-05T14:16:19.488Z</time>
      </trkpt>
      <trkpt lat="46.97096" lon="8.78774">
        <ele>657</ele>
        <time>2021-08-05T14:16:20.489Z</time>
      </trkpt>
      <trkpt lat="46.97096" lon="8.78772">
        <ele>658</ele>
        <time>2021-08-05T14:16:21.489Z</time>
      </trkpt>
      <trkpt lat="46.97097" lon="8.7877">
        <ele>658</ele>
        <time>2021-08-05T14:16:22.488Z</time>
      </trkpt>
      <trkpt lat="46.97097" lon="8.78769">
        <ele>658</ele>
        <time>2021-08-05T14:16:23.489Z</time>
      </trkpt>
      <trkpt lat="46.97098" lon="8.78768">
        <ele>658</ele>
        <time>2021-08-05T14:16:24.489Z</time>
      </trkpt>
      <trkpt lat="46.97098" lon="8.78766">
        <ele>657</ele>
        <time>2021-08-05T14:16:25.489Z</time>
      </trkpt>
      <trkpt lat="46.97098" lon="8.78765">
        <ele>657</ele>
        <time>2021-08-05T14:16:26.488Z</time>
      </trkpt>
      <trkpt lat="46.97098" lon="8.78763">
        <ele>657</ele>
        <time>2021-08-05T14:16:27.488Z</time>
      </trkpt>
      <trkpt lat="46.97099" lon="8.78762">
        <ele>657</ele>
        <time>2021-08-05T14:16:28.489Z</time>
      </trkpt>
      <trkpt lat="46.971" lon="8.7876">
        <ele>657</ele>
        <time>2021-08-05T14:16:29.488Z</time>
      </trkpt>
      <trkpt lat="46.971" lon="8.7876">
        <ele>657</ele>
        <time>2021-08-05T14:16:30.489Z</time>
      </trkpt>
      <trkpt lat="46.97101" lon="8.78758">
        <ele>656</ele>
        <time>2021-08-05T14:16:31.489Z</time>
      </trkpt>
      <trkpt lat="46.971" lon="8.78757">
        <ele>656</ele>
        <time>2021-08-05T14:16:32.489Z</time>
      </trkpt>
      <trkpt lat="46.971" lon="8.78756">
        <ele>656</ele>
        <time>2021-08-05T14:16:33.489Z</time>
      </trkpt>
      <trkpt lat="46.971" lon="8.78755">
        <ele>656</ele>
        <time>2021-08-05T14:16:34.489Z</time>
      </trkpt>
      <trkpt lat="46.971" lon="8.78754">
        <ele>656</ele>
        <time>2021-08-05T14:16:35.488Z</time>
      </trkpt>
      <trkpt lat="46.971" lon="8.78753">
        <ele>656</ele>
        <time>2021-08-05T14:16:36.489Z</time>
      </trkpt>
      <trkpt lat="46.971" lon="8.78753">
        <ele>656</ele>
        <time>2021-08-05T14:16:37.489Z</time>
      </trkpt>
      <trkpt lat="46.97096" lon="8.78755">
        <ele>649</ele>
        <time>2021-08-05T14:16:38.488Z</time>
      </trkpt>
      <trkpt lat="46.97096" lon="8.78755">
        <ele>648</ele>
        <time>2021-08-05T14:16:39.488Z</time>
      </trkpt>
      <trkpt lat="46.97095" lon="8.78754">
        <ele>642</ele>
        <time>2021-08-05T14:16:40.490Z</time>
      </trkpt>
      <trkpt lat="46.97095" lon="8.78754">
        <ele>641</ele>
        <time>2021-08-05T14:16:41.489Z</time>
      </trkpt>
      <trkpt lat="46.97095" lon="8.78754">
        <ele>641</ele>
        <time>2021-08-05T14:16:42.490Z</time>
      </trkpt>
      <trkpt lat="46.97096" lon="8.78755">
        <ele>640</ele>
        <time>2021-08-05T14:16:43.490Z</time>
      </trkpt>
      <trkpt lat="46.97096" lon="8.78755">
        <ele>641</ele>
        <time>2021-08-05T14:16:44.490Z</time>
      </trkpt>
      <trkpt lat="46.97096" lon="8.78754">
        <ele>642</ele>
        <time>2021-08-05T14:16:45.489Z</time>
      </trkpt>
      <trkpt lat="46.97099" lon="8.78755">
        <ele>645</ele>
        <time>2021-08-05T14:16:46.491Z</time>
      </trkpt>
      <trkpt lat="46.97099" lon="8.78755">
        <ele>646</ele>
        <time>2021-08-05T14:16:47.490Z</time>
      </trkpt>
      <trkpt lat="46.971" lon="8.78755">
        <ele>647</ele>
        <time>2021-08-05T14:16:48.490Z</time>
      </trkpt>
      <trkpt lat="46.97101" lon="8.78756">
        <ele>648</ele>
        <time>2021-08-05T14:16:49.491Z</time>
      </trkpt>
      <trkpt lat="46.97102" lon="8.78756">
        <ele>650</ele>
        <time>2021-08-05T14:16:50.491Z</time>
      </trkpt>
      <trkpt lat="46.97103" lon="8.78756">
        <ele>651</ele>
        <time>2021-08-05T14:16:51.491Z</time>
      </trkpt>
      <trkpt lat="46.97105" lon="8.78755">
        <ele>651</ele>
        <time>2021-08-05T14:16:52.491Z</time>
      </trkpt>
      <trkpt lat="46.97108" lon="8.78751">
        <ele>652</ele>
        <time>2021-08-05T14:16:53.490Z</time>
      </trkpt>
      <trkpt lat="46.97109" lon="8.78749">
        <ele>653</ele>
        <time>2021-08-05T14:16:54.491Z</time>
      </trkpt>
      <trkpt lat="46.9711" lon="8.78747">
        <ele>653</ele>
        <time>2021-08-05T14:16:55.490Z</time>
      </trkpt>
      <trkpt lat="46.9711" lon="8.78745">
        <ele>654</ele>
        <time>2021-08-05T14:16:56.491Z</time>
      </trkpt>
      <trkpt lat="46.97111" lon="8.78743">
        <ele>654</ele>
        <time>2021-08-05T14:16:57.490Z</time>
      </trkpt>
      <trkpt lat="46.97111" lon="8.78742">
        <ele>655</ele>
        <time>2021-08-05T14:16:58.491Z</time>
      </trkpt>
      <trkpt lat="46.97111" lon="8.7874">
        <ele>655</ele>
        <time>2021-08-05T14:16:59.491Z</time>
      </trkpt>
      <trkpt lat="46.97112" lon="8.78738">
        <ele>654</ele>
        <time>2021-08-05T14:17:00.491Z</time>
      </trkpt>
      <trkpt lat="46.97112" lon="8.78737">
        <ele>654</ele>
        <time>2021-08-05T14:17:01.491Z</time>
      </trkpt>
      <trkpt lat="46.97113" lon="8.78735">
        <ele>654</ele>
        <time>2021-08-05T14:17:02.490Z</time>
      </trkpt>
      <trkpt lat="46.97113" lon="8.78734">
        <ele>654</ele>
        <time>2021-08-05T14:17:03.490Z</time>
      </trkpt>
      <trkpt lat="46.97114" lon="8.78732">
        <ele>654</ele>
        <time>2021-08-05T14:17:04.490Z</time>
      </trkpt>
      <trkpt lat="46.97114" lon="8.78731">
        <ele>654</ele>
        <time>2021-08-05T14:17:05.491Z</time>
      </trkpt>
      <trkpt lat="46.97115" lon="8.78729">
        <ele>654</ele>
        <time>2021-08-05T14:17:06.490Z</time>
      </trkpt>
      <trkpt lat="46.97115" lon="8.78727">
        <ele>655</ele>
        <time>2021-08-05T14:17:07.490Z</time>
      </trkpt>
      <trkpt lat="46.97115" lon="8.78725">
        <ele>655</ele>
        <time>2021-08-05T14:17:08.491Z</time>
      </trkpt>
      <trkpt lat="46.97115" lon="8.78723">
        <ele>655</ele>
        <time>2021-08-05T14:17:09.490Z</time>
      </trkpt>
      <trkpt lat="46.97115" lon="8.78722">
        <ele>654</ele>
        <time>2021-08-05T14:17:10.491Z</time>
      </trkpt>
      <trkpt lat="46.97116" lon="8.78721">
        <ele>654</ele>
        <time>2021-08-05T14:17:11.490Z</time>
      </trkpt>
      <trkpt lat="46.97117" lon="8.78719">
        <ele>653</ele>
        <time>2021-08-05T14:17:12.490Z</time>
      </trkpt>
      <trkpt lat="46.97117" lon="8.78717">
        <ele>652</ele>
        <time>2021-08-05T14:17:13.490Z</time>
      </trkpt>
      <trkpt lat="46.97118" lon="8.78715">
        <ele>651</ele>
        <time>2021-08-05T14:17:14.490Z</time>
      </trkpt>
      <trkpt lat="46.97119" lon="8.78713">
        <ele>651</ele>
        <time>2021-08-05T14:17:15.491Z</time>
      </trkpt>
      <trkpt lat="46.97119" lon="8.78712">
        <ele>651</ele>
        <time>2021-08-05T14:17:16.491Z</time>
      </trkpt>
      <trkpt lat="46.97119" lon="8.7871">
        <ele>651</ele>
        <time>2021-08-05T14:17:17.490Z</time>
      </trkpt>
      <trkpt lat="46.9712" lon="8.78708">
        <ele>651</ele>
        <time>2021-08-05T14:17:18.490Z</time>
      </trkpt>
      <trkpt lat="46.97121" lon="8.78707">
        <ele>651</ele>
        <time>2021-08-05T14:17:19.490Z</time>
      </trkpt>
      <trkpt lat="46.97122" lon="8.78705">
        <ele>651</ele>
        <time>2021-08-05T14:17:20.491Z</time>
      </trkpt>
      <trkpt lat="46.97123" lon="8.78704">
        <ele>651</ele>
        <time>2021-08-05T14:17:21.490Z</time>
      </trkpt>
      <trkpt lat="46.97123" lon="8.78702">
        <ele>651</ele>
        <time>2021-08-05T14:17:22.490Z</time>
      </trkpt>
      <trkpt lat="46.97124" lon="8.787">
        <ele>651</ele>
        <time>2021-08-05T14:17:23.490Z</time>
      </trkpt>
      <trkpt lat="46.97124" lon="8.78699">
        <ele>652</ele>
        <time>2021-08-05T14:17:24.491Z</time>
      </trkpt>
      <trkpt lat="46.97124" lon="8.78698">
        <ele>652</ele>
        <time>2021-08-05T14:17:25.491Z</time>
      </trkpt>
      <trkpt lat="46.97125" lon="8.78698">
        <ele>654</ele>
        <time>2021-08-05T14:17:26.491Z</time>
      </trkpt>
      <trkpt lat="46.97126" lon="8.78696">
        <ele>655</ele>
        <time>2021-08-05T14:17:27.490Z</time>
      </trkpt>
      <trkpt lat="46.97127" lon="8.78695">
        <ele>655</ele>
        <time>2021-08-05T14:17:28.490Z</time>
      </trkpt>
      <trkpt lat="46.97128" lon="8.78693">
        <ele>655</ele>
        <time>2021-08-05T14:17:29.491Z</time>
      </trkpt>
      <trkpt lat="46.97128" lon="8.7869">
        <ele>655</ele>
        <time>2021-08-05T14:17:30.491Z</time>
      </trkpt>
      <trkpt lat="46.97128" lon="8.78687">
        <ele>655</ele>
        <time>2021-08-05T14:17:31.491Z</time>
      </trkpt>
      <trkpt lat="46.97128" lon="8.78685">
        <ele>655</ele>
        <time>2021-08-05T14:17:32.491Z</time>
      </trkpt>
      <trkpt lat="46.97127" lon="8.78683">
        <ele>655</ele>
        <time>2021-08-05T14:17:33.491Z</time>
      </trkpt>
      <trkpt lat="46.97127" lon="8.78681">
        <ele>656</ele>
        <time>2021-08-05T14:17:34.491Z</time>
      </trkpt>
      <trkpt lat="46.97126" lon="8.78679">
        <ele>656</ele>
        <time>2021-08-05T14:17:35.491Z</time>
      </trkpt>
      <trkpt lat="46.97126" lon="8.78677">
        <ele>656</ele>
        <time>2021-08-05T14:17:36.490Z</time>
      </trkpt>
      <trkpt lat="46.97126" lon="8.78675">
        <ele>656</ele>
        <time>2021-08-05T14:17:37.490Z</time>
      </trkpt>
      <trkpt lat="46.97126" lon="8.78673">
        <ele>655</ele>
        <time>2021-08-05T14:17:38.491Z</time>
      </trkpt>
      <trkpt lat="46.97126" lon="8.78672">
        <ele>654</ele>
        <time>2021-08-05T14:17:39.491Z</time>
      </trkpt>
      <trkpt lat="46.97126" lon="8.7867">
        <ele>654</ele>
        <time>2021-08-05T14:17:40.491Z</time>
      </trkpt>
      <trkpt lat="46.97125" lon="8.78668">
        <ele>653</ele>
        <time>2021-08-05T14:17:41.491Z</time>
      </trkpt>
      <trkpt lat="46.97125" lon="8.78666">
        <ele>653</ele>
        <time>2021-08-05T14:17:42.491Z</time>
      </trkpt>
      <trkpt lat="46.97124" lon="8.78664">
        <ele>653</ele>
        <time>2021-08-05T14:17:43.490Z</time>
      </trkpt>
      <trkpt lat="46.97123" lon="8.78663">
        <ele>653</ele>
        <time>2021-08-05T14:17:44.490Z</time>
      </trkpt>
      <trkpt lat="46.97122" lon="8.78661">
        <ele>654</ele>
        <time>2021-08-05T14:17:45.490Z</time>
      </trkpt>
      <trkpt lat="46.97121" lon="8.7866">
        <ele>654</ele>
        <time>2021-08-05T14:17:46.490Z</time>
      </trkpt>
      <trkpt lat="46.9712" lon="8.78659">
        <ele>654</ele>
        <time>2021-08-05T14:17:47.490Z</time>
      </trkpt>
      <trkpt lat="46.9712" lon="8.78658">
        <ele>654</ele>
        <time>2021-08-05T14:17:48.490Z</time>
      </trkpt>
      <trkpt lat="46.97119" lon="8.78658">
        <ele>654</ele>
        <time>2021-08-05T14:17:49.490Z</time>
      </trkpt>
      <trkpt lat="46.9712" lon="8.78657">
        <ele>654</ele>
        <time>2021-08-05T14:17:50.491Z</time>
      </trkpt>
      <trkpt lat="46.97119" lon="8.78656">
        <ele>654</ele>
        <time>2021-08-05T14:17:51.490Z</time>
      </trkpt>
      <trkpt lat="46.97121" lon="8.78683">
        <ele>653</ele>
        <time>2021-08-05T14:28:22.499Z</time>
      </trkpt>
      <trkpt lat="46.97122" lon="8.78683">
        <ele>652</ele>
        <time>2021-08-05T14:28:23.500Z</time>
      </trkpt>
      <trkpt lat="46.97122" lon="8.78683">
        <ele>651</ele>
        <time>2021-08-05T14:28:24.499Z</time>
      </trkpt>
      <trkpt lat="46.97128" lon="8.78676">
        <ele>650</ele>
        <time>2021-08-05T14:28:25.500Z</time>
      </trkpt>
      <trkpt lat="46.97128" lon="8.78678">
        <ele>649</ele>
        <time>2021-08-05T14:28:26.499Z</time>
      </trkpt>
      <trkpt lat="46.97126" lon="8.7868">
        <ele>649</ele>
        <time>2021-08-05T14:28:27.500Z</time>
      </trkpt>
      <trkpt lat="46.97129" lon="8.78684">
        <ele>648</ele>
        <time>2021-08-05T14:28:28.499Z</time>
      </trkpt>
      <trkpt lat="46.97131" lon="8.78687">
        <ele>647</ele>
        <time>2021-08-05T14:28:29.499Z</time>
      </trkpt>
      <trkpt lat="46.97132" lon="8.7869">
        <ele>647</ele>
        <time>2021-08-05T14:28:30.500Z</time>
      </trkpt>
      <trkpt lat="46.97131" lon="8.78694">
        <ele>647</ele>
        <time>2021-08-05T14:28:31.499Z</time>
      </trkpt>
      <trkpt lat="46.97129" lon="8.78699">
        <ele>646</ele>
        <time>2021-08-05T14:28:32.500Z</time>
      </trkpt>
      <trkpt lat="46.97127" lon="8.78705">
        <ele>645</ele>
        <time>2021-08-05T14:28:33.500Z</time>
      </trkpt>
      <trkpt lat="46.97125" lon="8.7871">
        <ele>644</ele>
        <time>2021-08-05T14:28:34.500Z</time>
      </trkpt>
      <trkpt lat="46.97124" lon="8.78713">
        <ele>642</ele>
        <time>2021-08-05T14:28:35.500Z</time>
      </trkpt>
      <trkpt lat="46.97123" lon="8.78713">
        <ele>640</ele>
        <time>2021-08-05T14:28:36.500Z</time>
      </trkpt>
      <trkpt lat="46.97121" lon="8.78713">
        <ele>639</ele>
        <time>2021-08-05T14:28:37.500Z</time>
      </trkpt>
      <trkpt lat="46.9712" lon="8.78713">
        <ele>637</ele>
        <time>2021-08-05T14:28:38.500Z</time>
      </trkpt>
      <trkpt lat="46.9712" lon="8.78714">
        <ele>636</ele>
        <time>2021-08-05T14:28:39.500Z</time>
      </trkpt>
      <trkpt lat="46.97119" lon="8.78716">
        <ele>635</ele>
        <time>2021-08-05T14:28:40.500Z</time>
      </trkpt>
      <trkpt lat="46.97119" lon="8.78717">
        <ele>634</ele>
        <time>2021-08-05T14:28:41.499Z</time>
      </trkpt>
      <trkpt lat="46.97118" lon="8.78718">
        <ele>634</ele>
        <time>2021-08-05T14:28:42.499Z</time>
      </trkpt>
      <trkpt lat="46.97117" lon="8.7872">
        <ele>633</ele>
        <time>2021-08-05T14:28:43.499Z</time>
      </trkpt>
      <trkpt lat="46.97116" lon="8.78721">
        <ele>633</ele>
        <time>2021-08-05T14:28:44.500Z</time>
      </trkpt>
      <trkpt lat="46.97116" lon="8.78722">
        <ele>633</ele>
        <time>2021-08-05T14:28:45.499Z</time>
      </trkpt>
      <trkpt lat="46.97115" lon="8.78723">
        <ele>633</ele>
        <time>2021-08-05T14:28:46.499Z</time>
      </trkpt>
      <trkpt lat="46.97115" lon="8.78725">
        <ele>633</ele>
        <time>2021-08-05T14:28:47.500Z</time>
      </trkpt>
      <trkpt lat="46.97114" lon="8.78726">
        <ele>633</ele>
        <time>2021-08-05T14:28:48.500Z</time>
      </trkpt>
      <trkpt lat="46.97113" lon="8.78728">
        <ele>633</ele>
        <time>2021-08-05T14:28:49.500Z</time>
      </trkpt>
      <trkpt lat="46.97112" lon="8.78729">
        <ele>633</ele>
        <time>2021-08-05T14:28:50.499Z</time>
      </trkpt>
      <trkpt lat="46.97111" lon="8.78731">
        <ele>633</ele>
        <time>2021-08-05T14:28:51.500Z</time>
      </trkpt>
      <trkpt lat="46.97111" lon="8.78732">
        <ele>634</ele>
        <time>2021-08-05T14:28:52.500Z</time>
      </trkpt>
      <trkpt lat="46.9711" lon="8.78735">
        <ele>634</ele>
        <time>2021-08-05T14:28:53.499Z</time>
      </trkpt>
      <trkpt lat="46.9711" lon="8.78736">
        <ele>636</ele>
        <time>2021-08-05T14:28:54.500Z</time>
      </trkpt>
      <trkpt lat="46.9711" lon="8.78738">
        <ele>637</ele>
        <time>2021-08-05T14:28:55.500Z</time>
      </trkpt>
      <trkpt lat="46.9711" lon="8.78739">
        <ele>638</ele>
        <time>2021-08-05T14:28:56.500Z</time>
      </trkpt>
      <trkpt lat="46.97108" lon="8.78741">
        <ele>639</ele>
        <time>2021-08-05T14:28:57.499Z</time>
      </trkpt>
      <trkpt lat="46.97108" lon="8.78742">
        <ele>640</ele>
        <time>2021-08-05T14:28:58.500Z</time>
      </trkpt>
      <trkpt lat="46.97107" lon="8.78745">
        <ele>640</ele>
        <time>2021-08-05T14:28:59.500Z</time>
      </trkpt>
      <trkpt lat="46.97107" lon="8.78747">
        <ele>641</ele>
        <time>2021-08-05T14:29:00.500Z</time>
      </trkpt>
      <trkpt lat="46.97106" lon="8.78748">
        <ele>642</ele>
        <time>2021-08-05T14:29:01.499Z</time>
      </trkpt>
      <trkpt lat="46.97106" lon="8.7875">
        <ele>642</ele>
        <time>2021-08-05T14:29:02.499Z</time>
      </trkpt>
      <trkpt lat="46.97105" lon="8.78751">
        <ele>643</ele>
        <time>2021-08-05T14:29:03.500Z</time>
      </trkpt>
      <trkpt lat="46.97104" lon="8.78752">
        <ele>644</ele>
        <time>2021-08-05T14:29:04.500Z</time>
      </trkpt>
      <trkpt lat="46.97103" lon="8.78754">
        <ele>644</ele>
        <time>2021-08-05T14:29:05.499Z</time>
      </trkpt>
      <trkpt lat="46.97103" lon="8.78755">
        <ele>644</ele>
        <time>2021-08-05T14:29:06.499Z</time>
      </trkpt>
      <trkpt lat="46.97102" lon="8.78757">
        <ele>645</ele>
        <time>2021-08-05T14:29:07.499Z</time>
      </trkpt>
      <trkpt lat="46.97101" lon="8.78759">
        <ele>645</ele>
        <time>2021-08-05T14:29:08.499Z</time>
      </trkpt>
      <trkpt lat="46.97101" lon="8.78761">
        <ele>645</ele>
        <time>2021-08-05T14:29:09.500Z</time>
      </trkpt>
      <trkpt lat="46.971" lon="8.78762">
        <ele>645</ele>
        <time>2021-08-05T14:29:10.500Z</time>
      </trkpt>
      <trkpt lat="46.97099" lon="8.78763">
        <ele>645</ele>
        <time>2021-08-05T14:29:11.500Z</time>
      </trkpt>
      <trkpt lat="46.97099" lon="8.78765">
        <ele>646</ele>
        <time>2021-08-05T14:29:12.500Z</time>
      </trkpt>
      <trkpt lat="46.97098" lon="8.78766">
        <ele>646</ele>
        <time>2021-08-05T14:29:13.500Z</time>
      </trkpt>
      <trkpt lat="46.97096" lon="8.78766">
        <ele>647</ele>
        <time>2021-08-05T14:29:14.500Z</time>
      </trkpt>
      <trkpt lat="46.97095" lon="8.78767">
        <ele>647</ele>
        <time>2021-08-05T14:29:15.500Z</time>
      </trkpt>
      <trkpt lat="46.97094" lon="8.78768">
        <ele>647</ele>
        <time>2021-08-05T14:29:16.500Z</time>
      </trkpt>
      <trkpt lat="46.97092" lon="8.78768">
        <ele>647</ele>
        <time>2021-08-05T14:29:17.500Z</time>
      </trkpt>
      <trkpt lat="46.97091" lon="8.78769">
        <ele>647</ele>
        <time>2021-08-05T14:29:18.500Z</time>
      </trkpt>
      <trkpt lat="46.9709" lon="8.78771">
        <ele>647</ele>
        <time>2021-08-05T14:29:19.500Z</time>
      </trkpt>
      <trkpt lat="46.97089" lon="8.78772">
        <ele>647</ele>
        <time>2021-08-05T14:29:20.499Z</time>
      </trkpt>
      <trkpt lat="46.97088" lon="8.78772">
        <ele>647</ele>
        <time>2021-08-05T14:29:21.500Z</time>
      </trkpt>
      <trkpt lat="46.97088" lon="8.78774">
        <ele>647</ele>
        <time>2021-08-05T14:29:22.499Z</time>
      </trkpt>
      <trkpt lat="46.97087" lon="8.78775">
        <ele>647</ele>
        <time>2021-08-05T14:29:23.500Z</time>
      </trkpt>
      <trkpt lat="46.97086" lon="8.78776">
        <ele>647</ele>
        <time>2021-08-05T14:29:24.499Z</time>
      </trkpt>
      <trkpt lat="46.97086" lon="8.78776">
        <ele>648</ele>
        <time>2021-08-05T14:29:25.500Z</time>
      </trkpt>
      <trkpt lat="46.97084" lon="8.78775">
        <ele>648</ele>
        <time>2021-08-05T14:29:26.500Z</time>
      </trkpt>
      <trkpt lat="46.97083" lon="8.78776">
        <ele>648</ele>
        <time>2021-08-05T14:29:27.500Z</time>
      </trkpt>
      <trkpt lat="46.97082" lon="8.78777">
        <ele>647</ele>
        <time>2021-08-05T14:29:28.500Z</time>
      </trkpt>
      <trkpt lat="46.97082" lon="8.78778">
        <ele>647</ele>
        <time>2021-08-05T14:29:29.500Z</time>
      </trkpt>
      <trkpt lat="46.97081" lon="8.78779">
        <ele>647</ele>
        <time>2021-08-05T14:29:30.500Z</time>
      </trkpt>
      <trkpt lat="46.97081" lon="8.7878">
        <ele>648</ele>
        <time>2021-08-05T14:29:31.500Z</time>
      </trkpt>
      <trkpt lat="46.97082" lon="8.78782">
        <ele>648</ele>
        <time>2021-08-05T14:29:32.500Z</time>
      </trkpt>
      <trkpt lat="46.97082" lon="8.78782">
        <ele>649</ele>
        <time>2021-08-05T14:29:33.499Z</time>
      </trkpt>
      <trkpt lat="46.97083" lon="8.78781">
        <ele>650</ele>
        <time>2021-08-05T14:29:34.500Z</time>
      </trkpt>
      <trkpt lat="46.97084" lon="8.78781">
        <ele>651</ele>
        <time>2021-08-05T14:29:35.500Z</time>
      </trkpt>
      <trkpt lat="46.97085" lon="8.78781">
        <ele>651</ele>
        <time>2021-08-05T14:29:36.499Z</time>
      </trkpt>
      <trkpt lat="46.97085" lon="8.78781">
        <ele>652</ele>
        <time>2021-08-05T14:29:37.500Z</time>
      </trkpt>
      <trkpt lat="46.97086" lon="8.78781">
        <ele>652</ele>
        <time>2021-08-05T14:29:38.499Z</time>
      </trkpt>
      <trkpt lat="46.97085" lon="8.78782">
        <ele>654</ele>
        <time>2021-08-05T14:29:39.500Z</time>
      </trkpt>
      <trkpt lat="46.97083" lon="8.78784">
        <ele>658</ele>
        <time>2021-08-05T14:29:40.500Z</time>
      </trkpt>
      <trkpt lat="46.97084" lon="8.78785">
        <ele>658</ele>
        <time>2021-08-05T14:29:41.500Z</time>
      </trkpt>
      <trkpt lat="46.97084" lon="8.78786">
        <ele>659</ele>
        <time>2021-08-05T14:29:42.499Z</time>
      </trkpt>
      <trkpt lat="46.97084" lon="8.78787">
        <ele>658</ele>
        <time>2021-08-05T14:29:43.499Z</time>
      </trkpt>
      <trkpt lat="46.97085" lon="8.78787">
        <ele>658</ele>
        <time>2021-08-05T14:29:44.500Z</time>
      </trkpt>
      <trkpt lat="46.97085" lon="8.78786">
        <ele>658</ele>
        <time>2021-08-05T14:29:45.500Z</time>
      </trkpt>
      <trkpt lat="46.97086" lon="8.78786">
        <ele>657</ele>
        <time>2021-08-05T14:29:46.500Z</time>
      </trkpt>
      <trkpt lat="46.97087" lon="8.78786">
        <ele>657</ele>
        <time>2021-08-05T14:29:47.500Z</time>
      </trkpt>
      <trkpt lat="46.97088" lon="8.78785">
        <ele>656</ele>
        <time>2021-08-05T14:29:48.499Z</time>
      </trkpt>
      <trkpt lat="46.97084" lon="8.78786">
        <ele>660</ele>
        <time>2021-08-05T14:29:49.500Z</time>
      </trkpt>
      <trkpt lat="46.97084" lon="8.78786">
        <ele>660</ele>
        <time>2021-08-05T14:29:50.500Z</time>
      </trkpt>
      <trkpt lat="46.97084" lon="8.78785">
        <ele>659</ele>
        <time>2021-08-05T14:29:51.500Z</time>
      </trkpt>
      <trkpt lat="46.97084" lon="8.78785">
        <ele>659</ele>
        <time>2021-08-05T14:29:52.501Z</time>
      </trkpt>
      <trkpt lat="46.97086" lon="8.78785">
        <ele>654</ele>
        <time>2021-08-05T14:29:53.502Z</time>
      </trkpt>
      <trkpt lat="46.97086" lon="8.78782">
        <ele>651</ele>
        <time>2021-08-05T14:29:54.503Z</time>
      </trkpt>
      <trkpt lat="46.97087" lon="8.78784">
        <ele>651</ele>
        <time>2021-08-05T14:29:55.503Z</time>
      </trkpt>
      <trkpt lat="46.97087" lon="8.78783">
        <ele>652</ele>
        <time>2021-08-05T14:29:56.503Z</time>
      </trkpt>
      <trkpt lat="46.97087" lon="8.78782">
        <ele>651</ele>
        <time>2021-08-05T14:29:57.503Z</time>
      </trkpt>
      <trkpt lat="46.97088" lon="8.78781">
        <ele>651</ele>
        <time>2021-08-05T14:29:58.502Z</time>
      </trkpt>
      <trkpt lat="46.97089" lon="8.78781">
        <ele>650</ele>
        <time>2021-08-05T14:29:59.503Z</time>
      </trkpt>
      <trkpt lat="46.97089" lon="8.78782">
        <ele>649</ele>
        <time>2021-08-05T14:30:05.632Z</time>
      </trkpt>
      <trkpt lat="46.97088" lon="8.78783">
        <ele>650</ele>
        <time>2021-08-05T14:30:06.632Z</time>
      </trkpt>
      <trkpt lat="46.97087" lon="8.78783">
        <ele>650</ele>
        <time>2021-08-05T14:30:07.632Z</time>
      </trkpt>
      <trkpt lat="46.97087" lon="8.78784">
        <ele>651</ele>
        <time>2021-08-05T14:30:08.632Z</time>
      </trkpt>
      <trkpt lat="46.97086" lon="8.78781">
        <ele>650</ele>
        <time>2021-08-05T14:30:09.635Z</time>
      </trkpt>
      <trkpt lat="46.97086" lon="8.78782">
        <ele>650</ele>
        <time>2021-08-05T14:30:10.634Z</time>
      </trkpt>
      <trkpt lat="46.97085" lon="8.78782">
        <ele>649</ele>
        <time>2021-08-05T14:30:11.634Z</time>
      </trkpt>
      <trkpt lat="46.97086" lon="8.78782">
        <ele>648</ele>
        <time>2021-08-05T14:30:12.634Z</time>
      </trkpt>
      <trkpt lat="46.97085" lon="8.78782">
        <ele>648</ele>
        <time>2021-08-05T14:30:13.634Z</time>
      </trkpt>
      <trkpt lat="46.9708" lon="8.78779">
        <ele>651</ele>
        <time>2021-08-05T14:30:14.636Z</time>
      </trkpt>
      <trkpt lat="46.9708" lon="8.7878">
        <ele>650</ele>
        <time>2021-08-05T14:30:15.635Z</time>
      </trkpt>
      <trkpt lat="46.97081" lon="8.7878">
        <ele>650</ele>
        <time>2021-08-05T14:30:16.636Z</time>
      </trkpt>
      <trkpt lat="46.97075" lon="8.78775">
        <ele>654</ele>
        <time>2021-08-05T14:30:17.636Z</time>
      </trkpt>
      <trkpt lat="46.97075" lon="8.78776">
        <ele>655</ele>
        <time>2021-08-05T14:30:18.636Z</time>
      </trkpt>
      <trkpt lat="46.97075" lon="8.78776">
        <ele>655</ele>
        <time>2021-08-05T14:30:19.636Z</time>
      </trkpt>
      <trkpt lat="46.97075" lon="8.78776">
        <ele>656</ele>
        <time>2021-08-05T14:30:20.636Z</time>
      </trkpt>
      <trkpt lat="46.97075" lon="8.78775">
        <ele>656</ele>
        <time>2021-08-05T14:30:21.636Z</time>
      </trkpt>
      <trkpt lat="46.97078" lon="8.78778">
        <ele>657</ele>
        <time>2021-08-05T14:30:22.636Z</time>
      </trkpt>
      <trkpt lat="46.97079" lon="8.78779">
        <ele>657</ele>
        <time>2021-08-05T14:30:23.637Z</time>
      </trkpt>
      <trkpt lat="46.9708" lon="8.78779">
        <ele>657</ele>
        <time>2021-08-05T14:30:24.637Z</time>
      </trkpt>
      <trkpt lat="46.9708" lon="8.7878">
        <ele>656</ele>
        <time>2021-08-05T14:30:25.636Z</time>
      </trkpt>
      <trkpt lat="46.9708" lon="8.78781">
        <ele>656</ele>
        <time>2021-08-05T14:30:26.636Z</time>
      </trkpt>
      <trkpt lat="46.97081" lon="8.78779">
        <ele>657</ele>
        <time>2021-08-05T14:30:27.638Z</time>
      </trkpt>
      <trkpt lat="46.97081" lon="8.7878">
        <ele>657</ele>
        <time>2021-08-05T14:30:28.638Z</time>
      </trkpt>
      <trkpt lat="46.9708" lon="8.78779">
        <ele>656</ele>
        <time>2021-08-05T14:30:29.638Z</time>
      </trkpt>
      <trkpt lat="46.97083" lon="8.78779">
        <ele>654</ele>
        <time>2021-08-05T14:30:30.638Z</time>
      </trkpt>
      <trkpt lat="46.97084" lon="8.78779">
        <ele>654</ele>
        <time>2021-08-05T14:30:31.638Z</time>
      </trkpt>
      <trkpt lat="46.97085" lon="8.78778">
        <ele>654</ele>
        <time>2021-08-05T14:30:32.637Z</time>
      </trkpt>
      <trkpt lat="46.97085" lon="8.78777">
        <ele>654</ele>
        <time>2021-08-05T14:30:33.638Z</time>
      </trkpt>
      <trkpt lat="46.97085" lon="8.78776">
        <ele>654</ele>
        <time>2021-08-05T14:30:34.637Z</time>
      </trkpt>
      <trkpt lat="46.97085" lon="8.78774">
        <ele>654</ele>
        <time>2021-08-05T14:30:35.637Z</time>
      </trkpt>
      <trkpt lat="46.97085" lon="8.78773">
        <ele>655</ele>
        <time>2021-08-05T14:30:36.637Z</time>
      </trkpt>
      <trkpt lat="46.97084" lon="8.78772">
        <ele>656</ele>
        <time>2021-08-05T14:30:37.638Z</time>
      </trkpt>
      <trkpt lat="46.97083" lon="8.78772">
        <ele>656</ele>
        <time>2021-08-05T14:30:38.637Z</time>
      </trkpt>
      <trkpt lat="46.97083" lon="8.78772">
        <ele>657</ele>
        <time>2021-08-05T14:30:39.637Z</time>
      </trkpt>
      <trkpt lat="46.97083" lon="8.78773">
        <ele>657</ele>
        <time>2021-08-05T14:30:40.638Z</time>
      </trkpt>
      <trkpt lat="46.97083" lon="8.78774">
        <ele>657</ele>
        <time>2021-08-05T14:30:41.638Z</time>
      </trkpt>
      <trkpt lat="46.97088" lon="8.78776">
        <ele>651</ele>
        <time>2021-08-05T14:30:42.639Z</time>
      </trkpt>
      <trkpt lat="46.97088" lon="8.78776">
        <ele>651</ele>
        <time>2021-08-05T14:30:43.639Z</time>
      </trkpt>
      <trkpt lat="46.97088" lon="8.78777">
        <ele>651</ele>
        <time>2021-08-05T14:30:44.639Z</time>
      </trkpt>
      <trkpt lat="46.97088" lon="8.78777">
        <ele>651</ele>
        <time>2021-08-05T14:30:45.638Z</time>
      </trkpt>
      <trkpt lat="46.97088" lon="8.78777">
        <ele>651</ele>
        <time>2021-08-05T14:30:46.638Z</time>
      </trkpt>
      <trkpt lat="46.97088" lon="8.78777">
        <ele>651</ele>
        <time>2021-08-05T14:30:47.639Z</time>
      </trkpt>
      <trkpt lat="46.97089" lon="8.78777">
        <ele>651</ele>
        <time>2021-08-05T14:30:48.638Z</time>
      </trkpt>
      <trkpt lat="46.97088" lon="8.78776">
        <ele>650</ele>
        <time>2021-08-05T14:30:49.640Z</time>
      </trkpt>
      <trkpt lat="46.97088" lon="8.78777">
        <ele>649</ele>
        <time>2021-08-05T14:30:50.640Z</time>
      </trkpt>
      <trkpt lat="46.97087" lon="8.78777">
        <ele>649</ele>
        <time>2021-08-05T14:30:51.639Z</time>
      </trkpt>
      <trkpt lat="46.97086" lon="8.78778">
        <ele>648</ele>
        <time>2021-08-05T14:30:52.639Z</time>
      </trkpt>
      <trkpt lat="46.97084" lon="8.78777">
        <ele>647</ele>
        <time>2021-08-05T14:30:53.640Z</time>
      </trkpt>
      <trkpt lat="46.97083" lon="8.78779">
        <ele>647</ele>
        <time>2021-08-05T14:30:54.639Z</time>
      </trkpt>
      <trkpt lat="46.97082" lon="8.7878">
        <ele>647</ele>
        <time>2021-08-05T14:30:55.640Z</time>
      </trkpt>
      <trkpt lat="46.97082" lon="8.78782">
        <ele>647</ele>
        <time>2021-08-05T14:30:56.640Z</time>
      </trkpt>
      <trkpt lat="46.97082" lon="8.78784">
        <ele>646</ele>
        <time>2021-08-05T14:30:57.640Z</time>
      </trkpt>
      <trkpt lat="46.97083" lon="8.78785">
        <ele>646</ele>
        <time>2021-08-05T14:30:58.640Z</time>
      </trkpt>
      <trkpt lat="46.97083" lon="8.78786">
        <ele>646</ele>
        <time>2021-08-05T14:30:59.640Z</time>
      </trkpt>
      <trkpt lat="46.97083" lon="8.78788">
        <ele>646</ele>
        <time>2021-08-05T14:31:00.640Z</time>
      </trkpt>
      <trkpt lat="46.97083" lon="8.78789">
        <ele>646</ele>
        <time>2021-08-05T14:31:01.639Z</time>
      </trkpt>
      <trkpt lat="46.97082" lon="8.7879">
        <ele>646</ele>
        <time>2021-08-05T14:31:02.640Z</time>
      </trkpt>
      <trkpt lat="46.97082" lon="8.78792">
        <ele>647</ele>
        <time>2021-08-05T14:31:03.640Z</time>
      </trkpt>
      <trkpt lat="46.97082" lon="8.78793">
        <ele>647</ele>
        <time>2021-08-05T14:31:04.639Z</time>
      </trkpt>
      <trkpt lat="46.97081" lon="8.78794">
        <ele>648</ele>
        <time>2021-08-05T14:31:05.640Z</time>
      </trkpt>
      <trkpt lat="46.97081" lon="8.78795">
        <ele>648</ele>
        <time>2021-08-05T14:31:06.640Z</time>
      </trkpt>
      <trkpt lat="46.9708" lon="8.78796">
        <ele>648</ele>
        <time>2021-08-05T14:31:07.640Z</time>
      </trkpt>
      <trkpt lat="46.9708" lon="8.78797">
        <ele>648</ele>
        <time>2021-08-05T14:31:08.639Z</time>
      </trkpt>
      <trkpt lat="46.97079" lon="8.78798">
        <ele>648</ele>
        <time>2021-08-05T14:31:09.640Z</time>
      </trkpt>
      <trkpt lat="46.97078" lon="8.78799">
        <ele>649</ele>
        <time>2021-08-05T14:31:10.640Z</time>
      </trkpt>
      <trkpt lat="46.97077" lon="8.788">
        <ele>649</ele>
        <time>2021-08-05T14:31:11.639Z</time>
      </trkpt>
      <trkpt lat="46.97076" lon="8.78801">
        <ele>649</ele>
        <time>2021-08-05T14:31:12.640Z</time>
      </trkpt>
      <trkpt lat="46.97075" lon="8.78803">
        <ele>649</ele>
        <time>2021-08-05T14:31:13.639Z</time>
      </trkpt>
      <trkpt lat="46.97074" lon="8.78804">
        <ele>649</ele>
        <time>2021-08-05T14:31:14.640Z</time>
      </trkpt>
      <trkpt lat="46.97073" lon="8.78805">
        <ele>649</ele>
        <time>2021-08-05T14:31:15.639Z</time>
      </trkpt>
      <trkpt lat="46.97073" lon="8.78805">
        <ele>649</ele>
        <time>2021-08-05T14:31:16.639Z</time>
      </trkpt>
      <trkpt lat="46.97072" lon="8.78806">
        <ele>649</ele>
        <time>2021-08-05T14:31:17.640Z</time>
      </trkpt>
      <trkpt lat="46.97072" lon="8.78806">
        <ele>649</ele>
        <time>2021-08-05T14:31:18.639Z</time>
      </trkpt>
      <trkpt lat="46.97071" lon="8.78806">
        <ele>648</ele>
        <time>2021-08-05T14:31:19.640Z</time>
      </trkpt>
      <trkpt lat="46.97071" lon="8.78806">
        <ele>648</ele>
        <time>2021-08-05T14:31:20.640Z</time>
      </trkpt>
      <trkpt lat="46.97071" lon="8.78806">
        <ele>648</ele>
        <time>2021-08-05T14:31:21.640Z</time>
      </trkpt>
      <trkpt lat="46.97071" lon="8.78808">
        <ele>647</ele>
        <time>2021-08-05T14:31:22.640Z</time>
      </trkpt>
      <trkpt lat="46.97069" lon="8.78808">
        <ele>647</ele>
        <time>2021-08-05T14:31:23.640Z</time>
      </trkpt>
      <trkpt lat="46.97071" lon="8.78807">
        <ele>654</ele>
        <time>2021-08-05T14:31:24.642Z</time>
      </trkpt>
      <trkpt lat="46.97072" lon="8.78808">
        <ele>655</ele>
        <time>2021-08-05T14:31:25.641Z</time>
      </trkpt>
      <trkpt lat="46.97072" lon="8.78808">
        <ele>655</ele>
        <time>2021-08-05T14:31:26.641Z</time>
      </trkpt>
      <trkpt lat="46.97073" lon="8.78808">
        <ele>659</ele>
        <time>2021-08-05T14:31:27.642Z</time>
      </trkpt>
      <trkpt lat="46.97074" lon="8.78808">
        <ele>660</ele>
        <time>2021-08-05T14:31:28.642Z</time>
      </trkpt>
      <trkpt lat="46.97074" lon="8.78809">
        <ele>660</ele>
        <time>2021-08-05T14:31:29.641Z</time>
      </trkpt>
      <trkpt lat="46.97074" lon="8.78809">
        <ele>661</ele>
        <time>2021-08-05T14:31:30.641Z</time>
      </trkpt>
      <trkpt lat="46.97073" lon="8.78809">
        <ele>661</ele>
        <time>2021-08-05T14:31:31.641Z</time>
      </trkpt>
      <trkpt lat="46.97072" lon="8.7881">
        <ele>661</ele>
        <time>2021-08-05T14:31:32.642Z</time>
      </trkpt>
      <trkpt lat="46.97072" lon="8.7881">
        <ele>661</ele>
        <time>2021-08-05T14:31:33.642Z</time>
      </trkpt>
      <trkpt lat="46.9707" lon="8.78809">
        <ele>661</ele>
        <time>2021-08-05T14:31:34.642Z</time>
      </trkpt>
      <trkpt lat="46.9707" lon="8.78808">
        <ele>660</ele>
        <time>2021-08-05T14:31:35.641Z</time>
      </trkpt>
      <trkpt lat="46.97071" lon="8.78808">
        <ele>660</ele>
        <time>2021-08-05T14:31:36.641Z</time>
      </trkpt>
      <trkpt lat="46.97072" lon="8.78808">
        <ele>660</ele>
        <time>2021-08-05T14:31:37.642Z</time>
      </trkpt>
      <trkpt lat="46.97074" lon="8.78811">
        <ele>660</ele>
        <time>2021-08-05T14:31:38.642Z</time>
      </trkpt>
      <trkpt lat="46.97074" lon="8.78811">
        <ele>659</ele>
        <time>2021-08-05T14:31:39.642Z</time>
      </trkpt>
      <trkpt lat="46.97076" lon="8.78812">
        <ele>651</ele>
        <time>2021-08-05T14:31:40.642Z</time>
      </trkpt>
      <trkpt lat="46.97076" lon="8.78812">
        <ele>650</ele>
        <time>2021-08-05T14:31:41.641Z</time>
      </trkpt>
      <trkpt lat="46.97075" lon="8.78812">
        <ele>649</ele>
        <time>2021-08-05T14:31:42.641Z</time>
      </trkpt>
      <trkpt lat="46.97071" lon="8.7881">
        <ele>647</ele>
        <time>2021-08-05T14:31:43.641Z</time>
      </trkpt>
      <trkpt lat="46.97071" lon="8.7881">
        <ele>648</ele>
        <time>2021-08-05T14:31:44.641Z</time>
      </trkpt>
      <trkpt lat="46.97074" lon="8.78812">
        <ele>652</ele>
        <time>2021-08-05T14:31:45.643Z</time>
      </trkpt>
      <trkpt lat="46.97076" lon="8.78812">
        <ele>659</ele>
        <time>2021-08-05T14:31:46.643Z</time>
      </trkpt>
      <trkpt lat="46.97076" lon="8.78812">
        <ele>659</ele>
        <time>2021-08-05T14:31:47.642Z</time>
      </trkpt>
      <trkpt lat="46.97077" lon="8.78811">
        <ele>659</ele>
        <time>2021-08-05T14:31:48.642Z</time>
      </trkpt>
      <trkpt lat="46.97078" lon="8.7881">
        <ele>659</ele>
        <time>2021-08-05T14:31:49.642Z</time>
      </trkpt>
      <trkpt lat="46.97079" lon="8.78809">
        <ele>659</ele>
        <time>2021-08-05T14:31:50.642Z</time>
      </trkpt>
      <trkpt lat="46.9708" lon="8.78807">
        <ele>658</ele>
        <time>2021-08-05T14:31:51.642Z</time>
      </trkpt>
      <trkpt lat="46.97081" lon="8.78807">
        <ele>658</ele>
        <time>2021-08-05T14:31:52.642Z</time>
      </trkpt>
      <trkpt lat="46.97081" lon="8.78806">
        <ele>658</ele>
        <time>2021-08-05T14:31:53.642Z</time>
      </trkpt>
      <trkpt lat="46.97081" lon="8.78804">
        <ele>658</ele>
        <time>2021-08-05T14:31:54.642Z</time>
      </trkpt>
      <trkpt lat="46.97081" lon="8.78803">
        <ele>658</ele>
        <time>2021-08-05T14:31:55.643Z</time>
      </trkpt>
      <trkpt lat="46.97082" lon="8.78802">
        <ele>658</ele>
        <time>2021-08-05T14:31:56.643Z</time>
      </trkpt>
      <trkpt lat="46.97082" lon="8.78801">
        <ele>658</ele>
        <time>2021-08-05T14:31:57.642Z</time>
      </trkpt>
      <trkpt lat="46.97083" lon="8.788">
        <ele>658</ele>
        <time>2021-08-05T14:31:58.642Z</time>
      </trkpt>
      <trkpt lat="46.97083" lon="8.78798">
        <ele>658</ele>
        <time>2021-08-05T14:31:59.642Z</time>
      </trkpt>
      <trkpt lat="46.97084" lon="8.78797">
        <ele>658</ele>
        <time>2021-08-05T14:32:00.642Z</time>
      </trkpt>
      <trkpt lat="46.97084" lon="8.78795">
        <ele>658</ele>
        <time>2021-08-05T14:32:01.642Z</time>
      </trkpt>
      <trkpt lat="46.97084" lon="8.78793">
        <ele>658</ele>
        <time>2021-08-05T14:32:02.642Z</time>
      </trkpt>
      <trkpt lat="46.97084" lon="8.78793">
        <ele>658</ele>
        <time>2021-08-05T14:32:03.642Z</time>
      </trkpt>
      <trkpt lat="46.97084" lon="8.78792">
        <ele>658</ele>
        <time>2021-08-05T14:32:04.642Z</time>
      </trkpt>
      <trkpt lat="46.97085" lon="8.7879">
        <ele>658</ele>
        <time>2021-08-05T14:32:05.642Z</time>
      </trkpt>
      <trkpt lat="46.97086" lon="8.78788">
        <ele>658</ele>
        <time>2021-08-05T14:32:06.643Z</time>
      </trkpt>
      <trkpt lat="46.97087" lon="8.78787">
        <ele>657</ele>
        <time>2021-08-05T14:32:07.643Z</time>
      </trkpt>
      <trkpt lat="46.97087" lon="8.78786">
        <ele>657</ele>
        <time>2021-08-05T14:32:08.642Z</time>
      </trkpt>
      <trkpt lat="46.97087" lon="8.78784">
        <ele>657</ele>
        <time>2021-08-05T14:32:09.643Z</time>
      </trkpt>
      <trkpt lat="46.97088" lon="8.78784">
        <ele>657</ele>
        <time>2021-08-05T14:32:10.642Z</time>
      </trkpt>
      <trkpt lat="46.97089" lon="8.78784">
        <ele>656</ele>
        <time>2021-08-05T14:32:11.643Z</time>
      </trkpt>
      <trkpt lat="46.9709" lon="8.78784">
        <ele>656</ele>
        <time>2021-08-05T14:32:12.643Z</time>
      </trkpt>
      <trkpt lat="46.97092" lon="8.78785">
        <ele>656</ele>
        <time>2021-08-05T14:32:13.643Z</time>
      </trkpt>
      <trkpt lat="46.97092" lon="8.78784">
        <ele>655</ele>
        <time>2021-08-05T14:32:14.643Z</time>
      </trkpt>
      <trkpt lat="46.97091" lon="8.78784">
        <ele>654</ele>
        <time>2021-08-05T14:32:15.642Z</time>
      </trkpt>
      <trkpt lat="46.97089" lon="8.78784">
        <ele>652</ele>
        <time>2021-08-05T14:32:16.642Z</time>
      </trkpt>
      <trkpt lat="46.9709" lon="8.78784">
        <ele>652</ele>
        <time>2021-08-05T14:32:17.642Z</time>
      </trkpt>
      <trkpt lat="46.9709" lon="8.78784">
        <ele>652</ele>
        <time>2021-08-05T14:32:18.642Z</time>
      </trkpt>
      <trkpt lat="46.9709" lon="8.78784">
        <ele>656</ele>
        <time>2021-08-05T14:32:19.644Z</time>
      </trkpt>
      <trkpt lat="46.9709" lon="8.78785">
        <ele>656</ele>
        <time>2021-08-05T14:32:20.643Z</time>
      </trkpt>
      <trkpt lat="46.97091" lon="8.78784">
        <ele>656</ele>
        <time>2021-08-05T14:32:21.645Z</time>
      </trkpt>
      <trkpt lat="46.97088" lon="8.78782">
        <ele>655</ele>
        <time>2021-08-05T14:32:22.646Z</time>
      </trkpt>
      <trkpt lat="46.97087" lon="8.78781">
        <ele>655</ele>
        <time>2021-08-05T14:32:23.645Z</time>
      </trkpt>
      <trkpt lat="46.97087" lon="8.78781">
        <ele>655</ele>
        <time>2021-08-05T14:32:24.645Z</time>
      </trkpt>
      <trkpt lat="46.97086" lon="8.78781">
        <ele>655</ele>
        <time>2021-08-05T14:32:25.645Z</time>
      </trkpt>
      <trkpt lat="46.97086" lon="8.78782">
        <ele>655</ele>
        <time>2021-08-05T14:32:26.646Z</time>
      </trkpt>
      <trkpt lat="46.97084" lon="8.78785">
        <ele>649</ele>
        <time>2021-08-05T14:32:27.646Z</time>
      </trkpt>
      <trkpt lat="46.97085" lon="8.78786">
        <ele>649</ele>
        <time>2021-08-05T14:32:28.646Z</time>
      </trkpt>
      <trkpt lat="46.97085" lon="8.78788">
        <ele>649</ele>
        <time>2021-08-05T14:32:29.645Z</time>
      </trkpt>
      <trkpt lat="46.97085" lon="8.78789">
        <ele>649</ele>
        <time>2021-08-05T14:32:30.646Z</time>
      </trkpt>
      <trkpt lat="46.97086" lon="8.78789">
        <ele>650</ele>
        <time>2021-08-05T14:32:31.646Z</time>
      </trkpt>
      <trkpt lat="46.97086" lon="8.7879">
        <ele>651</ele>
        <time>2021-08-05T14:32:32.645Z</time>
      </trkpt>
      <trkpt lat="46.97086" lon="8.7879">
        <ele>651</ele>
        <time>2021-08-05T14:32:33.646Z</time>
      </trkpt>
      <trkpt lat="46.97086" lon="8.7879">
        <ele>652</ele>
        <time>2021-08-05T14:32:34.646Z</time>
      </trkpt>
      <trkpt lat="46.97087" lon="8.7879">
        <ele>653</ele>
        <time>2021-08-05T14:32:35.645Z</time>
      </trkpt>
      <trkpt lat="46.97088" lon="8.7879">
        <ele>653</ele>
        <time>2021-08-05T14:32:36.645Z</time>
      </trkpt>
      <trkpt lat="46.9709" lon="8.7879">
        <ele>656</ele>
        <time>2021-08-05T14:32:37.646Z</time>
      </trkpt>
      <trkpt lat="46.97089" lon="8.7879">
        <ele>657</ele>
        <time>2021-08-05T14:32:38.645Z</time>
      </trkpt>
      <trkpt lat="46.97089" lon="8.7879">
        <ele>658</ele>
        <time>2021-08-05T14:32:39.645Z</time>
      </trkpt>
      <trkpt lat="46.9709" lon="8.7879">
        <ele>658</ele>
        <time>2021-08-05T14:32:40.646Z</time>
      </trkpt>
      <trkpt lat="46.9709" lon="8.78789">
        <ele>659</ele>
        <time>2021-08-05T14:32:41.645Z</time>
      </trkpt>
      <trkpt lat="46.97089" lon="8.78787">
        <ele>661</ele>
        <time>2021-08-05T14:32:42.646Z</time>
      </trkpt>
      <trkpt lat="46.97089" lon="8.78786">
        <ele>662</ele>
        <time>2021-08-05T14:32:43.645Z</time>
      </trkpt>
      <trkpt lat="46.9709" lon="8.78785">
        <ele>662</ele>
        <time>2021-08-05T14:32:44.646Z</time>
      </trkpt>
      <trkpt lat="46.9709" lon="8.78785">
        <ele>662</ele>
        <time>2021-08-05T14:32:45.645Z</time>
      </trkpt>
      <trkpt lat="46.9709" lon="8.78784">
        <ele>661</ele>
        <time>2021-08-05T14:32:46.645Z</time>
      </trkpt>
      <trkpt lat="46.9709" lon="8.78784">
        <ele>660</ele>
        <time>2021-08-05T14:32:47.646Z</time>
      </trkpt>
      <trkpt lat="46.97091" lon="8.78784">
        <ele>658</ele>
        <time>2021-08-05T14:32:48.645Z</time>
      </trkpt>
      <trkpt lat="46.97091" lon="8.78784">
        <ele>656</ele>
        <time>2021-08-05T14:32:49.646Z</time>
      </trkpt>
      <trkpt lat="46.97087" lon="8.78786">
        <ele>650</ele>
        <time>2021-08-05T14:32:50.647Z</time>
      </trkpt>
      <trkpt lat="46.97089" lon="8.78786">
        <ele>647</ele>
        <time>2021-08-05T14:32:51.647Z</time>
      </trkpt>
      <trkpt lat="46.97089" lon="8.78786">
        <ele>647</ele>
        <time>2021-08-05T14:32:52.648Z</time>
      </trkpt>
      <trkpt lat="46.97088" lon="8.78781">
        <ele>646</ele>
        <time>2021-08-05T14:32:53.647Z</time>
      </trkpt>
      <trkpt lat="46.97088" lon="8.78781">
        <ele>645</ele>
        <time>2021-08-05T14:32:54.649Z</time>
      </trkpt>
      <trkpt lat="46.97088" lon="8.78781">
        <ele>645</ele>
        <time>2021-08-05T14:32:55.649Z</time>
      </trkpt>
      <trkpt lat="46.97088" lon="8.78781">
        <ele>646</ele>
        <time>2021-08-05T14:32:56.648Z</time>
      </trkpt>
      <trkpt lat="46.97088" lon="8.78782">
        <ele>646</ele>
        <time>2021-08-05T14:32:57.649Z</time>
      </trkpt>
      <trkpt lat="46.97088" lon="8.78782">
        <ele>646</ele>
        <time>2021-08-05T14:32:58.649Z</time>
      </trkpt>
      <trkpt lat="46.97085" lon="8.78786">
        <ele>641</ele>
        <time>2021-08-05T14:32:59.648Z</time>
      </trkpt>
      <trkpt lat="46.97084" lon="8.78786">
        <ele>641</ele>
        <time>2021-08-05T14:33:00.648Z</time>
      </trkpt>
      <trkpt lat="46.97084" lon="8.78786">
        <ele>641</ele>
        <time>2021-08-05T14:33:01.648Z</time>
      </trkpt>
      <trkpt lat="46.97084" lon="8.78787">
        <ele>641</ele>
        <time>2021-08-05T14:33:02.648Z</time>
      </trkpt>
      <trkpt lat="46.97084" lon="8.78786">
        <ele>641</ele>
        <time>2021-08-05T14:33:03.648Z</time>
      </trkpt>
      <trkpt lat="46.97084" lon="8.78786">
        <ele>640</ele>
        <time>2021-08-05T14:33:04.648Z</time>
      </trkpt>
      <trkpt lat="46.97084" lon="8.78785">
        <ele>640</ele>
        <time>2021-08-05T14:33:05.649Z</time>
      </trkpt>
      <trkpt lat="46.97084" lon="8.78784">
        <ele>640</ele>
        <time>2021-08-05T14:33:06.649Z</time>
      </trkpt>
      <trkpt lat="46.97083" lon="8.78782">
        <ele>652</ele>
        <time>2021-08-05T14:33:07.649Z</time>
      </trkpt>
      <trkpt lat="46.97083" lon="8.78782">
        <ele>652</ele>
        <time>2021-08-05T14:33:08.649Z</time>
      </trkpt>
      <trkpt lat="46.97084" lon="8.78783">
        <ele>653</ele>
        <time>2021-08-05T14:33:09.649Z</time>
      </trkpt>
      <trkpt lat="46.97084" lon="8.78783">
        <ele>653</ele>
        <time>2021-08-05T14:33:10.650Z</time>
      </trkpt>
      <trkpt lat="46.97085" lon="8.78782">
        <ele>652</ele>
        <time>2021-08-05T14:33:11.649Z</time>
      </trkpt>
      <trkpt lat="46.97085" lon="8.78783">
        <ele>652</ele>
        <time>2021-08-05T14:33:12.649Z</time>
      </trkpt>
      <trkpt lat="46.97086" lon="8.78782">
        <ele>652</ele>
        <time>2021-08-05T14:33:13.649Z</time>
      </trkpt>
      <trkpt lat="46.97086" lon="8.78782">
        <ele>652</ele>
        <time>2021-08-05T14:33:14.649Z</time>
      </trkpt>
      <trkpt lat="46.97086" lon="8.78781">
        <ele>652</ele>
        <time>2021-08-05T14:33:15.649Z</time>
      </trkpt>
      <trkpt lat="46.97087" lon="8.78781">
        <ele>652</ele>
        <time>2021-08-05T14:33:16.649Z</time>
      </trkpt>
      <trkpt lat="46.97087" lon="8.7878">
        <ele>653</ele>
        <time>2021-08-05T14:33:17.650Z</time>
      </trkpt>
      <trkpt lat="46.97087" lon="8.78781">
        <ele>653</ele>
        <time>2021-08-05T14:33:18.649Z</time>
      </trkpt>
      <trkpt lat="46.97087" lon="8.78782">
        <ele>653</ele>
        <time>2021-08-05T14:33:19.649Z</time>
      </trkpt>
      <trkpt lat="46.97088" lon="8.78783">
        <ele>657</ele>
        <time>2021-08-05T14:33:20.651Z</time>
      </trkpt>
      <trkpt lat="46.97088" lon="8.78782">
        <ele>656</ele>
        <time>2021-08-05T14:33:21.650Z</time>
      </trkpt>
      <trkpt lat="46.97088" lon="8.78782">
        <ele>656</ele>
        <time>2021-08-05T14:33:22.650Z</time>
      </trkpt>
      <trkpt lat="46.97088" lon="8.78782">
        <ele>656</ele>
        <time>2021-08-05T14:33:23.650Z</time>
      </trkpt>
      <trkpt lat="46.97088" lon="8.78781">
        <ele>656</ele>
        <time>2021-08-05T14:33:24.651Z</time>
      </trkpt>
      <trkpt lat="46.97089" lon="8.78781">
        <ele>655</ele>
        <time>2021-08-05T14:33:25.651Z</time>
      </trkpt>
      <trkpt lat="46.97089" lon="8.78781">
        <ele>655</ele>
        <time>2021-08-05T14:33:26.651Z</time>
      </trkpt>
      <trkpt lat="46.97089" lon="8.78781">
        <ele>654</ele>
        <time>2021-08-05T14:33:27.651Z</time>
      </trkpt>
      <trkpt lat="46.97089" lon="8.78781">
        <ele>653</ele>
        <time>2021-08-05T14:33:28.650Z</time>
      </trkpt>
      <trkpt lat="46.97091" lon="8.7878">
        <ele>654</ele>
        <time>2021-08-05T14:33:29.653Z</time>
      </trkpt>
      <trkpt lat="46.97091" lon="8.7878">
        <ele>654</ele>
        <time>2021-08-05T14:33:30.653Z</time>
      </trkpt>
      <trkpt lat="46.9709" lon="8.7878">
        <ele>656</ele>
        <time>2021-08-05T14:33:31.653Z</time>
      </trkpt>
      <trkpt lat="46.9709" lon="8.7878">
        <ele>657</ele>
        <time>2021-08-05T14:33:32.653Z</time>
      </trkpt>
      <trkpt lat="46.9709" lon="8.7878">
        <ele>657</ele>
        <time>2021-08-05T14:33:33.653Z</time>
      </trkpt>
      <trkpt lat="46.9709" lon="8.78781">
        <ele>657</ele>
        <time>2021-08-05T14:33:34.652Z</time>
      </trkpt>
      <trkpt lat="46.9709" lon="8.78781">
        <ele>658</ele>
        <time>2021-08-05T14:33:35.653Z</time>
      </trkpt>
      <trkpt lat="46.9709" lon="8.78781">
        <ele>657</ele>
        <time>2021-08-05T14:33:36.652Z</time>
      </trkpt>
      <trkpt lat="46.9709" lon="8.78782">
        <ele>657</ele>
        <time>2021-08-05T14:33:37.652Z</time>
      </trkpt>
      <trkpt lat="46.97089" lon="8.78782">
        <ele>657</ele>
        <time>2021-08-05T14:33:38.653Z</time>
      </trkpt>
    </trkseg>
  </trk>
</gpx>